<?xml version='1.0' encoding='UTF-8'?><gpx version="1.1" creator="JPX - https://github.com/jenetics/jpx" xmlns="http://www.topografix.com/GPX/1/1"><trk><trkseg><trkpt lat="44.63426971241056" lon="10.60509531541158"><ele>121.0</ele><time>2026-04-06T12:11:03.988Z</time></trkpt><trkpt lat="44.63419771571804" lon="10.605022131676114"><ele>121.0</ele><time>2026-04-06T12:11:09.992Z</time></trkpt><trkpt lat="44.634103826422844" lon="10.604907081299926"><ele>121.0</ele><time>2026-04-06T12:11:52Z</time></trkpt><trkpt lat="44.63414742695259" lon="10.605002119123604"><ele>121.0</ele><time>2026-04-06T12:12:16Z</time></trkpt><trkpt lat="44.63424119636872" lon="10.605137022222022"><ele>121.0</ele><time>2026-04-06T12:13:42Z</time></trkpt><trkpt lat="44.63415936849122" lon="10.605073203535845"><ele>121.00000000000001</ele><time>2026-04-06T12:13:43Z</time></trkpt><trkpt lat="44.63413097912995" lon="10.604960369442018"><ele>121.0</ele><time>2026-04-06T12:13:58Z</time></trkpt><trkpt lat="44.63418437616666" lon="10.605012516855895"><ele>121.0</ele><time>2026-04-06T12:15:50Z</time></trkpt><trkpt lat="44.634113753042996" lon="10.60503912497025"><ele>121.0</ele><time>2026-04-06T12:15:53Z</time></trkpt><trkpt lat="44.634094079587676" lon="10.605145685590138"><ele>121.00000000000001</ele><time>2026-04-06T12:15:55Z</time></trkpt><trkpt lat="44.63409388133252" lon="10.605263436975187"><ele>121.0</ele><time>2026-04-06T12:15:57Z</time></trkpt><trkpt lat="44.63403098710386" lon="10.605243976230721"><ele>121.00000000000001</ele><time>2026-04-06T12:16:40Z</time></trkpt><trkpt lat="44.63397039130402" lon="10.605306178954944"><ele>121.0</ele><time>2026-04-06T12:16:43Z</time></trkpt><trkpt lat="44.63390774454644" lon="10.605269697980887"><ele>121.0</ele><time>2026-04-06T12:16:44Z</time></trkpt><trkpt lat="44.63383287778138" lon="10.605249064592279"><ele>121.0</ele><time>2026-04-06T12:16:45Z</time></trkpt><trkpt lat="44.63376329812601" lon="10.60523199475217"><ele>121.00000000000001</ele><time>2026-04-06T12:16:46Z</time></trkpt><trkpt lat="44.633686190852835" lon="10.605210661095777"><ele>121.0</ele><time>2026-04-06T12:16:47Z</time></trkpt><trkpt lat="44.633601920849785" lon="10.60519731070912"><ele>121.6</ele><time>2026-04-06T12:16:48Z</time></trkpt><trkpt lat="44.633506217824745" lon="10.605196115183015"><ele>122.19999999999999</ele><time>2026-04-06T12:16:49Z</time></trkpt><trkpt lat="44.63340301475144" lon="10.605207530911182"><ele>122.80000000000001</ele><time>2026-04-06T12:16:50Z</time></trkpt><trkpt lat="44.63330397323918" lon="10.605225959375558"><ele>123.4</ele><time>2026-04-06T12:16:51Z</time></trkpt><trkpt lat="44.63320504336058" lon="10.60524897057493"><ele>124.0</ele><time>2026-04-06T12:16:52Z</time></trkpt><trkpt lat="44.633098468562075" lon="10.605276389666534"><ele>124.0</ele><time>2026-04-06T12:16:53Z</time></trkpt><trkpt lat="44.63299514808412" lon="10.605293093603636"><ele>124.0</ele><time>2026-04-06T12:16:54Z</time></trkpt><trkpt lat="44.63289210070626" lon="10.605311751112938"><ele>124.0</ele><time>2026-04-06T12:16:55Z</time></trkpt><trkpt lat="44.632791779857605" lon="10.605339453255164"><ele>124.0</ele><time>2026-04-06T12:16:56Z</time></trkpt><trkpt lat="44.632686150053296" lon="10.60536837515842"><ele>124.0</ele><time>2026-04-06T12:16:57Z</time></trkpt><trkpt lat="44.632576939720224" lon="10.605383665555085"><ele>124.80000000000001</ele><time>2026-04-06T12:16:58Z</time></trkpt><trkpt lat="44.63247318093948" lon="10.60541026028251"><ele>125.60000000000001</ele><time>2026-04-06T12:16:59Z</time></trkpt><trkpt lat="44.632364949005336" lon="10.605428350577661"><ele>126.4</ele><time>2026-04-06T12:17:00Z</time></trkpt><trkpt lat="44.6322604218197" lon="10.605448895135467"><ele>127.2</ele><time>2026-04-06T12:17:01Z</time></trkpt><trkpt lat="44.63214988155213" lon="10.605470415299756"><ele>128.0</ele><time>2026-04-06T12:17:02Z</time></trkpt><trkpt lat="44.632039974142856" lon="10.605496047066477"><ele>128.25</ele><time>2026-04-06T12:17:03Z</time></trkpt><trkpt lat="44.631933393827985" lon="10.605515067017995"><ele>128.5</ele><time>2026-04-06T12:17:04Z</time></trkpt><trkpt lat="44.631819301731724" lon="10.605541415924561"><ele>128.75</ele><time>2026-04-06T12:17:05Z</time></trkpt><trkpt lat="44.6317031210007" lon="10.605573718291858"><ele>129.0</ele><time>2026-04-06T12:17:06Z</time></trkpt><trkpt lat="44.63157833134997" lon="10.605594075617063"><ele>129.0</ele><time>2026-04-06T12:17:07Z</time></trkpt><trkpt lat="44.63146057451262" lon="10.605619125387609"><ele>129.0</ele><time>2026-04-06T12:17:08Z</time></trkpt><trkpt lat="44.63134224409429" lon="10.605645762102121"><ele>129.0</ele><time>2026-04-06T12:17:09Z</time></trkpt><trkpt lat="44.63122919323635" lon="10.605674182332349"><ele>129.0</ele><time>2026-04-06T12:17:09.999Z</time></trkpt><trkpt lat="44.631123679303535" lon="10.605703994062734"><ele>129.5</ele><time>2026-04-06T12:17:10.999Z</time></trkpt><trkpt lat="44.6310074546187" lon="10.605725203498087"><ele>130.0</ele><time>2026-04-06T12:17:11.999Z</time></trkpt><trkpt lat="44.63088355840631" lon="10.60575412043767"><ele>130.5</ele><time>2026-04-06T12:17:12.999Z</time></trkpt><trkpt lat="44.63076578789368" lon="10.60578211418148"><ele>131.0</ele><time>2026-04-06T12:17:13.999Z</time></trkpt><trkpt lat="44.63064430953431" lon="10.605806083778953"><ele>131.0</ele><time>2026-04-06T12:17:14.999Z</time></trkpt><trkpt lat="44.63051912196349" lon="10.605835407759326"><ele>131.0</ele><time>2026-04-06T12:17:15.999Z</time></trkpt><trkpt lat="44.63040957969763" lon="10.605859154477587"><ele>131.0</ele><time>2026-04-06T12:17:16.999Z</time></trkpt><trkpt lat="44.63028847592621" lon="10.605874512814133"><ele>131.0</ele><time>2026-04-06T12:17:17.999Z</time></trkpt><trkpt lat="44.63016886388911" lon="10.60589423943106"><ele>131.75</ele><time>2026-04-06T12:17:18.999Z</time></trkpt><trkpt lat="44.630051429891694" lon="10.605908189744019"><ele>132.5</ele><time>2026-04-06T12:17:19.999Z</time></trkpt><trkpt lat="44.629925499982335" lon="10.605910751677118"><ele>133.25</ele><time>2026-04-06T12:17:21Z</time></trkpt><trkpt lat="44.62980736088987" lon="10.605913105223566"><ele>134.0</ele><time>2026-04-06T12:17:22Z</time></trkpt><trkpt lat="44.629685569372015" lon="10.605919358544853"><ele>134.0</ele><time>2026-04-06T12:17:23Z</time></trkpt><trkpt lat="44.62956392012314" lon="10.60592277860404"><ele>134.0</ele><time>2026-04-06T12:17:24Z</time></trkpt><trkpt lat="44.629440596012934" lon="10.605926293469915"><ele>134.0</ele><time>2026-04-06T12:17:25Z</time></trkpt><trkpt lat="44.629325714457266" lon="10.605928873511166"><ele>134.0</ele><time>2026-04-06T12:17:26Z</time></trkpt><trkpt lat="44.629196068119015" lon="10.605933152521596"><ele>134.25</ele><time>2026-04-06T12:17:27Z</time></trkpt><trkpt lat="44.62907591217467" lon="10.605939217321396"><ele>134.5</ele><time>2026-04-06T12:17:28Z</time></trkpt><trkpt lat="44.62895378215635" lon="10.605940314996374"><ele>134.75</ele><time>2026-04-06T12:17:29Z</time></trkpt><trkpt lat="44.62883252935376" lon="10.60594101148828"><ele>135.0</ele><time>2026-04-06T12:17:30Z</time></trkpt><trkpt lat="44.628708502410284" lon="10.605948332940763"><ele>136.0</ele><time>2026-04-06T12:17:31Z</time></trkpt><trkpt lat="44.62859023189212" lon="10.60595384383309"><ele>137.0</ele><time>2026-04-06T12:17:32Z</time></trkpt><trkpt lat="44.628474641364" lon="10.605957817899514"><ele>138.0</ele><time>2026-04-06T12:17:33Z</time></trkpt><trkpt lat="44.62835374340799" lon="10.605965698213035"><ele>139.0</ele><time>2026-04-06T12:17:34Z</time></trkpt><trkpt lat="44.62823848432168" lon="10.605977062668922"><ele>139.0</ele><time>2026-04-06T12:17:35Z</time></trkpt><trkpt lat="44.628121438762605" lon="10.605991315126168"><ele>139.0</ele><time>2026-04-06T12:17:36Z</time></trkpt><trkpt lat="44.627999736013855" lon="10.605997902165003"><ele>139.0</ele><time>2026-04-06T12:17:37Z</time></trkpt><trkpt lat="44.62788323993076" lon="10.606010495668105"><ele>139.0</ele><time>2026-04-06T12:17:38Z</time></trkpt><trkpt lat="44.62776777001855" lon="10.606024356972728"><ele>139.2</ele><time>2026-04-06T12:17:39Z</time></trkpt><trkpt lat="44.62765419078346" lon="10.6060366061284"><ele>139.4</ele><time>2026-04-06T12:17:40Z</time></trkpt><trkpt lat="44.627542061476206" lon="10.60604729001837"><ele>139.6</ele><time>2026-04-06T12:17:41Z</time></trkpt><trkpt lat="44.62743284158817" lon="10.606057142341308"><ele>139.8</ele><time>2026-04-06T12:17:42Z</time></trkpt><trkpt lat="44.6273319613206" lon="10.606059881407674"><ele>140.0</ele><time>2026-04-06T12:17:43Z</time></trkpt><trkpt lat="44.6272392175981" lon="10.60602374060561"><ele>140.0</ele><time>2026-04-06T12:17:44Z</time></trkpt><trkpt lat="44.62715616255997" lon="10.60603423771435"><ele>140.0</ele><time>2026-04-06T12:17:45Z</time></trkpt><trkpt lat="44.62706618897289" lon="10.606039575077416"><ele>140.0</ele><time>2026-04-06T12:17:46Z</time></trkpt><trkpt lat="44.62697526901155" lon="10.606097103632502"><ele>140.0</ele><time>2026-04-06T12:17:47Z</time></trkpt><trkpt lat="44.62687287752871" lon="10.606121360338875"><ele>140.0</ele><time>2026-04-06T12:17:48Z</time></trkpt><trkpt lat="44.62675486046548" lon="10.606123645639693"><ele>140.0</ele><time>2026-04-06T12:17:49Z</time></trkpt><trkpt lat="44.62664633136544" lon="10.60611919094211"><ele>140.0</ele><time>2026-04-06T12:17:50Z</time></trkpt><trkpt lat="44.626529254335104" lon="10.606114953930348"><ele>140.0</ele><time>2026-04-06T12:17:51Z</time></trkpt><trkpt lat="44.62640706627407" lon="10.606103990701033"><ele>140.0</ele><time>2026-04-06T12:17:52Z</time></trkpt><trkpt lat="44.626282535628775" lon="10.606098345661637"><ele>140.0</ele><time>2026-04-06T12:17:53Z</time></trkpt><trkpt lat="44.62616014627881" lon="10.606081079004385"><ele>140.0</ele><time>2026-04-06T12:17:54Z</time></trkpt><trkpt lat="44.62603845916543" lon="10.606074098021685"><ele>140.0</ele><time>2026-04-06T12:17:55Z</time></trkpt><trkpt lat="44.62591829421782" lon="10.606064311267788"><ele>140.0</ele><time>2026-04-06T12:17:56Z</time></trkpt><trkpt lat="44.6257988253561" lon="10.60604685019322"><ele>140.5</ele><time>2026-04-06T12:17:57Z</time></trkpt><trkpt lat="44.62567361548677" lon="10.60603258573939"><ele>141.0</ele><time>2026-04-06T12:17:58Z</time></trkpt><trkpt lat="44.62554631062444" lon="10.606014415767156"><ele>141.5</ele><time>2026-04-06T12:17:59Z</time></trkpt><trkpt lat="44.62542072816466" lon="10.606001938255194"><ele>142.0</ele><time>2026-04-06T12:18:00Z</time></trkpt><trkpt lat="44.625296176262594" lon="10.60597940384801"><ele>142.75</ele><time>2026-04-06T12:18:01Z</time></trkpt><trkpt lat="44.62517517846457" lon="10.605947826540854"><ele>143.5</ele><time>2026-04-06T12:18:02Z</time></trkpt><trkpt lat="44.625057200652634" lon="10.605897548648356"><ele>144.25</ele><time>2026-04-06T12:18:03Z</time></trkpt><trkpt lat="44.62494148906668" lon="10.60583500436512"><ele>145.0</ele><time>2026-04-06T12:18:04Z</time></trkpt><trkpt lat="44.62482447694752" lon="10.605766793360868"><ele>145.0</ele><time>2026-04-06T12:18:05Z</time></trkpt><trkpt lat="44.62471187818785" lon="10.60569068286335"><ele>145.0</ele><time>2026-04-06T12:18:06Z</time></trkpt><trkpt lat="44.62459824819502" lon="10.605613344435739"><ele>145.0</ele><time>2026-04-06T12:18:07Z</time></trkpt><trkpt lat="44.624486024379515" lon="10.605540122771735"><ele>145.0</ele><time>2026-04-06T12:18:08Z</time></trkpt><trkpt lat="44.624375337076614" lon="10.605465759341591"><ele>145.25</ele><time>2026-04-06T12:18:09Z</time></trkpt><trkpt lat="44.62425838522761" lon="10.605391652040042"><ele>145.5</ele><time>2026-04-06T12:18:10Z</time></trkpt><trkpt lat="44.62415095096215" lon="10.605316735670009"><ele>145.75</ele><time>2026-04-06T12:18:11Z</time></trkpt><trkpt lat="44.6240379190034" lon="10.605242538784434"><ele>146.0</ele><time>2026-04-06T12:18:12Z</time></trkpt><trkpt lat="44.623924199241465" lon="10.605167644684206"><ele>146.0</ele><time>2026-04-06T12:18:13Z</time></trkpt><trkpt lat="44.623813569606725" lon="10.60509075072843"><ele>146.0</ele><time>2026-04-06T12:18:14Z</time></trkpt><trkpt lat="44.62369826483647" lon="10.60501839902831"><ele>146.0</ele><time>2026-04-06T12:18:15Z</time></trkpt><trkpt lat="44.62357927802452" lon="10.604939438787467"><ele>146.0</ele><time>2026-04-06T12:18:16Z</time></trkpt><trkpt lat="44.62345997772666" lon="10.604861326492154"><ele>147.0</ele><time>2026-04-06T12:18:17Z</time></trkpt><trkpt lat="44.62334074195949" lon="10.604781887034521"><ele>148.0</ele><time>2026-04-06T12:18:18Z</time></trkpt><trkpt lat="44.62322075450005" lon="10.60471231865248"><ele>149.0</ele><time>2026-04-06T12:18:19Z</time></trkpt><trkpt lat="44.62310090776678" lon="10.604635441694517"><ele>150.0</ele><time>2026-04-06T12:18:20Z</time></trkpt><trkpt lat="44.62299120579399" lon="10.604556940641743"><ele>150.25</ele><time>2026-04-06T12:18:21Z</time></trkpt><trkpt lat="44.62287743930124" lon="10.604480126303317"><ele>150.5</ele><time>2026-04-06T12:18:22Z</time></trkpt><trkpt lat="44.622769165207345" lon="10.604396395652397"><ele>150.75</ele><time>2026-04-06T12:18:23Z</time></trkpt><trkpt lat="44.62265417421476" lon="10.604320605885091"><ele>151.0</ele><time>2026-04-06T12:18:24Z</time></trkpt><trkpt lat="44.62254207701623" lon="10.604249047432221"><ele>151.75</ele><time>2026-04-06T12:18:25Z</time></trkpt><trkpt lat="44.622429377954006" lon="10.604173038277247"><ele>152.5</ele><time>2026-04-06T12:18:26Z</time></trkpt><trkpt lat="44.62232270232377" lon="10.604096476100429"><ele>153.25</ele><time>2026-04-06T12:18:27Z</time></trkpt><trkpt lat="44.6222117715638" lon="10.60402456830276"><ele>154.0</ele><time>2026-04-06T12:18:28Z</time></trkpt><trkpt lat="44.622099600743695" lon="10.603948578585703"><ele>154.0</ele><time>2026-04-06T12:18:29Z</time></trkpt><trkpt lat="44.621991712049265" lon="10.603873823913334"><ele>154.0</ele><time>2026-04-06T12:18:30Z</time></trkpt><trkpt lat="44.62188324176976" lon="10.60379954474752"><ele>154.0</ele><time>2026-04-06T12:18:31Z</time></trkpt><trkpt lat="44.621782559394894" lon="10.603728041202409"><ele>154.0</ele><time>2026-04-06T12:18:32Z</time></trkpt><trkpt lat="44.62169213547719" lon="10.603660344997385"><ele>154.33333333333334</ele><time>2026-04-06T12:18:33Z</time></trkpt><trkpt lat="44.62160934895922" lon="10.603601004606444"><ele>154.66666666666669</ele><time>2026-04-06T12:18:34Z</time></trkpt><trkpt lat="44.62153626756883" lon="10.603548667096758"><ele>155.0</ele><time>2026-04-06T12:18:35Z</time></trkpt><trkpt lat="44.62147321948964" lon="10.60349528978078"><ele>155.33333333333334</ele><time>2026-04-06T12:18:36Z</time></trkpt><trkpt lat="44.62140803921912" lon="10.603440340491291"><ele>155.66666666666666</ele><time>2026-04-06T12:18:37Z</time></trkpt><trkpt lat="44.62134852863819" lon="10.603379793852609"><ele>156.0</ele><time>2026-04-06T12:18:38Z</time></trkpt><trkpt lat="44.621259443808185" lon="10.603311984041088"><ele>156.0</ele><time>2026-04-06T12:18:40Z</time></trkpt><trkpt lat="44.62119764336282" lon="10.603401799784763"><ele>156.0</ele><time>2026-04-06T12:18:41Z</time></trkpt><trkpt lat="44.621167935739194" lon="10.603493756843775"><ele>156.0</ele><time>2026-04-06T12:18:42Z</time></trkpt><trkpt lat="44.621158872562376" lon="10.603630244792459"><ele>156.0</ele><time>2026-04-06T12:18:43Z</time></trkpt><trkpt lat="44.62111515063605" lon="10.603769312277281"><ele>156.0</ele><time>2026-04-06T12:18:44Z</time></trkpt><trkpt lat="44.621053505688124" lon="10.603913323539345"><ele>156.4</ele><time>2026-04-06T12:18:45Z</time></trkpt><trkpt lat="44.620990983699" lon="10.604061882382053"><ele>156.8</ele><time>2026-04-06T12:18:45.999Z</time></trkpt><trkpt lat="44.620948755432686" lon="10.604190866773845"><ele>157.20000000000002</ele><time>2026-04-06T12:18:46.999Z</time></trkpt><trkpt lat="44.62090212654808" lon="10.60429846979913"><ele>157.6</ele><time>2026-04-06T12:18:47.999Z</time></trkpt><trkpt lat="44.62086053460863" lon="10.604365054888055"><ele>158.0</ele><time>2026-04-06T12:18:48.999Z</time></trkpt><trkpt lat="44.62075010182457" lon="10.604395713186817"><ele>158.0</ele><time>2026-04-06T12:18:50.999Z</time></trkpt><trkpt lat="44.620671951149056" lon="10.604486346802508"><ele>158.0</ele><time>2026-04-06T12:18:52.999Z</time></trkpt><trkpt lat="44.62065051405626" lon="10.604570767963628"><ele>158.0</ele><time>2026-04-06T12:18:54.999Z</time></trkpt><trkpt lat="44.620662692830734" lon="10.604661389386859"><ele>158.0</ele><time>2026-04-06T12:22:47Z</time></trkpt><trkpt lat="44.62070396577844" lon="10.60473954013941"><ele>158.0</ele><time>2026-04-06T12:22:49Z</time></trkpt><trkpt lat="44.62083357584939" lon="10.60463386475571"><ele>158.0</ele><time>2026-04-06T12:22:55Z</time></trkpt><trkpt lat="44.62086394201807" lon="10.6045415757463"><ele>158.0</ele><time>2026-04-06T12:22:56Z</time></trkpt><trkpt lat="44.62090221347223" lon="10.604428081289486"><ele>158.0</ele><time>2026-04-06T12:22:57Z</time></trkpt><trkpt lat="44.620949461760375" lon="10.604305112001956"><ele>158.0</ele><time>2026-04-06T12:22:57.999Z</time></trkpt><trkpt lat="44.62099894257443" lon="10.604173569750968"><ele>158.0</ele><time>2026-04-06T12:22:58.999Z</time></trkpt><trkpt lat="44.621048709996444" lon="10.60405201552675"><ele>158.0</ele><time>2026-04-06T12:22:59.999Z</time></trkpt><trkpt lat="44.621094518870684" lon="10.603933725951318"><ele>158.0</ele><time>2026-04-06T12:23:00.999Z</time></trkpt><trkpt lat="44.62113656060799" lon="10.603822483938918"><ele>158.0</ele><time>2026-04-06T12:23:01.999Z</time></trkpt><trkpt lat="44.621184793854994" lon="10.603738168810978"><ele>158.0</ele><time>2026-04-06T12:23:02.999Z</time></trkpt><trkpt lat="44.621217235634035" lon="10.603650216391214"><ele>158.0</ele><time>2026-04-06T12:23:03.999Z</time></trkpt><trkpt lat="44.62129311657418" lon="10.603541200587998"><ele>158.0</ele><time>2026-04-06T12:23:05.999Z</time></trkpt><trkpt lat="44.621350395682434" lon="10.603424776091241"><ele>157.6</ele><time>2026-04-06T12:23:07.999Z</time></trkpt><trkpt lat="44.62126499204446" lon="10.603304350812266"><ele>157.20000000000002</ele><time>2026-04-06T12:23:09.999Z</time></trkpt><trkpt lat="44.62118713376674" lon="10.60329122613894"><ele>156.8</ele><time>2026-04-06T12:23:10.999Z</time></trkpt><trkpt lat="44.62109847037451" lon="10.603275527962515"><ele>156.4</ele><time>2026-04-06T12:23:11.999Z</time></trkpt><trkpt lat="44.621000799058535" lon="10.60321646369314"><ele>156.0</ele><time>2026-04-06T12:23:12.999Z</time></trkpt><trkpt lat="44.62090774164317" lon="10.603145970249539"><ele>156.8</ele><time>2026-04-06T12:23:13.999Z</time></trkpt><trkpt lat="44.620818025342565" lon="10.603077428233112"><ele>157.6</ele><time>2026-04-06T12:23:14.999Z</time></trkpt><trkpt lat="44.62072590778896" lon="10.603015705333743"><ele>158.4</ele><time>2026-04-06T12:23:15.999Z</time></trkpt><trkpt lat="44.620636036662" lon="10.602953329072415"><ele>159.2</ele><time>2026-04-06T12:23:16.999Z</time></trkpt><trkpt lat="44.62054193221708" lon="10.602891741572096"><ele>160.0</ele><time>2026-04-06T12:23:17.999Z</time></trkpt><trkpt lat="44.62046381299477" lon="10.602830528172076"><ele>160.5</ele><time>2026-04-06T12:23:18.999Z</time></trkpt><trkpt lat="44.62038152743781" lon="10.602772514596376"><ele>161.0</ele><time>2026-04-06T12:23:19.999Z</time></trkpt><trkpt lat="44.62030708839132" lon="10.602744887895847"><ele>161.5</ele><time>2026-04-06T12:23:20.999Z</time></trkpt><trkpt lat="44.62023204760676" lon="10.602728215996263"><ele>162.0</ele><time>2026-04-06T12:23:21.999Z</time></trkpt><trkpt lat="44.620159856376155" lon="10.60274153977234"><ele>162.5</ele><time>2026-04-06T12:23:22.999Z</time></trkpt><trkpt lat="44.620085687667725" lon="10.602768040618182"><ele>163.0</ele><time>2026-04-06T12:23:23.999Z</time></trkpt><trkpt lat="44.62001417344013" lon="10.60279683225509"><ele>163.16666666666669</ele><time>2026-04-06T12:23:24.999Z</time></trkpt><trkpt lat="44.61994891745434" lon="10.602811168901077"><ele>163.33333333333334</ele><time>2026-04-06T12:23:25.999Z</time></trkpt><trkpt lat="44.6198769361283" lon="10.602797131685548"><ele>163.5</ele><time>2026-04-06T12:23:26.999Z</time></trkpt><trkpt lat="44.61980851722184" lon="10.602749997158707"><ele>163.66666666666666</ele><time>2026-04-06T12:23:27.999Z</time></trkpt><trkpt lat="44.61974775560423" lon="10.602667386447507"><ele>163.83333333333331</ele><time>2026-04-06T12:23:28.999Z</time></trkpt><trkpt lat="44.6196821527065" lon="10.602598659359593"><ele>164.0</ele><time>2026-04-06T12:23:29.999Z</time></trkpt><trkpt lat="44.619598535538515" lon="10.602551650886982"><ele>164.0</ele><time>2026-04-06T12:23:30.999Z</time></trkpt><trkpt lat="44.619496013979784" lon="10.602536729036693"><ele>164.0</ele><time>2026-04-06T12:23:31.999Z</time></trkpt><trkpt lat="44.6193872158629" lon="10.602523933907493"><ele>164.0</ele><time>2026-04-06T12:23:32.999Z</time></trkpt><trkpt lat="44.61926402990244" lon="10.602527705344897"><ele>164.0</ele><time>2026-04-06T12:23:33.999Z</time></trkpt><trkpt lat="44.619124693041734" lon="10.602553845198344"><ele>164.0</ele><time>2026-04-06T12:23:34.999Z</time></trkpt><trkpt lat="44.61897695502991" lon="10.60259234639518"><ele>164.0</ele><time>2026-04-06T12:23:35.999Z</time></trkpt><trkpt lat="44.61882086199874" lon="10.60263915667555"><ele>164.0</ele><time>2026-04-06T12:23:36.999Z</time></trkpt><trkpt lat="44.618675990318174" lon="10.60267339248812"><ele>164.5</ele><time>2026-04-06T12:23:37.999Z</time></trkpt><trkpt lat="44.61853900312351" lon="10.602703363087116"><ele>165.0</ele><time>2026-04-06T12:23:39Z</time></trkpt><trkpt lat="44.61840833749171" lon="10.60272650005919"><ele>165.5</ele><time>2026-04-06T12:23:40Z</time></trkpt><trkpt lat="44.61828939091628" lon="10.60273472974376"><ele>166.0</ele><time>2026-04-06T12:23:41Z</time></trkpt><trkpt lat="44.618152040313994" lon="10.602705013860891"><ele>166.0</ele><time>2026-04-06T12:23:42Z</time></trkpt><trkpt lat="44.618021596351014" lon="10.602654121816828"><ele>166.0</ele><time>2026-04-06T12:23:43Z</time></trkpt><trkpt lat="44.61789810337414" lon="10.602607934760503"><ele>166.0</ele><time>2026-04-06T12:23:44Z</time></trkpt><trkpt lat="44.617759776191285" lon="10.60255669992881"><ele>166.0</ele><time>2026-04-06T12:23:45Z</time></trkpt><trkpt lat="44.617624604192386" lon="10.602525346772103"><ele>167.5</ele><time>2026-04-06T12:23:46Z</time></trkpt><trkpt lat="44.61750690708444" lon="10.602469430956877"><ele>169.0</ele><time>2026-04-06T12:23:47Z</time></trkpt><trkpt lat="44.617381889322466" lon="10.60243721899716"><ele>170.5</ele><time>2026-04-06T12:23:48Z</time></trkpt><trkpt lat="44.61725049996769" lon="10.602392488655282"><ele>172.0</ele><time>2026-04-06T12:23:49Z</time></trkpt><trkpt lat="44.61711596165511" lon="10.602337821448732"><ele>176.5</ele><time>2026-04-06T12:23:50Z</time></trkpt><trkpt lat="44.616978894503525" lon="10.602284422331197"><ele>181.0</ele><time>2026-04-06T12:23:51Z</time></trkpt><trkpt lat="44.616859942242655" lon="10.602247345567873"><ele>185.5</ele><time>2026-04-06T12:23:52Z</time></trkpt><trkpt lat="44.6167337425834" lon="10.602203794078722"><ele>190.0</ele><time>2026-04-06T12:23:53Z</time></trkpt><trkpt lat="44.616638653383205" lon="10.602131112237268"><ele>190.0</ele><time>2026-04-06T12:23:54Z</time></trkpt><trkpt lat="44.616556514476386" lon="10.602025406645101"><ele>190.0</ele><time>2026-04-06T12:23:55Z</time></trkpt><trkpt lat="44.616522609398785" lon="10.60186180237647"><ele>190.0</ele><time>2026-04-06T12:23:56Z</time></trkpt><trkpt lat="44.6165175128271" lon="10.601697245397883"><ele>190.0</ele><time>2026-04-06T12:23:57Z</time></trkpt><trkpt lat="44.61649149696094" lon="10.601546880423676"><ele>192.0</ele><time>2026-04-06T12:23:58Z</time></trkpt><trkpt lat="44.616422121928785" lon="10.601429738415122"><ele>194.0</ele><time>2026-04-06T12:23:59Z</time></trkpt><trkpt lat="44.61631302471176" lon="10.601365119604916"><ele>196.0</ele><time>2026-04-06T12:24:00Z</time></trkpt><trkpt lat="44.61618274261996" lon="10.601351342805476"><ele>198.0</ele><time>2026-04-06T12:24:01Z</time></trkpt><trkpt lat="44.61604018960653" lon="10.601377576117125"><ele>198.0</ele><time>2026-04-06T12:24:02Z</time></trkpt><trkpt lat="44.61590142360921" lon="10.601382677432229"><ele>198.0</ele><time>2026-04-06T12:24:03Z</time></trkpt><trkpt lat="44.615755227151745" lon="10.601353410529914"><ele>198.0</ele><time>2026-04-06T12:24:04Z</time></trkpt><trkpt lat="44.61561674822414" lon="10.601281466123963"><ele>198.0</ele><time>2026-04-06T12:24:05Z</time></trkpt><trkpt lat="44.615493122327614" lon="10.601187171158399"><ele>195.5</ele><time>2026-04-06T12:24:06Z</time></trkpt><trkpt lat="44.61537212870201" lon="10.601114868262798"><ele>193.0</ele><time>2026-04-06T12:24:07Z</time></trkpt><trkpt lat="44.615254569026284" lon="10.601053452041757"><ele>190.5</ele><time>2026-04-06T12:24:08Z</time></trkpt><trkpt lat="44.61513909951003" lon="10.6009914414734"><ele>188.0</ele><time>2026-04-06T12:24:09Z</time></trkpt><trkpt lat="44.6150354011155" lon="10.600936600168579"><ele>188.0</ele><time>2026-04-06T12:24:10Z</time></trkpt><trkpt lat="44.61492407806907" lon="10.600889057735289"><ele>188.0</ele><time>2026-04-06T12:24:11Z</time></trkpt><trkpt lat="44.61481011455742" lon="10.600846334920615"><ele>188.0</ele><time>2026-04-06T12:24:12Z</time></trkpt><trkpt lat="44.61469764795645" lon="10.600806859242109"><ele>188.0</ele><time>2026-04-06T12:24:13Z</time></trkpt><trkpt lat="44.61458057945324" lon="10.600771289347744"><ele>191.25</ele><time>2026-04-06T12:24:14Z</time></trkpt><trkpt lat="44.614462782120924" lon="10.60072610651644"><ele>194.5</ele><time>2026-04-06T12:24:15Z</time></trkpt><trkpt lat="44.61435108295769" lon="10.600689330294072"><ele>197.75</ele><time>2026-04-06T12:24:16Z</time></trkpt><trkpt lat="44.61422444920778" lon="10.600642781097966"><ele>201.0</ele><time>2026-04-06T12:24:17Z</time></trkpt><trkpt lat="44.6141215073141" lon="10.600584441309397"><ele>201.0</ele><time>2026-04-06T12:24:18Z</time></trkpt><trkpt lat="44.61400307910849" lon="10.600522760802262"><ele>201.0</ele><time>2026-04-06T12:24:19Z</time></trkpt><trkpt lat="44.613872684721606" lon="10.600447796210068"><ele>201.0</ele><time>2026-04-06T12:24:20Z</time></trkpt><trkpt lat="44.61374560302304" lon="10.600377727596339"><ele>201.0</ele><time>2026-04-06T12:24:21Z</time></trkpt><trkpt lat="44.613607982863684" lon="10.600311152796605"><ele>199.75</ele><time>2026-04-06T12:24:22Z</time></trkpt><trkpt lat="44.61346185072362" lon="10.600257306716328"><ele>198.5</ele><time>2026-04-06T12:24:23Z</time></trkpt><trkpt lat="44.61333320196575" lon="10.600200221414621"><ele>197.25</ele><time>2026-04-06T12:24:24Z</time></trkpt><trkpt lat="44.613184936006014" lon="10.600132021960436"><ele>196.0</ele><time>2026-04-06T12:24:25Z</time></trkpt><trkpt lat="44.61305043920997" lon="10.600061327303088"><ele>196.0</ele><time>2026-04-06T12:24:26Z</time></trkpt><trkpt lat="44.612919817988264" lon="10.599983654875938"><ele>196.0</ele><time>2026-04-06T12:24:27Z</time></trkpt><trkpt lat="44.61278987876465" lon="10.599904001785248"><ele>196.0</ele><time>2026-04-06T12:24:28Z</time></trkpt><trkpt lat="44.612662252124416" lon="10.599830240106334"><ele>196.0</ele><time>2026-04-06T12:24:29Z</time></trkpt><trkpt lat="44.612530291798656" lon="10.599745199521587"><ele>198.66666666666666</ele><time>2026-04-06T12:24:30Z</time></trkpt><trkpt lat="44.6123978584715" lon="10.599671859786973"><ele>201.33333333333331</ele><time>2026-04-06T12:24:31Z</time></trkpt><trkpt lat="44.61225486654642" lon="10.599592067366396"><ele>204.0</ele><time>2026-04-06T12:24:32Z</time></trkpt><trkpt lat="44.61210749281152" lon="10.599508962920233"><ele>204.33333333333331</ele><time>2026-04-06T12:24:33Z</time></trkpt><trkpt lat="44.61196589602335" lon="10.599418867767811"><ele>204.66666666666666</ele><time>2026-04-06T12:24:34Z</time></trkpt><trkpt lat="44.61182140287128" lon="10.5993293365958"><ele>205.0</ele><time>2026-04-06T12:24:35Z</time></trkpt><trkpt lat="44.61167629841084" lon="10.599243810496938"><ele>205.0</ele><time>2026-04-06T12:24:36Z</time></trkpt><trkpt lat="44.6115317526648" lon="10.59915522081898"><ele>205.0</ele><time>2026-04-06T12:24:37Z</time></trkpt><trkpt lat="44.61139086069047" lon="10.599070663888922"><ele>205.0</ele><time>2026-04-06T12:24:38Z</time></trkpt><trkpt lat="44.611254548271894" lon="10.59898801310686"><ele>207.25</ele><time>2026-04-06T12:24:39Z</time></trkpt><trkpt lat="44.61111947856368" lon="10.598917559265805"><ele>209.5</ele><time>2026-04-06T12:24:40Z</time></trkpt><trkpt lat="44.610989883637714" lon="10.598840763699757"><ele>211.75</ele><time>2026-04-06T12:24:41Z</time></trkpt><trkpt lat="44.61086373492797" lon="10.59876585845526"><ele>214.0</ele><time>2026-04-06T12:24:42Z</time></trkpt><trkpt lat="44.610732555481256" lon="10.598690087836419"><ele>214.5</ele><time>2026-04-06T12:24:43Z</time></trkpt><trkpt lat="44.61062142739222" lon="10.598616121557745"><ele>215.0</ele><time>2026-04-06T12:24:44Z</time></trkpt><trkpt lat="44.610486413631335" lon="10.598543715305501"><ele>215.5</ele><time>2026-04-06T12:24:44.999Z</time></trkpt><trkpt lat="44.610344970493195" lon="10.598469771027503"><ele>216.0</ele><time>2026-04-06T12:24:45.999Z</time></trkpt><trkpt lat="44.610211142987716" lon="10.598397215006557"><ele>216.0</ele><time>2026-04-06T12:24:46.999Z</time></trkpt><trkpt lat="44.61006625971376" lon="10.598321078044444"><ele>216.0</ele><time>2026-04-06T12:24:47.999Z</time></trkpt><trkpt lat="44.609925042346624" lon="10.598245388548545"><ele>216.0</ele><time>2026-04-06T12:24:48.999Z</time></trkpt><trkpt lat="44.60979776786114" lon="10.598182545690412"><ele>216.0</ele><time>2026-04-06T12:24:49.999Z</time></trkpt><trkpt lat="44.60966515821388" lon="10.5981086557891"><ele>216.0</ele><time>2026-04-06T12:24:50.999Z</time></trkpt><trkpt lat="44.60954721574326" lon="10.598046021057993"><ele>216.0</ele><time>2026-04-06T12:24:51.999Z</time></trkpt><trkpt lat="44.60940836587371" lon="10.597956469690581"><ele>216.0</ele><time>2026-04-06T12:24:52.999Z</time></trkpt><trkpt lat="44.609298459523856" lon="10.59788122921487"><ele>216.0</ele><time>2026-04-06T12:24:53.999Z</time></trkpt><trkpt lat="44.60915828930893" lon="10.597782715294093"><ele>217.25</ele><time>2026-04-06T12:24:54.999Z</time></trkpt><trkpt lat="44.60903477713746" lon="10.597667414741435"><ele>218.5</ele><time>2026-04-06T12:24:55.999Z</time></trkpt><trkpt lat="44.60892034459931" lon="10.597539334392415"><ele>219.75</ele><time>2026-04-06T12:24:56.999Z</time></trkpt><trkpt lat="44.60880588438796" lon="10.597405381302314"><ele>221.0</ele><time>2026-04-06T12:24:57.999Z</time></trkpt><trkpt lat="44.60869037898604" lon="10.597277510784153"><ele>221.25</ele><time>2026-04-06T12:24:58.999Z</time></trkpt><trkpt lat="44.608558795259995" lon="10.597166804843337"><ele>221.5</ele><time>2026-04-06T12:24:59.999Z</time></trkpt><trkpt lat="44.60842863699568" lon="10.597071078628732"><ele>221.75</ele><time>2026-04-06T12:25:00.999Z</time></trkpt><trkpt lat="44.60829591577844" lon="10.59697896324926"><ele>222.0</ele><time>2026-04-06T12:25:01.999Z</time></trkpt><trkpt lat="44.60816661039582" lon="10.596897781009016"><ele>222.0</ele><time>2026-04-06T12:25:02.999Z</time></trkpt><trkpt lat="44.60804120390455" lon="10.596818280658503"><ele>222.0</ele><time>2026-04-06T12:25:03.999Z</time></trkpt><trkpt lat="44.60791612609033" lon="10.596750238312046"><ele>222.0</ele><time>2026-04-06T12:25:04.999Z</time></trkpt><trkpt lat="44.60778105748084" lon="10.596703395347538"><ele>222.0</ele><time>2026-04-06T12:25:05.999Z</time></trkpt><trkpt lat="44.607648839471324" lon="10.596671792679023"><ele>225.0</ele><time>2026-04-06T12:25:06.999Z</time></trkpt><trkpt lat="44.607519991894094" lon="10.596666773620875"><ele>228.0</ele><time>2026-04-06T12:25:07.999Z</time></trkpt><trkpt lat="44.607379352177475" lon="10.596677933769419"><ele>231.0</ele><time>2026-04-06T12:25:08.999Z</time></trkpt><trkpt lat="44.607259320185534" lon="10.59667918141256"><ele>234.0</ele><time>2026-04-06T12:25:09.999Z</time></trkpt><trkpt lat="44.60711768676041" lon="10.596708691938066"><ele>235.5</ele><time>2026-04-06T12:25:10.999Z</time></trkpt><trkpt lat="44.60698893965342" lon="10.596703910186523"><ele>237.0</ele><time>2026-04-06T12:25:11.999Z</time></trkpt><trkpt lat="44.606851500235884" lon="10.596691114741812"><ele>238.5</ele><time>2026-04-06T12:25:12.999Z</time></trkpt><trkpt lat="44.60671277108722" lon="10.59667096778139"><ele>240.0</ele><time>2026-04-06T12:25:13.999Z</time></trkpt><trkpt lat="44.60656859268023" lon="10.596642493511174"><ele>240.0</ele><time>2026-04-06T12:25:14.999Z</time></trkpt><trkpt lat="44.60642104684688" lon="10.596597920461011"><ele>240.0</ele><time>2026-04-06T12:25:15.999Z</time></trkpt><trkpt lat="44.6062748860448" lon="10.596540038569357"><ele>240.0</ele><time>2026-04-06T12:25:16.999Z</time></trkpt><trkpt lat="44.60613049302385" lon="10.596475492275212"><ele>241.0</ele><time>2026-04-06T12:25:17.999Z</time></trkpt><trkpt lat="44.60598131689276" lon="10.596409897162847"><ele>242.0</ele><time>2026-04-06T12:25:18.999Z</time></trkpt><trkpt lat="44.60583567547655" lon="10.596352446269753"><ele>243.0</ele><time>2026-04-06T12:25:19.999Z</time></trkpt><trkpt lat="44.60568726772857" lon="10.596293241330494"><ele>243.0</ele><time>2026-04-06T12:25:20.999Z</time></trkpt><trkpt lat="44.60554574717932" lon="10.596234698290235"><ele>243.0</ele><time>2026-04-06T12:25:21.999Z</time></trkpt><trkpt lat="44.605398606117234" lon="10.59616872498946"><ele>243.0</ele><time>2026-04-06T12:25:22.999Z</time></trkpt><trkpt lat="44.605249535402834" lon="10.596112808713812"><ele>244.25</ele><time>2026-04-06T12:25:23.999Z</time></trkpt><trkpt lat="44.60510909917094" lon="10.596062975416025"><ele>245.5</ele><time>2026-04-06T12:25:24.999Z</time></trkpt><trkpt lat="44.60497206490094" lon="10.596006705045578"><ele>246.75</ele><time>2026-04-06T12:25:25.999Z</time></trkpt><trkpt lat="44.60484152522262" lon="10.595961727432071"><ele>248.0</ele><time>2026-04-06T12:25:26.999Z</time></trkpt><trkpt lat="44.60470574849852" lon="10.595900541466685"><ele>248.0</ele><time>2026-04-06T12:25:27.999Z</time></trkpt><trkpt lat="44.60457673093926" lon="10.595828420731088"><ele>248.0</ele><time>2026-04-06T12:25:28.999Z</time></trkpt><trkpt lat="44.604453732232926" lon="10.59576047426563"><ele>248.0</ele><time>2026-04-06T12:25:29.999Z</time></trkpt><trkpt lat="44.60432982451884" lon="10.595693750958912"><ele>248.0</ele><time>2026-04-06T12:25:30.999Z</time></trkpt><trkpt lat="44.60420061617191" lon="10.595629859671604"><ele>249.5</ele><time>2026-04-06T12:25:31.999Z</time></trkpt><trkpt lat="44.60406415400092" lon="10.595556018948308"><ele>251.0</ele><time>2026-04-06T12:25:32.999Z</time></trkpt><trkpt lat="44.60393160496068" lon="10.59548530245247"><ele>252.5</ele><time>2026-04-06T12:25:33.999Z</time></trkpt><trkpt lat="44.60381055047833" lon="10.595425656056964"><ele>254.0</ele><time>2026-04-06T12:25:34.999Z</time></trkpt><trkpt lat="44.603689026332155" lon="10.59536776782787"><ele>254.5</ele><time>2026-04-06T12:25:35.999Z</time></trkpt><trkpt lat="44.60356706367699" lon="10.595300945864388"><ele>255.0</ele><time>2026-04-06T12:25:36.999Z</time></trkpt><trkpt lat="44.6034387556397" lon="10.59523627322922"><ele>255.5</ele><time>2026-04-06T12:25:37.999Z</time></trkpt><trkpt lat="44.60331264747387" lon="10.595169847167176"><ele>256.0</ele><time>2026-04-06T12:25:38.999Z</time></trkpt><trkpt lat="44.60318986703372" lon="10.595086985324652"><ele>256.0</ele><time>2026-04-06T12:25:39.999Z</time></trkpt><trkpt lat="44.603070147165226" lon="10.594985597757647"><ele>256.0</ele><time>2026-04-06T12:25:40.999Z</time></trkpt><trkpt lat="44.60295557262997" lon="10.594851813703206"><ele>256.0</ele><time>2026-04-06T12:25:41.999Z</time></trkpt><trkpt lat="44.602855366328505" lon="10.594719769310263"><ele>256.0</ele><time>2026-04-06T12:25:42.999Z</time></trkpt><trkpt lat="44.60275527727676" lon="10.594588300037735"><ele>257.0</ele><time>2026-04-06T12:25:43.999Z</time></trkpt><trkpt lat="44.60262459883736" lon="10.594484009733081"><ele>258.0</ele><time>2026-04-06T12:25:45Z</time></trkpt><trkpt lat="44.60248211657723" lon="10.594402816475112"><ele>259.0</ele><time>2026-04-06T12:25:46Z</time></trkpt><trkpt lat="44.60233250985688" lon="10.594344140215282"><ele>259.0</ele><time>2026-04-06T12:25:47Z</time></trkpt><trkpt lat="44.60217066245831" lon="10.594292143176016"><ele>259.0</ele><time>2026-04-06T12:25:48Z</time></trkpt><trkpt lat="44.60201910611225" lon="10.594239599313497"><ele>259.0</ele><time>2026-04-06T12:25:49Z</time></trkpt><trkpt lat="44.60187488066928" lon="10.59417475296376"><ele>263.66666666666663</ele><time>2026-04-06T12:25:50Z</time></trkpt><trkpt lat="44.60173993914577" lon="10.594072403229722"><ele>268.3333333333333</ele><time>2026-04-06T12:25:51Z</time></trkpt><trkpt lat="44.60161289622845" lon="10.593937286724794"><ele>273.0</ele><time>2026-04-06T12:25:52Z</time></trkpt><trkpt lat="44.601499705562944" lon="10.593790196998373"><ele>269.6666666666667</ele><time>2026-04-06T12:25:53Z</time></trkpt><trkpt lat="44.60137446853901" lon="10.59365457915358"><ele>266.33333333333337</ele><time>2026-04-06T12:25:54Z</time></trkpt><trkpt lat="44.601238981811505" lon="10.593542986117178"><ele>263.0</ele><time>2026-04-06T12:25:55Z</time></trkpt><trkpt lat="44.60112379864952" lon="10.593445935821876"><ele>268.5</ele><time>2026-04-06T12:25:56Z</time></trkpt><trkpt lat="44.60103287714706" lon="10.593305293187564"><ele>274.0</ele><time>2026-04-06T12:25:57Z</time></trkpt><trkpt lat="44.60096252375081" lon="10.593148550270765"><ele>279.5</ele><time>2026-04-06T12:25:58Z</time></trkpt><trkpt lat="44.600921623876665" lon="10.592985684230793"><ele>285.0</ele><time>2026-04-06T12:25:59Z</time></trkpt><trkpt lat="44.60087502117921" lon="10.592832435615334"><ele>285.0</ele><time>2026-04-06T12:26:00Z</time></trkpt><trkpt lat="44.60087717854683" lon="10.592664566036973"><ele>285.0</ele><time>2026-04-06T12:26:01Z</time></trkpt><trkpt lat="44.60089455540447" lon="10.592482550608507"><ele>285.0</ele><time>2026-04-06T12:26:02Z</time></trkpt><trkpt lat="44.60093878646556" lon="10.592314428384478"><ele>285.0</ele><time>2026-04-06T12:26:03Z</time></trkpt><trkpt lat="44.60096833357953" lon="10.592150859443262"><ele>283.0</ele><time>2026-04-06T12:26:04Z</time></trkpt><trkpt lat="44.60095915448282" lon="10.591980618510403"><ele>281.0</ele><time>2026-04-06T12:26:05Z</time></trkpt><trkpt lat="44.600926726084936" lon="10.591848822686142"><ele>279.0</ele><time>2026-04-06T12:26:06Z</time></trkpt><trkpt lat="44.60084709534878" lon="10.59174479850501"><ele>277.0</ele><time>2026-04-06T12:26:07Z</time></trkpt><trkpt lat="44.600746077983935" lon="10.591683160148346"><ele>275.0</ele><time>2026-04-06T12:26:08Z</time></trkpt><trkpt lat="44.60062140505405" lon="10.591665203811154"><ele>275.0</ele><time>2026-04-06T12:26:09Z</time></trkpt><trkpt lat="44.600477352723466" lon="10.59167854058932"><ele>275.0</ele><time>2026-04-06T12:26:10Z</time></trkpt><trkpt lat="44.60033310026637" lon="10.591675624195013"><ele>275.0</ele><time>2026-04-06T12:26:11Z</time></trkpt><trkpt lat="44.60017801475013" lon="10.591665214740491"><ele>275.0</ele><time>2026-04-06T12:26:12Z</time></trkpt><trkpt lat="44.6000162401623" lon="10.591648650748418"><ele>277.0</ele><time>2026-04-06T12:26:13Z</time></trkpt><trkpt lat="44.59985423261577" lon="10.591615037958256"><ele>279.0</ele><time>2026-04-06T12:26:14Z</time></trkpt><trkpt lat="44.599696519292905" lon="10.591606231623576"><ele>281.0</ele><time>2026-04-06T12:26:15Z</time></trkpt><trkpt lat="44.5995363727146" lon="10.59160375915634"><ele>281.33333333333337</ele><time>2026-04-06T12:26:16Z</time></trkpt><trkpt lat="44.59935527846521" lon="10.591586266678947"><ele>281.6666666666667</ele><time>2026-04-06T12:26:17Z</time></trkpt><trkpt lat="44.59916161281852" lon="10.591546700910232"><ele>282.0</ele><time>2026-04-06T12:26:18Z</time></trkpt><trkpt lat="44.59895588586345" lon="10.591503229220708"><ele>282.0</ele><time>2026-04-06T12:26:19Z</time></trkpt><trkpt lat="44.59873916336424" lon="10.591462896731366"><ele>282.0</ele><time>2026-04-06T12:26:20Z</time></trkpt><trkpt lat="44.59853520835919" lon="10.591427183166223"><ele>282.0</ele><time>2026-04-06T12:26:21Z</time></trkpt><trkpt lat="44.59834631231797" lon="10.591416415079816"><ele>280.6666666666667</ele><time>2026-04-06T12:26:22Z</time></trkpt><trkpt lat="44.598176195391765" lon="10.591418947674786"><ele>279.33333333333337</ele><time>2026-04-06T12:26:23Z</time></trkpt><trkpt lat="44.598014714362826" lon="10.591404432007705"><ele>278.0</ele><time>2026-04-06T12:26:24Z</time></trkpt><trkpt lat="44.59787015179488" lon="10.591333349028263"><ele>275.75</ele><time>2026-04-06T12:26:25Z</time></trkpt><trkpt lat="44.59772941826044" lon="10.591240764676249"><ele>273.5</ele><time>2026-04-06T12:26:26Z</time></trkpt><trkpt lat="44.59760028597947" lon="10.591149171784064"><ele>271.25</ele><time>2026-04-06T12:26:27Z</time></trkpt><trkpt lat="44.59748041771234" lon="10.591077439118306"><ele>269.0</ele><time>2026-04-06T12:26:28Z</time></trkpt><trkpt lat="44.5973451323476" lon="10.591002722120242"><ele>269.0</ele><time>2026-04-06T12:26:29Z</time></trkpt><trkpt lat="44.59721473048539" lon="10.5909329300806"><ele>269.0</ele><time>2026-04-06T12:26:30Z</time></trkpt><trkpt lat="44.59708344103329" lon="10.59085692375488"><ele>269.0</ele><time>2026-04-06T12:26:31Z</time></trkpt><trkpt lat="44.596953830012225" lon="10.590776791678348"><ele>269.0</ele><time>2026-04-06T12:26:32Z</time></trkpt><trkpt lat="44.596816158346066" lon="10.59069421811172"><ele>269.0</ele><time>2026-04-06T12:26:33Z</time></trkpt><trkpt lat="44.59667950995483" lon="10.590609859281397"><ele>269.0</ele><time>2026-04-06T12:26:34Z</time></trkpt><trkpt lat="44.596533128320836" lon="10.590534240077831"><ele>269.0</ele><time>2026-04-06T12:26:35Z</time></trkpt><trkpt lat="44.59639395910875" lon="10.59044571303517"><ele>269.0</ele><time>2026-04-06T12:26:36Z</time></trkpt><trkpt lat="44.59626309186424" lon="10.5903440654292"><ele>269.0</ele><time>2026-04-06T12:26:37Z</time></trkpt><trkpt lat="44.59613923480004" lon="10.590213620692216"><ele>269.0</ele><time>2026-04-06T12:26:38Z</time></trkpt><trkpt lat="44.596035026809076" lon="10.590063263685954"><ele>268.33333333333337</ele><time>2026-04-06T12:26:39Z</time></trkpt><trkpt lat="44.59594590480556" lon="10.589890796709417"><ele>267.6666666666667</ele><time>2026-04-06T12:26:40Z</time></trkpt><trkpt lat="44.5958602365468" lon="10.589704445452277"><ele>267.0</ele><time>2026-04-06T12:26:41Z</time></trkpt><trkpt lat="44.595780742579244" lon="10.589517698978595"><ele>267.0</ele><time>2026-04-06T12:26:42Z</time></trkpt><trkpt lat="44.59569956294531" lon="10.589326470722263"><ele>267.0</ele><time>2026-04-06T12:26:43Z</time></trkpt><trkpt lat="44.5956149809021" lon="10.58915356070892"><ele>267.0</ele><time>2026-04-06T12:26:44Z</time></trkpt><trkpt lat="44.59553068904268" lon="10.58897702110316"><ele>267.0</ele><time>2026-04-06T12:26:45Z</time></trkpt><trkpt lat="44.59545332474666" lon="10.588804457782652"><ele>267.0</ele><time>2026-04-06T12:26:46Z</time></trkpt><trkpt lat="44.59539626878717" lon="10.58862794120026"><ele>267.0</ele><time>2026-04-06T12:26:47Z</time></trkpt><trkpt lat="44.59536470684476" lon="10.588448595607542"><ele>267.0</ele><time>2026-04-06T12:26:48Z</time></trkpt><trkpt lat="44.59537336670529" lon="10.588272048350882"><ele>267.75</ele><time>2026-04-06T12:26:49Z</time></trkpt><trkpt lat="44.59545057250067" lon="10.588130760312126"><ele>268.5</ele><time>2026-04-06T12:26:50Z</time></trkpt><trkpt lat="44.59552686892619" lon="10.587982105122514"><ele>269.25</ele><time>2026-04-06T12:26:51Z</time></trkpt><trkpt lat="44.59562518536116" lon="10.587878781110806"><ele>270.0</ele><time>2026-04-06T12:26:52Z</time></trkpt><trkpt lat="44.595677988294206" lon="10.587765443222084"><ele>271.1666666666667</ele><time>2026-04-06T12:26:53Z</time></trkpt><trkpt lat="44.59571371969194" lon="10.587652302998741"><ele>272.3333333333333</ele><time>2026-04-06T12:26:54Z</time></trkpt><trkpt lat="44.59571056181666" lon="10.587532753032422"><ele>273.5</ele><time>2026-04-06T12:26:55Z</time></trkpt><trkpt lat="44.59567391157556" lon="10.587426980194916"><ele>274.66666666666663</ele><time>2026-04-06T12:26:56Z</time></trkpt><trkpt lat="44.595608636023776" lon="10.587347553708016"><ele>275.8333333333333</ele><time>2026-04-06T12:26:57Z</time></trkpt><trkpt lat="44.59553152886802" lon="10.587300150971746"><ele>277.0</ele><time>2026-04-06T12:26:58Z</time></trkpt><trkpt lat="44.59544705448857" lon="10.587296116000523"><ele>277.0</ele><time>2026-04-06T12:26:58.999Z</time></trkpt><trkpt lat="44.595361779536624" lon="10.587335153764966"><ele>277.0</ele><time>2026-04-06T12:26:59.999Z</time></trkpt><trkpt lat="44.595291888120684" lon="10.587428862779515"><ele>277.0</ele><time>2026-04-06T12:27:00.999Z</time></trkpt><trkpt lat="44.59524262428333" lon="10.587563303759651"><ele>277.0</ele><time>2026-04-06T12:27:01.999Z</time></trkpt><trkpt lat="44.5951970311774" lon="10.587706719021641"><ele>277.0</ele><time>2026-04-06T12:27:02.999Z</time></trkpt><trkpt lat="44.59512657282289" lon="10.587833481177077"><ele>280.5</ele><time>2026-04-06T12:27:03.999Z</time></trkpt><trkpt lat="44.59503200212355" lon="10.587951589430332"><ele>284.0</ele><time>2026-04-06T12:27:04.999Z</time></trkpt><trkpt lat="44.59492906584692" lon="10.588053325515096"><ele>287.5</ele><time>2026-04-06T12:27:05.999Z</time></trkpt><trkpt lat="44.59482120213151" lon="10.588158976296963"><ele>291.0</ele><time>2026-04-06T12:27:06.999Z</time></trkpt><trkpt lat="44.59472568252261" lon="10.588268529655313"><ele>291.0</ele><time>2026-04-06T12:27:07.999Z</time></trkpt><trkpt lat="44.59463731951244" lon="10.588353153915467"><ele>291.0</ele><time>2026-04-06T12:27:08.999Z</time></trkpt><trkpt lat="44.59454874134995" lon="10.588383897131765"><ele>291.0</ele><time>2026-04-06T12:27:09.999Z</time></trkpt><trkpt lat="44.59446125512628" lon="10.588361676840975"><ele>291.0</ele><time>2026-04-06T12:27:10.999Z</time></trkpt><trkpt lat="44.59437385977459" lon="10.588300716366184"><ele>291.0</ele><time>2026-04-06T12:27:11.999Z</time></trkpt><trkpt lat="44.59427740485151" lon="10.588251601352303"><ele>294.0</ele><time>2026-04-06T12:27:12.999Z</time></trkpt><trkpt lat="44.594167987871835" lon="10.588224965474138"><ele>297.0</ele><time>2026-04-06T12:27:13.999Z</time></trkpt><trkpt lat="44.594039973959326" lon="10.588205194070095"><ele>300.0</ele><time>2026-04-06T12:27:14.999Z</time></trkpt><trkpt lat="44.59392177676939" lon="10.588187232730677"><ele>303.0</ele><time>2026-04-06T12:27:15.999Z</time></trkpt><trkpt lat="44.59379756022365" lon="10.588177568177292"><ele>303.0</ele><time>2026-04-06T12:27:16.999Z</time></trkpt><trkpt lat="44.59369326750511" lon="10.588172781789707"><ele>303.0</ele><time>2026-04-06T12:27:17.999Z</time></trkpt><trkpt lat="44.5935995179009" lon="10.588162583027113"><ele>303.0</ele><time>2026-04-06T12:27:18.999Z</time></trkpt><trkpt lat="44.59352339208362" lon="10.588151866122947"><ele>303.0</ele><time>2026-04-06T12:27:19.999Z</time></trkpt><trkpt lat="44.593485855556494" lon="10.58804408828427"><ele>303.0</ele><time>2026-04-06T12:27:21.999Z</time></trkpt><trkpt lat="44.5935835593596" lon="10.587942820786559"><ele>303.0</ele><time>2026-04-06T12:27:23.999Z</time></trkpt><trkpt lat="44.593676525140346" lon="10.587955829003596"><ele>303.0</ele><time>2026-04-06T12:27:24.999Z</time></trkpt><trkpt lat="44.593774278782554" lon="10.587974475102909"><ele>303.0</ele><time>2026-04-06T12:27:25.999Z</time></trkpt><trkpt lat="44.593869615905916" lon="10.587967907932995"><ele>303.0</ele><time>2026-04-06T12:27:26.999Z</time></trkpt><trkpt lat="44.593949799360296" lon="10.587925090918338"><ele>303.0</ele><time>2026-04-06T12:27:27.999Z</time></trkpt><trkpt lat="44.594012429850345" lon="10.587846268998554"><ele>303.5</ele><time>2026-04-06T12:27:28.999Z</time></trkpt><trkpt lat="44.59403654555795" lon="10.587744029716113"><ele>304.0</ele><time>2026-04-06T12:27:29.999Z</time></trkpt><trkpt lat="44.59402710311098" lon="10.587627661023348"><ele>304.5</ele><time>2026-04-06T12:27:30.999Z</time></trkpt><trkpt lat="44.59397370175928" lon="10.587531474547031"><ele>305.0</ele><time>2026-04-06T12:27:31.999Z</time></trkpt><trkpt lat="44.59389148606794" lon="10.587486418570457"><ele>305.5</ele><time>2026-04-06T12:27:32.999Z</time></trkpt><trkpt lat="44.593796975229424" lon="10.58749975476742"><ele>306.0</ele><time>2026-04-06T12:27:33.999Z</time></trkpt><trkpt lat="44.59369040088147" lon="10.587542064431432"><ele>308.0</ele><time>2026-04-06T12:27:34.999Z</time></trkpt><trkpt lat="44.59357374585617" lon="10.587597187389687"><ele>310.0</ele><time>2026-04-06T12:27:35.999Z</time></trkpt><trkpt lat="44.59344847848558" lon="10.587648453394511"><ele>312.0</ele><time>2026-04-06T12:27:36.999Z</time></trkpt><trkpt lat="44.593322999155376" lon="10.58767412568918"><ele>314.0</ele><time>2026-04-06T12:27:37.999Z</time></trkpt><trkpt lat="44.59320201728087" lon="10.587658682428012"><ele>314.0</ele><time>2026-04-06T12:27:38.999Z</time></trkpt><trkpt lat="44.593114620742625" lon="10.587551862882608"><ele>314.0</ele><time>2026-04-06T12:27:39.999Z</time></trkpt><trkpt lat="44.593060848638224" lon="10.587413918132325"><ele>314.0</ele><time>2026-04-06T12:27:40.999Z</time></trkpt><trkpt lat="44.593045193527914" lon="10.587264656333547"><ele>314.0</ele><time>2026-04-06T12:27:41.999Z</time></trkpt><trkpt lat="44.593054455651085" lon="10.587107009455263"><ele>314.0</ele><time>2026-04-06T12:27:42.999Z</time></trkpt><trkpt lat="44.59303941197755" lon="10.586939367006233"><ele>312.75</ele><time>2026-04-06T12:27:43.999Z</time></trkpt><trkpt lat="44.593020919904305" lon="10.586789446293308"><ele>311.5</ele><time>2026-04-06T12:27:44.999Z</time></trkpt><trkpt lat="44.59295502469658" lon="10.586663692597574"><ele>310.25</ele><time>2026-04-06T12:27:45.999Z</time></trkpt><trkpt lat="44.592860891037496" lon="10.586563652004104"><ele>309.0</ele><time>2026-04-06T12:27:46.999Z</time></trkpt><trkpt lat="44.592753697637725" lon="10.586478853842205"><ele>313.0</ele><time>2026-04-06T12:27:47.999Z</time></trkpt><trkpt lat="44.59263466841442" lon="10.586387133398272"><ele>317.0</ele><time>2026-04-06T12:27:48.999Z</time></trkpt><trkpt lat="44.59251603404971" lon="10.586280973553423"><ele>321.0</ele><time>2026-04-06T12:27:49.999Z</time></trkpt><trkpt lat="44.592394850198986" lon="10.586170555594881"><ele>325.0</ele><time>2026-04-06T12:27:51Z</time></trkpt><trkpt lat="44.59227471835711" lon="10.58605655782704"><ele>325.0</ele><time>2026-04-06T12:27:52Z</time></trkpt><trkpt lat="44.59216383428911" lon="10.585947952459847"><ele>325.0</ele><time>2026-04-06T12:27:53Z</time></trkpt><trkpt lat="44.59203803351477" lon="10.585831524051676"><ele>325.0</ele><time>2026-04-06T12:27:54Z</time></trkpt><trkpt lat="44.59192142981098" lon="10.585734784028421"><ele>325.0</ele><time>2026-04-06T12:27:55Z</time></trkpt><trkpt lat="44.59180684680533" lon="10.5856506748144"><ele>328.5</ele><time>2026-04-06T12:27:56Z</time></trkpt><trkpt lat="44.5916853993573" lon="10.585568524436916"><ele>332.0</ele><time>2026-04-06T12:27:57Z</time></trkpt><trkpt lat="44.591557923463384" lon="10.585502447996442"><ele>335.5</ele><time>2026-04-06T12:27:58Z</time></trkpt><trkpt lat="44.59142750458409" lon="10.585501427532893"><ele>339.0</ele><time>2026-04-06T12:27:59Z</time></trkpt><trkpt lat="44.591297458666716" lon="10.585500135285997"><ele>340.5</ele><time>2026-04-06T12:28:00Z</time></trkpt><trkpt lat="44.59117144177562" lon="10.585512328847361"><ele>342.0</ele><time>2026-04-06T12:28:01Z</time></trkpt><trkpt lat="44.591046201779086" lon="10.585529693793442"><ele>343.5</ele><time>2026-04-06T12:28:02Z</time></trkpt><trkpt lat="44.59091908223901" lon="10.585517466810444"><ele>345.0</ele><time>2026-04-06T12:28:03Z</time></trkpt><trkpt lat="44.59079753780304" lon="10.585510860272299"><ele>345.0</ele><time>2026-04-06T12:28:04Z</time></trkpt><trkpt lat="44.59069678544093" lon="10.585499595332465"><ele>345.0</ele><time>2026-04-06T12:28:05Z</time></trkpt><trkpt lat="44.590606473384874" lon="10.585488765360353"><ele>345.0</ele><time>2026-04-06T12:28:06Z</time></trkpt><trkpt lat="44.5905173986889" lon="10.58547466368079"><ele>345.0</ele><time>2026-04-06T12:28:07Z</time></trkpt><trkpt lat="44.59043884402904" lon="10.585462125270073"><ele>345.0</ele><time>2026-04-06T12:28:08Z</time></trkpt><trkpt lat="44.590375758507214" lon="10.58545205596132"><ele>345.0</ele><time>2026-04-06T12:28:09Z</time></trkpt><trkpt lat="44.590288417833634" lon="10.58538660165323"><ele>345.0</ele><time>2026-04-06T12:28:11Z</time></trkpt><trkpt lat="44.59041631070303" lon="10.585253834770546"><ele>345.0</ele><time>2026-04-06T12:28:14Z</time></trkpt><trkpt lat="44.59049506334249" lon="10.585294819768285"><ele>345.0</ele><time>2026-04-06T12:28:15Z</time></trkpt><trkpt lat="44.59057588251666" lon="10.585332390331342"><ele>345.0</ele><time>2026-04-06T12:28:16Z</time></trkpt><trkpt lat="44.590657245561886" lon="10.585341362811892"><ele>345.0</ele><time>2026-04-06T12:28:17Z</time></trkpt><trkpt lat="44.59071221905553" lon="10.585548212217697"><ele>345.0</ele><time>2026-04-06T12:28:18Z</time></trkpt><trkpt lat="44.590789512006026" lon="10.585547696972753"><ele>345.0</ele><time>2026-04-06T12:28:20Z</time></trkpt><trkpt lat="44.590775178614514" lon="10.58501028131688"><ele>347.0</ele><time>2026-04-06T12:28:21Z</time></trkpt><trkpt lat="44.59070391486207" lon="10.584921800249298"><ele>349.0</ele><time>2026-04-06T12:28:22Z</time></trkpt><trkpt lat="44.59060390443943" lon="10.584865106193334"><ele>351.0</ele><time>2026-04-06T12:28:23Z</time></trkpt><trkpt lat="44.5904923033692" lon="10.58481906543401"><ele>353.0</ele><time>2026-04-06T12:28:24Z</time></trkpt><trkpt lat="44.590381365733435" lon="10.584754147986283"><ele>355.0</ele><time>2026-04-06T12:28:25Z</time></trkpt><trkpt lat="44.59026713281379" lon="10.584663882142996"><ele>357.25</ele><time>2026-04-06T12:28:26Z</time></trkpt><trkpt lat="44.590154220048184" lon="10.58456799472736"><ele>359.5</ele><time>2026-04-06T12:28:27Z</time></trkpt><trkpt lat="44.59003144624881" lon="10.584459497281271"><ele>361.75</ele><time>2026-04-06T12:28:28Z</time></trkpt><trkpt lat="44.58991260923139" lon="10.584342081740386"><ele>364.0</ele><time>2026-04-06T12:28:29Z</time></trkpt><trkpt lat="44.58979922274716" lon="10.584215173301967"><ele>364.25</ele><time>2026-04-06T12:28:30Z</time></trkpt><trkpt lat="44.58968446841301" lon="10.58409532078387"><ele>364.5</ele><time>2026-04-06T12:28:31Z</time></trkpt><trkpt lat="44.589577991331566" lon="10.583980405895844"><ele>364.75</ele><time>2026-04-06T12:28:32Z</time></trkpt><trkpt lat="44.589483555054265" lon="10.583883472495847"><ele>365.0</ele><time>2026-04-06T12:28:33Z</time></trkpt><trkpt lat="44.58939546860527" lon="10.583807086955206"><ele>366.0</ele><time>2026-04-06T12:28:34Z</time></trkpt><trkpt lat="44.58932993094086" lon="10.583770803651722"><ele>367.0</ele><time>2026-04-06T12:28:35Z</time></trkpt><trkpt lat="44.58924966913644" lon="10.583788947814044"><ele>368.0</ele><time>2026-04-06T12:28:36Z</time></trkpt><trkpt lat="44.58917518808151" lon="10.583863457103803"><ele>369.0</ele><time>2026-04-06T12:28:37Z</time></trkpt><trkpt lat="44.58910861853487" lon="10.583990474728576"><ele>370.0</ele><time>2026-04-06T12:28:38Z</time></trkpt><trkpt lat="44.58905033666594" lon="10.584141979969013"><ele>370.0</ele><time>2026-04-06T12:28:39Z</time></trkpt><trkpt lat="44.58896334158123" lon="10.584261531158395"><ele>370.0</ele><time>2026-04-06T12:28:40Z</time></trkpt><trkpt lat="44.588848064412645" lon="10.584343888227371"><ele>370.0</ele><time>2026-04-06T12:28:41Z</time></trkpt><trkpt lat="44.58871417892521" lon="10.58441188689875"><ele>370.0</ele><time>2026-04-06T12:28:42Z</time></trkpt><trkpt lat="44.58859660612932" lon="10.584493636766855"><ele>371.25</ele><time>2026-04-06T12:28:43Z</time></trkpt><trkpt lat="44.588502239111065" lon="10.584601053122535"><ele>372.5</ele><time>2026-04-06T12:28:44Z</time></trkpt><trkpt lat="44.58842654769573" lon="10.584740331949192"><ele>373.75</ele><time>2026-04-06T12:28:45Z</time></trkpt><trkpt lat="44.58835696505245" lon="10.584900532259839"><ele>375.0</ele><time>2026-04-06T12:28:46Z</time></trkpt><trkpt lat="44.588281761674395" lon="10.585062436150462"><ele>375.0</ele><time>2026-04-06T12:28:47Z</time></trkpt><trkpt lat="44.58818980332362" lon="10.585214791932625"><ele>375.0</ele><time>2026-04-06T12:28:48Z</time></trkpt><trkpt lat="44.5880760484421" lon="10.58534882372342"><ele>375.0</ele><time>2026-04-06T12:28:49Z</time></trkpt><trkpt lat="44.587951353816536" lon="10.585454833656987"><ele>375.0</ele><time>2026-04-06T12:28:50Z</time></trkpt><trkpt lat="44.587821461633716" lon="10.585546808863088"><ele>376.75</ele><time>2026-04-06T12:28:51Z</time></trkpt><trkpt lat="44.58769187272982" lon="10.585616723014395"><ele>378.5</ele><time>2026-04-06T12:28:52Z</time></trkpt><trkpt lat="44.58756455494415" lon="10.58566806622139"><ele>380.25</ele><time>2026-04-06T12:28:53Z</time></trkpt><trkpt lat="44.587434176041974" lon="10.585675273918184"><ele>382.0</ele><time>2026-04-06T12:28:54Z</time></trkpt><trkpt lat="44.587302140213986" lon="10.585659722780054"><ele>382.0</ele><time>2026-04-06T12:28:55Z</time></trkpt><trkpt lat="44.58717293005665" lon="10.585611377397761"><ele>382.0</ele><time>2026-04-06T12:28:56Z</time></trkpt><trkpt lat="44.58704525711359" lon="10.585560209011156"><ele>382.0</ele><time>2026-04-06T12:28:57Z</time></trkpt><trkpt lat="44.58692720063402" lon="10.585547107268237"><ele>382.0</ele><time>2026-04-06T12:28:58Z</time></trkpt><trkpt lat="44.58681378022657" lon="10.585589789178295"><ele>382.75</ele><time>2026-04-06T12:28:59Z</time></trkpt><trkpt lat="44.58668631938723" lon="10.585658530653614"><ele>383.5</ele><time>2026-04-06T12:29:00Z</time></trkpt><trkpt lat="44.5865754085684" lon="10.585747699849271"><ele>384.25</ele><time>2026-04-06T12:29:01Z</time></trkpt><trkpt lat="44.58645987872545" lon="10.585835767687454"><ele>385.0</ele><time>2026-04-06T12:29:02Z</time></trkpt><trkpt lat="44.586332295179716" lon="10.58589490712939"><ele>385.0</ele><time>2026-04-06T12:29:03Z</time></trkpt><trkpt lat="44.58620570731652" lon="10.585932565156735"><ele>385.0</ele><time>2026-04-06T12:29:04Z</time></trkpt><trkpt lat="44.58608124225918" lon="10.585981222119301"><ele>385.0</ele><time>2026-04-06T12:29:05Z</time></trkpt><trkpt lat="44.58596928037214" lon="10.586031175788104"><ele>385.0</ele><time>2026-04-06T12:29:06Z</time></trkpt><trkpt lat="44.58584934150966" lon="10.586070600970734"><ele>385.0</ele><time>2026-04-06T12:29:06.999Z</time></trkpt><trkpt lat="44.58571666911115" lon="10.586091406030043"><ele>385.0</ele><time>2026-04-06T12:29:07.999Z</time></trkpt><trkpt lat="44.5855796375199" lon="10.586109286200317"><ele>385.0</ele><time>2026-04-06T12:29:08.999Z</time></trkpt><trkpt lat="44.585438082998024" lon="10.586125847884473"><ele>385.0</ele><time>2026-04-06T12:29:09.999Z</time></trkpt><trkpt lat="44.585290023436876" lon="10.586157943136767"><ele>387.0</ele><time>2026-04-06T12:29:10.999Z</time></trkpt><trkpt lat="44.5851483012866" lon="10.586191788604273"><ele>389.0</ele><time>2026-04-06T12:29:11.999Z</time></trkpt><trkpt lat="44.58499019804573" lon="10.586261067494524"><ele>391.0</ele><time>2026-04-06T12:29:12.999Z</time></trkpt><trkpt lat="44.584838575839896" lon="10.586357486349968"><ele>391.0</ele><time>2026-04-06T12:29:13.999Z</time></trkpt><trkpt lat="44.58468502929433" lon="10.586454576630445"><ele>391.0</ele><time>2026-04-06T12:29:14.999Z</time></trkpt><trkpt lat="44.58453848761554" lon="10.586531317412721"><ele>391.0</ele><time>2026-04-06T12:29:15.999Z</time></trkpt><trkpt lat="44.584397883418795" lon="10.5865894289867"><ele>393.75</ele><time>2026-04-06T12:29:16.999Z</time></trkpt><trkpt lat="44.584256452021535" lon="10.58663995787259"><ele>396.5</ele><time>2026-04-06T12:29:17.999Z</time></trkpt><trkpt lat="44.58411433771643" lon="10.586698538555556"><ele>399.25</ele><time>2026-04-06T12:29:18.999Z</time></trkpt><trkpt lat="44.5839710318099" lon="10.586752530126518"><ele>402.0</ele><time>2026-04-06T12:29:19.999Z</time></trkpt><trkpt lat="44.583829643807206" lon="10.586814272451194"><ele>402.0</ele><time>2026-04-06T12:29:20.999Z</time></trkpt><trkpt lat="44.583690218085046" lon="10.586867047503283"><ele>402.0</ele><time>2026-04-06T12:29:21.999Z</time></trkpt><trkpt lat="44.583547156088756" lon="10.586924691366379"><ele>402.0</ele><time>2026-04-06T12:29:22.999Z</time></trkpt><trkpt lat="44.58340208177173" lon="10.586983537369463"><ele>402.0</ele><time>2026-04-06T12:29:23.999Z</time></trkpt><trkpt lat="44.5832605626313" lon="10.587038515764823"><ele>402.0</ele><time>2026-04-06T12:29:24.999Z</time></trkpt><trkpt lat="44.583119821123496" lon="10.587091466684011"><ele>402.0</ele><time>2026-04-06T12:29:25.999Z</time></trkpt><trkpt lat="44.58298959122798" lon="10.587130566186275"><ele>402.0</ele><time>2026-04-06T12:29:26.999Z</time></trkpt><trkpt lat="44.58285087202098" lon="10.587197744351473"><ele>402.0</ele><time>2026-04-06T12:29:27.999Z</time></trkpt><trkpt lat="44.58271922847403" lon="10.587279285571853"><ele>404.25</ele><time>2026-04-06T12:29:28.999Z</time></trkpt><trkpt lat="44.58261437505968" lon="10.587392765838482"><ele>406.5</ele><time>2026-04-06T12:29:29.999Z</time></trkpt><trkpt lat="44.5825280220399" lon="10.587561950956376"><ele>408.75</ele><time>2026-04-06T12:29:30.999Z</time></trkpt><trkpt lat="44.58245404072423" lon="10.587714412734984"><ele>411.0</ele><time>2026-04-06T12:29:31.999Z</time></trkpt><trkpt lat="44.58238643637758" lon="10.58785783807581"><ele>411.0</ele><time>2026-04-06T12:29:32.999Z</time></trkpt><trkpt lat="44.58229523081504" lon="10.587952679120258"><ele>411.0</ele><time>2026-04-06T12:29:33.999Z</time></trkpt><trkpt lat="44.582180022476045" lon="10.587986203889054"><ele>411.0</ele><time>2026-04-06T12:29:34.999Z</time></trkpt><trkpt lat="44.5820493475503" lon="10.587989679517749"><ele>411.0</ele><time>2026-04-06T12:29:35.999Z</time></trkpt><trkpt lat="44.581914574138565" lon="10.587969156488567"><ele>413.75</ele><time>2026-04-06T12:29:36.999Z</time></trkpt><trkpt lat="44.58178857632216" lon="10.58791944684117"><ele>416.5</ele><time>2026-04-06T12:29:37.999Z</time></trkpt><trkpt lat="44.5816550391175" lon="10.587849699466606"><ele>419.25</ele><time>2026-04-06T12:29:38.999Z</time></trkpt><trkpt lat="44.58152758775229" lon="10.587783638272603"><ele>422.0</ele><time>2026-04-06T12:29:39.999Z</time></trkpt><trkpt lat="44.58140657576523" lon="10.58771312732569"><ele>423.25</ele><time>2026-04-06T12:29:40.999Z</time></trkpt><trkpt lat="44.58127816667509" lon="10.587644872161901"><ele>424.5</ele><time>2026-04-06T12:29:41.999Z</time></trkpt><trkpt lat="44.58114874576368" lon="10.587573421174293"><ele>425.75</ele><time>2026-04-06T12:29:42.999Z</time></trkpt><trkpt lat="44.58102248927389" lon="10.587506259762181"><ele>427.0</ele><time>2026-04-06T12:29:43.999Z</time></trkpt><trkpt lat="44.58090527819814" lon="10.587445793707515"><ele>429.0</ele><time>2026-04-06T12:29:44.999Z</time></trkpt><trkpt lat="44.58078399599296" lon="10.587372956064282"><ele>431.0</ele><time>2026-04-06T12:29:45.999Z</time></trkpt><trkpt lat="44.58067093909116" lon="10.587301773312749"><ele>433.0</ele><time>2026-04-06T12:29:46.999Z</time></trkpt><trkpt lat="44.580546707513506" lon="10.587259028724949"><ele>435.0</ele><time>2026-04-06T12:29:47.999Z</time></trkpt><trkpt lat="44.5804299415582" lon="10.587261897745616"><ele>437.0</ele><time>2026-04-06T12:29:48.999Z</time></trkpt><trkpt lat="44.580303814489554" lon="10.587310201316598"><ele>439.0</ele><time>2026-04-06T12:29:49.999Z</time></trkpt><trkpt lat="44.58017278786279" lon="10.587367782393589"><ele>441.0</ele><time>2026-04-06T12:29:50.999Z</time></trkpt><trkpt lat="44.58004620027563" lon="10.58741492939537"><ele>443.0</ele><time>2026-04-06T12:29:51.999Z</time></trkpt><trkpt lat="44.57991513282625" lon="10.587458756630756"><ele>443.0</ele><time>2026-04-06T12:29:52.999Z</time></trkpt><trkpt lat="44.579768528368746" lon="10.587487821667052"><ele>443.0</ele><time>2026-04-06T12:29:53.999Z</time></trkpt><trkpt lat="44.57962182192419" lon="10.587496276334797"><ele>443.0</ele><time>2026-04-06T12:29:54.999Z</time></trkpt><trkpt lat="44.579502772333" lon="10.587481301718354"><ele>443.0</ele><time>2026-04-06T12:29:55.999Z</time></trkpt><trkpt lat="44.57936438671394" lon="10.587448322755186"><ele>444.66666666666663</ele><time>2026-04-06T12:29:57Z</time></trkpt><trkpt lat="44.57918460407728" lon="10.587412993864877"><ele>446.33333333333337</ele><time>2026-04-06T12:29:58Z</time></trkpt><trkpt lat="44.57901301160001" lon="10.58736456301003"><ele>448.0</ele><time>2026-04-06T12:29:59Z</time></trkpt><trkpt lat="44.5788601545866" lon="10.587326133022191"><ele>448.0</ele><time>2026-04-06T12:30:00Z</time></trkpt><trkpt lat="44.57870644310461" lon="10.587283160861"><ele>448.0</ele><time>2026-04-06T12:30:01Z</time></trkpt><trkpt lat="44.57856682067252" lon="10.587268546918109"><ele>448.0</ele><time>2026-04-06T12:30:02Z</time></trkpt><trkpt lat="44.57841369384368" lon="10.587276536182696"><ele>449.0</ele><time>2026-04-06T12:30:03Z</time></trkpt><trkpt lat="44.578260224251345" lon="10.587312146115368"><ele>450.0</ele><time>2026-04-06T12:30:04Z</time></trkpt><trkpt lat="44.57809219063318" lon="10.587327688498918"><ele>451.0</ele><time>2026-04-06T12:30:05Z</time></trkpt><trkpt lat="44.57790601200732" lon="10.587307703018675"><ele>451.33333333333337</ele><time>2026-04-06T12:30:06Z</time></trkpt><trkpt lat="44.57769581716125" lon="10.58732044921472"><ele>451.66666666666663</ele><time>2026-04-06T12:30:07Z</time></trkpt><trkpt lat="44.57751132115111" lon="10.587311130587352"><ele>452.0</ele><time>2026-04-06T12:30:08Z</time></trkpt><trkpt lat="44.577352893772705" lon="10.587241006767114"><ele>452.0</ele><time>2026-04-06T12:30:09Z</time></trkpt><trkpt lat="44.57719323811018" lon="10.58718496460108"><ele>452.0</ele><time>2026-04-06T12:30:10Z</time></trkpt><trkpt lat="44.57705226748602" lon="10.58710524557342"><ele>452.0</ele><time>2026-04-06T12:30:11Z</time></trkpt><trkpt lat="44.57691361083295" lon="10.587055050643533"><ele>453.25</ele><time>2026-04-06T12:30:12Z</time></trkpt><trkpt lat="44.57677212489974" lon="10.587041528622107"><ele>454.5</ele><time>2026-04-06T12:30:13Z</time></trkpt><trkpt lat="44.576635696334385" lon="10.587047428236614"><ele>455.75</ele><time>2026-04-06T12:30:14Z</time></trkpt><trkpt lat="44.57650060488412" lon="10.587079198410658"><ele>457.0</ele><time>2026-04-06T12:30:15Z</time></trkpt><trkpt lat="44.576384695733665" lon="10.587136965377224"><ele>457.0</ele><time>2026-04-06T12:30:16Z</time></trkpt><trkpt lat="44.57625009256276" lon="10.587220997546245"><ele>457.0</ele><time>2026-04-06T12:30:17Z</time></trkpt><trkpt lat="44.576117569432185" lon="10.587275029488206"><ele>457.0</ele><time>2026-04-06T12:30:18Z</time></trkpt><trkpt lat="44.57597942679003" lon="10.587258427281217"><ele>457.0</ele><time>2026-04-06T12:30:19Z</time></trkpt><trkpt lat="44.57586512553902" lon="10.587140045533886"><ele>457.0</ele><time>2026-04-06T12:30:20Z</time></trkpt><trkpt lat="44.575734772589236" lon="10.587074973459305"><ele>457.0</ele><time>2026-04-06T12:30:21Z</time></trkpt><trkpt lat="44.57560352592214" lon="10.58702246896377"><ele>457.0</ele><time>2026-04-06T12:30:22Z</time></trkpt><trkpt lat="44.57545904985915" lon="10.587004364624622"><ele>457.0</ele><time>2026-04-06T12:30:23Z</time></trkpt><trkpt lat="44.57530310536832" lon="10.58700314033444"><ele>458.25</ele><time>2026-04-06T12:30:24Z</time></trkpt><trkpt lat="44.57515415563794" lon="10.587005281546093"><ele>459.5</ele><time>2026-04-06T12:30:25Z</time></trkpt><trkpt lat="44.575005271180416" lon="10.587007517723722"><ele>460.75</ele><time>2026-04-06T12:30:26Z</time></trkpt><trkpt lat="44.57486318452734" lon="10.5870086291795"><ele>462.0</ele><time>2026-04-06T12:30:27Z</time></trkpt><trkpt lat="44.5747269776682" lon="10.587016386417636"><ele>462.0</ele><time>2026-04-06T12:30:28Z</time></trkpt><trkpt lat="44.574596031823525" lon="10.587023290273326"><ele>462.0</ele><time>2026-04-06T12:30:29Z</time></trkpt><trkpt lat="44.574481530060574" lon="10.587022336803145"><ele>462.0</ele><time>2026-04-06T12:30:30Z</time></trkpt><trkpt lat="44.57434845347699" lon="10.587024995610873"><ele>462.0</ele><time>2026-04-06T12:30:31Z</time></trkpt><trkpt lat="44.574239105048505" lon="10.587026959248528"><ele>461.5</ele><time>2026-04-06T12:30:32Z</time></trkpt><trkpt lat="44.57414409507077" lon="10.587036984182172"><ele>461.0</ele><time>2026-04-06T12:30:33Z</time></trkpt><trkpt lat="44.57405616914628" lon="10.58701992094112"><ele>460.5</ele><time>2026-04-06T12:30:34Z</time></trkpt><trkpt lat="44.573986245903235" lon="10.587017956820082"><ele>460.0</ele><time>2026-04-06T12:30:35Z</time></trkpt><trkpt lat="44.573913125183104" lon="10.587096740666775"><ele>459.5</ele><time>2026-04-06T12:30:36Z</time></trkpt><trkpt lat="44.57383290485407" lon="10.587133073806179"><ele>459.0</ele><time>2026-04-06T12:30:38Z</time></trkpt><trkpt lat="44.57372842383558" lon="10.58718650176836"><ele>458.3333333333333</ele><time>2026-04-06T12:31:44.999Z</time></trkpt><trkpt lat="44.5736301838365" lon="10.587239003584425"><ele>457.66666666666663</ele><time>2026-04-06T12:31:46.999Z</time></trkpt><trkpt lat="44.57357639742068" lon="10.587290001921438"><ele>457.0</ele><time>2026-04-06T12:31:47.999Z</time></trkpt><trkpt lat="44.57351002190214" lon="10.587335170997948"><ele>456.3333333333333</ele><time>2026-04-06T12:31:48.999Z</time></trkpt><trkpt lat="44.57344868107356" lon="10.587362320470032"><ele>455.66666666666663</ele><time>2026-04-06T12:31:49.999Z</time></trkpt><trkpt lat="44.57338129291375" lon="10.587414440166338"><ele>455.0</ele><time>2026-04-06T12:31:50.999Z</time></trkpt><trkpt lat="44.573272458369345" lon="10.587519903753577"><ele>455.0</ele><time>2026-04-06T12:31:52.999Z</time></trkpt><trkpt lat="44.57317788848599" lon="10.587618294181622"><ele>455.0</ele><time>2026-04-06T12:31:54.999Z</time></trkpt><trkpt lat="44.57312167059871" lon="10.587779189170236"><ele>455.0</ele><time>2026-04-06T12:31:56.999Z</time></trkpt><trkpt lat="44.573109208026644" lon="10.587868025870437"><ele>455.0</ele><time>2026-04-06T12:31:57.999Z</time></trkpt><trkpt lat="44.573117044743064" lon="10.587986913128429"><ele>455.0</ele><time>2026-04-06T12:31:58.999Z</time></trkpt><trkpt lat="44.57315502323813" lon="10.5880841812415"><ele>455.2857142857143</ele><time>2026-04-06T12:31:59.999Z</time></trkpt><trkpt lat="44.57316162359501" lon="10.588196101430603"><ele>455.57142857142856</ele><time>2026-04-06T12:32:00.999Z</time></trkpt><trkpt lat="44.57318734391281" lon="10.588306103517308"><ele>455.8571428571429</ele><time>2026-04-06T12:32:01.999Z</time></trkpt><trkpt lat="44.57321307692002" lon="10.588411463190607"><ele>456.14285714285717</ele><time>2026-04-06T12:32:03Z</time></trkpt><trkpt lat="44.5732526879029" lon="10.588496922559049"><ele>456.42857142857144</ele><time>2026-04-06T12:32:04Z</time></trkpt><trkpt lat="44.57327017243011" lon="10.5885829953985"><ele>456.7142857142858</ele><time>2026-04-06T12:32:05Z</time></trkpt><trkpt lat="44.573288168566876" lon="10.58867108028266"><ele>457.00000000000006</ele><time>2026-04-06T12:32:06Z</time></trkpt><trkpt lat="44.573307382765286" lon="10.588755916586015"><ele>457.8</ele><time>2026-04-06T12:32:07Z</time></trkpt><trkpt lat="44.57331400917423" lon="10.588924028342431"><ele>458.6</ele><time>2026-04-06T12:32:09Z</time></trkpt><trkpt lat="44.573271575952546" lon="10.589087621776127"><ele>459.40000000000003</ele><time>2026-04-06T12:32:11Z</time></trkpt><trkpt lat="44.57323841562476" lon="10.589172032570048"><ele>460.20000000000005</ele><time>2026-04-06T12:32:12Z</time></trkpt><trkpt lat="44.57317516577801" lon="10.589219318355827"><ele>461.0</ele><time>2026-04-06T12:32:13Z</time></trkpt><trkpt lat="44.57311347864418" lon="10.589294736900206"><ele>461.0</ele><time>2026-04-06T12:32:14Z</time></trkpt><trkpt lat="44.573067344152655" lon="10.58937461685907"><ele>461.0</ele><time>2026-04-06T12:32:15Z</time></trkpt><trkpt lat="44.57302759125275" lon="10.58947840599597"><ele>461.0</ele><time>2026-04-06T12:32:16Z</time></trkpt><trkpt lat="44.572994991861265" lon="10.589588355769724"><ele>461.0</ele><time>2026-04-06T12:32:17Z</time></trkpt><trkpt lat="44.572956913409506" lon="10.589748512924366"><ele>461.0</ele><time>2026-04-06T12:32:18Z</time></trkpt><trkpt lat="44.572921182237735" lon="10.58990505194121"><ele>460.16666666666663</ele><time>2026-04-06T12:32:19Z</time></trkpt><trkpt lat="44.572869664589696" lon="10.590025376846501"><ele>459.3333333333333</ele><time>2026-04-06T12:32:20Z</time></trkpt><trkpt lat="44.57280038742335" lon="10.59012316731761"><ele>458.5</ele><time>2026-04-06T12:32:21Z</time></trkpt><trkpt lat="44.572740709663314" lon="10.590206292515283"><ele>457.66666666666663</ele><time>2026-04-06T12:32:22Z</time></trkpt><trkpt lat="44.57271373632635" lon="10.590304790336724"><ele>456.8333333333333</ele><time>2026-04-06T12:32:23Z</time></trkpt><trkpt lat="44.57269618106849" lon="10.590417267596585"><ele>456.0</ele><time>2026-04-06T12:32:24Z</time></trkpt><trkpt lat="44.57267952569488" lon="10.590563080166062"><ele>456.0</ele><time>2026-04-06T12:32:25Z</time></trkpt><trkpt lat="44.572669079561884" lon="10.590737723693394"><ele>456.0</ele><time>2026-04-06T12:32:26Z</time></trkpt><trkpt lat="44.57266594271054" lon="10.590947839859533"><ele>456.0</ele><time>2026-04-06T12:32:27Z</time></trkpt><trkpt lat="44.572660704258254" lon="10.591177293821254"><ele>456.0</ele><time>2026-04-06T12:32:28Z</time></trkpt><trkpt lat="44.572652972793854" lon="10.591392363225383"><ele>456.0</ele><time>2026-04-06T12:32:29Z</time></trkpt><trkpt lat="44.57262447425471" lon="10.591589716475196"><ele>456.0</ele><time>2026-04-06T12:32:30Z</time></trkpt><trkpt lat="44.572591244595415" lon="10.59177724386582"><ele>456.0</ele><time>2026-04-06T12:32:31Z</time></trkpt><trkpt lat="44.57257114620133" lon="10.591964492659383"><ele>456.0</ele><time>2026-04-06T12:32:32Z</time></trkpt><trkpt lat="44.57255993052516" lon="10.592126183654187"><ele>456.0</ele><time>2026-04-06T12:32:33Z</time></trkpt><trkpt lat="44.57254703127484" lon="10.592276488285677"><ele>456.0</ele><time>2026-04-06T12:32:34Z</time></trkpt><trkpt lat="44.57253852482352" lon="10.592397166878643"><ele>456.0</ele><time>2026-04-06T12:32:35Z</time></trkpt><trkpt lat="44.57251090415189" lon="10.592498443285015"><ele>456.0</ele><time>2026-04-06T12:32:36Z</time></trkpt><trkpt lat="44.57244976959608" lon="10.592592781784886"><ele>456.0</ele><time>2026-04-06T12:32:37Z</time></trkpt><trkpt lat="44.5723419354248" lon="10.5926842861768"><ele>456.0</ele><time>2026-04-06T12:32:38Z</time></trkpt><trkpt lat="44.57222610152188" lon="10.592801267120747"><ele>456.0</ele><time>2026-04-06T12:32:39Z</time></trkpt><trkpt lat="44.57211206258002" lon="10.592940492810584"><ele>456.0</ele><time>2026-04-06T12:32:40Z</time></trkpt><trkpt lat="44.57200658583265" lon="10.593062417805802"><ele>456.0</ele><time>2026-04-06T12:32:41Z</time></trkpt><trkpt lat="44.57191742508165" lon="10.593173738558336"><ele>453.20000000000005</ele><time>2026-04-06T12:32:42Z</time></trkpt><trkpt lat="44.571831960696144" lon="10.593260469857642"><ele>450.40000000000003</ele><time>2026-04-06T12:32:43Z</time></trkpt><trkpt lat="44.57174639772285" lon="10.593333016067325"><ele>447.6</ele><time>2026-04-06T12:32:44Z</time></trkpt><trkpt lat="44.571678311291336" lon="10.593404927299105"><ele>444.8</ele><time>2026-04-06T12:32:45Z</time></trkpt><trkpt lat="44.571635742355696" lon="10.593494639500015"><ele>442.0</ele><time>2026-04-06T12:32:46Z</time></trkpt><trkpt lat="44.57160972237789" lon="10.593614568146322"><ele>442.0</ele><time>2026-04-06T12:32:47Z</time></trkpt><trkpt lat="44.57159397187366" lon="10.593765934697947"><ele>442.0</ele><time>2026-04-06T12:32:48Z</time></trkpt><trkpt lat="44.57156930628605" lon="10.59395757560316"><ele>442.0</ele><time>2026-04-06T12:32:49Z</time></trkpt><trkpt lat="44.57152687769224" lon="10.594167192070469"><ele>442.0</ele><time>2026-04-06T12:32:50Z</time></trkpt><trkpt lat="44.571467337592004" lon="10.594344636285964"><ele>442.0</ele><time>2026-04-06T12:32:51Z</time></trkpt><trkpt lat="44.57139665159704" lon="10.594500631239956"><ele>442.0</ele><time>2026-04-06T12:32:52Z</time></trkpt><trkpt lat="44.57130460061568" lon="10.594648640685895"><ele>442.0</ele><time>2026-04-06T12:32:53Z</time></trkpt><trkpt lat="44.5711909482609" lon="10.594801030641861"><ele>442.0</ele><time>2026-04-06T12:32:54Z</time></trkpt><trkpt lat="44.57105155917649" lon="10.594957532706786"><ele>440.25</ele><time>2026-04-06T12:32:55Z</time></trkpt><trkpt lat="44.57092458209013" lon="10.595113245810834"><ele>438.5</ele><time>2026-04-06T12:32:56Z</time></trkpt><trkpt lat="44.57080881987621" lon="10.595235090542593"><ele>436.75</ele><time>2026-04-06T12:32:57Z</time></trkpt><trkpt lat="44.570710925613355" lon="10.595345207284273"><ele>435.0</ele><time>2026-04-06T12:32:58Z</time></trkpt><trkpt lat="44.57060982256398" lon="10.59542206949196"><ele>435.0</ele><time>2026-04-06T12:32:59Z</time></trkpt><trkpt lat="44.57053687969432" lon="10.595497564848424"><ele>435.0</ele><time>2026-04-06T12:33:00Z</time></trkpt><trkpt lat="44.570458673971316" lon="10.595571058131858"><ele>435.0</ele><time>2026-04-06T12:33:01Z</time></trkpt><trkpt lat="44.570372163072385" lon="10.595606248598674"><ele>435.0</ele><time>2026-04-06T12:33:02Z</time></trkpt><trkpt lat="44.57027150910045" lon="10.595624570360723"><ele>435.0</ele><time>2026-04-06T12:33:03Z</time></trkpt><trkpt lat="44.5701785497951" lon="10.59563326935251"><ele>432.0</ele><time>2026-04-06T12:33:04Z</time></trkpt><trkpt lat="44.57009504863043" lon="10.595651640166324"><ele>429.0</ele><time>2026-04-06T12:33:05Z</time></trkpt><trkpt lat="44.57003664078567" lon="10.59571040217813"><ele>426.0</ele><time>2026-04-06T12:33:06Z</time></trkpt><trkpt lat="44.5699893828158" lon="10.595801065818367"><ele>423.0</ele><time>2026-04-06T12:33:07Z</time></trkpt><trkpt lat="44.56995013304491" lon="10.595910580734987"><ele>420.0</ele><time>2026-04-06T12:33:08Z</time></trkpt><trkpt lat="44.569919442521474" lon="10.59603416806966"><ele>417.0</ele><time>2026-04-06T12:33:09Z</time></trkpt><trkpt lat="44.56991135577263" lon="10.59616477210322"><ele>415.5</ele><time>2026-04-06T12:33:10Z</time></trkpt><trkpt lat="44.56989022317562" lon="10.596287579951172"><ele>414.0</ele><time>2026-04-06T12:33:11Z</time></trkpt><trkpt lat="44.56982554574778" lon="10.596414157038867"><ele>412.5</ele><time>2026-04-06T12:33:12Z</time></trkpt><trkpt lat="44.56972579214688" lon="10.596544597538777"><ele>411.0</ele><time>2026-04-06T12:33:13Z</time></trkpt><trkpt lat="44.56963534478452" lon="10.596646367781464"><ele>411.0</ele><time>2026-04-06T12:33:14Z</time></trkpt><trkpt lat="44.56957353410347" lon="10.596697699539853"><ele>411.0</ele><time>2026-04-06T12:33:15Z</time></trkpt><trkpt lat="44.56946284354191" lon="10.59673000681986"><ele>411.0</ele><time>2026-04-06T12:33:16Z</time></trkpt><trkpt lat="44.5693603962551" lon="10.5967506142647"><ele>411.0</ele><time>2026-04-06T12:33:17Z</time></trkpt><trkpt lat="44.56925506287441" lon="10.596753099395222"><ele>411.0</ele><time>2026-04-06T12:33:18Z</time></trkpt><trkpt lat="44.569153102787716" lon="10.596730696297621"><ele>408.5</ele><time>2026-04-06T12:33:19Z</time></trkpt><trkpt lat="44.56904503269533" lon="10.5967149153925"><ele>406.0</ele><time>2026-04-06T12:33:20Z</time></trkpt><trkpt lat="44.56892417117522" lon="10.59670718004697"><ele>403.5</ele><time>2026-04-06T12:33:21Z</time></trkpt><trkpt lat="44.56880060095631" lon="10.596700477888508"><ele>401.0</ele><time>2026-04-06T12:33:22Z</time></trkpt><trkpt lat="44.56868199887664" lon="10.59667141026167"><ele>398.20000000000005</ele><time>2026-04-06T12:33:23Z</time></trkpt><trkpt lat="44.5685734922927" lon="10.59663765801354"><ele>395.40000000000003</ele><time>2026-04-06T12:33:24Z</time></trkpt><trkpt lat="44.56847437980151" lon="10.596633174042635"><ele>392.6</ele><time>2026-04-06T12:33:25Z</time></trkpt><trkpt lat="44.56837502409148" lon="10.596652812416647"><ele>389.8</ele><time>2026-04-06T12:33:26Z</time></trkpt><trkpt lat="44.5682769514489" lon="10.59665929304128"><ele>387.0</ele><time>2026-04-06T12:33:26.999Z</time></trkpt><trkpt lat="44.568180076806186" lon="10.596622176759348"><ele>387.0</ele><time>2026-04-06T12:33:27.999Z</time></trkpt><trkpt lat="44.56809773502785" lon="10.596553692710543"><ele>387.0</ele><time>2026-04-06T12:33:28.999Z</time></trkpt><trkpt lat="44.56801832860957" lon="10.59649958441848"><ele>387.0</ele><time>2026-04-06T12:33:29.999Z</time></trkpt><trkpt lat="44.56792830574461" lon="10.59648964094267"><ele>387.0</ele><time>2026-04-06T12:33:30.999Z</time></trkpt><trkpt lat="44.56784292552167" lon="10.596517834794538"><ele>387.0</ele><time>2026-04-06T12:33:31.999Z</time></trkpt><trkpt lat="44.56777126775767" lon="10.596569391868975"><ele>387.0</ele><time>2026-04-06T12:33:32.999Z</time></trkpt><trkpt lat="44.56771591380124" lon="10.59665672029785"><ele>384.20000000000005</ele><time>2026-04-06T12:33:33.999Z</time></trkpt><trkpt lat="44.56766267450619" lon="10.596770419165233"><ele>381.4</ele><time>2026-04-06T12:33:34.999Z</time></trkpt><trkpt lat="44.56760964522232" lon="10.596901620778182"><ele>378.6</ele><time>2026-04-06T12:33:35.999Z</time></trkpt><trkpt lat="44.56753454577601" lon="10.597007121229028"><ele>375.79999999999995</ele><time>2026-04-06T12:33:36.999Z</time></trkpt><trkpt lat="44.567434874775145" lon="10.597065010080648"><ele>373.0</ele><time>2026-04-06T12:33:37.999Z</time></trkpt><trkpt lat="44.567340081346636" lon="10.597094401881968"><ele>373.0</ele><time>2026-04-06T12:33:38.999Z</time></trkpt><trkpt lat="44.56726110232225" lon="10.597153804340483"><ele>373.0</ele><time>2026-04-06T12:33:39.999Z</time></trkpt><trkpt lat="44.56721706871982" lon="10.59726302148247"><ele>373.0</ele><time>2026-04-06T12:33:40.999Z</time></trkpt><trkpt lat="44.567193868229595" lon="10.59739069134293"><ele>373.0</ele><time>2026-04-06T12:33:41.999Z</time></trkpt><trkpt lat="44.56716744382573" lon="10.597505242053233"><ele>373.0</ele><time>2026-04-06T12:33:42.999Z</time></trkpt><trkpt lat="44.56711574703169" lon="10.5975888164332"><ele>373.0</ele><time>2026-04-06T12:33:43.999Z</time></trkpt><trkpt lat="44.56704374911975" lon="10.597649579472222"><ele>372.79999999999995</ele><time>2026-04-06T12:33:44.999Z</time></trkpt><trkpt lat="44.56696685761073" lon="10.597699418537326"><ele>372.6</ele><time>2026-04-06T12:33:45.999Z</time></trkpt><trkpt lat="44.56687072404748" lon="10.597700539762615"><ele>372.4</ele><time>2026-04-06T12:33:46.999Z</time></trkpt><trkpt lat="44.566767727427" lon="10.597688411767392"><ele>372.20000000000005</ele><time>2026-04-06T12:33:47.999Z</time></trkpt><trkpt lat="44.566673202754664" lon="10.59768680169924"><ele>372.0</ele><time>2026-04-06T12:33:48.999Z</time></trkpt><trkpt lat="44.56658222327241" lon="10.597685811768896"><ele>372.0</ele><time>2026-04-06T12:33:49.999Z</time></trkpt><trkpt lat="44.56649321686308" lon="10.597689519962309"><ele>372.0</ele><time>2026-04-06T12:33:50.999Z</time></trkpt><trkpt lat="44.566402184293096" lon="10.59772322145227"><ele>372.0</ele><time>2026-04-06T12:33:51.999Z</time></trkpt><trkpt lat="44.56630813672126" lon="10.597749017290608"><ele>372.0</ele><time>2026-04-06T12:33:52.999Z</time></trkpt><trkpt lat="44.566211381390296" lon="10.597793132763707"><ele>372.0</ele><time>2026-04-06T12:33:53.999Z</time></trkpt><trkpt lat="44.566117818855055" lon="10.59781928896576"><ele>371.6</ele><time>2026-04-06T12:33:54.999Z</time></trkpt><trkpt lat="44.566016926953765" lon="10.597885228707412"><ele>371.20000000000005</ele><time>2026-04-06T12:33:55.999Z</time></trkpt><trkpt lat="44.56591135064203" lon="10.597922662129305"><ele>370.8</ele><time>2026-04-06T12:33:56.999Z</time></trkpt><trkpt lat="44.56581754502334" lon="10.597926440199283"><ele>370.4</ele><time>2026-04-06T12:33:57.999Z</time></trkpt><trkpt lat="44.56573642261527" lon="10.597928823043286"><ele>370.0</ele><time>2026-04-06T12:33:58.999Z</time></trkpt><trkpt lat="44.56563793414688" lon="10.597929082947802"><ele>370.0</ele><time>2026-04-06T12:33:59.999Z</time></trkpt><trkpt lat="44.56553604608596" lon="10.597944630217814"><ele>370.0</ele><time>2026-04-06T12:34:00.999Z</time></trkpt><trkpt lat="44.56544674533046" lon="10.597926876979265"><ele>370.0</ele><time>2026-04-06T12:34:01.999Z</time></trkpt><trkpt lat="44.565351020477436" lon="10.597921103275725"><ele>370.0</ele><time>2026-04-06T12:34:02.999Z</time></trkpt><trkpt lat="44.56526601419698" lon="10.597924029683602"><ele>370.0</ele><time>2026-04-06T12:34:03.999Z</time></trkpt><trkpt lat="44.56516908564469" lon="10.597936147659592"><ele>369.8</ele><time>2026-04-06T12:34:04.999Z</time></trkpt><trkpt lat="44.56505714961928" lon="10.597963387796497"><ele>369.6</ele><time>2026-04-06T12:34:05.999Z</time></trkpt><trkpt lat="44.56495400810431" lon="10.597941096801787"><ele>369.4</ele><time>2026-04-06T12:34:06.999Z</time></trkpt><trkpt lat="44.56485628719151" lon="10.59791321101771"><ele>369.2</ele><time>2026-04-06T12:34:07.999Z</time></trkpt><trkpt lat="44.56474279796582" lon="10.597867498984954"><ele>369.0</ele><time>2026-04-06T12:34:09Z</time></trkpt><trkpt lat="44.56462733399254" lon="10.59781946018337"><ele>363.75</ele><time>2026-04-06T12:34:10Z</time></trkpt><trkpt lat="44.564495021106836" lon="10.597780682776252"><ele>358.5</ele><time>2026-04-06T12:34:11Z</time></trkpt><trkpt lat="44.564380561601496" lon="10.597752997556876"><ele>353.25</ele><time>2026-04-06T12:34:12Z</time></trkpt><trkpt lat="44.564278322423995" lon="10.597717926700861"><ele>348.0</ele><time>2026-04-06T12:34:13Z</time></trkpt><trkpt lat="44.56418715584317" lon="10.597665030550955"><ele>348.0</ele><time>2026-04-06T12:34:14Z</time></trkpt><trkpt lat="44.564098821102554" lon="10.597597482325122"><ele>348.0</ele><time>2026-04-06T12:34:15Z</time></trkpt><trkpt lat="44.56401544365104" lon="10.597524806057173"><ele>348.0</ele><time>2026-04-06T12:34:16Z</time></trkpt><trkpt lat="44.563930085234844" lon="10.597459273992381"><ele>348.0</ele><time>2026-04-06T12:34:17Z</time></trkpt><trkpt lat="44.563852307594956" lon="10.597415600823663"><ele>348.0</ele><time>2026-04-06T12:34:18Z</time></trkpt><trkpt lat="44.56376118752225" lon="10.597395336410104"><ele>346.79999999999995</ele><time>2026-04-06T12:34:19Z</time></trkpt><trkpt lat="44.563681495206275" lon="10.597375015268007"><ele>345.6</ele><time>2026-04-06T12:34:20Z</time></trkpt><trkpt lat="44.56356530511557" lon="10.597354829145676"><ele>344.4</ele><time>2026-04-06T12:34:21Z</time></trkpt><trkpt lat="44.56346933095601" lon="10.597305809835689"><ele>343.20000000000005</ele><time>2026-04-06T12:34:22Z</time></trkpt><trkpt lat="44.56340254380378" lon="10.59721602559067"><ele>342.0</ele><time>2026-04-06T12:34:23Z</time></trkpt><trkpt lat="44.56335358846718" lon="10.597104936236795"><ele>342.0</ele><time>2026-04-06T12:34:24Z</time></trkpt><trkpt lat="44.56331713108215" lon="10.59702283081726"><ele>342.0</ele><time>2026-04-06T12:34:25Z</time></trkpt><trkpt lat="44.56321527022933" lon="10.59699297801021"><ele>342.0</ele><time>2026-04-06T12:34:27Z</time></trkpt><trkpt lat="44.56315971834914" lon="10.597059691401537"><ele>342.0</ele><time>2026-04-06T12:34:28Z</time></trkpt><trkpt lat="44.56312257338551" lon="10.597171476174832"><ele>342.0</ele><time>2026-04-06T12:34:29Z</time></trkpt><trkpt lat="44.56307907680008" lon="10.59727425758308"><ele>342.0</ele><time>2026-04-06T12:34:30Z</time></trkpt><trkpt lat="44.56300081333021" lon="10.59733148300122"><ele>342.0</ele><time>2026-04-06T12:34:31Z</time></trkpt><trkpt lat="44.56292046870057" lon="10.597339836441451"><ele>342.0</ele><time>2026-04-06T12:34:32Z</time></trkpt><trkpt lat="44.56282399828504" lon="10.597282014221596"><ele>342.0</ele><time>2026-04-06T12:34:33Z</time></trkpt><trkpt lat="44.562700434989274" lon="10.597219472112323"><ele>342.0</ele><time>2026-04-06T12:34:34Z</time></trkpt><trkpt lat="44.56258880786208" lon="10.597162958303857"><ele>342.0</ele><time>2026-04-06T12:34:35Z</time></trkpt><trkpt lat="44.562476005441326" lon="10.597114524821212"><ele>338.20000000000005</ele><time>2026-04-06T12:34:36Z</time></trkpt><trkpt lat="44.56237755841362" lon="10.597067722155003"><ele>334.4</ele><time>2026-04-06T12:34:37Z</time></trkpt><trkpt lat="44.56230136167848" lon="10.59704612421254"><ele>330.6</ele><time>2026-04-06T12:34:38Z</time></trkpt><trkpt lat="44.56222786197736" lon="10.597057480735373"><ele>326.79999999999995</ele><time>2026-04-06T12:34:39Z</time></trkpt><trkpt lat="44.56213437048647" lon="10.597083581056854"><ele>323.0</ele><time>2026-04-06T12:34:40Z</time></trkpt><trkpt lat="44.56201442808418" lon="10.597063331936681"><ele>319.75</ele><time>2026-04-06T12:34:41Z</time></trkpt><trkpt lat="44.56188208687808" lon="10.597030817819295"><ele>316.5</ele><time>2026-04-06T12:34:42Z</time></trkpt><trkpt lat="44.561755656482966" lon="10.597021597621618"><ele>313.25</ele><time>2026-04-06T12:34:43Z</time></trkpt><trkpt lat="44.561620023695944" lon="10.596979488400871"><ele>310.0</ele><time>2026-04-06T12:34:44Z</time></trkpt><trkpt lat="44.56148935032479" lon="10.596966885965609"><ele>307.0</ele><time>2026-04-06T12:34:45Z</time></trkpt><trkpt lat="44.56135640530225" lon="10.59693731754444"><ele>304.0</ele><time>2026-04-06T12:34:46Z</time></trkpt><trkpt lat="44.5612318601629" lon="10.596887675187677"><ele>301.0</ele><time>2026-04-06T12:34:47Z</time></trkpt><trkpt lat="44.56111753297687" lon="10.596836154154166"><ele>298.0</ele><time>2026-04-06T12:34:48Z</time></trkpt><trkpt lat="44.56101328350142" lon="10.596803898131162"><ele>296.0</ele><time>2026-04-06T12:34:49Z</time></trkpt><trkpt lat="44.56092455291408" lon="10.596805882435827"><ele>294.0</ele><time>2026-04-06T12:34:50Z</time></trkpt><trkpt lat="44.56081935505865" lon="10.596849627680772"><ele>292.0</ele><time>2026-04-06T12:34:51Z</time></trkpt><trkpt lat="44.5606999629385" lon="10.596924631625503"><ele>290.0</ele><time>2026-04-06T12:34:52Z</time></trkpt><trkpt lat="44.560560364968566" lon="10.596997266897235"><ele>290.25</ele><time>2026-04-06T12:34:53Z</time></trkpt><trkpt lat="44.560446027556736" lon="10.597058698836538"><ele>290.5</ele><time>2026-04-06T12:34:54Z</time></trkpt><trkpt lat="44.56032707330065" lon="10.597136834373218"><ele>290.75</ele><time>2026-04-06T12:34:55Z</time></trkpt><trkpt lat="44.56021469609592" lon="10.597205655936929"><ele>291.0</ele><time>2026-04-06T12:34:56Z</time></trkpt><trkpt lat="44.56011626403621" lon="10.597257148174553"><ele>287.8</ele><time>2026-04-06T12:34:57Z</time></trkpt><trkpt lat="44.5600288579362" lon="10.597300864657507"><ele>284.6</ele><time>2026-04-06T12:34:58Z</time></trkpt><trkpt lat="44.55995011117317" lon="10.597338872856781"><ele>281.4</ele><time>2026-04-06T12:34:59Z</time></trkpt><trkpt lat="44.55985165259058" lon="10.597411886103048"><ele>278.2</ele><time>2026-04-06T12:35:01Z</time></trkpt><trkpt lat="44.55981549649635" lon="10.597545727107207"><ele>275.0</ele><time>2026-04-06T12:35:03Z</time></trkpt><trkpt lat="44.559814696962434" lon="10.597704772068239"><ele>275.0</ele><time>2026-04-06T12:35:05Z</time></trkpt><trkpt lat="44.559828865282554" lon="10.597830473617348"><ele>275.0</ele><time>2026-04-06T12:35:07Z</time></trkpt><trkpt lat="44.55985854309727" lon="10.597945399177227"><ele>275.0</ele><time>2026-04-06T12:35:09Z</time></trkpt><trkpt lat="44.55985567974849" lon="10.598079132935055"><ele>275.0</ele><time>2026-04-06T12:35:11Z</time></trkpt><trkpt lat="44.55982024328307" lon="10.598206997545397"><ele>275.0</ele><time>2026-04-06T12:35:13Z</time></trkpt><trkpt lat="44.559781660954464" lon="10.598296633756986"><ele>275.0</ele><time>2026-04-06T12:35:14Z</time></trkpt><trkpt lat="44.55974039381328" lon="10.598386673014074"><ele>275.5</ele><time>2026-04-06T12:35:15Z</time></trkpt><trkpt lat="44.55969579779947" lon="10.598477342739653"><ele>276.0</ele><time>2026-04-06T12:35:16Z</time></trkpt><trkpt lat="44.559629960332856" lon="10.598547911407803"><ele>276.5</ele><time>2026-04-06T12:35:17Z</time></trkpt><trkpt lat="44.55953997462985" lon="10.598577525438094"><ele>277.0</ele><time>2026-04-06T12:35:18Z</time></trkpt><trkpt lat="44.559443195407546" lon="10.598596214580096"><ele>277.5</ele><time>2026-04-06T12:35:19Z</time></trkpt><trkpt lat="44.559348341719755" lon="10.59861929476842"><ele>278.0</ele><time>2026-04-06T12:35:20Z</time></trkpt><trkpt lat="44.559277028416155" lon="10.598642016313317"><ele>278.0</ele><time>2026-04-06T12:35:21Z</time></trkpt><trkpt lat="44.5592107286548" lon="10.598646614077918"><ele>278.0</ele><time>2026-04-06T12:35:22Z</time></trkpt><trkpt lat="44.55912252449825" lon="10.598660302107408"><ele>278.0</ele><time>2026-04-06T12:35:23Z</time></trkpt><trkpt lat="44.559032835596646" lon="10.598687932894096"><ele>278.0</ele><time>2026-04-06T12:35:24Z</time></trkpt><trkpt lat="44.55892927523158" lon="10.598681708155487"><ele>278.0</ele><time>2026-04-06T12:35:25Z</time></trkpt><trkpt lat="44.55884733209198" lon="10.598656800431018"><ele>278.0</ele><time>2026-04-06T12:35:26Z</time></trkpt><trkpt lat="44.5587608938953" lon="10.598618311777635"><ele>274.0</ele><time>2026-04-06T12:35:27Z</time></trkpt><trkpt lat="44.55868065398375" lon="10.598573140914107"><ele>270.0</ele><time>2026-04-06T12:35:28Z</time></trkpt><trkpt lat="44.55860044921228" lon="10.598531047494419"><ele>266.0</ele><time>2026-04-06T12:35:29Z</time></trkpt><trkpt lat="44.55852403169353" lon="10.598493876349261"><ele>262.0</ele><time>2026-04-06T12:35:30Z</time></trkpt><trkpt lat="44.558452155438225" lon="10.598460022677068"><ele>258.0</ele><time>2026-04-06T12:35:31Z</time></trkpt><trkpt lat="44.55838669546158" lon="10.598424282061778"><ele>254.0</ele><time>2026-04-06T12:35:32Z</time></trkpt><trkpt lat="44.55831677207149" lon="10.598387178920634"><ele>254.0</ele><time>2026-04-06T12:35:33Z</time></trkpt><trkpt lat="44.558247111799155" lon="10.598353412721453"><ele>254.0</ele><time>2026-04-06T12:35:33.999Z</time></trkpt><trkpt lat="44.55818341235729" lon="10.59831885833848"><ele>254.0</ele><time>2026-04-06T12:35:34.999Z</time></trkpt><trkpt lat="44.55812123898467" lon="10.598295496647687"><ele>254.0</ele><time>2026-04-06T12:35:35.999Z</time></trkpt><trkpt lat="44.55805713045592" lon="10.598280974323895"><ele>254.0</ele><time>2026-04-06T12:35:36.999Z</time></trkpt><trkpt lat="44.55799210016802" lon="10.598283671570817"><ele>254.0</ele><time>2026-04-06T12:35:37.999Z</time></trkpt><trkpt lat="44.55791019520782" lon="10.598305664946423"><ele>254.0</ele><time>2026-04-06T12:35:38.999Z</time></trkpt><trkpt lat="44.55784234170034" lon="10.598345478646657"><ele>252.83333333333334</ele><time>2026-04-06T12:35:39.999Z</time></trkpt><trkpt lat="44.5577752058302" lon="10.598403807685555"><ele>251.66666666666669</ele><time>2026-04-06T12:35:40.999Z</time></trkpt><trkpt lat="44.557707530216014" lon="10.598470945318157"><ele>250.5</ele><time>2026-04-06T12:35:41.999Z</time></trkpt><trkpt lat="44.5576368132471" lon="10.598527512522821"><ele>249.33333333333331</ele><time>2026-04-06T12:35:42.999Z</time></trkpt><trkpt lat="44.55755558661896" lon="10.598573876999243"><ele>248.16666666666666</ele><time>2026-04-06T12:35:43.999Z</time></trkpt><trkpt lat="44.55746964639516" lon="10.598617633129606"><ele>247.0</ele><time>2026-04-06T12:35:44.999Z</time></trkpt><trkpt lat="44.55738958586229" lon="10.598668627880523"><ele>247.0</ele><time>2026-04-06T12:35:45.999Z</time></trkpt><trkpt lat="44.557306146890895" lon="10.598723150430047"><ele>247.0</ele><time>2026-04-06T12:35:46.999Z</time></trkpt><trkpt lat="44.55721768117744" lon="10.598779522337447"><ele>247.0</ele><time>2026-04-06T12:35:47.999Z</time></trkpt><trkpt lat="44.557130369863934" lon="10.598823075674067"><ele>247.0</ele><time>2026-04-06T12:35:48.999Z</time></trkpt><trkpt lat="44.55703502010146" lon="10.598852811182214"><ele>247.0</ele><time>2026-04-06T12:35:49.999Z</time></trkpt><trkpt lat="44.556939213732356" lon="10.598863381589881"><ele>244.83333333333331</ele><time>2026-04-06T12:35:50.999Z</time></trkpt><trkpt lat="44.556844269599864" lon="10.598842366451171"><ele>242.66666666666666</ele><time>2026-04-06T12:35:51.999Z</time></trkpt><trkpt lat="44.55675868593665" lon="10.598806174811983"><ele>240.5</ele><time>2026-04-06T12:35:52.999Z</time></trkpt><trkpt lat="44.556672467097655" lon="10.598788579592705"><ele>238.33333333333331</ele><time>2026-04-06T12:35:53.999Z</time></trkpt><trkpt lat="44.556588001561785" lon="10.59878190816493"><ele>236.16666666666666</ele><time>2026-04-06T12:35:54.999Z</time></trkpt><trkpt lat="44.5565063097012" lon="10.598781263664225"><ele>234.0</ele><time>2026-04-06T12:35:55.999Z</time></trkpt><trkpt lat="44.556426664217184" lon="10.598799216623922"><ele>234.0</ele><time>2026-04-06T12:35:56.999Z</time></trkpt><trkpt lat="44.556342189329285" lon="10.59882362016629"><ele>233.99999999999997</ele><time>2026-04-06T12:35:57.999Z</time></trkpt><trkpt lat="44.55624778216406" lon="10.598846885947648"><ele>233.99999999999997</ele><time>2026-04-06T12:35:58.999Z</time></trkpt><trkpt lat="44.556149344475145" lon="10.598864087975683"><ele>234.0</ele><time>2026-04-06T12:35:59.999Z</time></trkpt><trkpt lat="44.55605458477668" lon="10.598877073984877"><ele>234.0</ele><time>2026-04-06T12:36:00.999Z</time></trkpt><trkpt lat="44.555964573955336" lon="10.598873054248902"><ele>231.66666666666666</ele><time>2026-04-06T12:36:01.999Z</time></trkpt><trkpt lat="44.55587996948616" lon="10.598860174516423"><ele>229.33333333333331</ele><time>2026-04-06T12:36:02.999Z</time></trkpt><trkpt lat="44.55581151904442" lon="10.598859665545337"><ele>227.0</ele><time>2026-04-06T12:36:03.999Z</time></trkpt><trkpt lat="44.55572809920049" lon="10.598847402744566"><ele>224.66666666666666</ele><time>2026-04-06T12:36:05.999Z</time></trkpt><trkpt lat="44.55565195673554" lon="10.598832317281264"><ele>222.33333333333331</ele><time>2026-04-06T12:36:07.999Z</time></trkpt><trkpt lat="44.55558749825586" lon="10.598817043754034"><ele>220.0</ele><time>2026-04-06T12:36:08.999Z</time></trkpt><trkpt lat="44.55550380462887" lon="10.59881122129166"><ele>220.0</ele><time>2026-04-06T12:36:09.999Z</time></trkpt><trkpt lat="44.555430975444864" lon="10.598812075092273"><ele>220.0</ele><time>2026-04-06T12:36:10.999Z</time></trkpt><trkpt lat="44.55533110896753" lon="10.598856052649309"><ele>220.0</ele><time>2026-04-06T12:36:12.999Z</time></trkpt><trkpt lat="44.55530171842249" lon="10.59899934245095"><ele>220.0</ele><time>2026-04-06T12:36:15Z</time></trkpt><trkpt lat="44.55533580001664" lon="10.599178277585985"><ele>220.0</ele><time>2026-04-06T12:36:17Z</time></trkpt><trkpt lat="44.555343836300985" lon="10.599301247482344"><ele>220.0</ele><time>2026-04-06T12:36:18Z</time></trkpt><trkpt lat="44.55539232545679" lon="10.599411451784876"><ele>220.0</ele><time>2026-04-06T12:36:19Z</time></trkpt><trkpt lat="44.55536496894094" lon="10.599540339262928"><ele>220.0</ele><time>2026-04-06T12:36:21Z</time></trkpt><trkpt lat="44.5552749291107" lon="10.599606456463293"><ele>220.0</ele><time>2026-04-06T12:36:22Z</time></trkpt><trkpt lat="44.555198453551576" lon="10.599626799025465"><ele>220.0</ele><time>2026-04-06T12:36:23Z</time></trkpt><trkpt lat="44.55509386539716" lon="10.599621166400393"><ele>220.0</ele><time>2026-04-06T12:36:24Z</time></trkpt><trkpt lat="44.55494217432513" lon="10.599629192264802"><ele>220.0</ele><time>2026-04-06T12:36:25Z</time></trkpt><trkpt lat="44.554826558562866" lon="10.599597160436481"><ele>220.0</ele><time>2026-04-06T12:36:26Z</time></trkpt><trkpt lat="44.554762017710885" lon="10.599460713235604"><ele>220.0</ele><time>2026-04-06T12:36:28Z</time></trkpt><trkpt lat="44.55476642250073" lon="10.599336616168905"><ele>220.6</ele><time>2026-04-06T12:36:29Z</time></trkpt><trkpt lat="44.55478446114379" lon="10.599189983352318"><ele>221.2</ele><time>2026-04-06T12:36:30Z</time></trkpt><trkpt lat="44.55476656627394" lon="10.599069880517073"><ele>221.8</ele><time>2026-04-06T12:36:31Z</time></trkpt><trkpt lat="44.554685590337726" lon="10.59901652633245"><ele>222.4</ele><time>2026-04-06T12:36:32Z</time></trkpt><trkpt lat="44.554594865448" lon="10.599083986264871"><ele>223.0</ele><time>2026-04-06T12:36:33Z</time></trkpt><trkpt lat="44.55443597306832" lon="10.599177991056772"><ele>226.75</ele><time>2026-04-06T12:36:34Z</time></trkpt><trkpt lat="44.55431851900093" lon="10.599224777344336"><ele>230.5</ele><time>2026-04-06T12:36:35Z</time></trkpt><trkpt lat="44.5541881218606" lon="10.599273981710024"><ele>234.25</ele><time>2026-04-06T12:36:36Z</time></trkpt><trkpt lat="44.554058073715446" lon="10.599353547849807"><ele>238.0</ele><time>2026-04-06T12:36:37Z</time></trkpt><trkpt lat="44.553938796396125" lon="10.599406949309087"><ele>238.0</ele><time>2026-04-06T12:36:38Z</time></trkpt><trkpt lat="44.5538386750699" lon="10.599431973595733"><ele>238.0</ele><time>2026-04-06T12:36:39Z</time></trkpt><trkpt lat="44.5537434616194" lon="10.599415371162921"><ele>238.0</ele><time>2026-04-06T12:36:40Z</time></trkpt><trkpt lat="44.55364477045704" lon="10.59939086064695"><ele>238.0</ele><time>2026-04-06T12:36:41Z</time></trkpt><trkpt lat="44.5535536698263" lon="10.599348085346923"><ele>238.0</ele><time>2026-04-06T12:36:42Z</time></trkpt><trkpt lat="44.553452994312714" lon="10.599295422119033"><ele>240.4</ele><time>2026-04-06T12:36:43Z</time></trkpt><trkpt lat="44.553356953403465" lon="10.599230161919056"><ele>242.8</ele><time>2026-04-06T12:36:44Z</time></trkpt><trkpt lat="44.553275421446685" lon="10.599175850380837"><ele>245.2</ele><time>2026-04-06T12:36:45Z</time></trkpt><trkpt lat="44.55318528191441" lon="10.599143578986888"><ele>247.6</ele><time>2026-04-06T12:36:46Z</time></trkpt><trkpt lat="44.55309001709022" lon="10.599117438406628"><ele>250.0</ele><time>2026-04-06T12:36:47Z</time></trkpt><trkpt lat="44.55299021643433" lon="10.599107012111318"><ele>250.0</ele><time>2026-04-06T12:36:48Z</time></trkpt><trkpt lat="44.55289107526494" lon="10.599095729955213"><ele>250.0</ele><time>2026-04-06T12:36:49Z</time></trkpt><trkpt lat="44.55279420068781" lon="10.599089615125273"><ele>250.0</ele><time>2026-04-06T12:36:50Z</time></trkpt><trkpt lat="44.552698919438164" lon="10.599080076869729"><ele>250.0</ele><time>2026-04-06T12:36:51Z</time></trkpt><trkpt lat="44.55259846295648" lon="10.599068203558108"><ele>250.0</ele><time>2026-04-06T12:36:52Z</time></trkpt><trkpt lat="44.55250435422501" lon="10.599054316338938"><ele>251.49999999999997</ele><time>2026-04-06T12:36:53Z</time></trkpt><trkpt lat="44.55241598835571" lon="10.59904058123213"><ele>253.0</ele><time>2026-04-06T12:36:54Z</time></trkpt><trkpt lat="44.55233024559433" lon="10.599026185486233"><ele>254.5</ele><time>2026-04-06T12:36:55Z</time></trkpt><trkpt lat="44.552257859577225" lon="10.599012617712496"><ele>256.0</ele><time>2026-04-06T12:36:56Z</time></trkpt><trkpt lat="44.55217624630111" lon="10.599002555203363"><ele>257.5</ele><time>2026-04-06T12:36:57Z</time></trkpt><trkpt lat="44.55209030082631" lon="10.598993198842443"><ele>259.0</ele><time>2026-04-06T12:36:58Z</time></trkpt><trkpt lat="44.55199696806155" lon="10.598995509135959"><ele>259.8</ele><time>2026-04-06T12:36:59Z</time></trkpt><trkpt lat="44.55189873702868" lon="10.599003890691256"><ele>260.59999999999997</ele><time>2026-04-06T12:37:00Z</time></trkpt><trkpt lat="44.551808693492674" lon="10.59901405366888"><ele>261.4</ele><time>2026-04-06T12:37:01Z</time></trkpt><trkpt lat="44.55171669863077" lon="10.59902758592609"><ele>262.2</ele><time>2026-04-06T12:37:02Z</time></trkpt><trkpt lat="44.551621592534836" lon="10.599047221870167"><ele>263.0</ele><time>2026-04-06T12:37:03Z</time></trkpt><trkpt lat="44.5515188869901" lon="10.599050894031436"><ele>263.0</ele><time>2026-04-06T12:37:04Z</time></trkpt><trkpt lat="44.55141337177707" lon="10.599039697959324"><ele>263.0</ele><time>2026-04-06T12:37:05Z</time></trkpt><trkpt lat="44.551311890079155" lon="10.599026549801891"><ele>263.0</ele><time>2026-04-06T12:37:06Z</time></trkpt><trkpt lat="44.55122036090954" lon="10.599019043289369"><ele>263.0</ele><time>2026-04-06T12:37:07Z</time></trkpt><trkpt lat="44.5511254962296" lon="10.599012569122918"><ele>263.0</ele><time>2026-04-06T12:37:08Z</time></trkpt><trkpt lat="44.55103520943128" lon="10.599017016614923"><ele>263.4</ele><time>2026-04-06T12:37:09Z</time></trkpt><trkpt lat="44.550937015648714" lon="10.5990279156779"><ele>263.8</ele><time>2026-04-06T12:37:10Z</time></trkpt><trkpt lat="44.5508476485021" lon="10.599036992692843"><ele>264.2</ele><time>2026-04-06T12:37:11Z</time></trkpt><trkpt lat="44.550761752865476" lon="10.5990492194346"><ele>264.6</ele><time>2026-04-06T12:37:12Z</time></trkpt><trkpt lat="44.550669470442706" lon="10.599058415610623"><ele>265.0</ele><time>2026-04-06T12:37:13Z</time></trkpt><trkpt lat="44.55058241622143" lon="10.599084233631524"><ele>265.0</ele><time>2026-04-06T12:37:14Z</time></trkpt><trkpt lat="44.5504960879225" lon="10.59910769461244"><ele>265.0</ele><time>2026-04-06T12:37:15Z</time></trkpt><trkpt lat="44.55041161559825" lon="10.599128621653069"><ele>265.0</ele><time>2026-04-06T12:37:16Z</time></trkpt><trkpt lat="44.55032795751151" lon="10.599137485838595"><ele>265.0</ele><time>2026-04-06T12:37:17Z</time></trkpt><trkpt lat="44.55024453662835" lon="10.599141027082545"><ele>265.0</ele><time>2026-04-06T12:37:18Z</time></trkpt><trkpt lat="44.55015172893519" lon="10.599165684071707"><ele>265.0</ele><time>2026-04-06T12:37:19Z</time></trkpt><trkpt lat="44.55006311915978" lon="10.599192887624076"><ele>265.8333333333333</ele><time>2026-04-06T12:37:20Z</time></trkpt><trkpt lat="44.54998084832664" lon="10.599226406354491"><ele>266.66666666666663</ele><time>2026-04-06T12:37:21Z</time></trkpt><trkpt lat="44.5499018714625" lon="10.599269797749903"><ele>267.5</ele><time>2026-04-06T12:37:22Z</time></trkpt><trkpt lat="44.54982801780654" lon="10.599324526482844"><ele>268.3333333333333</ele><time>2026-04-06T12:37:23Z</time></trkpt><trkpt lat="44.54974894300775" lon="10.599384640833753"><ele>269.1666666666667</ele><time>2026-04-06T12:37:24Z</time></trkpt><trkpt lat="44.54966385221134" lon="10.599455795610723"><ele>270.0</ele><time>2026-04-06T12:37:25Z</time></trkpt><trkpt lat="44.549578853081606" lon="10.599530896916532"><ele>272.4</ele><time>2026-04-06T12:37:26Z</time></trkpt><trkpt lat="44.54950055685907" lon="10.59959397289137"><ele>274.8</ele><time>2026-04-06T12:37:27Z</time></trkpt><trkpt lat="44.549419750054206" lon="10.599665394503091"><ele>277.2</ele><time>2026-04-06T12:37:28Z</time></trkpt><trkpt lat="44.5493341424848" lon="10.599722084176417"><ele>279.6</ele><time>2026-04-06T12:37:29Z</time></trkpt><trkpt lat="44.549258849312096" lon="10.599767529250808"><ele>282.0</ele><time>2026-04-06T12:37:30Z</time></trkpt><trkpt lat="44.54916450050168" lon="10.599838820803267"><ele>282.0</ele><time>2026-04-06T12:37:32Z</time></trkpt><trkpt lat="44.54903266407524" lon="10.59982161827943"><ele>282.0</ele><time>2026-04-06T12:37:34Z</time></trkpt><trkpt lat="44.54893977610759" lon="10.59977646794169"><ele>282.0</ele><time>2026-04-06T12:37:35Z</time></trkpt><trkpt lat="44.54883978035202" lon="10.599726514513652"><ele>282.0</ele><time>2026-04-06T12:37:36Z</time></trkpt><trkpt lat="44.548734285512246" lon="10.599676297808294"><ele>282.0</ele><time>2026-04-06T12:37:37Z</time></trkpt><trkpt lat="44.54862524685152" lon="10.599620442507723"><ele>283.25</ele><time>2026-04-06T12:37:38Z</time></trkpt><trkpt lat="44.54851773392529" lon="10.599562057755467"><ele>284.5</ele><time>2026-04-06T12:37:39Z</time></trkpt><trkpt lat="44.548410619831934" lon="10.59950077124381"><ele>285.75</ele><time>2026-04-06T12:37:40Z</time></trkpt><trkpt lat="44.548283494122145" lon="10.599417219037722"><ele>287.0</ele><time>2026-04-06T12:37:41Z</time></trkpt><trkpt lat="44.548171352258514" lon="10.599323913781475"><ele>286.5</ele><time>2026-04-06T12:37:42Z</time></trkpt><trkpt lat="44.54806776604171" lon="10.599232110444179"><ele>286.0</ele><time>2026-04-06T12:37:43Z</time></trkpt><trkpt lat="44.54796106804693" lon="10.599157737377555"><ele>285.5</ele><time>2026-04-06T12:37:44Z</time></trkpt><trkpt lat="44.54785300291645" lon="10.599080730401104"><ele>285.0</ele><time>2026-04-06T12:37:45Z</time></trkpt><trkpt lat="44.547747983507485" lon="10.599053575857598"><ele>285.0</ele><time>2026-04-06T12:37:46Z</time></trkpt><trkpt lat="44.5476768254859" lon="10.598959921305767"><ele>285.0</ele><time>2026-04-06T12:37:47Z</time></trkpt><trkpt lat="44.54759052050585" lon="10.59890898589791"><ele>285.0</ele><time>2026-04-06T12:37:48Z</time></trkpt><trkpt lat="44.5475400191481" lon="10.598824112228366"><ele>285.0</ele><time>2026-04-06T12:37:49Z</time></trkpt><trkpt lat="44.54751438033481" lon="10.598736479087833"><ele>285.0</ele><time>2026-04-06T12:37:50Z</time></trkpt><trkpt lat="44.54752723158876" lon="10.598607733793441"><ele>285.0</ele><time>2026-04-06T12:37:51.999Z</time></trkpt><trkpt lat="44.547483567011135" lon="10.598503727060548"><ele>285.0</ele><time>2026-04-06T12:37:53.999Z</time></trkpt><trkpt lat="44.54740342093627" lon="10.598543667614235"><ele>285.0</ele><time>2026-04-06T12:37:55.999Z</time></trkpt><trkpt lat="44.54730812228707" lon="10.598644188200094"><ele>285.0</ele><time>2026-04-06T12:37:57.999Z</time></trkpt><trkpt lat="44.54721223927115" lon="10.598743852820018"><ele>285.0</ele><time>2026-04-06T12:37:59.999Z</time></trkpt><trkpt lat="44.54711681399992" lon="10.598845349823378"><ele>285.0</ele><time>2026-04-06T12:38:01.999Z</time></trkpt><trkpt lat="44.54703803612999" lon="10.598802139043926"><ele>285.0</ele><time>2026-04-06T12:38:03.999Z</time></trkpt><trkpt lat="44.54706017653532" lon="10.598668938446407"><ele>285.0</ele><time>2026-04-06T12:38:05.999Z</time></trkpt><trkpt lat="44.54703517168846" lon="10.598540451078922"><ele>285.0</ele><time>2026-04-06T12:38:07.999Z</time></trkpt><trkpt lat="44.547000685728406" lon="10.598378706898398"><ele>285.0</ele><time>2026-04-06T12:38:09.999Z</time></trkpt><trkpt lat="44.54704284570609" lon="10.59826655566745"><ele>285.0</ele><time>2026-04-06T12:38:11.999Z</time></trkpt><trkpt lat="44.54707385211605" lon="10.598132256393379"><ele>286.1428571428571</ele><time>2026-04-06T12:38:14.999Z</time></trkpt><trkpt lat="44.5470976799851" lon="10.59804738530562"><ele>287.2857142857143</ele><time>2026-04-06T12:38:16.999Z</time></trkpt><trkpt lat="44.547180358941304" lon="10.598019056743947"><ele>288.42857142857144</ele><time>2026-04-06T12:38:18.999Z</time></trkpt><trkpt lat="44.54717161433887" lon="10.597908800308149"><ele>289.57142857142856</ele><time>2026-04-06T12:38:22Z</time></trkpt><trkpt lat="44.54720351416814" lon="10.597819637495839"><ele>290.7142857142857</ele><time>2026-04-06T12:38:24Z</time></trkpt><trkpt lat="44.547170150921836" lon="10.597733831118855"><ele>291.85714285714283</ele><time>2026-04-06T12:38:26Z</time></trkpt><trkpt lat="44.54711253430999" lon="10.59767283460102"><ele>293.0</ele><time>2026-04-06T12:38:29Z</time></trkpt><trkpt lat="44.547057421218895" lon="10.597614320651418"><ele>301.0</ele><time>2026-04-06T12:38:32Z</time></trkpt><trkpt lat="44.54699089807213" lon="10.597532925592434"><ele>309.0</ele><time>2026-04-06T12:38:34Z</time></trkpt><trkpt lat="44.54687989891244" lon="10.597513632892918"><ele>317.0</ele><time>2026-04-06T12:38:35Z</time></trkpt><trkpt lat="44.54677931523062" lon="10.597493205545192"><ele>325.0</ele><time>2026-04-06T12:38:36Z</time></trkpt><trkpt lat="44.546703588259774" lon="10.597514750250038"><ele>333.0</ele><time>2026-04-06T12:38:37Z</time></trkpt><trkpt lat="44.546603349908345" lon="10.597499303008075"><ele>333.0</ele><time>2026-04-06T12:38:39Z</time></trkpt><trkpt lat="44.54652154494186" lon="10.5974706264561"><ele>333.0</ele><time>2026-04-06T12:38:47Z</time></trkpt><trkpt lat="44.54645346484208" lon="10.597557831096386"><ele>333.0</ele><time>2026-04-06T12:38:52Z</time></trkpt><trkpt lat="44.546380571594455" lon="10.597581640743096"><ele>333.0</ele><time>2026-04-06T12:38:55Z</time></trkpt><trkpt lat="44.54630009057135" lon="10.59759598965578"><ele>333.0</ele><time>2026-04-06T12:39:30Z</time></trkpt><trkpt lat="44.54623282863373" lon="10.597594446803493"><ele>333.0</ele><time>2026-04-06T12:39:43.999Z</time></trkpt><trkpt lat="44.546158173997306" lon="10.597588863068603"><ele>338.3333333333333</ele><time>2026-04-06T12:39:47.999Z</time></trkpt><trkpt lat="44.54608628040549" lon="10.597569263498537"><ele>343.6666666666667</ele><time>2026-04-06T12:39:51.999Z</time></trkpt><trkpt lat="44.54598730895072" lon="10.597600692134225"><ele>349.0</ele><time>2026-04-06T12:39:52.999Z</time></trkpt><trkpt lat="44.54593419584552" lon="10.59755173480544"><ele>354.33333333333337</ele><time>2026-04-06T12:39:54.999Z</time></trkpt><trkpt lat="44.54583678918014" lon="10.597528535953137"><ele>359.6666666666667</ele><time>2026-04-06T12:39:55.999Z</time></trkpt><trkpt lat="44.5457615461325" lon="10.597493954968481"><ele>365.0</ele><time>2026-04-06T12:39:57.999Z</time></trkpt><trkpt lat="44.54569336894015" lon="10.597460623368153"><ele>365.0</ele><time>2026-04-06T12:39:58.999Z</time></trkpt><trkpt lat="44.54561716739948" lon="10.597452086561933"><ele>365.0</ele><time>2026-04-06T12:39:59.999Z</time></trkpt><trkpt lat="44.54555669770208" lon="10.59740483973955"><ele>365.0</ele><time>2026-04-06T12:40:01.999Z</time></trkpt><trkpt lat="44.54548519054068" lon="10.597345055722549"><ele>365.0</ele><time>2026-04-06T12:40:03.999Z</time></trkpt><trkpt lat="44.54513180574512" lon="10.597205036917297"><ele>369.0</ele><time>2026-04-06T12:40:05.999Z</time></trkpt><trkpt lat="44.5450772146486" lon="10.597329054135683"><ele>373.0</ele><time>2026-04-06T12:40:07.999Z</time></trkpt><trkpt lat="44.54502530094073" lon="10.597277831604767"><ele>377.0</ele><time>2026-04-06T12:40:08.999Z</time></trkpt><trkpt lat="44.54495369563647" lon="10.597163390114467"><ele>381.0</ele><time>2026-04-06T12:40:09.999Z</time></trkpt><trkpt lat="44.54482150351291" lon="10.597268371640544"><ele>385.0</ele><time>2026-04-06T12:40:11.999Z</time></trkpt><trkpt lat="44.54473841595018" lon="10.59719117219852"><ele>385.00000000000006</ele><time>2026-04-06T12:40:13.999Z</time></trkpt><trkpt lat="44.54464193592856" lon="10.597187100290045"><ele>385.0</ele><time>2026-04-06T12:40:16.999Z</time></trkpt><trkpt lat="44.544591261165" lon="10.597116565675615"><ele>385.0</ele><time>2026-04-06T12:40:17.999Z</time></trkpt><trkpt lat="44.544558086223965" lon="10.59701355297767"><ele>385.0</ele><time>2026-04-06T12:40:18.999Z</time></trkpt><trkpt lat="44.54454043702521" lon="10.596911376822167"><ele>385.00000000000006</ele><time>2026-04-06T12:40:20.999Z</time></trkpt><trkpt lat="44.54448205202512" lon="10.596754988775439"><ele>385.0</ele><time>2026-04-06T12:40:22.999Z</time></trkpt><trkpt lat="44.54444620249621" lon="10.596674462843884"><ele>386.33333333333337</ele><time>2026-04-06T12:40:23.999Z</time></trkpt><trkpt lat="44.544413951149785" lon="10.596588641715012"><ele>387.6666666666667</ele><time>2026-04-06T12:40:24.999Z</time></trkpt><trkpt lat="44.54443131280205" lon="10.596477490452186"><ele>389.0</ele><time>2026-04-06T12:40:25.999Z</time></trkpt><trkpt lat="44.54444455661402" lon="10.596326391029596"><ele>390.33333333333337</ele><time>2026-04-06T12:40:28Z</time></trkpt><trkpt lat="44.54442805322359" lon="10.596222322270362"><ele>391.6666666666667</ele><time>2026-04-06T12:40:30Z</time></trkpt><trkpt lat="44.54448663717126" lon="10.596161934629054"><ele>393.0</ele><time>2026-04-06T12:40:31Z</time></trkpt><trkpt lat="44.544507789220994" lon="10.596002316237524"><ele>395.1666666666667</ele><time>2026-04-06T12:40:34Z</time></trkpt><trkpt lat="44.54446739349538" lon="10.595929221530804"><ele>397.33333333333337</ele><time>2026-04-06T12:40:35Z</time></trkpt><trkpt lat="44.544445850005445" lon="10.595843049866023"><ele>399.5</ele><time>2026-04-06T12:40:36Z</time></trkpt><trkpt lat="44.54443175800912" lon="10.595638687117308"><ele>401.6666666666667</ele><time>2026-04-06T12:40:38Z</time></trkpt><trkpt lat="44.544404773492126" lon="10.595548810954925"><ele>403.83333333333337</ele><time>2026-04-06T12:40:39Z</time></trkpt><trkpt lat="44.544350011837594" lon="10.59549189289137"><ele>406.0</ele><time>2026-04-06T12:40:40Z</time></trkpt><trkpt lat="44.54428881682987" lon="10.595468375482142"><ele>405.8</ele><time>2026-04-06T12:40:41Z</time></trkpt><trkpt lat="44.544207017419346" lon="10.59533127927319"><ele>405.6</ele><time>2026-04-06T12:40:43Z</time></trkpt><trkpt lat="44.54415164166409" lon="10.595182365016596"><ele>405.4</ele><time>2026-04-06T12:40:45Z</time></trkpt><trkpt lat="44.54409432690803" lon="10.59512668272155"><ele>405.2</ele><time>2026-04-06T12:40:46Z</time></trkpt><trkpt lat="44.544150274509775" lon="10.595061930694468"><ele>405.0</ele><time>2026-04-06T12:40:52Z</time></trkpt><trkpt lat="44.544212002478886" lon="10.595008570585568"><ele>405.0</ele><time>2026-04-06T12:40:55Z</time></trkpt><trkpt lat="44.544158524368086" lon="10.59494987577354"><ele>405.0</ele><time>2026-04-06T12:40:58Z</time></trkpt><trkpt lat="44.54407472563686" lon="10.59496160267612"><ele>405.0</ele><time>2026-04-06T12:41:00Z</time></trkpt><trkpt lat="44.543909034830094" lon="10.594906159981367"><ele>405.0</ele><time>2026-04-06T12:41:03Z</time></trkpt><trkpt lat="44.543798140197346" lon="10.59485857033666"><ele>405.0</ele><time>2026-04-06T12:41:04Z</time></trkpt><trkpt lat="44.543712658382695" lon="10.594811585043637"><ele>401.0</ele><time>2026-04-06T12:41:05Z</time></trkpt><trkpt lat="44.54364257184958" lon="10.594773524634345"><ele>397.0</ele><time>2026-04-06T12:41:06Z</time></trkpt><trkpt lat="44.54357009916846" lon="10.594782327447776"><ele>393.0</ele><time>2026-04-06T12:41:07Z</time></trkpt><trkpt lat="44.543484602210015" lon="10.59485164836143"><ele>389.0</ele><time>2026-04-06T12:41:08Z</time></trkpt><trkpt lat="44.54338952155465" lon="10.594945717470225"><ele>385.0</ele><time>2026-04-06T12:41:09Z</time></trkpt><trkpt lat="44.54329173677331" lon="10.594998799806522"><ele>385.0</ele><time>2026-04-06T12:41:10Z</time></trkpt><trkpt lat="44.54319422365947" lon="10.595053883693241"><ele>385.0</ele><time>2026-04-06T12:41:11Z</time></trkpt><trkpt lat="44.54309921438767" lon="10.595091751951351"><ele>385.0</ele><time>2026-04-06T12:41:12Z</time></trkpt><trkpt lat="44.54299771453316" lon="10.59515232292481"><ele>385.0</ele><time>2026-04-06T12:41:13Z</time></trkpt><trkpt lat="44.542916654628094" lon="10.595228874455971"><ele>385.0</ele><time>2026-04-06T12:41:14Z</time></trkpt><trkpt lat="44.542842901530484" lon="10.595299543221728"><ele>381.00000000000006</ele><time>2026-04-06T12:41:15Z</time></trkpt><trkpt lat="44.542772310807486" lon="10.59535644448159"><ele>377.0</ele><time>2026-04-06T12:41:16Z</time></trkpt><trkpt lat="44.542704503659905" lon="10.595407581310926"><ele>373.0</ele><time>2026-04-06T12:41:17Z</time></trkpt><trkpt lat="44.542638815482995" lon="10.5954779888246"><ele>369.0</ele><time>2026-04-06T12:41:18Z</time></trkpt><trkpt lat="44.54258028554042" lon="10.59556238712489"><ele>365.0</ele><time>2026-04-06T12:41:19Z</time></trkpt><trkpt lat="44.54251533263528" lon="10.595650853711604"><ele>361.0</ele><time>2026-04-06T12:41:20Z</time></trkpt><trkpt lat="44.54245182832057" lon="10.595752779705903"><ele>361.0</ele><time>2026-04-06T12:41:21Z</time></trkpt><trkpt lat="44.542393793221066" lon="10.595851987626212"><ele>361.0</ele><time>2026-04-06T12:41:22Z</time></trkpt><trkpt lat="44.542342294963596" lon="10.595937271307927"><ele>361.0</ele><time>2026-04-06T12:41:23Z</time></trkpt><trkpt lat="44.54227638187799" lon="10.596033983647292"><ele>361.0</ele><time>2026-04-06T12:41:24Z</time></trkpt><trkpt lat="44.542195318250336" lon="10.596151943708682"><ele>361.0</ele><time>2026-04-06T12:41:25Z</time></trkpt><trkpt lat="44.54211757998052" lon="10.596254231561183"><ele>359.3333333333333</ele><time>2026-04-06T12:41:26Z</time></trkpt><trkpt lat="44.54205523622616" lon="10.596336357548358"><ele>357.66666666666663</ele><time>2026-04-06T12:41:27Z</time></trkpt><trkpt lat="44.54200445456635" lon="10.596405761058191"><ele>356.0</ele><time>2026-04-06T12:41:28Z</time></trkpt><trkpt lat="44.54194917733533" lon="10.596453234075188"><ele>354.3333333333333</ele><time>2026-04-06T12:41:29Z</time></trkpt><trkpt lat="44.54187531498937" lon="10.596504062787728"><ele>352.6666666666667</ele><time>2026-04-06T12:41:30Z</time></trkpt><trkpt lat="44.54180715896534" lon="10.596564162518176"><ele>351.0</ele><time>2026-04-06T12:41:31Z</time></trkpt><trkpt lat="44.54174099005316" lon="10.596616382815084"><ele>351.0</ele><time>2026-04-06T12:41:32Z</time></trkpt><trkpt lat="44.54167151900801" lon="10.596670199919036"><ele>351.0</ele><time>2026-04-06T12:41:33Z</time></trkpt><trkpt lat="44.541603066113446" lon="10.596716714589128"><ele>351.0</ele><time>2026-04-06T12:41:34Z</time></trkpt><trkpt lat="44.541529646290996" lon="10.59672455819883"><ele>351.0</ele><time>2026-04-06T12:41:35Z</time></trkpt><trkpt lat="44.54142968431161" lon="10.596674432520665"><ele>351.0</ele><time>2026-04-06T12:41:36Z</time></trkpt><trkpt lat="44.541328366233515" lon="10.596675716205961"><ele>351.0</ele><time>2026-04-06T12:41:37Z</time></trkpt><trkpt lat="44.54122687379742" lon="10.596710788500127"><ele>353.75</ele><time>2026-04-06T12:41:38Z</time></trkpt><trkpt lat="44.54112172289478" lon="10.596744865773491"><ele>356.5</ele><time>2026-04-06T12:41:39Z</time></trkpt><trkpt lat="44.54101234740489" lon="10.596788193546136"><ele>359.25</ele><time>2026-04-06T12:41:40Z</time></trkpt><trkpt lat="44.54088556616661" lon="10.596819243576263"><ele>362.0</ele><time>2026-04-06T12:41:41Z</time></trkpt><trkpt lat="44.54075471156687" lon="10.59679525882746"><ele>362.0</ele><time>2026-04-06T12:41:42Z</time></trkpt><trkpt lat="44.54061879611547" lon="10.596756608316744"><ele>362.0</ele><time>2026-04-06T12:41:43Z</time></trkpt><trkpt lat="44.540488703232" lon="10.596686302612563"><ele>362.0</ele><time>2026-04-06T12:41:44Z</time></trkpt><trkpt lat="44.54036643148313" lon="10.59662434987107"><ele>362.0</ele><time>2026-04-06T12:41:45Z</time></trkpt><trkpt lat="44.54022746698327" lon="10.596546492594074"><ele>368.0</ele><time>2026-04-06T12:41:45.999Z</time></trkpt><trkpt lat="44.540084685046786" lon="10.596450209063569"><ele>374.0</ele><time>2026-04-06T12:41:46.999Z</time></trkpt><trkpt lat="44.53993952403568" lon="10.596353138428684"><ele>380.0</ele><time>2026-04-06T12:41:47.999Z</time></trkpt><trkpt lat="44.53978215061904" lon="10.596270891852646"><ele>380.0</ele><time>2026-04-06T12:41:48.999Z</time></trkpt><trkpt lat="44.539619935465765" lon="10.596186780582832"><ele>380.0</ele><time>2026-04-06T12:41:49.999Z</time></trkpt><trkpt lat="44.53945635108059" lon="10.596096521314"><ele>380.0</ele><time>2026-04-06T12:41:50.999Z</time></trkpt><trkpt lat="44.53928038139978" lon="10.596014716178692"><ele>386.0</ele><time>2026-04-06T12:41:51.999Z</time></trkpt><trkpt lat="44.53911264567682" lon="10.595921778706423"><ele>392.0</ele><time>2026-04-06T12:41:52.999Z</time></trkpt><trkpt lat="44.53896364479179" lon="10.595830910414618"><ele>398.0</ele><time>2026-04-06T12:41:53.999Z</time></trkpt><trkpt lat="44.53884648883508" lon="10.595730286078139"><ele>398.0</ele><time>2026-04-06T12:41:54.999Z</time></trkpt><trkpt lat="44.53874665813924" lon="10.595627533911305"><ele>398.0</ele><time>2026-04-06T12:41:55.999Z</time></trkpt><trkpt lat="44.53865456073329" lon="10.595548439072056"><ele>398.0</ele><time>2026-04-06T12:41:56.999Z</time></trkpt><trkpt lat="44.53857016263288" lon="10.595509347104748"><ele>398.0</ele><time>2026-04-06T12:41:57.999Z</time></trkpt><trkpt lat="44.53847532349518" lon="10.595448753768252"><ele>398.0</ele><time>2026-04-06T12:41:58.999Z</time></trkpt><trkpt lat="44.5383916569142" lon="10.595400255764398"><ele>401.0</ele><time>2026-04-06T12:41:59.999Z</time></trkpt><trkpt lat="44.53832248662571" lon="10.595355610922285"><ele>404.0</ele><time>2026-04-06T12:42:00.999Z</time></trkpt><trkpt lat="44.53828069247289" lon="10.595257714131623"><ele>407.0</ele><time>2026-04-06T12:42:02.999Z</time></trkpt><trkpt lat="44.53833137336885" lon="10.595097148321917"><ele>410.0</ele><time>2026-04-06T12:42:04.999Z</time></trkpt><trkpt lat="44.538399955282024" lon="10.595014092666542"><ele>413.0</ele><time>2026-04-06T12:42:05.999Z</time></trkpt><trkpt lat="44.53848899115421" lon="10.594946777691295"><ele>413.0</ele><time>2026-04-06T12:42:06.999Z</time></trkpt><trkpt lat="44.538588599180486" lon="10.594873672753188"><ele>413.0</ele><time>2026-04-06T12:42:07.999Z</time></trkpt><trkpt lat="44.53868877677129" lon="10.5947761980591"><ele>413.0</ele><time>2026-04-06T12:42:08.999Z</time></trkpt><trkpt lat="44.538752207402624" lon="10.594646597957817"><ele>413.0</ele><time>2026-04-06T12:42:09.999Z</time></trkpt><trkpt lat="44.53878256881787" lon="10.594493635166884"><ele>415.5</ele><time>2026-04-06T12:42:10.999Z</time></trkpt><trkpt lat="44.538795867053054" lon="10.59431995879158"><ele>418.0</ele><time>2026-04-06T12:42:11.999Z</time></trkpt><trkpt lat="44.53881399435041" lon="10.594140080874292"><ele>420.5</ele><time>2026-04-06T12:42:12.999Z</time></trkpt><trkpt lat="44.53883258981236" lon="10.593960301334404"><ele>423.0</ele><time>2026-04-06T12:42:13.999Z</time></trkpt><trkpt lat="44.53883574185529" lon="10.593766675409407"><ele>422.75</ele><time>2026-04-06T12:42:14.999Z</time></trkpt><trkpt lat="44.538837772105545" lon="10.593583557429687"><ele>422.5</ele><time>2026-04-06T12:42:15.999Z</time></trkpt><trkpt lat="44.53881484962226" lon="10.59338301744069"><ele>422.25</ele><time>2026-04-06T12:42:16.999Z</time></trkpt><trkpt lat="44.538777816761076" lon="10.593202042081524"><ele>422.0</ele><time>2026-04-06T12:42:17.999Z</time></trkpt><trkpt lat="44.53874212500916" lon="10.593025176606721"><ele>422.0</ele><time>2026-04-06T12:42:18.999Z</time></trkpt><trkpt lat="44.53875450407237" lon="10.592856963152618"><ele>422.0</ele><time>2026-04-06T12:42:19.999Z</time></trkpt><trkpt lat="44.53876569131786" lon="10.592705460088018"><ele>422.0</ele><time>2026-04-06T12:42:20.999Z</time></trkpt><trkpt lat="44.538756125833864" lon="10.592550533129138"><ele>422.0</ele><time>2026-04-06T12:42:21.999Z</time></trkpt><trkpt lat="44.53872728983483" lon="10.592385071546088"><ele>429.75</ele><time>2026-04-06T12:42:22.999Z</time></trkpt><trkpt lat="44.53868995024224" lon="10.592223720241215"><ele>437.5</ele><time>2026-04-06T12:42:23.999Z</time></trkpt><trkpt lat="44.53865491302516" lon="10.592048855007878"><ele>445.25</ele><time>2026-04-06T12:42:24.999Z</time></trkpt><trkpt lat="44.53862299643488" lon="10.591862140185967"><ele>453.0</ele><time>2026-04-06T12:42:25.999Z</time></trkpt><trkpt lat="44.53859942095578" lon="10.591678032575096"><ele>454.75</ele><time>2026-04-06T12:42:26.999Z</time></trkpt><trkpt lat="44.5385770555847" lon="10.591487505925004"><ele>456.5</ele><time>2026-04-06T12:42:27.999Z</time></trkpt><trkpt lat="44.53856782525641" lon="10.59131992513983"><ele>458.25</ele><time>2026-04-06T12:42:28.999Z</time></trkpt><trkpt lat="44.53858012382401" lon="10.591181863093366"><ele>460.0</ele><time>2026-04-06T12:42:29.999Z</time></trkpt><trkpt lat="44.5386212642763" lon="10.591056572291047"><ele>459.6</ele><time>2026-04-06T12:42:30.999Z</time></trkpt><trkpt lat="44.538683171210714" lon="10.590967119276693"><ele>459.2</ele><time>2026-04-06T12:42:31.999Z</time></trkpt><trkpt lat="44.5387624161226" lon="10.590909094472357"><ele>458.79999999999995</ele><time>2026-04-06T12:42:33Z</time></trkpt><trkpt lat="44.53882971958688" lon="10.590862282790857"><ele>458.4</ele><time>2026-04-06T12:42:34Z</time></trkpt><trkpt lat="44.538831241988916" lon="10.590742683100844"><ele>458.0</ele><time>2026-04-06T12:42:36Z</time></trkpt><trkpt lat="44.53871940527049" lon="10.590742473191202"><ele>458.4</ele><time>2026-04-06T12:42:38Z</time></trkpt><trkpt lat="44.538631155995525" lon="10.590795142608512"><ele>458.79999999999995</ele><time>2026-04-06T12:42:39Z</time></trkpt><trkpt lat="44.53853327653992" lon="10.59085982051348"><ele>459.2</ele><time>2026-04-06T12:42:40Z</time></trkpt><trkpt lat="44.538448031443934" lon="10.590933004598858"><ele>459.6</ele><time>2026-04-06T12:42:41Z</time></trkpt><trkpt lat="44.53837603032346" lon="10.59105471003141"><ele>460.0</ele><time>2026-04-06T12:42:42Z</time></trkpt><trkpt lat="44.538329596692414" lon="10.591191564243951"><ele>460.0</ele><time>2026-04-06T12:42:43Z</time></trkpt><trkpt lat="44.53826895179209" lon="10.591306549515195"><ele>460.0</ele><time>2026-04-06T12:42:44Z</time></trkpt><trkpt lat="44.5382039093295" lon="10.591395229034443"><ele>460.0</ele><time>2026-04-06T12:42:45Z</time></trkpt><trkpt lat="44.53812293100876" lon="10.591453428689775"><ele>460.0</ele><time>2026-04-06T12:42:46Z</time></trkpt><trkpt lat="44.538024659107165" lon="10.591488051554704"><ele>460.0</ele><time>2026-04-06T12:42:47Z</time></trkpt><trkpt lat="44.53792289305637" lon="10.591522922605392"><ele>462.4</ele><time>2026-04-06T12:42:48Z</time></trkpt><trkpt lat="44.53781936188292" lon="10.591569362460568"><ele>464.8</ele><time>2026-04-06T12:42:49Z</time></trkpt><trkpt lat="44.53772772105617" lon="10.591645942052745"><ele>467.20000000000005</ele><time>2026-04-06T12:42:50Z</time></trkpt><trkpt lat="44.537649557804166" lon="10.591747081903922"><ele>469.6</ele><time>2026-04-06T12:42:51Z</time></trkpt><trkpt lat="44.53760185328531" lon="10.591899727854608"><ele>472.0</ele><time>2026-04-06T12:42:52Z</time></trkpt><trkpt lat="44.53754867348129" lon="10.59204685641131"><ele>472.0</ele><time>2026-04-06T12:42:53Z</time></trkpt><trkpt lat="44.53749365924063" lon="10.592177003425629"><ele>472.00000000000006</ele><time>2026-04-06T12:42:54Z</time></trkpt><trkpt lat="44.53744122085249" lon="10.592314244124351"><ele>472.00000000000006</ele><time>2026-04-06T12:42:55Z</time></trkpt><trkpt lat="44.5374120345204" lon="10.592466579405407"><ele>472.0</ele><time>2026-04-06T12:42:56Z</time></trkpt><trkpt lat="44.53735317700248" lon="10.592591003620509"><ele>472.0</ele><time>2026-04-06T12:42:57Z</time></trkpt><trkpt lat="44.53731218639935" lon="10.592695408229703"><ele>472.00000000000006</ele><time>2026-04-06T12:42:58Z</time></trkpt><trkpt lat="44.53727821661424" lon="10.59278961610202"><ele>472.0</ele><time>2026-04-06T12:42:59Z</time></trkpt><trkpt lat="44.53721298847048" lon="10.592831937901748"><ele>472.0</ele><time>2026-04-06T12:43:00Z</time></trkpt><trkpt lat="44.53713238769809" lon="10.592794987964712"><ele>472.0</ele><time>2026-04-06T12:43:01Z</time></trkpt><trkpt lat="44.53704018289704" lon="10.592791703293479"><ele>472.00000000000006</ele><time>2026-04-06T12:43:02Z</time></trkpt><trkpt lat="44.53694018827764" lon="10.592772932791672"><ele>472.0</ele><time>2026-04-06T12:43:03Z</time></trkpt><trkpt lat="44.5368495772946" lon="10.592806306693967"><ele>472.40000000000003</ele><time>2026-04-06T12:43:04Z</time></trkpt><trkpt lat="44.536745134491646" lon="10.592835399803077"><ele>472.80000000000007</ele><time>2026-04-06T12:43:05Z</time></trkpt><trkpt lat="44.53665745183227" lon="10.592892757378326"><ele>473.2</ele><time>2026-04-06T12:43:06Z</time></trkpt><trkpt lat="44.53656441132474" lon="10.592942716576202"><ele>473.6</ele><time>2026-04-06T12:43:07Z</time></trkpt><trkpt lat="44.53647954028882" lon="10.59301704698737"><ele>474.0</ele><time>2026-04-06T12:43:08Z</time></trkpt><trkpt lat="44.536395770354865" lon="10.593107346363979"><ele>474.0</ele><time>2026-04-06T12:43:09Z</time></trkpt><trkpt lat="44.53634370696447" lon="10.593223339129855"><ele>474.0</ele><time>2026-04-06T12:43:10Z</time></trkpt><trkpt lat="44.53626281715367" lon="10.593315726927736"><ele>474.0</ele><time>2026-04-06T12:43:11Z</time></trkpt><trkpt lat="44.536175363629546" lon="10.593375767004614"><ele>474.0</ele><time>2026-04-06T12:43:12Z</time></trkpt><trkpt lat="44.53608822628755" lon="10.593464316248195"><ele>474.0</ele><time>2026-04-06T12:43:13Z</time></trkpt><trkpt lat="44.536024512956" lon="10.593580791120106"><ele>475.8333333333333</ele><time>2026-04-06T12:43:14Z</time></trkpt><trkpt lat="44.53594909002711" lon="10.5936377981416"><ele>477.66666666666663</ele><time>2026-04-06T12:43:15Z</time></trkpt><trkpt lat="44.535869763621875" lon="10.593686098375452"><ele>479.5</ele><time>2026-04-06T12:43:16Z</time></trkpt><trkpt lat="44.53577922458899" lon="10.593725794150732"><ele>481.3333333333333</ele><time>2026-04-06T12:43:17Z</time></trkpt><trkpt lat="44.53569463180125" lon="10.593773100333433"><ele>483.16666666666663</ele><time>2026-04-06T12:43:18Z</time></trkpt><trkpt lat="44.535615069015094" lon="10.593825751184804"><ele>485.0</ele><time>2026-04-06T12:43:19Z</time></trkpt><trkpt lat="44.53554754281925" lon="10.593906628949696"><ele>481.3333333333333</ele><time>2026-04-06T12:43:20Z</time></trkpt><trkpt lat="44.53549640238424" lon="10.594008439492146"><ele>477.66666666666663</ele><time>2026-04-06T12:43:21Z</time></trkpt><trkpt lat="44.53545609627356" lon="10.594096290836289"><ele>474.0</ele><time>2026-04-06T12:43:22Z</time></trkpt><trkpt lat="44.53539691161973" lon="10.594212359296705"><ele>470.33333333333337</ele><time>2026-04-06T12:43:24Z</time></trkpt><trkpt lat="44.53531254788984" lon="10.59419348988055"><ele>466.6666666666667</ele><time>2026-04-06T12:43:26Z</time></trkpt><trkpt lat="44.53524058635801" lon="10.594160113488156"><ele>463.0</ele><time>2026-04-06T12:43:28Z</time></trkpt><trkpt lat="44.535198627938456" lon="10.594061516505082"><ele>464.75</ele><time>2026-04-06T12:43:29Z</time></trkpt><trkpt lat="44.535126442274326" lon="10.593944064604356"><ele>466.5</ele><time>2026-04-06T12:43:30Z</time></trkpt><trkpt lat="44.53502458875059" lon="10.593848246474742"><ele>468.25</ele><time>2026-04-06T12:43:31Z</time></trkpt><trkpt lat="44.53490418741969" lon="10.593750793226526"><ele>470.0</ele><time>2026-04-06T12:43:32Z</time></trkpt><trkpt lat="44.53479902634279" lon="10.593638462108098"><ele>470.0</ele><time>2026-04-06T12:43:33Z</time></trkpt><trkpt lat="44.5347121109774" lon="10.593540286605565"><ele>470.0</ele><time>2026-04-06T12:43:34Z</time></trkpt><trkpt lat="44.53465611703598" lon="10.593423050611873"><ele>470.0</ele><time>2026-04-06T12:43:35Z</time></trkpt><trkpt lat="44.53462544678218" lon="10.59328524566998"><ele>470.0</ele><time>2026-04-06T12:43:36Z</time></trkpt><trkpt lat="44.534619514644604" lon="10.593161954839285"><ele>470.0</ele><time>2026-04-06T12:43:37Z</time></trkpt><trkpt lat="44.53463903003141" lon="10.593048700582752"><ele>470.0</ele><time>2026-04-06T12:43:38Z</time></trkpt><trkpt lat="44.53463992178465" lon="10.59291508602286"><ele>470.0</ele><time>2026-04-06T12:43:39Z</time></trkpt><trkpt lat="44.53462314243424" lon="10.592750927599097"><ele>470.0</ele><time>2026-04-06T12:43:40Z</time></trkpt><trkpt lat="44.53463388943179" lon="10.592570613393066"><ele>470.0</ele><time>2026-04-06T12:43:41Z</time></trkpt><trkpt lat="44.53466039882409" lon="10.592381867708555"><ele>469.16666666666663</ele><time>2026-04-06T12:43:42Z</time></trkpt><trkpt lat="44.534660063036064" lon="10.592241306227011"><ele>468.3333333333333</ele><time>2026-04-06T12:43:43Z</time></trkpt><trkpt lat="44.53463357633735" lon="10.59215178133606"><ele>467.5</ele><time>2026-04-06T12:43:44Z</time></trkpt><trkpt lat="44.53459926651401" lon="10.59205849444125"><ele>466.66666666666663</ele><time>2026-04-06T12:43:45Z</time></trkpt><trkpt lat="44.53453823110416" lon="10.591981221492963"><ele>465.8333333333333</ele><time>2026-04-06T12:43:46Z</time></trkpt><trkpt lat="44.53442547272798" lon="10.591924647183436"><ele>465.0</ele><time>2026-04-06T12:43:47Z</time></trkpt><trkpt lat="44.534306230535066" lon="10.591864274173934"><ele>465.0</ele><time>2026-04-06T12:43:48Z</time></trkpt><trkpt lat="44.53419843615955" lon="10.591805130894032"><ele>465.0</ele><time>2026-04-06T12:43:49Z</time></trkpt><trkpt lat="44.53412296986397" lon="10.591777319033548"><ele>465.0</ele><time>2026-04-06T12:43:50Z</time></trkpt><trkpt lat="44.534086139071384" lon="10.59167892665075"><ele>465.0</ele><time>2026-04-06T12:43:51Z</time></trkpt><trkpt lat="44.53404736527911" lon="10.591600732102211"><ele>465.0</ele><time>2026-04-06T12:43:52Z</time></trkpt><trkpt lat="44.53397113556956" lon="10.5915819442195"><ele>465.0</ele><time>2026-04-06T12:43:53Z</time></trkpt><trkpt lat="44.53388880846975" lon="10.59160667337171"><ele>465.0</ele><time>2026-04-06T12:43:54Z</time></trkpt><trkpt lat="44.53380431471156" lon="10.591676870372382"><ele>465.0</ele><time>2026-04-06T12:43:55Z</time></trkpt><trkpt lat="44.53370599315529" lon="10.591789187619291"><ele>465.0</ele><time>2026-04-06T12:43:56Z</time></trkpt><trkpt lat="44.533615022302705" lon="10.59182742687079"><ele>465.0</ele><time>2026-04-06T12:43:57Z</time></trkpt><trkpt lat="44.53349532649523" lon="10.591739326065122"><ele>463.4</ele><time>2026-04-06T12:43:59Z</time></trkpt><trkpt lat="44.533425163786646" lon="10.591626482946303"><ele>461.8</ele><time>2026-04-06T12:44:00Z</time></trkpt><trkpt lat="44.533373438146576" lon="10.591562907403475"><ele>460.20000000000005</ele><time>2026-04-06T12:44:01Z</time></trkpt><trkpt lat="44.53322431624249" lon="10.591601626413164"><ele>458.6</ele><time>2026-04-06T12:44:03Z</time></trkpt><trkpt lat="44.53311166967876" lon="10.591667203463727"><ele>457.0</ele><time>2026-04-06T12:44:04Z</time></trkpt><trkpt lat="44.532990751788866" lon="10.591704429757538"><ele>456.25</ele><time>2026-04-06T12:44:05Z</time></trkpt><trkpt lat="44.53285389657963" lon="10.591794571522103"><ele>455.5</ele><time>2026-04-06T12:44:06Z</time></trkpt><trkpt lat="44.5327303598422" lon="10.591864987209163"><ele>454.75</ele><time>2026-04-06T12:44:07Z</time></trkpt><trkpt lat="44.53261722929552" lon="10.59188929686862"><ele>454.0</ele><time>2026-04-06T12:44:09Z</time></trkpt><trkpt lat="44.532555594680325" lon="10.591817947881582"><ele>454.00000000000006</ele><time>2026-04-06T12:44:10Z</time></trkpt><trkpt lat="44.53248056658108" lon="10.591709597970683"><ele>454.0</ele><time>2026-04-06T12:44:11Z</time></trkpt><trkpt lat="44.532397071441665" lon="10.59159674155092"><ele>454.0</ele><time>2026-04-06T12:44:11.999Z</time></trkpt><trkpt lat="44.53232935136143" lon="10.5915149498762"><ele>454.0</ele><time>2026-04-06T12:44:12.999Z</time></trkpt><trkpt lat="44.53226659585735" lon="10.591505858429882"><ele>454.00000000000006</ele><time>2026-04-06T12:44:13.999Z</time></trkpt><trkpt lat="44.532198400801576" lon="10.591538750144638"><ele>454.0</ele><time>2026-04-06T12:44:14.999Z</time></trkpt><trkpt lat="44.53211222024164" lon="10.591596169819638"><ele>452.4</ele><time>2026-04-06T12:44:15.999Z</time></trkpt><trkpt lat="44.53199317928421" lon="10.59162925138825"><ele>450.79999999999995</ele><time>2026-04-06T12:44:16.999Z</time></trkpt><trkpt lat="44.53189286330182" lon="10.59162681353348"><ele>449.20000000000005</ele><time>2026-04-06T12:44:17.999Z</time></trkpt><trkpt lat="44.53181284235322" lon="10.591614131175808"><ele>447.6</ele><time>2026-04-06T12:44:18.999Z</time></trkpt><trkpt lat="44.53170951217412" lon="10.591602355570428"><ele>446.0</ele><time>2026-04-06T12:44:19.999Z</time></trkpt><trkpt lat="44.5316145888056" lon="10.591597454824138"><ele>446.0</ele><time>2026-04-06T12:44:20.999Z</time></trkpt><trkpt lat="44.531506622528084" lon="10.591622164099759"><ele>446.0</ele><time>2026-04-06T12:44:21.999Z</time></trkpt><trkpt lat="44.531415826815504" lon="10.59167389785706"><ele>446.0</ele><time>2026-04-06T12:44:22.999Z</time></trkpt><trkpt lat="44.53133558736056" lon="10.591736797898884"><ele>446.0</ele><time>2026-04-06T12:44:23.999Z</time></trkpt><trkpt lat="44.531254571833315" lon="10.591768623395827"><ele>446.0</ele><time>2026-04-06T12:44:24.999Z</time></trkpt><trkpt lat="44.53118985117781" lon="10.591748225491221"><ele>443.20000000000005</ele><time>2026-04-06T12:44:25.999Z</time></trkpt><trkpt lat="44.53109008586233" lon="10.591637710407296"><ele>440.40000000000003</ele><time>2026-04-06T12:44:27.999Z</time></trkpt><trkpt lat="44.531070605236145" lon="10.591519793245691"><ele>437.6</ele><time>2026-04-06T12:44:28.999Z</time></trkpt><trkpt lat="44.5310327172064" lon="10.591379788703811"><ele>434.8</ele><time>2026-04-06T12:44:29.999Z</time></trkpt><trkpt lat="44.53099931400952" lon="10.591232309525203"><ele>432.0</ele><time>2026-04-06T12:44:30.999Z</time></trkpt><trkpt lat="44.530962351734786" lon="10.59108620207977"><ele>432.0</ele><time>2026-04-06T12:44:31.999Z</time></trkpt><trkpt lat="44.53093670796927" lon="10.590984285773493"><ele>432.00000000000006</ele><time>2026-04-06T12:44:32.999Z</time></trkpt><trkpt lat="44.53096903388301" lon="10.590900468743763"><ele>432.00000000000006</ele><time>2026-04-06T12:44:33.999Z</time></trkpt><trkpt lat="44.531015885532696" lon="10.590808079404013"><ele>432.0</ele><time>2026-04-06T12:44:34.999Z</time></trkpt><trkpt lat="44.53108983755571" lon="10.590683924524072"><ele>432.0</ele><time>2026-04-06T12:44:35.999Z</time></trkpt><trkpt lat="44.53115101269699" lon="10.590540747882145"><ele>432.0</ele><time>2026-04-06T12:44:36.999Z</time></trkpt><trkpt lat="44.53119947464654" lon="10.590396740221758"><ele>432.00000000000006</ele><time>2026-04-06T12:44:37.999Z</time></trkpt><trkpt lat="44.53124450260598" lon="10.590257508193865"><ele>432.00000000000006</ele><time>2026-04-06T12:44:39Z</time></trkpt><trkpt lat="44.53130313719195" lon="10.590139070892079"><ele>432.0</ele><time>2026-04-06T12:44:40Z</time></trkpt><trkpt lat="44.5313838945053" lon="10.590049952550263"><ele>432.0</ele><time>2026-04-06T12:44:41Z</time></trkpt><trkpt lat="44.53147964170383" lon="10.589992898401295"><ele>432.8</ele><time>2026-04-06T12:44:42Z</time></trkpt><trkpt lat="44.5315511796722" lon="10.589937554710229"><ele>433.6</ele><time>2026-04-06T12:44:43Z</time></trkpt><trkpt lat="44.531596888238724" lon="10.589836204262769"><ele>434.40000000000003</ele><time>2026-04-06T12:44:44Z</time></trkpt><trkpt lat="44.531633908960885" lon="10.58973292977278"><ele>435.20000000000005</ele><time>2026-04-06T12:44:45Z</time></trkpt><trkpt lat="44.53165920515632" lon="10.589552115685267"><ele>436.0</ele><time>2026-04-06T12:44:47Z</time></trkpt><trkpt lat="44.53156117857288" lon="10.589431370687118"><ele>436.0</ele><time>2026-04-06T12:44:49Z</time></trkpt><trkpt lat="44.53149334955162" lon="10.589329077923242"><ele>436.0</ele><time>2026-04-06T12:44:50Z</time></trkpt><trkpt lat="44.531412904160305" lon="10.589153246810898"><ele>436.0</ele><time>2026-04-06T12:44:51Z</time></trkpt><trkpt lat="44.531295251599055" lon="10.58896800157456"><ele>436.0</ele><time>2026-04-06T12:44:52Z</time></trkpt><trkpt lat="44.53121246866766" lon="10.588825472834474"><ele>429.20000000000005</ele><time>2026-04-06T12:44:53Z</time></trkpt><trkpt lat="44.531142119825155" lon="10.588706927607916"><ele>422.40000000000003</ele><time>2026-04-06T12:44:54Z</time></trkpt><trkpt lat="44.531079597564506" lon="10.588613857832517"><ele>415.6</ele><time>2026-04-06T12:44:55Z</time></trkpt><trkpt lat="44.53100439359002" lon="10.588549664831701"><ele>408.8</ele><time>2026-04-06T12:44:56Z</time></trkpt><trkpt lat="44.530913142766096" lon="10.58846416035388"><ele>402.0</ele><time>2026-04-06T12:44:57Z</time></trkpt><trkpt lat="44.530858299074175" lon="10.588385400161851"><ele>402.0</ele><time>2026-04-06T12:44:58Z</time></trkpt><trkpt lat="44.53080301112361" lon="10.588318197352327"><ele>402.0</ele><time>2026-04-06T12:44:59Z</time></trkpt><trkpt lat="44.53075675389315" lon="10.58825658865063"><ele>402.0</ele><time>2026-04-06T12:45:00Z</time></trkpt><trkpt lat="44.53072955988038" lon="10.588164627944899"><ele>402.0</ele><time>2026-04-06T12:45:01Z</time></trkpt><trkpt lat="44.53073336902555" lon="10.5880351907749"><ele>402.0</ele><time>2026-04-06T12:45:02Z</time></trkpt><trkpt lat="44.530747290361965" lon="10.587888797476717"><ele>402.0</ele><time>2026-04-06T12:45:03Z</time></trkpt><trkpt lat="44.530770722361424" lon="10.587744670554082"><ele>401.0</ele><time>2026-04-06T12:45:04Z</time></trkpt><trkpt lat="44.53079797433247" lon="10.587605877144657"><ele>400.0</ele><time>2026-04-06T12:45:05Z</time></trkpt><trkpt lat="44.53083016619266" lon="10.58745796794706"><ele>399.0</ele><time>2026-04-06T12:45:06Z</time></trkpt><trkpt lat="44.53085658099391" lon="10.58730399294297"><ele>398.0</ele><time>2026-04-06T12:45:07Z</time></trkpt><trkpt lat="44.53087874073889" lon="10.587150655765052"><ele>397.0</ele><time>2026-04-06T12:45:08Z</time></trkpt><trkpt lat="44.5308976194614" lon="10.587009800346037"><ele>394.6</ele><time>2026-04-06T12:45:09Z</time></trkpt><trkpt lat="44.53092730398315" lon="10.586874395292725"><ele>392.20000000000005</ele><time>2026-04-06T12:45:10Z</time></trkpt><trkpt lat="44.53096362451994" lon="10.586751779824334"><ele>389.8</ele><time>2026-04-06T12:45:11Z</time></trkpt><trkpt lat="44.531013280197996" lon="10.586631515561303"><ele>387.4</ele><time>2026-04-06T12:45:12Z</time></trkpt><trkpt lat="44.5310389252524" lon="10.586523507979337"><ele>385.0</ele><time>2026-04-06T12:45:13Z</time></trkpt><trkpt lat="44.53104258489966" lon="10.586413734615574"><ele>385.00000000000006</ele><time>2026-04-06T12:45:14Z</time></trkpt><trkpt lat="44.53103754866277" lon="10.586310341956061"><ele>385.0</ele><time>2026-04-06T12:45:15Z</time></trkpt><trkpt lat="44.531098764907775" lon="10.586186570399002"><ele>385.0</ele><time>2026-04-06T12:45:17Z</time></trkpt><trkpt lat="44.531221093865106" lon="10.586147758706584"><ele>385.0</ele><time>2026-04-06T12:45:19Z</time></trkpt><trkpt lat="44.531295253957374" lon="10.58614913011898"><ele>385.00000000000006</ele><time>2026-04-06T12:45:20Z</time></trkpt><trkpt lat="44.53135721082346" lon="10.586170757498632"><ele>385.0</ele><time>2026-04-06T12:45:21Z</time></trkpt><trkpt lat="44.53143254860155" lon="10.586205192146986"><ele>387.6666666666667</ele><time>2026-04-06T12:45:22Z</time></trkpt><trkpt lat="44.53150638391476" lon="10.586260916124012"><ele>390.33333333333337</ele><time>2026-04-06T12:45:23Z</time></trkpt><trkpt lat="44.53158996903236" lon="10.586287236679969"><ele>393.0</ele><time>2026-04-06T12:45:24Z</time></trkpt><trkpt lat="44.53166103835826" lon="10.58633054191419"><ele>395.66666666666663</ele><time>2026-04-06T12:45:25Z</time></trkpt><trkpt lat="44.53174732613199" lon="10.586401556613191"><ele>398.3333333333333</ele><time>2026-04-06T12:45:26Z</time></trkpt><trkpt lat="44.53180483255775" lon="10.586459185541258"><ele>401.0</ele><time>2026-04-06T12:45:27Z</time></trkpt><trkpt lat="44.53191680880423" lon="10.586532178395142"><ele>401.0</ele><time>2026-04-06T12:45:29Z</time></trkpt><trkpt lat="44.53198263818318" lon="10.58653158566858"><ele>401.0</ele><time>2026-04-06T12:45:30Z</time></trkpt><trkpt lat="44.532051000769464" lon="10.586519268203048"><ele>401.0</ele><time>2026-04-06T12:45:31Z</time></trkpt><trkpt lat="44.53212957258885" lon="10.586483856081593"><ele>401.0</ele><time>2026-04-06T12:45:32Z</time></trkpt><trkpt lat="44.53219404284431" lon="10.586491545162698"><ele>401.0</ele><time>2026-04-06T12:45:33Z</time></trkpt><trkpt lat="44.53226679699286" lon="10.586465709140006"><ele>401.0</ele><time>2026-04-06T12:45:35Z</time></trkpt><trkpt lat="44.53225935184759" lon="10.586368211145375"><ele>401.0</ele><time>2026-04-06T12:45:36Z</time></trkpt><trkpt lat="44.532254061296236" lon="10.586253744841725"><ele>402.3333333333333</ele><time>2026-04-06T12:45:37Z</time></trkpt><trkpt lat="44.53224584886008" lon="10.58614241353222"><ele>403.66666666666663</ele><time>2026-04-06T12:45:38Z</time></trkpt><trkpt lat="44.532258765590825" lon="10.586039024109255"><ele>405.0</ele><time>2026-04-06T12:45:39Z</time></trkpt><trkpt lat="44.532275397756024" lon="10.58592712781509"><ele>406.33333333333337</ele><time>2026-04-06T12:45:40Z</time></trkpt><trkpt lat="44.53227926533831" lon="10.585814243635491"><ele>407.6666666666667</ele><time>2026-04-06T12:45:41Z</time></trkpt><trkpt lat="44.53228757668989" lon="10.585705662369879"><ele>409.0</ele><time>2026-04-06T12:45:42Z</time></trkpt><trkpt lat="44.53229633591902" lon="10.585602517883395"><ele>409.0</ele><time>2026-04-06T12:45:43Z</time></trkpt><trkpt lat="44.532306358577436" lon="10.585451711467913"><ele>409.0</ele><time>2026-04-06T12:45:45Z</time></trkpt><trkpt lat="44.53223699981335" lon="10.585340203958888"><ele>409.0</ele><time>2026-04-06T12:45:47Z</time></trkpt><trkpt lat="44.53212979013756" lon="10.585344286805155"><ele>409.0</ele><time>2026-04-06T12:45:49Z</time></trkpt><trkpt lat="44.532059302522896" lon="10.585313271771629"><ele>409.0</ele><time>2026-04-06T12:45:51Z</time></trkpt><trkpt lat="44.531990947374496" lon="10.585268561758378"><ele>403.6666666666667</ele><time>2026-04-06T12:45:55Z</time></trkpt><trkpt lat="44.53193110896974" lon="10.58518476598625"><ele>398.33333333333337</ele><time>2026-04-06T12:45:57Z</time></trkpt><trkpt lat="44.5318928877383" lon="10.585114356284969"><ele>393.0</ele><time>2026-04-06T12:45:58Z</time></trkpt><trkpt lat="44.531837802892596" lon="10.585000508894833"><ele>387.6666666666667</ele><time>2026-04-06T12:46:00Z</time></trkpt><trkpt lat="44.53175908645072" lon="10.584893487803408"><ele>382.33333333333337</ele><time>2026-04-06T12:46:02Z</time></trkpt><trkpt lat="44.53171239884423" lon="10.584799563638363"><ele>377.0</ele><time>2026-04-06T12:46:03Z</time></trkpt><trkpt lat="44.53167559222706" lon="10.584724110779849"><ele>377.0</ele><time>2026-04-06T12:46:04Z</time></trkpt><trkpt lat="44.53159443830626" lon="10.584571695416807"><ele>377.0</ele><time>2026-04-06T12:46:06Z</time></trkpt><trkpt lat="44.531565853087166" lon="10.58447221834099"><ele>377.0</ele><time>2026-04-06T12:46:07Z</time></trkpt><trkpt lat="44.53151954273709" lon="10.584389927245137"><ele>377.0</ele><time>2026-04-06T12:46:08Z</time></trkpt><trkpt lat="44.531472750377496" lon="10.58431676290335"><ele>377.0</ele><time>2026-04-06T12:46:09Z</time></trkpt><trkpt lat="44.53143428806773" lon="10.584241939085809"><ele>377.0</ele><time>2026-04-06T12:46:10Z</time></trkpt><trkpt lat="44.531397018088136" lon="10.584168444345414"><ele>375.8</ele><time>2026-04-06T12:46:11Z</time></trkpt><trkpt lat="44.531355417822596" lon="10.584029971223112"><ele>374.6</ele><time>2026-04-06T12:46:13Z</time></trkpt><trkpt lat="44.531338730558744" lon="10.583904847028345"><ele>373.40000000000003</ele><time>2026-04-06T12:46:15Z</time></trkpt><trkpt lat="44.53136969282876" lon="10.583811700428399"><ele>372.20000000000005</ele><time>2026-04-06T12:46:17Z</time></trkpt><trkpt lat="44.53143412237805" lon="10.583732272375748"><ele>371.0</ele><time>2026-04-06T12:46:21.999Z</time></trkpt><trkpt lat="44.53153778009488" lon="10.58361052470459"><ele>371.0</ele><time>2026-04-06T12:46:24.999Z</time></trkpt><trkpt lat="44.531613170286896" lon="10.583488540054521"><ele>371.0</ele><time>2026-04-06T12:46:27.999Z</time></trkpt><trkpt lat="44.53175020069105" lon="10.583390679798796"><ele>371.0</ele><time>2026-04-06T12:46:28.999Z</time></trkpt><trkpt lat="44.53183750643194" lon="10.58334711625425"><ele>371.0</ele><time>2026-04-06T12:46:30.999Z</time></trkpt><trkpt lat="44.53189603043427" lon="10.583286517459511"><ele>371.0</ele><time>2026-04-06T12:46:32.999Z</time></trkpt><trkpt lat="44.53197093714149" lon="10.583224924959842"><ele>371.0</ele><time>2026-04-06T12:46:34.999Z</time></trkpt><trkpt lat="44.53204881388684" lon="10.58318313951825"><ele>371.0</ele><time>2026-04-06T12:46:36.999Z</time></trkpt><trkpt lat="44.532146281869835" lon="10.583170551758728"><ele>371.0</ele><time>2026-04-06T12:46:38.999Z</time></trkpt><trkpt lat="44.53223403050918" lon="10.58311973230204"><ele>371.0</ele><time>2026-04-06T12:46:40.999Z</time></trkpt><trkpt lat="44.53231307351614" lon="10.583076973135414"><ele>371.0</ele><time>2026-04-06T12:46:42.999Z</time></trkpt><trkpt lat="44.532395264826036" lon="10.583005947057714"><ele>373.0</ele><time>2026-04-06T12:46:45Z</time></trkpt><trkpt lat="44.53248485298319" lon="10.582931671203733"><ele>375.0</ele><time>2026-04-06T12:46:47Z</time></trkpt><trkpt lat="44.53247198341508" lon="10.582835518869157"><ele>377.0</ele><time>2026-04-06T12:46:48Z</time></trkpt><trkpt lat="44.53234251284386" lon="10.582801281944045"><ele>379.0</ele><time>2026-04-06T12:46:51Z</time></trkpt><trkpt lat="44.53232860112792" lon="10.582702193535281"><ele>381.0</ele><time>2026-04-06T12:46:53Z</time></trkpt><trkpt lat="44.532292889542354" lon="10.582589518203282"><ele>381.0</ele><time>2026-04-06T12:47:01Z</time></trkpt><trkpt lat="44.53228188752046" lon="10.582502222296258"><ele>381.0</ele><time>2026-04-06T12:47:04Z</time></trkpt><trkpt lat="44.53221300939978" lon="10.58248611298181"><ele>381.0</ele><time>2026-04-06T12:47:11Z</time></trkpt><trkpt lat="44.53213628415649" lon="10.582518825915594"><ele>381.0</ele><time>2026-04-06T12:47:14Z</time></trkpt><trkpt lat="44.53205018753268" lon="10.582472547472998"><ele>381.0</ele><time>2026-04-06T12:47:27Z</time></trkpt><trkpt lat="44.53196863399663" lon="10.582484537429925"><ele>381.0</ele><time>2026-04-06T12:47:34Z</time></trkpt><trkpt lat="44.531890804329535" lon="10.582476739428175"><ele>378.0</ele><time>2026-04-06T12:47:36Z</time></trkpt><trkpt lat="44.531790952206265" lon="10.58251537906297"><ele>375.0</ele><time>2026-04-06T12:47:38Z</time></trkpt><trkpt lat="44.531728284669995" lon="10.582564861358424"><ele>372.0</ele><time>2026-04-06T12:47:41Z</time></trkpt><trkpt lat="44.531681527830834" lon="10.582633263052598"><ele>369.0</ele><time>2026-04-06T12:47:43Z</time></trkpt><trkpt lat="44.53148811099021" lon="10.582744869355722"><ele>369.0</ele><time>2026-04-06T12:47:44Z</time></trkpt><trkpt lat="44.53139212388845" lon="10.582811219989916"><ele>369.0</ele><time>2026-04-06T12:47:46Z</time></trkpt><trkpt lat="44.53129480026741" lon="10.58279531421372"><ele>369.0</ele><time>2026-04-06T12:47:48Z</time></trkpt><trkpt lat="44.53120519764434" lon="10.582796445683464"><ele>369.0</ele><time>2026-04-06T12:47:50Z</time></trkpt><trkpt lat="44.531137832333826" lon="10.582881487378208"><ele>369.0</ele><time>2026-04-06T12:47:52Z</time></trkpt><trkpt lat="44.53108576650547" lon="10.583003905561622"><ele>367.1666666666667</ele><time>2026-04-06T12:47:54Z</time></trkpt><trkpt lat="44.53099873173724" lon="10.583063530764477"><ele>365.3333333333333</ele><time>2026-04-06T12:47:56Z</time></trkpt><trkpt lat="44.53093216264757" lon="10.583047664459626"><ele>363.5</ele><time>2026-04-06T12:47:57Z</time></trkpt><trkpt lat="44.530857117834444" lon="10.582988999929636"><ele>361.66666666666663</ele><time>2026-04-06T12:47:58Z</time></trkpt><trkpt lat="44.53075737459415" lon="10.582915605580109"><ele>359.8333333333333</ele><time>2026-04-06T12:47:59Z</time></trkpt><trkpt lat="44.53068337052012" lon="10.582860196347953"><ele>358.0</ele><time>2026-04-06T12:48:00Z</time></trkpt><trkpt lat="44.53062468961209" lon="10.582828216391325"><ele>358.0</ele><time>2026-04-06T12:48:01Z</time></trkpt><trkpt lat="44.53056265268574" lon="10.582812341029893"><ele>358.0</ele><time>2026-04-06T12:48:02Z</time></trkpt><trkpt lat="44.53049441952477" lon="10.582815625650712"><ele>358.0</ele><time>2026-04-06T12:48:04Z</time></trkpt><trkpt lat="44.53037424248808" lon="10.582771789437409"><ele>358.0</ele><time>2026-04-06T12:48:08Z</time></trkpt><trkpt lat="44.53028046153727" lon="10.58277892606217"><ele>358.0</ele><time>2026-04-06T12:48:09Z</time></trkpt><trkpt lat="44.53018461011988" lon="10.582785951160513"><ele>358.0</ele><time>2026-04-06T12:48:11Z</time></trkpt><trkpt lat="44.5301137086037" lon="10.582789684491292"><ele>354.59999999999997</ele><time>2026-04-06T12:48:13Z</time></trkpt><trkpt lat="44.53003612481407" lon="10.582783982629273"><ele>351.2</ele><time>2026-04-06T12:48:16Z</time></trkpt><trkpt lat="44.529921686268935" lon="10.582761604263885"><ele>347.8</ele><time>2026-04-06T12:48:18Z</time></trkpt><trkpt lat="44.529836419888554" lon="10.582711873896471"><ele>344.4</ele><time>2026-04-06T12:48:20Z</time></trkpt><trkpt lat="44.5297279949266" lon="10.58270598207105"><ele>341.0</ele><time>2026-04-06T12:48:22Z</time></trkpt><trkpt lat="44.529526084324665" lon="10.582630823286943"><ele>338.33333333333337</ele><time>2026-04-06T12:48:23Z</time></trkpt><trkpt lat="44.52946149870829" lon="10.58260062190233"><ele>335.6666666666667</ele><time>2026-04-06T12:48:24Z</time></trkpt><trkpt lat="44.529346290498914" lon="10.582516482188652"><ele>333.0</ele><time>2026-04-06T12:48:26Z</time></trkpt><trkpt lat="44.529272425709195" lon="10.582468040014339"><ele>330.3333333333333</ele><time>2026-04-06T12:48:28Z</time></trkpt><trkpt lat="44.529209238616865" lon="10.582529755537623"><ele>327.66666666666663</ele><time>2026-04-06T12:48:32Z</time></trkpt><trkpt lat="44.52923513205815" lon="10.582614646810725"><ele>325.0</ele><time>2026-04-06T12:48:33Z</time></trkpt><trkpt lat="44.52928223714698" lon="10.582706172444"><ele>325.0</ele><time>2026-04-06T12:48:34Z</time></trkpt><trkpt lat="44.52932719561852" lon="10.5827695458153"><ele>325.0</ele><time>2026-04-06T12:48:35Z</time></trkpt><trkpt lat="44.5294032340737" lon="10.582895282304285"><ele>325.0</ele><time>2026-04-06T12:48:37Z</time></trkpt><trkpt lat="44.529447190197004" lon="10.582968197189462"><ele>325.0</ele><time>2026-04-06T12:48:38Z</time></trkpt><trkpt lat="44.529505477950266" lon="10.58307205076401"><ele>325.0</ele><time>2026-04-06T12:48:40Z</time></trkpt><trkpt lat="44.5294589656787" lon="10.58317976206845"><ele>325.0</ele><time>2026-04-06T12:48:45.999Z</time></trkpt><trkpt lat="44.52939558705178" lon="10.583232320690636"><ele>325.16666666666663</ele><time>2026-04-06T12:48:52Z</time></trkpt><trkpt lat="44.529370141062785" lon="10.5833185440661"><ele>325.3333333333333</ele><time>2026-04-06T12:48:55Z</time></trkpt><trkpt lat="44.52934902460418" lon="10.583421618658068"><ele>325.5</ele><time>2026-04-06T12:48:57Z</time></trkpt><trkpt lat="44.529299949996" lon="10.583495199264526"><ele>325.6666666666667</ele><time>2026-04-06T12:48:58Z</time></trkpt><trkpt lat="44.529256838371104" lon="10.583568008099858"><ele>325.83333333333337</ele><time>2026-04-06T12:49:01Z</time></trkpt><trkpt lat="44.52921079766354" lon="10.583632298841195"><ele>326.0</ele><time>2026-04-06T12:49:04Z</time></trkpt><trkpt lat="44.529104423179014" lon="10.583751701337494"><ele>326.0</ele><time>2026-04-06T12:49:06Z</time></trkpt><trkpt lat="44.52907019483292" lon="10.583666734798285"><ele>326.0</ele><time>2026-04-06T12:49:09Z</time></trkpt><trkpt lat="44.529030719241966" lon="10.583584491294209"><ele>326.0</ele><time>2026-04-06T12:49:10Z</time></trkpt><trkpt lat="44.528989002537664" lon="10.583495213485087"><ele>326.0</ele><time>2026-04-06T12:49:11Z</time></trkpt><trkpt lat="44.52895762704369" lon="10.583391643678091"><ele>326.0</ele><time>2026-04-06T12:49:12Z</time></trkpt><trkpt lat="44.528884322149395" lon="10.583287629867234"><ele>326.0</ele><time>2026-04-06T12:49:14Z</time></trkpt><trkpt lat="44.52878743068706" lon="10.583307979789526"><ele>326.0</ele><time>2026-04-06T12:49:16Z</time></trkpt><trkpt lat="44.528740435330114" lon="10.583370361655984"><ele>326.0</ele><time>2026-04-06T12:49:17Z</time></trkpt><trkpt lat="44.528674860455126" lon="10.583419840354555"><ele>326.0</ele><time>2026-04-06T12:49:18Z</time></trkpt><trkpt lat="44.52858940747798" lon="10.5834658411769"><ele>326.0</ele><time>2026-04-06T12:49:19Z</time></trkpt><trkpt lat="44.528511943781034" lon="10.583545562564806"><ele>326.0</ele><time>2026-04-06T12:49:20Z</time></trkpt><trkpt lat="44.528458841191245" lon="10.583484078873186"><ele>326.0</ele><time>2026-04-06T12:49:23Z</time></trkpt><trkpt lat="44.528456543045294" lon="10.583374543546574"><ele>336.4</ele><time>2026-04-06T12:49:25Z</time></trkpt><trkpt lat="44.52843202668144" lon="10.5832353056301"><ele>346.8</ele><time>2026-04-06T12:49:27Z</time></trkpt><trkpt lat="44.52834792257907" lon="10.58317918203803"><ele>357.2</ele><time>2026-04-06T12:49:28Z</time></trkpt><trkpt lat="44.52827147381306" lon="10.583210041992773"><ele>367.59999999999997</ele><time>2026-04-06T12:49:31Z</time></trkpt><trkpt lat="44.5282466554258" lon="10.583319733507619"><ele>378.0</ele><time>2026-04-06T12:49:33Z</time></trkpt><trkpt lat="44.52823383568782" lon="10.583465526831924"><ele>378.0</ele><time>2026-04-06T12:49:35Z</time></trkpt><trkpt lat="44.52822272937303" lon="10.583576685818493"><ele>378.0</ele><time>2026-04-06T12:49:36Z</time></trkpt><trkpt lat="44.528208148199546" lon="10.583672374374473"><ele>378.0</ele><time>2026-04-06T12:49:37Z</time></trkpt><trkpt lat="44.52821243900491" lon="10.583764978005002"><ele>378.0</ele><time>2026-04-06T12:49:38Z</time></trkpt><trkpt lat="44.52821251676896" lon="10.58389425244463"><ele>378.0</ele><time>2026-04-06T12:49:39Z</time></trkpt><trkpt lat="44.52819340917563" lon="10.583988240229752"><ele>378.0</ele><time>2026-04-06T12:49:40Z</time></trkpt><trkpt lat="44.52815546895065" lon="10.584081067185537"><ele>376.4</ele><time>2026-04-06T12:49:41Z</time></trkpt><trkpt lat="44.52810374673272" lon="10.584138949327798"><ele>374.79999999999995</ele><time>2026-04-06T12:49:42Z</time></trkpt><trkpt lat="44.528037107744964" lon="10.584207979020325"><ele>373.2</ele><time>2026-04-06T12:49:44Z</time></trkpt><trkpt lat="44.52793137981917" lon="10.584223295430121"><ele>371.6</ele><time>2026-04-06T12:49:46Z</time></trkpt><trkpt lat="44.52785516321998" lon="10.584103775117692"><ele>370.0</ele><time>2026-04-06T12:49:48Z</time></trkpt><trkpt lat="44.52782617814505" lon="10.583978033244152"><ele>377.16666666666663</ele><time>2026-04-06T12:49:50Z</time></trkpt><trkpt lat="44.527790412740046" lon="10.583893881667294"><ele>384.3333333333333</ele><time>2026-04-06T12:49:52Z</time></trkpt><trkpt lat="44.527767161519215" lon="10.583795862810694"><ele>391.5</ele><time>2026-04-06T12:49:54Z</time></trkpt><trkpt lat="44.527719400203026" lon="10.583698344226066"><ele>398.66666666666663</ele><time>2026-04-06T12:49:57Z</time></trkpt><trkpt lat="44.527703562692835" lon="10.583556507314462"><ele>405.8333333333333</ele><time>2026-04-06T12:49:59Z</time></trkpt><trkpt lat="44.52768268662158" lon="10.58347138257669"><ele>413.0</ele><time>2026-04-06T12:50:00Z</time></trkpt><trkpt lat="44.527671559522005" lon="10.58337134830119"><ele>413.49999999999994</ele><time>2026-04-06T12:50:01Z</time></trkpt><trkpt lat="44.52766880166896" lon="10.583261756444209"><ele>414.0</ele><time>2026-04-06T12:50:03Z</time></trkpt><trkpt lat="44.527666646228" lon="10.583153888586933"><ele>414.5</ele><time>2026-04-06T12:50:07Z</time></trkpt><trkpt lat="44.52763199740145" lon="10.583068213216148"><ele>415.0</ele><time>2026-04-06T12:50:09Z</time></trkpt><trkpt lat="44.527581453989264" lon="10.583007690549428"><ele>415.49999999999994</ele><time>2026-04-06T12:50:11Z</time></trkpt><trkpt lat="44.52744591070725" lon="10.582897354866759"><ele>416.0</ele><time>2026-04-06T12:50:13Z</time></trkpt><trkpt lat="44.527405816393916" lon="10.58298930571395"><ele>415.99999999999994</ele><time>2026-04-06T12:50:14Z</time></trkpt><trkpt lat="44.52737467399788" lon="10.5831029570827"><ele>416.0</ele><time>2026-04-06T12:50:15Z</time></trkpt><trkpt lat="44.5273481492142" lon="10.583222130487117"><ele>416.0</ele><time>2026-04-06T12:50:16Z</time></trkpt><trkpt lat="44.527331244615716" lon="10.583344437536754"><ele>416.0</ele><time>2026-04-06T12:50:17Z</time></trkpt><trkpt lat="44.527317300980314" lon="10.583458720578497"><ele>415.99999999999994</ele><time>2026-04-06T12:50:18Z</time></trkpt><trkpt lat="44.52730940408124" lon="10.583573547762178"><ele>416.0</ele><time>2026-04-06T12:50:19Z</time></trkpt><trkpt lat="44.52732083934911" lon="10.583725939115372"><ele>415.57142857142856</ele><time>2026-04-06T12:50:20Z</time></trkpt><trkpt lat="44.52732184609606" lon="10.583823759917692"><ele>415.14285714285717</ele><time>2026-04-06T12:50:21Z</time></trkpt><trkpt lat="44.52729199354575" lon="10.583910072170426"><ele>414.7142857142857</ele><time>2026-04-06T12:50:22Z</time></trkpt><trkpt lat="44.52726188926551" lon="10.584017010716588"><ele>414.2857142857143</ele><time>2026-04-06T12:50:23Z</time></trkpt><trkpt lat="44.5272098181648" lon="10.584100110802435"><ele>413.8571428571429</ele><time>2026-04-06T12:50:24Z</time></trkpt><trkpt lat="44.52718379602795" lon="10.584196608330865"><ele>413.42857142857144</ele><time>2026-04-06T12:50:25Z</time></trkpt><trkpt lat="44.52717337887988" lon="10.584292471249798"><ele>413.0</ele><time>2026-04-06T12:50:26Z</time></trkpt><trkpt lat="44.52716711802002" lon="10.584386184863986"><ele>411.79999999999995</ele><time>2026-04-06T12:50:27Z</time></trkpt><trkpt lat="44.527152786504686" lon="10.584563081363385"><ele>410.6</ele><time>2026-04-06T12:50:28Z</time></trkpt><trkpt lat="44.52712075985786" lon="10.584706724261592"><ele>409.4</ele><time>2026-04-06T12:50:29Z</time></trkpt><trkpt lat="44.527109393803286" lon="10.584837350836263"><ele>408.20000000000005</ele><time>2026-04-06T12:50:30Z</time></trkpt><trkpt lat="44.52709341057786" lon="10.584974092439284"><ele>407.0</ele><time>2026-04-06T12:50:31Z</time></trkpt><trkpt lat="44.52702620492226" lon="10.585039662695369"><ele>408.40000000000003</ele><time>2026-04-06T12:50:33Z</time></trkpt><trkpt lat="44.526949537557435" lon="10.585161026874152"><ele>409.8</ele><time>2026-04-06T12:50:35Z</time></trkpt><trkpt lat="44.52687406356785" lon="10.585201060570675"><ele>411.2</ele><time>2026-04-06T12:50:37Z</time></trkpt><trkpt lat="44.52681758730672" lon="10.58529345673264"><ele>412.6</ele><time>2026-04-06T12:50:40Z</time></trkpt><trkpt lat="44.52677050408347" lon="10.585379097451895"><ele>414.0</ele><time>2026-04-06T12:50:43Z</time></trkpt><trkpt lat="44.526701261902645" lon="10.585585794625198"><ele>414.0</ele><time>2026-04-06T12:50:44Z</time></trkpt><trkpt lat="44.526704530779014" lon="10.585775535425826"><ele>414.0</ele><time>2026-04-06T12:50:45Z</time></trkpt><trkpt lat="44.526675454770945" lon="10.585942105797358"><ele>414.0</ele><time>2026-04-06T12:50:46Z</time></trkpt><trkpt lat="44.526649167302295" lon="10.586064296881686"><ele>414.0</ele><time>2026-04-06T12:50:47Z</time></trkpt><trkpt lat="44.52665569295032" lon="10.586181337141634"><ele>414.0</ele><time>2026-04-06T12:50:48Z</time></trkpt><trkpt lat="44.526647384364715" lon="10.5862940512466"><ele>414.0</ele><time>2026-04-06T12:50:50Z</time></trkpt><trkpt lat="44.5265332628554" lon="10.586222742256595"><ele>414.0</ele><time>2026-04-06T12:50:52.999Z</time></trkpt><trkpt lat="44.5264833060448" lon="10.58613142581204"><ele>414.0</ele><time>2026-04-06T12:50:53.999Z</time></trkpt><trkpt lat="44.52640955893136" lon="10.586008335869767"><ele>414.0</ele><time>2026-04-06T12:50:54.999Z</time></trkpt><trkpt lat="44.526303807432065" lon="10.585789112363422"><ele>414.66666666666663</ele><time>2026-04-06T12:50:55.999Z</time></trkpt><trkpt lat="44.52614921077302" lon="10.585637063326498"><ele>415.3333333333333</ele><time>2026-04-06T12:50:57Z</time></trkpt><trkpt lat="44.52602824656087" lon="10.585498898885431"><ele>416.0</ele><time>2026-04-06T12:50:58Z</time></trkpt><trkpt lat="44.52592873207977" lon="10.585344171485497"><ele>420.0</ele><time>2026-04-06T12:50:59Z</time></trkpt><trkpt lat="44.525799370727285" lon="10.585199862624767"><ele>424.0</ele><time>2026-04-06T12:51:00Z</time></trkpt><trkpt lat="44.52571660466572" lon="10.585098616827315"><ele>428.0</ele><time>2026-04-06T12:51:01Z</time></trkpt><trkpt lat="44.525624708154744" lon="10.585006544370389"><ele>432.0</ele><time>2026-04-06T12:51:02Z</time></trkpt><trkpt lat="44.525552517236896" lon="10.584978532081278"><ele>432.0</ele><time>2026-04-06T12:51:03Z</time></trkpt><trkpt lat="44.52552300033761" lon="10.585130510109531"><ele>432.00000000000006</ele><time>2026-04-06T12:51:06Z</time></trkpt><trkpt lat="44.52542021141296" lon="10.585216317686069"><ele>432.00000000000006</ele><time>2026-04-06T12:51:08Z</time></trkpt><trkpt lat="44.525354824353975" lon="10.585178077405216"><ele>432.0</ele><time>2026-04-06T12:51:09Z</time></trkpt><trkpt lat="44.52528656343108" lon="10.585089869588865"><ele>432.0</ele><time>2026-04-06T12:51:10Z</time></trkpt><trkpt lat="44.52521472009737" lon="10.58498372459129"><ele>431.6</ele><time>2026-04-06T12:51:11Z</time></trkpt><trkpt lat="44.525147829733605" lon="10.58487273718319"><ele>431.20000000000005</ele><time>2026-04-06T12:51:12Z</time></trkpt><trkpt lat="44.52509631834375" lon="10.584760376841958"><ele>430.8</ele><time>2026-04-06T12:51:13Z</time></trkpt><trkpt lat="44.52504027995915" lon="10.584645549399308"><ele>430.4</ele><time>2026-04-06T12:51:14Z</time></trkpt><trkpt lat="44.52498819846689" lon="10.584531362502322"><ele>430.0</ele><time>2026-04-06T12:51:15Z</time></trkpt><trkpt lat="44.524928240754186" lon="10.584429257556879"><ele>430.0</ele><time>2026-04-06T12:51:16Z</time></trkpt><trkpt lat="44.52486095928179" lon="10.5843342759431"><ele>430.0</ele><time>2026-04-06T12:51:17Z</time></trkpt><trkpt lat="44.52477810592469" lon="10.58425225060829"><ele>430.0</ele><time>2026-04-06T12:51:18Z</time></trkpt><trkpt lat="44.52469195824752" lon="10.58418169550697"><ele>430.0</ele><time>2026-04-06T12:51:19Z</time></trkpt><trkpt lat="44.524605510323155" lon="10.58410768274988"><ele>430.0</ele><time>2026-04-06T12:51:20Z</time></trkpt><trkpt lat="44.52451795190781" lon="10.584026785635576"><ele>429.6</ele><time>2026-04-06T12:51:21Z</time></trkpt><trkpt lat="44.5244281031121" lon="10.583947756720367"><ele>429.2</ele><time>2026-04-06T12:51:22Z</time></trkpt><trkpt lat="44.52433708265609" lon="10.583873983210223"><ele>428.79999999999995</ele><time>2026-04-06T12:51:23Z</time></trkpt><trkpt lat="44.52424538262197" lon="10.58379939570493"><ele>428.4</ele><time>2026-04-06T12:51:24Z</time></trkpt><trkpt lat="44.52415564788971" lon="10.58371617824444"><ele>428.0</ele><time>2026-04-06T12:51:25Z</time></trkpt><trkpt lat="44.524062401548335" lon="10.583633718942375"><ele>427.0</ele><time>2026-04-06T12:51:26Z</time></trkpt><trkpt lat="44.52397431709541" lon="10.583548178774821"><ele>425.99999999999994</ele><time>2026-04-06T12:51:27Z</time></trkpt><trkpt lat="44.5238817513017" lon="10.583457648874898"><ele>425.0</ele><time>2026-04-06T12:51:28Z</time></trkpt><trkpt lat="44.52379157636869" lon="10.583370990524307"><ele>424.0</ele><time>2026-04-06T12:51:29Z</time></trkpt><trkpt lat="44.5237072719466" lon="10.583275010970246"><ele>423.0</ele><time>2026-04-06T12:51:30Z</time></trkpt><trkpt lat="44.523629859334946" lon="10.583172107700147"><ele>422.25</ele><time>2026-04-06T12:51:31Z</time></trkpt><trkpt lat="44.52355424466536" lon="10.583057662126524"><ele>421.5</ele><time>2026-04-06T12:51:32Z</time></trkpt><trkpt lat="44.523487405238846" lon="10.582928943580715"><ele>420.75</ele><time>2026-04-06T12:51:33Z</time></trkpt><trkpt lat="44.52341985308008" lon="10.582783099216828"><ele>420.0</ele><time>2026-04-06T12:51:34Z</time></trkpt><trkpt lat="44.52336058235786" lon="10.582645053445491"><ele>422.0</ele><time>2026-04-06T12:51:35Z</time></trkpt><trkpt lat="44.523307207942345" lon="10.58249603822067"><ele>424.0</ele><time>2026-04-06T12:51:36Z</time></trkpt><trkpt lat="44.52325654228469" lon="10.582347162973077"><ele>426.0</ele><time>2026-04-06T12:51:37Z</time></trkpt><trkpt lat="44.52321118674696" lon="10.582186763446282"><ele>428.0</ele><time>2026-04-06T12:51:38Z</time></trkpt><trkpt lat="44.523182506079834" lon="10.582020707432452"><ele>429.25</ele><time>2026-04-06T12:51:39Z</time></trkpt><trkpt lat="44.52315828304875" lon="10.581854073106994"><ele>430.5</ele><time>2026-04-06T12:51:40Z</time></trkpt><trkpt lat="44.52312331418885" lon="10.581689326997017"><ele>431.75</ele><time>2026-04-06T12:51:41Z</time></trkpt><trkpt lat="44.52308490578496" lon="10.581531228366847"><ele>433.0</ele><time>2026-04-06T12:51:42Z</time></trkpt><trkpt lat="44.52304912908953" lon="10.581384449744776"><ele>433.0</ele><time>2026-04-06T12:51:43Z</time></trkpt><trkpt lat="44.523007773824446" lon="10.58123888280561"><ele>432.99999999999994</ele><time>2026-04-06T12:51:44Z</time></trkpt><trkpt lat="44.52296878160209" lon="10.581100743320315"><ele>432.99999999999994</ele><time>2026-04-06T12:51:45Z</time></trkpt><trkpt lat="44.52294203558885" lon="10.580994584094855"><ele>433.0</ele><time>2026-04-06T12:51:46Z</time></trkpt><trkpt lat="44.522872435340744" lon="10.58089243123818"><ele>433.0</ele><time>2026-04-06T12:51:48Z</time></trkpt><trkpt lat="44.522777315698356" lon="10.580995185333524"><ele>436.33333333333337</ele><time>2026-04-06T12:51:50Z</time></trkpt><trkpt lat="44.52277130345172" lon="10.581116260604707"><ele>439.6666666666667</ele><time>2026-04-06T12:51:51Z</time></trkpt><trkpt lat="44.522779350835954" lon="10.581233243785785"><ele>443.0</ele><time>2026-04-06T12:51:52Z</time></trkpt><trkpt lat="44.52275852697678" lon="10.58134119390868"><ele>446.33333333333337</ele><time>2026-04-06T12:51:53Z</time></trkpt><trkpt lat="44.522736859978835" lon="10.581473054594676"><ele>449.6666666666667</ele><time>2026-04-06T12:51:55Z</time></trkpt><trkpt lat="44.52267836656867" lon="10.581517498532655"><ele>453.0</ele><time>2026-04-06T12:51:57Z</time></trkpt><trkpt lat="44.52260325597305" lon="10.581546056316672"><ele>453.0</ele><time>2026-04-06T12:52:00Z</time></trkpt><trkpt lat="44.522593940020805" lon="10.581444064175546"><ele>453.0</ele><time>2026-04-06T12:52:02Z</time></trkpt><trkpt lat="44.52249850247021" lon="10.581393244773494"><ele>453.0</ele><time>2026-04-06T12:52:04Z</time></trkpt><trkpt lat="44.52246913630433" lon="10.581173789285007"><ele>453.0</ele><time>2026-04-06T12:52:05Z</time></trkpt><trkpt lat="44.522297141906314" lon="10.581196104907924"><ele>453.1666666666667</ele><time>2026-04-06T12:52:09Z</time></trkpt><trkpt lat="44.522214500383576" lon="10.581193712023886"><ele>453.33333333333337</ele><time>2026-04-06T12:52:11Z</time></trkpt><trkpt lat="44.52210436111506" lon="10.58119052300495"><ele>453.5</ele><time>2026-04-06T12:52:13Z</time></trkpt><trkpt lat="44.522034709582705" lon="10.58119050051591"><ele>453.6666666666667</ele><time>2026-04-06T12:52:14Z</time></trkpt><trkpt lat="44.521956617169415" lon="10.581176813993283"><ele>453.83333333333337</ele><time>2026-04-06T12:52:15Z</time></trkpt><trkpt lat="44.52187048301854" lon="10.581164590385827"><ele>454.0</ele><time>2026-04-06T12:52:16Z</time></trkpt><trkpt lat="44.521787521180244" lon="10.581138665610007"><ele>455.50000000000006</ele><time>2026-04-06T12:52:17Z</time></trkpt><trkpt lat="44.52170582102854" lon="10.581100227712763"><ele>457.0</ele><time>2026-04-06T12:52:18Z</time></trkpt><trkpt lat="44.5216249592959" lon="10.581073626687578"><ele>458.5</ele><time>2026-04-06T12:52:19Z</time></trkpt><trkpt lat="44.52155906574645" lon="10.581066531870105"><ele>460.0</ele><time>2026-04-06T12:52:20Z</time></trkpt><trkpt lat="44.52146362933918" lon="10.581116138507454"><ele>461.50000000000006</ele><time>2026-04-06T12:52:22Z</time></trkpt><trkpt lat="44.52141295833339" lon="10.581209283390868"><ele>463.0</ele><time>2026-04-06T12:52:37Z</time></trkpt><trkpt lat="44.521324922623876" lon="10.581337657902166"><ele>463.4</ele><time>2026-04-06T12:52:39Z</time></trkpt><trkpt lat="44.5212651024686" lon="10.581387525642507"><ele>463.79999999999995</ele><time>2026-04-06T12:52:40Z</time></trkpt><trkpt lat="44.521186879409676" lon="10.581412556400041"><ele>464.2</ele><time>2026-04-06T12:52:41Z</time></trkpt><trkpt lat="44.521093561535366" lon="10.581392885112791"><ele>464.6</ele><time>2026-04-06T12:52:42Z</time></trkpt><trkpt lat="44.52099196069134" lon="10.581382943385654"><ele>465.0</ele><time>2026-04-06T12:52:43Z</time></trkpt><trkpt lat="44.52087110997753" lon="10.581455092698596"><ele>469.5</ele><time>2026-04-06T12:52:44Z</time></trkpt><trkpt lat="44.5207251130176" lon="10.581570433441058"><ele>474.0</ele><time>2026-04-06T12:52:45Z</time></trkpt><trkpt lat="44.5206003505846" lon="10.581660890063569"><ele>478.5</ele><time>2026-04-06T12:52:46Z</time></trkpt><trkpt lat="44.52049371933904" lon="10.581707747559241"><ele>483.0</ele><time>2026-04-06T12:52:47Z</time></trkpt><trkpt lat="44.52036828671032" lon="10.581737213652309"><ele>484.0</ele><time>2026-04-06T12:52:48Z</time></trkpt><trkpt lat="44.520264542619415" lon="10.581783230104767"><ele>484.99999999999994</ele><time>2026-04-06T12:52:48.999Z</time></trkpt><trkpt lat="44.5201917981444" lon="10.581812698062704"><ele>485.99999999999994</ele><time>2026-04-06T12:52:49.999Z</time></trkpt><trkpt lat="44.52012076784695" lon="10.58192818462334"><ele>487.0</ele><time>2026-04-06T12:52:50.999Z</time></trkpt><trkpt lat="44.52006927654875" lon="10.582032377374873"><ele>488.0</ele><time>2026-04-06T12:52:51.999Z</time></trkpt><trkpt lat="44.5199757221441" lon="10.582105253069182"><ele>488.0</ele><time>2026-04-06T12:52:53.999Z</time></trkpt><trkpt lat="44.51989611425672" lon="10.582097685750151"><ele>487.99999999999994</ele><time>2026-04-06T12:52:55.999Z</time></trkpt><trkpt lat="44.5198770581285" lon="10.582007464939808"><ele>487.99999999999994</ele><time>2026-04-06T12:52:56.999Z</time></trkpt><trkpt lat="44.51986584222221" lon="10.581847131132907"><ele>488.0</ele><time>2026-04-06T12:52:57.999Z</time></trkpt><trkpt lat="44.519824130197975" lon="10.581715060140446"><ele>488.0</ele><time>2026-04-06T12:52:58.999Z</time></trkpt><trkpt lat="44.51972762617831" lon="10.581617932913739"><ele>490.5</ele><time>2026-04-06T12:52:59.999Z</time></trkpt><trkpt lat="44.519594815323615" lon="10.581518892229234"><ele>493.0</ele><time>2026-04-06T12:53:00.999Z</time></trkpt><trkpt lat="44.51948592732327" lon="10.581444429533375"><ele>495.5</ele><time>2026-04-06T12:53:01.999Z</time></trkpt><trkpt lat="44.51942660367061" lon="10.58137903919929"><ele>498.0</ele><time>2026-04-06T12:53:03Z</time></trkpt><trkpt lat="44.519395797905965" lon="10.581226232789582"><ele>499.59999999999997</ele><time>2026-04-06T12:53:05Z</time></trkpt><trkpt lat="44.519370167864615" lon="10.581114936151952"><ele>501.19999999999993</ele><time>2026-04-06T12:53:06Z</time></trkpt><trkpt lat="44.51932662095292" lon="10.580982954681172"><ele>502.8</ele><time>2026-04-06T12:53:07Z</time></trkpt><trkpt lat="44.519262778748384" lon="10.580881872914716"><ele>504.4</ele><time>2026-04-06T12:53:08Z</time></trkpt><trkpt lat="44.51915574531321" lon="10.580801981919073"><ele>506.0</ele><time>2026-04-06T12:53:09Z</time></trkpt><trkpt lat="44.51901933202911" lon="10.580729782860466"><ele>506.0</ele><time>2026-04-06T12:53:10Z</time></trkpt><trkpt lat="44.51887307701782" lon="10.58063966658231"><ele>506.0</ele><time>2026-04-06T12:53:11Z</time></trkpt><trkpt lat="44.518726856406246" lon="10.580527526779779"><ele>506.0</ele><time>2026-04-06T12:53:12Z</time></trkpt><trkpt lat="44.51861009129838" lon="10.580401255683578"><ele>508.75</ele><time>2026-04-06T12:53:13Z</time></trkpt><trkpt lat="44.51849092757279" lon="10.580299439713126"><ele>511.5</ele><time>2026-04-06T12:53:14Z</time></trkpt><trkpt lat="44.51838467045969" lon="10.580236452765398"><ele>514.25</ele><time>2026-04-06T12:53:15Z</time></trkpt><trkpt lat="44.518280700040755" lon="10.580198595622045"><ele>517.0</ele><time>2026-04-06T12:53:16Z</time></trkpt><trkpt lat="44.51819359727574" lon="10.580151058910857"><ele>517.0</ele><time>2026-04-06T12:53:17Z</time></trkpt><trkpt lat="44.51814199709151" lon="10.58007700608526"><ele>517.0</ele><time>2026-04-06T12:53:18Z</time></trkpt><trkpt lat="44.518110707399806" lon="10.579982789521159"><ele>517.0</ele><time>2026-04-06T12:53:19Z</time></trkpt><trkpt lat="44.518115668684295" lon="10.579873541407608"><ele>517.0</ele><time>2026-04-06T12:53:20Z</time></trkpt><trkpt lat="44.51812620779931" lon="10.579752091312121"><ele>517.0</ele><time>2026-04-06T12:53:21Z</time></trkpt><trkpt lat="44.51814055637565" lon="10.579603578146129"><ele>517.0</ele><time>2026-04-06T12:53:22Z</time></trkpt><trkpt lat="44.51815331352982" lon="10.579445938618504"><ele>517.0</ele><time>2026-04-06T12:53:23Z</time></trkpt><trkpt lat="44.518160534085524" lon="10.579268380828763"><ele>517.0</ele><time>2026-04-06T12:53:24Z</time></trkpt><trkpt lat="44.51816645252858" lon="10.579095821056256"><ele>517.0</ele><time>2026-04-06T12:53:25Z</time></trkpt><trkpt lat="44.51817367568341" lon="10.578919962364619"><ele>517.0</ele><time>2026-04-06T12:53:26Z</time></trkpt><trkpt lat="44.51819156343176" lon="10.578733997454938"><ele>517.0</ele><time>2026-04-06T12:53:27Z</time></trkpt><trkpt lat="44.51821347160347" lon="10.578556345821829"><ele>517.0</ele><time>2026-04-06T12:53:28Z</time></trkpt><trkpt lat="44.51822406788689" lon="10.578387601489322"><ele>517.0</ele><time>2026-04-06T12:53:29Z</time></trkpt><trkpt lat="44.51821294919299" lon="10.57823829155294"><ele>517.0</ele><time>2026-04-06T12:53:30Z</time></trkpt><trkpt lat="44.518205807660536" lon="10.578101348501498"><ele>517.0</ele><time>2026-04-06T12:53:31Z</time></trkpt><trkpt lat="44.518195701904446" lon="10.577978435061894"><ele>517.0</ele><time>2026-04-06T12:53:32Z</time></trkpt><trkpt lat="44.51818627670346" lon="10.577865882298422"><ele>517.0</ele><time>2026-04-06T12:53:33Z</time></trkpt><trkpt lat="44.518179603684324" lon="10.577762624016584"><ele>517.0</ele><time>2026-04-06T12:53:34Z</time></trkpt><trkpt lat="44.51817099107919" lon="10.577654499056191"><ele>517.0</ele><time>2026-04-06T12:53:35Z</time></trkpt><trkpt lat="44.51816238616372" lon="10.577545220045778"><ele>517.0</ele><time>2026-04-06T12:53:36Z</time></trkpt><trkpt lat="44.518155942167795" lon="10.577432637331174"><ele>517.6</ele><time>2026-04-06T12:53:37Z</time></trkpt><trkpt lat="44.51814931893162" lon="10.577327334456216"><ele>518.2</ele><time>2026-04-06T12:53:38Z</time></trkpt><trkpt lat="44.51813511415387" lon="10.577214203975503"><ele>518.8</ele><time>2026-04-06T12:53:39Z</time></trkpt><trkpt lat="44.51811123900911" lon="10.577098813869851"><ele>519.4</ele><time>2026-04-06T12:53:40Z</time></trkpt><trkpt lat="44.51807365954867" lon="10.576974701249567"><ele>520.0</ele><time>2026-04-06T12:53:41Z</time></trkpt><trkpt lat="44.518036279757396" lon="10.576827239548958"><ele>520.0</ele><time>2026-04-06T12:53:42Z</time></trkpt><trkpt lat="44.518000659401956" lon="10.576680296227325"><ele>520.0</ele><time>2026-04-06T12:53:43Z</time></trkpt><trkpt lat="44.517968618105435" lon="10.5765291731129"><ele>520.0</ele><time>2026-04-06T12:53:44Z</time></trkpt><trkpt lat="44.51793859002929" lon="10.576390106015184"><ele>520.0</ele><time>2026-04-06T12:53:45Z</time></trkpt><trkpt lat="44.51790549406383" lon="10.57626044856741"><ele>520.0</ele><time>2026-04-06T12:53:46Z</time></trkpt><trkpt lat="44.517860668964474" lon="10.576136266590735"><ele>520.4</ele><time>2026-04-06T12:53:47Z</time></trkpt><trkpt lat="44.51780613809621" lon="10.576037096085388"><ele>520.8</ele><time>2026-04-06T12:53:48Z</time></trkpt><trkpt lat="44.517744031380985" lon="10.575937337316597"><ele>521.2</ele><time>2026-04-06T12:53:49Z</time></trkpt><trkpt lat="44.51767833871456" lon="10.575860875466768"><ele>521.6</ele><time>2026-04-06T12:53:50Z</time></trkpt><trkpt lat="44.51759686456755" lon="10.575791213578436"><ele>522.0</ele><time>2026-04-06T12:53:51Z</time></trkpt><trkpt lat="44.51751960296397" lon="10.575715402091992"><ele>522.0</ele><time>2026-04-06T12:53:52Z</time></trkpt><trkpt lat="44.51743075721668" lon="10.575651227072582"><ele>522.0</ele><time>2026-04-06T12:53:53Z</time></trkpt><trkpt lat="44.51733617244136" lon="10.575570144655023"><ele>522.0</ele><time>2026-04-06T12:53:54Z</time></trkpt><trkpt lat="44.51724481397042" lon="10.575479465896654"><ele>522.0</ele><time>2026-04-06T12:53:55Z</time></trkpt><trkpt lat="44.51713684817737" lon="10.575381610365891"><ele>523.25</ele><time>2026-04-06T12:53:56Z</time></trkpt><trkpt lat="44.517014692827246" lon="10.575272929561807"><ele>524.5</ele><time>2026-04-06T12:53:57Z</time></trkpt><trkpt lat="44.51688600830631" lon="10.575162036765258"><ele>525.75</ele><time>2026-04-06T12:53:58Z</time></trkpt><trkpt lat="44.516755579229645" lon="10.575052757231878"><ele>527.0</ele><time>2026-04-06T12:53:59Z</time></trkpt><trkpt lat="44.51662456973071" lon="10.574948290346105"><ele>527.0</ele><time>2026-04-06T12:54:00Z</time></trkpt><trkpt lat="44.51649878112304" lon="10.574843400819942"><ele>527.0</ele><time>2026-04-06T12:54:01Z</time></trkpt><trkpt lat="44.51638889940217" lon="10.574739069533091"><ele>527.0</ele><time>2026-04-06T12:54:02Z</time></trkpt><trkpt lat="44.51628922570097" lon="10.57464676614767"><ele>527.0</ele><time>2026-04-06T12:54:03Z</time></trkpt><trkpt lat="44.51619568534363" lon="10.574561206748209"><ele>528.0</ele><time>2026-04-06T12:54:04Z</time></trkpt><trkpt lat="44.51611024135066" lon="10.574495745039368"><ele>529.0</ele><time>2026-04-06T12:54:05Z</time></trkpt><trkpt lat="44.51603219899729" lon="10.57443534742798"><ele>530.0</ele><time>2026-04-06T12:54:06Z</time></trkpt><trkpt lat="44.51595222288896" lon="10.574393070297196"><ele>531.0</ele><time>2026-04-06T12:54:07Z</time></trkpt><trkpt lat="44.51585164427432" lon="10.57435296588993"><ele>532.0</ele><time>2026-04-06T12:54:08Z</time></trkpt><trkpt lat="44.51573844355112" lon="10.574290791069961"><ele>532.0</ele><time>2026-04-06T12:54:09Z</time></trkpt><trkpt lat="44.515631550589596" lon="10.574187161036566"><ele>532.0</ele><time>2026-04-06T12:54:10Z</time></trkpt><trkpt lat="44.515511353338916" lon="10.574091597413243"><ele>532.0</ele><time>2026-04-06T12:54:11Z</time></trkpt><trkpt lat="44.515374951213104" lon="10.573998274570576"><ele>532.0</ele><time>2026-04-06T12:54:12Z</time></trkpt><trkpt lat="44.51525156468811" lon="10.573870904360366"><ele>533.4</ele><time>2026-04-06T12:54:13Z</time></trkpt><trkpt lat="44.515177201271015" lon="10.573733241964653"><ele>534.8000000000001</ele><time>2026-04-06T12:54:14Z</time></trkpt><trkpt lat="44.5151373990195" lon="10.573596108794503"><ele>536.2</ele><time>2026-04-06T12:54:15Z</time></trkpt><trkpt lat="44.515087251020375" lon="10.573508877687194"><ele>537.6</ele><time>2026-04-06T12:54:16Z</time></trkpt><trkpt lat="44.51501574689843" lon="10.57345817517992"><ele>539.0</ele><time>2026-04-06T12:54:17Z</time></trkpt><trkpt lat="44.51493711987724" lon="10.57340688987003"><ele>539.25</ele><time>2026-04-06T12:54:18Z</time></trkpt><trkpt lat="44.5148696394175" lon="10.57329677277505"><ele>539.5</ele><time>2026-04-06T12:54:19Z</time></trkpt><trkpt lat="44.51480326221922" lon="10.573111901561804"><ele>539.75</ele><time>2026-04-06T12:54:20Z</time></trkpt><trkpt lat="44.514721442780626" lon="10.572909216191688"><ele>540.0</ele><time>2026-04-06T12:54:21Z</time></trkpt><trkpt lat="44.514656256873096" lon="10.572777535228719"><ele>540.0</ele><time>2026-04-06T12:54:22Z</time></trkpt><trkpt lat="44.5146554410683" lon="10.572647079086904"><ele>540.0</ele><time>2026-04-06T12:54:23Z</time></trkpt><trkpt lat="44.51467632647683" lon="10.572503687675795"><ele>540.0</ele><time>2026-04-06T12:54:24Z</time></trkpt><trkpt lat="44.5146589257295" lon="10.572372339359633"><ele>540.0</ele><time>2026-04-06T12:54:25Z</time></trkpt><trkpt lat="44.51459192788415" lon="10.572232695024406"><ele>540.0</ele><time>2026-04-06T12:54:26Z</time></trkpt><trkpt lat="44.51455809216365" lon="10.572090326472262"><ele>542.2</ele><time>2026-04-06T12:54:27Z</time></trkpt><trkpt lat="44.51455564597101" lon="10.571981913587484"><ele>544.4</ele><time>2026-04-06T12:54:28Z</time></trkpt><trkpt lat="44.51451039439662" lon="10.571917729186248"><ele>546.6</ele><time>2026-04-06T12:54:29Z</time></trkpt><trkpt lat="44.51443405337304" lon="10.571844934250967"><ele>548.8</ele><time>2026-04-06T12:54:30Z</time></trkpt><trkpt lat="44.51434652133288" lon="10.571739790795691"><ele>551.0</ele><time>2026-04-06T12:54:31Z</time></trkpt><trkpt lat="44.51426927938368" lon="10.571630159163965"><ele>551.0</ele><time>2026-04-06T12:54:32Z</time></trkpt><trkpt lat="44.51419422787506" lon="10.571543701369555"><ele>551.0</ele><time>2026-04-06T12:54:33Z</time></trkpt><trkpt lat="44.514100829616375" lon="10.571482274825389"><ele>551.0</ele><time>2026-04-06T12:54:34Z</time></trkpt><trkpt lat="44.51397944337251" lon="10.571425601132777"><ele>551.0</ele><time>2026-04-06T12:54:35Z</time></trkpt><trkpt lat="44.51389884592408" lon="10.57132708670816"><ele>551.0</ele><time>2026-04-06T12:54:36Z</time></trkpt><trkpt lat="44.513845377609094" lon="10.57119144600375"><ele>552.3333333333333</ele><time>2026-04-06T12:54:37Z</time></trkpt><trkpt lat="44.51380125366494" lon="10.571002395918295"><ele>553.6666666666666</ele><time>2026-04-06T12:54:38Z</time></trkpt><trkpt lat="44.51374954173763" lon="10.57076543627139"><ele>555.0</ele><time>2026-04-06T12:54:39Z</time></trkpt><trkpt lat="44.51365181893668" lon="10.570560065336123"><ele>555.0</ele><time>2026-04-06T12:54:40Z</time></trkpt><trkpt lat="44.51354749441408" lon="10.570396330482202"><ele>555.0</ele><time>2026-04-06T12:54:41Z</time></trkpt><trkpt lat="44.51346249371771" lon="10.570246690091755"><ele>555.0</ele><time>2026-04-06T12:54:42Z</time></trkpt><trkpt lat="44.51340186388008" lon="10.57010548567707"><ele>555.0</ele><time>2026-04-06T12:54:43Z</time></trkpt><trkpt lat="44.5133501999314" lon="10.569998932032576"><ele>556.0</ele><time>2026-04-06T12:54:44Z</time></trkpt><trkpt lat="44.51329314748373" lon="10.569931728853721"><ele>557.0</ele><time>2026-04-06T12:54:45Z</time></trkpt><trkpt lat="44.51323152020152" lon="10.569885803362023"><ele>558.0</ele><time>2026-04-06T12:54:45.999Z</time></trkpt><trkpt lat="44.51316311815956" lon="10.569836826326291"><ele>559.0</ele><time>2026-04-06T12:54:46.999Z</time></trkpt><trkpt lat="44.51308486618399" lon="10.569810064196671"><ele>560.0</ele><time>2026-04-06T12:54:47.999Z</time></trkpt><trkpt lat="44.51299841357593" lon="10.569794705961675"><ele>561.0</ele><time>2026-04-06T12:54:48.999Z</time></trkpt><trkpt lat="44.51289921453556" lon="10.569759218045107"><ele>561.0</ele><time>2026-04-06T12:54:49.999Z</time></trkpt><trkpt lat="44.51280180214709" lon="10.569698595491502"><ele>561.0</ele><time>2026-04-06T12:54:50.999Z</time></trkpt><trkpt lat="44.51271455787982" lon="10.569637740394558"><ele>561.0</ele><time>2026-04-06T12:54:51.999Z</time></trkpt><trkpt lat="44.51262308197811" lon="10.569590345437605"><ele>561.0</ele><time>2026-04-06T12:54:52.999Z</time></trkpt><trkpt lat="44.51253473676108" lon="10.569581243784592"><ele>561.0</ele><time>2026-04-06T12:54:53.999Z</time></trkpt><trkpt lat="44.512438629324954" lon="10.569603515436173"><ele>561.0</ele><time>2026-04-06T12:54:54.999Z</time></trkpt><trkpt lat="44.51233549299324" lon="10.569636207115714"><ele>561.0</ele><time>2026-04-06T12:54:55.999Z</time></trkpt><trkpt lat="44.51222515185531" lon="10.569681012732243"><ele>561.0</ele><time>2026-04-06T12:54:56.999Z</time></trkpt><trkpt lat="44.512115978125415" lon="10.569725552352777"><ele>561.0</ele><time>2026-04-06T12:54:57.999Z</time></trkpt><trkpt lat="44.5119916791986" lon="10.569768867823612"><ele>561.25</ele><time>2026-04-06T12:54:58.999Z</time></trkpt><trkpt lat="44.511845853318974" lon="10.569798750684466"><ele>561.5</ele><time>2026-04-06T12:54:59.999Z</time></trkpt><trkpt lat="44.511718679070945" lon="10.569823820831681"><ele>561.75</ele><time>2026-04-06T12:55:00.999Z</time></trkpt><trkpt lat="44.511602121015066" lon="10.569842528983447"><ele>562.0</ele><time>2026-04-06T12:55:01.999Z</time></trkpt><trkpt lat="44.51148573954035" lon="10.569850019738743"><ele>562.0</ele><time>2026-04-06T12:55:02.999Z</time></trkpt><trkpt lat="44.51136436212108" lon="10.569858162311407"><ele>562.0</ele><time>2026-04-06T12:55:03.999Z</time></trkpt><trkpt lat="44.511243564664596" lon="10.569864048102572"><ele>562.0</ele><time>2026-04-06T12:55:04.999Z</time></trkpt><trkpt lat="44.51111921658691" lon="10.569868875176487"><ele>562.0</ele><time>2026-04-06T12:55:05.999Z</time></trkpt><trkpt lat="44.51099786872827" lon="10.56986944577714"><ele>561.0</ele><time>2026-04-06T12:55:06.999Z</time></trkpt><trkpt lat="44.51088383263308" lon="10.56987535086161"><ele>560.0</ele><time>2026-04-06T12:55:07.999Z</time></trkpt><trkpt lat="44.510764518643725" lon="10.569877381102756"><ele>559.0</ele><time>2026-04-06T12:55:09Z</time></trkpt><trkpt lat="44.51064861291275" lon="10.569881689978963"><ele>558.0</ele><time>2026-04-06T12:55:10Z</time></trkpt><trkpt lat="44.51053891642041" lon="10.569899931954671"><ele>558.0</ele><time>2026-04-06T12:55:11Z</time></trkpt><trkpt lat="44.51042912061844" lon="10.56992007833549"><ele>558.0</ele><time>2026-04-06T12:55:12Z</time></trkpt><trkpt lat="44.510317857071165" lon="10.569950300459642"><ele>558.0</ele><time>2026-04-06T12:55:13Z</time></trkpt><trkpt lat="44.510212302462094" lon="10.569986105683476"><ele>558.0</ele><time>2026-04-06T12:55:14Z</time></trkpt><trkpt lat="44.51011158380533" lon="10.570027039928668"><ele>558.0</ele><time>2026-04-06T12:55:15Z</time></trkpt><trkpt lat="44.510011511568244" lon="10.57007849580699"><ele>556.6</ele><time>2026-04-06T12:55:16Z</time></trkpt><trkpt lat="44.50990825653269" lon="10.570120879393079"><ele>555.1999999999999</ele><time>2026-04-06T12:55:17Z</time></trkpt><trkpt lat="44.50979799309577" lon="10.570116582531691"><ele>553.8</ele><time>2026-04-06T12:55:18Z</time></trkpt><trkpt lat="44.509686509581115" lon="10.570098684343673"><ele>552.4</ele><time>2026-04-06T12:55:19Z</time></trkpt><trkpt lat="44.50957358370505" lon="10.57006165624617"><ele>551.0</ele><time>2026-04-06T12:55:20Z</time></trkpt><trkpt lat="44.50947752372559" lon="10.570026961792435"><ele>550.4</ele><time>2026-04-06T12:55:21Z</time></trkpt><trkpt lat="44.509386271130715" lon="10.569995700500625"><ele>549.8</ele><time>2026-04-06T12:55:22Z</time></trkpt><trkpt lat="44.50928603575556" lon="10.569972338505586"><ele>549.1999999999999</ele><time>2026-04-06T12:55:23Z</time></trkpt><trkpt lat="44.50916798073332" lon="10.569959691560882"><ele>548.6</ele><time>2026-04-06T12:55:24Z</time></trkpt><trkpt lat="44.50904907562562" lon="10.56995570194306"><ele>548.0</ele><time>2026-04-06T12:55:25Z</time></trkpt><trkpt lat="44.50893050497029" lon="10.569957672831569"><ele>548.0</ele><time>2026-04-06T12:55:26Z</time></trkpt><trkpt lat="44.50883087567925" lon="10.569961189797521"><ele>548.0</ele><time>2026-04-06T12:55:27Z</time></trkpt><trkpt lat="44.50871395706211" lon="10.569961813939667"><ele>548.0</ele><time>2026-04-06T12:55:28Z</time></trkpt><trkpt lat="44.5086078266077" lon="10.569991648001485"><ele>548.0</ele><time>2026-04-06T12:55:29Z</time></trkpt><trkpt lat="44.508496463256186" lon="10.570023180664148"><ele>548.0</ele><time>2026-04-06T12:55:30Z</time></trkpt><trkpt lat="44.50838334204389" lon="10.570050959500689"><ele>547.6</ele><time>2026-04-06T12:55:31Z</time></trkpt><trkpt lat="44.50826800127883" lon="10.570080193551773"><ele>547.1999999999999</ele><time>2026-04-06T12:55:32Z</time></trkpt><trkpt lat="44.508154991132834" lon="10.5701146956004"><ele>546.8</ele><time>2026-04-06T12:55:33Z</time></trkpt><trkpt lat="44.50804979024555" lon="10.570153772429476"><ele>546.4</ele><time>2026-04-06T12:55:34Z</time></trkpt><trkpt lat="44.50795267764651" lon="10.570202134498217"><ele>546.0</ele><time>2026-04-06T12:55:35Z</time></trkpt><trkpt lat="44.5078602903086" lon="10.570250438448495"><ele>545.6</ele><time>2026-04-06T12:55:36Z</time></trkpt><trkpt lat="44.50775340576047" lon="10.570269534819122"><ele>545.2</ele><time>2026-04-06T12:55:37Z</time></trkpt><trkpt lat="44.50766370140251" lon="10.57027851629042"><ele>544.8</ele><time>2026-04-06T12:55:38Z</time></trkpt><trkpt lat="44.507567771902714" lon="10.570281832716734"><ele>544.4</ele><time>2026-04-06T12:55:39Z</time></trkpt><trkpt lat="44.50746998789675" lon="10.570290529128071"><ele>544.0</ele><time>2026-04-06T12:55:40Z</time></trkpt><trkpt lat="44.50736786608551" lon="10.570299406053534"><ele>544.0</ele><time>2026-04-06T12:55:41Z</time></trkpt><trkpt lat="44.50727794942731" lon="10.57030237635562"><ele>544.0</ele><time>2026-04-06T12:55:42Z</time></trkpt><trkpt lat="44.50718224834453" lon="10.570283156107493"><ele>544.0</ele><time>2026-04-06T12:55:43Z</time></trkpt><trkpt lat="44.50710433876538" lon="10.570247337862325"><ele>544.0</ele><time>2026-04-06T12:55:44Z</time></trkpt><trkpt lat="44.50701683852088" lon="10.570202471460622"><ele>544.0</ele><time>2026-04-06T12:55:45Z</time></trkpt><trkpt lat="44.506937945304614" lon="10.57015059041505"><ele>544.0</ele><time>2026-04-06T12:55:46Z</time></trkpt><trkpt lat="44.50684238423543" lon="10.570111083732646"><ele>543.5</ele><time>2026-04-06T12:55:47Z</time></trkpt><trkpt lat="44.50675412991883" lon="10.570092303042788"><ele>543.0</ele><time>2026-04-06T12:55:48Z</time></trkpt><trkpt lat="44.506661177410386" lon="10.57008656026437"><ele>542.5</ele><time>2026-04-06T12:55:49Z</time></trkpt><trkpt lat="44.50657833133503" lon="10.570076187987597"><ele>542.0</ele><time>2026-04-06T12:55:50Z</time></trkpt><trkpt lat="44.50649152046296" lon="10.570064386837815"><ele>541.5</ele><time>2026-04-06T12:55:51Z</time></trkpt><trkpt lat="44.50641019142875" lon="10.570039999120517"><ele>541.0</ele><time>2026-04-06T12:55:52Z</time></trkpt><trkpt lat="44.5063240823431" lon="10.57000627748046"><ele>541.0</ele><time>2026-04-06T12:55:53Z</time></trkpt><trkpt lat="44.506249136085344" lon="10.569971547848528"><ele>541.0</ele><time>2026-04-06T12:55:54Z</time></trkpt><trkpt lat="44.50618791991706" lon="10.569931870917047"><ele>541.0</ele><time>2026-04-06T12:55:55Z</time></trkpt><trkpt lat="44.50612343126519" lon="10.569873698735456"><ele>541.0</ele><time>2026-04-06T12:55:56Z</time></trkpt><trkpt lat="44.50605722253776" lon="10.5698122220206"><ele>541.0</ele><time>2026-04-06T12:55:57Z</time></trkpt><trkpt lat="44.50600014165457" lon="10.569732957658667"><ele>541.0</ele><time>2026-04-06T12:55:58Z</time></trkpt><trkpt lat="44.50593879044384" lon="10.569643992855982"><ele>539.1666666666667</ele><time>2026-04-06T12:55:59Z</time></trkpt><trkpt lat="44.505864320604125" lon="10.569576202365557"><ele>537.3333333333334</ele><time>2026-04-06T12:56:00Z</time></trkpt><trkpt lat="44.50578943753371" lon="10.569519597726709"><ele>535.5</ele><time>2026-04-06T12:56:01Z</time></trkpt><trkpt lat="44.50571462817282" lon="10.569462634526728"><ele>533.6666666666666</ele><time>2026-04-06T12:56:02Z</time></trkpt><trkpt lat="44.50563719190569" lon="10.569405141324816"><ele>531.8333333333333</ele><time>2026-04-06T12:56:03Z</time></trkpt><trkpt lat="44.50555648334954" lon="10.569348090113886"><ele>530.0</ele><time>2026-04-06T12:56:04Z</time></trkpt><trkpt lat="44.50547394080164" lon="10.569281613786563"><ele>526.8</ele><time>2026-04-06T12:56:05Z</time></trkpt><trkpt lat="44.505388005828024" lon="10.569208933251264"><ele>523.6</ele><time>2026-04-06T12:56:06Z</time></trkpt><trkpt lat="44.50530193635881" lon="10.569141483532345"><ele>520.4</ele><time>2026-04-06T12:56:07Z</time></trkpt><trkpt lat="44.505219318800904" lon="10.56907229021704"><ele>517.2</ele><time>2026-04-06T12:56:08Z</time></trkpt><trkpt lat="44.50513461804785" lon="10.569000928113027"><ele>514.0</ele><time>2026-04-06T12:56:09Z</time></trkpt><trkpt lat="44.505062342383056" lon="10.568909780111253"><ele>514.0</ele><time>2026-04-06T12:56:10Z</time></trkpt><trkpt lat="44.504990950454506" lon="10.568852688719232"><ele>514.0</ele><time>2026-04-06T12:56:11Z</time></trkpt><trkpt lat="44.50492124571921" lon="10.568795070825777"><ele>514.0</ele><time>2026-04-06T12:56:12Z</time></trkpt><trkpt lat="44.50487401187642" lon="10.56870800831942"><ele>514.0</ele><time>2026-04-06T12:56:13Z</time></trkpt><trkpt lat="44.504846682324654" lon="10.568599440049237"><ele>514.0</ele><time>2026-04-06T12:56:14Z</time></trkpt><trkpt lat="44.504839082153815" lon="10.5684832711699"><ele>514.0</ele><time>2026-04-06T12:56:15Z</time></trkpt><trkpt lat="44.50483829410708" lon="10.56837476863497"><ele>514.2857142857142</ele><time>2026-04-06T12:56:16Z</time></trkpt><trkpt lat="44.50483882402773" lon="10.568269275153034"><ele>514.5714285714286</ele><time>2026-04-06T12:56:17Z</time></trkpt><trkpt lat="44.50483721933354" lon="10.568169193744948"><ele>514.8571428571429</ele><time>2026-04-06T12:56:18Z</time></trkpt><trkpt lat="44.504834967964065" lon="10.56807143634508"><ele>515.1428571428571</ele><time>2026-04-06T12:56:19Z</time></trkpt><trkpt lat="44.50482843955631" lon="10.567972092929278"><ele>515.4285714285714</ele><time>2026-04-06T12:56:20Z</time></trkpt><trkpt lat="44.504813320693636" lon="10.567875099303986"><ele>515.7142857142857</ele><time>2026-04-06T12:56:21Z</time></trkpt><trkpt lat="44.50479285811681" lon="10.567779393516952"><ele>516.0</ele><time>2026-04-06T12:56:22Z</time></trkpt><trkpt lat="44.504775402995655" lon="10.567686023872291"><ele>515.9999999999999</ele><time>2026-04-06T12:56:23Z</time></trkpt><trkpt lat="44.5047585744649" lon="10.567591406382443"><ele>516.0</ele><time>2026-04-06T12:56:24Z</time></trkpt><trkpt lat="44.50474582666235" lon="10.56749860526567"><ele>516.0</ele><time>2026-04-06T12:56:25Z</time></trkpt><trkpt lat="44.50473404278427" lon="10.567402322857863"><ele>516.0</ele><time>2026-04-06T12:56:26Z</time></trkpt><trkpt lat="44.50472510458658" lon="10.567308522729732"><ele>516.0</ele><time>2026-04-06T12:56:27Z</time></trkpt><trkpt lat="44.50471611555333" lon="10.567214137449401"><ele>515.9999999999999</ele><time>2026-04-06T12:56:28Z</time></trkpt><trkpt lat="44.50470373165806" lon="10.567121118188481"><ele>516.0</ele><time>2026-04-06T12:56:29Z</time></trkpt><trkpt lat="44.50468716918787" lon="10.56702867708163"><ele>515.9999999999999</ele><time>2026-04-06T12:56:30Z</time></trkpt><trkpt lat="44.50467086895753" lon="10.566932301447464"><ele>516.0</ele><time>2026-04-06T12:56:31Z</time></trkpt><trkpt lat="44.50465238697947" lon="10.56683254987167"><ele>516.0</ele><time>2026-04-06T12:56:32Z</time></trkpt><trkpt lat="44.50463519305975" lon="10.566737092166381"><ele>516.0</ele><time>2026-04-06T12:56:33Z</time></trkpt><trkpt lat="44.5046200089772" lon="10.566642974883441"><ele>516.0</ele><time>2026-04-06T12:56:34Z</time></trkpt><trkpt lat="44.504605498831545" lon="10.566549436482745"><ele>515.9999999999999</ele><time>2026-04-06T12:56:35Z</time></trkpt><trkpt lat="44.504596356371565" lon="10.566453998183317"><ele>516.0</ele><time>2026-04-06T12:56:36Z</time></trkpt><trkpt lat="44.50458741180003" lon="10.566360498868914"><ele>516.0</ele><time>2026-04-06T12:56:37Z</time></trkpt><trkpt lat="44.50457983850015" lon="10.566267449225299"><ele>516.0</ele><time>2026-04-06T12:56:38Z</time></trkpt><trkpt lat="44.50457197250646" lon="10.566174045979297"><ele>516.0</ele><time>2026-04-06T12:56:39Z</time></trkpt><trkpt lat="44.504562783063065" lon="10.566080936226168"><ele>516.0</ele><time>2026-04-06T12:56:40Z</time></trkpt><trkpt lat="44.50453490600944" lon="10.565932708296346"><ele>516.0</ele><time>2026-04-06T12:56:42Z</time></trkpt><trkpt lat="44.50452704433875" lon="10.565833044435621"><ele>516.0</ele><time>2026-04-06T12:56:44Z</time></trkpt><trkpt lat="44.50442025297435" lon="10.56579276502125"><ele>516.4</ele><time>2026-04-06T12:56:47Z</time></trkpt><trkpt lat="44.504290937578475" lon="10.565820030205163"><ele>516.8</ele><time>2026-04-06T12:56:49Z</time></trkpt><trkpt lat="44.50421674284172" lon="10.565834629931727"><ele>517.1999999999999</ele><time>2026-04-06T12:56:50Z</time></trkpt><trkpt lat="44.50413969413144" lon="10.565855878751849"><ele>517.6</ele><time>2026-04-06T12:56:51Z</time></trkpt><trkpt lat="44.50405504165168" lon="10.56589072244712"><ele>518.0</ele><time>2026-04-06T12:56:52Z</time></trkpt><trkpt lat="44.50397597055328" lon="10.565934499209666"><ele>518.0</ele><time>2026-04-06T12:56:53Z</time></trkpt><trkpt lat="44.503900171203064" lon="10.565974026941436"><ele>518.0</ele><time>2026-04-06T12:56:54Z</time></trkpt><trkpt lat="44.5038165468531" lon="10.5660169198446"><ele>518.0</ele><time>2026-04-06T12:56:55Z</time></trkpt><trkpt lat="44.50373031344907" lon="10.56606586342718"><ele>518.0</ele><time>2026-04-06T12:56:56Z</time></trkpt><trkpt lat="44.50364172917965" lon="10.56610761070512"><ele>518.0</ele><time>2026-04-06T12:56:57Z</time></trkpt><trkpt lat="44.503556579542234" lon="10.566157551059286"><ele>518.0</ele><time>2026-04-06T12:56:58Z</time></trkpt><trkpt lat="44.50347225835543" lon="10.566209746280094"><ele>518.0</ele><time>2026-04-06T12:56:59Z</time></trkpt><trkpt lat="44.503385621843634" lon="10.566253988254424"><ele>518.0</ele><time>2026-04-06T12:57:00Z</time></trkpt><trkpt lat="44.50329717752649" lon="10.566294829896151"><ele>518.0</ele><time>2026-04-06T12:57:01Z</time></trkpt><trkpt lat="44.50320993247908" lon="10.566318911052086"><ele>518.0</ele><time>2026-04-06T12:57:02Z</time></trkpt><trkpt lat="44.50312156456432" lon="10.566343681399266"><ele>518.0</ele><time>2026-04-06T12:57:03Z</time></trkpt><trkpt lat="44.50304002380043" lon="10.566374393424919"><ele>518.0</ele><time>2026-04-06T12:57:04Z</time></trkpt><trkpt lat="44.50294923973084" lon="10.566392898675181"><ele>518.0</ele><time>2026-04-06T12:57:05Z</time></trkpt><trkpt lat="44.502859065225216" lon="10.566391291760404"><ele>518.0</ele><time>2026-04-06T12:57:06Z</time></trkpt><trkpt lat="44.502764567749814" lon="10.566386613966808"><ele>518.0</ele><time>2026-04-06T12:57:07Z</time></trkpt><trkpt lat="44.502670366221636" lon="10.566364399777118"><ele>518.0</ele><time>2026-04-06T12:57:08Z</time></trkpt><trkpt lat="44.50257068715726" lon="10.56635111231692"><ele>518.0</ele><time>2026-04-06T12:57:09Z</time></trkpt><trkpt lat="44.50247825867545" lon="10.566337060301315"><ele>518.0</ele><time>2026-04-06T12:57:10Z</time></trkpt><trkpt lat="44.50238865892612" lon="10.566316176911018"><ele>518.0</ele><time>2026-04-06T12:57:11Z</time></trkpt><trkpt lat="44.50230183437957" lon="10.566278596798522"><ele>518.0</ele><time>2026-04-06T12:57:12Z</time></trkpt><trkpt lat="44.502213975597364" lon="10.566246199823208"><ele>518.0</ele><time>2026-04-06T12:57:12.999Z</time></trkpt><trkpt lat="44.5021243402001" lon="10.56621433180198"><ele>518.0</ele><time>2026-04-06T12:57:13.999Z</time></trkpt><trkpt lat="44.502033890312816" lon="10.56618634230683"><ele>518.6666666666666</ele><time>2026-04-06T12:57:15Z</time></trkpt><trkpt lat="44.501943261252855" lon="10.566167391079096"><ele>519.3333333333333</ele><time>2026-04-06T12:57:16Z</time></trkpt><trkpt lat="44.501854580264784" lon="10.566152201756852"><ele>520.0</ele><time>2026-04-06T12:57:17Z</time></trkpt><trkpt lat="44.50176800517966" lon="10.566139302915474"><ele>520.6666666666666</ele><time>2026-04-06T12:57:18Z</time></trkpt><trkpt lat="44.501678171375566" lon="10.566127845882903"><ele>521.3333333333334</ele><time>2026-04-06T12:57:19Z</time></trkpt><trkpt lat="44.50158840203199" lon="10.566130138063732"><ele>522.0</ele><time>2026-04-06T12:57:20Z</time></trkpt><trkpt lat="44.50149164139693" lon="10.566153025904203"><ele>521.0</ele><time>2026-04-06T12:57:21Z</time></trkpt><trkpt lat="44.5013780318702" lon="10.566195544708934"><ele>520.0</ele><time>2026-04-06T12:57:22Z</time></trkpt><trkpt lat="44.50124062903955" lon="10.566244419193927"><ele>519.0</ele><time>2026-04-06T12:57:23Z</time></trkpt><trkpt lat="44.50108420707954" lon="10.566295499225985"><ele>518.0</ele><time>2026-04-06T12:57:24Z</time></trkpt><trkpt lat="44.5009347638306" lon="10.566328167817908"><ele>517.5</ele><time>2026-04-06T12:57:25Z</time></trkpt><trkpt lat="44.50079895944811" lon="10.566338971361537"><ele>517.0</ele><time>2026-04-06T12:57:26Z</time></trkpt><trkpt lat="44.50066551892515" lon="10.566349884867197"><ele>516.5</ele><time>2026-04-06T12:57:27Z</time></trkpt><trkpt lat="44.50054865281895" lon="10.566334686338967"><ele>516.0</ele><time>2026-04-06T12:57:28Z</time></trkpt><trkpt lat="44.500417942339936" lon="10.566330357488862"><ele>516.0</ele><time>2026-04-06T12:57:29Z</time></trkpt><trkpt lat="44.50028774897362" lon="10.566324906879105"><ele>516.0</ele><time>2026-04-06T12:57:30Z</time></trkpt><trkpt lat="44.5001498188969" lon="10.566313631391568"><ele>516.0</ele><time>2026-04-06T12:57:31Z</time></trkpt><trkpt lat="44.50001619371582" lon="10.56632054929227"><ele>516.0</ele><time>2026-04-06T12:57:32Z</time></trkpt><trkpt lat="44.49988894544387" lon="10.56633042805705"><ele>516.0</ele><time>2026-04-06T12:57:33Z</time></trkpt><trkpt lat="44.49976252046979" lon="10.566357061115234"><ele>516.0</ele><time>2026-04-06T12:57:34Z</time></trkpt><trkpt lat="44.49963682609735" lon="10.566394646768318"><ele>516.0</ele><time>2026-04-06T12:57:35Z</time></trkpt><trkpt lat="44.49951292334617" lon="10.566438915387852"><ele>516.0</ele><time>2026-04-06T12:57:36Z</time></trkpt><trkpt lat="44.49937491845036" lon="10.566477926596955"><ele>515.0</ele><time>2026-04-06T12:57:37Z</time></trkpt><trkpt lat="44.49925738713037" lon="10.56650463260784"><ele>514.0</ele><time>2026-04-06T12:57:38Z</time></trkpt><trkpt lat="44.499154025516575" lon="10.566533358973981"><ele>513.0</ele><time>2026-04-06T12:57:39Z</time></trkpt><trkpt lat="44.49905394278287" lon="10.566573906653892"><ele>512.0</ele><time>2026-04-06T12:57:40Z</time></trkpt><trkpt lat="44.49895413555777" lon="10.566636419991385"><ele>511.0</ele><time>2026-04-06T12:57:41Z</time></trkpt><trkpt lat="44.49885785709801" lon="10.566739421043916"><ele>511.0</ele><time>2026-04-06T12:57:42Z</time></trkpt><trkpt lat="44.49875243910247" lon="10.566883050501305"><ele>511.0</ele><time>2026-04-06T12:57:43Z</time></trkpt><trkpt lat="44.49864152984321" lon="10.567041566282963"><ele>511.0</ele><time>2026-04-06T12:57:44Z</time></trkpt><trkpt lat="44.49851641045686" lon="10.567191051153948"><ele>509.5</ele><time>2026-04-06T12:57:45Z</time></trkpt><trkpt lat="44.49838283180037" lon="10.567304916577427"><ele>508.0</ele><time>2026-04-06T12:57:46Z</time></trkpt><trkpt lat="44.4982586185084" lon="10.567395554732967"><ele>506.5</ele><time>2026-04-06T12:57:47Z</time></trkpt><trkpt lat="44.49815903788218" lon="10.567484219494114"><ele>505.0</ele><time>2026-04-06T12:57:48Z</time></trkpt><trkpt lat="44.49806569760219" lon="10.567579724462664"><ele>505.0</ele><time>2026-04-06T12:57:49Z</time></trkpt><trkpt lat="44.49797313045244" lon="10.567666937045866"><ele>505.0</ele><time>2026-04-06T12:57:50Z</time></trkpt><trkpt lat="44.49787424245387" lon="10.567778788246994"><ele>505.0</ele><time>2026-04-06T12:57:51Z</time></trkpt><trkpt lat="44.49778978489494" lon="10.567918630634027"><ele>505.0</ele><time>2026-04-06T12:57:52Z</time></trkpt><trkpt lat="44.49768066300721" lon="10.568023426407246"><ele>502.0</ele><time>2026-04-06T12:57:53Z</time></trkpt><trkpt lat="44.497585093404204" lon="10.56811683333228"><ele>499.0</ele><time>2026-04-06T12:57:54Z</time></trkpt><trkpt lat="44.49749511832904" lon="10.568166727663602"><ele>496.0</ele><time>2026-04-06T12:57:55Z</time></trkpt><trkpt lat="44.497382681788345" lon="10.568198839799063"><ele>493.0</ele><time>2026-04-06T12:57:56Z</time></trkpt><trkpt lat="44.49724948219563" lon="10.568255470299382"><ele>493.0</ele><time>2026-04-06T12:57:57Z</time></trkpt><trkpt lat="44.497101355773125" lon="10.568359045737258"><ele>493.0</ele><time>2026-04-06T12:57:58Z</time></trkpt><trkpt lat="44.496965718549326" lon="10.568438406195643"><ele>493.0</ele><time>2026-04-06T12:57:59Z</time></trkpt><trkpt lat="44.49684352037221" lon="10.568490441513367"><ele>493.0</ele><time>2026-04-06T12:58:00Z</time></trkpt><trkpt lat="44.49673431123476" lon="10.568556266155397"><ele>489.5</ele><time>2026-04-06T12:58:01Z</time></trkpt><trkpt lat="44.49661761954074" lon="10.568633666485535"><ele>486.0</ele><time>2026-04-06T12:58:02Z</time></trkpt><trkpt lat="44.49651036629098" lon="10.568698897976015"><ele>482.5</ele><time>2026-04-06T12:58:03Z</time></trkpt><trkpt lat="44.49639387930498" lon="10.56874151418552"><ele>479.0</ele><time>2026-04-06T12:58:04Z</time></trkpt><trkpt lat="44.4962491891762" lon="10.568758015684967"><ele>475.5</ele><time>2026-04-06T12:58:05Z</time></trkpt><trkpt lat="44.49611513089708" lon="10.56876919794862"><ele>472.0</ele><time>2026-04-06T12:58:06Z</time></trkpt><trkpt lat="44.4960064184764" lon="10.568784104024969"><ele>468.5</ele><time>2026-04-06T12:58:07Z</time></trkpt><trkpt lat="44.49589851235811" lon="10.568818834653804"><ele>465.0</ele><time>2026-04-06T12:58:08Z</time></trkpt><trkpt lat="44.495782244306646" lon="10.568886470396292"><ele>465.0</ele><time>2026-04-06T12:58:09Z</time></trkpt><trkpt lat="44.49566916404175" lon="10.568969974391049"><ele>465.0</ele><time>2026-04-06T12:58:10Z</time></trkpt><trkpt lat="44.49556051110242" lon="10.56905761240077"><ele>465.0</ele><time>2026-04-06T12:58:11Z</time></trkpt><trkpt lat="44.49546033707649" lon="10.569151136333131"><ele>465.0</ele><time>2026-04-06T12:58:12Z</time></trkpt><trkpt lat="44.49537284904003" lon="10.569248599321172"><ele>464.0</ele><time>2026-04-06T12:58:13Z</time></trkpt><trkpt lat="44.49530159148714" lon="10.569336604764938"><ele>463.0</ele><time>2026-04-06T12:58:14Z</time></trkpt><trkpt lat="44.495252887952574" lon="10.569421684675593"><ele>462.0</ele><time>2026-04-06T12:58:15Z</time></trkpt><trkpt lat="44.49521338273866" lon="10.569495690891761"><ele>461.0</ele><time>2026-04-06T12:58:16Z</time></trkpt><trkpt lat="44.49517939068753" lon="10.569582965053087"><ele>460.0</ele><time>2026-04-06T12:58:17Z</time></trkpt><trkpt lat="44.49513559822222" lon="10.569653011933898"><ele>459.0</ele><time>2026-04-06T12:58:18Z</time></trkpt><trkpt lat="44.49506461336988" lon="10.56970226348831"><ele>458.1666666666667</ele><time>2026-04-06T12:58:19Z</time></trkpt><trkpt lat="44.494965834483175" lon="10.569757351857"><ele>457.33333333333337</ele><time>2026-04-06T12:58:20Z</time></trkpt><trkpt lat="44.49487441686894" lon="10.569812326453397"><ele>456.5</ele><time>2026-04-06T12:58:21Z</time></trkpt><trkpt lat="44.494790123422064" lon="10.569861719414787"><ele>455.6666666666667</ele><time>2026-04-06T12:58:22Z</time></trkpt><trkpt lat="44.49472888521444" lon="10.569909412486899"><ele>454.83333333333337</ele><time>2026-04-06T12:58:23Z</time></trkpt><trkpt lat="44.494661453041296" lon="10.56994798898735"><ele>454.0</ele><time>2026-04-06T12:58:24Z</time></trkpt><trkpt lat="44.49455663670421" lon="10.569962240078748"><ele>453.0</ele><time>2026-04-06T12:58:25Z</time></trkpt><trkpt lat="44.49445458223068" lon="10.56999140579526"><ele>452.0</ele><time>2026-04-06T12:58:26Z</time></trkpt><trkpt lat="44.494376339211016" lon="10.57004313920943"><ele>451.0</ele><time>2026-04-06T12:58:27Z</time></trkpt><trkpt lat="44.494300290286326" lon="10.57010124210888"><ele>450.0</ele><time>2026-04-06T12:58:28Z</time></trkpt><trkpt lat="44.49421332242197" lon="10.570179038735215"><ele>449.0</ele><time>2026-04-06T12:58:29Z</time></trkpt><trkpt lat="44.49413328532663" lon="10.570265032663016"><ele>449.0</ele><time>2026-04-06T12:58:30Z</time></trkpt><trkpt lat="44.49405722004911" lon="10.570334093586984"><ele>449.0</ele><time>2026-04-06T12:58:31Z</time></trkpt><trkpt lat="44.493966203499795" lon="10.570465138990262"><ele>449.0</ele><time>2026-04-06T12:58:33Z</time></trkpt><trkpt lat="44.493906200925714" lon="10.570511996801388"><ele>449.0</ele><time>2026-04-06T12:58:34Z</time></trkpt><trkpt lat="44.49382646817254" lon="10.570518827901262"><ele>449.0</ele><time>2026-04-06T12:58:35Z</time></trkpt><trkpt lat="44.49374521861957" lon="10.57051135081349"><ele>445.4</ele><time>2026-04-06T12:58:36Z</time></trkpt><trkpt lat="44.49365806850317" lon="10.570479994091562"><ele>441.79999999999995</ele><time>2026-04-06T12:58:37Z</time></trkpt><trkpt lat="44.493575914780166" lon="10.570432837200414"><ele>438.20000000000005</ele><time>2026-04-06T12:58:38Z</time></trkpt><trkpt lat="44.493496747939844" lon="10.570384682909344"><ele>434.6</ele><time>2026-04-06T12:58:39Z</time></trkpt><trkpt lat="44.49342295200124" lon="10.57034908109253"><ele>431.0</ele><time>2026-04-06T12:58:40Z</time></trkpt><trkpt lat="44.49332218632914" lon="10.570288911492893"><ele>430.99999999999994</ele><time>2026-04-06T12:58:42Z</time></trkpt><trkpt lat="44.49325092571654" lon="10.570308144388548"><ele>431.0</ele><time>2026-04-06T12:58:43Z</time></trkpt><trkpt lat="44.493192465879964" lon="10.570348317642079"><ele>431.0</ele><time>2026-04-06T12:58:44Z</time></trkpt><trkpt lat="44.493120616652185" lon="10.570364280903698"><ele>431.0</ele><time>2026-04-06T12:58:45Z</time></trkpt><trkpt lat="44.493042316311886" lon="10.570378582175824"><ele>430.99999999999994</ele><time>2026-04-06T12:58:46Z</time></trkpt><trkpt lat="44.49295856632978" lon="10.570423981021126"><ele>431.0</ele><time>2026-04-06T12:58:47Z</time></trkpt><trkpt lat="44.492883447141686" lon="10.570469097455874"><ele>428.49999999999994</ele><time>2026-04-06T12:58:48Z</time></trkpt><trkpt lat="44.492792849415494" lon="10.57048017170946"><ele>426.0</ele><time>2026-04-06T12:58:49Z</time></trkpt><trkpt lat="44.49270168712804" lon="10.570496279911676"><ele>423.5</ele><time>2026-04-06T12:58:50Z</time></trkpt><trkpt lat="44.49260647433777" lon="10.570530849823822"><ele>421.0</ele><time>2026-04-06T12:58:51Z</time></trkpt><trkpt lat="44.492529754963385" lon="10.570582022644633"><ele>418.49999999999994</ele><time>2026-04-06T12:58:52Z</time></trkpt><trkpt lat="44.492465359575554" lon="10.570642317165401"><ele>416.0</ele><time>2026-04-06T12:58:53Z</time></trkpt><trkpt lat="44.49241268941648" lon="10.570705292034756"><ele>415.99999999999994</ele><time>2026-04-06T12:58:54Z</time></trkpt><trkpt lat="44.492335014887786" lon="10.570756809370847"><ele>416.0</ele><time>2026-04-06T12:58:55Z</time></trkpt><trkpt lat="44.49227654941768" lon="10.570794935543653"><ele>416.0</ele><time>2026-04-06T12:58:56Z</time></trkpt><trkpt lat="44.49221387124259" lon="10.570835386482521"><ele>416.0</ele><time>2026-04-06T12:58:57Z</time></trkpt><trkpt lat="44.4921493328596" lon="10.57084111029826"><ele>415.99999999999994</ele><time>2026-04-06T12:58:58Z</time></trkpt><trkpt lat="44.492064765315384" lon="10.570838868752952"><ele>416.0</ele><time>2026-04-06T12:59:00Z</time></trkpt><trkpt lat="44.49198349296628" lon="10.570827850553442"><ele>413.3333333333333</ele><time>2026-04-06T12:59:02Z</time></trkpt><trkpt lat="44.49188963872771" lon="10.570753667010099"><ele>410.66666666666663</ele><time>2026-04-06T12:59:04Z</time></trkpt><trkpt lat="44.491829391362764" lon="10.570699872260855"><ele>408.0</ele><time>2026-04-06T12:59:05Z</time></trkpt><trkpt lat="44.49177410774421" lon="10.570644600256582"><ele>405.33333333333337</ele><time>2026-04-06T12:59:06Z</time></trkpt><trkpt lat="44.49171330879155" lon="10.570595050306494"><ele>402.6666666666667</ele><time>2026-04-06T12:59:07Z</time></trkpt><trkpt lat="44.491658571405765" lon="10.570543991921348"><ele>400.0</ele><time>2026-04-06T12:59:08Z</time></trkpt><trkpt lat="44.49157442714686" lon="10.570475873520724"><ele>400.00000000000006</ele><time>2026-04-06T12:59:10Z</time></trkpt><trkpt lat="44.49150007093949" lon="10.570467730572814"><ele>400.0</ele><time>2026-04-06T12:59:12Z</time></trkpt><trkpt lat="44.49141029573518" lon="10.570437866597045"><ele>400.0</ele><time>2026-04-06T12:59:14Z</time></trkpt><trkpt lat="44.49135034796878" lon="10.570488433647808"><ele>400.0</ele><time>2026-04-06T12:59:20Z</time></trkpt><trkpt lat="44.49130377003739" lon="10.570572224571633"><ele>400.0</ele><time>2026-04-06T12:59:29Z</time></trkpt><trkpt lat="44.49125850438546" lon="10.570638484731832"><ele>400.00000000000006</ele><time>2026-04-06T12:59:45Z</time></trkpt><trkpt lat="44.491223569219734" lon="10.570718597526756"><ele>400.0</ele><time>2026-04-06T13:00:05Z</time></trkpt><trkpt lat="44.49121560770976" lon="10.57081334878639"><ele>396.50000000000006</ele><time>2026-04-06T13:03:17.999Z</time></trkpt><trkpt lat="44.491184909776834" lon="10.570925133790693"><ele>393.0</ele><time>2026-04-06T13:03:20.999Z</time></trkpt><trkpt lat="44.491182835150454" lon="10.571028497635385"><ele>389.5</ele><time>2026-04-06T13:03:22.999Z</time></trkpt><trkpt lat="44.49117321647559" lon="10.571146216705419"><ele>386.0</ele><time>2026-04-06T13:03:24.999Z</time></trkpt><trkpt lat="44.4911206493321" lon="10.571279769576257"><ele>382.5</ele><time>2026-04-06T13:03:26.999Z</time></trkpt><trkpt lat="44.49105173294065" lon="10.571306938062435"><ele>379.0</ele><time>2026-04-06T13:03:28.999Z</time></trkpt><trkpt lat="44.490968643441626" lon="10.571262306594102"><ele>379.0</ele><time>2026-04-06T13:03:30.999Z</time></trkpt><trkpt lat="44.490894160351985" lon="10.571202976819256"><ele>379.0</ele><time>2026-04-06T13:03:33Z</time></trkpt><trkpt lat="44.49080143108931" lon="10.571167777610471"><ele>379.0</ele><time>2026-04-06T13:03:35Z</time></trkpt><trkpt lat="44.4907107489272" lon="10.571132759283062"><ele>379.0</ele><time>2026-04-06T13:03:37Z</time></trkpt><trkpt lat="44.49062282385224" lon="10.571140233523918"><ele>379.0</ele><time>2026-04-06T13:03:39Z</time></trkpt><trkpt lat="44.490541491797636" lon="10.571133197933714"><ele>379.0</ele><time>2026-04-06T13:03:43Z</time></trkpt><trkpt lat="44.49035054028325" lon="10.57106471158179"><ele>374.8333333333333</ele><time>2026-04-06T13:03:45Z</time></trkpt><trkpt lat="44.49030281102292" lon="10.570999393638948"><ele>370.66666666666663</ele><time>2026-04-06T13:03:46Z</time></trkpt><trkpt lat="44.49023636548035" lon="10.57089740775002"><ele>366.5</ele><time>2026-04-06T13:03:48Z</time></trkpt><trkpt lat="44.490184967759895" lon="10.570816120211543"><ele>362.3333333333333</ele><time>2026-04-06T13:03:50Z</time></trkpt><trkpt lat="44.49017134274596" lon="10.570700978351047"><ele>358.1666666666667</ele><time>2026-04-06T13:03:55Z</time></trkpt><trkpt lat="44.490125727157015" lon="10.570630756787612"><ele>354.0</ele><time>2026-04-06T13:03:59Z</time></trkpt><trkpt lat="44.49008042225361" lon="10.570564887385002"><ele>354.0</ele><time>2026-04-06T13:04:01Z</time></trkpt><trkpt lat="44.49001167767485" lon="10.570488358202642"><ele>354.0</ele><time>2026-04-06T13:04:04Z</time></trkpt><trkpt lat="44.48993519603758" lon="10.570455607370354"><ele>354.0</ele><time>2026-04-06T13:04:06Z</time></trkpt><trkpt lat="44.48987108633644" lon="10.570401387152039"><ele>354.0</ele><time>2026-04-06T13:04:09Z</time></trkpt><trkpt lat="44.4898133665287" lon="10.570340512438214"><ele>354.0</ele><time>2026-04-06T13:04:12Z</time></trkpt><trkpt lat="44.48975746725588" lon="10.570403858082148"><ele>354.0</ele><time>2026-04-06T13:04:19Z</time></trkpt><trkpt lat="44.48974086751631" lon="10.570524834566136"><ele>354.0</ele><time>2026-04-06T13:04:22Z</time></trkpt><trkpt lat="44.48967449349023" lon="10.570488881754615"><ele>354.0</ele><time>2026-04-06T13:04:27Z</time></trkpt><trkpt lat="44.48962370337985" lon="10.570359212270093"><ele>354.0</ele><time>2026-04-06T13:04:29Z</time></trkpt><trkpt lat="44.48950188157226" lon="10.570182402150559"><ele>354.0</ele><time>2026-04-06T13:04:31Z</time></trkpt><trkpt lat="44.489420874330406" lon="10.570116272105361"><ele>354.0</ele><time>2026-04-06T13:04:32Z</time></trkpt><trkpt lat="44.48926941525615" lon="10.570086541699906"><ele>351.2</ele><time>2026-04-06T13:04:33Z</time></trkpt><trkpt lat="44.489172762616576" lon="10.570002566775859"><ele>348.4</ele><time>2026-04-06T13:04:34Z</time></trkpt><trkpt lat="44.489074501430665" lon="10.56993682975467"><ele>345.6</ele><time>2026-04-06T13:04:35Z</time></trkpt><trkpt lat="44.48899148582533" lon="10.569864938025935"><ele>342.8</ele><time>2026-04-06T13:04:36Z</time></trkpt><trkpt lat="44.488876581296715" lon="10.569859088798498"><ele>340.0</ele><time>2026-04-06T13:04:37Z</time></trkpt><trkpt lat="44.48876933322539" lon="10.569887435985136"><ele>340.5</ele><time>2026-04-06T13:04:38Z</time></trkpt><trkpt lat="44.48866785858478" lon="10.569945887163335"><ele>341.0</ele><time>2026-04-06T13:04:39Z</time></trkpt><trkpt lat="44.48857552590016" lon="10.570038074976585"><ele>341.5</ele><time>2026-04-06T13:04:40Z</time></trkpt><trkpt lat="44.48849900475777" lon="10.570155046013042"><ele>342.0</ele><time>2026-04-06T13:04:41Z</time></trkpt><trkpt lat="44.488400664654144" lon="10.570259509296799"><ele>342.0</ele><time>2026-04-06T13:04:42Z</time></trkpt><trkpt lat="44.48830252423256" lon="10.57034800381605"><ele>342.0</ele><time>2026-04-06T13:04:43Z</time></trkpt><trkpt lat="44.488207506169395" lon="10.57041215798188"><ele>342.0</ele><time>2026-04-06T13:04:44Z</time></trkpt><trkpt lat="44.4881091182449" lon="10.570466904146075"><ele>342.0</ele><time>2026-04-06T13:04:45Z</time></trkpt><trkpt lat="44.48801722782937" lon="10.570519061453139"><ele>342.0</ele><time>2026-04-06T13:04:46Z</time></trkpt><trkpt lat="44.48790317096411" lon="10.570485965787599"><ele>342.75</ele><time>2026-04-06T13:04:47Z</time></trkpt><trkpt lat="44.48778613335951" lon="10.57046023724635"><ele>343.5</ele><time>2026-04-06T13:04:48Z</time></trkpt><trkpt lat="44.48765152664375" lon="10.570375516899453"><ele>344.25</ele><time>2026-04-06T13:04:49Z</time></trkpt><trkpt lat="44.48753098445443" lon="10.5703397975321"><ele>345.0</ele><time>2026-04-06T13:04:50Z</time></trkpt><trkpt lat="44.48740551650421" lon="10.570245851664039"><ele>345.0</ele><time>2026-04-06T13:04:51Z</time></trkpt><trkpt lat="44.48728661514846" lon="10.570162676220852"><ele>345.0</ele><time>2026-04-06T13:04:52Z</time></trkpt><trkpt lat="44.48718165390499" lon="10.570059425032289"><ele>345.0</ele><time>2026-04-06T13:04:53Z</time></trkpt><trkpt lat="44.487068204363446" lon="10.569980778674333"><ele>345.0</ele><time>2026-04-06T13:04:54Z</time></trkpt><trkpt lat="44.48695671084754" lon="10.56990342403653"><ele>344.5</ele><time>2026-04-06T13:04:55Z</time></trkpt><trkpt lat="44.486844631041556" lon="10.569828464208657"><ele>344.0</ele><time>2026-04-06T13:04:56Z</time></trkpt><trkpt lat="44.48673116892897" lon="10.569753565911958"><ele>343.5</ele><time>2026-04-06T13:04:57Z</time></trkpt><trkpt lat="44.48662023454027" lon="10.569670096980449"><ele>343.0</ele><time>2026-04-06T13:04:58Z</time></trkpt><trkpt lat="44.48650688919718" lon="10.569591737326997"><ele>343.5</ele><time>2026-04-06T13:04:59Z</time></trkpt><trkpt lat="44.486395685401796" lon="10.569510267365317"><ele>344.0</ele><time>2026-04-06T13:05:00Z</time></trkpt><trkpt lat="44.486283048710604" lon="10.569431654775716"><ele>344.5</ele><time>2026-04-06T13:05:01Z</time></trkpt><trkpt lat="44.48617067646334" lon="10.569360376930215"><ele>345.0</ele><time>2026-04-06T13:05:02Z</time></trkpt><trkpt lat="44.48604823441692" lon="10.569298889484797"><ele>345.0</ele><time>2026-04-06T13:05:03Z</time></trkpt><trkpt lat="44.48592347827665" lon="10.56924964104024"><ele>345.0</ele><time>2026-04-06T13:05:04Z</time></trkpt><trkpt lat="44.485798024483024" lon="10.569204792422873"><ele>345.0</ele><time>2026-04-06T13:05:05Z</time></trkpt><trkpt lat="44.48566865364241" lon="10.56917519966078"><ele>345.0</ele><time>2026-04-06T13:05:06Z</time></trkpt><trkpt lat="44.48554689294611" lon="10.569122328087872"><ele>344.5</ele><time>2026-04-06T13:05:07Z</time></trkpt><trkpt lat="44.48541586305364" lon="10.569094126814328"><ele>344.0</ele><time>2026-04-06T13:05:08Z</time></trkpt><trkpt lat="44.48530148823637" lon="10.569009101880585"><ele>343.5</ele><time>2026-04-06T13:05:09Z</time></trkpt><trkpt lat="44.48519455670728" lon="10.568893102345255"><ele>343.0</ele><time>2026-04-06T13:05:10Z</time></trkpt><trkpt lat="44.485114605318586" lon="10.568764966093848"><ele>343.4</ele><time>2026-04-06T13:05:11Z</time></trkpt><trkpt lat="44.485037888171824" lon="10.56866253137857"><ele>343.79999999999995</ele><time>2026-04-06T13:05:12Z</time></trkpt><trkpt lat="44.484960705255666" lon="10.56855268217536"><ele>344.2</ele><time>2026-04-06T13:05:13Z</time></trkpt><trkpt lat="44.48489558966416" lon="10.568449258844915"><ele>344.6</ele><time>2026-04-06T13:05:14Z</time></trkpt><trkpt lat="44.48483436575918" lon="10.568353685393397"><ele>345.0</ele><time>2026-04-06T13:05:15Z</time></trkpt><trkpt lat="44.484786129574275" lon="10.568271993332493"><ele>345.0</ele><time>2026-04-06T13:05:16Z</time></trkpt><trkpt lat="44.48469632996653" lon="10.56813574296641"><ele>345.0</ele><time>2026-04-06T13:05:17.999Z</time></trkpt><trkpt lat="44.484619008530345" lon="10.56807704082671"><ele>345.0</ele><time>2026-04-06T13:05:18.999Z</time></trkpt><trkpt lat="44.48451198701106" lon="10.568049347889987"><ele>345.0</ele><time>2026-04-06T13:05:19.999Z</time></trkpt><trkpt lat="44.48440858948259" lon="10.567970438918843"><ele>345.0</ele><time>2026-04-06T13:05:20.999Z</time></trkpt><trkpt lat="44.484292897162064" lon="10.567906136136196"><ele>345.4</ele><time>2026-04-06T13:05:21.999Z</time></trkpt><trkpt lat="44.4841827178341" lon="10.567847156803213"><ele>345.8</ele><time>2026-04-06T13:05:22.999Z</time></trkpt><trkpt lat="44.48407530795748" lon="10.567795698880762"><ele>346.20000000000005</ele><time>2026-04-06T13:05:23.999Z</time></trkpt><trkpt lat="44.48396886322131" lon="10.567754571446825"><ele>346.6</ele><time>2026-04-06T13:05:24.999Z</time></trkpt><trkpt lat="44.48386691610073" lon="10.56771339562058"><ele>347.0</ele><time>2026-04-06T13:05:25.999Z</time></trkpt><trkpt lat="44.48377106835985" lon="10.567656821277238"><ele>347.6</ele><time>2026-04-06T13:05:26.999Z</time></trkpt><trkpt lat="44.48367365375366" lon="10.56761349880397"><ele>348.20000000000005</ele><time>2026-04-06T13:05:27.999Z</time></trkpt><trkpt lat="44.48357199782642" lon="10.567569843878248"><ele>348.8</ele><time>2026-04-06T13:05:28.999Z</time></trkpt><trkpt lat="44.483466025863606" lon="10.567582258217683"><ele>349.4</ele><time>2026-04-06T13:05:29.999Z</time></trkpt><trkpt lat="44.48335545685459" lon="10.567614804795276"><ele>350.0</ele><time>2026-04-06T13:05:30.999Z</time></trkpt><trkpt lat="44.483244906370125" lon="10.567657306181786"><ele>350.0</ele><time>2026-04-06T13:05:31.999Z</time></trkpt><trkpt lat="44.48313076809582" lon="10.567670695515732"><ele>350.0</ele><time>2026-04-06T13:05:32.999Z</time></trkpt><trkpt lat="44.483017678508084" lon="10.567663389926155"><ele>350.0</ele><time>2026-04-06T13:05:33.999Z</time></trkpt><trkpt lat="44.482904386201064" lon="10.567655689810538"><ele>350.0</ele><time>2026-04-06T13:05:34.999Z</time></trkpt><trkpt lat="44.482788158467656" lon="10.567646112799927"><ele>352.5</ele><time>2026-04-06T13:05:35.999Z</time></trkpt><trkpt lat="44.482673935112395" lon="10.567636597670958"><ele>355.0</ele><time>2026-04-06T13:05:36.999Z</time></trkpt><trkpt lat="44.48256365419566" lon="10.567650329707574"><ele>357.5</ele><time>2026-04-06T13:05:37.999Z</time></trkpt><trkpt lat="44.4824568389944" lon="10.567639331246749"><ele>360.0</ele><time>2026-04-06T13:05:39Z</time></trkpt><trkpt lat="44.48233286793916" lon="10.567600431106333"><ele>360.0</ele><time>2026-04-06T13:05:40Z</time></trkpt><trkpt lat="44.48221547747687" lon="10.567575651602272"><ele>360.0</ele><time>2026-04-06T13:05:41Z</time></trkpt><trkpt lat="44.48208768039348" lon="10.567551159286598"><ele>360.0</ele><time>2026-04-06T13:05:42Z</time></trkpt><trkpt lat="44.481947213873916" lon="10.567539733683375"><ele>360.0</ele><time>2026-04-06T13:05:43Z</time></trkpt><trkpt lat="44.48182136334433" lon="10.567554792672514"><ele>361.75</ele><time>2026-04-06T13:05:44Z</time></trkpt><trkpt lat="44.481702276095916" lon="10.567590223979762"><ele>363.5</ele><time>2026-04-06T13:05:45Z</time></trkpt><trkpt lat="44.481602472999384" lon="10.567665004308099"><ele>365.25</ele><time>2026-04-06T13:05:46Z</time></trkpt><trkpt lat="44.48149037963054" lon="10.567712471385445"><ele>367.0</ele><time>2026-04-06T13:05:47Z</time></trkpt><trkpt lat="44.48139012181085" lon="10.567808758461943"><ele>370.25</ele><time>2026-04-06T13:05:48Z</time></trkpt><trkpt lat="44.481293275387976" lon="10.567913276704127"><ele>373.5</ele><time>2026-04-06T13:05:49Z</time></trkpt><trkpt lat="44.481220081486676" lon="10.568052679024351"><ele>376.75</ele><time>2026-04-06T13:05:50Z</time></trkpt><trkpt lat="44.48114121906964" lon="10.568181300758045"><ele>380.0</ele><time>2026-04-06T13:05:51Z</time></trkpt><trkpt lat="44.48105553901606" lon="10.568293535194528"><ele>380.0</ele><time>2026-04-06T13:05:52Z</time></trkpt><trkpt lat="44.480953579453576" lon="10.568379787017808"><ele>380.0</ele><time>2026-04-06T13:05:53Z</time></trkpt><trkpt lat="44.48084135874373" lon="10.568453371603013"><ele>380.0</ele><time>2026-04-06T13:05:54Z</time></trkpt><trkpt lat="44.48075498519216" lon="10.568581071828593"><ele>380.0</ele><time>2026-04-06T13:05:55Z</time></trkpt><trkpt lat="44.48064807947082" lon="10.568660869949237"><ele>382.75</ele><time>2026-04-06T13:05:56Z</time></trkpt><trkpt lat="44.48053426172692" lon="10.568707953887584"><ele>385.5</ele><time>2026-04-06T13:05:57Z</time></trkpt><trkpt lat="44.480422485807374" lon="10.568727933298604"><ele>388.25</ele><time>2026-04-06T13:05:58Z</time></trkpt><trkpt lat="44.48029886233216" lon="10.568763096422703"><ele>391.0</ele><time>2026-04-06T13:05:59Z</time></trkpt><trkpt lat="44.48018148320472" lon="10.568817914984566"><ele>391.0</ele><time>2026-04-06T13:06:00Z</time></trkpt><trkpt lat="44.480067465746124" lon="10.568890246512424"><ele>391.0</ele><time>2026-04-06T13:06:01Z</time></trkpt><trkpt lat="44.47995941726547" lon="10.568942690891701"><ele>391.0</ele><time>2026-04-06T13:06:02Z</time></trkpt><trkpt lat="44.47986453625234" lon="10.568998857217272"><ele>391.0</ele><time>2026-04-06T13:06:03Z</time></trkpt><trkpt lat="44.479767909012196" lon="10.56907638039177"><ele>391.0</ele><time>2026-04-06T13:06:04Z</time></trkpt><trkpt lat="44.479666807459274" lon="10.569168468094539"><ele>391.0</ele><time>2026-04-06T13:06:05Z</time></trkpt><trkpt lat="44.479571380268816" lon="10.569259048559056"><ele>391.0</ele><time>2026-04-06T13:06:06Z</time></trkpt><trkpt lat="44.47946382078655" lon="10.569352946807905"><ele>391.0</ele><time>2026-04-06T13:06:07Z</time></trkpt><trkpt lat="44.47935748790056" lon="10.569439408632089"><ele>391.8</ele><time>2026-04-06T13:06:08Z</time></trkpt><trkpt lat="44.47925447459654" lon="10.569498832023832"><ele>392.6</ele><time>2026-04-06T13:06:09Z</time></trkpt><trkpt lat="44.479152205416426" lon="10.569553977048017"><ele>393.4</ele><time>2026-04-06T13:06:10Z</time></trkpt><trkpt lat="44.47905808348316" lon="10.569598161843302"><ele>394.2</ele><time>2026-04-06T13:06:11Z</time></trkpt><trkpt lat="44.47896488771884" lon="10.569651067500974"><ele>395.0</ele><time>2026-04-06T13:06:12Z</time></trkpt><trkpt lat="44.47888392442239" lon="10.569695429048492"><ele>396.8333333333333</ele><time>2026-04-06T13:06:13Z</time></trkpt><trkpt lat="44.47880839294645" lon="10.569721307599405"><ele>398.66666666666663</ele><time>2026-04-06T13:06:14Z</time></trkpt><trkpt lat="44.47873957325004" lon="10.569717781185327"><ele>400.5</ele><time>2026-04-06T13:06:15Z</time></trkpt><trkpt lat="44.47868049045965" lon="10.569685419635313"><ele>402.33333333333337</ele><time>2026-04-06T13:06:16Z</time></trkpt><trkpt lat="44.47862400607223" lon="10.569646096511589"><ele>404.1666666666667</ele><time>2026-04-06T13:06:17Z</time></trkpt><trkpt lat="44.47855573151478" lon="10.56951580881001"><ele>406.0</ele><time>2026-04-06T13:06:19Z</time></trkpt><trkpt lat="44.4785229791073" lon="10.569418285599212"><ele>406.0</ele><time>2026-04-06T13:06:22Z</time></trkpt><trkpt lat="44.47845201953284" lon="10.569318492021395"><ele>406.0</ele><time>2026-04-06T13:08:19Z</time></trkpt><trkpt lat="44.47837330250024" lon="10.56924225397648"><ele>406.0</ele><time>2026-04-06T13:08:21Z</time></trkpt><trkpt lat="44.4783147897184" lon="10.56910942940527"><ele>406.0</ele><time>2026-04-06T13:08:23Z</time></trkpt><trkpt lat="44.47826310889888" lon="10.569004844294668"><ele>406.0</ele><time>2026-04-06T13:08:25Z</time></trkpt><trkpt lat="44.4781683689727" lon="10.568995520841149"><ele>406.0</ele><time>2026-04-06T13:08:27Z</time></trkpt><trkpt lat="44.47806992227823" lon="10.568977450902695"><ele>406.0</ele><time>2026-04-06T13:08:29Z</time></trkpt><trkpt lat="44.478008210240006" lon="10.568939597531463"><ele>406.0</ele><time>2026-04-06T13:08:32Z</time></trkpt><trkpt lat="44.47789487482383" lon="10.568872215783237"><ele>406.0</ele><time>2026-04-06T13:08:35Z</time></trkpt><trkpt lat="44.477835552819215" lon="10.568830126970765"><ele>406.0</ele><time>2026-04-06T13:08:56Z</time></trkpt><trkpt lat="44.4777725952633" lon="10.568728957536855"><ele>406.83333333333337</ele><time>2026-04-06T13:08:58Z</time></trkpt><trkpt lat="44.477733624541315" lon="10.568647067767136"><ele>407.6666666666667</ele><time>2026-04-06T13:08:59Z</time></trkpt><trkpt lat="44.47767169051774" lon="10.568583907427946"><ele>408.5</ele><time>2026-04-06T13:09:00Z</time></trkpt><trkpt lat="44.47759842956948" lon="10.568536572686412"><ele>409.33333333333337</ele><time>2026-04-06T13:09:01Z</time></trkpt><trkpt lat="44.47756229103175" lon="10.568459666425628"><ele>410.1666666666667</ele><time>2026-04-06T13:09:03Z</time></trkpt><trkpt lat="44.47768946084169" lon="10.568473960518515"><ele>411.0</ele><time>2026-04-06T13:09:05Z</time></trkpt><trkpt lat="44.47773453848322" lon="10.56859091901349"><ele>411.0</ele><time>2026-04-06T13:09:06Z</time></trkpt><trkpt lat="44.477812452374316" lon="10.568612671281981"><ele>411.0</ele><time>2026-04-06T13:09:08Z</time></trkpt><trkpt lat="44.477841181510925" lon="10.56849289799495"><ele>411.0</ele><time>2026-04-06T13:09:09Z</time></trkpt><trkpt lat="44.477852195844285" lon="10.568372575363007"><ele>411.0</ele><time>2026-04-06T13:09:10Z</time></trkpt><trkpt lat="44.47782027738917" lon="10.568245031696987"><ele>411.0</ele><time>2026-04-06T13:09:12Z</time></trkpt><trkpt lat="44.47768821235029" lon="10.568256587141066"><ele>411.0</ele><time>2026-04-06T13:09:14Z</time></trkpt><trkpt lat="44.47762145217176" lon="10.56825870465881"><ele>411.0</ele><time>2026-04-06T13:09:15Z</time></trkpt><trkpt lat="44.47756408172278" lon="10.568180322919751"><ele>411.0</ele><time>2026-04-06T13:09:17Z</time></trkpt><trkpt lat="44.477643354565764" lon="10.568118187601593"><ele>411.0</ele><time>2026-04-06T13:09:19Z</time></trkpt><trkpt lat="44.477745996882746" lon="10.568146764353207"><ele>411.0</ele><time>2026-04-06T13:09:21Z</time></trkpt><trkpt lat="44.477817745277186" lon="10.56816393393859"><ele>411.0</ele><time>2026-04-06T13:09:22Z</time></trkpt><trkpt lat="44.47788028187559" lon="10.56818027767131"><ele>411.0</ele><time>2026-04-06T13:09:23Z</time></trkpt><trkpt lat="44.47798113239742" lon="10.56822610488189"><ele>411.0</ele><time>2026-04-06T13:09:25Z</time></trkpt><trkpt lat="44.47798519749582" lon="10.568377889875052"><ele>411.0</ele><time>2026-04-06T13:09:27Z</time></trkpt><trkpt lat="44.47793583214823" lon="10.56850819979626"><ele>411.0</ele><time>2026-04-06T13:09:29Z</time></trkpt><trkpt lat="44.477895504556365" lon="10.568590204972262"><ele>411.0</ele><time>2026-04-06T13:09:31Z</time></trkpt><trkpt lat="44.47790659701366" lon="10.56869216799234"><ele>411.0</ele><time>2026-04-06T13:09:35Z</time></trkpt><trkpt lat="44.477973607581944" lon="10.56872688214533"><ele>406.0</ele><time>2026-04-06T13:09:37.999Z</time></trkpt><trkpt lat="44.47804401179208" lon="10.568700719350616"><ele>406.0</ele><time>2026-04-06T13:09:40.999Z</time></trkpt></trkseg><trkseg><trkpt lat="44.477073246850956" lon="10.568663024762628"><ele>410.0</ele><time>2026-04-06T13:20:22Z</time></trkpt><trkpt lat="44.47700021960926" lon="10.568635453095526"><ele>410.0</ele><time>2026-04-06T13:20:36Z</time></trkpt><trkpt lat="44.47697780990368" lon="10.568519489004823"><ele>410.0</ele><time>2026-04-06T13:20:38Z</time></trkpt><trkpt lat="44.47693797588544" lon="10.568425327096177"><ele>410.0</ele><time>2026-04-06T13:20:40Z</time></trkpt><trkpt lat="44.47692601672706" lon="10.568310007130917"><ele>410.0</ele><time>2026-04-06T13:20:42Z</time></trkpt><trkpt lat="44.476913248425696" lon="10.568119054863836"><ele>409.99999999999994</ele><time>2026-04-06T13:20:44Z</time></trkpt><trkpt lat="44.476905973761234" lon="10.568005723009966"><ele>410.0</ele><time>2026-04-06T13:20:45Z</time></trkpt><trkpt lat="44.47691503204365" lon="10.567893711345436"><ele>410.0</ele><time>2026-04-06T13:20:46Z</time></trkpt><trkpt lat="44.476905963113055" lon="10.567782842677719"><ele>410.0</ele><time>2026-04-06T13:20:47Z</time></trkpt><trkpt lat="44.47690809606882" lon="10.567665741595935"><ele>409.99999999999994</ele><time>2026-04-06T13:20:48Z</time></trkpt><trkpt lat="44.476905622879016" lon="10.567569469644742"><ele>410.0</ele><time>2026-04-06T13:20:49Z</time></trkpt><trkpt lat="44.47685247854088" lon="10.567425189009603"><ele>411.2</ele><time>2026-04-06T13:20:51Z</time></trkpt><trkpt lat="44.4767183639358" lon="10.56737705833702"><ele>412.4</ele><time>2026-04-06T13:20:53Z</time></trkpt><trkpt lat="44.47662236632063" lon="10.567386869405983"><ele>413.6</ele><time>2026-04-06T13:20:54Z</time></trkpt><trkpt lat="44.476526094432444" lon="10.567387394398185"><ele>414.8</ele><time>2026-04-06T13:20:55Z</time></trkpt><trkpt lat="44.476441937426024" lon="10.567386080521207"><ele>416.0</ele><time>2026-04-06T13:20:56Z</time></trkpt><trkpt lat="44.47635168537886" lon="10.567379948795685"><ele>415.99999999999994</ele><time>2026-04-06T13:20:57Z</time></trkpt><trkpt lat="44.47627241711765" lon="10.567376816753569"><ele>416.0</ele><time>2026-04-06T13:20:58Z</time></trkpt><trkpt lat="44.47620087889055" lon="10.567373518872149"><ele>416.0</ele><time>2026-04-06T13:20:59Z</time></trkpt><trkpt lat="44.476119400903826" lon="10.567374920965015"><ele>416.0</ele><time>2026-04-06T13:21:00Z</time></trkpt><trkpt lat="44.47600555931592" lon="10.56737446242364"><ele>415.99999999999994</ele><time>2026-04-06T13:21:01Z</time></trkpt><trkpt lat="44.475902813028945" lon="10.567375452442729"><ele>416.0</ele><time>2026-04-06T13:21:03Z</time></trkpt><trkpt lat="44.47578191154131" lon="10.56734877355216"><ele>418.6</ele><time>2026-04-06T13:21:05Z</time></trkpt><trkpt lat="44.47567873202298" lon="10.567385304871834"><ele>421.20000000000005</ele><time>2026-04-06T13:21:07Z</time></trkpt><trkpt lat="44.47556791813375" lon="10.567439967823717"><ele>423.79999999999995</ele><time>2026-04-06T13:21:09Z</time></trkpt><trkpt lat="44.47550204572238" lon="10.56749077486651"><ele>426.4</ele><time>2026-04-06T13:21:10Z</time></trkpt><trkpt lat="44.47540274239" lon="10.567575426529652"><ele>429.0</ele><time>2026-04-06T13:21:12Z</time></trkpt><trkpt lat="44.475353978047956" lon="10.567637180811161"><ele>432.1666666666667</ele><time>2026-04-06T13:21:14Z</time></trkpt><trkpt lat="44.47530078436358" lon="10.567750080629166"><ele>435.33333333333337</ele><time>2026-04-06T13:21:31Z</time></trkpt><trkpt lat="44.47521956397491" lon="10.567732706931954"><ele>438.5</ele><time>2026-04-06T13:21:33Z</time></trkpt><trkpt lat="44.47516653279399" lon="10.567648297897259"><ele>441.6666666666667</ele><time>2026-04-06T13:21:34Z</time></trkpt><trkpt lat="44.475123731713616" lon="10.567566832406824"><ele>444.83333333333337</ele><time>2026-04-06T13:21:35Z</time></trkpt><trkpt lat="44.47513763635019" lon="10.567466612400432"><ele>448.0</ele><time>2026-04-06T13:21:37Z</time></trkpt><trkpt lat="44.475158868631766" lon="10.567381525073074"><ele>448.00000000000006</ele><time>2026-04-06T13:21:39Z</time></trkpt><trkpt lat="44.475148877851645" lon="10.56726564814143"><ele>448.0</ele><time>2026-04-06T13:21:41Z</time></trkpt><trkpt lat="44.47512855419998" lon="10.567124678334322"><ele>448.0</ele><time>2026-04-06T13:21:43Z</time></trkpt><trkpt lat="44.475115782242554" lon="10.567020967593736"><ele>448.0</ele><time>2026-04-06T13:21:44Z</time></trkpt><trkpt lat="44.47507558017573" lon="10.566941893427025"><ele>448.00000000000006</ele><time>2026-04-06T13:21:45Z</time></trkpt><trkpt lat="44.47501424474685" lon="10.566857202222566"><ele>448.0</ele><time>2026-04-06T13:21:46Z</time></trkpt><trkpt lat="44.47494557915743" lon="10.566760644017588"><ele>450.83333333333337</ele><time>2026-04-06T13:21:47Z</time></trkpt><trkpt lat="44.47486659885498" lon="10.566689870801598"><ele>453.6666666666667</ele><time>2026-04-06T13:21:48Z</time></trkpt><trkpt lat="44.47479359926711" lon="10.566609819612614"><ele>456.5</ele><time>2026-04-06T13:21:49Z</time></trkpt><trkpt lat="44.474733237273" lon="10.56655145103419"><ele>459.33333333333337</ele><time>2026-04-06T13:21:50Z</time></trkpt><trkpt lat="44.474691539174756" lon="10.566476046552705"><ele>462.1666666666667</ele><time>2026-04-06T13:21:51Z</time></trkpt><trkpt lat="44.47460095766844" lon="10.56639228136738"><ele>465.0</ele><time>2026-04-06T13:21:53Z</time></trkpt><trkpt lat="44.47449001457525" lon="10.566384297261722"><ele>466.0</ele><time>2026-04-06T13:21:55Z</time></trkpt><trkpt lat="44.474426658164056" lon="10.566368378098815"><ele>467.0</ele><time>2026-04-06T13:21:56Z</time></trkpt><trkpt lat="44.474307270373885" lon="10.566404979101605"><ele>468.0</ele><time>2026-04-06T13:21:58Z</time></trkpt><trkpt lat="44.474249081571635" lon="10.566460320445705"><ele>469.0</ele><time>2026-04-06T13:21:59Z</time></trkpt><trkpt lat="44.47417250385093" lon="10.566520202368554"><ele>470.0</ele><time>2026-04-06T13:22:01Z</time></trkpt><trkpt lat="44.47411511843433" lon="10.566625154152682"><ele>471.0</ele><time>2026-04-06T13:22:03Z</time></trkpt><trkpt lat="44.47403115341948" lon="10.566727507564067"><ele>471.0</ele><time>2026-04-06T13:22:05Z</time></trkpt><trkpt lat="44.4739768465814" lon="10.566790301580218"><ele>471.0</ele><time>2026-04-06T13:22:06Z</time></trkpt><trkpt lat="44.47392341400605" lon="10.56685277731943"><ele>471.0</ele><time>2026-04-06T13:22:07Z</time></trkpt><trkpt lat="44.47387045278292" lon="10.566926663141924"><ele>471.0</ele><time>2026-04-06T13:22:08Z</time></trkpt><trkpt lat="44.473800432615384" lon="10.56701993916694"><ele>471.0</ele><time>2026-04-06T13:22:09Z</time></trkpt><trkpt lat="44.473752962519356" lon="10.567093916701303"><ele>471.0</ele><time>2026-04-06T13:22:10Z</time></trkpt><trkpt lat="44.47369641432368" lon="10.567165881044078"><ele>471.3333333333333</ele><time>2026-04-06T13:22:11Z</time></trkpt><trkpt lat="44.473632758284694" lon="10.567232515235903"><ele>471.66666666666663</ele><time>2026-04-06T13:22:12Z</time></trkpt><trkpt lat="44.473567129421724" lon="10.567284073157122"><ele>472.0</ele><time>2026-04-06T13:22:13Z</time></trkpt><trkpt lat="44.47348777425061" lon="10.56731362824497"><ele>472.3333333333333</ele><time>2026-04-06T13:22:14Z</time></trkpt><trkpt lat="44.47340373197538" lon="10.567334858398086"><ele>472.66666666666663</ele><time>2026-04-06T13:22:15Z</time></trkpt><trkpt lat="44.47332643635761" lon="10.567337838819052"><ele>473.0</ele><time>2026-04-06T13:22:16Z</time></trkpt><trkpt lat="44.47323502107185" lon="10.567351371972059"><ele>472.99999999999994</ele><time>2026-04-06T13:22:17Z</time></trkpt><trkpt lat="44.47314246138311" lon="10.567379865532132"><ele>473.0</ele><time>2026-04-06T13:22:18Z</time></trkpt><trkpt lat="44.4730589043575" lon="10.567393476302762"><ele>473.0</ele><time>2026-04-06T13:22:19Z</time></trkpt><trkpt lat="44.47297918250322" lon="10.567420124994342"><ele>473.0</ele><time>2026-04-06T13:22:20Z</time></trkpt><trkpt lat="44.47289831938439" lon="10.567434588428751"><ele>472.99999999999994</ele><time>2026-04-06T13:22:21Z</time></trkpt><trkpt lat="44.472822485583585" lon="10.567439970506749"><ele>473.0</ele><time>2026-04-06T13:22:22Z</time></trkpt><trkpt lat="44.47275157650714" lon="10.567422207862288"><ele>472.99999999999994</ele><time>2026-04-06T13:22:23Z</time></trkpt><trkpt lat="44.472681589157936" lon="10.567380109586269"><ele>473.0</ele><time>2026-04-06T13:22:24Z</time></trkpt><trkpt lat="44.472614194384946" lon="10.567327609852306"><ele>473.0</ele><time>2026-04-06T13:22:25Z</time></trkpt><trkpt lat="44.472544996845436" lon="10.56727175918528"><ele>473.0</ele><time>2026-04-06T13:22:26Z</time></trkpt><trkpt lat="44.47245824894824" lon="10.567234145784184"><ele>472.99999999999994</ele><time>2026-04-06T13:22:27Z</time></trkpt><trkpt lat="44.47235673088009" lon="10.567221353214144"><ele>473.0</ele><time>2026-04-06T13:22:28Z</time></trkpt><trkpt lat="44.47225388013227" lon="10.567226909848678"><ele>472.99999999999994</ele><time>2026-04-06T13:22:29Z</time></trkpt><trkpt lat="44.472166406125766" lon="10.567195784275452"><ele>473.0</ele><time>2026-04-06T13:22:30Z</time></trkpt><trkpt lat="44.472088452137946" lon="10.567186985368505"><ele>473.0</ele><time>2026-04-06T13:22:31Z</time></trkpt><trkpt lat="44.47202080116663" lon="10.567183171985086"><ele>473.0</ele><time>2026-04-06T13:22:32Z</time></trkpt><trkpt lat="44.47191938187443" lon="10.567208037947232"><ele>472.99999999999994</ele><time>2026-04-06T13:22:33Z</time></trkpt><trkpt lat="44.4718284458077" lon="10.567230230174776"><ele>473.0</ele><time>2026-04-06T13:22:34Z</time></trkpt><trkpt lat="44.47174864396" lon="10.567239663564985"><ele>473.8333333333333</ele><time>2026-04-06T13:22:35Z</time></trkpt><trkpt lat="44.471666310659074" lon="10.567241922815446"><ele>474.66666666666663</ele><time>2026-04-06T13:22:36Z</time></trkpt><trkpt lat="44.471578088658674" lon="10.567175999917422"><ele>475.5</ele><time>2026-04-06T13:22:37Z</time></trkpt><trkpt lat="44.47151607513576" lon="10.56711222039788"><ele>476.33333333333337</ele><time>2026-04-06T13:22:38Z</time></trkpt><trkpt lat="44.471461231468176" lon="10.567050589488275"><ele>477.1666666666667</ele><time>2026-04-06T13:22:39Z</time></trkpt><trkpt lat="44.471380652241976" lon="10.56694776275212"><ele>478.0</ele><time>2026-04-06T13:22:41Z</time></trkpt><trkpt lat="44.47133375970854" lon="10.56685029709896"><ele>478.0</ele><time>2026-04-06T13:22:44Z</time></trkpt><trkpt lat="44.471359143507414" lon="10.566458514358793"><ele>478.0</ele><time>2026-04-06T13:22:46Z</time></trkpt><trkpt lat="44.47133554478364" lon="10.566254071854154"><ele>478.0</ele><time>2026-04-06T13:22:47Z</time></trkpt><trkpt lat="44.47129611636247" lon="10.566038381280672"><ele>477.0</ele><time>2026-04-06T13:22:48Z</time></trkpt><trkpt lat="44.47127724944625" lon="10.565878382733613"><ele>475.99999999999994</ele><time>2026-04-06T13:22:49Z</time></trkpt><trkpt lat="44.471259239677224" lon="10.5657651720811"><ele>474.99999999999994</ele><time>2026-04-06T13:22:50Z</time></trkpt><trkpt lat="44.47122404081192" lon="10.56565827025838"><ele>474.0</ele><time>2026-04-06T13:22:51Z</time></trkpt><trkpt lat="44.471167043718594" lon="10.5655666057686"><ele>473.0</ele><time>2026-04-06T13:22:52Z</time></trkpt><trkpt lat="44.47111111952281" lon="10.565476300304786"><ele>474.59999999999997</ele><time>2026-04-06T13:22:53Z</time></trkpt><trkpt lat="44.471040621566736" lon="10.56535145422275"><ele>476.19999999999993</ele><time>2026-04-06T13:22:54Z</time></trkpt><trkpt lat="44.47095949433704" lon="10.565223071044192"><ele>477.8</ele><time>2026-04-06T13:22:55Z</time></trkpt><trkpt lat="44.47090669986828" lon="10.565104702298543"><ele>479.4</ele><time>2026-04-06T13:22:56Z</time></trkpt><trkpt lat="44.47086515965235" lon="10.56497484924771"><ele>481.0</ele><time>2026-04-06T13:22:57Z</time></trkpt><trkpt lat="44.47084741775203" lon="10.5648707095837"><ele>481.0</ele><time>2026-04-06T13:22:58Z</time></trkpt><trkpt lat="44.47082892380457" lon="10.564783316610239"><ele>481.0</ele><time>2026-04-06T13:22:59Z</time></trkpt><trkpt lat="44.47074549031924" lon="10.564663432730136"><ele>481.0</ele><time>2026-04-06T13:23:00Z</time></trkpt><trkpt lat="44.47069164360791" lon="10.564538903458867"><ele>481.0</ele><time>2026-04-06T13:23:01Z</time></trkpt><trkpt lat="44.47064848213858" lon="10.564405173712526"><ele>481.0</ele><time>2026-04-06T13:23:02Z</time></trkpt><trkpt lat="44.47061517242089" lon="10.564316863183931"><ele>478.20000000000005</ele><time>2026-04-06T13:23:03Z</time></trkpt><trkpt lat="44.47062212943691" lon="10.56419537904265"><ele>475.40000000000003</ele><time>2026-04-06T13:23:04Z</time></trkpt><trkpt lat="44.47062775754223" lon="10.564088207576276"><ele>472.6</ele><time>2026-04-06T13:23:05Z</time></trkpt><trkpt lat="44.47055975264239" lon="10.563936091182095"><ele>469.8</ele><time>2026-04-06T13:23:07Z</time></trkpt><trkpt lat="44.47047335057394" lon="10.563816672108604"><ele>467.0</ele><time>2026-04-06T13:23:09Z</time></trkpt><trkpt lat="44.47045086973693" lon="10.563729167119412"><ele>465.8333333333333</ele><time>2026-04-06T13:23:11Z</time></trkpt><trkpt lat="44.4705034804316" lon="10.56366568979769"><ele>464.66666666666663</ele><time>2026-04-06T13:23:13Z</time></trkpt><trkpt lat="44.47052083450345" lon="10.563576613359109"><ele>463.5</ele><time>2026-04-06T13:23:14Z</time></trkpt><trkpt lat="44.47054128023592" lon="10.563471339312134"><ele>462.33333333333337</ele><time>2026-04-06T13:23:15Z</time></trkpt><trkpt lat="44.470567416672864" lon="10.563356490417606"><ele>461.1666666666667</ele><time>2026-04-06T13:23:16Z</time></trkpt><trkpt lat="44.47058602612994" lon="10.563272041436727"><ele>460.0</ele><time>2026-04-06T13:23:17Z</time></trkpt><trkpt lat="44.47062067428193" lon="10.563130235260749"><ele>460.00000000000006</ele><time>2026-04-06T13:23:19Z</time></trkpt><trkpt lat="44.47065369846422" lon="10.563009433082366"><ele>460.0</ele><time>2026-04-06T13:23:21Z</time></trkpt><trkpt lat="44.47068561051046" lon="10.562919441003334"><ele>460.0</ele><time>2026-04-06T13:23:25Z</time></trkpt><trkpt lat="44.470628253735335" lon="10.563015317640778"><ele>460.0</ele><time>2026-04-06T13:23:27Z</time></trkpt><trkpt lat="44.470618888507715" lon="10.563118230915794"><ele>460.00000000000006</ele><time>2026-04-06T13:23:28Z</time></trkpt><trkpt lat="44.47060217305381" lon="10.563254083674712"><ele>460.0</ele><time>2026-04-06T13:23:30Z</time></trkpt><trkpt lat="44.47058621395099" lon="10.563339462453316"><ele>459.99999999999994</ele><time>2026-04-06T13:23:31Z</time></trkpt><trkpt lat="44.470568259103146" lon="10.563429555906218"><ele>460.0</ele><time>2026-04-06T13:23:32Z</time></trkpt><trkpt lat="44.4705538359037" lon="10.563535045915101"><ele>459.99999999999994</ele><time>2026-04-06T13:23:33Z</time></trkpt><trkpt lat="44.470529564228805" lon="10.563642764113045"><ele>459.99999999999994</ele><time>2026-04-06T13:23:34Z</time></trkpt><trkpt lat="44.47050006076807" lon="10.56373199861341"><ele>460.0</ele><time>2026-04-06T13:23:35Z</time></trkpt><trkpt lat="44.470460066716846" lon="10.563824043615092"><ele>459.99999999999994</ele><time>2026-04-06T13:23:37Z</time></trkpt><trkpt lat="44.4705112525318" lon="10.563902379627274"><ele>459.99999999999994</ele><time>2026-04-06T13:23:39Z</time></trkpt><trkpt lat="44.47059268706936" lon="10.563981500686806"><ele>461.4</ele><time>2026-04-06T13:23:41Z</time></trkpt><trkpt lat="44.4706247605595" lon="10.564080852388495"><ele>462.8</ele><time>2026-04-06T13:23:42Z</time></trkpt><trkpt lat="44.470647264708305" lon="10.564198139392454"><ele>464.20000000000005</ele><time>2026-04-06T13:23:43Z</time></trkpt><trkpt lat="44.47065564846761" lon="10.564327870484734"><ele>465.6</ele><time>2026-04-06T13:23:44Z</time></trkpt><trkpt lat="44.470649081578344" lon="10.564441409309016"><ele>467.0</ele><time>2026-04-06T13:23:45Z</time></trkpt><trkpt lat="44.470739456353876" lon="10.564622683515132"><ele>469.8</ele><time>2026-04-06T13:23:47Z</time></trkpt><trkpt lat="44.47078892242487" lon="10.564730144623912"><ele>472.6</ele><time>2026-04-06T13:23:48Z</time></trkpt><trkpt lat="44.47084854511198" lon="10.564850777677313"><ele>475.40000000000003</ele><time>2026-04-06T13:23:49Z</time></trkpt><trkpt lat="44.470889745048275" lon="10.564958314652785"><ele>478.20000000000005</ele><time>2026-04-06T13:23:50Z</time></trkpt><trkpt lat="44.47093427375521" lon="10.56507470324659"><ele>481.0</ele><time>2026-04-06T13:23:51Z</time></trkpt><trkpt lat="44.47096888757159" lon="10.565193006727858"><ele>481.00000000000006</ele><time>2026-04-06T13:23:52Z</time></trkpt><trkpt lat="44.47101266370633" lon="10.565286980002107"><ele>481.0</ele><time>2026-04-06T13:23:53Z</time></trkpt><trkpt lat="44.47106758769311" lon="10.565382603346839"><ele>481.0</ele><time>2026-04-06T13:23:54Z</time></trkpt><trkpt lat="44.47112491077835" lon="10.565466410923836"><ele>481.0</ele><time>2026-04-06T13:23:55Z</time></trkpt><trkpt lat="44.471189406380994" lon="10.565566227530534"><ele>481.00000000000006</ele><time>2026-04-06T13:23:57Z</time></trkpt><trkpt lat="44.47113675821222" lon="10.565634583188748"><ele>481.0</ele><time>2026-04-06T13:24:00Z</time></trkpt><trkpt lat="44.471038224873084" lon="10.56559799983177"><ele>482.6666666666667</ele><time>2026-04-06T13:24:02Z</time></trkpt><trkpt lat="44.4709621037262" lon="10.565598890964596"><ele>484.33333333333337</ele><time>2026-04-06T13:24:03Z</time></trkpt><trkpt lat="44.47083549094162" lon="10.565623316012612"><ele>486.0</ele><time>2026-04-06T13:24:05Z</time></trkpt><trkpt lat="44.470772433183534" lon="10.565670859606342"><ele>487.66666666666663</ele><time>2026-04-06T13:24:06Z</time></trkpt><trkpt lat="44.47071862221523" lon="10.565726872964978"><ele>489.3333333333333</ele><time>2026-04-06T13:24:07Z</time></trkpt><trkpt lat="44.47065135763136" lon="10.565781057018622"><ele>491.0</ele><time>2026-04-06T13:24:08Z</time></trkpt><trkpt lat="44.47059353514706" lon="10.565851295157298"><ele>491.0</ele><time>2026-04-06T13:24:09Z</time></trkpt><trkpt lat="44.47050082533784" lon="10.565988711861111"><ele>491.0</ele><time>2026-04-06T13:24:11Z</time></trkpt><trkpt lat="44.47045282441148" lon="10.566085711866746"><ele>491.0</ele><time>2026-04-06T13:24:12Z</time></trkpt><trkpt lat="44.47041861427528" lon="10.566192086709833"><ele>491.0</ele><time>2026-04-06T13:24:13Z</time></trkpt><trkpt lat="44.47037143357728" lon="10.566289086004"><ele>491.0</ele><time>2026-04-06T13:24:14Z</time></trkpt><trkpt lat="44.470341760238625" lon="10.566387996085314"><ele>493.49999999999994</ele><time>2026-04-06T13:24:15Z</time></trkpt><trkpt lat="44.47030845388319" lon="10.566512348234843"><ele>496.0</ele><time>2026-04-06T13:24:16Z</time></trkpt><trkpt lat="44.47028439170902" lon="10.566627291642309"><ele>498.5</ele><time>2026-04-06T13:24:17Z</time></trkpt><trkpt lat="44.470258524237956" lon="10.566723254680419"><ele>501.0</ele><time>2026-04-06T13:24:18Z</time></trkpt><trkpt lat="44.47024878776676" lon="10.566825601380144"><ele>503.49999999999994</ele><time>2026-04-06T13:24:19Z</time></trkpt><trkpt lat="44.47023875474253" lon="10.56691556515856"><ele>506.0</ele><time>2026-04-06T13:24:20Z</time></trkpt><trkpt lat="44.47021842734013" lon="10.567026008949506"><ele>507.8333333333333</ele><time>2026-04-06T13:24:21Z</time></trkpt><trkpt lat="44.47019298141145" lon="10.567112487740154"><ele>509.66666666666663</ele><time>2026-04-06T13:24:22Z</time></trkpt><trkpt lat="44.47017782322097" lon="10.567199503769384"><ele>511.5</ele><time>2026-04-06T13:24:23Z</time></trkpt><trkpt lat="44.47014875013146" lon="10.567306687303647"><ele>513.3333333333334</ele><time>2026-04-06T13:24:25Z</time></trkpt><trkpt lat="44.47004456885307" lon="10.567447098695466"><ele>515.1666666666667</ele><time>2026-04-06T13:24:27Z</time></trkpt><trkpt lat="44.46999116962674" lon="10.5675192377099"><ele>517.0</ele><time>2026-04-06T13:24:28Z</time></trkpt><trkpt lat="44.4699301213923" lon="10.567573716587832"><ele>517.0</ele><time>2026-04-06T13:24:29Z</time></trkpt><trkpt lat="44.46985682826053" lon="10.567609076120435"><ele>517.0</ele><time>2026-04-06T13:24:30Z</time></trkpt><trkpt lat="44.46978962654087" lon="10.567638690786607"><ele>517.0</ele><time>2026-04-06T13:24:31Z</time></trkpt><trkpt lat="44.46971595303008" lon="10.567672764023982"><ele>517.0</ele><time>2026-04-06T13:24:32.001Z</time></trkpt><trkpt lat="44.4696396927797" lon="10.567712020046795"><ele>517.0</ele><time>2026-04-06T13:24:33.001Z</time></trkpt><trkpt lat="44.469567141189486" lon="10.567757800439269"><ele>517.0</ele><time>2026-04-06T13:24:34.001Z</time></trkpt><trkpt lat="44.46945376954762" lon="10.567849256293995"><ele>520.2</ele><time>2026-04-06T13:24:36.001Z</time></trkpt><trkpt lat="44.4693698552279" lon="10.567954462861746"><ele>523.4000000000001</ele><time>2026-04-06T13:24:37.001Z</time></trkpt><trkpt lat="44.469336518061056" lon="10.568087325424425"><ele>526.5999999999999</ele><time>2026-04-06T13:24:38.001Z</time></trkpt><trkpt lat="44.4693160354056" lon="10.568221533280422"><ele>529.8</ele><time>2026-04-06T13:24:39.001Z</time></trkpt><trkpt lat="44.469293606833745" lon="10.568351198019043"><ele>533.0</ele><time>2026-04-06T13:24:40.001Z</time></trkpt><trkpt lat="44.469262380678494" lon="10.56847396471773"><ele>533.0</ele><time>2026-04-06T13:24:41.001Z</time></trkpt><trkpt lat="44.46921965085795" lon="10.568586167593729"><ele>533.0</ele><time>2026-04-06T13:24:42.001Z</time></trkpt><trkpt lat="44.46916296553946" lon="10.568691629430303"><ele>533.0</ele><time>2026-04-06T13:24:43.001Z</time></trkpt><trkpt lat="44.46909802841233" lon="10.568781617073125"><ele>533.0</ele><time>2026-04-06T13:24:44.001Z</time></trkpt><trkpt lat="44.46902590852539" lon="10.568859616971558"><ele>533.0</ele><time>2026-04-06T13:24:45.001Z</time></trkpt><trkpt lat="44.46894473165924" lon="10.568932826526405"><ele>533.5</ele><time>2026-04-06T13:24:46.001Z</time></trkpt><trkpt lat="44.468859421555265" lon="10.568987926713206"><ele>534.0</ele><time>2026-04-06T13:24:47.001Z</time></trkpt><trkpt lat="44.4687830610359" lon="10.569049312646998"><ele>534.5</ele><time>2026-04-06T13:24:48Z</time></trkpt><trkpt lat="44.46871745492105" lon="10.569109397817922"><ele>535.0</ele><time>2026-04-06T13:24:49Z</time></trkpt><trkpt lat="44.468639014806385" lon="10.56919210556042"><ele>535.5</ele><time>2026-04-06T13:24:51Z</time></trkpt><trkpt lat="44.46857913703784" lon="10.569225188629817"><ele>536.0</ele><time>2026-04-06T13:24:54Z</time></trkpt><trkpt lat="44.46853223173872" lon="10.569106056972306"><ele>538.0</ele><time>2026-04-06T13:24:55Z</time></trkpt><trkpt lat="44.4685651546346" lon="10.569005126241587"><ele>540.0</ele><time>2026-04-06T13:24:56Z</time></trkpt><trkpt lat="44.46855518098506" lon="10.568891480062824"><ele>542.0</ele><time>2026-04-06T13:24:57Z</time></trkpt><trkpt lat="44.46855559752454" lon="10.568776308412174"><ele>544.0</ele><time>2026-04-06T13:24:58Z</time></trkpt><trkpt lat="44.46853746793168" lon="10.568670054084498"><ele>546.0</ele><time>2026-04-06T13:24:59Z</time></trkpt><trkpt lat="44.4684954614557" lon="10.568586371050944"><ele>548.0</ele><time>2026-04-06T13:25:00Z</time></trkpt><trkpt lat="44.46843450516071" lon="10.568541273780939"><ele>548.0</ele><time>2026-04-06T13:25:01Z</time></trkpt><trkpt lat="44.46831536784336" lon="10.568561949342671"><ele>548.0</ele><time>2026-04-06T13:25:03Z</time></trkpt><trkpt lat="44.46825806931556" lon="10.568655469371926"><ele>548.0</ele><time>2026-04-06T13:25:04Z</time></trkpt><trkpt lat="44.46825682735253" lon="10.568796484013786"><ele>548.0</ele><time>2026-04-06T13:25:05Z</time></trkpt><trkpt lat="44.468237295276346" lon="10.568924556425083"><ele>548.0</ele><time>2026-04-06T13:25:06Z</time></trkpt><trkpt lat="44.46821625138177" lon="10.569056632552309"><ele>549.6</ele><time>2026-04-06T13:25:07Z</time></trkpt><trkpt lat="44.46819163838808" lon="10.56918850531903"><ele>551.1999999999999</ele><time>2026-04-06T13:25:08Z</time></trkpt><trkpt lat="44.46816617730574" lon="10.569330927988851"><ele>552.8</ele><time>2026-04-06T13:25:09Z</time></trkpt><trkpt lat="44.46814146966312" lon="10.569480543508206"><ele>554.4</ele><time>2026-04-06T13:25:10Z</time></trkpt><trkpt lat="44.46811971609264" lon="10.569622017236947"><ele>556.0</ele><time>2026-04-06T13:25:11Z</time></trkpt><trkpt lat="44.468106405320015" lon="10.56975147669486"><ele>556.8333333333334</ele><time>2026-04-06T13:25:12Z</time></trkpt><trkpt lat="44.46810209251111" lon="10.569874500215949"><ele>557.6666666666667</ele><time>2026-04-06T13:25:13Z</time></trkpt><trkpt lat="44.468099834028706" lon="10.570001073020443"><ele>558.5</ele><time>2026-04-06T13:25:14Z</time></trkpt><trkpt lat="44.46808965976541" lon="10.570120842667077"><ele>559.3333333333334</ele><time>2026-04-06T13:25:15Z</time></trkpt><trkpt lat="44.46807542843077" lon="10.570233504041378"><ele>560.1666666666666</ele><time>2026-04-06T13:25:16Z</time></trkpt><trkpt lat="44.468059547045506" lon="10.570339787123377"><ele>561.0</ele><time>2026-04-06T13:25:17Z</time></trkpt><trkpt lat="44.46803796625669" lon="10.570453432243072"><ele>561.0</ele><time>2026-04-06T13:25:18Z</time></trkpt><trkpt lat="44.468003488370435" lon="10.570541317984066"><ele>561.0</ele><time>2026-04-06T13:25:19Z</time></trkpt><trkpt lat="44.467950029816414" lon="10.570601325884702"><ele>561.0</ele><time>2026-04-06T13:25:20Z</time></trkpt><trkpt lat="44.467877309943425" lon="10.570607385098434"><ele>561.0</ele><time>2026-04-06T13:25:21Z</time></trkpt><trkpt lat="44.46780951466543" lon="10.570640945401768"><ele>561.0</ele><time>2026-04-06T13:25:22Z</time></trkpt><trkpt lat="44.46773468603977" lon="10.570609224424398"><ele>561.0</ele><time>2026-04-06T13:25:23Z</time></trkpt><trkpt lat="44.4676608517728" lon="10.570611103800845"><ele>561.0</ele><time>2026-04-06T13:25:24Z</time></trkpt><trkpt lat="44.467588427217095" lon="10.570575296727185"><ele>563.0</ele><time>2026-04-06T13:25:25Z</time></trkpt><trkpt lat="44.467518716275684" lon="10.570526604588837"><ele>565.0</ele><time>2026-04-06T13:25:26Z</time></trkpt><trkpt lat="44.46746230219611" lon="10.570448392853292"><ele>567.0</ele><time>2026-04-06T13:25:27Z</time></trkpt><trkpt lat="44.467409067377076" lon="10.570374590937355"><ele>569.0</ele><time>2026-04-06T13:25:28Z</time></trkpt><trkpt lat="44.46737547721289" lon="10.570270836523266"><ele>571.0</ele><time>2026-04-06T13:25:29Z</time></trkpt><trkpt lat="44.46735143555383" lon="10.57015830545445"><ele>573.0</ele><time>2026-04-06T13:25:30Z</time></trkpt><trkpt lat="44.46735217361291" lon="10.570050382331756"><ele>573.0</ele><time>2026-04-06T13:25:31Z</time></trkpt><trkpt lat="44.46735512689966" lon="10.569935911257865"><ele>573.0</ele><time>2026-04-06T13:25:32Z</time></trkpt><trkpt lat="44.4674331423732" lon="10.569867064421171"><ele>573.0</ele><time>2026-04-06T13:25:33Z</time></trkpt><trkpt lat="44.46749134028466" lon="10.569782226936242"><ele>573.0</ele><time>2026-04-06T13:25:34Z</time></trkpt><trkpt lat="44.467547305825214" lon="10.569686720101462"><ele>573.0</ele><time>2026-04-06T13:25:35Z</time></trkpt><trkpt lat="44.46758926994898" lon="10.569590949051259"><ele>573.0</ele><time>2026-04-06T13:25:36Z</time></trkpt><trkpt lat="44.46759159756893" lon="10.56947731982464"><ele>573.1999999999999</ele><time>2026-04-06T13:25:37Z</time></trkpt><trkpt lat="44.46754199378717" lon="10.569355567387984"><ele>573.4</ele><time>2026-04-06T13:25:38Z</time></trkpt><trkpt lat="44.46747278697957" lon="10.569286084615722"><ele>573.5999999999999</ele><time>2026-04-06T13:25:39Z</time></trkpt><trkpt lat="44.46737084568186" lon="10.569297805036726"><ele>573.8</ele><time>2026-04-06T13:25:40Z</time></trkpt><trkpt lat="44.46727713476924" lon="10.56932362968203"><ele>574.0</ele><time>2026-04-06T13:25:41Z</time></trkpt><trkpt lat="44.46719755176694" lon="10.56943647926226"><ele>574.0</ele><time>2026-04-06T13:25:42Z</time></trkpt><trkpt lat="44.46711699716303" lon="10.569519865759691"><ele>574.0</ele><time>2026-04-06T13:25:43Z</time></trkpt><trkpt lat="44.46702979890153" lon="10.569600006168544"><ele>574.0</ele><time>2026-04-06T13:25:44Z</time></trkpt><trkpt lat="44.46693764460485" lon="10.569681803192607"><ele>574.0</ele><time>2026-04-06T13:25:45Z</time></trkpt><trkpt lat="44.46684358495666" lon="10.569752947232974"><ele>574.0</ele><time>2026-04-06T13:25:46Z</time></trkpt><trkpt lat="44.46675604201723" lon="10.56981914012804"><ele>576.4</ele><time>2026-04-06T13:25:47Z</time></trkpt><trkpt lat="44.46665468750293" lon="10.569883631211301"><ele>578.8</ele><time>2026-04-06T13:25:48Z</time></trkpt><trkpt lat="44.46654823628279" lon="10.569971906368579"><ele>581.2</ele><time>2026-04-06T13:25:49Z</time></trkpt><trkpt lat="44.46645096483338" lon="10.570053700065865"><ele>583.6</ele><time>2026-04-06T13:25:50Z</time></trkpt><trkpt lat="44.466367946438815" lon="10.570132156922826"><ele>586.0</ele><time>2026-04-06T13:25:51Z</time></trkpt><trkpt lat="44.46627202934831" lon="10.570192937380796"><ele>589.0</ele><time>2026-04-06T13:25:52Z</time></trkpt><trkpt lat="44.46618863634171" lon="10.57029953195229"><ele>592.0</ele><time>2026-04-06T13:25:53Z</time></trkpt><trkpt lat="44.466136680103105" lon="10.570440161717732"><ele>595.0</ele><time>2026-04-06T13:25:54Z</time></trkpt><trkpt lat="44.46608037356285" lon="10.570573701349215"><ele>598.0</ele><time>2026-04-06T13:25:55Z</time></trkpt><trkpt lat="44.466067276973305" lon="10.57074186912626"><ele>599.25</ele><time>2026-04-06T13:25:56Z</time></trkpt><trkpt lat="44.46605124457494" lon="10.5709008894306"><ele>600.5</ele><time>2026-04-06T13:25:57Z</time></trkpt><trkpt lat="44.46605554258051" lon="10.571065837044713"><ele>601.75</ele><time>2026-04-06T13:25:58Z</time></trkpt><trkpt lat="44.466038964974395" lon="10.571226394118694"><ele>603.0</ele><time>2026-04-06T13:25:59Z</time></trkpt><trkpt lat="44.46603643165991" lon="10.5713842510954"><ele>603.0</ele><time>2026-04-06T13:26:00Z</time></trkpt><trkpt lat="44.46603165086421" lon="10.571514462604325"><ele>603.0</ele><time>2026-04-06T13:26:01Z</time></trkpt><trkpt lat="44.46603925156003" lon="10.571654313368676"><ele>603.0</ele><time>2026-04-06T13:26:02Z</time></trkpt><trkpt lat="44.46601863050956" lon="10.571775095630919"><ele>603.0</ele><time>2026-04-06T13:26:03Z</time></trkpt><trkpt lat="44.46600930572463" lon="10.57189902660837"><ele>603.0</ele><time>2026-04-06T13:26:04Z</time></trkpt><trkpt lat="44.46599836341436" lon="10.571993851596377"><ele>603.0</ele><time>2026-04-06T13:26:05Z</time></trkpt><trkpt lat="44.46594707359312" lon="10.57212043836089"><ele>603.0</ele><time>2026-04-06T13:26:07Z</time></trkpt><trkpt lat="44.46587616329785" lon="10.572130733061943"><ele>603.0</ele><time>2026-04-06T13:26:08Z</time></trkpt><trkpt lat="44.46579485744789" lon="10.572102380509035"><ele>603.0</ele><time>2026-04-06T13:26:09Z</time></trkpt><trkpt lat="44.46571376694801" lon="10.572069399405946"><ele>603.0</ele><time>2026-04-06T13:26:10Z</time></trkpt><trkpt lat="44.46564099236903" lon="10.572044853133686"><ele>603.0</ele><time>2026-04-06T13:26:11Z</time></trkpt><trkpt lat="44.465554183688766" lon="10.572001022467914"><ele>603.0</ele><time>2026-04-06T13:26:13Z</time></trkpt><trkpt lat="44.4655545378476" lon="10.571811656325906"><ele>603.0</ele><time>2026-04-06T13:26:16Z</time></trkpt><trkpt lat="44.46555908332629" lon="10.571701350756497"><ele>603.0</ele><time>2026-04-06T13:26:17Z</time></trkpt><trkpt lat="44.46555809050571" lon="10.571581201585516"><ele>603.0</ele><time>2026-04-06T13:26:18Z</time></trkpt><trkpt lat="44.46554584638216" lon="10.571441630940857"><ele>603.0</ele><time>2026-04-06T13:26:19Z</time></trkpt><trkpt lat="44.46554413962578" lon="10.571308852580886"><ele>603.0</ele><time>2026-04-06T13:26:20Z</time></trkpt><trkpt lat="44.46553400999195" lon="10.57116056068821"><ele>603.0</ele><time>2026-04-06T13:26:21Z</time></trkpt><trkpt lat="44.46552274906214" lon="10.571013399162194"><ele>603.0</ele><time>2026-04-06T13:26:22Z</time></trkpt><trkpt lat="44.465507472645335" lon="10.570858591846378"><ele>603.0</ele><time>2026-04-06T13:26:23Z</time></trkpt><trkpt lat="44.46550698558335" lon="10.570701748764055"><ele>603.0</ele><time>2026-04-06T13:26:24Z</time></trkpt><trkpt lat="44.46548231874995" lon="10.570538342326286"><ele>603.0</ele><time>2026-04-06T13:26:25Z</time></trkpt><trkpt lat="44.465442477141146" lon="10.57041941619056"><ele>605.8</ele><time>2026-04-06T13:26:26Z</time></trkpt><trkpt lat="44.465394380327425" lon="10.570299897701242"><ele>608.5999999999999</ele><time>2026-04-06T13:26:27Z</time></trkpt><trkpt lat="44.46532867926814" lon="10.570191610163045"><ele>611.4000000000001</ele><time>2026-04-06T13:26:28Z</time></trkpt><trkpt lat="44.465246944899675" lon="10.570105873567577"><ele>614.2</ele><time>2026-04-06T13:26:29Z</time></trkpt><trkpt lat="44.46515540622191" lon="10.570046334389472"><ele>617.0</ele><time>2026-04-06T13:26:30Z</time></trkpt><trkpt lat="44.46505201033019" lon="10.570011054389694"><ele>617.0</ele><time>2026-04-06T13:26:31Z</time></trkpt><trkpt lat="44.46495679188569" lon="10.5699767036946"><ele>617.0</ele><time>2026-04-06T13:26:32Z</time></trkpt><trkpt lat="44.46487163540265" lon="10.569928837616981"><ele>617.0</ele><time>2026-04-06T13:26:33Z</time></trkpt><trkpt lat="44.46479627211605" lon="10.569882343748127"><ele>617.0</ele><time>2026-04-06T13:26:34Z</time></trkpt><trkpt lat="44.464731175738095" lon="10.569823324501007"><ele>617.0</ele><time>2026-04-06T13:26:35Z</time></trkpt><trkpt lat="44.46468306263692" lon="10.569758225413626"><ele>617.0</ele><time>2026-04-06T13:26:36Z</time></trkpt><trkpt lat="44.464632502735896" lon="10.569697125189085"><ele>617.0</ele><time>2026-04-06T13:26:38.001Z</time></trkpt><trkpt lat="44.46459549528741" lon="10.56983729929471"><ele>617.0</ele><time>2026-04-06T13:26:41.001Z</time></trkpt><trkpt lat="44.46463774767433" lon="10.569938038759878"><ele>617.0</ele><time>2026-04-06T13:26:43.001Z</time></trkpt><trkpt lat="44.46461817189916" lon="10.570059592619527"><ele>617.0</ele><time>2026-04-06T13:26:45.001Z</time></trkpt><trkpt lat="44.46459495527241" lon="10.570229058579386"><ele>617.0</ele><time>2026-04-06T13:26:46.001Z</time></trkpt><trkpt lat="44.464578430159875" lon="10.570323306534121"><ele>625.2</ele><time>2026-04-06T13:26:47.001Z</time></trkpt><trkpt lat="44.464552220692205" lon="10.570432742416335"><ele>633.4000000000001</ele><time>2026-04-06T13:26:48.001Z</time></trkpt><trkpt lat="44.46450200227244" lon="10.570512407859317"><ele>641.5999999999999</ele><time>2026-04-06T13:26:49.001Z</time></trkpt><trkpt lat="44.46441094712319" lon="10.57061549927375"><ele>649.8</ele><time>2026-04-06T13:26:50.001Z</time></trkpt><trkpt lat="44.46438037359287" lon="10.570711857415459"><ele>658.0</ele><time>2026-04-06T13:26:51.001Z</time></trkpt><trkpt lat="44.46438461128826" lon="10.57086088086077"><ele>658.0</ele><time>2026-04-06T13:26:52.001Z</time></trkpt><trkpt lat="44.46437481092057" lon="10.57095757762862"><ele>658.0</ele><time>2026-04-06T13:26:53.001Z</time></trkpt><trkpt lat="44.46435289513158" lon="10.571051956269729"><ele>658.0</ele><time>2026-04-06T13:26:55Z</time></trkpt><trkpt lat="44.464267249952194" lon="10.571060161575518"><ele>658.0</ele><time>2026-04-06T13:26:57Z</time></trkpt><trkpt lat="44.46417701661405" lon="10.571156107672824"><ele>658.0</ele><time>2026-04-06T13:26:59Z</time></trkpt><trkpt lat="44.46412115403355" lon="10.571247128818301"><ele>658.0</ele><time>2026-04-06T13:27:00Z</time></trkpt><trkpt lat="44.464058308816526" lon="10.571329005681887"><ele>656.7142857142857</ele><time>2026-04-06T13:27:01Z</time></trkpt><trkpt lat="44.46400042588559" lon="10.571372252918707"><ele>655.4285714285714</ele><time>2026-04-06T13:27:02Z</time></trkpt><trkpt lat="44.46393779707813" lon="10.571403437457462"><ele>654.1428571428571</ele><time>2026-04-06T13:27:04Z</time></trkpt><trkpt lat="44.46387932527761" lon="10.571444629443064"><ele>652.8571428571429</ele><time>2026-04-06T13:27:06Z</time></trkpt><trkpt lat="44.46380794677798" lon="10.571474668407346"><ele>651.5714285714286</ele><time>2026-04-06T13:27:11Z</time></trkpt><trkpt lat="44.46373387245936" lon="10.571459052776104"><ele>650.2857142857142</ele><time>2026-04-06T13:27:40Z</time></trkpt><trkpt lat="44.46367395968927" lon="10.57136336550471"><ele>649.0</ele><time>2026-04-06T13:27:46Z</time></trkpt><trkpt lat="44.46361634482383" lon="10.571301604547859"><ele>653.1428571428571</ele><time>2026-04-06T13:27:48Z</time></trkpt><trkpt lat="44.46355060482682" lon="10.571303270062126"><ele>657.2857142857142</ele><time>2026-04-06T13:27:50Z</time></trkpt><trkpt lat="44.46348890520309" lon="10.571321879216812"><ele>661.4285714285713</ele><time>2026-04-06T13:27:52Z</time></trkpt><trkpt lat="44.463427896265486" lon="10.571379702962588"><ele>665.5714285714286</ele><time>2026-04-06T13:27:56Z</time></trkpt><trkpt lat="44.463362765062364" lon="10.571426203771924"><ele>669.7142857142858</ele><time>2026-04-06T13:27:59Z</time></trkpt><trkpt lat="44.463300206850796" lon="10.571453747042206"><ele>673.8571428571428</ele><time>2026-04-06T13:28:01Z</time></trkpt><trkpt lat="44.46323035834184" lon="10.571519357598538"><ele>678.0</ele><time>2026-04-06T13:28:03Z</time></trkpt><trkpt lat="44.463163206650684" lon="10.571608971751411"><ele>678.0</ele><time>2026-04-06T13:28:05Z</time></trkpt><trkpt lat="44.46311566352281" lon="10.571703741002834"><ele>678.0</ele><time>2026-04-06T13:28:07Z</time></trkpt><trkpt lat="44.46305497422187" lon="10.571752500046124"><ele>678.0</ele><time>2026-04-06T13:28:10Z</time></trkpt><trkpt lat="44.46299399424525" lon="10.57182022962429"><ele>678.0</ele><time>2026-04-06T13:28:13Z</time></trkpt><trkpt lat="44.462947992047" lon="10.571898143974403"><ele>678.0</ele><time>2026-04-06T13:28:16Z</time></trkpt><trkpt lat="44.46291001226665" lon="10.571968901235639"><ele>678.0</ele><time>2026-04-06T13:28:18Z</time></trkpt><trkpt lat="44.46276362464615" lon="10.572140709159367"><ele>681.6666666666666</ele><time>2026-04-06T13:28:21Z</time></trkpt><trkpt lat="44.46270764034802" lon="10.572205492686026"><ele>685.3333333333334</ele><time>2026-04-06T13:28:22Z</time></trkpt><trkpt lat="44.46264334675676" lon="10.572283307459319"><ele>689.0</ele><time>2026-04-06T13:28:23Z</time></trkpt><trkpt lat="44.462589856814844" lon="10.572347504591765"><ele>692.6666666666667</ele><time>2026-04-06T13:28:24Z</time></trkpt><trkpt lat="44.462540431132545" lon="10.572412884225171"><ele>696.3333333333334</ele><time>2026-04-06T13:28:25Z</time></trkpt><trkpt lat="44.46244356950647" lon="10.5725104424309"><ele>700.0</ele><time>2026-04-06T13:28:27Z</time></trkpt><trkpt lat="44.462360246152734" lon="10.572462166896385"><ele>700.0</ele><time>2026-04-06T13:28:28Z</time></trkpt><trkpt lat="44.46228346569999" lon="10.572465395823041"><ele>700.0</ele><time>2026-04-06T13:28:29Z</time></trkpt><trkpt lat="44.46222284424317" lon="10.572503782171292"><ele>700.0</ele><time>2026-04-06T13:28:30Z</time></trkpt><trkpt lat="44.462166418524944" lon="10.572576492398628"><ele>700.0</ele><time>2026-04-06T13:28:31Z</time></trkpt><trkpt lat="44.46210992507255" lon="10.572638690197845"><ele>700.0</ele><time>2026-04-06T13:28:32Z</time></trkpt><trkpt lat="44.46206964030043" lon="10.572708852469745"><ele>700.0</ele><time>2026-04-06T13:28:33Z</time></trkpt><trkpt lat="44.46197834516921" lon="10.572796946141233"><ele>701.6</ele><time>2026-04-06T13:28:35Z</time></trkpt><trkpt lat="44.461872812213564" lon="10.572845155527059"><ele>703.2</ele><time>2026-04-06T13:28:37Z</time></trkpt><trkpt lat="44.46182730742085" lon="10.572948648423331"><ele>704.8</ele><time>2026-04-06T13:28:39Z</time></trkpt><trkpt lat="44.46175324057873" lon="10.57295148795085"><ele>706.4</ele><time>2026-04-06T13:28:40Z</time></trkpt><trkpt lat="44.461659412743174" lon="10.573012617463942"><ele>708.0</ele><time>2026-04-06T13:28:42Z</time></trkpt><trkpt lat="44.46158961006104" lon="10.57311098417213"><ele>711.1666666666666</ele><time>2026-04-06T13:28:44.001Z</time></trkpt><trkpt lat="44.46152411669082" lon="10.573198069836112"><ele>714.3333333333334</ele><time>2026-04-06T13:28:46.001Z</time></trkpt><trkpt lat="44.461492822419046" lon="10.573277660269513"><ele>717.5</ele><time>2026-04-06T13:28:49.001Z</time></trkpt><trkpt lat="44.46141360920445" lon="10.573332597779855"><ele>720.6666666666667</ele><time>2026-04-06T13:28:52.001Z</time></trkpt><trkpt lat="44.461347592337965" lon="10.573354798736704"><ele>723.8333333333334</ele><time>2026-04-06T13:28:54.001Z</time></trkpt><trkpt lat="44.461296020418224" lon="10.57342208306103"><ele>727.0</ele><time>2026-04-06T13:28:56.001Z</time></trkpt><trkpt lat="44.46122033401418" lon="10.573452661819786"><ele>730.5714285714286</ele><time>2026-04-06T13:28:59Z</time></trkpt><trkpt lat="44.46112851886373" lon="10.573491785531736"><ele>734.1428571428572</ele><time>2026-04-06T13:29:01Z</time></trkpt><trkpt lat="44.46106037405093" lon="10.573504310721969"><ele>737.7142857142858</ele><time>2026-04-06T13:29:03Z</time></trkpt><trkpt lat="44.46098216670928" lon="10.573502471768723"><ele>741.2857142857142</ele><time>2026-04-06T13:29:05Z</time></trkpt><trkpt lat="44.460926364842905" lon="10.573543858845703"><ele>744.8571428571429</ele><time>2026-04-06T13:29:07Z</time></trkpt><trkpt lat="44.46086954378792" lon="10.573593965919272"><ele>748.4285714285714</ele><time>2026-04-06T13:29:09Z</time></trkpt><trkpt lat="44.46080086339552" lon="10.573607730850732"><ele>752.0</ele><time>2026-04-06T13:29:11Z</time></trkpt><trkpt lat="44.460735338956205" lon="10.573665036125785"><ele>752.0</ele><time>2026-04-06T13:29:13Z</time></trkpt><trkpt lat="44.460668675702074" lon="10.573695162784103"><ele>752.0</ele><time>2026-04-06T13:29:14Z</time></trkpt><trkpt lat="44.46059252984654" lon="10.57366587132544"><ele>752.0</ele><time>2026-04-06T13:29:16Z</time></trkpt><trkpt lat="44.460486877929235" lon="10.573697732929611"><ele>752.0</ele><time>2026-04-06T13:29:19Z</time></trkpt><trkpt lat="44.46042644740445" lon="10.573737780179675"><ele>752.0</ele><time>2026-04-06T13:29:21Z</time></trkpt><trkpt lat="44.46035555525782" lon="10.573798607593258"><ele>752.0</ele><time>2026-04-06T13:29:23Z</time></trkpt><trkpt lat="44.46028641358465" lon="10.57379958350294"><ele>759.5</ele><time>2026-04-06T13:29:25Z</time></trkpt><trkpt lat="44.46018088174936" lon="10.573798885134877"><ele>767.0</ele><time>2026-04-06T13:29:27Z</time></trkpt><trkpt lat="44.460117543676255" lon="10.573783909085378"><ele>774.5</ele><time>2026-04-06T13:29:29Z</time></trkpt><trkpt lat="44.460052466146706" lon="10.573807094634152"><ele>782.0</ele><time>2026-04-06T13:29:31Z</time></trkpt><trkpt lat="44.459984380512296" lon="10.573834444519528"><ele>789.5000000000001</ele><time>2026-04-06T13:29:34Z</time></trkpt><trkpt lat="44.459904152984585" lon="10.573834890155771"><ele>797.0</ele><time>2026-04-06T13:29:40Z</time></trkpt><trkpt lat="44.459840679516006" lon="10.573833207264784"><ele>797.0000000000001</ele><time>2026-04-06T13:29:50Z</time></trkpt><trkpt lat="44.45986166705978" lon="10.57374322143507"><ele>797.0</ele><time>2026-04-06T13:31:01Z</time></trkpt><trkpt lat="44.459810257178916" lon="10.573798401878447"><ele>797.0</ele><time>2026-04-06T13:32:25Z</time></trkpt><trkpt lat="44.459741706219745" lon="10.57384154278527"><ele>797.0</ele><time>2026-04-06T13:32:29Z</time></trkpt><trkpt lat="44.45966297523246" lon="10.573867443914757"><ele>797.0000000000001</ele><time>2026-04-06T13:32:32Z</time></trkpt><trkpt lat="44.45957250233906" lon="10.573859105447195"><ele>797.0</ele><time>2026-04-06T13:32:36Z</time></trkpt><trkpt lat="44.45948272082296" lon="10.573874522970783"><ele>801.3333333333334</ele><time>2026-04-06T13:32:38Z</time></trkpt><trkpt lat="44.45940828751947" lon="10.573838265064426"><ele>805.6666666666667</ele><time>2026-04-06T13:32:40Z</time></trkpt><trkpt lat="44.459332034855514" lon="10.573816783428551"><ele>810.0</ele><time>2026-04-06T13:33:00Z</time></trkpt><trkpt lat="44.45926096687266" lon="10.573798942464116"><ele>814.3333333333333</ele><time>2026-04-06T13:33:02Z</time></trkpt><trkpt lat="44.45920389288683" lon="10.573856751123259"><ele>818.6666666666666</ele><time>2026-04-06T13:33:04Z</time></trkpt><trkpt lat="44.459139698986355" lon="10.573902617537195"><ele>823.0</ele><time>2026-04-06T13:33:06Z</time></trkpt><trkpt lat="44.4590233418776" lon="10.57387245110229"><ele>822.9999999999999</ele><time>2026-04-06T13:33:08Z</time></trkpt><trkpt lat="44.45896034520135" lon="10.573883380014491"><ele>823.0</ele><time>2026-04-06T13:33:09Z</time></trkpt><trkpt lat="44.458878764912136" lon="10.573891425475708"><ele>823.0</ele><time>2026-04-06T13:33:10Z</time></trkpt><trkpt lat="44.458816985721484" lon="10.573852097407487"><ele>823.0</ele><time>2026-04-06T13:33:11Z</time></trkpt><trkpt lat="44.458754553398755" lon="10.573799033394634"><ele>822.9999999999999</ele><time>2026-04-06T13:33:15Z</time></trkpt><trkpt lat="44.45865618538963" lon="10.57377622988226"><ele>823.0</ele><time>2026-04-06T13:33:18Z</time></trkpt><trkpt lat="44.458536883533895" lon="10.573658560371737"><ele>822.3333333333333</ele><time>2026-04-06T13:33:20Z</time></trkpt><trkpt lat="44.45845411426071" lon="10.573623333042388"><ele>821.6666666666666</ele><time>2026-04-06T13:33:21Z</time></trkpt><trkpt lat="44.45838278555413" lon="10.573571900654173"><ele>821.0</ele><time>2026-04-06T13:33:22Z</time></trkpt><trkpt lat="44.458313006622895" lon="10.573528197925516"><ele>820.3333333333333</ele><time>2026-04-06T13:33:23Z</time></trkpt><trkpt lat="44.4582111840146" lon="10.573473709312374"><ele>819.6666666666666</ele><time>2026-04-06T13:33:24Z</time></trkpt><trkpt lat="44.45814120012179" lon="10.57343071642394"><ele>819.0</ele><time>2026-04-06T13:33:25Z</time></trkpt><trkpt lat="44.45807849650888" lon="10.573381147082243"><ele>819.0</ele><time>2026-04-06T13:33:26Z</time></trkpt><trkpt lat="44.45800767023772" lon="10.573320500105694"><ele>819.0</ele><time>2026-04-06T13:33:27Z</time></trkpt><trkpt lat="44.45796160170535" lon="10.573198753162636"><ele>819.0</ele><time>2026-04-06T13:33:28Z</time></trkpt><trkpt lat="44.45790270990143" lon="10.57311260969162"><ele>819.0</ele><time>2026-04-06T13:33:29Z</time></trkpt><trkpt lat="44.457828328430104" lon="10.573014564352915"><ele>819.0</ele><time>2026-04-06T13:33:30Z</time></trkpt><trkpt lat="44.45773980806024" lon="10.572941677537948"><ele>816.8333333333334</ele><time>2026-04-06T13:33:31Z</time></trkpt><trkpt lat="44.4576983405519" lon="10.572873820049995"><ele>814.6666666666667</ele><time>2026-04-06T13:33:32Z</time></trkpt><trkpt lat="44.4575877448855" lon="10.572799805496135"><ele>812.5</ele><time>2026-04-06T13:33:34Z</time></trkpt><trkpt lat="44.457521920098394" lon="10.572855298332408"><ele>810.3333333333334</ele><time>2026-04-06T13:33:36Z</time></trkpt><trkpt lat="44.457447389185056" lon="10.572922967469669"><ele>808.1666666666667</ele><time>2026-04-06T13:33:38Z</time></trkpt><trkpt lat="44.457399242893594" lon="10.573005151501047"><ele>806.0</ele><time>2026-04-06T13:33:39Z</time></trkpt><trkpt lat="44.45735002280439" lon="10.57308338017129"><ele>811.3333333333334</ele><time>2026-04-06T13:33:40Z</time></trkpt><trkpt lat="44.45729026552887" lon="10.573170736827047"><ele>816.6666666666667</ele><time>2026-04-06T13:33:41Z</time></trkpt><trkpt lat="44.45722994015386" lon="10.573223978675918"><ele>822.0</ele><time>2026-04-06T13:33:42Z</time></trkpt><trkpt lat="44.45716728592079" lon="10.573285731778435"><ele>827.3333333333333</ele><time>2026-04-06T13:33:43Z</time></trkpt><trkpt lat="44.4570997515673" lon="10.573305435903315"><ele>832.6666666666666</ele><time>2026-04-06T13:33:44Z</time></trkpt><trkpt lat="44.4569742436193" lon="10.573313066425635"><ele>838.0</ele><time>2026-04-06T13:33:45Z</time></trkpt><trkpt lat="44.456905009730505" lon="10.573289424165777"><ele>839.3333333333333</ele><time>2026-04-06T13:33:46Z</time></trkpt><trkpt lat="44.45683741447212" lon="10.573223463872777"><ele>840.6666666666666</ele><time>2026-04-06T13:33:47Z</time></trkpt><trkpt lat="44.45676803953038" lon="10.57312464467742"><ele>842.0</ele><time>2026-04-06T13:33:48Z</time></trkpt><trkpt lat="44.45673801972138" lon="10.573040613907123"><ele>843.3333333333333</ele><time>2026-04-06T13:33:49Z</time></trkpt><trkpt lat="44.45666149456823" lon="10.572980050700865"><ele>844.6666666666666</ele><time>2026-04-06T13:33:50Z</time></trkpt><trkpt lat="44.45659435597344" lon="10.572920702833056"><ele>846.0</ele><time>2026-04-06T13:33:51Z</time></trkpt><trkpt lat="44.45651082201791" lon="10.572919013337854"><ele>846.0</ele><time>2026-04-06T13:33:52Z</time></trkpt><trkpt lat="44.456446016238786" lon="10.572914210802484"><ele>846.0</ele><time>2026-04-06T13:33:54Z</time></trkpt><trkpt lat="44.45635691003207" lon="10.572961633025079"><ele>846.0</ele><time>2026-04-06T13:33:56Z</time></trkpt><trkpt lat="44.456237817899776" lon="10.572982344680486"><ele>846.0</ele><time>2026-04-06T13:33:58Z</time></trkpt><trkpt lat="44.456175605062924" lon="10.57295847417785"><ele>846.0</ele><time>2026-04-06T13:33:59Z</time></trkpt><trkpt lat="44.456111614485266" lon="10.572968536350057"><ele>846.0</ele><time>2026-04-06T13:34:00Z</time></trkpt><trkpt lat="44.45603671185087" lon="10.572996754375442"><ele>846.8333333333334</ele><time>2026-04-06T13:34:01Z</time></trkpt><trkpt lat="44.45596360448218" lon="10.573029216773955"><ele>847.6666666666667</ele><time>2026-04-06T13:34:02Z</time></trkpt><trkpt lat="44.45586326176187" lon="10.573003195287948"><ele>848.5</ele><time>2026-04-06T13:34:04Z</time></trkpt><trkpt lat="44.455811285112276" lon="10.572912746490047"><ele>849.3333333333334</ele><time>2026-04-06T13:34:05Z</time></trkpt><trkpt lat="44.455755634810934" lon="10.572819939531941"><ele>850.1666666666667</ele><time>2026-04-06T13:34:06Z</time></trkpt><trkpt lat="44.455704660869024" lon="10.572721799208386"><ele>851.0</ele><time>2026-04-06T13:34:07Z</time></trkpt><trkpt lat="44.455660620471" lon="10.57262047668396"><ele>848.3333333333334</ele><time>2026-04-06T13:34:08Z</time></trkpt><trkpt lat="44.45562317427242" lon="10.572526113770632"><ele>845.6666666666667</ele><time>2026-04-06T13:34:09Z</time></trkpt><trkpt lat="44.45558232426355" lon="10.57243143594807"><ele>843.0</ele><time>2026-04-06T13:34:10Z</time></trkpt><trkpt lat="44.455557274744855" lon="10.572332323991274"><ele>840.3333333333333</ele><time>2026-04-06T13:34:11Z</time></trkpt><trkpt lat="44.4555286807625" lon="10.572163282473467"><ele>837.6666666666666</ele><time>2026-04-06T13:34:13Z</time></trkpt><trkpt lat="44.45551810329555" lon="10.572067838161235"><ele>835.0</ele><time>2026-04-06T13:34:14Z</time></trkpt><trkpt lat="44.45544110483468" lon="10.571912778202808"><ele>834.9999999999999</ele><time>2026-04-06T13:34:16Z</time></trkpt><trkpt lat="44.45537156870495" lon="10.57184338971085"><ele>835.0</ele><time>2026-04-06T13:34:17Z</time></trkpt><trkpt lat="44.45531197045221" lon="10.571780413156707"><ele>835.0</ele><time>2026-04-06T13:34:18Z</time></trkpt><trkpt lat="44.45526938318076" lon="10.571654646854135"><ele>835.0</ele><time>2026-04-06T13:34:20Z</time></trkpt><trkpt lat="44.45525203156925" lon="10.571560531076788"><ele>834.9999999999999</ele><time>2026-04-06T13:34:21Z</time></trkpt><trkpt lat="44.45518969533131" lon="10.571510456749321"><ele>835.0</ele><time>2026-04-06T13:34:23Z</time></trkpt><trkpt lat="44.455116116219806" lon="10.571412806561469"><ele>835.0</ele><time>2026-04-06T13:34:25Z</time></trkpt><trkpt lat="44.45497291015924" lon="10.5714193951756"><ele>835.0</ele><time>2026-04-06T13:34:26.999Z</time></trkpt><trkpt lat="44.45486755484941" lon="10.571451069084363"><ele>835.0</ele><time>2026-04-06T13:34:27.999Z</time></trkpt><trkpt lat="44.454762643040965" lon="10.571426068128346"><ele>835.0</ele><time>2026-04-06T13:34:28.999Z</time></trkpt><trkpt lat="44.45468845981471" lon="10.57140840107077"><ele>835.0</ele><time>2026-04-06T13:34:29.999Z</time></trkpt><trkpt lat="44.45459001058266" lon="10.571366441554195"><ele>836.6</ele><time>2026-04-06T13:34:30.999Z</time></trkpt><trkpt lat="44.45450069885063" lon="10.571312196738026"><ele>838.2</ele><time>2026-04-06T13:34:31.999Z</time></trkpt><trkpt lat="44.45443109942686" lon="10.571217862463401"><ele>839.8</ele><time>2026-04-06T13:34:32.999Z</time></trkpt><trkpt lat="44.45435386332415" lon="10.571154460954961"><ele>841.4</ele><time>2026-04-06T13:34:33.999Z</time></trkpt><trkpt lat="44.45428316537525" lon="10.571039901903417"><ele>843.0</ele><time>2026-04-06T13:34:34.999Z</time></trkpt><trkpt lat="44.454212452937334" lon="10.570899161853696"><ele>840.1666666666666</ele><time>2026-04-06T13:34:35.999Z</time></trkpt><trkpt lat="44.45415278925367" lon="10.570779067446367"><ele>837.3333333333333</ele><time>2026-04-06T13:34:36.999Z</time></trkpt><trkpt lat="44.45407158689595" lon="10.570720453936582"><ele>834.5</ele><time>2026-04-06T13:34:37.999Z</time></trkpt><trkpt lat="44.45400556666782" lon="10.570655433692663"><ele>831.6666666666666</ele><time>2026-04-06T13:34:38.999Z</time></trkpt><trkpt lat="44.45395513044747" lon="10.57058358954424"><ele>828.8333333333333</ele><time>2026-04-06T13:34:39.999Z</time></trkpt><trkpt lat="44.453882322614525" lon="10.57054292251982"><ele>826.0</ele><time>2026-04-06T13:34:41.999Z</time></trkpt><trkpt lat="44.453787542428714" lon="10.57044538370571"><ele>820.4</ele><time>2026-04-06T13:34:44.999Z</time></trkpt><trkpt lat="44.45375599929532" lon="10.57035147155759"><ele>814.8</ele><time>2026-04-06T13:34:45.999Z</time></trkpt><trkpt lat="44.45372861701258" lon="10.570221134057508"><ele>809.1999999999999</ele><time>2026-04-06T13:34:47.999Z</time></trkpt><trkpt lat="44.45366140726334" lon="10.570174549549973"><ele>803.5999999999999</ele><time>2026-04-06T13:34:48.999Z</time></trkpt><trkpt lat="44.453600402223934" lon="10.570123538194855"><ele>798.0</ele><time>2026-04-06T13:34:49.999Z</time></trkpt><trkpt lat="44.45346724548776" lon="10.570017816235834"><ele>798.0</ele><time>2026-04-06T13:34:51.999Z</time></trkpt><trkpt lat="44.45340385247154" lon="10.569956385700154"><ele>798.0</ele><time>2026-04-06T13:34:52.999Z</time></trkpt><trkpt lat="44.45338655646266" lon="10.569850856206024"><ele>798.0</ele><time>2026-04-06T13:34:53.999Z</time></trkpt><trkpt lat="44.453354848513776" lon="10.569748074643414"><ele>798.0</ele><time>2026-04-06T13:34:54.999Z</time></trkpt><trkpt lat="44.45333870809927" lon="10.569662515835489"><ele>798.0</ele><time>2026-04-06T13:34:55.999Z</time></trkpt><trkpt lat="44.45332920606825" lon="10.569328352597262"><ele>798.25</ele><time>2026-04-06T13:35:06Z</time></trkpt><trkpt lat="44.45332186695397" lon="10.569163614397626"><ele>798.5</ele><time>2026-04-06T13:35:07Z</time></trkpt><trkpt lat="44.4533497401275" lon="10.568979436629975"><ele>798.75</ele><time>2026-04-06T13:35:08Z</time></trkpt><trkpt lat="44.453367052279006" lon="10.568805678131014"><ele>799.0</ele><time>2026-04-06T13:35:09Z</time></trkpt><trkpt lat="44.453385800302044" lon="10.56860890111645"><ele>799.6</ele><time>2026-04-06T13:35:10Z</time></trkpt><trkpt lat="44.4533976468121" lon="10.568428833557743"><ele>800.2</ele><time>2026-04-06T13:35:11Z</time></trkpt><trkpt lat="44.45340403353759" lon="10.568271111747357"><ele>800.8000000000001</ele><time>2026-04-06T13:35:12Z</time></trkpt><trkpt lat="44.45339809509344" lon="10.568169430519184"><ele>801.4000000000001</ele><time>2026-04-06T13:35:13Z</time></trkpt><trkpt lat="44.4533912446269" lon="10.568064785379477"><ele>802.0</ele><time>2026-04-06T13:35:14Z</time></trkpt><trkpt lat="44.453375404819624" lon="10.567942982167073"><ele>800.6</ele><time>2026-04-06T13:35:15Z</time></trkpt><trkpt lat="44.45337108280075" lon="10.567844268962604"><ele>799.2</ele><time>2026-04-06T13:35:16Z</time></trkpt><trkpt lat="44.45338913124855" lon="10.567655292370091"><ele>797.8</ele><time>2026-04-06T13:35:18Z</time></trkpt><trkpt lat="44.45340168895966" lon="10.567562023664134"><ele>796.4</ele><time>2026-04-06T13:35:19Z</time></trkpt><trkpt lat="44.4533592926759" lon="10.56748300745404"><ele>795.0</ele><time>2026-04-06T13:35:20Z</time></trkpt><trkpt lat="44.45325986987021" lon="10.567370872109851"><ele>795.0</ele><time>2026-04-06T13:35:21Z</time></trkpt><trkpt lat="44.45317742925353" lon="10.567278642696877"><ele>795.0</ele><time>2026-04-06T13:35:22Z</time></trkpt><trkpt lat="44.453126835589416" lon="10.567178505767982"><ele>795.0</ele><time>2026-04-06T13:35:23Z</time></trkpt><trkpt lat="44.45307982115653" lon="10.566981213762347"><ele>795.0</ele><time>2026-04-06T13:35:24Z</time></trkpt><trkpt lat="44.45302838542249" lon="10.56683653655847"><ele>793.6</ele><time>2026-04-06T13:35:25Z</time></trkpt><trkpt lat="44.45299409910843" lon="10.566700098447352"><ele>792.2</ele><time>2026-04-06T13:35:26Z</time></trkpt><trkpt lat="44.4529856052992" lon="10.566566260922597"><ele>790.8</ele><time>2026-04-06T13:35:27Z</time></trkpt><trkpt lat="44.45300969908464" lon="10.56642341212201"><ele>789.4</ele><time>2026-04-06T13:35:28Z</time></trkpt><trkpt lat="44.453058151169024" lon="10.566294256522541"><ele>788.0</ele><time>2026-04-06T13:35:29Z</time></trkpt><trkpt lat="44.45306405392583" lon="10.566175316425758"><ele>787.8</ele><time>2026-04-06T13:35:30Z</time></trkpt><trkpt lat="44.453057095247594" lon="10.566047249874766"><ele>787.5999999999999</ele><time>2026-04-06T13:35:31Z</time></trkpt><trkpt lat="44.453026762569316" lon="10.565964036013233"><ele>787.4000000000001</ele><time>2026-04-06T13:35:32Z</time></trkpt><trkpt lat="44.45300242010428" lon="10.565739212221748"><ele>787.2</ele><time>2026-04-06T13:35:34Z</time></trkpt><trkpt lat="44.45297834916864" lon="10.565567540823785"><ele>787.0</ele><time>2026-04-06T13:35:35Z</time></trkpt><trkpt lat="44.452930016846786" lon="10.565411039646603"><ele>785.2</ele><time>2026-04-06T13:35:36Z</time></trkpt><trkpt lat="44.45288362032283" lon="10.56527203969659"><ele>783.4000000000001</ele><time>2026-04-06T13:35:37Z</time></trkpt><trkpt lat="44.45287101467923" lon="10.565152516973237"><ele>781.5999999999999</ele><time>2026-04-06T13:35:38Z</time></trkpt><trkpt lat="44.452895177803796" lon="10.565055793350423"><ele>779.8</ele><time>2026-04-06T13:35:39Z</time></trkpt><trkpt lat="44.45291314878945" lon="10.564932466495264"><ele>778.0</ele><time>2026-04-06T13:35:40Z</time></trkpt><trkpt lat="44.45290505813595" lon="10.56478058642887"><ele>778.0</ele><time>2026-04-06T13:35:41Z</time></trkpt><trkpt lat="44.452887842666954" lon="10.564676358413093"><ele>778.0</ele><time>2026-04-06T13:35:42Z</time></trkpt><trkpt lat="44.45287640861799" lon="10.564483726966568"><ele>778.0</ele><time>2026-04-06T13:35:43Z</time></trkpt><trkpt lat="44.45285550736794" lon="10.56432801185246"><ele>778.0</ele><time>2026-04-06T13:35:44Z</time></trkpt><trkpt lat="44.452810177959314" lon="10.564174540710228"><ele>778.0</ele><time>2026-04-06T13:35:45Z</time></trkpt><trkpt lat="44.452797313726485" lon="10.564027029239499"><ele>778.2</ele><time>2026-04-06T13:35:46Z</time></trkpt><trkpt lat="44.45282203397502" lon="10.563921620186981"><ele>778.4</ele><time>2026-04-06T13:35:47Z</time></trkpt><trkpt lat="44.45286652272081" lon="10.563793705334492"><ele>778.6</ele><time>2026-04-06T13:35:48Z</time></trkpt><trkpt lat="44.4529147547781" lon="10.563662935901748"><ele>778.8000000000001</ele><time>2026-04-06T13:35:49Z</time></trkpt><trkpt lat="44.45294833223341" lon="10.563518187443107"><ele>779.0</ele><time>2026-04-06T13:35:50Z</time></trkpt><trkpt lat="44.452964902856365" lon="10.56339025174246"><ele>779.0</ele><time>2026-04-06T13:35:51Z</time></trkpt><trkpt lat="44.45297838315875" lon="10.56325334973419"><ele>779.0</ele><time>2026-04-06T13:35:52Z</time></trkpt><trkpt lat="44.4529672084488" lon="10.563115707792209"><ele>779.0</ele><time>2026-04-06T13:35:53Z</time></trkpt><trkpt lat="44.45297000218036" lon="10.562958072275629"><ele>779.0</ele><time>2026-04-06T13:35:54Z</time></trkpt><trkpt lat="44.45297047780894" lon="10.562861727477017"><ele>779.0</ele><time>2026-04-06T13:35:55Z</time></trkpt><trkpt lat="44.45295981536591" lon="10.562745084924408"><ele>775.1666666666667</ele><time>2026-04-06T13:35:56Z</time></trkpt><trkpt lat="44.452950889696595" lon="10.562581220000173"><ele>771.3333333333334</ele><time>2026-04-06T13:35:58Z</time></trkpt><trkpt lat="44.45294566508306" lon="10.562479329569985"><ele>767.5</ele><time>2026-04-06T13:35:59Z</time></trkpt><trkpt lat="44.45293874018857" lon="10.562377180046548"><ele>763.6666666666667</ele><time>2026-04-06T13:36:00Z</time></trkpt><trkpt lat="44.45293733038824" lon="10.562271232459862"><ele>759.8333333333334</ele><time>2026-04-06T13:36:01Z</time></trkpt><trkpt lat="44.452928730223924" lon="10.562164940399926"><ele>756.0</ele><time>2026-04-06T13:36:02Z</time></trkpt><trkpt lat="44.45290487888039" lon="10.56205487149525"><ele>755.5</ele><time>2026-04-06T13:36:03Z</time></trkpt><trkpt lat="44.45287462637731" lon="10.561960516131641"><ele>755.0</ele><time>2026-04-06T13:36:35.999Z</time></trkpt><trkpt lat="44.45284691184232" lon="10.561827928313143"><ele>754.5</ele><time>2026-04-06T13:36:37.999Z</time></trkpt><trkpt lat="44.452837911748674" lon="10.561696982761571"><ele>754.0</ele><time>2026-04-06T13:36:40.999Z</time></trkpt><trkpt lat="44.45277672990597" lon="10.561732079914103"><ele>753.5</ele><time>2026-04-06T13:36:42.999Z</time></trkpt><trkpt lat="44.45275097120201" lon="10.561827592299158"><ele>753.0</ele><time>2026-04-06T13:36:45.999Z</time></trkpt><trkpt lat="44.45271083828522" lon="10.561936553147122"><ele>754.5</ele><time>2026-04-06T13:36:49.999Z</time></trkpt><trkpt lat="44.45266979708857" lon="10.562073392237147"><ele>756.0</ele><time>2026-04-06T13:36:51.999Z</time></trkpt><trkpt lat="44.45253661849464" lon="10.562694854635717"><ele>756.0</ele><time>2026-04-06T13:36:54.999Z</time></trkpt><trkpt lat="44.452481364532126" lon="10.562791911178643"><ele>756.0</ele><time>2026-04-06T13:36:55.999Z</time></trkpt><trkpt lat="44.45248590622331" lon="10.562891220541353"><ele>756.0</ele><time>2026-04-06T13:36:56.999Z</time></trkpt><trkpt lat="44.452425052312286" lon="10.562959389377687"><ele>756.0</ele><time>2026-04-06T13:36:57.999Z</time></trkpt><trkpt lat="44.45234680625375" lon="10.563015708742101"><ele>756.0</ele><time>2026-04-06T13:36:58.999Z</time></trkpt><trkpt lat="44.45226977075926" lon="10.563101427982296"><ele>756.0</ele><time>2026-04-06T13:36:59.999Z</time></trkpt><trkpt lat="44.452220899072444" lon="10.56318267176244"><ele>758.5999999999999</ele><time>2026-04-06T13:37:00.999Z</time></trkpt><trkpt lat="44.452182499518486" lon="10.563277643674143"><ele>761.2</ele><time>2026-04-06T13:37:01.999Z</time></trkpt><trkpt lat="44.45214600549696" lon="10.5633527159063"><ele>763.8</ele><time>2026-04-06T13:37:02.999Z</time></trkpt><trkpt lat="44.452097968046424" lon="10.563561083254234"><ele>766.4000000000001</ele><time>2026-04-06T13:37:04.999Z</time></trkpt><trkpt lat="44.452050119249826" lon="10.563644361598925"><ele>769.0</ele><time>2026-04-06T13:37:05.999Z</time></trkpt><trkpt lat="44.45196877020706" lon="10.563711881592319"><ele>759.8000000000001</ele><time>2026-04-06T13:37:06.999Z</time></trkpt><trkpt lat="44.45191755740756" lon="10.563835727716574"><ele>750.6</ele><time>2026-04-06T13:37:08Z</time></trkpt><trkpt lat="44.45185484767532" lon="10.563992203866759"><ele>741.4</ele><time>2026-04-06T13:37:10Z</time></trkpt><trkpt lat="44.45188257910291" lon="10.564101723166669"><ele>732.2</ele><time>2026-04-06T13:37:11Z</time></trkpt><trkpt lat="44.45181996016037" lon="10.564216218647168"><ele>723.0</ele><time>2026-04-06T13:37:13Z</time></trkpt><trkpt lat="44.45181748876056" lon="10.564341896763585"><ele>723.0</ele><time>2026-04-06T13:37:14Z</time></trkpt><trkpt lat="44.45183092119833" lon="10.564474301948"><ele>723.0</ele><time>2026-04-06T13:37:15Z</time></trkpt><trkpt lat="44.45185026458169" lon="10.56459297349895"><ele>723.0</ele><time>2026-04-06T13:37:16Z</time></trkpt><trkpt lat="44.45188472546511" lon="10.564680887945167"><ele>723.0</ele><time>2026-04-06T13:37:17Z</time></trkpt><trkpt lat="44.4519067482537" lon="10.564785448088395"><ele>723.0</ele><time>2026-04-06T13:37:18Z</time></trkpt><trkpt lat="44.4519156873888" lon="10.56488048261007"><ele>723.0</ele><time>2026-04-06T13:37:19Z</time></trkpt><trkpt lat="44.451925119890184" lon="10.56500545186892"><ele>722.6666666666666</ele><time>2026-04-06T13:37:20Z</time></trkpt><trkpt lat="44.451918199592185" lon="10.565127758404858"><ele>722.3333333333334</ele><time>2026-04-06T13:37:21Z</time></trkpt><trkpt lat="44.45189111957906" lon="10.565241520939042"><ele>722.0</ele><time>2026-04-06T13:37:22Z</time></trkpt><trkpt lat="44.451876176519036" lon="10.565333525931651"><ele>721.6666666666667</ele><time>2026-04-06T13:37:23Z</time></trkpt><trkpt lat="44.45184696592338" lon="10.565419235708548"><ele>721.3333333333334</ele><time>2026-04-06T13:37:24Z</time></trkpt><trkpt lat="44.45184791976672" lon="10.565566049678477"><ele>721.0</ele><time>2026-04-06T13:37:26Z</time></trkpt><trkpt lat="44.4518637333306" lon="10.565666874378001"><ele>720.4</ele><time>2026-04-06T13:37:27Z</time></trkpt><trkpt lat="44.45183524524513" lon="10.56574886033239"><ele>719.8</ele><time>2026-04-06T13:37:28Z</time></trkpt><trkpt lat="44.451835242141016" lon="10.565844288556093"><ele>719.1999999999999</ele><time>2026-04-06T13:37:29Z</time></trkpt><trkpt lat="44.451817174763846" lon="10.56594911418807"><ele>718.5999999999999</ele><time>2026-04-06T13:37:30Z</time></trkpt><trkpt lat="44.45177151751923" lon="10.566171391423687"><ele>718.0</ele><time>2026-04-06T13:37:32Z</time></trkpt><trkpt lat="44.45173102672835" lon="10.566286961345247"><ele>717.0</ele><time>2026-04-06T13:37:33Z</time></trkpt><trkpt lat="44.45168403725267" lon="10.56641652270426"><ele>716.0</ele><time>2026-04-06T13:37:35Z</time></trkpt><trkpt lat="44.451664417450246" lon="10.56653579606897"><ele>715.0</ele><time>2026-04-06T13:37:37Z</time></trkpt><trkpt lat="44.451661361992585" lon="10.566663741773796"><ele>714.0</ele><time>2026-04-06T13:37:39Z</time></trkpt><trkpt lat="44.45161794214078" lon="10.566771422250497"><ele>713.0</ele><time>2026-04-06T13:37:41Z</time></trkpt><trkpt lat="44.45157253520483" lon="10.566836498781154"><ele>712.0</ele><time>2026-04-06T13:37:49Z</time></trkpt><trkpt lat="44.45154204881544" lon="10.566720237731866"><ele>712.0</ele><time>2026-04-06T13:37:51Z</time></trkpt><trkpt lat="44.45149866394671" lon="10.5666284431566"><ele>712.0</ele><time>2026-04-06T13:37:53Z</time></trkpt><trkpt lat="44.4514772419388" lon="10.566541937269992"><ele>712.0</ele><time>2026-04-06T13:37:58Z</time></trkpt><trkpt lat="44.451469687392425" lon="10.56636895420223"><ele>712.0</ele><time>2026-04-06T13:38:08Z</time></trkpt><trkpt lat="44.451449147620615" lon="10.566214579624306"><ele>712.0</ele><time>2026-04-06T13:38:10Z</time></trkpt><trkpt lat="44.45144488072766" lon="10.566109614730761"><ele>713.2</ele><time>2026-04-06T13:38:11Z</time></trkpt><trkpt lat="44.451449456468815" lon="10.565984689775838"><ele>714.4000000000001</ele><time>2026-04-06T13:38:12Z</time></trkpt><trkpt lat="44.451431862213404" lon="10.565845236409432"><ele>715.5999999999999</ele><time>2026-04-06T13:38:13Z</time></trkpt><trkpt lat="44.451410455093416" lon="10.565697020164576"><ele>716.8</ele><time>2026-04-06T13:38:14Z</time></trkpt><trkpt lat="44.45138483535655" lon="10.565507992902438"><ele>718.0</ele><time>2026-04-06T13:38:15Z</time></trkpt><trkpt lat="44.451366666819965" lon="10.56534344259119"><ele>718.5999999999999</ele><time>2026-04-06T13:38:16Z</time></trkpt><trkpt lat="44.45135142568927" lon="10.565205405680214"><ele>719.1999999999999</ele><time>2026-04-06T13:38:17Z</time></trkpt><trkpt lat="44.45133887561829" lon="10.565078390980476"><ele>719.8</ele><time>2026-04-06T13:38:18Z</time></trkpt><trkpt lat="44.45133183014738" lon="10.564940138039617"><ele>720.4</ele><time>2026-04-06T13:38:19Z</time></trkpt><trkpt lat="44.45133218641562" lon="10.564810848562718"><ele>721.0</ele><time>2026-04-06T13:38:20Z</time></trkpt><trkpt lat="44.45134313736794" lon="10.564677319645343"><ele>721.5</ele><time>2026-04-06T13:38:21Z</time></trkpt><trkpt lat="44.451385415312764" lon="10.564513289218745"><ele>722.0</ele><time>2026-04-06T13:38:22Z</time></trkpt><trkpt lat="44.45142379367193" lon="10.564359757477861"><ele>722.5</ele><time>2026-04-06T13:38:23Z</time></trkpt><trkpt lat="44.45144623187433" lon="10.564230151708013"><ele>723.0</ele><time>2026-04-06T13:38:24Z</time></trkpt><trkpt lat="44.4514424916484" lon="10.5640549412039"><ele>723.0</ele><time>2026-04-06T13:38:25Z</time></trkpt><trkpt lat="44.4514346222747" lon="10.563907820573368"><ele>723.0</ele><time>2026-04-06T13:38:26Z</time></trkpt><trkpt lat="44.45143366999812" lon="10.563778759849786"><ele>723.0</ele><time>2026-04-06T13:38:27Z</time></trkpt><trkpt lat="44.45144193574211" lon="10.56364614252856"><ele>723.0</ele><time>2026-04-06T13:38:28Z</time></trkpt><trkpt lat="44.4514806603651" lon="10.563520025161248"><ele>723.0</ele><time>2026-04-06T13:38:29Z</time></trkpt><trkpt lat="44.45153594002655" lon="10.563402775465448"><ele>721.8</ele><time>2026-04-06T13:38:30Z</time></trkpt><trkpt lat="44.451611511978115" lon="10.563303000206592"><ele>720.5999999999999</ele><time>2026-04-06T13:38:31Z</time></trkpt><trkpt lat="44.45167512165349" lon="10.563195378810065"><ele>719.4000000000001</ele><time>2026-04-06T13:38:32Z</time></trkpt><trkpt lat="44.45173659025478" lon="10.563054107444849"><ele>718.2</ele><time>2026-04-06T13:38:33Z</time></trkpt><trkpt lat="44.45179349144971" lon="10.56291423086172"><ele>717.0</ele><time>2026-04-06T13:38:34Z</time></trkpt><trkpt lat="44.451847548207404" lon="10.562778329223908"><ele>713.25</ele><time>2026-04-06T13:38:35Z</time></trkpt><trkpt lat="44.45189188316583" lon="10.562621644963553"><ele>709.5</ele><time>2026-04-06T13:38:36Z</time></trkpt><trkpt lat="44.45189349243844" lon="10.562445748294136"><ele>705.75</ele><time>2026-04-06T13:38:37Z</time></trkpt><trkpt lat="44.45189462631822" lon="10.562264562894226"><ele>702.0</ele><time>2026-04-06T13:38:38Z</time></trkpt><trkpt lat="44.45192316656652" lon="10.562123085106933"><ele>699.75</ele><time>2026-04-06T13:38:38.999Z</time></trkpt><trkpt lat="44.45199117407621" lon="10.561997463960806"><ele>697.5</ele><time>2026-04-06T13:38:39.999Z</time></trkpt><trkpt lat="44.45202185856839" lon="10.561849126659121"><ele>695.25</ele><time>2026-04-06T13:38:40.999Z</time></trkpt><trkpt lat="44.45203674331721" lon="10.561687876608666"><ele>693.0</ele><time>2026-04-06T13:38:41.999Z</time></trkpt><trkpt lat="44.45204815353595" lon="10.561517306728382"><ele>693.0</ele><time>2026-04-06T13:38:42.999Z</time></trkpt><trkpt lat="44.45205546546798" lon="10.561337868176365"><ele>693.0</ele><time>2026-04-06T13:38:43.999Z</time></trkpt><trkpt lat="44.45205474585001" lon="10.561180896792008"><ele>693.0</ele><time>2026-04-06T13:38:44.999Z</time></trkpt><trkpt lat="44.45203515037254" lon="10.560999473829751"><ele>693.0</ele><time>2026-04-06T13:38:45.999Z</time></trkpt><trkpt lat="44.45201794656437" lon="10.560857171700926"><ele>692.0</ele><time>2026-04-06T13:38:46.999Z</time></trkpt><trkpt lat="44.45200934867657" lon="10.56071538619818"><ele>691.0</ele><time>2026-04-06T13:38:47.999Z</time></trkpt><trkpt lat="44.452027643220525" lon="10.560593969010178"><ele>690.0</ele><time>2026-04-06T13:38:48.999Z</time></trkpt><trkpt lat="44.45207785379487" lon="10.56045640822684"><ele>689.0</ele><time>2026-04-06T13:38:49.999Z</time></trkpt><trkpt lat="44.4521366732938" lon="10.560324590575583"><ele>688.0</ele><time>2026-04-06T13:38:50.999Z</time></trkpt><trkpt lat="44.452203403963786" lon="10.560256857455986"><ele>694.8</ele><time>2026-04-06T13:38:51.999Z</time></trkpt><trkpt lat="44.452289432039635" lon="10.56021103325012"><ele>701.5999999999999</ele><time>2026-04-06T13:38:52.999Z</time></trkpt><trkpt lat="44.45238674310065" lon="10.560135732040989"><ele>708.4000000000001</ele><time>2026-04-06T13:38:53.999Z</time></trkpt><trkpt lat="44.45249070494893" lon="10.5600485219696"><ele>715.2</ele><time>2026-04-06T13:38:54.999Z</time></trkpt><trkpt lat="44.45257401453668" lon="10.559975747029888"><ele>722.0</ele><time>2026-04-06T13:38:55.999Z</time></trkpt><trkpt lat="44.45265348145525" lon="10.559902544538863"><ele>722.0</ele><time>2026-04-06T13:38:56.999Z</time></trkpt><trkpt lat="44.452747498667605" lon="10.559814805931646"><ele>722.0</ele><time>2026-04-06T13:38:57.999Z</time></trkpt><trkpt lat="44.45284942251209" lon="10.559721179823743"><ele>722.0</ele><time>2026-04-06T13:38:58.999Z</time></trkpt><trkpt lat="44.45292621233438" lon="10.559649893297749"><ele>722.0</ele><time>2026-04-06T13:38:59.999Z</time></trkpt><trkpt lat="44.45299672008393" lon="10.559582158581044"><ele>722.0</ele><time>2026-04-06T13:39:00.999Z</time></trkpt><trkpt lat="44.453065186338215" lon="10.559485144807732"><ele>721.25</ele><time>2026-04-06T13:39:01.999Z</time></trkpt><trkpt lat="44.45312188742353" lon="10.559252583148394"><ele>720.5</ele><time>2026-04-06T13:39:03.999Z</time></trkpt><trkpt lat="44.45312755502078" lon="10.559075715222836"><ele>719.75</ele><time>2026-04-06T13:39:04.999Z</time></trkpt><trkpt lat="44.45315904537829" lon="10.558942364884945"><ele>719.0</ele><time>2026-04-06T13:39:05.999Z</time></trkpt><trkpt lat="44.45320486300645" lon="10.558806594632102"><ele>716.8000000000001</ele><time>2026-04-06T13:39:06.999Z</time></trkpt><trkpt lat="44.45323663188553" lon="10.558677053262157"><ele>714.6</ele><time>2026-04-06T13:39:07.999Z</time></trkpt><trkpt lat="44.45325916842612" lon="10.558550646458945"><ele>712.4</ele><time>2026-04-06T13:39:08.999Z</time></trkpt><trkpt lat="44.45328932902352" lon="10.558424533417773"><ele>710.2</ele><time>2026-04-06T13:39:09.999Z</time></trkpt><trkpt lat="44.453330624796216" lon="10.558312257683891"><ele>708.0</ele><time>2026-04-06T13:39:10.999Z</time></trkpt><trkpt lat="44.45338324863853" lon="10.558199342149802"><ele>708.0</ele><time>2026-04-06T13:39:11.999Z</time></trkpt><trkpt lat="44.45342544324785" lon="10.558085554860122"><ele>708.0</ele><time>2026-04-06T13:39:12.999Z</time></trkpt><trkpt lat="44.453452180932054" lon="10.557941244602885"><ele>708.0</ele><time>2026-04-06T13:39:14Z</time></trkpt><trkpt lat="44.4534053229861" lon="10.55780665878534"><ele>708.0</ele><time>2026-04-06T13:39:15Z</time></trkpt><trkpt lat="44.45334695699962" lon="10.557693892906688"><ele>708.0</ele><time>2026-04-06T13:39:16Z</time></trkpt><trkpt lat="44.45327363177101" lon="10.557579056729674"><ele>706.8</ele><time>2026-04-06T13:39:17Z</time></trkpt><trkpt lat="44.4532180530675" lon="10.557496532066843"><ele>705.5999999999999</ele><time>2026-04-06T13:39:18Z</time></trkpt><trkpt lat="44.45320646872306" lon="10.557334106898612"><ele>704.4000000000001</ele><time>2026-04-06T13:39:19Z</time></trkpt><trkpt lat="44.45322974061032" lon="10.557189098932435"><ele>703.2</ele><time>2026-04-06T13:39:20Z</time></trkpt><trkpt lat="44.453231226702165" lon="10.557075389743451"><ele>702.0</ele><time>2026-04-06T13:39:21Z</time></trkpt><trkpt lat="44.45327251375653" lon="10.55695351310093"><ele>700.0</ele><time>2026-04-06T13:39:22Z</time></trkpt><trkpt lat="44.45335917105265" lon="10.556824693726218"><ele>698.0</ele><time>2026-04-06T13:39:23Z</time></trkpt><trkpt lat="44.45339950984148" lon="10.556682650526895"><ele>696.0</ele><time>2026-04-06T13:39:24Z</time></trkpt><trkpt lat="44.453435630203884" lon="10.556561221109757"><ele>694.0</ele><time>2026-04-06T13:39:25Z</time></trkpt><trkpt lat="44.45346185738925" lon="10.55643731455747"><ele>692.0</ele><time>2026-04-06T13:39:26Z</time></trkpt><trkpt lat="44.45350557022298" lon="10.556240937505017"><ele>692.0</ele><time>2026-04-06T13:39:28Z</time></trkpt><trkpt lat="44.453614101171105" lon="10.556256067181305"><ele>692.0</ele><time>2026-04-06T13:39:34Z</time></trkpt><trkpt lat="44.453628690586605" lon="10.556342906522685"><ele>692.0</ele><time>2026-04-06T13:39:35Z</time></trkpt><trkpt lat="44.45366967151196" lon="10.55644436822286"><ele>692.0</ele><time>2026-04-06T13:39:36Z</time></trkpt><trkpt lat="44.45370192665208" lon="10.556554023362171"><ele>692.0</ele><time>2026-04-06T13:39:37Z</time></trkpt><trkpt lat="44.45375021895121" lon="10.556661632329767"><ele>692.0</ele><time>2026-04-06T13:39:38Z</time></trkpt><trkpt lat="44.453812147388994" lon="10.556797091733477"><ele>692.2</ele><time>2026-04-06T13:39:39Z</time></trkpt><trkpt lat="44.45391555475344" lon="10.556900028405092"><ele>692.4000000000001</ele><time>2026-04-06T13:39:40Z</time></trkpt><trkpt lat="44.45397621334322" lon="10.557037303833395"><ele>692.5999999999999</ele><time>2026-04-06T13:39:41Z</time></trkpt><trkpt lat="44.45401672288093" lon="10.557161491565575"><ele>692.8</ele><time>2026-04-06T13:39:42Z</time></trkpt><trkpt lat="44.45404389344147" lon="10.557303762469255"><ele>693.0</ele><time>2026-04-06T13:39:43Z</time></trkpt><trkpt lat="44.45405869377539" lon="10.557444847886174"><ele>693.0</ele><time>2026-04-06T13:39:44Z</time></trkpt><trkpt lat="44.454066312680375" lon="10.55759080056143"><ele>693.0</ele><time>2026-04-06T13:39:45Z</time></trkpt><trkpt lat="44.45406785373363" lon="10.557736504340511"><ele>693.0</ele><time>2026-04-06T13:39:46Z</time></trkpt><trkpt lat="44.454067465354505" lon="10.557883494563013"><ele>693.0</ele><time>2026-04-06T13:39:47Z</time></trkpt><trkpt lat="44.4540646186729" lon="10.558026594235384"><ele>693.0</ele><time>2026-04-06T13:39:48Z</time></trkpt><trkpt lat="44.454075362299896" lon="10.558156999695349"><ele>693.1666666666666</ele><time>2026-04-06T13:39:49Z</time></trkpt><trkpt lat="44.45405859072159" lon="10.55827090864727"><ele>693.3333333333334</ele><time>2026-04-06T13:39:50Z</time></trkpt><trkpt lat="44.45405004844019" lon="10.558375601694314"><ele>693.5</ele><time>2026-04-06T13:39:51Z</time></trkpt><trkpt lat="44.4540882306661" lon="10.55849222772423"><ele>693.6666666666667</ele><time>2026-04-06T13:39:53Z</time></trkpt><trkpt lat="44.45416229712217" lon="10.558480178322222"><ele>693.8333333333334</ele><time>2026-04-06T13:39:55Z</time></trkpt><trkpt lat="44.454211324779074" lon="10.558329608382975"><ele>694.0</ele><time>2026-04-06T13:39:57Z</time></trkpt><trkpt lat="44.454189449947464" lon="10.55822931870564"><ele>694.0</ele><time>2026-04-06T13:39:58Z</time></trkpt><trkpt lat="44.4541889331618" lon="10.558128827411508"><ele>694.0</ele><time>2026-04-06T13:39:59Z</time></trkpt><trkpt lat="44.454200749244" lon="10.557983837609678"><ele>694.0</ele><time>2026-04-06T13:40:00Z</time></trkpt><trkpt lat="44.45422680359907" lon="10.557837445422537"><ele>694.0</ele><time>2026-04-06T13:40:01Z</time></trkpt><trkpt lat="44.45427118996093" lon="10.55769133673322"><ele>694.0</ele><time>2026-04-06T13:40:02Z</time></trkpt><trkpt lat="44.45432245683142" lon="10.557561092836401"><ele>693.8000000000001</ele><time>2026-04-06T13:40:03Z</time></trkpt><trkpt lat="44.45436494571703" lon="10.557422633092322"><ele>693.6</ele><time>2026-04-06T13:40:04Z</time></trkpt><trkpt lat="44.454370431756296" lon="10.557280592915317"><ele>693.4</ele><time>2026-04-06T13:40:05Z</time></trkpt><trkpt lat="44.454361254625795" lon="10.557144606502188"><ele>693.2</ele><time>2026-04-06T13:40:06Z</time></trkpt><trkpt lat="44.45435371111679" lon="10.556989834941938"><ele>693.0</ele><time>2026-04-06T13:40:07Z</time></trkpt><trkpt lat="44.4543474708092" lon="10.556848376020541"><ele>691.8333333333334</ele><time>2026-04-06T13:40:08Z</time></trkpt><trkpt lat="44.4543389888103" lon="10.556738828260775"><ele>690.6666666666666</ele><time>2026-04-06T13:40:09Z</time></trkpt><trkpt lat="44.45429558915637" lon="10.55662515030023"><ele>689.5</ele><time>2026-04-06T13:40:10Z</time></trkpt><trkpt lat="44.454217468724515" lon="10.556553649520684"><ele>688.3333333333333</ele><time>2026-04-06T13:40:11Z</time></trkpt><trkpt lat="44.45416389870051" lon="10.5564582942106"><ele>687.1666666666666</ele><time>2026-04-06T13:40:12Z</time></trkpt><trkpt lat="44.45410765527353" lon="10.55638529761313"><ele>686.0</ele><time>2026-04-06T13:40:13Z</time></trkpt><trkpt lat="44.45406247467579" lon="10.556308183834274"><ele>683.6666666666666</ele><time>2026-04-06T13:40:14Z</time></trkpt><trkpt lat="44.45403064012993" lon="10.556203055318646"><ele>681.3333333333333</ele><time>2026-04-06T13:40:17Z</time></trkpt><trkpt lat="44.454032823408355" lon="10.556113254498477"><ele>679.0</ele><time>2026-04-06T13:40:18Z</time></trkpt><trkpt lat="44.454042694411626" lon="10.555991742385325"><ele>676.6666666666666</ele><time>2026-04-06T13:40:19Z</time></trkpt><trkpt lat="44.4540109140988" lon="10.555871114741205"><ele>674.3333333333334</ele><time>2026-04-06T13:40:20Z</time></trkpt><trkpt lat="44.454001524191895" lon="10.555730969416869"><ele>672.0</ele><time>2026-04-06T13:40:21Z</time></trkpt><trkpt lat="44.453991415769686" lon="10.555566466882095"><ele>672.0</ele><time>2026-04-06T13:40:22Z</time></trkpt><trkpt lat="44.45400013763803" lon="10.55539724344396"><ele>672.0</ele><time>2026-04-06T13:40:23Z</time></trkpt><trkpt lat="44.45402874428299" lon="10.55524655363263"><ele>672.0</ele><time>2026-04-06T13:40:24Z</time></trkpt><trkpt lat="44.45407707816481" lon="10.555108242001916"><ele>672.0</ele><time>2026-04-06T13:40:25Z</time></trkpt><trkpt lat="44.4541519368775" lon="10.554990889971368"><ele>672.6</ele><time>2026-04-06T13:40:26Z</time></trkpt><trkpt lat="44.454212794096634" lon="10.554876725587485"><ele>673.2</ele><time>2026-04-06T13:40:27Z</time></trkpt><trkpt lat="44.454239882421845" lon="10.554728963464168"><ele>673.8</ele><time>2026-04-06T13:40:28Z</time></trkpt><trkpt lat="44.45422645827214" lon="10.554562079162922"><ele>674.4</ele><time>2026-04-06T13:40:29Z</time></trkpt><trkpt lat="44.45421981191196" lon="10.554398886119744"><ele>675.0</ele><time>2026-04-06T13:40:30Z</time></trkpt><trkpt lat="44.45421522492053" lon="10.554226370308939"><ele>675.2</ele><time>2026-04-06T13:40:31Z</time></trkpt><trkpt lat="44.45421258125336" lon="10.554057009266634"><ele>675.4</ele><time>2026-04-06T13:40:32Z</time></trkpt><trkpt lat="44.45421962970829" lon="10.553902411734953"><ele>675.5999999999999</ele><time>2026-04-06T13:40:33Z</time></trkpt><trkpt lat="44.45421418686923" lon="10.553749810614041"><ele>675.8</ele><time>2026-04-06T13:40:34Z</time></trkpt><trkpt lat="44.454185785021586" lon="10.553613790040243"><ele>676.0</ele><time>2026-04-06T13:40:35Z</time></trkpt><trkpt lat="44.454131281858324" lon="10.553500350158272"><ele>675.1999999999999</ele><time>2026-04-06T13:40:36Z</time></trkpt><trkpt lat="44.454057035755675" lon="10.553416792881043"><ele>674.4</ele><time>2026-04-06T13:40:37Z</time></trkpt><trkpt lat="44.453993572496394" lon="10.553315293737239"><ele>673.6</ele><time>2026-04-06T13:40:38Z</time></trkpt><trkpt lat="44.453964864875495" lon="10.553210297830955"><ele>672.8</ele><time>2026-04-06T13:40:38.999Z</time></trkpt><trkpt lat="44.45394723007982" lon="10.553095741064105"><ele>672.0</ele><time>2026-04-06T13:40:39.999Z</time></trkpt><trkpt lat="44.45398412102933" lon="10.552966433793676"><ele>672.2</ele><time>2026-04-06T13:40:40.999Z</time></trkpt><trkpt lat="44.454049490852704" lon="10.55285871781956"><ele>672.4000000000001</ele><time>2026-04-06T13:40:41.999Z</time></trkpt><trkpt lat="44.45413786231577" lon="10.552789077109104"><ele>672.5999999999999</ele><time>2026-04-06T13:40:42.999Z</time></trkpt><trkpt lat="44.45422163443168" lon="10.552711661515364"><ele>672.8</ele><time>2026-04-06T13:40:43.999Z</time></trkpt><trkpt lat="44.45429958558257" lon="10.552598613545884"><ele>673.0</ele><time>2026-04-06T13:40:44.999Z</time></trkpt><trkpt lat="44.45436981874351" lon="10.552488255115323"><ele>673.0</ele><time>2026-04-06T13:40:45.999Z</time></trkpt><trkpt lat="44.45442051356338" lon="10.55237279482606"><ele>673.0</ele><time>2026-04-06T13:40:46.999Z</time></trkpt><trkpt lat="44.454438189075766" lon="10.552228999827012"><ele>673.0</ele><time>2026-04-06T13:40:47.999Z</time></trkpt><trkpt lat="44.45442363796932" lon="10.55208361658991"><ele>673.0</ele><time>2026-04-06T13:40:48.999Z</time></trkpt><trkpt lat="44.4543823110923" lon="10.551915450521301"><ele>673.0</ele><time>2026-04-06T13:40:49.999Z</time></trkpt><trkpt lat="44.45434777286088" lon="10.551748884403452"><ele>672.75</ele><time>2026-04-06T13:40:50.999Z</time></trkpt><trkpt lat="44.45431068248212" lon="10.55158417998823"><ele>672.5</ele><time>2026-04-06T13:40:51.999Z</time></trkpt><trkpt lat="44.45427886073945" lon="10.551417817993213"><ele>672.25</ele><time>2026-04-06T13:40:52.999Z</time></trkpt><trkpt lat="44.45424385974251" lon="10.551259724019818"><ele>672.0</ele><time>2026-04-06T13:40:53.999Z</time></trkpt><trkpt lat="44.454207949781924" lon="10.551102212004771"><ele>669.0</ele><time>2026-04-06T13:40:54.999Z</time></trkpt><trkpt lat="44.45415801007181" lon="10.550966271196572"><ele>666.0</ele><time>2026-04-06T13:40:55.999Z</time></trkpt><trkpt lat="44.454088068366296" lon="10.550852673098701"><ele>663.0</ele><time>2026-04-06T13:40:56.999Z</time></trkpt><trkpt lat="44.453996818208594" lon="10.550760707548578"><ele>660.0</ele><time>2026-04-06T13:40:57.999Z</time></trkpt><trkpt lat="44.45390907350398" lon="10.550667136307203"><ele>657.0</ele><time>2026-04-06T13:40:58.999Z</time></trkpt><trkpt lat="44.45380363461585" lon="10.550600454828318"><ele>664.0</ele><time>2026-04-06T13:40:59.999Z</time></trkpt><trkpt lat="44.453726719308484" lon="10.55054439315218"><ele>671.0</ele><time>2026-04-06T13:41:00.999Z</time></trkpt><trkpt lat="44.45363713024248" lon="10.55045766997048"><ele>678.0</ele><time>2026-04-06T13:41:01.999Z</time></trkpt><trkpt lat="44.453582184392786" lon="10.550356923884026"><ele>685.0</ele><time>2026-04-06T13:41:02.999Z</time></trkpt><trkpt lat="44.45354954273877" lon="10.550245343735066"><ele>692.0</ele><time>2026-04-06T13:41:03.999Z</time></trkpt><trkpt lat="44.4535849407362" lon="10.550119469301196"><ele>692.0</ele><time>2026-04-06T13:41:04.999Z</time></trkpt><trkpt lat="44.453655188167005" lon="10.549971244524569"><ele>692.0</ele><time>2026-04-06T13:41:05.999Z</time></trkpt><trkpt lat="44.45373550481162" lon="10.549863136776278"><ele>692.0</ele><time>2026-04-06T13:41:06.999Z</time></trkpt><trkpt lat="44.45382780927796" lon="10.549768695334832"><ele>692.0</ele><time>2026-04-06T13:41:07.999Z</time></trkpt><trkpt lat="44.453931282432244" lon="10.549684906273042"><ele>688.0</ele><time>2026-04-06T13:41:08.999Z</time></trkpt><trkpt lat="44.45404305524451" lon="10.549615566245192"><ele>684.0</ele><time>2026-04-06T13:41:09.999Z</time></trkpt><trkpt lat="44.454156262792296" lon="10.549537405568637"><ele>680.0</ele><time>2026-04-06T13:41:10.999Z</time></trkpt><trkpt lat="44.45426106389917" lon="10.549480228435451"><ele>676.0</ele><time>2026-04-06T13:41:11.999Z</time></trkpt><trkpt lat="44.45436988901995" lon="10.549464846787956"><ele>676.0</ele><time>2026-04-06T13:41:12.999Z</time></trkpt><trkpt lat="44.45447602033062" lon="10.549493937767648"><ele>676.0</ele><time>2026-04-06T13:41:13.999Z</time></trkpt><trkpt lat="44.454581453018804" lon="10.54952535934456"><ele>676.0</ele><time>2026-04-06T13:41:14.999Z</time></trkpt><trkpt lat="44.454690405854016" lon="10.549499452269423"><ele>676.0</ele><time>2026-04-06T13:41:15.999Z</time></trkpt><trkpt lat="44.45480594209164" lon="10.54943071904091"><ele>670.25</ele><time>2026-04-06T13:41:16.999Z</time></trkpt><trkpt lat="44.45492522854545" lon="10.549337157053534"><ele>664.5</ele><time>2026-04-06T13:41:17.999Z</time></trkpt><trkpt lat="44.45502046863849" lon="10.549221329218417"><ele>658.75</ele><time>2026-04-06T13:41:18.999Z</time></trkpt><trkpt lat="44.455096174061744" lon="10.5491004405304"><ele>653.0</ele><time>2026-04-06T13:41:20Z</time></trkpt><trkpt lat="44.45517269455407" lon="10.548998755553102"><ele>653.0</ele><time>2026-04-06T13:41:21Z</time></trkpt><trkpt lat="44.45521679811046" lon="10.548874284869225"><ele>653.0</ele><time>2026-04-06T13:41:22Z</time></trkpt><trkpt lat="44.455241608756985" lon="10.548742959503679"><ele>653.0</ele><time>2026-04-06T13:41:23Z</time></trkpt><trkpt lat="44.455219044107324" lon="10.548612950273196"><ele>653.0</ele><time>2026-04-06T13:41:24Z</time></trkpt><trkpt lat="44.455187601546335" lon="10.548482125781709"><ele>653.0</ele><time>2026-04-06T13:41:25Z</time></trkpt><trkpt lat="44.4551561051594" lon="10.548362080130122"><ele>653.0</ele><time>2026-04-06T13:41:26Z</time></trkpt><trkpt lat="44.4551405397306" lon="10.548223472116039"><ele>653.0</ele><time>2026-04-06T13:41:27Z</time></trkpt><trkpt lat="44.45511604456137" lon="10.548104442331121"><ele>653.0</ele><time>2026-04-06T13:41:28Z</time></trkpt><trkpt lat="44.455086119468724" lon="10.547949671691706"><ele>653.0</ele><time>2026-04-06T13:41:29Z</time></trkpt><trkpt lat="44.455064446309784" lon="10.547793681675829"><ele>653.0</ele><time>2026-04-06T13:41:30Z</time></trkpt><trkpt lat="44.45504124427496" lon="10.547635607571143"><ele>653.0</ele><time>2026-04-06T13:41:31Z</time></trkpt><trkpt lat="44.45501843779462" lon="10.547476224482747"><ele>653.0</ele><time>2026-04-06T13:41:32Z</time></trkpt><trkpt lat="44.45500143485724" lon="10.547333617683952"><ele>653.0</ele><time>2026-04-06T13:41:33Z</time></trkpt><trkpt lat="44.4549758562238" lon="10.547179287995615"><ele>653.0</ele><time>2026-04-06T13:41:34Z</time></trkpt><trkpt lat="44.45496317925327" lon="10.546998238916574"><ele>650.0</ele><time>2026-04-06T13:41:35Z</time></trkpt><trkpt lat="44.45493848004592" lon="10.546814858749844"><ele>647.0</ele><time>2026-04-06T13:41:36Z</time></trkpt><trkpt lat="44.45491527339329" lon="10.546640919025482"><ele>644.0</ele><time>2026-04-06T13:41:37Z</time></trkpt><trkpt lat="44.45487457660949" lon="10.546480518160058"><ele>641.0</ele><time>2026-04-06T13:41:38Z</time></trkpt><trkpt lat="44.45481520388627" lon="10.546328622944163"><ele>639.1999999999999</ele><time>2026-04-06T13:41:39Z</time></trkpt><trkpt lat="44.45475156465137" lon="10.546207882464913"><ele>637.4</ele><time>2026-04-06T13:41:40Z</time></trkpt><trkpt lat="44.45470162636092" lon="10.54611791468926"><ele>635.6</ele><time>2026-04-06T13:41:41Z</time></trkpt><trkpt lat="44.454630066388404" lon="10.545995076668504"><ele>633.8</ele><time>2026-04-06T13:41:42Z</time></trkpt><trkpt lat="44.45463730374966" lon="10.545822044395605"><ele>632.0</ele><time>2026-04-06T13:41:43Z</time></trkpt><trkpt lat="44.454636283582374" lon="10.54569062865961"><ele>632.0</ele><time>2026-04-06T13:41:44Z</time></trkpt><trkpt lat="44.45462327562074" lon="10.545544414676053"><ele>632.0</ele><time>2026-04-06T13:41:45Z</time></trkpt><trkpt lat="44.45454272715613" lon="10.54541086290815"><ele>632.0</ele><time>2026-04-06T13:41:46Z</time></trkpt><trkpt lat="44.45448527388343" lon="10.545286549245137"><ele>632.0</ele><time>2026-04-06T13:41:47Z</time></trkpt><trkpt lat="44.45443094829306" lon="10.545157178528758"><ele>632.0</ele><time>2026-04-06T13:41:48Z</time></trkpt><trkpt lat="44.454422015259034" lon="10.545032787659315"><ele>635.0</ele><time>2026-04-06T13:41:49Z</time></trkpt><trkpt lat="44.454454310010235" lon="10.544887136827409"><ele>638.0</ele><time>2026-04-06T13:41:50Z</time></trkpt><trkpt lat="44.45449033094629" lon="10.544732508800578"><ele>641.0</ele><time>2026-04-06T13:41:51Z</time></trkpt><trkpt lat="44.454541971711826" lon="10.544571233289348"><ele>644.0</ele><time>2026-04-06T13:41:52Z</time></trkpt><trkpt lat="44.454580548914784" lon="10.544399335832598"><ele>644.0</ele><time>2026-04-06T13:41:53Z</time></trkpt><trkpt lat="44.45459731642827" lon="10.544242543173754"><ele>644.0</ele><time>2026-04-06T13:41:54Z</time></trkpt><trkpt lat="44.45460427047582" lon="10.544115168396585"><ele>644.0</ele><time>2026-04-06T13:41:55Z</time></trkpt><trkpt lat="44.45458672702016" lon="10.54395728147963"><ele>644.0</ele><time>2026-04-06T13:41:56Z</time></trkpt><trkpt lat="44.4545530185566" lon="10.54383827165916"><ele>644.0</ele><time>2026-04-06T13:41:57Z</time></trkpt><trkpt lat="44.45449406888879" lon="10.54373828144791"><ele>644.0</ele><time>2026-04-06T13:41:58Z</time></trkpt><trkpt lat="44.45440172919497" lon="10.543692277678245"><ele>644.0</ele><time>2026-04-06T13:41:59Z</time></trkpt><trkpt lat="44.45426988270197" lon="10.543755458275584"><ele>644.0</ele><time>2026-04-06T13:42:00Z</time></trkpt><trkpt lat="44.45415791893786" lon="10.543832306842356"><ele>644.0</ele><time>2026-04-06T13:42:01Z</time></trkpt><trkpt lat="44.45405965690328" lon="10.543891083332937"><ele>644.0</ele><time>2026-04-06T13:42:02Z</time></trkpt><trkpt lat="44.45395913025262" lon="10.543942360616722"><ele>644.0</ele><time>2026-04-06T13:42:03Z</time></trkpt><trkpt lat="44.4538649862702" lon="10.543974131202809"><ele>644.0</ele><time>2026-04-06T13:42:04Z</time></trkpt><trkpt lat="44.45377655368702" lon="10.543963485095196"><ele>644.0</ele><time>2026-04-06T13:42:05Z</time></trkpt><trkpt lat="44.45369891512878" lon="10.543931266055907"><ele>644.0</ele><time>2026-04-06T13:42:06Z</time></trkpt><trkpt lat="44.45363957221831" lon="10.543847679828906"><ele>644.2</ele><time>2026-04-06T13:42:07Z</time></trkpt><trkpt lat="44.45356462376439" lon="10.543741474154007"><ele>644.4000000000001</ele><time>2026-04-06T13:42:08Z</time></trkpt><trkpt lat="44.45351332005113" lon="10.543600580619325"><ele>644.6</ele><time>2026-04-06T13:42:09Z</time></trkpt><trkpt lat="44.453500297677024" lon="10.543462475655737"><ele>644.8</ele><time>2026-04-06T13:42:10Z</time></trkpt><trkpt lat="44.45350201504462" lon="10.543318510599862"><ele>645.0</ele><time>2026-04-06T13:42:11Z</time></trkpt><trkpt lat="44.45352258495344" lon="10.543179781916091"><ele>645.0</ele><time>2026-04-06T13:42:12Z</time></trkpt><trkpt lat="44.45358511036892" lon="10.543035177453453"><ele>645.0</ele><time>2026-04-06T13:42:13Z</time></trkpt><trkpt lat="44.45364218307343" lon="10.542889847050384"><ele>645.0</ele><time>2026-04-06T13:42:14Z</time></trkpt><trkpt lat="44.45370686341399" lon="10.54275721947745"><ele>645.0</ele><time>2026-04-06T13:42:15Z</time></trkpt><trkpt lat="44.453777029642055" lon="10.542641336493205"><ele>641.0</ele><time>2026-04-06T13:42:16Z</time></trkpt><trkpt lat="44.45385573432403" lon="10.542506379958363"><ele>637.0</ele><time>2026-04-06T13:42:17Z</time></trkpt><trkpt lat="44.45392136462612" lon="10.542382190635337"><ele>633.0</ele><time>2026-04-06T13:42:18Z</time></trkpt><trkpt lat="44.45399447579508" lon="10.542264770088499"><ele>629.0</ele><time>2026-04-06T13:42:19Z</time></trkpt><trkpt lat="44.454047174741895" lon="10.54215016268817"><ele>625.0</ele><time>2026-04-06T13:42:20Z</time></trkpt><trkpt lat="44.454127291987696" lon="10.542066549553475"><ele>627.8</ele><time>2026-04-06T13:42:21Z</time></trkpt><trkpt lat="44.4542129588393" lon="10.542011187998504"><ele>630.6</ele><time>2026-04-06T13:42:22Z</time></trkpt><trkpt lat="44.45431230423341" lon="10.541993892626273"><ele>633.4</ele><time>2026-04-06T13:42:23Z</time></trkpt><trkpt lat="44.45442003299516" lon="10.541983589188211"><ele>636.2</ele><time>2026-04-06T13:42:24Z</time></trkpt><trkpt lat="44.45451164579176" lon="10.541955657204337"><ele>639.0</ele><time>2026-04-06T13:42:25Z</time></trkpt><trkpt lat="44.454614457583055" lon="10.541925820572342"><ele>634.8</ele><time>2026-04-06T13:42:26Z</time></trkpt><trkpt lat="44.45469382754982" lon="10.541847981149376"><ele>630.5999999999999</ele><time>2026-04-06T13:42:27Z</time></trkpt><trkpt lat="44.45474784369448" lon="10.541742947267114"><ele>626.4</ele><time>2026-04-06T13:42:28Z</time></trkpt><trkpt lat="44.45477741157732" lon="10.541605507094241"><ele>622.1999999999999</ele><time>2026-04-06T13:42:29Z</time></trkpt><trkpt lat="44.4547722114353" lon="10.541434960527784"><ele>618.0</ele><time>2026-04-06T13:42:30Z</time></trkpt><trkpt lat="44.454775245963305" lon="10.541263337751792"><ele>619.1999999999999</ele><time>2026-04-06T13:42:31Z</time></trkpt><trkpt lat="44.45478428895751" lon="10.541093976317157"><ele>620.4</ele><time>2026-04-06T13:42:32Z</time></trkpt><trkpt lat="44.454793026969725" lon="10.540930941083518"><ele>621.5999999999999</ele><time>2026-04-06T13:42:33Z</time></trkpt><trkpt lat="44.45480538611186" lon="10.54077363225879"><ele>622.8</ele><time>2026-04-06T13:42:34Z</time></trkpt><trkpt lat="44.45482319339453" lon="10.540645934632009"><ele>624.0</ele><time>2026-04-06T13:42:35Z</time></trkpt><trkpt lat="44.45483140970372" lon="10.540486881842252"><ele>623.2</ele><time>2026-04-06T13:42:35.999Z</time></trkpt><trkpt lat="44.45484029968842" lon="10.540342982908145"><ele>622.4</ele><time>2026-04-06T13:42:36.999Z</time></trkpt><trkpt lat="44.454846737257185" lon="10.540194551344792"><ele>621.6</ele><time>2026-04-06T13:42:37.999Z</time></trkpt><trkpt lat="44.454850063205384" lon="10.540026603997678"><ele>620.8</ele><time>2026-04-06T13:42:38.999Z</time></trkpt><trkpt lat="44.454852533729756" lon="10.539871692567417"><ele>620.0</ele><time>2026-04-06T13:42:39.999Z</time></trkpt><trkpt lat="44.45486086662485" lon="10.539706882239074"><ele>619.2</ele><time>2026-04-06T13:42:40.999Z</time></trkpt><trkpt lat="44.45486241851556" lon="10.53954012533399"><ele>618.4</ele><time>2026-04-06T13:42:41.999Z</time></trkpt><trkpt lat="44.45485278288517" lon="10.53938997371533"><ele>617.6</ele><time>2026-04-06T13:42:42.999Z</time></trkpt><trkpt lat="44.45483395759595" lon="10.539235962583662"><ele>616.8</ele><time>2026-04-06T13:42:43.999Z</time></trkpt><trkpt lat="44.45480399536775" lon="10.539085918401844"><ele>616.0</ele><time>2026-04-06T13:42:44.999Z</time></trkpt><trkpt lat="44.45478843785952" lon="10.53894514175634"><ele>616.0</ele><time>2026-04-06T13:42:45.999Z</time></trkpt><trkpt lat="44.45479878530736" lon="10.538813686471658"><ele>616.0</ele><time>2026-04-06T13:42:46.999Z</time></trkpt><trkpt lat="44.454822178443315" lon="10.53871167820028"><ele>616.0</ele><time>2026-04-06T13:42:47.999Z</time></trkpt><trkpt lat="44.45486612111295" lon="10.53861400760859"><ele>616.0</ele><time>2026-04-06T13:42:48.999Z</time></trkpt><trkpt lat="44.45496062059251" lon="10.538521388456244"><ele>616.0</ele><time>2026-04-06T13:42:49.999Z</time></trkpt><trkpt lat="44.45504645059162" lon="10.53843709331753"><ele>616.8333333333334</ele><time>2026-04-06T13:42:50.999Z</time></trkpt><trkpt lat="44.45512108017836" lon="10.538375995788204"><ele>617.6666666666667</ele><time>2026-04-06T13:42:51.999Z</time></trkpt><trkpt lat="44.455206335686704" lon="10.538325077800671"><ele>618.5</ele><time>2026-04-06T13:42:52.999Z</time></trkpt><trkpt lat="44.45528783067022" lon="10.538285440975082"><ele>619.3333333333334</ele><time>2026-04-06T13:42:53.999Z</time></trkpt><trkpt lat="44.455374257584054" lon="10.538248842268224"><ele>620.1666666666666</ele><time>2026-04-06T13:42:54.999Z</time></trkpt><trkpt lat="44.4554574746137" lon="10.53821285315362"><ele>621.0</ele><time>2026-04-06T13:42:55.999Z</time></trkpt><trkpt lat="44.45554401389155" lon="10.53818415967027"><ele>618.5</ele><time>2026-04-06T13:42:56.999Z</time></trkpt><trkpt lat="44.455633505995436" lon="10.538170854861544"><ele>616.0</ele><time>2026-04-06T13:42:57.999Z</time></trkpt><trkpt lat="44.4557230176304" lon="10.538147338783471"><ele>613.5</ele><time>2026-04-06T13:42:58.999Z</time></trkpt><trkpt lat="44.455807736168595" lon="10.538118702840025"><ele>611.0</ele><time>2026-04-06T13:42:59.999Z</time></trkpt><trkpt lat="44.45589759474536" lon="10.538094539446153"><ele>608.5</ele><time>2026-04-06T13:43:00.999Z</time></trkpt><trkpt lat="44.455983185616915" lon="10.53806552512928"><ele>606.0</ele><time>2026-04-06T13:43:01.999Z</time></trkpt><trkpt lat="44.45606828498183" lon="10.538035564469357"><ele>606.0</ele><time>2026-04-06T13:43:02.999Z</time></trkpt><trkpt lat="44.456146704928585" lon="10.538007853088189"><ele>606.0</ele><time>2026-04-06T13:43:03.999Z</time></trkpt><trkpt lat="44.45622643579208" lon="10.537966172850735"><ele>606.0</ele><time>2026-04-06T13:43:04.999Z</time></trkpt><trkpt lat="44.456275898923806" lon="10.537904188865697"><ele>606.0</ele><time>2026-04-06T13:43:05.999Z</time></trkpt><trkpt lat="44.456321982985855" lon="10.537817881816114"><ele>606.0</ele><time>2026-04-06T13:43:06.999Z</time></trkpt><trkpt lat="44.45634868644405" lon="10.537719070943105"><ele>606.0</ele><time>2026-04-06T13:43:07.999Z</time></trkpt><trkpt lat="44.45635728254709" lon="10.537627794910232"><ele>605.1666666666666</ele><time>2026-04-06T13:43:08.999Z</time></trkpt><trkpt lat="44.45635540803043" lon="10.537525790314135"><ele>604.3333333333334</ele><time>2026-04-06T13:43:09.999Z</time></trkpt><trkpt lat="44.456336769251415" lon="10.537417380287001"><ele>603.5</ele><time>2026-04-06T13:43:10.999Z</time></trkpt><trkpt lat="44.4562986963666" lon="10.537306384167575"><ele>602.6666666666667</ele><time>2026-04-06T13:43:11.999Z</time></trkpt><trkpt lat="44.45624519686646" lon="10.537208103833079"><ele>601.8333333333334</ele><time>2026-04-06T13:43:12.999Z</time></trkpt><trkpt lat="44.45617300937653" lon="10.53711636653775"><ele>601.0</ele><time>2026-04-06T13:43:13.999Z</time></trkpt><trkpt lat="44.45610183645695" lon="10.537044805870337"><ele>601.0</ele><time>2026-04-06T13:43:14.999Z</time></trkpt><trkpt lat="44.45603930304485" lon="10.53693725642451"><ele>601.0</ele><time>2026-04-06T13:43:15.999Z</time></trkpt><trkpt lat="44.45597183133895" lon="10.536855877882553"><ele>601.0</ele><time>2026-04-06T13:43:16.999Z</time></trkpt><trkpt lat="44.45589410852623" lon="10.536762478663427"><ele>601.0</ele><time>2026-04-06T13:43:17.999Z</time></trkpt><trkpt lat="44.455823859879764" lon="10.536678060776605"><ele>601.0</ele><time>2026-04-06T13:43:18.999Z</time></trkpt><trkpt lat="44.45575625761155" lon="10.536596180029177"><ele>601.0</ele><time>2026-04-06T13:43:19.999Z</time></trkpt><trkpt lat="44.45568976709856" lon="10.53651504047412"><ele>601.0</ele><time>2026-04-06T13:43:20.999Z</time></trkpt><trkpt lat="44.45563365871126" lon="10.536446570420573"><ele>601.0</ele><time>2026-04-06T13:43:21.999Z</time></trkpt><trkpt lat="44.45557373911951" lon="10.536373449290213"><ele>601.0</ele><time>2026-04-06T13:43:22.999Z</time></trkpt><trkpt lat="44.45551220667177" lon="10.53629649572916"><ele>601.0</ele><time>2026-04-06T13:43:23.999Z</time></trkpt><trkpt lat="44.45546180852772" lon="10.536228328264267"><ele>601.0</ele><time>2026-04-06T13:43:24.999Z</time></trkpt><trkpt lat="44.4554120676148" lon="10.536147155871365"><ele>601.5714285714286</ele><time>2026-04-06T13:43:26Z</time></trkpt><trkpt lat="44.45538175086378" lon="10.536069685166904"><ele>602.1428571428572</ele><time>2026-04-06T13:43:27Z</time></trkpt><trkpt lat="44.45535696419491" lon="10.535980197788474"><ele>602.7142857142858</ele><time>2026-04-06T13:43:28Z</time></trkpt><trkpt lat="44.45533834690711" lon="10.535868399647168"><ele>603.2857142857142</ele><time>2026-04-06T13:43:29Z</time></trkpt><trkpt lat="44.45535319977577" lon="10.53577619394918"><ele>603.8571428571429</ele><time>2026-04-06T13:43:30Z</time></trkpt><trkpt lat="44.45538296457537" lon="10.535677173975486"><ele>604.4285714285714</ele><time>2026-04-06T13:43:31Z</time></trkpt><trkpt lat="44.45542892416316" lon="10.535579123791939"><ele>605.0</ele><time>2026-04-06T13:43:32Z</time></trkpt><trkpt lat="44.45549090064469" lon="10.53549533104973"><ele>603.3333333333333</ele><time>2026-04-06T13:43:33Z</time></trkpt><trkpt lat="44.45557830129298" lon="10.53544678065507"><ele>601.6666666666666</ele><time>2026-04-06T13:43:34Z</time></trkpt><trkpt lat="44.455666500324526" lon="10.535412882367433"><ele>600.0</ele><time>2026-04-06T13:43:35Z</time></trkpt><trkpt lat="44.45574630965814" lon="10.535403587092752"><ele>598.3333333333334</ele><time>2026-04-06T13:43:36Z</time></trkpt><trkpt lat="44.45582269960817" lon="10.535407578903124"><ele>596.6666666666667</ele><time>2026-04-06T13:43:37Z</time></trkpt><trkpt lat="44.45589760868667" lon="10.535404438522411"><ele>595.0</ele><time>2026-04-06T13:43:38Z</time></trkpt><trkpt lat="44.455995289672785" lon="10.535401628716228"><ele>595.0</ele><time>2026-04-06T13:43:39Z</time></trkpt><trkpt lat="44.45608177353205" lon="10.53540712144099"><ele>595.0</ele><time>2026-04-06T13:43:40Z</time></trkpt><trkpt lat="44.456163745992235" lon="10.53540342367915"><ele>595.0</ele><time>2026-04-06T13:43:41Z</time></trkpt><trkpt lat="44.45624418201246" lon="10.535405521999138"><ele>595.0</ele><time>2026-04-06T13:43:42Z</time></trkpt><trkpt lat="44.4563193288017" lon="10.535403054230887"><ele>595.0</ele><time>2026-04-06T13:43:43Z</time></trkpt><trkpt lat="44.45639825799921" lon="10.535407540016953"><ele>595.0</ele><time>2026-04-06T13:43:44Z</time></trkpt><trkpt lat="44.456487373407775" lon="10.535406624293838"><ele>594.6666666666667</ele><time>2026-04-06T13:43:45Z</time></trkpt><trkpt lat="44.4565663314086" lon="10.535400231122342"><ele>594.3333333333334</ele><time>2026-04-06T13:43:46Z</time></trkpt><trkpt lat="44.456641679400946" lon="10.535365102038101"><ele>594.0</ele><time>2026-04-06T13:43:47Z</time></trkpt><trkpt lat="44.4567140822106" lon="10.535311281750941"><ele>593.6666666666666</ele><time>2026-04-06T13:43:48Z</time></trkpt><trkpt lat="44.4567728609255" lon="10.535244842091988"><ele>593.3333333333333</ele><time>2026-04-06T13:43:49Z</time></trkpt><trkpt lat="44.456832426330536" lon="10.53517536908161"><ele>593.0</ele><time>2026-04-06T13:43:50Z</time></trkpt><trkpt lat="44.456877726994655" lon="10.5350873405108"><ele>593.0</ele><time>2026-04-06T13:43:51Z</time></trkpt><trkpt lat="44.456913081759375" lon="10.534984413074028"><ele>593.0</ele><time>2026-04-06T13:43:52Z</time></trkpt><trkpt lat="44.456936499338674" lon="10.534863725044259"><ele>593.0</ele><time>2026-04-06T13:43:53Z</time></trkpt><trkpt lat="44.456932719705904" lon="10.534750157195274"><ele>593.0</ele><time>2026-04-06T13:43:54Z</time></trkpt><trkpt lat="44.456908303282525" lon="10.53462966611117"><ele>593.0</ele><time>2026-04-06T13:43:55Z</time></trkpt><trkpt lat="44.456867773943635" lon="10.534489345904197"><ele>593.0</ele><time>2026-04-06T13:43:56Z</time></trkpt><trkpt lat="44.456769986014415" lon="10.534333301994575"><ele>591.5</ele><time>2026-04-06T13:43:57Z</time></trkpt><trkpt lat="44.4566894157126" lon="10.534175017075393"><ele>590.0</ele><time>2026-04-06T13:43:58Z</time></trkpt><trkpt lat="44.45664552076378" lon="10.534008845582589"><ele>588.5</ele><time>2026-04-06T13:43:59Z</time></trkpt><trkpt lat="44.45660984296239" lon="10.533847727089272"><ele>587.0</ele><time>2026-04-06T13:44:00Z</time></trkpt><trkpt lat="44.456631872304754" lon="10.533680503194175"><ele>585.75</ele><time>2026-04-06T13:44:01Z</time></trkpt><trkpt lat="44.456676861049424" lon="10.533527788947477"><ele>584.5</ele><time>2026-04-06T13:44:02Z</time></trkpt><trkpt lat="44.45675235646764" lon="10.533402894387914"><ele>583.25</ele><time>2026-04-06T13:44:03Z</time></trkpt><trkpt lat="44.45684561015731" lon="10.53327557910418"><ele>582.0</ele><time>2026-04-06T13:44:04Z</time></trkpt><trkpt lat="44.456931128352714" lon="10.53314214938886"><ele>582.0</ele><time>2026-04-06T13:44:05Z</time></trkpt><trkpt lat="44.4569847446155" lon="10.532994238468405"><ele>582.0</ele><time>2026-04-06T13:44:06Z</time></trkpt><trkpt lat="44.457021711371944" lon="10.532832131285073"><ele>582.0</ele><time>2026-04-06T13:44:07Z</time></trkpt><trkpt lat="44.45705108579519" lon="10.532678554178526"><ele>582.0</ele><time>2026-04-06T13:44:08Z</time></trkpt><trkpt lat="44.45707931839732" lon="10.532508933249359"><ele>581.5</ele><time>2026-04-06T13:44:09Z</time></trkpt><trkpt lat="44.45710402197542" lon="10.532336477653146"><ele>581.0</ele><time>2026-04-06T13:44:10Z</time></trkpt><trkpt lat="44.457126392854605" lon="10.532175382315401"><ele>580.5</ele><time>2026-04-06T13:44:11Z</time></trkpt><trkpt lat="44.45713402247428" lon="10.532009790589738"><ele>580.0</ele><time>2026-04-06T13:44:12Z</time></trkpt><trkpt lat="44.45709110103121" lon="10.53181627194496"><ele>578.4</ele><time>2026-04-06T13:44:13Z</time></trkpt><trkpt lat="44.457050225953125" lon="10.531691420629533"><ele>576.8</ele><time>2026-04-06T13:44:14Z</time></trkpt><trkpt lat="44.45697879560327" lon="10.531595522915662"><ele>575.2</ele><time>2026-04-06T13:44:15Z</time></trkpt><trkpt lat="44.45687829775447" lon="10.531522382259446"><ele>573.6</ele><time>2026-04-06T13:44:16Z</time></trkpt><trkpt lat="44.45677732419922" lon="10.531484318768584"><ele>572.0</ele><time>2026-04-06T13:44:17Z</time></trkpt><trkpt lat="44.456653621565536" lon="10.531463118408812"><ele>572.0</ele><time>2026-04-06T13:44:18Z</time></trkpt><trkpt lat="44.45652178923577" lon="10.531456998770555"><ele>572.0</ele><time>2026-04-06T13:44:19Z</time></trkpt><trkpt lat="44.45639424822509" lon="10.531458344877233"><ele>572.0</ele><time>2026-04-06T13:44:20Z</time></trkpt><trkpt lat="44.4562754903916" lon="10.531445696730042"><ele>572.0</ele><time>2026-04-06T13:44:21Z</time></trkpt><trkpt lat="44.45618056163896" lon="10.531406907206607"><ele>572.2</ele><time>2026-04-06T13:44:22Z</time></trkpt><trkpt lat="44.456073358120626" lon="10.5313243822707"><ele>572.4000000000001</ele><time>2026-04-06T13:44:23Z</time></trkpt><trkpt lat="44.456002135566806" lon="10.531237802775967"><ele>572.5999999999999</ele><time>2026-04-06T13:44:24Z</time></trkpt><trkpt lat="44.455971044419144" lon="10.531091366539258"><ele>572.8</ele><time>2026-04-06T13:44:25Z</time></trkpt><trkpt lat="44.45595809748201" lon="10.53091962333895"><ele>573.0</ele><time>2026-04-06T13:44:26Z</time></trkpt><trkpt lat="44.455964213380895" lon="10.530709352167586"><ele>573.0</ele><time>2026-04-06T13:44:27Z</time></trkpt><trkpt lat="44.455959321815406" lon="10.53051748964785"><ele>573.0</ele><time>2026-04-06T13:44:28Z</time></trkpt><trkpt lat="44.455946014900775" lon="10.530353224165772"><ele>573.0</ele><time>2026-04-06T13:44:29Z</time></trkpt><trkpt lat="44.45593879267329" lon="10.530172966349237"><ele>573.0</ele><time>2026-04-06T13:44:30Z</time></trkpt><trkpt lat="44.45593642568159" lon="10.529985559839398"><ele>572.75</ele><time>2026-04-06T13:44:31Z</time></trkpt><trkpt lat="44.45592804872211" lon="10.529786874677608"><ele>572.5</ele><time>2026-04-06T13:44:32Z</time></trkpt><trkpt lat="44.45592252986033" lon="10.529610157182509"><ele>572.25</ele><time>2026-04-06T13:44:33Z</time></trkpt><trkpt lat="44.45593152989891" lon="10.529472492998623"><ele>572.0</ele><time>2026-04-06T13:44:34Z</time></trkpt><trkpt lat="44.455924527357396" lon="10.529296265667616"><ele>572.0</ele><time>2026-04-06T13:44:35Z</time></trkpt><trkpt lat="44.455932157525346" lon="10.529127094124497"><ele>572.0</ele><time>2026-04-06T13:44:36Z</time></trkpt><trkpt lat="44.45596624326342" lon="10.528978738675018"><ele>572.0</ele><time>2026-04-06T13:44:37Z</time></trkpt><trkpt lat="44.45604871357456" lon="10.528851704280815"><ele>572.0</ele><time>2026-04-06T13:44:38Z</time></trkpt><trkpt lat="44.45615138111176" lon="10.528756977069701"><ele>572.0</ele><time>2026-04-06T13:44:39Z</time></trkpt><trkpt lat="44.45627202050166" lon="10.528677340931504"><ele>572.0</ele><time>2026-04-06T13:44:40Z</time></trkpt><trkpt lat="44.45636506218653" lon="10.528611532135429"><ele>572.0</ele><time>2026-04-06T13:44:41Z</time></trkpt><trkpt lat="44.456448897762996" lon="10.528497905447797"><ele>572.0</ele><time>2026-04-06T13:44:42Z</time></trkpt><trkpt lat="44.45650132647923" lon="10.528372535541479"><ele>569.75</ele><time>2026-04-06T13:44:42.999Z</time></trkpt><trkpt lat="44.45653773253826" lon="10.528232861416294"><ele>567.5</ele><time>2026-04-06T13:44:43.999Z</time></trkpt><trkpt lat="44.456557645343075" lon="10.52807218744327"><ele>565.25</ele><time>2026-04-06T13:44:44.999Z</time></trkpt><trkpt lat="44.456565912361874" lon="10.527905293644864"><ele>563.0</ele><time>2026-04-06T13:44:45.999Z</time></trkpt><trkpt lat="44.45654869922624" lon="10.52774008248026"><ele>562.0</ele><time>2026-04-06T13:44:46.999Z</time></trkpt><trkpt lat="44.45651375602772" lon="10.527554590758973"><ele>561.0</ele><time>2026-04-06T13:44:47.999Z</time></trkpt><trkpt lat="44.45646403792656" lon="10.527368962147888"><ele>560.0</ele><time>2026-04-06T13:44:48.999Z</time></trkpt><trkpt lat="44.456422470522334" lon="10.527202606128606"><ele>559.0</ele><time>2026-04-06T13:44:49.999Z</time></trkpt><trkpt lat="44.456360030404035" lon="10.527042987790756"><ele>562.25</ele><time>2026-04-06T13:44:50.999Z</time></trkpt><trkpt lat="44.45627715980223" lon="10.526890567172934"><ele>565.5</ele><time>2026-04-06T13:44:51.999Z</time></trkpt><trkpt lat="44.45618586615732" lon="10.526756671392935"><ele>568.75</ele><time>2026-04-06T13:44:52.999Z</time></trkpt><trkpt lat="44.4560982715931" lon="10.526626347124113"><ele>572.0</ele><time>2026-04-06T13:44:53.999Z</time></trkpt><trkpt lat="44.45602121674915" lon="10.526500191228092"><ele>572.0</ele><time>2026-04-06T13:44:54.999Z</time></trkpt><trkpt lat="44.455945065800705" lon="10.526377989730516"><ele>572.0</ele><time>2026-04-06T13:44:55.999Z</time></trkpt><trkpt lat="44.45588199035009" lon="10.526259472832415"><ele>572.0</ele><time>2026-04-06T13:44:56.999Z</time></trkpt><trkpt lat="44.455815456325354" lon="10.52613962517038"><ele>572.0</ele><time>2026-04-06T13:44:57.999Z</time></trkpt><trkpt lat="44.45575200893275" lon="10.526029565759375"><ele>572.0</ele><time>2026-04-06T13:44:58.999Z</time></trkpt><trkpt lat="44.455688586040786" lon="10.525902384604295"><ele>569.0</ele><time>2026-04-06T13:44:59.999Z</time></trkpt><trkpt lat="44.455641887271625" lon="10.525787466173389"><ele>566.0</ele><time>2026-04-06T13:45:00.999Z</time></trkpt><trkpt lat="44.45560507061899" lon="10.52565492775169"><ele>563.0</ele><time>2026-04-06T13:45:01.999Z</time></trkpt><trkpt lat="44.45558642219949" lon="10.52551173209367"><ele>560.0</ele><time>2026-04-06T13:45:02.999Z</time></trkpt><trkpt lat="44.4555801651034" lon="10.525372770043157"><ele>557.0</ele><time>2026-04-06T13:45:03.999Z</time></trkpt><trkpt lat="44.4555955409477" lon="10.525236226721992"><ele>556.0</ele><time>2026-04-06T13:45:04.999Z</time></trkpt><trkpt lat="44.45561520487245" lon="10.525090759352416"><ele>555.0</ele><time>2026-04-06T13:45:05.999Z</time></trkpt><trkpt lat="44.45563277918437" lon="10.524951970119671"><ele>554.0</ele><time>2026-04-06T13:45:06.999Z</time></trkpt><trkpt lat="44.45564782205222" lon="10.524821818313232"><ele>553.0</ele><time>2026-04-06T13:45:07.999Z</time></trkpt><trkpt lat="44.45565353837875" lon="10.524704649796373"><ele>552.0</ele><time>2026-04-06T13:45:08.999Z</time></trkpt><trkpt lat="44.45564437521046" lon="10.52457976299881"><ele>552.1666666666666</ele><time>2026-04-06T13:45:09.999Z</time></trkpt><trkpt lat="44.45562331965662" lon="10.52447587280083"><ele>552.3333333333334</ele><time>2026-04-06T13:45:10.999Z</time></trkpt><trkpt lat="44.4556148206651" lon="10.524384582399362"><ele>552.5</ele><time>2026-04-06T13:45:11.999Z</time></trkpt><trkpt lat="44.455600431244235" lon="10.524276021127983"><ele>552.6666666666667</ele><time>2026-04-06T13:45:12.999Z</time></trkpt><trkpt lat="44.455567930897196" lon="10.524162450809648"><ele>552.8333333333334</ele><time>2026-04-06T13:45:13.999Z</time></trkpt><trkpt lat="44.45552360120484" lon="10.52405142114506"><ele>553.0</ele><time>2026-04-06T13:45:14.999Z</time></trkpt><trkpt lat="44.4554850936508" lon="10.523907271787404"><ele>555.8</ele><time>2026-04-06T13:45:15.999Z</time></trkpt><trkpt lat="44.45544472879974" lon="10.523774091593134"><ele>558.5999999999999</ele><time>2026-04-06T13:45:16.999Z</time></trkpt><trkpt lat="44.45540466969239" lon="10.523635237297041"><ele>561.4000000000001</ele><time>2026-04-06T13:45:17.999Z</time></trkpt><trkpt lat="44.455365246796525" lon="10.523492095558419"><ele>564.2</ele><time>2026-04-06T13:45:18.999Z</time></trkpt><trkpt lat="44.4553175765953" lon="10.523363461181079"><ele>567.0</ele><time>2026-04-06T13:45:19.999Z</time></trkpt><trkpt lat="44.45528171501247" lon="10.523218329377713"><ele>567.0</ele><time>2026-04-06T13:45:20.999Z</time></trkpt><trkpt lat="44.455243167632695" lon="10.523073850697626"><ele>567.0</ele><time>2026-04-06T13:45:21.999Z</time></trkpt><trkpt lat="44.4551953009842" lon="10.522925630264108"><ele>567.0</ele><time>2026-04-06T13:45:22.999Z</time></trkpt><trkpt lat="44.455154910479884" lon="10.522787214644326"><ele>567.0</ele><time>2026-04-06T13:45:23.999Z</time></trkpt><trkpt lat="44.45511051832705" lon="10.522645314353133"><ele>567.0</ele><time>2026-04-06T13:45:24.999Z</time></trkpt><trkpt lat="44.45507686016559" lon="10.522508661738827"><ele>566.0</ele><time>2026-04-06T13:45:25.999Z</time></trkpt><trkpt lat="44.4550481202529" lon="10.522369452514448"><ele>565.0</ele><time>2026-04-06T13:45:26.999Z</time></trkpt><trkpt lat="44.45501135454654" lon="10.522238267629119"><ele>564.0</ele><time>2026-04-06T13:45:27.999Z</time></trkpt><trkpt lat="44.4549874234722" lon="10.522104707708682"><ele>563.0</ele><time>2026-04-06T13:45:28.999Z</time></trkpt><trkpt lat="44.45495983278336" lon="10.521970917423468"><ele>562.0</ele><time>2026-04-06T13:45:29.999Z</time></trkpt><trkpt lat="44.4549371777569" lon="10.521839528769924"><ele>562.0</ele><time>2026-04-06T13:45:30.999Z</time></trkpt><trkpt lat="44.454919464923016" lon="10.521699883430749"><ele>562.0</ele><time>2026-04-06T13:45:32Z</time></trkpt><trkpt lat="44.45490016410491" lon="10.521567126036183"><ele>562.0</ele><time>2026-04-06T13:45:33Z</time></trkpt><trkpt lat="44.454886035075404" lon="10.521432779609933"><ele>562.0</ele><time>2026-04-06T13:45:34Z</time></trkpt><trkpt lat="44.454868056511955" lon="10.521306000601909"><ele>562.0</ele><time>2026-04-06T13:45:35Z</time></trkpt><trkpt lat="44.454854278799225" lon="10.521168139467479"><ele>562.0</ele><time>2026-04-06T13:45:36Z</time></trkpt><trkpt lat="44.45483433811342" lon="10.521038850959238"><ele>562.0</ele><time>2026-04-06T13:45:37Z</time></trkpt><trkpt lat="44.45481882863348" lon="10.520894928788707"><ele>562.0</ele><time>2026-04-06T13:45:38Z</time></trkpt><trkpt lat="44.454799485335265" lon="10.520754393976254"><ele>562.0</ele><time>2026-04-06T13:45:39Z</time></trkpt><trkpt lat="44.45477367903833" lon="10.520627806302898"><ele>562.0</ele><time>2026-04-06T13:45:40Z</time></trkpt><trkpt lat="44.454744582858694" lon="10.520494991305286"><ele>562.2</ele><time>2026-04-06T13:45:41Z</time></trkpt><trkpt lat="44.454721568006306" lon="10.520363196255197"><ele>562.4000000000001</ele><time>2026-04-06T13:45:42Z</time></trkpt><trkpt lat="44.454687965401334" lon="10.520237719945728"><ele>562.5999999999999</ele><time>2026-04-06T13:45:43Z</time></trkpt><trkpt lat="44.45464843552619" lon="10.52011948678881"><ele>562.8</ele><time>2026-04-06T13:45:44Z</time></trkpt><trkpt lat="44.454609216485075" lon="10.520019626201202"><ele>563.0</ele><time>2026-04-06T13:45:45Z</time></trkpt><trkpt lat="44.454592519465386" lon="10.519905743852878"><ele>564.3333333333333</ele><time>2026-04-06T13:45:46Z</time></trkpt><trkpt lat="44.45461095273776" lon="10.519770560891823"><ele>565.6666666666666</ele><time>2026-04-06T13:45:47Z</time></trkpt><trkpt lat="44.45460642340417" lon="10.519666137913886"><ele>567.0</ele><time>2026-04-06T13:45:48Z</time></trkpt><trkpt lat="44.45460114728275" lon="10.51952905371973"><ele>568.3333333333334</ele><time>2026-04-06T13:45:49Z</time></trkpt><trkpt lat="44.45459247429381" lon="10.519401985154346"><ele>569.6666666666667</ele><time>2026-04-06T13:45:50Z</time></trkpt><trkpt lat="44.45458582031979" lon="10.519282555069415"><ele>571.0</ele><time>2026-04-06T13:45:51Z</time></trkpt><trkpt lat="44.454579029291615" lon="10.5191554307615"><ele>571.0</ele><time>2026-04-06T13:45:52Z</time></trkpt><trkpt lat="44.45457287486639" lon="10.519029525994258"><ele>571.0</ele><time>2026-04-06T13:45:53Z</time></trkpt><trkpt lat="44.454557454982705" lon="10.51891207270969"><ele>571.0</ele><time>2026-04-06T13:45:54Z</time></trkpt><trkpt lat="44.45455636718266" lon="10.518788946954018"><ele>571.0</ele><time>2026-04-06T13:45:55Z</time></trkpt><trkpt lat="44.45454488298844" lon="10.518676781448702"><ele>571.0</ele><time>2026-04-06T13:45:56Z</time></trkpt><trkpt lat="44.45454266730285" lon="10.518559741946003"><ele>571.0</ele><time>2026-04-06T13:45:57Z</time></trkpt><trkpt lat="44.45453396045969" lon="10.518465347973956"><ele>572.2</ele><time>2026-04-06T13:45:58Z</time></trkpt><trkpt lat="44.45453355325396" lon="10.51837452573374"><ele>573.4000000000001</ele><time>2026-04-06T13:45:59Z</time></trkpt><trkpt lat="44.454453026393814" lon="10.51834407996247"><ele>574.6</ele><time>2026-04-06T13:46:58.999Z</time></trkpt><trkpt lat="44.45437596330317" lon="10.518355736019577"><ele>575.8000000000001</ele><time>2026-04-06T13:47:09.999Z</time></trkpt><trkpt lat="44.45447599696135" lon="10.518484591818286"><ele>577.0</ele><time>2026-04-06T13:47:28.999Z</time></trkpt><trkpt lat="44.45463888274409" lon="10.518628419488689"><ele>577.0</ele><time>2026-04-06T13:47:39Z</time></trkpt><trkpt lat="44.45465055553437" lon="10.518823267926857"><ele>577.0</ele><time>2026-04-06T13:47:41Z</time></trkpt><trkpt lat="44.45465874445779" lon="10.518930545095337"><ele>577.0</ele><time>2026-04-06T13:47:43Z</time></trkpt><trkpt lat="44.45480835683511" lon="10.519068852648124"><ele>577.0</ele><time>2026-04-06T13:47:44Z</time></trkpt><trkpt lat="44.45458466378399" lon="10.518688950307233"><ele>577.0</ele><time>2026-04-06T13:47:45Z</time></trkpt><trkpt lat="44.454570073926774" lon="10.518540018169768"><ele>577.0</ele><time>2026-04-06T13:48:19Z</time></trkpt><trkpt lat="44.45465444017477" lon="10.51851239195129"><ele>577.0</ele><time>2026-04-06T13:48:20Z</time></trkpt><trkpt lat="44.45471772917972" lon="10.518491044416464"><ele>577.0</ele><time>2026-04-06T13:48:21Z</time></trkpt><trkpt lat="44.454881401561" lon="10.518679471754282"><ele>577.0</ele><time>2026-04-06T13:48:42Z</time></trkpt><trkpt lat="44.45482909513247" lon="10.518740276720314"><ele>577.0</ele><time>2026-04-06T13:48:44Z</time></trkpt><trkpt lat="44.45469000343344" lon="10.518687436661331"><ele>577.0</ele><time>2026-04-06T13:48:46Z</time></trkpt><trkpt lat="44.45466086240866" lon="10.518576937401306"><ele>577.0</ele><time>2026-04-06T13:48:59.999Z</time></trkpt><trkpt lat="44.4546059323621" lon="10.518501492584036"><ele>577.0</ele><time>2026-04-06T13:49:09.999Z</time></trkpt><trkpt lat="44.4545420723368" lon="10.518502477966853"><ele>577.0</ele><time>2026-04-06T13:49:17.021Z</time></trkpt><trkpt lat="44.45455124648439" lon="10.518618921622023"><ele>577.0</ele><time>2026-04-06T13:49:25.018Z</time></trkpt><trkpt lat="44.45453592835594" lon="10.518883742623059"><ele>577.0</ele><time>2026-04-06T13:49:28.016Z</time></trkpt><trkpt lat="44.45454272985291" lon="10.518764518287137"><ele>577.0</ele><time>2026-04-06T13:49:48.999Z</time></trkpt><trkpt lat="44.4545317994781" lon="10.518644813901702"><ele>577.0</ele><time>2026-04-06T13:49:51.999Z</time></trkpt><trkpt lat="44.45457339333169" lon="10.518785390442595"><ele>575.0</ele><time>2026-04-06T13:49:52.999Z</time></trkpt><trkpt lat="44.45452045650339" lon="10.51885149004469"><ele>573.0</ele><time>2026-04-06T13:49:53.999Z</time></trkpt><trkpt lat="44.45474268242553" lon="10.51923851246633"><ele>571.0</ele><time>2026-04-06T13:50:02.999Z</time></trkpt><trkpt lat="44.454680258280234" lon="10.519110624553052"><ele>571.0</ele><time>2026-04-06T13:50:05.999Z</time></trkpt><trkpt lat="44.454658563853386" lon="10.519020565864231"><ele>571.0</ele><time>2026-04-06T13:50:17.999Z</time></trkpt><trkpt lat="44.45461777440063" lon="10.518927082257477"><ele>571.0</ele><time>2026-04-06T13:50:18.999Z</time></trkpt><trkpt lat="44.45454584428107" lon="10.518800502818152"><ele>571.0</ele><time>2026-04-06T13:50:23.999Z</time></trkpt><trkpt lat="44.45449886792023" lon="10.518699145319795"><ele>571.0</ele><time>2026-04-06T13:50:26.999Z</time></trkpt><trkpt lat="44.45446090711419" lon="10.518606026723168"><ele>571.0</ele><time>2026-04-06T13:50:28.999Z</time></trkpt><trkpt lat="44.454418104557384" lon="10.518507260812273"><ele>572.0</ele><time>2026-04-06T13:50:31.999Z</time></trkpt><trkpt lat="44.45438875683539" lon="10.518412892015077"><ele>573.0</ele><time>2026-04-06T13:50:39.999Z</time></trkpt><trkpt lat="44.4544412464043" lon="10.518368689836423"><ele>574.0</ele><time>2026-04-06T13:59:04.998Z</time></trkpt><trkpt lat="44.45441149839058" lon="10.518289859546046"><ele>575.0</ele><time>2026-04-06T13:59:47Z</time></trkpt><trkpt lat="44.45449134231042" lon="10.518131191425283"><ele>576.0</ele><time>2026-04-06T14:00:18Z</time></trkpt><trkpt lat="44.45448624953266" lon="10.518039430241576"><ele>577.0</ele><time>2026-04-06T14:00:19Z</time></trkpt><trkpt lat="44.45448615750074" lon="10.517926504508802"><ele>577.0</ele><time>2026-04-06T14:00:20Z</time></trkpt><trkpt lat="44.45448875062918" lon="10.517790519428855"><ele>577.0</ele><time>2026-04-06T14:00:21Z</time></trkpt><trkpt lat="44.45447958921126" lon="10.517652961526744"><ele>577.0</ele><time>2026-04-06T14:00:22Z</time></trkpt><trkpt lat="44.45446966108588" lon="10.517503891417864"><ele>577.0</ele><time>2026-04-06T14:00:23Z</time></trkpt><trkpt lat="44.45446046306205" lon="10.517365783754432"><ele>577.0</ele><time>2026-04-06T14:00:24Z</time></trkpt><trkpt lat="44.45445204479068" lon="10.517239384105286"><ele>577.0</ele><time>2026-04-06T14:00:25Z</time></trkpt><trkpt lat="44.45444349353498" lon="10.517111132554552"><ele>577.0</ele><time>2026-04-06T14:00:26Z</time></trkpt><trkpt lat="44.45443411993766" lon="10.516971041610118"><ele>577.0</ele><time>2026-04-06T14:00:27Z</time></trkpt><trkpt lat="44.45442493076081" lon="10.516833707189033"><ele>577.0</ele><time>2026-04-06T14:00:28Z</time></trkpt><trkpt lat="44.45440206944547" lon="10.516692939649971"><ele>577.0</ele><time>2026-04-06T14:00:29Z</time></trkpt><trkpt lat="44.45439865140677" lon="10.516544640894029"><ele>575.8000000000001</ele><time>2026-04-06T14:00:30Z</time></trkpt><trkpt lat="44.454387927654416" lon="10.516394206528222"><ele>574.6</ele><time>2026-04-06T14:00:31Z</time></trkpt><trkpt lat="44.45437761960119" lon="10.51624811832174"><ele>573.4000000000001</ele><time>2026-04-06T14:00:32Z</time></trkpt><trkpt lat="44.45437049142964" lon="10.516107137777267"><ele>572.2</ele><time>2026-04-06T14:00:33Z</time></trkpt><trkpt lat="44.45435469251071" lon="10.515960906201476"><ele>571.0</ele><time>2026-04-06T14:00:34Z</time></trkpt><trkpt lat="44.454341429639015" lon="10.515813727563403"><ele>571.0</ele><time>2026-04-06T14:00:35Z</time></trkpt><trkpt lat="44.45433578233398" lon="10.515670859129118"><ele>571.0</ele><time>2026-04-06T14:00:36Z</time></trkpt><trkpt lat="44.45432980221255" lon="10.515524646700321"><ele>571.0</ele><time>2026-04-06T14:00:37Z</time></trkpt><trkpt lat="44.45432044977361" lon="10.515387105058412"><ele>571.0</ele><time>2026-04-06T14:00:38Z</time></trkpt><trkpt lat="44.45430830172886" lon="10.515243268066955"><ele>571.0</ele><time>2026-04-06T14:00:39Z</time></trkpt><trkpt lat="44.45429775178249" lon="10.515094998221853"><ele>571.8</ele><time>2026-04-06T14:00:40Z</time></trkpt><trkpt lat="44.454279480839716" lon="10.514937832525883"><ele>572.6</ele><time>2026-04-06T14:00:41Z</time></trkpt><trkpt lat="44.45426294206297" lon="10.514790263432408"><ele>573.4</ele><time>2026-04-06T14:00:42Z</time></trkpt><trkpt lat="44.454250362737895" lon="10.51463892706891"><ele>574.2</ele><time>2026-04-06T14:00:43Z</time></trkpt><trkpt lat="44.45423424920991" lon="10.514485502478637"><ele>575.0</ele><time>2026-04-06T14:00:44Z</time></trkpt><trkpt lat="44.45421528735784" lon="10.514335352276717"><ele>575.0</ele><time>2026-04-06T14:00:45Z</time></trkpt><trkpt lat="44.45418195658131" lon="10.514192287660974"><ele>575.0</ele><time>2026-04-06T14:00:46Z</time></trkpt><trkpt lat="44.454151612442104" lon="10.514047503589314"><ele>575.0</ele><time>2026-04-06T14:00:47Z</time></trkpt><trkpt lat="44.45411904841143" lon="10.5139035178163"><ele>575.0</ele><time>2026-04-06T14:00:48Z</time></trkpt><trkpt lat="44.45408324762214" lon="10.513768526158016"><ele>575.0</ele><time>2026-04-06T14:00:49Z</time></trkpt><trkpt lat="44.4540481282119" lon="10.513659841625426"><ele>574.8</ele><time>2026-04-06T14:00:50Z</time></trkpt><trkpt lat="44.45400933201918" lon="10.513560023404786"><ele>574.6</ele><time>2026-04-06T14:00:51Z</time></trkpt><trkpt lat="44.454004744905966" lon="10.51346957270921"><ele>574.4</ele><time>2026-04-06T14:00:52Z</time></trkpt><trkpt lat="44.45397231926827" lon="10.513333832467975"><ele>574.2</ele><time>2026-04-06T14:00:54Z</time></trkpt><trkpt lat="44.453904857658436" lon="10.513394822522798"><ele>574.0</ele><time>2026-04-06T14:01:43Z</time></trkpt><trkpt lat="44.45399687689879" lon="10.513552244884915"><ele>574.0</ele><time>2026-04-06T14:04:44.001Z</time></trkpt><trkpt lat="44.454053351276606" lon="10.51366733728428"><ele>574.0</ele><time>2026-04-06T14:04:45.001Z</time></trkpt><trkpt lat="44.45405074592966" lon="10.513815671301966"><ele>574.0</ele><time>2026-04-06T14:04:46.001Z</time></trkpt><trkpt lat="44.45408146892652" lon="10.513952896614871"><ele>574.0</ele><time>2026-04-06T14:04:47.001Z</time></trkpt><trkpt lat="44.45411534816579" lon="10.514094522907342"><ele>574.0</ele><time>2026-04-06T14:04:48.001Z</time></trkpt><trkpt lat="44.45414619503538" lon="10.51423691424523"><ele>574.2</ele><time>2026-04-06T14:04:49.001Z</time></trkpt><trkpt lat="44.45417619760196" lon="10.514384582752093"><ele>574.4</ele><time>2026-04-06T14:04:50.001Z</time></trkpt><trkpt lat="44.454200795852614" lon="10.514522868605749"><ele>574.6</ele><time>2026-04-06T14:04:51.001Z</time></trkpt><trkpt lat="44.45421993596407" lon="10.514661190014339"><ele>574.8</ele><time>2026-04-06T14:04:52.001Z</time></trkpt><trkpt lat="44.45424728950054" lon="10.514803448002251"><ele>575.0</ele><time>2026-04-06T14:04:53.001Z</time></trkpt><trkpt lat="44.45425639049995" lon="10.5149471268963"><ele>575.0</ele><time>2026-04-06T14:04:54.001Z</time></trkpt><trkpt lat="44.45427105613065" lon="10.515108954484225"><ele>575.0</ele><time>2026-04-06T14:04:55.001Z</time></trkpt><trkpt lat="44.4542753381088" lon="10.515247430945298"><ele>575.0</ele><time>2026-04-06T14:04:56.001Z</time></trkpt><trkpt lat="44.45428781267774" lon="10.515398913539174"><ele>575.0</ele><time>2026-04-06T14:04:57.001Z</time></trkpt><trkpt lat="44.454308629960266" lon="10.515565335890122"><ele>575.0</ele><time>2026-04-06T14:04:58.001Z</time></trkpt><trkpt lat="44.454319173884336" lon="10.515712045806875"><ele>574.2</ele><time>2026-04-06T14:04:59.001Z</time></trkpt><trkpt lat="44.454324283436954" lon="10.515862960936325"><ele>573.4</ele><time>2026-04-06T14:05:00.001Z</time></trkpt><trkpt lat="44.45433630742244" lon="10.516018157691756"><ele>572.6</ele><time>2026-04-06T14:05:01.001Z</time></trkpt><trkpt lat="44.45434548847179" lon="10.516164901088816"><ele>571.8</ele><time>2026-04-06T14:05:02.001Z</time></trkpt><trkpt lat="44.45436095506576" lon="10.516321440732455"><ele>571.0</ele><time>2026-04-06T14:05:03.001Z</time></trkpt><trkpt lat="44.45437437210159" lon="10.516477672919084"><ele>571.0</ele><time>2026-04-06T14:05:04.001Z</time></trkpt><trkpt lat="44.454384069846355" lon="10.516621619328692"><ele>571.0</ele><time>2026-04-06T14:05:05.001Z</time></trkpt><trkpt lat="44.4543967289722" lon="10.516769827363495"><ele>571.0</ele><time>2026-04-06T14:05:06.001Z</time></trkpt><trkpt lat="44.454395508297274" lon="10.516897400490018"><ele>571.0</ele><time>2026-04-06T14:05:07.001Z</time></trkpt><trkpt lat="44.45440627127346" lon="10.517054590338027"><ele>571.0</ele><time>2026-04-06T14:05:08.001Z</time></trkpt><trkpt lat="44.4544160602285" lon="10.517201142187146"><ele>572.2</ele><time>2026-04-06T14:05:09.001Z</time></trkpt><trkpt lat="44.45443857878676" lon="10.517337971748091"><ele>573.4000000000001</ele><time>2026-04-06T14:05:10.001Z</time></trkpt><trkpt lat="44.45445073945004" lon="10.517475242702222"><ele>574.6</ele><time>2026-04-06T14:05:11.001Z</time></trkpt><trkpt lat="44.454443630599314" lon="10.517615109243298"><ele>575.8000000000001</ele><time>2026-04-06T14:05:12.001Z</time></trkpt><trkpt lat="44.4544526783518" lon="10.51775096058492"><ele>577.0</ele><time>2026-04-06T14:05:13.001Z</time></trkpt><trkpt lat="44.45446105907085" lon="10.517876796422469"><ele>577.0</ele><time>2026-04-06T14:05:14.001Z</time></trkpt><trkpt lat="44.4544697805968" lon="10.518007749532208"><ele>577.0</ele><time>2026-04-06T14:05:15.001Z</time></trkpt><trkpt lat="44.45449261615842" lon="10.518137551056265"><ele>577.0</ele><time>2026-04-06T14:05:16.001Z</time></trkpt><trkpt lat="44.45448776416331" lon="10.518270214002873"><ele>577.0</ele><time>2026-04-06T14:05:17.001Z</time></trkpt><trkpt lat="44.45446699136964" lon="10.51839141511356"><ele>577.0</ele><time>2026-04-06T14:05:18.001Z</time></trkpt><trkpt lat="44.454478395918855" lon="10.518512535640308"><ele>577.0</ele><time>2026-04-06T14:05:19.001Z</time></trkpt><trkpt lat="44.45449930161619" lon="10.51867242832378"><ele>577.0</ele><time>2026-04-06T14:05:20.001Z</time></trkpt><trkpt lat="44.454522449505056" lon="10.518765449531816"><ele>577.0</ele><time>2026-04-06T14:05:21.001Z</time></trkpt><trkpt lat="44.45453325099581" lon="10.518947072530205"><ele>577.0</ele><time>2026-04-06T14:05:22.001Z</time></trkpt><trkpt lat="44.45453488816958" lon="10.519107559989544"><ele>577.0</ele><time>2026-04-06T14:05:23.001Z</time></trkpt><trkpt lat="44.45453644496698" lon="10.519257650989065"><ele>576.2</ele><time>2026-04-06T14:05:24.001Z</time></trkpt><trkpt lat="44.45453423323458" lon="10.519387949092113"><ele>575.4000000000001</ele><time>2026-04-06T14:05:25.001Z</time></trkpt><trkpt lat="44.45454927170667" lon="10.519526031130171"><ele>574.5999999999999</ele><time>2026-04-06T14:05:26.001Z</time></trkpt><trkpt lat="44.45455689269193" lon="10.519658400182893"><ele>573.8</ele><time>2026-04-06T14:05:27.001Z</time></trkpt><trkpt lat="44.45455477447758" lon="10.519780810669339"><ele>573.0</ele><time>2026-04-06T14:05:28.001Z</time></trkpt><trkpt lat="44.454555132638816" lon="10.519919814865755"><ele>573.0</ele><time>2026-04-06T14:05:29.001Z</time></trkpt><trkpt lat="44.454580515196085" lon="10.520041470618532"><ele>573.0</ele><time>2026-04-06T14:05:30.001Z</time></trkpt><trkpt lat="44.45461544496926" lon="10.520160742112225"><ele>573.0</ele><time>2026-04-06T14:05:31.001Z</time></trkpt><trkpt lat="44.4546755357454" lon="10.520275808162054"><ele>573.0</ele><time>2026-04-06T14:05:32.001Z</time></trkpt><trkpt lat="44.45470158622141" lon="10.520380207804408"><ele>573.0</ele><time>2026-04-06T14:05:33.001Z</time></trkpt><trkpt lat="44.45471613196236" lon="10.520497996335685"><ele>573.0</ele><time>2026-04-06T14:05:34.001Z</time></trkpt><trkpt lat="44.45473527724061" lon="10.52062638935462"><ele>571.1666666666666</ele><time>2026-04-06T14:05:35.001Z</time></trkpt><trkpt lat="44.45475453242756" lon="10.52075705129431"><ele>569.3333333333334</ele><time>2026-04-06T14:05:36.001Z</time></trkpt><trkpt lat="44.454771901038534" lon="10.520874910845638"><ele>567.5</ele><time>2026-04-06T14:05:37.001Z</time></trkpt><trkpt lat="44.45480314222209" lon="10.520976531647753"><ele>565.6666666666667</ele><time>2026-04-06T14:05:38.001Z</time></trkpt><trkpt lat="44.45481324897345" lon="10.521079937845847"><ele>563.8333333333334</ele><time>2026-04-06T14:05:39.001Z</time></trkpt><trkpt lat="44.45482982147075" lon="10.521221344431904"><ele>562.0</ele><time>2026-04-06T14:05:41.001Z</time></trkpt><trkpt lat="44.454844269634286" lon="10.521309096754825"><ele>562.0</ele><time>2026-04-06T14:05:44.001Z</time></trkpt><trkpt lat="44.45494144966512" lon="10.521283051236098"><ele>562.0</ele><time>2026-04-06T14:05:46.001Z</time></trkpt><trkpt lat="44.45501829502083" lon="10.521240779632071"><ele>562.0</ele><time>2026-04-06T14:05:47.001Z</time></trkpt><trkpt lat="44.45506933450439" lon="10.5211512362608"><ele>562.0</ele><time>2026-04-06T14:05:48.001Z</time></trkpt><trkpt lat="44.45512250825831" lon="10.52105795134015"><ele>562.0</ele><time>2026-04-06T14:05:49.001Z</time></trkpt><trkpt lat="44.45516315589368" lon="10.520940073631158"><ele>562.0</ele><time>2026-04-06T14:05:50.001Z</time></trkpt><trkpt lat="44.455229296876375" lon="10.520821203541916"><ele>562.0</ele><time>2026-04-06T14:05:51Z</time></trkpt><trkpt lat="44.45529805861786" lon="10.520696842272525"><ele>562.0</ele><time>2026-04-06T14:05:52Z</time></trkpt><trkpt lat="44.45536250779121" lon="10.520585225429894"><ele>562.0</ele><time>2026-04-06T14:05:53Z</time></trkpt><trkpt lat="44.45542559236489" lon="10.520464370363609"><ele>562.0</ele><time>2026-04-06T14:05:54Z</time></trkpt><trkpt lat="44.45547407798243" lon="10.520335136527994"><ele>562.0</ele><time>2026-04-06T14:05:55Z</time></trkpt><trkpt lat="44.455495795688655" lon="10.52018409377349"><ele>558.5</ele><time>2026-04-06T14:05:56Z</time></trkpt><trkpt lat="44.45549516947443" lon="10.520029287219135"><ele>555.0</ele><time>2026-04-06T14:05:57Z</time></trkpt><trkpt lat="44.45550918996131" lon="10.5198696594403"><ele>551.5</ele><time>2026-04-06T14:05:58Z</time></trkpt><trkpt lat="44.45550674389138" lon="10.51970699584593"><ele>548.0</ele><time>2026-04-06T14:05:59Z</time></trkpt><trkpt lat="44.45550493988544" lon="10.519543672876335"><ele>547.4</ele><time>2026-04-06T14:06:00Z</time></trkpt><trkpt lat="44.455506227374926" lon="10.519383088163588"><ele>546.8</ele><time>2026-04-06T14:06:01Z</time></trkpt><trkpt lat="44.455510384297185" lon="10.519232413627389"><ele>546.2</ele><time>2026-04-06T14:06:02Z</time></trkpt><trkpt lat="44.455511835855766" lon="10.519090439151299"><ele>545.6</ele><time>2026-04-06T14:06:03Z</time></trkpt><trkpt lat="44.45556024786517" lon="10.518952125821189"><ele>545.0</ele><time>2026-04-06T14:06:04Z</time></trkpt><trkpt lat="44.45563436182372" lon="10.518829789452306"><ele>544.5</ele><time>2026-04-06T14:06:05Z</time></trkpt><trkpt lat="44.45572456781772" lon="10.518729773743004"><ele>544.0</ele><time>2026-04-06T14:06:06Z</time></trkpt><trkpt lat="44.45584078502377" lon="10.51865347935887"><ele>543.5</ele><time>2026-04-06T14:06:07Z</time></trkpt><trkpt lat="44.45593530843208" lon="10.518577517729065"><ele>543.0</ele><time>2026-04-06T14:06:08Z</time></trkpt><trkpt lat="44.45603546570327" lon="10.518486364196496"><ele>543.0</ele><time>2026-04-06T14:06:09Z</time></trkpt><trkpt lat="44.456136867108434" lon="10.518395155605205"><ele>543.0</ele><time>2026-04-06T14:06:10Z</time></trkpt><trkpt lat="44.45623770732553" lon="10.518315048155994"><ele>543.0</ele><time>2026-04-06T14:06:11Z</time></trkpt><trkpt lat="44.45633986886033" lon="10.518246959053611"><ele>543.0</ele><time>2026-04-06T14:06:12Z</time></trkpt><trkpt lat="44.4564436009533" lon="10.518220778715175"><ele>542.1999999999999</ele><time>2026-04-06T14:06:13Z</time></trkpt><trkpt lat="44.45655086117377" lon="10.518225842435909"><ele>541.4</ele><time>2026-04-06T14:06:14Z</time></trkpt><trkpt lat="44.45665576329717" lon="10.51826139466358"><ele>540.5999999999999</ele><time>2026-04-06T14:06:15Z</time></trkpt><trkpt lat="44.45675793403539" lon="10.518326711585287"><ele>539.8</ele><time>2026-04-06T14:06:16Z</time></trkpt><trkpt lat="44.45685280988391" lon="10.5184088040677"><ele>539.0</ele><time>2026-04-06T14:06:17Z</time></trkpt><trkpt lat="44.456948633331415" lon="10.51850073436039"><ele>539.0</ele><time>2026-04-06T14:06:18Z</time></trkpt><trkpt lat="44.457050812705994" lon="10.518593335346324"><ele>539.0</ele><time>2026-04-06T14:06:19Z</time></trkpt><trkpt lat="44.457152521567956" lon="10.518682895782066"><ele>539.0</ele><time>2026-04-06T14:06:20Z</time></trkpt><trkpt lat="44.457252467984645" lon="10.518779827311691"><ele>539.0</ele><time>2026-04-06T14:06:21Z</time></trkpt><trkpt lat="44.457356961393685" lon="10.518876283252565"><ele>537.0</ele><time>2026-04-06T14:06:22Z</time></trkpt><trkpt lat="44.457463938528086" lon="10.518965812984868"><ele>535.0</ele><time>2026-04-06T14:06:23Z</time></trkpt><trkpt lat="44.45756474536593" lon="10.519053975825418"><ele>533.0</ele><time>2026-04-06T14:06:24Z</time></trkpt><trkpt lat="44.45766403680983" lon="10.519143863541686"><ele>531.0</ele><time>2026-04-06T14:06:25Z</time></trkpt><trkpt lat="44.457760008988714" lon="10.519233141116466"><ele>531.0</ele><time>2026-04-06T14:06:26Z</time></trkpt><trkpt lat="44.45785900721988" lon="10.519319669167189"><ele>531.0</ele><time>2026-04-06T14:06:27Z</time></trkpt><trkpt lat="44.457957202056164" lon="10.519401672116924"><ele>531.0</ele><time>2026-04-06T14:06:28Z</time></trkpt><trkpt lat="44.45805719326511" lon="10.519495676219048"><ele>531.0</ele><time>2026-04-06T14:06:29Z</time></trkpt><trkpt lat="44.458157314894315" lon="10.51959226153295"><ele>529.0</ele><time>2026-04-06T14:06:30Z</time></trkpt><trkpt lat="44.458272024290046" lon="10.519694193455537"><ele>527.0</ele><time>2026-04-06T14:06:31Z</time></trkpt><trkpt lat="44.45838517621552" lon="10.51978430486921"><ele>525.0</ele><time>2026-04-06T14:06:32Z</time></trkpt><trkpt lat="44.45849906678241" lon="10.519864259288601"><ele>523.0</ele><time>2026-04-06T14:06:33Z</time></trkpt><trkpt lat="44.45861192137865" lon="10.51993445461234"><ele>523.0</ele><time>2026-04-06T14:06:34Z</time></trkpt><trkpt lat="44.458724294185416" lon="10.51999697309473"><ele>523.0</ele><time>2026-04-06T14:06:35Z</time></trkpt><trkpt lat="44.45883871458777" lon="10.520051575075327"><ele>523.0</ele><time>2026-04-06T14:06:36Z</time></trkpt><trkpt lat="44.45895602835963" lon="10.520111202434274"><ele>523.0</ele><time>2026-04-06T14:06:37Z</time></trkpt><trkpt lat="44.45906804773099" lon="10.520160940186566"><ele>522.6</ele><time>2026-04-06T14:06:38Z</time></trkpt><trkpt lat="44.45917607294233" lon="10.52020840715532"><ele>522.1999999999999</ele><time>2026-04-06T14:06:39Z</time></trkpt><trkpt lat="44.45927899232495" lon="10.520257174616503"><ele>521.8</ele><time>2026-04-06T14:06:40Z</time></trkpt><trkpt lat="44.45937982854026" lon="10.520306475715184"><ele>521.4</ele><time>2026-04-06T14:06:41Z</time></trkpt><trkpt lat="44.459487355793925" lon="10.520370275032809"><ele>521.0</ele><time>2026-04-06T14:06:42Z</time></trkpt><trkpt lat="44.45960319275635" lon="10.520448910031424"><ele>518.5</ele><time>2026-04-06T14:06:43Z</time></trkpt><trkpt lat="44.459709843375435" lon="10.52054080060256"><ele>516.0</ele><time>2026-04-06T14:06:44Z</time></trkpt><trkpt lat="44.45982126878991" lon="10.520633750766857"><ele>513.5</ele><time>2026-04-06T14:06:45Z</time></trkpt><trkpt lat="44.45993157703835" lon="10.520730572114513"><ele>511.0</ele><time>2026-04-06T14:06:46Z</time></trkpt><trkpt lat="44.46004169868296" lon="10.520826669902164"><ele>511.0</ele><time>2026-04-06T14:06:47Z</time></trkpt><trkpt lat="44.46016009423981" lon="10.520918664240643"><ele>511.0</ele><time>2026-04-06T14:06:48Z</time></trkpt><trkpt lat="44.46025957720959" lon="10.521005529554186"><ele>511.0</ele><time>2026-04-06T14:06:49Z</time></trkpt><trkpt lat="44.460361321307175" lon="10.521089019654514"><ele>511.0</ele><time>2026-04-06T14:06:50Z</time></trkpt><trkpt lat="44.46046942970025" lon="10.52116470503764"><ele>509.75</ele><time>2026-04-06T14:06:51Z</time></trkpt><trkpt lat="44.46057517657766" lon="10.521234361953983"><ele>508.5</ele><time>2026-04-06T14:06:52Z</time></trkpt><trkpt lat="44.460686938735435" lon="10.521287659364976"><ele>507.25</ele><time>2026-04-06T14:06:53Z</time></trkpt><trkpt lat="44.46081266286201" lon="10.521319494666878"><ele>506.0</ele><time>2026-04-06T14:06:54Z</time></trkpt><trkpt lat="44.4609357858408" lon="10.521339013481093"><ele>506.0</ele><time>2026-04-06T14:06:55Z</time></trkpt><trkpt lat="44.461069060985636" lon="10.521346034516995"><ele>506.0</ele><time>2026-04-06T14:06:56Z</time></trkpt><trkpt lat="44.461196365777205" lon="10.521348865945843"><ele>506.0</ele><time>2026-04-06T14:06:57Z</time></trkpt><trkpt lat="44.4613363903192" lon="10.521347014381167"><ele>506.0</ele><time>2026-04-06T14:06:58Z</time></trkpt><trkpt lat="44.461466619289986" lon="10.521340970740443"><ele>505.5</ele><time>2026-04-06T14:06:59Z</time></trkpt><trkpt lat="44.461600320910556" lon="10.5213351057589"><ele>505.0</ele><time>2026-04-06T14:07:00Z</time></trkpt><trkpt lat="44.461743074417214" lon="10.521333410150014"><ele>504.5</ele><time>2026-04-06T14:07:01Z</time></trkpt><trkpt lat="44.46187762628829" lon="10.521324980861491"><ele>504.0</ele><time>2026-04-06T14:07:02Z</time></trkpt><trkpt lat="44.46200654501413" lon="10.521310157775117"><ele>503.25</ele><time>2026-04-06T14:07:03Z</time></trkpt><trkpt lat="44.46212892050601" lon="10.521282810634537"><ele>502.5</ele><time>2026-04-06T14:07:04Z</time></trkpt><trkpt lat="44.46224959990793" lon="10.52124757763056"><ele>501.75</ele><time>2026-04-06T14:07:05Z</time></trkpt><trkpt lat="44.46236820077785" lon="10.521197913371417"><ele>501.0</ele><time>2026-04-06T14:07:06Z</time></trkpt><trkpt lat="44.46249149224367" lon="10.521137429397598"><ele>501.0</ele><time>2026-04-06T14:07:07Z</time></trkpt><trkpt lat="44.46262689893657" lon="10.521086429373295"><ele>501.0</ele><time>2026-04-06T14:07:08Z</time></trkpt><trkpt lat="44.46275076029912" lon="10.521036840509414"><ele>501.0</ele><time>2026-04-06T14:07:09Z</time></trkpt><trkpt lat="44.46288023048319" lon="10.520976119607509"><ele>501.0</ele><time>2026-04-06T14:07:10Z</time></trkpt><trkpt lat="44.46299710242508" lon="10.520916949942865"><ele>500.0</ele><time>2026-04-06T14:07:11Z</time></trkpt><trkpt lat="44.463116154226704" lon="10.520864982639416"><ele>499.0</ele><time>2026-04-06T14:07:12Z</time></trkpt><trkpt lat="44.463240331202265" lon="10.5208228173037"><ele>498.0</ele><time>2026-04-06T14:07:13Z</time></trkpt><trkpt lat="44.463370021032006" lon="10.520779240395017"><ele>497.0</ele><time>2026-04-06T14:07:14Z</time></trkpt><trkpt lat="44.4634888419044" lon="10.520724945119731"><ele>497.0</ele><time>2026-04-06T14:07:15.001Z</time></trkpt><trkpt lat="44.463616249071826" lon="10.520671440757342"><ele>497.0</ele><time>2026-04-06T14:07:16.001Z</time></trkpt><trkpt lat="44.46373075256944" lon="10.520617027993506"><ele>497.0</ele><time>2026-04-06T14:07:17.001Z</time></trkpt><trkpt lat="44.46385035634829" lon="10.520571724373099"><ele>497.0</ele><time>2026-04-06T14:07:18.001Z</time></trkpt><trkpt lat="44.46396877510685" lon="10.520523776992988"><ele>496.5</ele><time>2026-04-06T14:07:19.001Z</time></trkpt><trkpt lat="44.46408211026148" lon="10.520462301783793"><ele>496.0</ele><time>2026-04-06T14:07:20.001Z</time></trkpt><trkpt lat="44.46421243147456" lon="10.52040256404063"><ele>495.5</ele><time>2026-04-06T14:07:21.001Z</time></trkpt><trkpt lat="44.46431961698785" lon="10.52035992019016"><ele>495.0</ele><time>2026-04-06T14:07:22.001Z</time></trkpt><trkpt lat="44.464432673915255" lon="10.520300541902888"><ele>495.0</ele><time>2026-04-06T14:07:23.001Z</time></trkpt><trkpt lat="44.46453775748808" lon="10.520215613157534"><ele>495.0</ele><time>2026-04-06T14:07:24.001Z</time></trkpt><trkpt lat="44.464642748707305" lon="10.520110037984553"><ele>495.0</ele><time>2026-04-06T14:07:25.001Z</time></trkpt><trkpt lat="44.464738622421095" lon="10.519994089499649"><ele>495.0</ele><time>2026-04-06T14:07:26.001Z</time></trkpt><trkpt lat="44.46481530693656" lon="10.519860017650936"><ele>495.25</ele><time>2026-04-06T14:07:27.001Z</time></trkpt><trkpt lat="44.4648843748383" lon="10.519711092760703"><ele>495.5</ele><time>2026-04-06T14:07:28.001Z</time></trkpt><trkpt lat="44.46495127762844" lon="10.519562935199941"><ele>495.75</ele><time>2026-04-06T14:07:29.001Z</time></trkpt><trkpt lat="44.46500916005986" lon="10.519404481273904"><ele>496.0</ele><time>2026-04-06T14:07:30.001Z</time></trkpt><trkpt lat="44.465054803167874" lon="10.519251221233512"><ele>496.0</ele><time>2026-04-06T14:07:31.001Z</time></trkpt><trkpt lat="44.465085014397694" lon="10.519096951272372"><ele>496.0</ele><time>2026-04-06T14:07:32.001Z</time></trkpt><trkpt lat="44.46509230237185" lon="10.51891788720554"><ele>496.0</ele><time>2026-04-06T14:07:33.001Z</time></trkpt><trkpt lat="44.465079991974" lon="10.518738184216366"><ele>496.0</ele><time>2026-04-06T14:07:34.001Z</time></trkpt><trkpt lat="44.465063368996404" lon="10.518524034019933"><ele>495.25</ele><time>2026-04-06T14:07:35.001Z</time></trkpt><trkpt lat="44.46507061690001" lon="10.518332513939553"><ele>494.5</ele><time>2026-04-06T14:07:36.001Z</time></trkpt><trkpt lat="44.46507962503759" lon="10.518156058625019"><ele>493.75</ele><time>2026-04-06T14:07:37Z</time></trkpt><trkpt lat="44.46508463087521" lon="10.517987041806247"><ele>493.0</ele><time>2026-04-06T14:07:38Z</time></trkpt><trkpt lat="44.46509896626257" lon="10.517798832984193"><ele>492.75</ele><time>2026-04-06T14:07:39Z</time></trkpt><trkpt lat="44.46512111080589" lon="10.51760003630316"><ele>492.5</ele><time>2026-04-06T14:07:40Z</time></trkpt><trkpt lat="44.46513962808513" lon="10.517402554726853"><ele>492.25</ele><time>2026-04-06T14:07:41Z</time></trkpt><trkpt lat="44.465166891103415" lon="10.517208539713375"><ele>492.0</ele><time>2026-04-06T14:07:42Z</time></trkpt><trkpt lat="44.46518895934532" lon="10.517028717279159"><ele>490.0</ele><time>2026-04-06T14:07:43Z</time></trkpt><trkpt lat="44.465213432343695" lon="10.516840662761213"><ele>488.0</ele><time>2026-04-06T14:07:44Z</time></trkpt><trkpt lat="44.46525812751094" lon="10.516680523422192"><ele>486.0</ele><time>2026-04-06T14:07:45Z</time></trkpt><trkpt lat="44.46533505294459" lon="10.516526221805211"><ele>484.0</ele><time>2026-04-06T14:07:46Z</time></trkpt><trkpt lat="44.465429742555806" lon="10.516406663783343"><ele>481.5</ele><time>2026-04-06T14:07:47Z</time></trkpt><trkpt lat="44.46554140501704" lon="10.516319006846592"><ele>479.0</ele><time>2026-04-06T14:07:48Z</time></trkpt><trkpt lat="44.46565265810038" lon="10.51623415275962"><ele>476.5</ele><time>2026-04-06T14:07:49Z</time></trkpt><trkpt lat="44.46577267392953" lon="10.51614841297851"><ele>474.0</ele><time>2026-04-06T14:07:50Z</time></trkpt><trkpt lat="44.46591082246471" lon="10.516045719553809"><ele>474.0</ele><time>2026-04-06T14:07:51Z</time></trkpt><trkpt lat="44.46606036311974" lon="10.515935732908376"><ele>474.0</ele><time>2026-04-06T14:07:52Z</time></trkpt><trkpt lat="44.466197021014715" lon="10.515828565031848"><ele>474.0</ele><time>2026-04-06T14:07:53Z</time></trkpt><trkpt lat="44.46631338753374" lon="10.51572805594533"><ele>473.79999999999995</ele><time>2026-04-06T14:07:54Z</time></trkpt><trkpt lat="44.466406787318036" lon="10.515642102492913"><ele>473.59999999999997</ele><time>2026-04-06T14:07:55Z</time></trkpt><trkpt lat="44.46648440394006" lon="10.515571356577617"><ele>473.4</ele><time>2026-04-06T14:07:56Z</time></trkpt><trkpt lat="44.46655047478674" lon="10.515523775733545"><ele>473.2</ele><time>2026-04-06T14:07:57Z</time></trkpt><trkpt lat="44.46669226395321" lon="10.515564130185119"><ele>473.0</ele><time>2026-04-06T14:07:59Z</time></trkpt><trkpt lat="44.466744855021894" lon="10.515641734407358"><ele>473.0</ele><time>2026-04-06T14:08:00Z</time></trkpt><trkpt lat="44.46674879960517" lon="10.515757475834887"><ele>473.0</ele><time>2026-04-06T14:08:01Z</time></trkpt><trkpt lat="44.466776665450475" lon="10.515903527259526"><ele>473.0</ele><time>2026-04-06T14:08:02Z</time></trkpt><trkpt lat="44.466795062493354" lon="10.516083677742074"><ele>473.0</ele><time>2026-04-06T14:08:03Z</time></trkpt><trkpt lat="44.466812075095014" lon="10.516270249603755"><ele>472.5</ele><time>2026-04-06T14:08:04Z</time></trkpt><trkpt lat="44.466833229000265" lon="10.516458150060293"><ele>472.0</ele><time>2026-04-06T14:08:05Z</time></trkpt><trkpt lat="44.46685358544516" lon="10.516646527939693"><ele>471.5</ele><time>2026-04-06T14:08:06Z</time></trkpt><trkpt lat="44.46688014731169" lon="10.51684778268866"><ele>471.0</ele><time>2026-04-06T14:08:07Z</time></trkpt><trkpt lat="44.466903966412595" lon="10.51705265513465"><ele>470.33333333333337</ele><time>2026-04-06T14:08:08Z</time></trkpt><trkpt lat="44.4669312977433" lon="10.517262456186469"><ele>469.6666666666667</ele><time>2026-04-06T14:08:09Z</time></trkpt><trkpt lat="44.46694963683044" lon="10.517463986597964"><ele>469.0</ele><time>2026-04-06T14:08:10Z</time></trkpt><trkpt lat="44.46697272301694" lon="10.51768793045232"><ele>468.0</ele><time>2026-04-06T14:08:11Z</time></trkpt><trkpt lat="44.466995474366136" lon="10.51791031887699"><ele>467.0</ele><time>2026-04-06T14:08:12Z</time></trkpt><trkpt lat="44.467022887110446" lon="10.518124613869437"><ele>466.0</ele><time>2026-04-06T14:08:13Z</time></trkpt><trkpt lat="44.46705405906669" lon="10.518329593763776"><ele>466.0</ele><time>2026-04-06T14:08:14Z</time></trkpt><trkpt lat="44.46708819027524" lon="10.51852188549511"><ele>466.0</ele><time>2026-04-06T14:08:15Z</time></trkpt><trkpt lat="44.46713815052564" lon="10.518706320921096"><ele>466.0</ele><time>2026-04-06T14:08:16Z</time></trkpt><trkpt lat="44.467198378711814" lon="10.518884575429016"><ele>466.0</ele><time>2026-04-06T14:08:17Z</time></trkpt><trkpt lat="44.46726159744293" lon="10.519054584798196"><ele>465.5</ele><time>2026-04-06T14:08:18Z</time></trkpt><trkpt lat="44.46731682083359" lon="10.519227544512844"><ele>465.0</ele><time>2026-04-06T14:08:19Z</time></trkpt><trkpt lat="44.46737040956277" lon="10.519400562937882"><ele>464.5</ele><time>2026-04-06T14:08:20Z</time></trkpt><trkpt lat="44.46743295513771" lon="10.519567748539785"><ele>464.0</ele><time>2026-04-06T14:08:21Z</time></trkpt><trkpt lat="44.46748168732019" lon="10.519740270593603"><ele>464.0</ele><time>2026-04-06T14:08:22Z</time></trkpt><trkpt lat="44.46753770833938" lon="10.519910616098207"><ele>464.0</ele><time>2026-04-06T14:08:23Z</time></trkpt><trkpt lat="44.46760726485653" lon="10.520071412245699"><ele>464.0</ele><time>2026-04-06T14:08:24Z</time></trkpt><trkpt lat="44.46768092942106" lon="10.520227293119799"><ele>464.0</ele><time>2026-04-06T14:08:25Z</time></trkpt><trkpt lat="44.467761587122816" lon="10.520380351681958"><ele>464.0</ele><time>2026-04-06T14:08:26Z</time></trkpt><trkpt lat="44.467848169824144" lon="10.520530505911331"><ele>464.0</ele><time>2026-04-06T14:08:27Z</time></trkpt><trkpt lat="44.467925180799114" lon="10.520684604739992"><ele>464.0</ele><time>2026-04-06T14:08:28Z</time></trkpt><trkpt lat="44.46800698736315" lon="10.520835723768336"><ele>464.0</ele><time>2026-04-06T14:08:29Z</time></trkpt><trkpt lat="44.46809063222301" lon="10.520986420959245"><ele>464.0</ele><time>2026-04-06T14:08:30Z</time></trkpt><trkpt lat="44.468178998947025" lon="10.521153912284154"><ele>464.0</ele><time>2026-04-06T14:08:31Z</time></trkpt><trkpt lat="44.46824372949477" lon="10.521318778238879"><ele>464.0</ele><time>2026-04-06T14:08:32Z</time></trkpt><trkpt lat="44.46832704363289" lon="10.52145133990977"><ele>464.0</ele><time>2026-04-06T14:08:33Z</time></trkpt><trkpt lat="44.46840731058738" lon="10.52160461462747"><ele>464.5</ele><time>2026-04-06T14:08:34Z</time></trkpt><trkpt lat="44.46848896434803" lon="10.521755531452609"><ele>465.0</ele><time>2026-04-06T14:08:35Z</time></trkpt><trkpt lat="44.46857732909077" lon="10.521911103003669"><ele>465.5</ele><time>2026-04-06T14:08:36Z</time></trkpt><trkpt lat="44.46866426477077" lon="10.522074863608768"><ele>466.0</ele><time>2026-04-06T14:08:37Z</time></trkpt><trkpt lat="44.468749200948174" lon="10.522238469063549"><ele>464.25</ele><time>2026-04-06T14:08:38Z</time></trkpt><trkpt lat="44.46883137883276" lon="10.522401661945885"><ele>462.5</ele><time>2026-04-06T14:08:39Z</time></trkpt><trkpt lat="44.46891168800705" lon="10.52255390496899"><ele>460.75</ele><time>2026-04-06T14:08:40Z</time></trkpt><trkpt lat="44.46899575019271" lon="10.522707665829737"><ele>459.0</ele><time>2026-04-06T14:08:41Z</time></trkpt><trkpt lat="44.46907612418682" lon="10.522858903006812"><ele>458.75</ele><time>2026-04-06T14:08:42Z</time></trkpt><trkpt lat="44.46915483537941" lon="10.523011811177188"><ele>458.5</ele><time>2026-04-06T14:08:43Z</time></trkpt><trkpt lat="44.46923311846717" lon="10.523164652672632"><ele>458.25</ele><time>2026-04-06T14:08:44Z</time></trkpt><trkpt lat="44.46931129559459" lon="10.523315209247738"><ele>458.0</ele><time>2026-04-06T14:08:45Z</time></trkpt><trkpt lat="44.46938840210756" lon="10.523462798740216"><ele>458.0</ele><time>2026-04-06T14:08:46Z</time></trkpt><trkpt lat="44.46946336522092" lon="10.523611791148548"><ele>458.0</ele><time>2026-04-06T14:08:47Z</time></trkpt><trkpt lat="44.469535240789526" lon="10.523762723366563"><ele>458.0</ele><time>2026-04-06T14:08:48Z</time></trkpt><trkpt lat="44.46958546774403" lon="10.523937585204425"><ele>458.0</ele><time>2026-04-06T14:08:49Z</time></trkpt><trkpt lat="44.46962629789978" lon="10.52412264008676"><ele>458.0</ele><time>2026-04-06T14:08:50Z</time></trkpt><trkpt lat="44.469659472686175" lon="10.524301042190176"><ele>458.0</ele><time>2026-04-06T14:08:51Z</time></trkpt><trkpt lat="44.469676588765374" lon="10.524491289451905"><ele>458.0</ele><time>2026-04-06T14:08:52Z</time></trkpt><trkpt lat="44.46969855931935" lon="10.524675397863154"><ele>458.0</ele><time>2026-04-06T14:08:53Z</time></trkpt><trkpt lat="44.46973980612822" lon="10.524854470102508"><ele>457.75</ele><time>2026-04-06T14:08:54Z</time></trkpt><trkpt lat="44.46980081322236" lon="10.525021456486634"><ele>457.5</ele><time>2026-04-06T14:08:55Z</time></trkpt><trkpt lat="44.46988757195511" lon="10.525179119581903"><ele>457.25</ele><time>2026-04-06T14:08:56Z</time></trkpt><trkpt lat="44.469970164129826" lon="10.525323400079028"><ele>457.0</ele><time>2026-04-06T14:08:57Z</time></trkpt><trkpt lat="44.470039638510066" lon="10.525483102932554"><ele>457.0</ele><time>2026-04-06T14:08:58Z</time></trkpt><trkpt lat="44.470090109877994" lon="10.525664037851252"><ele>457.0</ele><time>2026-04-06T14:08:59Z</time></trkpt><trkpt lat="44.47012339917894" lon="10.525858087908208"><ele>457.0</ele><time>2026-04-06T14:09:00Z</time></trkpt><trkpt lat="44.4701513681207" lon="10.526048612264827"><ele>457.0</ele><time>2026-04-06T14:09:01Z</time></trkpt><trkpt lat="44.47017751491731" lon="10.526238638031373"><ele>457.75</ele><time>2026-04-06T14:09:02Z</time></trkpt><trkpt lat="44.470208759331015" lon="10.526423949206382"><ele>458.5</ele><time>2026-04-06T14:09:03Z</time></trkpt><trkpt lat="44.47025352402808" lon="10.526595234663402"><ele>459.25</ele><time>2026-04-06T14:09:04Z</time></trkpt><trkpt lat="44.470314167550114" lon="10.526751914752246"><ele>460.0</ele><time>2026-04-06T14:09:05Z</time></trkpt><trkpt lat="44.4703832489041" lon="10.52691844913832"><ele>458.5</ele><time>2026-04-06T14:09:06Z</time></trkpt><trkpt lat="44.47045833063231" lon="10.52707748853688"><ele>457.0</ele><time>2026-04-06T14:09:07Z</time></trkpt><trkpt lat="44.47053355065622" lon="10.527235059680567"><ele>455.5</ele><time>2026-04-06T14:09:08Z</time></trkpt><trkpt lat="44.47060089025854" lon="10.527384698886422"><ele>454.0</ele><time>2026-04-06T14:09:09Z</time></trkpt><trkpt lat="44.470661957543626" lon="10.52752446106046"><ele>454.0</ele><time>2026-04-06T14:09:10Z</time></trkpt><trkpt lat="44.47072495728575" lon="10.527663128258482"><ele>454.0</ele><time>2026-04-06T14:09:11Z</time></trkpt><trkpt lat="44.47077244692677" lon="10.527803992334281"><ele>454.0</ele><time>2026-04-06T14:09:12Z</time></trkpt><trkpt lat="44.470815274396415" lon="10.52794287134088"><ele>454.0</ele><time>2026-04-06T14:09:13Z</time></trkpt><trkpt lat="44.47084138754125" lon="10.528089298183573"><ele>454.0</ele><time>2026-04-06T14:09:14Z</time></trkpt><trkpt lat="44.47082739543121" lon="10.528245063342764"><ele>454.2</ele><time>2026-04-06T14:09:15Z</time></trkpt><trkpt lat="44.470787645014724" lon="10.528398896606577"><ele>454.4</ele><time>2026-04-06T14:09:16Z</time></trkpt><trkpt lat="44.4707421425074" lon="10.528534924150003"><ele>454.6</ele><time>2026-04-06T14:09:17Z</time></trkpt><trkpt lat="44.470694535498765" lon="10.52866896303983"><ele>454.8</ele><time>2026-04-06T14:09:18Z</time></trkpt><trkpt lat="44.47065291593906" lon="10.528800416736063"><ele>455.0</ele><time>2026-04-06T14:09:19Z</time></trkpt><trkpt lat="44.47060885558223" lon="10.528924968120771"><ele>454.8</ele><time>2026-04-06T14:09:20Z</time></trkpt><trkpt lat="44.47058565493676" lon="10.529058202922185"><ele>454.6</ele><time>2026-04-06T14:09:21.001Z</time></trkpt><trkpt lat="44.47056720432731" lon="10.529195378811533"><ele>454.4</ele><time>2026-04-06T14:09:22.001Z</time></trkpt><trkpt lat="44.4705596084634" lon="10.52934126401937"><ele>454.2</ele><time>2026-04-06T14:09:23.001Z</time></trkpt><trkpt lat="44.47055600504254" lon="10.529488227543116"><ele>454.0</ele><time>2026-04-06T14:09:24Z</time></trkpt><trkpt lat="44.47054538551287" lon="10.52964460717683"><ele>454.0</ele><time>2026-04-06T14:09:25Z</time></trkpt><trkpt lat="44.470548127593105" lon="10.529786564595948"><ele>454.0</ele><time>2026-04-06T14:09:26Z</time></trkpt><trkpt lat="44.47056409601882" lon="10.529928014827197"><ele>454.0</ele><time>2026-04-06T14:09:27Z</time></trkpt><trkpt lat="44.470592093548554" lon="10.530067755828554"><ele>454.0</ele><time>2026-04-06T14:09:28Z</time></trkpt><trkpt lat="44.47063833234557" lon="10.530201620176731"><ele>454.0</ele><time>2026-04-06T14:09:29Z</time></trkpt><trkpt lat="44.470705061537416" lon="10.530325065031565"><ele>453.6</ele><time>2026-04-06T14:09:30Z</time></trkpt><trkpt lat="44.47076317340935" lon="10.530426073975072"><ele>453.2</ele><time>2026-04-06T14:09:31Z</time></trkpt><trkpt lat="44.470820439727476" lon="10.530538228796344"><ele>452.80000000000007</ele><time>2026-04-06T14:09:32Z</time></trkpt><trkpt lat="44.470867531561375" lon="10.530649564259013"><ele>452.40000000000003</ele><time>2026-04-06T14:09:33Z</time></trkpt><trkpt lat="44.47090803175703" lon="10.530770618740553"><ele>452.0</ele><time>2026-04-06T14:09:34Z</time></trkpt><trkpt lat="44.470935786295044" lon="10.530899958628693"><ele>452.0</ele><time>2026-04-06T14:09:35Z</time></trkpt><trkpt lat="44.47094765569956" lon="10.531043289575132"><ele>452.00000000000006</ele><time>2026-04-06T14:09:36Z</time></trkpt><trkpt lat="44.47094700328191" lon="10.531179323026786"><ele>452.00000000000006</ele><time>2026-04-06T14:09:37Z</time></trkpt><trkpt lat="44.47093177644474" lon="10.53131508321518"><ele>452.0</ele><time>2026-04-06T14:09:38Z</time></trkpt><trkpt lat="44.47090195700667" lon="10.531449551353592"><ele>452.0</ele><time>2026-04-06T14:09:39Z</time></trkpt><trkpt lat="44.47085215326501" lon="10.531585038127899"><ele>452.0</ele><time>2026-04-06T14:09:40Z</time></trkpt><trkpt lat="44.470802818746954" lon="10.531719015045825"><ele>452.0</ele><time>2026-04-06T14:09:41Z</time></trkpt><trkpt lat="44.4707472245808" lon="10.531867468111777"><ele>452.0</ele><time>2026-04-06T14:09:42Z</time></trkpt><trkpt lat="44.470692511626886" lon="10.53200999861966"><ele>452.0</ele><time>2026-04-06T14:09:43Z</time></trkpt><trkpt lat="44.470637929761104" lon="10.532148407197516"><ele>452.0</ele><time>2026-04-06T14:09:44Z</time></trkpt><trkpt lat="44.47058804235861" lon="10.532287889828245"><ele>452.00000000000006</ele><time>2026-04-06T14:09:45Z</time></trkpt><trkpt lat="44.470541995590025" lon="10.53242216835941"><ele>452.00000000000006</ele><time>2026-04-06T14:09:46Z</time></trkpt><trkpt lat="44.47048981564006" lon="10.532556713975588"><ele>452.0</ele><time>2026-04-06T14:09:47Z</time></trkpt><trkpt lat="44.470439229672515" lon="10.532687791679939"><ele>452.0</ele><time>2026-04-06T14:09:48Z</time></trkpt><trkpt lat="44.470390825403534" lon="10.532813501548302"><ele>454.8</ele><time>2026-04-06T14:09:49Z</time></trkpt><trkpt lat="44.47035830082711" lon="10.532935017894626"><ele>457.6</ele><time>2026-04-06T14:09:50Z</time></trkpt><trkpt lat="44.47034363030304" lon="10.533067307114088"><ele>460.40000000000003</ele><time>2026-04-06T14:09:51Z</time></trkpt><trkpt lat="44.470343331501084" lon="10.533202482234099"><ele>463.20000000000005</ele><time>2026-04-06T14:09:52Z</time></trkpt><trkpt lat="44.470366294445526" lon="10.533347607057374"><ele>466.0</ele><time>2026-04-06T14:09:53Z</time></trkpt><trkpt lat="44.470400828666634" lon="10.533494235657795"><ele>462.8</ele><time>2026-04-06T14:09:54Z</time></trkpt><trkpt lat="44.470454684149246" lon="10.533632670788677"><ele>459.6</ele><time>2026-04-06T14:09:55Z</time></trkpt><trkpt lat="44.47050453016213" lon="10.533768126368683"><ele>456.4</ele><time>2026-04-06T14:09:56Z</time></trkpt><trkpt lat="44.47055023468065" lon="10.533882257652055"><ele>453.2</ele><time>2026-04-06T14:09:57Z</time></trkpt><trkpt lat="44.470596178991464" lon="10.534000016615103"><ele>450.0</ele><time>2026-04-06T14:09:58Z</time></trkpt><trkpt lat="44.47063213897" lon="10.534116640779509"><ele>449.8333333333333</ele><time>2026-04-06T14:09:59Z</time></trkpt><trkpt lat="44.47064351438324" lon="10.534236442502651"><ele>449.66666666666663</ele><time>2026-04-06T14:10:00Z</time></trkpt><trkpt lat="44.47063370416867" lon="10.534337570639998"><ele>449.5</ele><time>2026-04-06T14:10:01Z</time></trkpt><trkpt lat="44.47060525863876" lon="10.53448157389365"><ele>449.3333333333333</ele><time>2026-04-06T14:10:02Z</time></trkpt><trkpt lat="44.47055879644038" lon="10.534576740676181"><ele>449.16666666666663</ele><time>2026-04-06T14:10:03Z</time></trkpt><trkpt lat="44.47050447470865" lon="10.534673458525802"><ele>449.0</ele><time>2026-04-06T14:10:04Z</time></trkpt><trkpt lat="44.470459724685696" lon="10.534764941000494"><ele>448.99999999999994</ele><time>2026-04-06T14:10:05Z</time></trkpt><trkpt lat="44.47042363118922" lon="10.534855779837496"><ele>449.0</ele><time>2026-04-06T14:10:06Z</time></trkpt><trkpt lat="44.47041341364671" lon="10.534949483668683"><ele>449.0</ele><time>2026-04-06T14:10:07Z</time></trkpt><trkpt lat="44.47043400436099" lon="10.535073628722028"><ele>449.0</ele><time>2026-04-06T14:10:08Z</time></trkpt><trkpt lat="44.47046579484373" lon="10.53518837348088"><ele>448.99999999999994</ele><time>2026-04-06T14:10:09Z</time></trkpt><trkpt lat="44.47048627810786" lon="10.535314770961842"><ele>449.0</ele><time>2026-04-06T14:10:10Z</time></trkpt><trkpt lat="44.47052774461319" lon="10.535444938544762"><ele>449.0</ele><time>2026-04-06T14:10:11Z</time></trkpt><trkpt lat="44.470577425830896" lon="10.535551586207877"><ele>449.0</ele><time>2026-04-06T14:10:12Z</time></trkpt><trkpt lat="44.47064407280474" lon="10.535635977276506"><ele>449.0</ele><time>2026-04-06T14:10:13Z</time></trkpt><trkpt lat="44.47073369510843" lon="10.535690786989235"><ele>449.0</ele><time>2026-04-06T14:10:14Z</time></trkpt><trkpt lat="44.470844878968904" lon="10.535722104259008"><ele>449.0</ele><time>2026-04-06T14:10:15Z</time></trkpt><trkpt lat="44.47095122453833" lon="10.535754380897638"><ele>449.0</ele><time>2026-04-06T14:10:16Z</time></trkpt><trkpt lat="44.47106188083795" lon="10.535792829988191"><ele>449.0</ele><time>2026-04-06T14:10:17Z</time></trkpt><trkpt lat="44.47116793456442" lon="10.535840738351443"><ele>449.0</ele><time>2026-04-06T14:10:18Z</time></trkpt><trkpt lat="44.47127686781354" lon="10.535876145171036"><ele>449.0</ele><time>2026-04-06T14:10:19Z</time></trkpt><trkpt lat="44.47140521499657" lon="10.535914149253054"><ele>451.25</ele><time>2026-04-06T14:10:20Z</time></trkpt><trkpt lat="44.47154033589762" lon="10.535942444492479"><ele>453.5</ele><time>2026-04-06T14:10:21Z</time></trkpt><trkpt lat="44.47167277615404" lon="10.53600480513928"><ele>455.75</ele><time>2026-04-06T14:10:22Z</time></trkpt><trkpt lat="44.47179302216557" lon="10.536050850792629"><ele>458.0</ele><time>2026-04-06T14:10:23Z</time></trkpt><trkpt lat="44.47191604195846" lon="10.536101966585951"><ele>458.0</ele><time>2026-04-06T14:10:24Z</time></trkpt><trkpt lat="44.47203242696475" lon="10.536146995412835"><ele>458.0</ele><time>2026-04-06T14:10:25Z</time></trkpt><trkpt lat="44.472149962269704" lon="10.53619263786399"><ele>458.0</ele><time>2026-04-06T14:10:26Z</time></trkpt><trkpt lat="44.47226343792962" lon="10.536229696286606"><ele>458.0</ele><time>2026-04-06T14:10:27Z</time></trkpt><trkpt lat="44.47237175849158" lon="10.536248980749553"><ele>453.79999999999995</ele><time>2026-04-06T14:10:28Z</time></trkpt><trkpt lat="44.47244899094078" lon="10.536272062708761"><ele>449.59999999999997</ele><time>2026-04-06T14:10:29Z</time></trkpt><trkpt lat="44.47252789347064" lon="10.536302890216037"><ele>445.40000000000003</ele><time>2026-04-06T14:10:31Z</time></trkpt><trkpt lat="44.47259997888743" lon="10.536331239827325"><ele>441.20000000000005</ele><time>2026-04-06T14:10:33Z</time></trkpt><trkpt lat="44.47271524964834" lon="10.536367184439722"><ele>437.0</ele><time>2026-04-06T14:10:35Z</time></trkpt><trkpt lat="44.472805480673834" lon="10.536414071804515"><ele>437.0</ele><time>2026-04-06T14:10:36Z</time></trkpt><trkpt lat="44.47290214382018" lon="10.536496941906126"><ele>437.0</ele><time>2026-04-06T14:10:37Z</time></trkpt><trkpt lat="44.47300104645951" lon="10.536604985787234"><ele>437.0</ele><time>2026-04-06T14:10:38Z</time></trkpt><trkpt lat="44.473098341760014" lon="10.536749111977741"><ele>437.0</ele><time>2026-04-06T14:10:39Z</time></trkpt><trkpt lat="44.47320294727525" lon="10.536901132868952"><ele>438.25</ele><time>2026-04-06T14:10:40Z</time></trkpt><trkpt lat="44.473282744427976" lon="10.537083571277119"><ele>439.5</ele><time>2026-04-06T14:10:41Z</time></trkpt><trkpt lat="44.47331864360604" lon="10.537277417003214"><ele>440.75</ele><time>2026-04-06T14:10:42Z</time></trkpt><trkpt lat="44.473328513658" lon="10.537472173123605"><ele>442.0</ele><time>2026-04-06T14:10:43Z</time></trkpt><trkpt lat="44.47332283644147" lon="10.537674457060886"><ele>442.0</ele><time>2026-04-06T14:10:44Z</time></trkpt><trkpt lat="44.473321146302766" lon="10.537866019352478"><ele>442.0</ele><time>2026-04-06T14:10:45Z</time></trkpt><trkpt lat="44.47331088697759" lon="10.538047441429944"><ele>442.0</ele><time>2026-04-06T14:10:46Z</time></trkpt><trkpt lat="44.47332142220924" lon="10.538203034195208"><ele>442.0</ele><time>2026-04-06T14:10:47Z</time></trkpt><trkpt lat="44.47335791666884" lon="10.538346771448804"><ele>440.5</ele><time>2026-04-06T14:10:48Z</time></trkpt><trkpt lat="44.473436765185035" lon="10.538473467856463"><ele>439.0</ele><time>2026-04-06T14:10:49Z</time></trkpt><trkpt lat="44.4735368351162" lon="10.53856740396032"><ele>437.5</ele><time>2026-04-06T14:10:50Z</time></trkpt><trkpt lat="44.47366893833401" lon="10.538617843117796"><ele>436.0</ele><time>2026-04-06T14:10:51Z</time></trkpt><trkpt lat="44.47381930630205" lon="10.53861429705904"><ele>436.0</ele><time>2026-04-06T14:10:52Z</time></trkpt><trkpt lat="44.473981959694996" lon="10.53857127055416"><ele>436.0</ele><time>2026-04-06T14:10:53Z</time></trkpt><trkpt lat="44.47413922052361" lon="10.538530746704035"><ele>436.0</ele><time>2026-04-06T14:10:54Z</time></trkpt><trkpt lat="44.47429048869035" lon="10.53850087908771"><ele>436.0</ele><time>2026-04-06T14:10:55Z</time></trkpt><trkpt lat="44.47443121351886" lon="10.538484104800917"><ele>436.0</ele><time>2026-04-06T14:10:56Z</time></trkpt><trkpt lat="44.4745693554372" lon="10.538467802584114"><ele>436.0</ele><time>2026-04-06T14:10:57Z</time></trkpt><trkpt lat="44.47470312600945" lon="10.538449369832668"><ele>436.0</ele><time>2026-04-06T14:10:58Z</time></trkpt><trkpt lat="44.47483345359632" lon="10.53844967045875"><ele>436.25</ele><time>2026-04-06T14:10:59Z</time></trkpt><trkpt lat="44.47495964067723" lon="10.538464708336798"><ele>436.5</ele><time>2026-04-06T14:11:00Z</time></trkpt><trkpt lat="44.475084085646316" lon="10.538492837845645"><ele>436.75</ele><time>2026-04-06T14:11:01Z</time></trkpt><trkpt lat="44.4752191144909" lon="10.538527971146511"><ele>437.0</ele><time>2026-04-06T14:11:02Z</time></trkpt><trkpt lat="44.47535157122066" lon="10.538577314047192"><ele>439.0</ele><time>2026-04-06T14:11:03Z</time></trkpt><trkpt lat="44.475479018899485" lon="10.538619349772887"><ele>441.0</ele><time>2026-04-06T14:11:04Z</time></trkpt><trkpt lat="44.47560881413133" lon="10.538658476556172"><ele>443.0</ele><time>2026-04-06T14:11:05Z</time></trkpt><trkpt lat="44.47574795843573" lon="10.538698430808566"><ele>445.0</ele><time>2026-04-06T14:11:06Z</time></trkpt><trkpt lat="44.475884789947585" lon="10.53874016895857"><ele>440.5</ele><time>2026-04-06T14:11:07Z</time></trkpt><trkpt lat="44.47603102633446" lon="10.538786319975577"><ele>436.0</ele><time>2026-04-06T14:11:08Z</time></trkpt><trkpt lat="44.476175462327674" lon="10.538831755138814"><ele>431.5</ele><time>2026-04-06T14:11:09Z</time></trkpt><trkpt lat="44.476299445976814" lon="10.538875489844024"><ele>427.0</ele><time>2026-04-06T14:11:10Z</time></trkpt><trkpt lat="44.4764330998175" lon="10.538939013803725"><ele>426.0</ele><time>2026-04-06T14:11:11Z</time></trkpt><trkpt lat="44.476552543043475" lon="10.539036385006785"><ele>425.0</ele><time>2026-04-06T14:11:12Z</time></trkpt><trkpt lat="44.47666817576667" lon="10.539162769606103"><ele>424.0</ele><time>2026-04-06T14:11:13Z</time></trkpt><trkpt lat="44.47677017345227" lon="10.539302190135382"><ele>423.0</ele><time>2026-04-06T14:11:14Z</time></trkpt><trkpt lat="44.4768590790757" lon="10.53945553833101"><ele>423.25</ele><time>2026-04-06T14:11:15Z</time></trkpt><trkpt lat="44.47693744622202" lon="10.539598707025718"><ele>423.5</ele><time>2026-04-06T14:11:16Z</time></trkpt><trkpt lat="44.476991626992834" lon="10.539765104431126"><ele>423.75</ele><time>2026-04-06T14:11:17Z</time></trkpt><trkpt lat="44.47700230403061" lon="10.539971704711844"><ele>424.0</ele><time>2026-04-06T14:11:18Z</time></trkpt><trkpt lat="44.47701221404554" lon="10.540217701045606"><ele>425.6666666666667</ele><time>2026-04-06T14:11:19Z</time></trkpt><trkpt lat="44.47702747253029" lon="10.540418014152806"><ele>427.33333333333337</ele><time>2026-04-06T14:11:20Z</time></trkpt><trkpt lat="44.4770982482877" lon="10.54061822094741"><ele>429.0</ele><time>2026-04-06T14:11:21Z</time></trkpt><trkpt lat="44.47717053977443" lon="10.540798298663065"><ele>424.75</ele><time>2026-04-06T14:11:22Z</time></trkpt><trkpt lat="44.477250168221424" lon="10.540943809655992"><ele>420.5</ele><time>2026-04-06T14:11:23Z</time></trkpt><trkpt lat="44.477320098000725" lon="10.541110466810077"><ele>416.25</ele><time>2026-04-06T14:11:24Z</time></trkpt><trkpt lat="44.47737610270293" lon="10.541247280717602"><ele>412.0</ele><time>2026-04-06T14:11:25Z</time></trkpt><trkpt lat="44.47742657344403" lon="10.541366735328053"><ele>410.20000000000005</ele><time>2026-04-06T14:11:26Z</time></trkpt><trkpt lat="44.477482970392145" lon="10.54145895473821"><ele>408.4</ele><time>2026-04-06T14:11:27Z</time></trkpt><trkpt lat="44.47751745354768" lon="10.541573333872075"><ele>406.6</ele><time>2026-04-06T14:11:29Z</time></trkpt><trkpt lat="44.47767027107043" lon="10.541463942339194"><ele>404.79999999999995</ele><time>2026-04-06T14:11:30Z</time></trkpt><trkpt lat="44.477760652898056" lon="10.541428206194446"><ele>403.0</ele><time>2026-04-06T14:11:31Z</time></trkpt><trkpt lat="44.477859713648975" lon="10.541388653485587"><ele>404.5714285714286</ele><time>2026-04-06T14:11:32Z</time></trkpt><trkpt lat="44.477939097467036" lon="10.541333325463027"><ele>406.1428571428571</ele><time>2026-04-06T14:11:33Z</time></trkpt><trkpt lat="44.47799033824121" lon="10.541267562981476"><ele>407.7142857142857</ele><time>2026-04-06T14:11:34Z</time></trkpt><trkpt lat="44.478032772449126" lon="10.54117117277902"><ele>409.28571428571433</ele><time>2026-04-06T14:11:35Z</time></trkpt><trkpt lat="44.478088497669994" lon="10.541101389697735"><ele>410.8571428571429</ele><time>2026-04-06T14:11:37Z</time></trkpt><trkpt lat="44.47815155187254" lon="10.54110294871866"><ele>412.42857142857144</ele><time>2026-04-06T14:13:55Z</time></trkpt><trkpt lat="44.47811339954961" lon="10.541027504929513"><ele>414.0</ele><time>2026-04-06T14:15:31.999Z</time></trkpt><trkpt lat="44.47812906205354" lon="10.541131038648754"><ele>414.0</ele><time>2026-04-06T14:16:23Z</time></trkpt><trkpt lat="44.47816480758679" lon="10.541046135295211"><ele>414.0</ele><time>2026-04-06T14:16:39Z</time></trkpt><trkpt lat="44.47820695969369" lon="10.541149951932274"><ele>414.0</ele><time>2026-04-06T14:20:10Z</time></trkpt><trkpt lat="44.47826232187189" lon="10.541278505613647"><ele>414.0</ele><time>2026-04-06T14:20:12Z</time></trkpt><trkpt lat="44.47828217131535" lon="10.541365247063036"><ele>414.0</ele><time>2026-04-06T14:20:13Z</time></trkpt><trkpt lat="44.47828358680149" lon="10.541468225489133"><ele>414.0</ele><time>2026-04-06T14:20:14Z</time></trkpt><trkpt lat="44.47823629574383" lon="10.541586802419438"><ele>414.0</ele><time>2026-04-06T14:20:15Z</time></trkpt><trkpt lat="44.47814945267772" lon="10.54167978308678"><ele>414.0</ele><time>2026-04-06T14:20:16Z</time></trkpt><trkpt lat="44.478094925156476" lon="10.541787913763896"><ele>414.0</ele><time>2026-04-06T14:20:17Z</time></trkpt><trkpt lat="44.478066211525544" lon="10.541893473768058"><ele>414.0</ele><time>2026-04-06T14:20:18Z</time></trkpt><trkpt lat="44.47806893999572" lon="10.54201383722825"><ele>414.0</ele><time>2026-04-06T14:20:19Z</time></trkpt><trkpt lat="44.47810644310563" lon="10.542150896275482"><ele>414.25</ele><time>2026-04-06T14:20:20Z</time></trkpt><trkpt lat="44.478173657804774" lon="10.542276079249369"><ele>414.5</ele><time>2026-04-06T14:20:21Z</time></trkpt><trkpt lat="44.4782692461517" lon="10.542381406544491"><ele>414.75</ele><time>2026-04-06T14:20:22Z</time></trkpt><trkpt lat="44.47839195702779" lon="10.54247770735115"><ele>415.0</ele><time>2026-04-06T14:20:23Z</time></trkpt><trkpt lat="44.47850155127913" lon="10.542564675332445"><ele>415.0</ele><time>2026-04-06T14:20:24Z</time></trkpt><trkpt lat="44.47858329309848" lon="10.542640047549824"><ele>415.0</ele><time>2026-04-06T14:20:25Z</time></trkpt><trkpt lat="44.47864791507717" lon="10.542746259657827"><ele>415.0</ele><time>2026-04-06T14:20:26Z</time></trkpt><trkpt lat="44.478651920014244" lon="10.542889155424778"><ele>415.0</ele><time>2026-04-06T14:20:27Z</time></trkpt><trkpt lat="44.478634680520315" lon="10.543025064850356"><ele>415.0</ele><time>2026-04-06T14:20:28Z</time></trkpt><trkpt lat="44.4786303999303" lon="10.543189424828276"><ele>414.0</ele><time>2026-04-06T14:20:29Z</time></trkpt><trkpt lat="44.47865124186612" lon="10.543338860752392"><ele>413.0</ele><time>2026-04-06T14:20:30Z</time></trkpt><trkpt lat="44.478670027099646" lon="10.543469929709236"><ele>412.0</ele><time>2026-04-06T14:20:31Z</time></trkpt><trkpt lat="44.47872893164385" lon="10.543598285968635"><ele>411.0</ele><time>2026-04-06T14:20:32Z</time></trkpt><trkpt lat="44.47880727077148" lon="10.543695198659602"><ele>410.0</ele><time>2026-04-06T14:20:33Z</time></trkpt><trkpt lat="44.47890173023292" lon="10.543798785668033"><ele>416.0</ele><time>2026-04-06T14:20:34Z</time></trkpt><trkpt lat="44.47898743659606" lon="10.543893551876986"><ele>422.0</ele><time>2026-04-06T14:20:35Z</time></trkpt><trkpt lat="44.47913682248172" lon="10.54405149624279"><ele>428.0</ele><time>2026-04-06T14:20:36Z</time></trkpt><trkpt lat="44.47928941184439" lon="10.54423241391532"><ele>428.0</ele><time>2026-04-06T14:20:37Z</time></trkpt><trkpt lat="44.47946234339508" lon="10.544427438611224"><ele>428.0</ele><time>2026-04-06T14:20:38Z</time></trkpt><trkpt lat="44.479622045883744" lon="10.544591537484658"><ele>428.0</ele><time>2026-04-06T14:20:39Z</time></trkpt><trkpt lat="44.47975977224749" lon="10.544743230854895"><ele>429.25</ele><time>2026-04-06T14:20:40Z</time></trkpt><trkpt lat="44.47985711149777" lon="10.544914943923605"><ele>430.5</ele><time>2026-04-06T14:20:41Z</time></trkpt><trkpt lat="44.47995317124104" lon="10.545067901669027"><ele>431.75</ele><time>2026-04-06T14:20:42Z</time></trkpt><trkpt lat="44.48003859129113" lon="10.545189857051962"><ele>433.0</ele><time>2026-04-06T14:20:43Z</time></trkpt><trkpt lat="44.48012476628006" lon="10.545311856114324"><ele>433.0</ele><time>2026-04-06T14:20:44Z</time></trkpt><trkpt lat="44.48021266150128" lon="10.545393067456978"><ele>433.0</ele><time>2026-04-06T14:20:45Z</time></trkpt><trkpt lat="44.48029083894608" lon="10.545404519383352"><ele>433.0</ele><time>2026-04-06T14:20:46Z</time></trkpt><trkpt lat="44.480377540931975" lon="10.545399125452747"><ele>433.0</ele><time>2026-04-06T14:20:48Z</time></trkpt><trkpt lat="44.480300865987495" lon="10.545163699155106"><ele>432.99999999999994</ele><time>2026-04-06T14:20:51Z</time></trkpt><trkpt lat="44.480246768157286" lon="10.545108880479978"><ele>433.0</ele><time>2026-04-06T14:20:52Z</time></trkpt><trkpt lat="44.48019778564688" lon="10.545042380373081"><ele>433.0</ele><time>2026-04-06T14:20:53Z</time></trkpt><trkpt lat="44.480156248548596" lon="10.544973383909728"><ele>433.0</ele><time>2026-04-06T14:20:54Z</time></trkpt><trkpt lat="44.48011931513564" lon="10.544889167310322"><ele>433.0</ele><time>2026-04-06T14:20:55Z</time></trkpt><trkpt lat="44.48006490083466" lon="10.544821741784823"><ele>432.99999999999994</ele><time>2026-04-06T14:20:56Z</time></trkpt><trkpt lat="44.48001535613302" lon="10.544745240308568"><ele>433.0</ele><time>2026-04-06T14:20:57Z</time></trkpt><trkpt lat="44.47998506493403" lon="10.544654097528444"><ele>433.00000000000006</ele><time>2026-04-06T14:20:58Z</time></trkpt><trkpt lat="44.47993394299631" lon="10.544584781396997"><ele>433.0</ele><time>2026-04-06T14:20:59Z</time></trkpt><trkpt lat="44.47991193959049" lon="10.544496728819892"><ele>433.0</ele><time>2026-04-06T14:21:00Z</time></trkpt><trkpt lat="44.47985791306954" lon="10.544360279655141"><ele>433.0</ele><time>2026-04-06T14:21:02Z</time></trkpt><trkpt lat="44.4798941212386" lon="10.544230662068717"><ele>433.00000000000006</ele><time>2026-04-06T14:21:04Z</time></trkpt><trkpt lat="44.479815642435156" lon="10.544270794480028"><ele>433.0</ele><time>2026-04-06T14:21:15Z</time></trkpt><trkpt lat="44.47975487812668" lon="10.544175398742391"><ele>432.2857142857143</ele><time>2026-04-06T14:21:17Z</time></trkpt><trkpt lat="44.47972425247426" lon="10.544096661811471"><ele>431.57142857142856</ele><time>2026-04-06T14:21:18Z</time></trkpt><trkpt lat="44.47968210632267" lon="10.54402500425992"><ele>430.8571428571429</ele><time>2026-04-06T14:21:19Z</time></trkpt><trkpt lat="44.47963401199321" lon="10.543951795108079"><ele>430.1428571428571</ele><time>2026-04-06T14:21:20Z</time></trkpt><trkpt lat="44.479593615814885" lon="10.543879713553917"><ele>429.42857142857144</ele><time>2026-04-06T14:21:21Z</time></trkpt><trkpt lat="44.479543472767446" lon="10.543807210859805"><ele>428.7142857142857</ele><time>2026-04-06T14:21:22Z</time></trkpt><trkpt lat="44.47949773999453" lon="10.543745095646656"><ele>428.0</ele><time>2026-04-06T14:21:23Z</time></trkpt><trkpt lat="44.479405104548654" lon="10.543624835664756"><ele>431.75</ele><time>2026-04-06T14:21:25Z</time></trkpt><trkpt lat="44.47929960040097" lon="10.54357620795954"><ele>435.5</ele><time>2026-04-06T14:21:26Z</time></trkpt><trkpt lat="44.479231142132605" lon="10.5434424309954"><ele>439.25</ele><time>2026-04-06T14:21:26.999Z</time></trkpt><trkpt lat="44.479184477532144" lon="10.543258797397002"><ele>443.0</ele><time>2026-04-06T14:21:27.999Z</time></trkpt><trkpt lat="44.47916933966094" lon="10.54313716559619"><ele>443.0</ele><time>2026-04-06T14:21:28.999Z</time></trkpt><trkpt lat="44.479153464178246" lon="10.543009605388391"><ele>443.0</ele><time>2026-04-06T14:21:29.999Z</time></trkpt><trkpt lat="44.479137712862894" lon="10.542883041520868"><ele>443.0</ele><time>2026-04-06T14:21:30.999Z</time></trkpt><trkpt lat="44.47912094245163" lon="10.542748289025496"><ele>443.0</ele><time>2026-04-06T14:21:31.999Z</time></trkpt><trkpt lat="44.47943080456479" lon="10.542559425174563"><ele>443.99999999999994</ele><time>2026-04-06T14:21:32.999Z</time></trkpt><trkpt lat="44.47946429305328" lon="10.542465517268246"><ele>445.0</ele><time>2026-04-06T14:21:33.999Z</time></trkpt><trkpt lat="44.47951267686313" lon="10.542404088741394"><ele>446.0</ele><time>2026-04-06T14:21:34.999Z</time></trkpt><trkpt lat="44.47958523936221" lon="10.542388960725779"><ele>447.0</ele><time>2026-04-06T14:21:36.999Z</time></trkpt><trkpt lat="44.479718145577806" lon="10.542337702823744"><ele>447.99999999999994</ele><time>2026-04-06T14:21:38.999Z</time></trkpt><trkpt lat="44.47980420882855" lon="10.54230227233563"><ele>449.0</ele><time>2026-04-06T14:21:39.999Z</time></trkpt><trkpt lat="44.479947815733134" lon="10.542257724870892"><ele>453.6</ele><time>2026-04-06T14:21:40.999Z</time></trkpt><trkpt lat="44.480103527529195" lon="10.542202934010511"><ele>458.2</ele><time>2026-04-06T14:21:41.999Z</time></trkpt><trkpt lat="44.48020379826822" lon="10.542169209113407"><ele>462.80000000000007</ele><time>2026-04-06T14:21:42.999Z</time></trkpt><trkpt lat="44.480274528071945" lon="10.542122096338503"><ele>467.40000000000003</ele><time>2026-04-06T14:21:43.999Z</time></trkpt><trkpt lat="44.4803271192891" lon="10.542032150047913"><ele>472.0</ele><time>2026-04-06T14:21:44.999Z</time></trkpt><trkpt lat="44.48036299235034" lon="10.541942475831348"><ele>478.0</ele><time>2026-04-06T14:21:45.999Z</time></trkpt><trkpt lat="44.48045204692854" lon="10.541848585859938"><ele>484.00000000000006</ele><time>2026-04-06T14:21:46.999Z</time></trkpt><trkpt lat="44.48055352148882" lon="10.541741220430012"><ele>490.00000000000006</ele><time>2026-04-06T14:21:47.999Z</time></trkpt><trkpt lat="44.48059574828686" lon="10.541650659386335"><ele>496.0</ele><time>2026-04-06T14:21:48.999Z</time></trkpt><trkpt lat="44.48061938289065" lon="10.541507065268917"><ele>502.0</ele><time>2026-04-06T14:21:49.999Z</time></trkpt><trkpt lat="44.48064111426806" lon="10.541404046244025"><ele>502.0</ele><time>2026-04-06T14:21:50.999Z</time></trkpt><trkpt lat="44.48067303161536" lon="10.541305015809986"><ele>502.00000000000006</ele><time>2026-04-06T14:21:51.999Z</time></trkpt><trkpt lat="44.48079671809396" lon="10.54134757418307"><ele>502.00000000000006</ele><time>2026-04-06T14:21:53.999Z</time></trkpt><trkpt lat="44.480870392202505" lon="10.541349186352807"><ele>502.0</ele><time>2026-04-06T14:21:54.999Z</time></trkpt><trkpt lat="44.48097342996065" lon="10.541271010294036"><ele>502.0</ele><time>2026-04-06T14:21:57Z</time></trkpt><trkpt lat="44.48096541558507" lon="10.541171618968844"><ele>498.00000000000006</ele><time>2026-04-06T14:21:58Z</time></trkpt><trkpt lat="44.48093557991081" lon="10.541093828819433"><ele>494.0</ele><time>2026-04-06T14:21:59Z</time></trkpt><trkpt lat="44.48092961738888" lon="10.540928595990287"><ele>490.0</ele><time>2026-04-06T14:22:00Z</time></trkpt><trkpt lat="44.48096366457705" lon="10.540816746192053"><ele>486.0</ele><time>2026-04-06T14:22:01Z</time></trkpt><trkpt lat="44.481018920864805" lon="10.540723912180624"><ele>482.00000000000006</ele><time>2026-04-06T14:22:02Z</time></trkpt><trkpt lat="44.481099827159866" lon="10.540676174894985"><ele>478.0</ele><time>2026-04-06T14:22:03Z</time></trkpt><trkpt lat="44.48120506757506" lon="10.540705309923894"><ele>482.2</ele><time>2026-04-06T14:22:04Z</time></trkpt><trkpt lat="44.48129182660451" lon="10.540721196121227"><ele>486.4</ele><time>2026-04-06T14:22:05Z</time></trkpt><trkpt lat="44.481371822993054" lon="10.540712052910116"><ele>490.59999999999997</ele><time>2026-04-06T14:22:06Z</time></trkpt><trkpt lat="44.48142475378636" lon="10.540760694973585"><ele>494.79999999999995</ele><time>2026-04-06T14:22:07Z</time></trkpt><trkpt lat="44.48155649914027" lon="10.540651317485647"><ele>499.0</ele><time>2026-04-06T14:22:09Z</time></trkpt><trkpt lat="44.48161841700456" lon="10.540590035695665"><ele>499.00000000000006</ele><time>2026-04-06T14:22:10Z</time></trkpt><trkpt lat="44.481704091846815" lon="10.540630162412345"><ele>499.0</ele><time>2026-04-06T14:22:11Z</time></trkpt><trkpt lat="44.48178361103387" lon="10.540665142422815"><ele>499.0</ele><time>2026-04-06T14:22:12Z</time></trkpt><trkpt lat="44.48186259964506" lon="10.540705730148357"><ele>499.0</ele><time>2026-04-06T14:22:13Z</time></trkpt><trkpt lat="44.48193554879615" lon="10.540747225980159"><ele>499.00000000000006</ele><time>2026-04-06T14:22:14Z</time></trkpt><trkpt lat="44.48201388167305" lon="10.540813850709961"><ele>499.0</ele><time>2026-04-06T14:22:15Z</time></trkpt><trkpt lat="44.48211634971925" lon="10.540807961540526"><ele>499.0</ele><time>2026-04-06T14:22:17Z</time></trkpt><trkpt lat="44.482114367103875" lon="10.540634830017845"><ele>499.0</ele><time>2026-04-06T14:22:19Z</time></trkpt><trkpt lat="44.482045840461744" lon="10.54056028467072"><ele>499.0</ele><time>2026-04-06T14:22:20Z</time></trkpt><trkpt lat="44.48199240305592" lon="10.540431590644541"><ele>499.0</ele><time>2026-04-06T14:22:21Z</time></trkpt><trkpt lat="44.48195808965206" lon="10.540290406969017"><ele>499.0</ele><time>2026-04-06T14:22:22Z</time></trkpt><trkpt lat="44.48192138463215" lon="10.540167348779168"><ele>501.50000000000006</ele><time>2026-04-06T14:22:23Z</time></trkpt><trkpt lat="44.48197720816655" lon="10.540047490052226"><ele>504.0</ele><time>2026-04-06T14:22:25Z</time></trkpt><trkpt lat="44.48205329807" lon="10.540020828507444"><ele>506.5</ele><time>2026-04-06T14:22:26Z</time></trkpt><trkpt lat="44.48215286914419" lon="10.540004922571498"><ele>509.0</ele><time>2026-04-06T14:22:28Z</time></trkpt><trkpt lat="44.48222316381707" lon="10.539998704633163"><ele>511.50000000000006</ele><time>2026-04-06T14:22:30Z</time></trkpt><trkpt lat="44.4823016451363" lon="10.540050933737497"><ele>514.0</ele><time>2026-04-06T14:22:33Z</time></trkpt><trkpt lat="44.48237554935528" lon="10.540080737976442"><ele>514.0</ele><time>2026-04-06T14:22:36Z</time></trkpt><trkpt lat="44.48244549381553" lon="10.540008974702065"><ele>514.0</ele><time>2026-04-06T14:22:39Z</time></trkpt><trkpt lat="44.48242584804799" lon="10.539913582920168"><ele>514.0</ele><time>2026-04-06T14:22:42Z</time></trkpt><trkpt lat="44.482422172147544" lon="10.539802193365228"><ele>514.0</ele><time>2026-04-06T14:22:44Z</time></trkpt><trkpt lat="44.48256662796769" lon="10.539692472239107"><ele>514.0</ele><time>2026-04-06T14:22:46Z</time></trkpt><trkpt lat="44.48263239760075" lon="10.539650482809012"><ele>514.0</ele><time>2026-04-06T14:22:47Z</time></trkpt><trkpt lat="44.482691571681016" lon="10.539580238179054"><ele>514.0</ele><time>2026-04-06T14:22:48Z</time></trkpt><trkpt lat="44.48274606540363" lon="10.539506479232202"><ele>514.0</ele><time>2026-04-06T14:22:49Z</time></trkpt><trkpt lat="44.48282158989558" lon="10.539474031679136"><ele>514.0</ele><time>2026-04-06T14:22:51Z</time></trkpt><trkpt lat="44.482834057492965" lon="10.53936151405537"><ele>514.0</ele><time>2026-04-06T14:22:53Z</time></trkpt><trkpt lat="44.48283357616922" lon="10.53924586794627"><ele>514.0</ele><time>2026-04-06T14:22:54Z</time></trkpt><trkpt lat="44.482895260862264" lon="10.539097438313055"><ele>519.5</ele><time>2026-04-06T14:22:56Z</time></trkpt><trkpt lat="44.48296721231088" lon="10.539150012320848"><ele>525.0</ele><time>2026-04-06T14:23:02Z</time></trkpt><trkpt lat="44.48303243240349" lon="10.53911683430127"><ele>530.5</ele><time>2026-04-06T14:23:04Z</time></trkpt><trkpt lat="44.48305871348203" lon="10.539023765828865"><ele>536.0</ele><time>2026-04-06T14:23:06Z</time></trkpt><trkpt lat="44.48313903591162" lon="10.539067893964363"><ele>541.5</ele><time>2026-04-06T14:23:08Z</time></trkpt><trkpt lat="44.48321204147477" lon="10.539021885254634"><ele>547.0</ele><time>2026-04-06T14:23:09Z</time></trkpt><trkpt lat="44.483295505207636" lon="10.53892271425482"><ele>547.0</ele><time>2026-04-06T14:23:10Z</time></trkpt><trkpt lat="44.483377880152716" lon="10.538803873896457"><ele>547.0</ele><time>2026-04-06T14:23:11Z</time></trkpt><trkpt lat="44.48343417495322" lon="10.538679624343436"><ele>547.0</ele><time>2026-04-06T14:23:12Z</time></trkpt><trkpt lat="44.4835126232604" lon="10.538570561482704"><ele>547.0</ele><time>2026-04-06T14:23:13Z</time></trkpt><trkpt lat="44.48357744461893" lon="10.538497055494108"><ele>547.0</ele><time>2026-04-06T14:23:14Z</time></trkpt><trkpt lat="44.48365017986185" lon="10.53843375531372"><ele>545.8000000000001</ele><time>2026-04-06T14:23:15Z</time></trkpt><trkpt lat="44.48371992862775" lon="10.538373243671074"><ele>544.6</ele><time>2026-04-06T14:23:16Z</time></trkpt><trkpt lat="44.48380340881698" lon="10.538328523142837"><ele>543.4000000000001</ele><time>2026-04-06T14:23:18Z</time></trkpt><trkpt lat="44.48384176663723" lon="10.538247911666998"><ele>542.2</ele><time>2026-04-06T14:23:19Z</time></trkpt><trkpt lat="44.48394773653753" lon="10.538184304155516"><ele>541.0</ele><time>2026-04-06T14:23:21Z</time></trkpt><trkpt lat="44.48407606090662" lon="10.53814249472388"><ele>544.8</ele><time>2026-04-06T14:23:23Z</time></trkpt><trkpt lat="44.48413809864232" lon="10.538071668437265"><ele>548.6</ele><time>2026-04-06T14:23:24Z</time></trkpt><trkpt lat="44.48421119380945" lon="10.537987910982489"><ele>552.4</ele><time>2026-04-06T14:23:25Z</time></trkpt><trkpt lat="44.48427258732128" lon="10.537873790049762"><ele>556.2</ele><time>2026-04-06T14:23:26Z</time></trkpt><trkpt lat="44.48433269243255" lon="10.537745082972963"><ele>560.0</ele><time>2026-04-06T14:23:27Z</time></trkpt><trkpt lat="44.4843935953757" lon="10.537634691903929"><ele>560.0</ele><time>2026-04-06T14:23:27.999Z</time></trkpt><trkpt lat="44.484449211871045" lon="10.537519985140419"><ele>560.0</ele><time>2026-04-06T14:23:28.999Z</time></trkpt><trkpt lat="44.484503643177426" lon="10.5374033413446"><ele>560.0</ele><time>2026-04-06T14:23:29.999Z</time></trkpt><trkpt lat="44.48452652158657" lon="10.537295890099891"><ele>560.0</ele><time>2026-04-06T14:23:30.999Z</time></trkpt><trkpt lat="44.48452451012632" lon="10.537163698253574"><ele>560.0</ele><time>2026-04-06T14:23:31.999Z</time></trkpt><trkpt lat="44.4845236318469" lon="10.537024153100761"><ele>558.5</ele><time>2026-04-06T14:23:32.999Z</time></trkpt><trkpt lat="44.48451380298989" lon="10.536893654628928"><ele>557.0</ele><time>2026-04-06T14:23:33.999Z</time></trkpt><trkpt lat="44.48454970084223" lon="10.536728768452694"><ele>555.5</ele><time>2026-04-06T14:23:34.999Z</time></trkpt><trkpt lat="44.48457745871985" lon="10.536573872276481"><ele>554.0</ele><time>2026-04-06T14:23:35.999Z</time></trkpt><trkpt lat="44.48461592423292" lon="10.536367274326558"><ele>560.25</ele><time>2026-04-06T14:23:36.999Z</time></trkpt><trkpt lat="44.48465100523459" lon="10.536210001082559"><ele>566.5</ele><time>2026-04-06T14:23:37.999Z</time></trkpt><trkpt lat="44.48470102885976" lon="10.53609450048904"><ele>572.75</ele><time>2026-04-06T14:23:38.999Z</time></trkpt><trkpt lat="44.484765831245696" lon="10.535929691928828"><ele>579.0</ele><time>2026-04-06T14:23:39.999Z</time></trkpt><trkpt lat="44.48481213140427" lon="10.53578366276884"><ele>579.0</ele><time>2026-04-06T14:23:40.999Z</time></trkpt><trkpt lat="44.48484864505933" lon="10.535591758980377"><ele>579.0</ele><time>2026-04-06T14:23:41.999Z</time></trkpt><trkpt lat="44.48487641213257" lon="10.53538438235951"><ele>579.0</ele><time>2026-04-06T14:23:42.999Z</time></trkpt><trkpt lat="44.48490760749739" lon="10.535171946675032"><ele>579.0</ele><time>2026-04-06T14:23:43.999Z</time></trkpt><trkpt lat="44.484949382002746" lon="10.534974687581666"><ele>578.0</ele><time>2026-04-06T14:23:44.999Z</time></trkpt><trkpt lat="44.48498054311442" lon="10.534787616347264"><ele>577.0</ele><time>2026-04-06T14:23:45.999Z</time></trkpt><trkpt lat="44.48501412911214" lon="10.534606066125876"><ele>576.0</ele><time>2026-04-06T14:23:46.999Z</time></trkpt><trkpt lat="44.48504399104256" lon="10.534450122805575"><ele>575.0</ele><time>2026-04-06T14:23:47.999Z</time></trkpt><trkpt lat="44.48507928735413" lon="10.534315359343545"><ele>574.4</ele><time>2026-04-06T14:23:48.999Z</time></trkpt><trkpt lat="44.48512006553024" lon="10.534197098018922"><ele>573.8</ele><time>2026-04-06T14:23:49.999Z</time></trkpt><trkpt lat="44.4851852447656" lon="10.534085598610844"><ele>573.2</ele><time>2026-04-06T14:23:50.999Z</time></trkpt><trkpt lat="44.48526914483456" lon="10.533974160011901"><ele>572.6</ele><time>2026-04-06T14:23:51.999Z</time></trkpt><trkpt lat="44.48533584189625" lon="10.533858711506127"><ele>572.0</ele><time>2026-04-06T14:23:52.999Z</time></trkpt><trkpt lat="44.485390158532944" lon="10.53372342956139"><ele>579.25</ele><time>2026-04-06T14:23:53.999Z</time></trkpt><trkpt lat="44.48543771459205" lon="10.5335668440359"><ele>586.5</ele><time>2026-04-06T14:23:54.999Z</time></trkpt><trkpt lat="44.48548557832079" lon="10.533409021307778"><ele>593.75</ele><time>2026-04-06T14:23:55.999Z</time></trkpt><trkpt lat="44.48553238210246" lon="10.533260298916806"><ele>601.0</ele><time>2026-04-06T14:23:56.999Z</time></trkpt><trkpt lat="44.48557556465278" lon="10.533127105119345"><ele>601.0</ele><time>2026-04-06T14:23:57.999Z</time></trkpt><trkpt lat="44.485606733876935" lon="10.532997484419443"><ele>601.0</ele><time>2026-04-06T14:23:58.999Z</time></trkpt><trkpt lat="44.48563310981901" lon="10.532884945618383"><ele>601.0</ele><time>2026-04-06T14:23:59.999Z</time></trkpt><trkpt lat="44.485661305819384" lon="10.532797286635127"><ele>601.0</ele><time>2026-04-06T14:24:00.999Z</time></trkpt><trkpt lat="44.48570465272663" lon="10.532731405706734"><ele>601.0</ele><time>2026-04-06T14:24:01.999Z</time></trkpt><trkpt lat="44.485828510785055" lon="10.532756349062568"><ele>601.0</ele><time>2026-04-06T14:24:03.999Z</time></trkpt><trkpt lat="44.48590447041491" lon="10.532756239221321"><ele>601.6</ele><time>2026-04-06T14:24:04.999Z</time></trkpt><trkpt lat="44.48600933831158" lon="10.532700105117078"><ele>602.2</ele><time>2026-04-06T14:24:05.999Z</time></trkpt><trkpt lat="44.486058209717434" lon="10.532590604484927"><ele>602.8</ele><time>2026-04-06T14:24:06.999Z</time></trkpt><trkpt lat="44.486070639065126" lon="10.532482431000098"><ele>603.4</ele><time>2026-04-06T14:24:07.999Z</time></trkpt><trkpt lat="44.48603895750586" lon="10.532328665838074"><ele>604.0</ele><time>2026-04-06T14:24:08.999Z</time></trkpt><trkpt lat="44.486025054664054" lon="10.532220898744077"><ele>604.0</ele><time>2026-04-06T14:24:09.999Z</time></trkpt><trkpt lat="44.486046018062986" lon="10.532067707064337"><ele>604.0</ele><time>2026-04-06T14:24:11.999Z</time></trkpt><trkpt lat="44.48611175753809" lon="10.532015420795792"><ele>604.0</ele><time>2026-04-06T14:24:12.999Z</time></trkpt><trkpt lat="44.486185901136636" lon="10.532000901247619"><ele>604.0</ele><time>2026-04-06T14:24:13.999Z</time></trkpt><trkpt lat="44.486269707866846" lon="10.53200456158588"><ele>604.0</ele><time>2026-04-06T14:24:14.999Z</time></trkpt><trkpt lat="44.486357295901385" lon="10.532014607393887"><ele>604.0</ele><time>2026-04-06T14:24:15.999Z</time></trkpt><trkpt lat="44.48645955033898" lon="10.531989216561437"><ele>603.25</ele><time>2026-04-06T14:24:16.999Z</time></trkpt><trkpt lat="44.48658725207837" lon="10.531999303355391"><ele>602.5</ele><time>2026-04-06T14:24:17.999Z</time></trkpt><trkpt lat="44.48671634170869" lon="10.531977533044664"><ele>601.75</ele><time>2026-04-06T14:24:18.999Z</time></trkpt><trkpt lat="44.486844234950176" lon="10.531932836816583"><ele>601.0</ele><time>2026-04-06T14:24:19.999Z</time></trkpt><trkpt lat="44.486954802241144" lon="10.531862852256818"><ele>601.0</ele><time>2026-04-06T14:24:20.999Z</time></trkpt><trkpt lat="44.48704740927913" lon="10.531778614531147"><ele>601.0</ele><time>2026-04-06T14:24:21.999Z</time></trkpt><trkpt lat="44.48715946336862" lon="10.531699527462159"><ele>601.0</ele><time>2026-04-06T14:24:22.999Z</time></trkpt><trkpt lat="44.48728544967086" lon="10.531581397125901"><ele>601.0</ele><time>2026-04-06T14:24:23.999Z</time></trkpt><trkpt lat="44.48739488792096" lon="10.531485487171809"><ele>600.75</ele><time>2026-04-06T14:24:24.999Z</time></trkpt><trkpt lat="44.487525866799494" lon="10.53137534056053"><ele>600.5</ele><time>2026-04-06T14:24:25.999Z</time></trkpt><trkpt lat="44.48763906944511" lon="10.531255097737033"><ele>600.25</ele><time>2026-04-06T14:24:26.999Z</time></trkpt><trkpt lat="44.487761608031256" lon="10.531193431248454"><ele>600.0</ele><time>2026-04-06T14:24:27.999Z</time></trkpt><trkpt lat="44.487865696710514" lon="10.531169238409046"><ele>600.5</ele><time>2026-04-06T14:24:28.999Z</time></trkpt><trkpt lat="44.4879584749682" lon="10.531183202515251"><ele>601.0</ele><time>2026-04-06T14:24:29.999Z</time></trkpt><trkpt lat="44.48806516377398" lon="10.531208134855083"><ele>601.5</ele><time>2026-04-06T14:24:30.999Z</time></trkpt><trkpt lat="44.48819340660622" lon="10.531225679677666"><ele>602.0</ele><time>2026-04-06T14:24:31.999Z</time></trkpt><trkpt lat="44.488315252622996" lon="10.531260160247568"><ele>602.75</ele><time>2026-04-06T14:24:32.999Z</time></trkpt><trkpt lat="44.48844033589829" lon="10.531291655103846"><ele>603.5</ele><time>2026-04-06T14:24:33.999Z</time></trkpt><trkpt lat="44.48857666037621" lon="10.531321750771655"><ele>604.25</ele><time>2026-04-06T14:24:34.999Z</time></trkpt><trkpt lat="44.488713244607766" lon="10.531343802460873"><ele>605.0</ele><time>2026-04-06T14:24:35.999Z</time></trkpt><trkpt lat="44.48885366463232" lon="10.53139704821006"><ele>605.75</ele><time>2026-04-06T14:24:36.999Z</time></trkpt><trkpt lat="44.488996179442175" lon="10.531427522129437"><ele>606.5</ele><time>2026-04-06T14:24:37.999Z</time></trkpt><trkpt lat="44.4891262058384" lon="10.531450731980664"><ele>607.25</ele><time>2026-04-06T14:24:38.999Z</time></trkpt><trkpt lat="44.48925435701013" lon="10.531480013371326"><ele>608.0</ele><time>2026-04-06T14:24:39.999Z</time></trkpt><trkpt lat="44.489373589142545" lon="10.531522616452927"><ele>608.0</ele><time>2026-04-06T14:24:40.999Z</time></trkpt><trkpt lat="44.48950339320422" lon="10.531574860397795"><ele>608.0</ele><time>2026-04-06T14:24:41.999Z</time></trkpt><trkpt lat="44.48962859570362" lon="10.531625256874692"><ele>608.0</ele><time>2026-04-06T14:24:42.999Z</time></trkpt><trkpt lat="44.48977152991207" lon="10.531602330427381"><ele>608.0</ele><time>2026-04-06T14:24:43.999Z</time></trkpt><trkpt lat="44.48991214940046" lon="10.5316672569236"><ele>608.25</ele><time>2026-04-06T14:24:44.999Z</time></trkpt><trkpt lat="44.490049989911775" lon="10.531733575953183"><ele>608.5</ele><time>2026-04-06T14:24:45.999Z</time></trkpt><trkpt lat="44.4901848106116" lon="10.531803558375428"><ele>608.75</ele><time>2026-04-06T14:24:46.999Z</time></trkpt><trkpt lat="44.490313462968025" lon="10.531869958591548"><ele>609.0</ele><time>2026-04-06T14:24:47.999Z</time></trkpt><trkpt lat="44.49045072174516" lon="10.53194080076817"><ele>609.0</ele><time>2026-04-06T14:24:48.999Z</time></trkpt><trkpt lat="44.490578655219295" lon="10.532004767199009"><ele>609.0</ele><time>2026-04-06T14:24:49.999Z</time></trkpt><trkpt lat="44.49070815352062" lon="10.532053285136886"><ele>609.0</ele><time>2026-04-06T14:24:50.999Z</time></trkpt><trkpt lat="44.49082697879869" lon="10.532108193309432"><ele>609.0</ele><time>2026-04-06T14:24:51.999Z</time></trkpt><trkpt lat="44.49095789091725" lon="10.532200796020733"><ele>609.5</ele><time>2026-04-06T14:24:52.999Z</time></trkpt><trkpt lat="44.49108637996236" lon="10.532280367584168"><ele>610.0</ele><time>2026-04-06T14:24:53.999Z</time></trkpt><trkpt lat="44.49121088313913" lon="10.532364545809566"><ele>610.5</ele><time>2026-04-06T14:24:54.999Z</time></trkpt><trkpt lat="44.491345429278084" lon="10.532440484070873"><ele>611.0</ele><time>2026-04-06T14:24:55.999Z</time></trkpt><trkpt lat="44.491473070499445" lon="10.532534658362064"><ele>611.0</ele><time>2026-04-06T14:24:56.999Z</time></trkpt><trkpt lat="44.49158871781758" lon="10.532643813540428"><ele>611.0</ele><time>2026-04-06T14:24:57.999Z</time></trkpt><trkpt lat="44.491719400860994" lon="10.53273628803056"><ele>611.0</ele><time>2026-04-06T14:24:58.999Z</time></trkpt><trkpt lat="44.49184964480453" lon="10.53282717935799"><ele>611.0</ele><time>2026-04-06T14:24:59.999Z</time></trkpt><trkpt lat="44.49198198766333" lon="10.532923173457709"><ele>610.0</ele><time>2026-04-06T14:25:00.999Z</time></trkpt><trkpt lat="44.49211496403424" lon="10.533022977860446"><ele>609.0</ele><time>2026-04-06T14:25:01.999Z</time></trkpt><trkpt lat="44.49225254284613" lon="10.53312907127594"><ele>608.0</ele><time>2026-04-06T14:25:02.999Z</time></trkpt><trkpt lat="44.49239279608059" lon="10.533237970479469"><ele>608.0</ele><time>2026-04-06T14:25:03.999Z</time></trkpt><trkpt lat="44.49254033617626" lon="10.533352527568114"><ele>608.0</ele><time>2026-04-06T14:25:04.999Z</time></trkpt><trkpt lat="44.49269022854343" lon="10.533444281540712"><ele>608.0</ele><time>2026-04-06T14:25:05.999Z</time></trkpt><trkpt lat="44.49282719498589" lon="10.53355239655643"><ele>608.25</ele><time>2026-04-06T14:25:06.999Z</time></trkpt><trkpt lat="44.4929635738164" lon="10.533663361584672"><ele>608.5</ele><time>2026-04-06T14:25:07.999Z</time></trkpt><trkpt lat="44.49308856129168" lon="10.533770275876355"><ele>608.75</ele><time>2026-04-06T14:25:08.999Z</time></trkpt><trkpt lat="44.49321201175173" lon="10.533864977092565"><ele>609.0</ele><time>2026-04-06T14:25:09.999Z</time></trkpt><trkpt lat="44.49333098956886" lon="10.53395757679335"><ele>608.75</ele><time>2026-04-06T14:25:10.999Z</time></trkpt><trkpt lat="44.49345018375547" lon="10.534046027470303"><ele>608.5</ele><time>2026-04-06T14:25:11.999Z</time></trkpt><trkpt lat="44.49356678226957" lon="10.534132807018441"><ele>608.25</ele><time>2026-04-06T14:25:12.999Z</time></trkpt><trkpt lat="44.49368378499955" lon="10.534228597997737"><ele>608.0</ele><time>2026-04-06T14:25:13.999Z</time></trkpt><trkpt lat="44.49379808523841" lon="10.534320688761596"><ele>608.0</ele><time>2026-04-06T14:25:14.999Z</time></trkpt><trkpt lat="44.4939038492077" lon="10.534401606399317"><ele>608.0</ele><time>2026-04-06T14:25:15.999Z</time></trkpt><trkpt lat="44.49399771897178" lon="10.534476357612071"><ele>608.0</ele><time>2026-04-06T14:25:16.999Z</time></trkpt><trkpt lat="44.49409786865194" lon="10.534556606061178"><ele>608.0</ele><time>2026-04-06T14:25:17.999Z</time></trkpt><trkpt lat="44.494212587898616" lon="10.534609647615206"><ele>607.25</ele><time>2026-04-06T14:25:18.999Z</time></trkpt><trkpt lat="44.49435044233413" lon="10.534627231204672"><ele>606.5</ele><time>2026-04-06T14:25:19.999Z</time></trkpt><trkpt lat="44.494479818278435" lon="10.534618604040526"><ele>605.75</ele><time>2026-04-06T14:25:20.999Z</time></trkpt><trkpt lat="44.49460301775747" lon="10.534576404998612"><ele>605.0</ele><time>2026-04-06T14:25:21.999Z</time></trkpt><trkpt lat="44.49471711052041" lon="10.534509028625617"><ele>604.25</ele><time>2026-04-06T14:25:22.999Z</time></trkpt><trkpt lat="44.494810148152574" lon="10.534398875627351"><ele>603.5</ele><time>2026-04-06T14:25:23.999Z</time></trkpt><trkpt lat="44.49490790543114" lon="10.534261909139275"><ele>602.75</ele><time>2026-04-06T14:25:24.999Z</time></trkpt><trkpt lat="44.49501302583711" lon="10.534170692386411"><ele>602.0</ele><time>2026-04-06T14:25:25.999Z</time></trkpt><trkpt lat="44.49513319069211" lon="10.53410360008262"><ele>602.0</ele><time>2026-04-06T14:25:26.999Z</time></trkpt><trkpt lat="44.49525697104037" lon="10.534141981654166"><ele>602.0</ele><time>2026-04-06T14:25:27.999Z</time></trkpt><trkpt lat="44.49537648164267" lon="10.53419577350202"><ele>602.0</ele><time>2026-04-06T14:25:28.999Z</time></trkpt><trkpt lat="44.49550256724308" lon="10.534247017337924"><ele>602.0</ele><time>2026-04-06T14:25:29.999Z</time></trkpt><trkpt lat="44.49562706766912" lon="10.534300814604357"><ele>602.25</ele><time>2026-04-06T14:25:30.999Z</time></trkpt><trkpt lat="44.49575080823892" lon="10.53434945860086"><ele>602.5</ele><time>2026-04-06T14:25:31.999Z</time></trkpt><trkpt lat="44.49587117863557" lon="10.534395864598238"><ele>602.75</ele><time>2026-04-06T14:25:32.999Z</time></trkpt><trkpt lat="44.4959957599218" lon="10.53444341937346"><ele>603.0</ele><time>2026-04-06T14:25:33.999Z</time></trkpt><trkpt lat="44.496118195569835" lon="10.534489515772778"><ele>603.0</ele><time>2026-04-06T14:25:34.999Z</time></trkpt><trkpt lat="44.49624145486738" lon="10.534533759503779"><ele>603.0</ele><time>2026-04-06T14:25:35.999Z</time></trkpt><trkpt lat="44.49636544666372" lon="10.534555379709087"><ele>603.0</ele><time>2026-04-06T14:25:36.999Z</time></trkpt><trkpt lat="44.49647947319743" lon="10.534603534911598"><ele>603.0</ele><time>2026-04-06T14:25:37.999Z</time></trkpt><trkpt lat="44.496595383961356" lon="10.534647931887296"><ele>604.4</ele><time>2026-04-06T14:25:38.999Z</time></trkpt><trkpt lat="44.49670905541618" lon="10.534687826599729"><ele>605.8</ele><time>2026-04-06T14:25:39.999Z</time></trkpt><trkpt lat="44.49681645633051" lon="10.534731462136554"><ele>607.2</ele><time>2026-04-06T14:25:40.999Z</time></trkpt><trkpt lat="44.496917089361716" lon="10.534771345775486"><ele>608.6</ele><time>2026-04-06T14:25:41.999Z</time></trkpt><trkpt lat="44.49702847947534" lon="10.534813526978192"><ele>610.0</ele><time>2026-04-06T14:25:42.999Z</time></trkpt><trkpt lat="44.497131655497434" lon="10.534845999894461"><ele>610.0</ele><time>2026-04-06T14:25:43.999Z</time></trkpt><trkpt lat="44.497235123082426" lon="10.534885774232148"><ele>610.0</ele><time>2026-04-06T14:25:44.999Z</time></trkpt><trkpt lat="44.497328618359546" lon="10.534927570732357"><ele>610.0</ele><time>2026-04-06T14:25:45.999Z</time></trkpt><trkpt lat="44.49741117032888" lon="10.534969266586717"><ele>610.0</ele><time>2026-04-06T14:25:46.999Z</time></trkpt><trkpt lat="44.49748475960111" lon="10.534998155426706"><ele>610.0</ele><time>2026-04-06T14:25:47.999Z</time></trkpt><trkpt lat="44.49755171416406" lon="10.535026145438952"><ele>610.0</ele><time>2026-04-06T14:25:48.999Z</time></trkpt><trkpt lat="44.49764358164659" lon="10.535023935970965"><ele>610.0</ele><time>2026-04-06T14:25:50.999Z</time></trkpt><trkpt lat="44.49773392901817" lon="10.534991777914087"><ele>610.0</ele><time>2026-04-06T14:25:54.999Z</time></trkpt><trkpt lat="44.49779000262477" lon="10.53488867696599"><ele>610.0</ele><time>2026-04-06T14:25:55.999Z</time></trkpt><trkpt lat="44.49787821235337" lon="10.534773308778062"><ele>610.0</ele><time>2026-04-06T14:25:56.999Z</time></trkpt><trkpt lat="44.49795992868112" lon="10.534667893177335"><ele>610.0</ele><time>2026-04-06T14:25:57.999Z</time></trkpt><trkpt lat="44.49804254577895" lon="10.534578624982272"><ele>609.3333333333334</ele><time>2026-04-06T14:25:58.999Z</time></trkpt><trkpt lat="44.49812841113689" lon="10.534509873815514"><ele>608.6666666666667</ele><time>2026-04-06T14:25:59.999Z</time></trkpt><trkpt lat="44.49819571325938" lon="10.53444568827168"><ele>608.0</ele><time>2026-04-06T14:26:00.999Z</time></trkpt><trkpt lat="44.49826279431766" lon="10.534370494659496"><ele>607.3333333333334</ele><time>2026-04-06T14:26:01.999Z</time></trkpt><trkpt lat="44.49831215820346" lon="10.534291902380767"><ele>606.6666666666666</ele><time>2026-04-06T14:26:02.999Z</time></trkpt><trkpt lat="44.49834886492456" lon="10.534190222045511"><ele>606.0</ele><time>2026-04-06T14:26:03.999Z</time></trkpt><trkpt lat="44.49836621233906" lon="10.534066030417101"><ele>606.0</ele><time>2026-04-06T14:26:04.999Z</time></trkpt><trkpt lat="44.49837489826711" lon="10.533954042514516"><ele>606.0</ele><time>2026-04-06T14:26:05.999Z</time></trkpt><trkpt lat="44.49840591464421" lon="10.533833101565664"><ele>606.0</ele><time>2026-04-06T14:26:08Z</time></trkpt><trkpt lat="44.4984689755455" lon="10.533798482512896"><ele>606.0</ele><time>2026-04-06T14:26:09Z</time></trkpt><trkpt lat="44.49854483841511" lon="10.533873655320207"><ele>606.0</ele><time>2026-04-06T14:26:10Z</time></trkpt><trkpt lat="44.49853217124795" lon="10.53402137032623"><ele>606.0</ele><time>2026-04-06T14:26:11Z</time></trkpt><trkpt lat="44.498587462567436" lon="10.534179856743755"><ele>606.0</ele><time>2026-04-06T14:26:12Z</time></trkpt><trkpt lat="44.49864436732096" lon="10.53437211947829"><ele>606.0</ele><time>2026-04-06T14:26:13Z</time></trkpt><trkpt lat="44.49865884888305" lon="10.534547917161495"><ele>606.0</ele><time>2026-04-06T14:26:14Z</time></trkpt><trkpt lat="44.49865755319751" lon="10.534678188781895"><ele>606.0</ele><time>2026-04-06T14:26:15Z</time></trkpt><trkpt lat="44.49862664244436" lon="10.534812579044125"><ele>605.4</ele><time>2026-04-06T14:26:16Z</time></trkpt><trkpt lat="44.49862793323197" lon="10.534965399806431"><ele>604.8</ele><time>2026-04-06T14:26:17Z</time></trkpt><trkpt lat="44.498673184928634" lon="10.535087779308679"><ele>604.1999999999999</ele><time>2026-04-06T14:26:18Z</time></trkpt><trkpt lat="44.4987106543035" lon="10.535225527199065"><ele>603.6</ele><time>2026-04-06T14:26:19Z</time></trkpt><trkpt lat="44.498783726059955" lon="10.535346509820421"><ele>603.0</ele><time>2026-04-06T14:26:20Z</time></trkpt><trkpt lat="44.49885967680264" lon="10.53547292046367"><ele>600.25</ele><time>2026-04-06T14:26:21Z</time></trkpt><trkpt lat="44.4989452450851" lon="10.535615477725003"><ele>597.5</ele><time>2026-04-06T14:26:22Z</time></trkpt><trkpt lat="44.49904804972058" lon="10.535723833128726"><ele>594.75</ele><time>2026-04-06T14:26:23Z</time></trkpt><trkpt lat="44.4991370783051" lon="10.5358096972564"><ele>592.0</ele><time>2026-04-06T14:26:24Z</time></trkpt><trkpt lat="44.4992503112072" lon="10.535852782820541"><ele>592.0</ele><time>2026-04-06T14:26:25Z</time></trkpt><trkpt lat="44.49935874958353" lon="10.535866352731267"><ele>592.0</ele><time>2026-04-06T14:26:26Z</time></trkpt><trkpt lat="44.499455249096975" lon="10.535857126392939"><ele>592.0</ele><time>2026-04-06T14:26:27Z</time></trkpt><trkpt lat="44.49954807335423" lon="10.535837552596158"><ele>592.0</ele><time>2026-04-06T14:26:28Z</time></trkpt><trkpt lat="44.499669141439064" lon="10.535785362054579"><ele>592.0</ele><time>2026-04-06T14:26:29Z</time></trkpt><trkpt lat="44.49977042985806" lon="10.535719227234367"><ele>590.75</ele><time>2026-04-06T14:26:30Z</time></trkpt><trkpt lat="44.49988895883569" lon="10.535653661120534"><ele>589.5</ele><time>2026-04-06T14:26:31Z</time></trkpt><trkpt lat="44.500007168227185" lon="10.535560694884134"><ele>588.25</ele><time>2026-04-06T14:26:32Z</time></trkpt><trkpt lat="44.50011981367807" lon="10.535468150301993"><ele>587.0</ele><time>2026-04-06T14:26:33Z</time></trkpt><trkpt lat="44.50020600920511" lon="10.53538374596104"><ele>587.0</ele><time>2026-04-06T14:26:34Z</time></trkpt><trkpt lat="44.50027236303653" lon="10.535289143459016"><ele>587.0</ele><time>2026-04-06T14:26:35Z</time></trkpt><trkpt lat="44.50030265081121" lon="10.535185803808071"><ele>587.0</ele><time>2026-04-06T14:26:36Z</time></trkpt><trkpt lat="44.50035476182038" lon="10.535097906836107"><ele>587.0</ele><time>2026-04-06T14:26:37Z</time></trkpt><trkpt lat="44.500410839928634" lon="10.535013959444514"><ele>587.0</ele><time>2026-04-06T14:26:38Z</time></trkpt><trkpt lat="44.50054125453601" lon="10.535047545300065"><ele>587.0</ele><time>2026-04-06T14:26:39Z</time></trkpt><trkpt lat="44.50066816145955" lon="10.535033850889151"><ele>587.0</ele><time>2026-04-06T14:26:40Z</time></trkpt><trkpt lat="44.500745448000174" lon="10.53509040133781"><ele>587.0</ele><time>2026-04-06T14:26:41Z</time></trkpt><trkpt lat="44.5008284214144" lon="10.53515207488162"><ele>587.0</ele><time>2026-04-06T14:26:42Z</time></trkpt><trkpt lat="44.50091913537902" lon="10.535248877544262"><ele>587.0</ele><time>2026-04-06T14:26:43Z</time></trkpt><trkpt lat="44.50100428741462" lon="10.535315893919211"><ele>583.5</ele><time>2026-04-06T14:26:44Z</time></trkpt><trkpt lat="44.50110047503733" lon="10.535413294957435"><ele>580.0</ele><time>2026-04-06T14:26:46Z</time></trkpt><trkpt lat="44.50112136504878" lon="10.53562996910309"><ele>576.5</ele><time>2026-04-06T14:26:47Z</time></trkpt><trkpt lat="44.50116947471971" lon="10.535841411259717"><ele>573.0</ele><time>2026-04-06T14:26:48Z</time></trkpt><trkpt lat="44.50120783912788" lon="10.53602824993947"><ele>573.0</ele><time>2026-04-06T14:26:49Z</time></trkpt><trkpt lat="44.50123037695985" lon="10.536181699819712"><ele>573.0</ele><time>2026-04-06T14:26:50Z</time></trkpt><trkpt lat="44.50125123760746" lon="10.536340804963247"><ele>573.0</ele><time>2026-04-06T14:26:51Z</time></trkpt><trkpt lat="44.50126100900733" lon="10.536488579217783"><ele>573.0</ele><time>2026-04-06T14:26:52Z</time></trkpt><trkpt lat="44.50125496957569" lon="10.536628817339915"><ele>573.0</ele><time>2026-04-06T14:26:53Z</time></trkpt><trkpt lat="44.501226598245346" lon="10.536774475027867"><ele>570.0</ele><time>2026-04-06T14:26:54Z</time></trkpt><trkpt lat="44.501171549464466" lon="10.536950370004666"><ele>567.0</ele><time>2026-04-06T14:26:55Z</time></trkpt><trkpt lat="44.50111862479508" lon="10.537147072929164"><ele>564.0</ele><time>2026-04-06T14:26:56Z</time></trkpt><trkpt lat="44.50107632424664" lon="10.537281691774165"><ele>561.0</ele><time>2026-04-06T14:26:57Z</time></trkpt><trkpt lat="44.50098841687995" lon="10.537371421513287"><ele>559.2</ele><time>2026-04-06T14:26:58Z</time></trkpt><trkpt lat="44.50086374222548" lon="10.537449625262981"><ele>557.4000000000001</ele><time>2026-04-06T14:26:59Z</time></trkpt><trkpt lat="44.50076972887971" lon="10.537521141906874"><ele>555.6</ele><time>2026-04-06T14:27:00Z</time></trkpt><trkpt lat="44.50068608002987" lon="10.537557914066051"><ele>553.8000000000001</ele><time>2026-04-06T14:27:01Z</time></trkpt><trkpt lat="44.500589332948266" lon="10.537556058908617"><ele>552.0</ele><time>2026-04-06T14:27:02Z</time></trkpt><trkpt lat="44.50050473011139" lon="10.537570997324778"><ele>552.0</ele><time>2026-04-06T14:27:03Z</time></trkpt><trkpt lat="44.50045975495066" lon="10.537653860140596"><ele>552.0</ele><time>2026-04-06T14:27:04Z</time></trkpt><trkpt lat="44.50046026580669" lon="10.537764769118741"><ele>552.0</ele><time>2026-04-06T14:27:05Z</time></trkpt><trkpt lat="44.500503932841454" lon="10.537884202493581"><ele>552.0</ele><time>2026-04-06T14:27:06Z</time></trkpt><trkpt lat="44.50057414979714" lon="10.538071293179483"><ele>552.0</ele><time>2026-04-06T14:27:07Z</time></trkpt><trkpt lat="44.50063377564919" lon="10.538264899546961"><ele>550.75</ele><time>2026-04-06T14:27:08Z</time></trkpt><trkpt lat="44.500650338232575" lon="10.538439332138598"><ele>549.5</ele><time>2026-04-06T14:27:09Z</time></trkpt><trkpt lat="44.50064635606493" lon="10.538605400833486"><ele>548.25</ele><time>2026-04-06T14:27:10Z</time></trkpt><trkpt lat="44.50063929223058" lon="10.538768489841251"><ele>547.0</ele><time>2026-04-06T14:27:11Z</time></trkpt><trkpt lat="44.500579832883695" lon="10.538889000421511"><ele>545.75</ele><time>2026-04-06T14:27:12Z</time></trkpt><trkpt lat="44.50049223588868" lon="10.539039840582895"><ele>544.5</ele><time>2026-04-06T14:27:13Z</time></trkpt><trkpt lat="44.50044550626054" lon="10.539189414368604"><ele>543.25</ele><time>2026-04-06T14:27:14Z</time></trkpt><trkpt lat="44.50042519001863" lon="10.539354692298785"><ele>542.0</ele><time>2026-04-06T14:27:15Z</time></trkpt><trkpt lat="44.50045767886857" lon="10.539513970759222"><ele>540.0</ele><time>2026-04-06T14:27:16Z</time></trkpt><trkpt lat="44.50051002296266" lon="10.539713348836903"><ele>538.0</ele><time>2026-04-06T14:27:17Z</time></trkpt><trkpt lat="44.500567468819064" lon="10.539960989676036"><ele>536.0</ele><time>2026-04-06T14:27:18Z</time></trkpt><trkpt lat="44.500604896231096" lon="10.540146286431145"><ele>536.0</ele><time>2026-04-06T14:27:19Z</time></trkpt><trkpt lat="44.50059126942888" lon="10.540311535469645"><ele>536.0</ele><time>2026-04-06T14:27:20Z</time></trkpt><trkpt lat="44.50055259740046" lon="10.540488638239493"><ele>536.0</ele><time>2026-04-06T14:27:21Z</time></trkpt><trkpt lat="44.50051161984431" lon="10.54065050741005"><ele>536.0</ele><time>2026-04-06T14:27:22Z</time></trkpt><trkpt lat="44.500480016871435" lon="10.540824915809472"><ele>535.0</ele><time>2026-04-06T14:27:23Z</time></trkpt><trkpt lat="44.50042370845117" lon="10.541014303843898"><ele>534.0</ele><time>2026-04-06T14:27:24Z</time></trkpt><trkpt lat="44.50034516410994" lon="10.541260225786877"><ele>533.0</ele><time>2026-04-06T14:27:25Z</time></trkpt><trkpt lat="44.50030158613373" lon="10.541472446685159"><ele>533.0</ele><time>2026-04-06T14:27:26Z</time></trkpt><trkpt lat="44.500288639474846" lon="10.541664036228395"><ele>533.0</ele><time>2026-04-06T14:27:27Z</time></trkpt><trkpt lat="44.50027577293647" lon="10.541802854758973"><ele>533.0</ele><time>2026-04-06T14:27:28Z</time></trkpt><trkpt lat="44.50027853381453" lon="10.541908759085953"><ele>533.0</ele><time>2026-04-06T14:27:29Z</time></trkpt><trkpt lat="44.50031885708957" lon="10.54198779699746"><ele>533.0</ele><time>2026-04-06T14:27:30Z</time></trkpt><trkpt lat="44.50039407312967" lon="10.542086485897626"><ele>531.8</ele><time>2026-04-06T14:27:31Z</time></trkpt><trkpt lat="44.500485098698974" lon="10.542201511131525"><ele>530.5999999999999</ele><time>2026-04-06T14:27:32Z</time></trkpt><trkpt lat="44.5005682049892" lon="10.542304967268587"><ele>529.4000000000001</ele><time>2026-04-06T14:27:33Z</time></trkpt><trkpt lat="44.5006445438813" lon="10.542365068227864"><ele>528.2</ele><time>2026-04-06T14:27:34Z</time></trkpt><trkpt lat="44.500747343112586" lon="10.542417067859006"><ele>527.0</ele><time>2026-04-06T14:27:35Z</time></trkpt><trkpt lat="44.50086098844499" lon="10.542452703934567"><ele>527.0</ele><time>2026-04-06T14:27:36Z</time></trkpt><trkpt lat="44.500972240990805" lon="10.542517548008675"><ele>527.0</ele><time>2026-04-06T14:27:37Z</time></trkpt><trkpt lat="44.501079198680195" lon="10.542601777758675"><ele>527.0</ele><time>2026-04-06T14:27:38Z</time></trkpt><trkpt lat="44.50116198355982" lon="10.542685951056065"><ele>527.0</ele><time>2026-04-06T14:27:39Z</time></trkpt><trkpt lat="44.50123176914028" lon="10.542786283571981"><ele>527.0</ele><time>2026-04-06T14:27:40Z</time></trkpt><trkpt lat="44.501302971663804" lon="10.54287602485739"><ele>523.3333333333333</ele><time>2026-04-06T14:27:41Z</time></trkpt><trkpt lat="44.50137635304166" lon="10.542962256610595"><ele>519.6666666666666</ele><time>2026-04-06T14:27:42Z</time></trkpt><trkpt lat="44.50144122332137" lon="10.543063691668857"><ele>516.0</ele><time>2026-04-06T14:27:43Z</time></trkpt><trkpt lat="44.50148615165399" lon="10.543160437705886"><ele>512.3333333333334</ele><time>2026-04-06T14:27:44Z</time></trkpt><trkpt lat="44.50155919105989" lon="10.543209814662163"><ele>508.6666666666667</ele><time>2026-04-06T14:27:45Z</time></trkpt><trkpt lat="44.50162509481716" lon="10.543261435157856"><ele>505.0</ele><time>2026-04-06T14:27:46Z</time></trkpt><trkpt lat="44.50167804485291" lon="10.54332965651753"><ele>505.0</ele><time>2026-04-06T14:27:47Z</time></trkpt><trkpt lat="44.50173425833291" lon="10.543409466121126"><ele>505.0</ele><time>2026-04-06T14:27:48Z</time></trkpt><trkpt lat="44.50178983354317" lon="10.543526424772452"><ele>505.0</ele><time>2026-04-06T14:27:49Z</time></trkpt><trkpt lat="44.50186161899455" lon="10.543660754202588"><ele>505.0</ele><time>2026-04-06T14:27:50Z</time></trkpt><trkpt lat="44.50191235710515" lon="10.543803034633912"><ele>505.0</ele><time>2026-04-06T14:27:51Z</time></trkpt><trkpt lat="44.50196290226194" lon="10.543858192976817"><ele>504.0</ele><time>2026-04-06T14:27:52Z</time></trkpt><trkpt lat="44.50205058741194" lon="10.543920510793491"><ele>503.0</ele><time>2026-04-06T14:27:53Z</time></trkpt><trkpt lat="44.502113327711506" lon="10.544005051224449"><ele>502.0</ele><time>2026-04-06T14:27:54Z</time></trkpt><trkpt lat="44.50215851974985" lon="10.544125584943684"><ele>501.0</ele><time>2026-04-06T14:27:55Z</time></trkpt><trkpt lat="44.50221698300953" lon="10.544255603344263"><ele>500.0</ele><time>2026-04-06T14:27:56Z</time></trkpt><trkpt lat="44.50228468748755" lon="10.544411675544417"><ele>496.4</ele><time>2026-04-06T14:27:57Z</time></trkpt><trkpt lat="44.502336937361406" lon="10.5445143482551"><ele>492.8</ele><time>2026-04-06T14:27:58Z</time></trkpt><trkpt lat="44.50234456863091" lon="10.544650009675436"><ele>489.20000000000005</ele><time>2026-04-06T14:27:59Z</time></trkpt><trkpt lat="44.50232861813679" lon="10.544772506868478"><ele>485.6</ele><time>2026-04-06T14:28:00Z</time></trkpt><trkpt lat="44.50238082666468" lon="10.544855042733765"><ele>482.0</ele><time>2026-04-06T14:28:01Z</time></trkpt><trkpt lat="44.50250532714337" lon="10.544950931073592"><ele>481.99999999999994</ele><time>2026-04-06T14:28:01.999Z</time></trkpt><trkpt lat="44.502595994670294" lon="10.545015663223671"><ele>482.0</ele><time>2026-04-06T14:28:02.999Z</time></trkpt><trkpt lat="44.50262940702263" lon="10.545125419341732"><ele>482.0</ele><time>2026-04-06T14:28:03.999Z</time></trkpt><trkpt lat="44.50264103587473" lon="10.545226847545893"><ele>482.0</ele><time>2026-04-06T14:28:04.999Z</time></trkpt><trkpt lat="44.50268258184814" lon="10.545316622001593"><ele>481.99999999999994</ele><time>2026-04-06T14:28:05.999Z</time></trkpt><trkpt lat="44.50273321277949" lon="10.545375341173825"><ele>482.0</ele><time>2026-04-06T14:28:06.999Z</time></trkpt><trkpt lat="44.502797983460965" lon="10.545481860841184"><ele>480.66666666666663</ele><time>2026-04-06T14:28:07.999Z</time></trkpt><trkpt lat="44.50284783100626" lon="10.545594159064924"><ele>479.3333333333333</ele><time>2026-04-06T14:28:08.999Z</time></trkpt><trkpt lat="44.50288557735978" lon="10.5457047437846"><ele>478.0</ele><time>2026-04-06T14:28:09.999Z</time></trkpt><trkpt lat="44.50291948035329" lon="10.545803950366324"><ele>476.66666666666663</ele><time>2026-04-06T14:28:10.999Z</time></trkpt><trkpt lat="44.502955117625184" lon="10.545893480974474"><ele>475.3333333333333</ele><time>2026-04-06T14:28:11.999Z</time></trkpt><trkpt lat="44.50299353206857" lon="10.545990508219074"><ele>474.0</ele><time>2026-04-06T14:28:12.999Z</time></trkpt><trkpt lat="44.50303584267581" lon="10.54607462996802"><ele>471.4</ele><time>2026-04-06T14:28:14Z</time></trkpt><trkpt lat="44.503117408069976" lon="10.546183740199869"><ele>468.79999999999995</ele><time>2026-04-06T14:28:16Z</time></trkpt><trkpt lat="44.50321826002769" lon="10.546129437478543"><ele>466.20000000000005</ele><time>2026-04-06T14:28:18Z</time></trkpt><trkpt lat="44.5032929539958" lon="10.546018103410177"><ele>463.6</ele><time>2026-04-06T14:28:20Z</time></trkpt><trkpt lat="44.50330259264213" lon="10.545909477795597"><ele>461.0</ele><time>2026-04-06T14:28:21Z</time></trkpt><trkpt lat="44.50334371763188" lon="10.545809810229137"><ele>461.0</ele><time>2026-04-06T14:28:22Z</time></trkpt><trkpt lat="44.503405819774926" lon="10.545691565422985"><ele>461.0</ele><time>2026-04-06T14:28:23Z</time></trkpt><trkpt lat="44.50345694574021" lon="10.545601567578169"><ele>461.0</ele><time>2026-04-06T14:28:24Z</time></trkpt><trkpt lat="44.503511929929495" lon="10.545514381784127"><ele>461.0</ele><time>2026-04-06T14:28:25Z</time></trkpt><trkpt lat="44.503601249827256" lon="10.5454743100723"><ele>461.0</ele><time>2026-04-06T14:28:26Z</time></trkpt><trkpt lat="44.50368730951005" lon="10.545444479388596"><ele>462.16666666666663</ele><time>2026-04-06T14:28:27Z</time></trkpt><trkpt lat="44.503785057811086" lon="10.545292468979508"><ele>463.3333333333333</ele><time>2026-04-06T14:28:29Z</time></trkpt><trkpt lat="44.50383316360899" lon="10.545223785062372"><ele>464.5</ele><time>2026-04-06T14:28:30Z</time></trkpt><trkpt lat="44.503901404174684" lon="10.545264241365869"><ele>465.66666666666663</ele><time>2026-04-06T14:28:32Z</time></trkpt><trkpt lat="44.50394327023467" lon="10.545365178009902"><ele>466.8333333333333</ele><time>2026-04-06T14:28:33Z</time></trkpt><trkpt lat="44.50395687151827" lon="10.545460677356008"><ele>468.0</ele><time>2026-04-06T14:28:34Z</time></trkpt><trkpt lat="44.50392339811501" lon="10.545619764903934"><ele>468.0</ele><time>2026-04-06T14:28:36Z</time></trkpt><trkpt lat="44.503879740707404" lon="10.545743567101407"><ele>467.99999999999994</ele><time>2026-04-06T14:28:37Z</time></trkpt><trkpt lat="44.503915989361275" lon="10.545883419521557"><ele>467.99999999999994</ele><time>2026-04-06T14:28:38Z</time></trkpt><trkpt lat="44.50395191449986" lon="10.546010713079083"><ele>468.0</ele><time>2026-04-06T14:28:39Z</time></trkpt><trkpt lat="44.504010972982876" lon="10.546144764329155"><ele>468.0</ele><time>2026-04-06T14:28:40Z</time></trkpt><trkpt lat="44.504047339578655" lon="10.546277332100276"><ele>465.0</ele><time>2026-04-06T14:28:41Z</time></trkpt><trkpt lat="44.50409050837058" lon="10.546491919268929"><ele>461.99999999999994</ele><time>2026-04-06T14:28:43Z</time></trkpt><trkpt lat="44.504134361788054" lon="10.546571007175794"><ele>458.99999999999994</ele><time>2026-04-06T14:28:44Z</time></trkpt><trkpt lat="44.504235927941636" lon="10.546612046017847"><ele>456.0</ele><time>2026-04-06T14:28:45Z</time></trkpt><trkpt lat="44.5043118287368" lon="10.546649067476446"><ele>453.0</ele><time>2026-04-06T14:28:46Z</time></trkpt><trkpt lat="44.50440305141708" lon="10.54662497522442"><ele>453.0</ele><time>2026-04-06T14:28:48Z</time></trkpt><trkpt lat="44.504460685742984" lon="10.546545690876647"><ele>453.0</ele><time>2026-04-06T14:28:49Z</time></trkpt><trkpt lat="44.50459473570967" lon="10.546588867199555"><ele>453.0</ele><time>2026-04-06T14:28:51Z</time></trkpt><trkpt lat="44.5046683549061" lon="10.546700924255177"><ele>453.0</ele><time>2026-04-06T14:28:53Z</time></trkpt><trkpt lat="44.50480204647661" lon="10.546752099408122"><ele>458.0</ele><time>2026-04-06T14:28:55Z</time></trkpt><trkpt lat="44.504888531548836" lon="10.546800568580588"><ele>463.0</ele><time>2026-04-06T14:28:56Z</time></trkpt><trkpt lat="44.50498989275604" lon="10.546846955294546"><ele>468.0</ele><time>2026-04-06T14:28:57Z</time></trkpt><trkpt lat="44.505080234330045" lon="10.546828508791792"><ele>473.0</ele><time>2026-04-06T14:28:58Z</time></trkpt><trkpt lat="44.50514020232236" lon="10.546787771088868"><ele>478.0</ele><time>2026-04-06T14:28:59Z</time></trkpt><trkpt lat="44.50521274711476" lon="10.546796490134186"><ele>483.0</ele><time>2026-04-06T14:29:00Z</time></trkpt><trkpt lat="44.50528362479172" lon="10.546974813804022"><ele>485.0</ele><time>2026-04-06T14:29:02Z</time></trkpt><trkpt lat="44.50531426432473" lon="10.547080709393498"><ele>487.0</ele><time>2026-04-06T14:29:03Z</time></trkpt><trkpt lat="44.50533260764455" lon="10.547177896374265"><ele>489.0</ele><time>2026-04-06T14:29:04Z</time></trkpt><trkpt lat="44.505397435488426" lon="10.547213157932752"><ele>491.0</ele><time>2026-04-06T14:29:05Z</time></trkpt><trkpt lat="44.50544327209196" lon="10.54727998633886"><ele>493.0</ele><time>2026-04-06T14:29:07Z</time></trkpt><trkpt lat="44.50540687206149" lon="10.547401168397204"><ele>495.0</ele><time>2026-04-06T14:29:09Z</time></trkpt><trkpt lat="44.50540791290943" lon="10.547499088203338"><ele>495.0</ele><time>2026-04-06T14:29:10Z</time></trkpt><trkpt lat="44.50544020940089" lon="10.547701008512012"><ele>495.0</ele><time>2026-04-06T14:29:11Z</time></trkpt><trkpt lat="44.50546178411067" lon="10.54783437209894"><ele>495.0</ele><time>2026-04-06T14:29:12Z</time></trkpt><trkpt lat="44.50558018944024" lon="10.5479771384816"><ele>495.0</ele><time>2026-04-06T14:29:14Z</time></trkpt><trkpt lat="44.50566466579089" lon="10.548018839092723"><ele>491.0</ele><time>2026-04-06T14:29:15Z</time></trkpt><trkpt lat="44.50573994487257" lon="10.54803481259171"><ele>487.0</ele><time>2026-04-06T14:29:16Z</time></trkpt><trkpt lat="44.50581745671016" lon="10.547996857773612"><ele>483.0</ele><time>2026-04-06T14:29:17Z</time></trkpt><trkpt lat="44.5058977385042" lon="10.54802855845976"><ele>479.0</ele><time>2026-04-06T14:29:18Z</time></trkpt><trkpt lat="44.50599341385541" lon="10.548095927357808"><ele>475.0</ele><time>2026-04-06T14:29:19Z</time></trkpt><trkpt lat="44.50608807374006" lon="10.54814291285811"><ele>471.0</ele><time>2026-04-06T14:29:20Z</time></trkpt><trkpt lat="44.50617706709943" lon="10.54813459202136"><ele>472.8</ele><time>2026-04-06T14:29:21Z</time></trkpt><trkpt lat="44.50631869982674" lon="10.548127065982662"><ele>474.6</ele><time>2026-04-06T14:29:22Z</time></trkpt><trkpt lat="44.50642050909094" lon="10.548137146013007"><ele>476.4</ele><time>2026-04-06T14:29:23Z</time></trkpt><trkpt lat="44.506512047558765" lon="10.548145539131312"><ele>478.2</ele><time>2026-04-06T14:29:24Z</time></trkpt><trkpt lat="44.50659797571272" lon="10.548133076229343"><ele>480.0</ele><time>2026-04-06T14:29:26Z</time></trkpt><trkpt lat="44.5066706149824" lon="10.548000848008328"><ele>480.0</ele><time>2026-04-06T14:29:28Z</time></trkpt><trkpt lat="44.50673540845827" lon="10.547983304201374"><ele>480.0</ele><time>2026-04-06T14:29:29Z</time></trkpt><trkpt lat="44.50681033513788" lon="10.547963682286557"><ele>480.0</ele><time>2026-04-06T14:29:30Z</time></trkpt><trkpt lat="44.50687446056726" lon="10.547936752120139"><ele>480.0</ele><time>2026-04-06T14:29:31Z</time></trkpt><trkpt lat="44.5069608433276" lon="10.54788954572607"><ele>480.0</ele><time>2026-04-06T14:29:32Z</time></trkpt><trkpt lat="44.50703622246651" lon="10.54785691746742"><ele>480.0</ele><time>2026-04-06T14:29:33Z</time></trkpt><trkpt lat="44.50716682390612" lon="10.547761446289517"><ele>486.4</ele><time>2026-04-06T14:29:35Z</time></trkpt><trkpt lat="44.50724598318317" lon="10.547670710248466"><ele>492.8</ele><time>2026-04-06T14:29:36Z</time></trkpt><trkpt lat="44.50729048832735" lon="10.547583719494838"><ele>499.20000000000005</ele><time>2026-04-06T14:29:38Z</time></trkpt><trkpt lat="44.50741914842771" lon="10.547670993880294"><ele>505.6</ele><time>2026-04-06T14:29:40Z</time></trkpt><trkpt lat="44.507530249779606" lon="10.547656213582986"><ele>512.0</ele><time>2026-04-06T14:29:42Z</time></trkpt><trkpt lat="44.50763850376558" lon="10.547607756058934"><ele>512.0</ele><time>2026-04-06T14:29:43Z</time></trkpt><trkpt lat="44.50776666537252" lon="10.547565167100407"><ele>512.0</ele><time>2026-04-06T14:29:44Z</time></trkpt><trkpt lat="44.50787582795188" lon="10.547504792098552"><ele>512.0</ele><time>2026-04-06T14:29:45Z</time></trkpt><trkpt lat="44.50792349672157" lon="10.547438886569282"><ele>512.0</ele><time>2026-04-06T14:29:46Z</time></trkpt><trkpt lat="44.507982020758035" lon="10.547394013554737"><ele>512.0</ele><time>2026-04-06T14:29:47Z</time></trkpt><trkpt lat="44.5080573399636" lon="10.54741462723674"><ele>511.25</ele><time>2026-04-06T14:29:48Z</time></trkpt><trkpt lat="44.508175737089864" lon="10.547422351080076"><ele>510.5</ele><time>2026-04-06T14:29:50Z</time></trkpt><trkpt lat="44.50827990681944" lon="10.547393368985254"><ele>509.75</ele><time>2026-04-06T14:29:51Z</time></trkpt><trkpt lat="44.508406640637524" lon="10.547368000041399"><ele>509.0</ele><time>2026-04-06T14:29:52Z</time></trkpt><trkpt lat="44.50850669144851" lon="10.547355425415526"><ele>508.99999999999994</ele><time>2026-04-06T14:29:53Z</time></trkpt><trkpt lat="44.50857891419985" lon="10.547389933914626"><ele>509.0</ele><time>2026-04-06T14:29:54Z</time></trkpt><trkpt lat="44.50859545706432" lon="10.54747955288831"><ele>509.0</ele><time>2026-04-06T14:29:55Z</time></trkpt><trkpt lat="44.50869272673306" lon="10.547602342346696"><ele>509.0</ele><time>2026-04-06T14:29:57Z</time></trkpt><trkpt lat="44.50877555307556" lon="10.54757265226523"><ele>508.99999999999994</ele><time>2026-04-06T14:29:58Z</time></trkpt><trkpt lat="44.508856832955665" lon="10.547531159437957"><ele>509.0</ele><time>2026-04-06T14:29:59Z</time></trkpt><trkpt lat="44.508963582827924" lon="10.547522389913011"><ele>507.79999999999995</ele><time>2026-04-06T14:30:00Z</time></trkpt><trkpt lat="44.50907265095481" lon="10.547568929323"><ele>506.59999999999997</ele><time>2026-04-06T14:30:02Z</time></trkpt><trkpt lat="44.50913810201446" lon="10.547594313034779"><ele>505.4</ele><time>2026-04-06T14:30:03Z</time></trkpt><trkpt lat="44.509248073603494" lon="10.547569477963007"><ele>504.2</ele><time>2026-04-06T14:30:07Z</time></trkpt><trkpt lat="44.50932024094186" lon="10.547545879926837"><ele>503.0</ele><time>2026-04-06T14:30:08Z</time></trkpt><trkpt lat="44.509410470582935" lon="10.54751024214596"><ele>502.99999999999994</ele><time>2026-04-06T14:30:09Z</time></trkpt><trkpt lat="44.50950327228497" lon="10.547485611196887"><ele>503.0</ele><time>2026-04-06T14:30:10Z</time></trkpt><trkpt lat="44.509581835342246" lon="10.547480926039396"><ele>503.0</ele><time>2026-04-06T14:30:11Z</time></trkpt><trkpt lat="44.50965486668735" lon="10.547471657887494"><ele>503.0</ele><time>2026-04-06T14:30:12Z</time></trkpt><trkpt lat="44.50971093599685" lon="10.547431333017968"><ele>502.99999999999994</ele><time>2026-04-06T14:30:13Z</time></trkpt><trkpt lat="44.50981730668408" lon="10.547306907078056"><ele>503.0</ele><time>2026-04-06T14:30:15Z</time></trkpt><trkpt lat="44.509896709029555" lon="10.547218340957858"><ele>502.0</ele><time>2026-04-06T14:30:16Z</time></trkpt><trkpt lat="44.510012891700605" lon="10.547140217734466"><ele>500.99999999999994</ele><time>2026-04-06T14:30:17Z</time></trkpt><trkpt lat="44.510112897522134" lon="10.547059671616477"><ele>499.99999999999994</ele><time>2026-04-06T14:30:18Z</time></trkpt><trkpt lat="44.51019997957602" lon="10.546977888506602"><ele>499.0</ele><time>2026-04-06T14:30:19Z</time></trkpt><trkpt lat="44.51025579955269" lon="10.546928062228814"><ele>498.0</ele><time>2026-04-06T14:30:20Z</time></trkpt><trkpt lat="44.510355520982856" lon="10.546846241920903"><ele>496.79999999999995</ele><time>2026-04-06T14:30:21Z</time></trkpt><trkpt lat="44.51043006986142" lon="10.546734641336402"><ele>495.59999999999997</ele><time>2026-04-06T14:30:22Z</time></trkpt><trkpt lat="44.51049080094224" lon="10.54660786190876"><ele>494.40000000000003</ele><time>2026-04-06T14:30:23Z</time></trkpt><trkpt lat="44.51054060774695" lon="10.54646695150074"><ele>493.20000000000005</ele><time>2026-04-06T14:30:24Z</time></trkpt><trkpt lat="44.51058846326505" lon="10.546353262763674"><ele>492.0</ele><time>2026-04-06T14:30:25Z</time></trkpt><trkpt lat="44.510637758239774" lon="10.54625594465016"><ele>493.6</ele><time>2026-04-06T14:30:26Z</time></trkpt><trkpt lat="44.510705793076795" lon="10.546160924322702"><ele>495.20000000000005</ele><time>2026-04-06T14:30:27Z</time></trkpt><trkpt lat="44.51076238365131" lon="10.546100404833144"><ele>496.8</ele><time>2026-04-06T14:30:28Z</time></trkpt><trkpt lat="44.510879347395715" lon="10.545999411047905"><ele>498.4</ele><time>2026-04-06T14:30:30Z</time></trkpt><trkpt lat="44.510976793780365" lon="10.545926242223809"><ele>500.0</ele><time>2026-04-06T14:30:31Z</time></trkpt><trkpt lat="44.51107466393644" lon="10.54584324880891"><ele>500.0</ele><time>2026-04-06T14:30:32Z</time></trkpt><trkpt lat="44.511123852165696" lon="10.545778269705329"><ele>500.0</ele><time>2026-04-06T14:30:33Z</time></trkpt><trkpt lat="44.51114944932579" lon="10.545634013556237"><ele>500.0</ele><time>2026-04-06T14:30:35Z</time></trkpt><trkpt lat="44.511167889902794" lon="10.545477926255518"><ele>500.0</ele><time>2026-04-06T14:30:36Z</time></trkpt><trkpt lat="44.51120302254627" lon="10.54533525217251"><ele>500.0</ele><time>2026-04-06T14:30:37Z</time></trkpt><trkpt lat="44.51124656941787" lon="10.545228518231214"><ele>496.2</ele><time>2026-04-06T14:30:38Z</time></trkpt><trkpt lat="44.51129171918921" lon="10.545143555326424"><ele>492.4</ele><time>2026-04-06T14:30:39Z</time></trkpt><trkpt lat="44.51134424356469" lon="10.545058411117692"><ele>488.6</ele><time>2026-04-06T14:30:40Z</time></trkpt><trkpt lat="44.51140219139472" lon="10.544949371673647"><ele>484.8</ele><time>2026-04-06T14:30:41Z</time></trkpt><trkpt lat="44.511451856594284" lon="10.544809408090556"><ele>481.0</ele><time>2026-04-06T14:30:42Z</time></trkpt><trkpt lat="44.51149313555857" lon="10.544685713748128"><ele>481.00000000000006</ele><time>2026-04-06T14:30:43Z</time></trkpt><trkpt lat="44.511542961657646" lon="10.54457366843426"><ele>481.0</ele><time>2026-04-06T14:30:44Z</time></trkpt><trkpt lat="44.511602023252955" lon="10.544471276299955"><ele>481.0</ele><time>2026-04-06T14:30:45Z</time></trkpt><trkpt lat="44.51165281204786" lon="10.544406949362514"><ele>481.0</ele><time>2026-04-06T14:30:47Z</time></trkpt><trkpt lat="44.51173408048646" lon="10.544337422151417"><ele>481.00000000000006</ele><time>2026-04-06T14:30:49Z</time></trkpt><trkpt lat="44.51179515393332" lon="10.544253103337288"><ele>481.0</ele><time>2026-04-06T14:30:59Z</time></trkpt><trkpt lat="44.51185500972953" lon="10.544153515526522"><ele>481.50000000000006</ele><time>2026-04-06T14:31:01Z</time></trkpt><trkpt lat="44.511895787860276" lon="10.544072001658943"><ele>482.0</ele><time>2026-04-06T14:31:02Z</time></trkpt><trkpt lat="44.511935738562116" lon="10.543984117216562"><ele>482.5</ele><time>2026-04-06T14:31:03Z</time></trkpt><trkpt lat="44.51196913276534" lon="10.543901224680505"><ele>483.0</ele><time>2026-04-06T14:31:04Z</time></trkpt><trkpt lat="44.51200667452055" lon="10.543830193923618"><ele>483.50000000000006</ele><time>2026-04-06T14:31:05Z</time></trkpt><trkpt lat="44.51206316734073" lon="10.543775877485196"><ele>484.0</ele><time>2026-04-06T14:31:06Z</time></trkpt><trkpt lat="44.51218834879085" lon="10.543706713739832"><ele>484.00000000000006</ele><time>2026-04-06T14:31:07Z</time></trkpt><trkpt lat="44.51227184344361" lon="10.54364732428446"><ele>484.0</ele><time>2026-04-06T14:31:08Z</time></trkpt><trkpt lat="44.51232778704344" lon="10.543579319153782"><ele>484.0</ele><time>2026-04-06T14:31:09Z</time></trkpt><trkpt lat="44.5123682502494" lon="10.543478783520646"><ele>484.0</ele><time>2026-04-06T14:31:10Z</time></trkpt><trkpt lat="44.512403913968235" lon="10.543362542689094"><ele>484.00000000000006</ele><time>2026-04-06T14:31:11Z</time></trkpt><trkpt lat="44.512454471854824" lon="10.543289114684587"><ele>484.0</ele><time>2026-04-06T14:31:12Z</time></trkpt><trkpt lat="44.51255925132175" lon="10.5431960189675"><ele>484.0</ele><time>2026-04-06T14:31:14Z</time></trkpt><trkpt lat="44.51264480881487" lon="10.543145465712886"><ele>484.0</ele><time>2026-04-06T14:31:15Z</time></trkpt><trkpt lat="44.512726128865914" lon="10.543135875667208"><ele>484.0</ele><time>2026-04-06T14:31:17Z</time></trkpt><trkpt lat="44.51279886728236" lon="10.543039947525918"><ele>484.0</ele><time>2026-04-06T14:31:19Z</time></trkpt><trkpt lat="44.51288861277843" lon="10.542981932990394"><ele>484.0</ele><time>2026-04-06T14:31:21Z</time></trkpt><trkpt lat="44.51303156616976" lon="10.543060697631098"><ele>484.0</ele><time>2026-04-06T14:31:23Z</time></trkpt><trkpt lat="44.513112771272354" lon="10.543200510026288"><ele>484.0</ele><time>2026-04-06T14:31:24Z</time></trkpt><trkpt lat="44.513170077475465" lon="10.543254185427484"><ele>484.0</ele><time>2026-04-06T14:31:25Z</time></trkpt><trkpt lat="44.513279294474266" lon="10.54316927518803"><ele>484.0</ele><time>2026-04-06T14:31:27Z</time></trkpt><trkpt lat="44.51336476578566" lon="10.543171517819893"><ele>484.0</ele><time>2026-04-06T14:31:29Z</time></trkpt><trkpt lat="44.51341717254696" lon="10.543223218252663"><ele>484.0</ele><time>2026-04-06T14:31:32Z</time></trkpt><trkpt lat="44.513428612888994" lon="10.543326811919275"><ele>484.0</ele><time>2026-04-06T14:31:34Z</time></trkpt><trkpt lat="44.513522792674856" lon="10.543337554342695"><ele>484.0</ele><time>2026-04-06T14:31:37Z</time></trkpt><trkpt lat="44.51366423978999" lon="10.543306236979882"><ele>484.0</ele><time>2026-04-06T14:31:38Z</time></trkpt><trkpt lat="44.513755941556774" lon="10.543286103807075"><ele>484.0</ele><time>2026-04-06T14:31:39Z</time></trkpt><trkpt lat="44.51386417451109" lon="10.543344089104448"><ele>487.0</ele><time>2026-04-06T14:31:40Z</time></trkpt><trkpt lat="44.51399038164137" lon="10.543435495761663"><ele>490.0</ele><time>2026-04-06T14:31:41Z</time></trkpt><trkpt lat="44.51410672068067" lon="10.543528828725442"><ele>493.0</ele><time>2026-04-06T14:31:42Z</time></trkpt><trkpt lat="44.514152054335874" lon="10.543658232976567"><ele>496.0</ele><time>2026-04-06T14:31:43Z</time></trkpt><trkpt lat="44.51419504499536" lon="10.543808029270604"><ele>497.4</ele><time>2026-04-06T14:31:44Z</time></trkpt><trkpt lat="44.51423961645116" lon="10.543981166967502"><ele>498.8</ele><time>2026-04-06T14:31:45Z</time></trkpt><trkpt lat="44.51428626288059" lon="10.54413816143174"><ele>500.19999999999993</ele><time>2026-04-06T14:31:46Z</time></trkpt><trkpt lat="44.514316679640146" lon="10.5442677491099"><ele>501.59999999999997</ele><time>2026-04-06T14:31:47Z</time></trkpt><trkpt lat="44.51434850393842" lon="10.544378640874227"><ele>503.0</ele><time>2026-04-06T14:31:48Z</time></trkpt><trkpt lat="44.51437106279682" lon="10.54448213768679"><ele>503.0</ele><time>2026-04-06T14:31:49Z</time></trkpt><trkpt lat="44.514431360460996" lon="10.544539713136468"><ele>502.99999999999994</ele><time>2026-04-06T14:31:50Z</time></trkpt><trkpt lat="44.5145066885017" lon="10.544607044454638"><ele>502.99999999999994</ele><time>2026-04-06T14:31:51Z</time></trkpt><trkpt lat="44.514607483642415" lon="10.544723794911473"><ele>503.0</ele><time>2026-04-06T14:31:52Z</time></trkpt><trkpt lat="44.514666326868564" lon="10.544805749412495"><ele>503.0</ele><time>2026-04-06T14:31:53Z</time></trkpt><trkpt lat="44.514805535387524" lon="10.544833601023079"><ele>505.59999999999997</ele><time>2026-04-06T14:31:55Z</time></trkpt><trkpt lat="44.51487183549283" lon="10.544843806597688"><ele>508.19999999999993</ele><time>2026-04-06T14:31:56Z</time></trkpt><trkpt lat="44.51493673814631" lon="10.544886603096504"><ele>510.8</ele><time>2026-04-06T14:31:57Z</time></trkpt><trkpt lat="44.515016400746156" lon="10.544950142324483"><ele>513.4</ele><time>2026-04-06T14:31:59Z</time></trkpt><trkpt lat="44.51510110019661" lon="10.545009836353053"><ele>516.0</ele><time>2026-04-06T14:32:02Z</time></trkpt><trkpt lat="44.51522764547801" lon="10.545051008506361"><ele>516.0</ele><time>2026-04-06T14:32:06Z</time></trkpt><trkpt lat="44.51532843119592" lon="10.545186248559444"><ele>516.0</ele><time>2026-04-06T14:32:07Z</time></trkpt><trkpt lat="44.51537186291159" lon="10.545298944402061"><ele>516.0</ele><time>2026-04-06T14:32:08Z</time></trkpt><trkpt lat="44.515338100573054" lon="10.545440376850328"><ele>516.0</ele><time>2026-04-06T14:32:10Z</time></trkpt><trkpt lat="44.51532614146014" lon="10.545539665048912"><ele>516.0</ele><time>2026-04-06T14:32:13Z</time></trkpt><trkpt lat="44.51526009453427" lon="10.545511877493823"><ele>519.5</ele><time>2026-04-06T14:32:16Z</time></trkpt><trkpt lat="44.51515610916597" lon="10.54547235766953"><ele>523.0</ele><time>2026-04-06T14:32:18Z</time></trkpt><trkpt lat="44.51508700977797" lon="10.545435536762339"><ele>526.5</ele><time>2026-04-06T14:32:20Z</time></trkpt><trkpt lat="44.51503390944273" lon="10.545490879413252"><ele>530.0</ele><time>2026-04-06T14:32:21Z</time></trkpt><trkpt lat="44.51500527718944" lon="10.545587490091611"><ele>533.5</ele><time>2026-04-06T14:32:23.999Z</time></trkpt><trkpt lat="44.514973683147424" lon="10.545714904329893"><ele>537.0</ele><time>2026-04-06T14:32:27Z</time></trkpt><trkpt lat="44.514910858247916" lon="10.54574996906439"><ele>537.0</ele><time>2026-04-06T14:32:29Z</time></trkpt><trkpt lat="44.51482501049753" lon="10.545817200108932"><ele>537.0</ele><time>2026-04-06T14:32:32Z</time></trkpt><trkpt lat="44.5147547657147" lon="10.545772355885637"><ele>537.0</ele><time>2026-04-06T14:32:34Z</time></trkpt><trkpt lat="44.514657312315194" lon="10.545805876759731"><ele>537.0</ele><time>2026-04-06T14:32:36Z</time></trkpt><trkpt lat="44.51457769970558" lon="10.545875306751514"><ele>537.0</ele><time>2026-04-06T14:32:38Z</time></trkpt><trkpt lat="44.51450841973667" lon="10.545952793067789"><ele>538.8000000000001</ele><time>2026-04-06T14:32:39Z</time></trkpt><trkpt lat="44.514440621566216" lon="10.546085594637754"><ele>540.6</ele><time>2026-04-06T14:32:40Z</time></trkpt><trkpt lat="44.514375335671375" lon="10.546188663890339"><ele>542.4000000000001</ele><time>2026-04-06T14:32:41Z</time></trkpt><trkpt lat="44.5142985822071" lon="10.54622770406739"><ele>544.2</ele><time>2026-04-06T14:32:42Z</time></trkpt><trkpt lat="44.5141896214116" lon="10.546274225914637"><ele>546.0</ele><time>2026-04-06T14:32:44Z</time></trkpt><trkpt lat="44.51408729108045" lon="10.546225160798198"><ele>549.1666666666666</ele><time>2026-04-06T14:32:45Z</time></trkpt><trkpt lat="44.51407177463368" lon="10.546321798348732"><ele>552.3333333333334</ele><time>2026-04-06T14:32:47Z</time></trkpt><trkpt lat="44.514144123879525" lon="10.546380555010563"><ele>555.5</ele><time>2026-04-06T14:32:49Z</time></trkpt><trkpt lat="44.51420812134348" lon="10.546409967199295"><ele>558.6666666666667</ele><time>2026-04-06T14:32:50Z</time></trkpt><trkpt lat="44.51427699569724" lon="10.54650379907245"><ele>561.8333333333334</ele><time>2026-04-06T14:32:51Z</time></trkpt><trkpt lat="44.51430653920154" lon="10.546662953080704"><ele>565.0</ele><time>2026-04-06T14:32:53Z</time></trkpt><trkpt lat="44.51426809661038" lon="10.546747141407378"><ele>565.0</ele><time>2026-04-06T14:32:54Z</time></trkpt><trkpt lat="44.514205645433556" lon="10.546774390248348"><ele>565.0</ele><time>2026-04-06T14:32:55Z</time></trkpt><trkpt lat="44.514170712966695" lon="10.546860145121984"><ele>565.0</ele><time>2026-04-06T14:32:59Z</time></trkpt><trkpt lat="44.51419305100553" lon="10.547009420294884"><ele>565.0</ele><time>2026-04-06T14:33:02Z</time></trkpt><trkpt lat="44.51418147102452" lon="10.54717034661722"><ele>565.0</ele><time>2026-04-06T14:33:04Z</time></trkpt><trkpt lat="44.51422070358144" lon="10.547362387357204"><ele>566.1666666666667</ele><time>2026-04-06T14:33:05Z</time></trkpt><trkpt lat="44.51420716999392" lon="10.547471378373501"><ele>567.3333333333334</ele><time>2026-04-06T14:33:06Z</time></trkpt><trkpt lat="44.514201224811885" lon="10.547588515799672"><ele>568.5</ele><time>2026-04-06T14:33:07Z</time></trkpt><trkpt lat="44.51420688714434" lon="10.54768812127783"><ele>569.6666666666666</ele><time>2026-04-06T14:33:08Z</time></trkpt><trkpt lat="44.51427673540541" lon="10.547790488319528"><ele>570.8333333333333</ele><time>2026-04-06T14:33:10Z</time></trkpt><trkpt lat="44.5143511532099" lon="10.547839358337885"><ele>572.0</ele><time>2026-04-06T14:33:11Z</time></trkpt><trkpt lat="44.51445256709298" lon="10.547909082860158"><ele>572.0</ele><time>2026-04-06T14:33:12Z</time></trkpt><trkpt lat="44.51452675793051" lon="10.547958910514987"><ele>572.0</ele><time>2026-04-06T14:33:13Z</time></trkpt><trkpt lat="44.51458904623628" lon="10.548005413564333"><ele>572.0</ele><time>2026-04-06T14:33:14Z</time></trkpt><trkpt lat="44.5146405990181" lon="10.54806944177835"><ele>572.0</ele><time>2026-04-06T14:33:15Z</time></trkpt><trkpt lat="44.51475966796229" lon="10.548189695237618"><ele>572.0</ele><time>2026-04-06T14:33:17Z</time></trkpt><trkpt lat="44.51487240122122" lon="10.548258561982912"><ele>576.1666666666666</ele><time>2026-04-06T14:33:18Z</time></trkpt><trkpt lat="44.514956963597136" lon="10.548314038515887"><ele>580.3333333333333</ele><time>2026-04-06T14:33:19Z</time></trkpt><trkpt lat="44.5150447755736" lon="10.548353045977214"><ele>584.5</ele><time>2026-04-06T14:33:20Z</time></trkpt><trkpt lat="44.51513617948182" lon="10.548344258587337"><ele>588.6666666666666</ele><time>2026-04-06T14:33:21Z</time></trkpt><trkpt lat="44.515212769955355" lon="10.548354585619737"><ele>592.8333333333334</ele><time>2026-04-06T14:33:22Z</time></trkpt><trkpt lat="44.51526750512109" lon="10.548460228395"><ele>597.0</ele><time>2026-04-06T14:33:23Z</time></trkpt><trkpt lat="44.51534402769138" lon="10.54853039712948"><ele>597.0</ele><time>2026-04-06T14:33:25Z</time></trkpt><trkpt lat="44.515394166107555" lon="10.548635388391515"><ele>597.0</ele><time>2026-04-06T14:33:26Z</time></trkpt><trkpt lat="44.515449891694395" lon="10.54876224925332"><ele>597.0</ele><time>2026-04-06T14:33:27Z</time></trkpt><trkpt lat="44.5155048813094" lon="10.548876129666443"><ele>597.0</ele><time>2026-04-06T14:33:28Z</time></trkpt><trkpt lat="44.51561061105054" lon="10.549019564429033"><ele>597.0</ele><time>2026-04-06T14:33:29Z</time></trkpt><trkpt lat="44.51570442969872" lon="10.549140298437777"><ele>596.5</ele><time>2026-04-06T14:33:30Z</time></trkpt><trkpt lat="44.51579597994688" lon="10.549264453838278"><ele>596.0</ele><time>2026-04-06T14:33:31Z</time></trkpt><trkpt lat="44.51586926776931" lon="10.549408498170777"><ele>595.5</ele><time>2026-04-06T14:33:32Z</time></trkpt><trkpt lat="44.515942291595046" lon="10.549558391558714"><ele>595.0</ele><time>2026-04-06T14:33:33Z</time></trkpt><trkpt lat="44.516017106685325" lon="10.54970515350639"><ele>593.75</ele><time>2026-04-06T14:33:34Z</time></trkpt><trkpt lat="44.51608310373474" lon="10.549865027788366"><ele>592.5</ele><time>2026-04-06T14:33:35Z</time></trkpt><trkpt lat="44.51614932611197" lon="10.550023090525615"><ele>591.25</ele><time>2026-04-06T14:33:36Z</time></trkpt><trkpt lat="44.51620214916527" lon="10.550195236321583"><ele>590.0</ele><time>2026-04-06T14:33:37Z</time></trkpt><trkpt lat="44.516259142725296" lon="10.550321701832434"><ele>590.0</ele><time>2026-04-06T14:33:38Z</time></trkpt><trkpt lat="44.516321727726414" lon="10.550466536029544"><ele>590.0</ele><time>2026-04-06T14:33:39Z</time></trkpt><trkpt lat="44.5163818256814" lon="10.550612234182966"><ele>590.0</ele><time>2026-04-06T14:33:40Z</time></trkpt><trkpt lat="44.51643032261079" lon="10.550747273347547"><ele>590.0</ele><time>2026-04-06T14:33:41Z</time></trkpt><trkpt lat="44.516462706521935" lon="10.550902949067469"><ele>590.0</ele><time>2026-04-06T14:33:42Z</time></trkpt><trkpt lat="44.51646774479609" lon="10.551075217314764"><ele>590.0</ele><time>2026-04-06T14:33:43Z</time></trkpt><trkpt lat="44.5164892430827" lon="10.551259888803315"><ele>590.0</ele><time>2026-04-06T14:33:44Z</time></trkpt><trkpt lat="44.51653022225496" lon="10.551450901551831"><ele>590.0</ele><time>2026-04-06T14:33:45Z</time></trkpt><trkpt lat="44.51658728926614" lon="10.551605086430774"><ele>588.25</ele><time>2026-04-06T14:33:46Z</time></trkpt><trkpt lat="44.51664977393002" lon="10.551754617927939"><ele>586.5</ele><time>2026-04-06T14:33:47Z</time></trkpt><trkpt lat="44.51673348358921" lon="10.551922342783351"><ele>584.75</ele><time>2026-04-06T14:33:48Z</time></trkpt><trkpt lat="44.5168161046271" lon="10.55207235467198"><ele>583.0</ele><time>2026-04-06T14:33:49Z</time></trkpt><trkpt lat="44.51687730759131" lon="10.552205629113015"><ele>581.5</ele><time>2026-04-06T14:33:50Z</time></trkpt><trkpt lat="44.516923082224324" lon="10.55235753876154"><ele>580.0</ele><time>2026-04-06T14:33:51Z</time></trkpt><trkpt lat="44.51696121113384" lon="10.552521188796886"><ele>578.5</ele><time>2026-04-06T14:33:52Z</time></trkpt><trkpt lat="44.516986843717724" lon="10.552718292167077"><ele>577.0</ele><time>2026-04-06T14:33:53Z</time></trkpt><trkpt lat="44.51701638213632" lon="10.552911812971896"><ele>577.0</ele><time>2026-04-06T14:33:54Z</time></trkpt><trkpt lat="44.5170367940469" lon="10.553089892561193"><ele>577.0</ele><time>2026-04-06T14:33:55Z</time></trkpt><trkpt lat="44.517074042231926" lon="10.55324311187792"><ele>577.0</ele><time>2026-04-06T14:33:56Z</time></trkpt><trkpt lat="44.51712370636137" lon="10.55342605789056"><ele>577.0</ele><time>2026-04-06T14:33:57Z</time></trkpt><trkpt lat="44.51718581592464" lon="10.553590947102508"><ele>579.75</ele><time>2026-04-06T14:33:58Z</time></trkpt><trkpt lat="44.51725345682271" lon="10.553781877974682"><ele>582.5</ele><time>2026-04-06T14:33:59Z</time></trkpt><trkpt lat="44.51731606111723" lon="10.553968929418375"><ele>585.25</ele><time>2026-04-06T14:34:00Z</time></trkpt><trkpt lat="44.51736736428667" lon="10.55414271308189"><ele>588.0</ele><time>2026-04-06T14:34:01Z</time></trkpt><trkpt lat="44.517421790271335" lon="10.554311792555186"><ele>588.0</ele><time>2026-04-06T14:34:02Z</time></trkpt><trkpt lat="44.51748293504878" lon="10.554472622931234"><ele>588.0</ele><time>2026-04-06T14:34:03Z</time></trkpt><trkpt lat="44.51754782600003" lon="10.554632029447223"><ele>588.0</ele><time>2026-04-06T14:34:04Z</time></trkpt><trkpt lat="44.51759598684945" lon="10.554784091273545"><ele>588.0</ele><time>2026-04-06T14:34:05Z</time></trkpt><trkpt lat="44.517645558268335" lon="10.554943128633964"><ele>588.1999999999999</ele><time>2026-04-06T14:34:06Z</time></trkpt><trkpt lat="44.51768814883767" lon="10.555089352468256"><ele>588.4</ele><time>2026-04-06T14:34:07Z</time></trkpt><trkpt lat="44.517735416198164" lon="10.555228675846053"><ele>588.5999999999999</ele><time>2026-04-06T14:34:08Z</time></trkpt><trkpt lat="44.51778589846835" lon="10.555361042566894"><ele>588.8</ele><time>2026-04-06T14:34:09Z</time></trkpt><trkpt lat="44.51784628224929" lon="10.555490637993694"><ele>589.0</ele><time>2026-04-06T14:34:10Z</time></trkpt><trkpt lat="44.517905574569895" lon="10.555609643509651"><ele>590.0</ele><time>2026-04-06T14:34:11Z</time></trkpt><trkpt lat="44.51796252853939" lon="10.555730799092741"><ele>591.0</ele><time>2026-04-06T14:34:12Z</time></trkpt><trkpt lat="44.518013080867796" lon="10.55584648047766"><ele>592.0</ele><time>2026-04-06T14:34:13Z</time></trkpt><trkpt lat="44.51807196431947" lon="10.555947302266162"><ele>593.0</ele><time>2026-04-06T14:34:14Z</time></trkpt><trkpt lat="44.518139474489544" lon="10.556023061194292"><ele>594.0</ele><time>2026-04-06T14:34:15Z</time></trkpt><trkpt lat="44.51821894324248" lon="10.556070876957719"><ele>594.0</ele><time>2026-04-06T14:34:16Z</time></trkpt><trkpt lat="44.518303307250534" lon="10.55608830580745"><ele>594.0</ele><time>2026-04-06T14:34:17Z</time></trkpt><trkpt lat="44.518393699716796" lon="10.556081834390161"><ele>594.0</ele><time>2026-04-06T14:34:18Z</time></trkpt><trkpt lat="44.51849674287182" lon="10.556052892460192"><ele>594.0</ele><time>2026-04-06T14:34:19Z</time></trkpt><trkpt lat="44.51859348645867" lon="10.556019011571"><ele>594.0</ele><time>2026-04-06T14:34:20Z</time></trkpt><trkpt lat="44.518678064055955" lon="10.555982562223646"><ele>593.4</ele><time>2026-04-06T14:34:21Z</time></trkpt><trkpt lat="44.51876251650657" lon="10.55597111723765"><ele>592.8</ele><time>2026-04-06T14:34:22Z</time></trkpt><trkpt lat="44.51883561168008" lon="10.555982617256362"><ele>592.2</ele><time>2026-04-06T14:34:23Z</time></trkpt><trkpt lat="44.51889377551598" lon="10.55610310230468"><ele>591.6</ele><time>2026-04-06T14:34:25Z</time></trkpt><trkpt lat="44.51882207028852" lon="10.556277076157516"><ele>591.0</ele><time>2026-04-06T14:34:27Z</time></trkpt><trkpt lat="44.51877963161783" lon="10.556376576093744"><ele>590.8333333333334</ele><time>2026-04-06T14:34:28Z</time></trkpt><trkpt lat="44.51874377820539" lon="10.55648834219012"><ele>590.6666666666666</ele><time>2026-04-06T14:34:29Z</time></trkpt><trkpt lat="44.518698451495695" lon="10.556598856658233"><ele>590.5</ele><time>2026-04-06T14:34:30Z</time></trkpt><trkpt lat="44.51865213867129" lon="10.556706775524907"><ele>590.3333333333333</ele><time>2026-04-06T14:34:31Z</time></trkpt><trkpt lat="44.51860624128009" lon="10.556816981715103"><ele>590.1666666666666</ele><time>2026-04-06T14:34:32Z</time></trkpt><trkpt lat="44.51857509374616" lon="10.55691902898518"><ele>590.0</ele><time>2026-04-06T14:34:33Z</time></trkpt><trkpt lat="44.51856489842502" lon="10.557024158681836"><ele>586.6666666666666</ele><time>2026-04-06T14:34:34Z</time></trkpt><trkpt lat="44.51856575030693" lon="10.557135910120978"><ele>583.3333333333333</ele><time>2026-04-06T14:34:35Z</time></trkpt><trkpt lat="44.51857160257351" lon="10.557247976572373"><ele>580.0</ele><time>2026-04-06T14:34:36Z</time></trkpt><trkpt lat="44.51857823401298" lon="10.557344292244572"><ele>576.6666666666666</ele><time>2026-04-06T14:34:37Z</time></trkpt><trkpt lat="44.51857058116145" lon="10.557463978974097"><ele>573.3333333333334</ele><time>2026-04-06T14:34:39Z</time></trkpt><trkpt lat="44.51845741464863" lon="10.557500041271675"><ele>570.0</ele><time>2026-04-06T14:34:40Z</time></trkpt><trkpt lat="44.51838495172564" lon="10.5575017166177"><ele>570.0</ele><time>2026-04-06T14:34:41Z</time></trkpt><trkpt lat="44.51830131609944" lon="10.557517643421022"><ele>570.0</ele><time>2026-04-06T14:34:42Z</time></trkpt><trkpt lat="44.51819926347387" lon="10.55759060484106"><ele>570.0</ele><time>2026-04-06T14:34:44Z</time></trkpt><trkpt lat="44.51818676053118" lon="10.55771698108278"><ele>570.0</ele><time>2026-04-06T14:34:45Z</time></trkpt><trkpt lat="44.51823486559368" lon="10.557851540916555"><ele>570.0</ele><time>2026-04-06T14:34:46Z</time></trkpt><trkpt lat="44.51826904690097" lon="10.557977787543695"><ele>569.0</ele><time>2026-04-06T14:34:47Z</time></trkpt><trkpt lat="44.51829570770482" lon="10.55808689335203"><ele>568.0</ele><time>2026-04-06T14:34:48Z</time></trkpt><trkpt lat="44.518323587966684" lon="10.558214774836701"><ele>567.0</ele><time>2026-04-06T14:34:49Z</time></trkpt><trkpt lat="44.51834722371567" lon="10.558326537356306"><ele>566.0</ele><time>2026-04-06T14:34:50Z</time></trkpt><trkpt lat="44.51837024511564" lon="10.558442797130592"><ele>565.0</ele><time>2026-04-06T14:34:51Z</time></trkpt><trkpt lat="44.51839180947262" lon="10.55855169016286"><ele>564.0</ele><time>2026-04-06T14:34:52Z</time></trkpt><trkpt lat="44.518426805345605" lon="10.55864892428019"><ele>564.1666666666666</ele><time>2026-04-06T14:34:53Z</time></trkpt><trkpt lat="44.518436287192735" lon="10.558767716625706"><ele>564.3333333333334</ele><time>2026-04-06T14:34:54Z</time></trkpt><trkpt lat="44.518459373567985" lon="10.55886851765591"><ele>564.5</ele><time>2026-04-06T14:34:55Z</time></trkpt><trkpt lat="44.518513489864596" lon="10.558966215915175"><ele>564.6666666666667</ele><time>2026-04-06T14:34:56Z</time></trkpt><trkpt lat="44.51856184713492" lon="10.55907735431572"><ele>564.8333333333334</ele><time>2026-04-06T14:34:57Z</time></trkpt><trkpt lat="44.518584295559194" lon="10.559179930284959"><ele>565.0</ele><time>2026-04-06T14:34:58Z</time></trkpt><trkpt lat="44.51861197465015" lon="10.559290388303497"><ele>565.0</ele><time>2026-04-06T14:34:59Z</time></trkpt><trkpt lat="44.51861470062224" lon="10.559395339834122"><ele>565.0</ele><time>2026-04-06T14:35:00Z</time></trkpt><trkpt lat="44.51866150209139" lon="10.559548519365837"><ele>565.0</ele><time>2026-04-06T14:35:02Z</time></trkpt><trkpt lat="44.5186952470279" lon="10.559664362107794"><ele>565.0</ele><time>2026-04-06T14:35:03Z</time></trkpt><trkpt lat="44.51872485006309" lon="10.559781357382258"><ele>565.0</ele><time>2026-04-06T14:35:04Z</time></trkpt><trkpt lat="44.51877179329964" lon="10.559895601727321"><ele>563.2857142857142</ele><time>2026-04-06T14:35:05Z</time></trkpt><trkpt lat="44.51880987493268" lon="10.559987284723874"><ele>561.5714285714286</ele><time>2026-04-06T14:35:06Z</time></trkpt><trkpt lat="44.51885241580034" lon="10.560059272033982"><ele>559.8571428571429</ele><time>2026-04-06T14:35:07Z</time></trkpt><trkpt lat="44.51887450705206" lon="10.560150451828708"><ele>558.1428571428571</ele><time>2026-04-06T14:35:08Z</time></trkpt><trkpt lat="44.518900658524494" lon="10.560233840407653"><ele>556.4285714285714</ele><time>2026-04-06T14:35:09Z</time></trkpt><trkpt lat="44.51892922116217" lon="10.560345051162074"><ele>554.7142857142857</ele><time>2026-04-06T14:35:13Z</time></trkpt><trkpt lat="44.51885656205018" lon="10.560412210926811"><ele>553.0</ele><time>2026-04-06T14:35:14Z</time></trkpt><trkpt lat="44.51874363546001" lon="10.56048536785535"><ele>553.0</ele><time>2026-04-06T14:35:16Z</time></trkpt><trkpt lat="44.518650057116865" lon="10.56054033174694"><ele>553.0</ele><time>2026-04-06T14:35:17Z</time></trkpt><trkpt lat="44.51856381758162" lon="10.560589657766066"><ele>553.0</ele><time>2026-04-06T14:35:18Z</time></trkpt><trkpt lat="44.51846957944425" lon="10.56063682023564"><ele>553.0</ele><time>2026-04-06T14:35:19Z</time></trkpt><trkpt lat="44.518363274634815" lon="10.560671466147378"><ele>553.0</ele><time>2026-04-06T14:35:20Z</time></trkpt><trkpt lat="44.51826278202714" lon="10.560692834518944"><ele>553.0</ele><time>2026-04-06T14:35:21Z</time></trkpt><trkpt lat="44.518165856364334" lon="10.560704254056292"><ele>553.0</ele><time>2026-04-06T14:35:22Z</time></trkpt><trkpt lat="44.518072651432945" lon="10.560715413423448"><ele>553.0</ele><time>2026-04-06T14:35:23Z</time></trkpt><trkpt lat="44.517991456434956" lon="10.560739459999121"><ele>553.0</ele><time>2026-04-06T14:35:24Z</time></trkpt><trkpt lat="44.51791589498453" lon="10.560770779338933"><ele>553.0</ele><time>2026-04-06T14:35:25Z</time></trkpt><trkpt lat="44.51776566608991" lon="10.560882831036947"><ele>553.25</ele><time>2026-04-06T14:35:27Z</time></trkpt><trkpt lat="44.51775902276953" lon="10.561100743552807"><ele>553.5</ele><time>2026-04-06T14:35:28Z</time></trkpt><trkpt lat="44.51770150158144" lon="10.561249049174043"><ele>553.75</ele><time>2026-04-06T14:35:29Z</time></trkpt><trkpt lat="44.51764896882621" lon="10.561392171801653"><ele>554.0</ele><time>2026-04-06T14:35:30Z</time></trkpt><trkpt lat="44.51758188339432" lon="10.561540802725068"><ele>554.0</ele><time>2026-04-06T14:35:31Z</time></trkpt><trkpt lat="44.51751193180363" lon="10.561687320620159"><ele>554.0</ele><time>2026-04-06T14:35:32Z</time></trkpt><trkpt lat="44.51744550864275" lon="10.561821927149401"><ele>554.0</ele><time>2026-04-06T14:35:33Z</time></trkpt><trkpt lat="44.51737177989146" lon="10.561953863267872"><ele>554.0</ele><time>2026-04-06T14:35:34Z</time></trkpt><trkpt lat="44.51729574839885" lon="10.562077884118807"><ele>554.5</ele><time>2026-04-06T14:35:35Z</time></trkpt><trkpt lat="44.5172367034111" lon="10.562228601556518"><ele>555.0</ele><time>2026-04-06T14:35:36Z</time></trkpt><trkpt lat="44.517197030805306" lon="10.56239321707465"><ele>555.5</ele><time>2026-04-06T14:35:37Z</time></trkpt><trkpt lat="44.517146136575285" lon="10.562549080304093"><ele>556.0</ele><time>2026-04-06T14:35:38Z</time></trkpt><trkpt lat="44.51709837604492" lon="10.56270685796811"><ele>556.0</ele><time>2026-04-06T14:35:39Z</time></trkpt><trkpt lat="44.51705236746839" lon="10.56286816660897"><ele>556.0</ele><time>2026-04-06T14:35:40Z</time></trkpt><trkpt lat="44.517004352044296" lon="10.563026535906307"><ele>556.0</ele><time>2026-04-06T14:35:41Z</time></trkpt><trkpt lat="44.51695074760572" lon="10.563175889610061"><ele>556.0</ele><time>2026-04-06T14:35:42Z</time></trkpt><trkpt lat="44.51689999686688" lon="10.563324574097086"><ele>556.0</ele><time>2026-04-06T14:35:43Z</time></trkpt><trkpt lat="44.516845337435406" lon="10.563470372945664"><ele>556.0</ele><time>2026-04-06T14:35:44Z</time></trkpt><trkpt lat="44.51679887504829" lon="10.56361354339274"><ele>556.0</ele><time>2026-04-06T14:35:45Z</time></trkpt><trkpt lat="44.5167544972645" lon="10.563761731310478"><ele>556.0</ele><time>2026-04-06T14:35:46Z</time></trkpt><trkpt lat="44.51670746351726" lon="10.563903137400128"><ele>555.6</ele><time>2026-04-06T14:35:47Z</time></trkpt><trkpt lat="44.516655690445674" lon="10.564027953249914"><ele>555.2</ele><time>2026-04-06T14:35:48Z</time></trkpt><trkpt lat="44.51659062978753" lon="10.564132897191664"><ele>554.8</ele><time>2026-04-06T14:35:49Z</time></trkpt><trkpt lat="44.516518312028865" lon="10.564227146159118"><ele>554.4</ele><time>2026-04-06T14:35:50Z</time></trkpt><trkpt lat="44.516433444718594" lon="10.564307657377402"><ele>554.0</ele><time>2026-04-06T14:35:51Z</time></trkpt><trkpt lat="44.51633336928759" lon="10.564384711817628"><ele>555.0</ele><time>2026-04-06T14:35:52Z</time></trkpt><trkpt lat="44.51621932535211" lon="10.564451056645447"><ele>556.0</ele><time>2026-04-06T14:35:53Z</time></trkpt><trkpt lat="44.51610699149088" lon="10.564534906093877"><ele>557.0</ele><time>2026-04-06T14:35:54Z</time></trkpt><trkpt lat="44.516011278362804" lon="10.56464327547415"><ele>558.0</ele><time>2026-04-06T14:35:55Z</time></trkpt><trkpt lat="44.51592845139136" lon="10.56478125575619"><ele>558.75</ele><time>2026-04-06T14:35:56Z</time></trkpt><trkpt lat="44.515857129063505" lon="10.564928886325367"><ele>559.5</ele><time>2026-04-06T14:35:57Z</time></trkpt><trkpt lat="44.515798467773315" lon="10.56507992928979"><ele>560.25</ele><time>2026-04-06T14:35:58Z</time></trkpt><trkpt lat="44.51575377945562" lon="10.565234185371395"><ele>561.0</ele><time>2026-04-06T14:35:59Z</time></trkpt><trkpt lat="44.51572791052802" lon="10.565390925743392"><ele>561.0</ele><time>2026-04-06T14:36:00Z</time></trkpt><trkpt lat="44.515711066284545" lon="10.565552066059567"><ele>561.0</ele><time>2026-04-06T14:36:01Z</time></trkpt><trkpt lat="44.515685355598606" lon="10.565704291588435"><ele>561.0</ele><time>2026-04-06T14:36:02Z</time></trkpt><trkpt lat="44.51564934417699" lon="10.565856138423463"><ele>561.0</ele><time>2026-04-06T14:36:03Z</time></trkpt><trkpt lat="44.51558993256053" lon="10.565999158974659"><ele>561.0</ele><time>2026-04-06T14:36:04Z</time></trkpt><trkpt lat="44.51552014835492" lon="10.566143056500353"><ele>561.0</ele><time>2026-04-06T14:36:05Z</time></trkpt><trkpt lat="44.51544021764111" lon="10.566282014959201"><ele>561.0</ele><time>2026-04-06T14:36:06Z</time></trkpt><trkpt lat="44.515359027364376" lon="10.566416135125966"><ele>561.0</ele><time>2026-04-06T14:36:07Z</time></trkpt><trkpt lat="44.515286230408414" lon="10.566551800773924"><ele>561.25</ele><time>2026-04-06T14:36:08Z</time></trkpt><trkpt lat="44.515227838806695" lon="10.56669946483623"><ele>561.5</ele><time>2026-04-06T14:36:09Z</time></trkpt><trkpt lat="44.51517435318512" lon="10.566856505778286"><ele>561.75</ele><time>2026-04-06T14:36:10Z</time></trkpt><trkpt lat="44.51512042188793" lon="10.567019972253323"><ele>562.0</ele><time>2026-04-06T14:36:11Z</time></trkpt><trkpt lat="44.51507114071485" lon="10.567186179750458"><ele>561.0</ele><time>2026-04-06T14:36:12Z</time></trkpt><trkpt lat="44.51502899754668" lon="10.567357560613662"><ele>560.0</ele><time>2026-04-06T14:36:13Z</time></trkpt><trkpt lat="44.51499570070044" lon="10.567497463671456"><ele>559.0</ele><time>2026-04-06T14:36:14Z</time></trkpt><trkpt lat="44.51496209127822" lon="10.567654945301634"><ele>558.0</ele><time>2026-04-06T14:36:15Z</time></trkpt><trkpt lat="44.51493214038791" lon="10.567825219408048"><ele>557.0</ele><time>2026-04-06T14:36:16Z</time></trkpt><trkpt lat="44.51490638340602" lon="10.568008846645501"><ele>556.0</ele><time>2026-04-06T14:36:17Z</time></trkpt><trkpt lat="44.514883392542465" lon="10.56820080426496"><ele>555.0</ele><time>2026-04-06T14:36:18Z</time></trkpt><trkpt lat="44.514860424564255" lon="10.568386420574193"><ele>554.0</ele><time>2026-04-06T14:36:19Z</time></trkpt><trkpt lat="44.51483787525907" lon="10.568565468658178"><ele>553.25</ele><time>2026-04-06T14:36:20Z</time></trkpt><trkpt lat="44.51482086397546" lon="10.568738433768802"><ele>552.5</ele><time>2026-04-06T14:36:21Z</time></trkpt><trkpt lat="44.51480114178538" lon="10.568910819598125"><ele>551.75</ele><time>2026-04-06T14:36:22Z</time></trkpt><trkpt lat="44.51478686966395" lon="10.569061846103338"><ele>551.0</ele><time>2026-04-06T14:36:23Z</time></trkpt><trkpt lat="44.51476864751416" lon="10.56922660127536"><ele>551.0</ele><time>2026-04-06T14:36:24Z</time></trkpt><trkpt lat="44.51474752610868" lon="10.569400073775165"><ele>551.0</ele><time>2026-04-06T14:36:25Z</time></trkpt><trkpt lat="44.51471660954694" lon="10.569562856139328"><ele>551.0</ele><time>2026-04-06T14:36:26Z</time></trkpt><trkpt lat="44.5147026357321" lon="10.569731584212441"><ele>551.0</ele><time>2026-04-06T14:36:27Z</time></trkpt><trkpt lat="44.51466938081351" lon="10.569884175568149"><ele>549.5</ele><time>2026-04-06T14:36:28Z</time></trkpt><trkpt lat="44.51464419694896" lon="10.570054800869382"><ele>548.0</ele><time>2026-04-06T14:36:29Z</time></trkpt><trkpt lat="44.514655321383714" lon="10.57024443716802"><ele>546.5</ele><time>2026-04-06T14:36:30Z</time></trkpt><trkpt lat="44.514691587896934" lon="10.570412006964649"><ele>545.0</ele><time>2026-04-06T14:36:31Z</time></trkpt><trkpt lat="44.51475035540777" lon="10.570579506691171"><ele>544.0</ele><time>2026-04-06T14:36:32Z</time></trkpt><trkpt lat="44.514803640617714" lon="10.57073802770688"><ele>543.0</ele><time>2026-04-06T14:36:33Z</time></trkpt><trkpt lat="44.51485146365767" lon="10.570899473916128"><ele>542.0</ele><time>2026-04-06T14:36:34Z</time></trkpt><trkpt lat="44.514897472279834" lon="10.571059899655241"><ele>541.0</ele><time>2026-04-06T14:36:35Z</time></trkpt><trkpt lat="44.514944126576445" lon="10.571229207567185"><ele>540.75</ele><time>2026-04-06T14:36:36Z</time></trkpt><trkpt lat="44.51498529899167" lon="10.571387794698078"><ele>540.5</ele><time>2026-04-06T14:36:37Z</time></trkpt><trkpt lat="44.51503510489227" lon="10.571561039418697"><ele>540.25</ele><time>2026-04-06T14:36:38Z</time></trkpt><trkpt lat="44.51507392410089" lon="10.571723542934144"><ele>540.0</ele><time>2026-04-06T14:36:39Z</time></trkpt><trkpt lat="44.5151197449855" lon="10.571880855765757"><ele>540.0</ele><time>2026-04-06T14:36:40Z</time></trkpt><trkpt lat="44.51514827963593" lon="10.57205238211538"><ele>540.0</ele><time>2026-04-06T14:36:41Z</time></trkpt><trkpt lat="44.51519037526798" lon="10.572211961382145"><ele>540.0</ele><time>2026-04-06T14:36:42Z</time></trkpt><trkpt lat="44.51523262873189" lon="10.572368977087985"><ele>540.0</ele><time>2026-04-06T14:36:43Z</time></trkpt><trkpt lat="44.515290027035505" lon="10.572518289108285"><ele>540.0</ele><time>2026-04-06T14:36:44Z</time></trkpt><trkpt lat="44.51531695126343" lon="10.572680596599506"><ele>540.0</ele><time>2026-04-06T14:36:45Z</time></trkpt><trkpt lat="44.51535969348008" lon="10.572833344822481"><ele>540.0</ele><time>2026-04-06T14:36:46Z</time></trkpt><trkpt lat="44.51540211169804" lon="10.572980366315855"><ele>540.0</ele><time>2026-04-06T14:36:47Z</time></trkpt><trkpt lat="44.51544634617099" lon="10.57313368295264"><ele>538.0</ele><time>2026-04-06T14:36:48Z</time></trkpt><trkpt lat="44.51548947346109" lon="10.573283162071334"><ele>536.0</ele><time>2026-04-06T14:36:49Z</time></trkpt><trkpt lat="44.515532646412076" lon="10.573437367414538"><ele>534.0</ele><time>2026-04-06T14:36:50Z</time></trkpt><trkpt lat="44.515593930624114" lon="10.57359062682635"><ele>532.0</ele><time>2026-04-06T14:36:51Z</time></trkpt><trkpt lat="44.51564544401253" lon="10.573748859294964"><ele>532.0</ele><time>2026-04-06T14:36:52Z</time></trkpt><trkpt lat="44.515703209545876" lon="10.573902903317485"><ele>532.0</ele><time>2026-04-06T14:36:53Z</time></trkpt><trkpt lat="44.51577417545848" lon="10.574049421889566"><ele>532.0</ele><time>2026-04-06T14:36:54Z</time></trkpt><trkpt lat="44.51585667745083" lon="10.574189084809657"><ele>532.0</ele><time>2026-04-06T14:36:55Z</time></trkpt><trkpt lat="44.5159467182018" lon="10.574312019611591"><ele>532.0</ele><time>2026-04-06T14:36:56Z</time></trkpt><trkpt lat="44.51603483698108" lon="10.574428036614012"><ele>532.0</ele><time>2026-04-06T14:36:57Z</time></trkpt><trkpt lat="44.516138428041025" lon="10.574521855295187"><ele>532.0</ele><time>2026-04-06T14:36:58Z</time></trkpt><trkpt lat="44.51624501640882" lon="10.574609856630873"><ele>532.0</ele><time>2026-04-06T14:36:59Z</time></trkpt><trkpt lat="44.51636198482788" lon="10.57472930715677"><ele>530.75</ele><time>2026-04-06T14:37:00Z</time></trkpt><trkpt lat="44.51648213270471" lon="10.574832952397783"><ele>529.5</ele><time>2026-04-06T14:37:01Z</time></trkpt><trkpt lat="44.51660275772683" lon="10.574937205753976"><ele>528.25</ele><time>2026-04-06T14:37:02Z</time></trkpt><trkpt lat="44.51672871925558" lon="10.575037153700041"><ele>527.0</ele><time>2026-04-06T14:37:03Z</time></trkpt><trkpt lat="44.51682588143082" lon="10.575108150867452"><ele>527.0</ele><time>2026-04-06T14:37:04Z</time></trkpt><trkpt lat="44.516936372424205" lon="10.575199190211006"><ele>527.0</ele><time>2026-04-06T14:37:05Z</time></trkpt><trkpt lat="44.51704165612464" lon="10.575287607261078"><ele>527.0</ele><time>2026-04-06T14:37:06Z</time></trkpt><trkpt lat="44.517144600778956" lon="10.57537631260634"><ele>527.0</ele><time>2026-04-06T14:37:07Z</time></trkpt><trkpt lat="44.51724853163171" lon="10.575460878325385"><ele>526.0</ele><time>2026-04-06T14:37:08Z</time></trkpt><trkpt lat="44.51734215851473" lon="10.57554316617211"><ele>525.0</ele><time>2026-04-06T14:37:09Z</time></trkpt><trkpt lat="44.51742920174638" lon="10.575629340920337"><ele>524.0</ele><time>2026-04-06T14:37:10Z</time></trkpt><trkpt lat="44.51750671640678" lon="10.575707735724427"><ele>523.0</ele><time>2026-04-06T14:37:11Z</time></trkpt><trkpt lat="44.51760455496219" lon="10.575770875679783"><ele>522.0</ele><time>2026-04-06T14:37:12Z</time></trkpt><trkpt lat="44.51765934563932" lon="10.575877633433157"><ele>522.0</ele><time>2026-04-06T14:37:13Z</time></trkpt><trkpt lat="44.51774666092037" lon="10.575971453984181"><ele>522.0</ele><time>2026-04-06T14:37:14Z</time></trkpt><trkpt lat="44.51781576419874" lon="10.576050485271919"><ele>522.0</ele><time>2026-04-06T14:37:15Z</time></trkpt><trkpt lat="44.51788100504349" lon="10.576194635339258"><ele>522.0</ele><time>2026-04-06T14:37:16Z</time></trkpt><trkpt lat="44.51791932296951" lon="10.576339270541103"><ele>522.0</ele><time>2026-04-06T14:37:17Z</time></trkpt><trkpt lat="44.517954813876784" lon="10.57650587198673"><ele>521.5</ele><time>2026-04-06T14:37:18Z</time></trkpt><trkpt lat="44.5179925662369" lon="10.576679783682671"><ele>521.0</ele><time>2026-04-06T14:37:19Z</time></trkpt><trkpt lat="44.5180356441014" lon="10.57687593386608"><ele>520.5</ele><time>2026-04-06T14:37:20Z</time></trkpt><trkpt lat="44.51807444558904" lon="10.577050742730327"><ele>520.0</ele><time>2026-04-06T14:37:21Z</time></trkpt><trkpt lat="44.51810529714237" lon="10.57721115151247"><ele>520.0</ele><time>2026-04-06T14:37:22Z</time></trkpt><trkpt lat="44.51812548374833" lon="10.57738173496413"><ele>520.0</ele><time>2026-04-06T14:37:23Z</time></trkpt><trkpt lat="44.51814121562671" lon="10.577556148682762"><ele>520.0</ele><time>2026-04-06T14:37:24Z</time></trkpt><trkpt lat="44.518159083731405" lon="10.577762195978437"><ele>520.0</ele><time>2026-04-06T14:37:25Z</time></trkpt><trkpt lat="44.51817054336284" lon="10.577956643053778"><ele>519.25</ele><time>2026-04-06T14:37:26Z</time></trkpt><trkpt lat="44.5181789684932" lon="10.578133801164412"><ele>518.5</ele><time>2026-04-06T14:37:27Z</time></trkpt><trkpt lat="44.51818565735271" lon="10.578332931386655"><ele>517.75</ele><time>2026-04-06T14:37:28Z</time></trkpt><trkpt lat="44.51818019078007" lon="10.57850696546631"><ele>517.0</ele><time>2026-04-06T14:37:29Z</time></trkpt><trkpt lat="44.51816767547729" lon="10.578699335367297"><ele>517.0</ele><time>2026-04-06T14:37:30Z</time></trkpt><trkpt lat="44.51816538406132" lon="10.57888146257408"><ele>517.0</ele><time>2026-04-06T14:37:31Z</time></trkpt><trkpt lat="44.51814670122882" lon="10.579052167052499"><ele>517.0</ele><time>2026-04-06T14:37:32Z</time></trkpt><trkpt lat="44.5181367456983" lon="10.579218517948423"><ele>517.0</ele><time>2026-04-06T14:37:33Z</time></trkpt><trkpt lat="44.51813892683776" lon="10.579380633789448"><ele>517.0</ele><time>2026-04-06T14:37:34Z</time></trkpt><trkpt lat="44.51811546111223" lon="10.579545615695025"><ele>517.0</ele><time>2026-04-06T14:37:35Z</time></trkpt><trkpt lat="44.5181045379833" lon="10.579703596120014"><ele>517.0</ele><time>2026-04-06T14:37:36Z</time></trkpt><trkpt lat="44.51809377170985" lon="10.579846197222981"><ele>517.0</ele><time>2026-04-06T14:37:37Z</time></trkpt><trkpt lat="44.51809785268414" lon="10.5799741594118"><ele>517.0</ele><time>2026-04-06T14:37:38Z</time></trkpt><trkpt lat="44.51812641896621" lon="10.580081112422322"><ele>517.0</ele><time>2026-04-06T14:37:39Z</time></trkpt><trkpt lat="44.51817894909487" lon="10.580163505214458"><ele>517.0</ele><time>2026-04-06T14:37:40Z</time></trkpt><trkpt lat="44.51824711078301" lon="10.580226096931428"><ele>517.0</ele><time>2026-04-06T14:37:41Z</time></trkpt><trkpt lat="44.51832694280437" lon="10.580258684875869"><ele>517.0</ele><time>2026-04-06T14:37:42Z</time></trkpt><trkpt lat="44.518395726268025" lon="10.580283558385295"><ele>517.0</ele><time>2026-04-06T14:37:43Z</time></trkpt><trkpt lat="44.51846057203449" lon="10.580306749571776"><ele>517.0</ele><time>2026-04-06T14:37:44Z</time></trkpt><trkpt lat="44.51852414967408" lon="10.580335262432607"><ele>517.0</ele><time>2026-04-06T14:37:45Z</time></trkpt><trkpt lat="44.5185930182317" lon="10.580379063831938"><ele>514.8000000000001</ele><time>2026-04-06T14:37:46Z</time></trkpt><trkpt lat="44.518645976740316" lon="10.580459891101386"><ele>512.6</ele><time>2026-04-06T14:37:47Z</time></trkpt><trkpt lat="44.518720205060895" lon="10.58051322741441"><ele>510.40000000000003</ele><time>2026-04-06T14:37:48Z</time></trkpt><trkpt lat="44.51878905703184" lon="10.580585429893638"><ele>508.20000000000005</ele><time>2026-04-06T14:37:49Z</time></trkpt><trkpt lat="44.51887642377505" lon="10.58065359138488"><ele>506.0</ele><time>2026-04-06T14:37:50Z</time></trkpt><trkpt lat="44.5189805897409" lon="10.5807181999792"><ele>506.0</ele><time>2026-04-06T14:37:51Z</time></trkpt><trkpt lat="44.519091206379365" lon="10.580773733803108"><ele>506.0</ele><time>2026-04-06T14:37:52Z</time></trkpt><trkpt lat="44.5191805215119" lon="10.580845548576228"><ele>506.0</ele><time>2026-04-06T14:37:53Z</time></trkpt><trkpt lat="44.51926276201733" lon="10.580877248276472"><ele>506.0</ele><time>2026-04-06T14:37:54Z</time></trkpt><trkpt lat="44.519324371901845" lon="10.580958561472464"><ele>506.0</ele><time>2026-04-06T14:37:55Z</time></trkpt><trkpt lat="44.519337655007114" lon="10.58111130109145"><ele>505.4</ele><time>2026-04-06T14:37:56Z</time></trkpt><trkpt lat="44.519381596691254" lon="10.581261153212662"><ele>504.8</ele><time>2026-04-06T14:37:57Z</time></trkpt><trkpt lat="44.5194251876635" lon="10.581389325238638"><ele>504.19999999999993</ele><time>2026-04-06T14:37:58Z</time></trkpt><trkpt lat="44.51947375781253" lon="10.581480303301651"><ele>503.59999999999997</ele><time>2026-04-06T14:37:59Z</time></trkpt><trkpt lat="44.51956864442164" lon="10.581519352584893"><ele>503.0</ele><time>2026-04-06T14:38:00Z</time></trkpt><trkpt lat="44.51966729553988" lon="10.581579216485931"><ele>503.0</ele><time>2026-04-06T14:38:01Z</time></trkpt><trkpt lat="44.519758508292895" lon="10.581684427854546"><ele>502.99999999999994</ele><time>2026-04-06T14:38:02Z</time></trkpt><trkpt lat="44.519823124939506" lon="10.581788107305767"><ele>502.99999999999994</ele><time>2026-04-06T14:38:03Z</time></trkpt><trkpt lat="44.519841693582904" lon="10.581891331246945"><ele>503.0</ele><time>2026-04-06T14:38:04Z</time></trkpt><trkpt lat="44.51987576294429" lon="10.581996096794235"><ele>503.0</ele><time>2026-04-06T14:38:05Z</time></trkpt><trkpt lat="44.519924133206146" lon="10.582128992207508"><ele>503.0</ele><time>2026-04-06T14:38:07Z</time></trkpt><trkpt lat="44.520041264778115" lon="10.582123724642997"><ele>502.99999999999994</ele><time>2026-04-06T14:38:09Z</time></trkpt><trkpt lat="44.52009181801216" lon="10.582069195412693"><ele>502.99999999999994</ele><time>2026-04-06T14:38:10Z</time></trkpt><trkpt lat="44.52015074494634" lon="10.581908859090465"><ele>503.0</ele><time>2026-04-06T14:38:12Z</time></trkpt><trkpt lat="44.52019767490202" lon="10.581801323501823"><ele>503.0</ele><time>2026-04-06T14:38:13Z</time></trkpt><trkpt lat="44.52030384481861" lon="10.581751314834953"><ele>503.0</ele><time>2026-04-06T14:38:14Z</time></trkpt><trkpt lat="44.5203976297688" lon="10.581690977359939"><ele>502.99999999999994</ele><time>2026-04-06T14:38:15Z</time></trkpt><trkpt lat="44.52051112086351" lon="10.581699006756752"><ele>502.99999999999994</ele><time>2026-04-06T14:38:16Z</time></trkpt><trkpt lat="44.520585565880246" lon="10.5816853167456"><ele>503.0</ele><time>2026-04-06T14:38:17Z</time></trkpt><trkpt lat="44.520663151306216" lon="10.581634586701595"><ele>503.0</ele><time>2026-04-06T14:38:18Z</time></trkpt><trkpt lat="44.52076523407603" lon="10.58155165203362"><ele>499.0</ele><time>2026-04-06T14:38:19Z</time></trkpt><trkpt lat="44.52085601657658" lon="10.581477549640159"><ele>494.99999999999994</ele><time>2026-04-06T14:38:20Z</time></trkpt><trkpt lat="44.52094404197173" lon="10.58140951195292"><ele>490.99999999999994</ele><time>2026-04-06T14:38:21Z</time></trkpt><trkpt lat="44.521028331055994" lon="10.581363707455768"><ele>487.0</ele><time>2026-04-06T14:38:21.999Z</time></trkpt><trkpt lat="44.5211104869181" lon="10.581388954447819"><ele>483.0</ele><time>2026-04-06T14:38:22.999Z</time></trkpt><trkpt lat="44.52118978080651" lon="10.581392219332004"><ele>480.0</ele><time>2026-04-06T14:38:23.999Z</time></trkpt><trkpt lat="44.521263030104016" lon="10.581405888901374"><ele>477.0</ele><time>2026-04-06T14:38:24.999Z</time></trkpt><trkpt lat="44.521328268544565" lon="10.581361350382942"><ele>474.0</ele><time>2026-04-06T14:38:25.999Z</time></trkpt><trkpt lat="44.52139728453204" lon="10.581278153770219"><ele>471.0</ele><time>2026-04-06T14:38:26.999Z</time></trkpt><trkpt lat="44.521456394684556" lon="10.581179014839446"><ele>468.0</ele><time>2026-04-06T14:38:27.999Z</time></trkpt><trkpt lat="44.52152028499883" lon="10.581102555749847"><ele>465.0</ele><time>2026-04-06T14:38:28.999Z</time></trkpt><trkpt lat="44.52161288269169" lon="10.581095549305605"><ele>465.0</ele><time>2026-04-06T14:38:29.999Z</time></trkpt><trkpt lat="44.52170162777186" lon="10.581150979142672"><ele>465.0</ele><time>2026-04-06T14:38:30.999Z</time></trkpt><trkpt lat="44.52180840181619" lon="10.581197893808145"><ele>465.0</ele><time>2026-04-06T14:38:31.999Z</time></trkpt><trkpt lat="44.521925428419635" lon="10.581231169303434"><ele>465.0</ele><time>2026-04-06T14:38:32.999Z</time></trkpt><trkpt lat="44.52204597859419" lon="10.581228888309305"><ele>465.0</ele><time>2026-04-06T14:38:33.999Z</time></trkpt><trkpt lat="44.522159887166524" lon="10.581236318484057"><ele>462.8</ele><time>2026-04-06T14:38:34.999Z</time></trkpt><trkpt lat="44.522264768501344" lon="10.581230924492973"><ele>460.6</ele><time>2026-04-06T14:38:35.999Z</time></trkpt><trkpt lat="44.5223608782442" lon="10.581218536233374"><ele>458.4</ele><time>2026-04-06T14:38:36.999Z</time></trkpt><trkpt lat="44.522455147609165" lon="10.581201117030512"><ele>456.2</ele><time>2026-04-06T14:38:37.999Z</time></trkpt><trkpt lat="44.52253838013356" lon="10.58120496961731"><ele>454.0</ele><time>2026-04-06T14:38:38.999Z</time></trkpt><trkpt lat="44.522590293802395" lon="10.581277658054756"><ele>454.00000000000006</ele><time>2026-04-06T14:38:39.999Z</time></trkpt><trkpt lat="44.52258862745438" lon="10.5813936559537"><ele>454.0</ele><time>2026-04-06T14:38:40.999Z</time></trkpt><trkpt lat="44.52263345843557" lon="10.581471357167304"><ele>454.0</ele><time>2026-04-06T14:38:41.999Z</time></trkpt><trkpt lat="44.52270038575288" lon="10.581550544281574"><ele>454.0</ele><time>2026-04-06T14:38:44Z</time></trkpt><trkpt lat="44.52276985730174" lon="10.581490541466373"><ele>454.00000000000006</ele><time>2026-04-06T14:38:45Z</time></trkpt><trkpt lat="44.52280319117649" lon="10.581356716815543"><ele>454.0</ele><time>2026-04-06T14:38:46Z</time></trkpt><trkpt lat="44.52279703762166" lon="10.581219744897298"><ele>453.83333333333337</ele><time>2026-04-06T14:38:47Z</time></trkpt><trkpt lat="44.522801189278916" lon="10.581121988090029"><ele>453.6666666666667</ele><time>2026-04-06T14:38:48Z</time></trkpt><trkpt lat="44.52281469024769" lon="10.580994888256592"><ele>453.5</ele><time>2026-04-06T14:38:50Z</time></trkpt><trkpt lat="44.52284365882155" lon="10.580913735664495"><ele>453.33333333333337</ele><time>2026-04-06T14:38:55Z</time></trkpt><trkpt lat="44.52290757554045" lon="10.580967608062123"><ele>453.1666666666667</ele><time>2026-04-06T14:38:57Z</time></trkpt><trkpt lat="44.52296530079179" lon="10.581084621794284"><ele>453.0</ele><time>2026-04-06T14:39:00Z</time></trkpt><trkpt lat="44.52298742670705" lon="10.58126809021403"><ele>449.6666666666667</ele><time>2026-04-06T14:39:02Z</time></trkpt><trkpt lat="44.523029900441244" lon="10.581408051010774"><ele>446.33333333333337</ele><time>2026-04-06T14:39:03Z</time></trkpt><trkpt lat="44.52307091884547" lon="10.581527912023263"><ele>443.0</ele><time>2026-04-06T14:39:04Z</time></trkpt><trkpt lat="44.52309379753143" lon="10.581630494153517"><ele>439.6666666666667</ele><time>2026-04-06T14:39:05Z</time></trkpt><trkpt lat="44.523112650152434" lon="10.58172122277531"><ele>436.33333333333337</ele><time>2026-04-06T14:39:06Z</time></trkpt><trkpt lat="44.523131573711424" lon="10.58185760460065"><ele>433.0</ele><time>2026-04-06T14:39:08Z</time></trkpt><trkpt lat="44.52315956298686" lon="10.58198104646066"><ele>431.75</ele><time>2026-04-06T14:39:11Z</time></trkpt><trkpt lat="44.52319532166556" lon="10.582140322467348"><ele>430.5</ele><time>2026-04-06T14:39:13Z</time></trkpt><trkpt lat="44.52322453587075" lon="10.582279707852747"><ele>429.25</ele><time>2026-04-06T14:39:14Z</time></trkpt><trkpt lat="44.52326864588488" lon="10.582458209604848"><ele>428.0</ele><time>2026-04-06T14:39:15Z</time></trkpt><trkpt lat="44.52334073001649" lon="10.582618892592206"><ele>428.0</ele><time>2026-04-06T14:39:16Z</time></trkpt><trkpt lat="44.52340884737538" lon="10.582785461333222"><ele>428.0</ele><time>2026-04-06T14:39:17Z</time></trkpt><trkpt lat="44.523481859554245" lon="10.58292947333238"><ele>428.0</ele><time>2026-04-06T14:39:18Z</time></trkpt><trkpt lat="44.5235586724038" lon="10.583070392583856"><ele>428.0</ele><time>2026-04-06T14:39:19Z</time></trkpt><trkpt lat="44.52363879351494" lon="10.58319500527726"><ele>426.75</ele><time>2026-04-06T14:39:20Z</time></trkpt><trkpt lat="44.523723719232216" lon="10.583307761352874"><ele>425.5</ele><time>2026-04-06T14:39:21Z</time></trkpt><trkpt lat="44.523816587642884" lon="10.583416559332905"><ele>424.25</ele><time>2026-04-06T14:39:22Z</time></trkpt><trkpt lat="44.523917846632834" lon="10.583514599266335"><ele>423.0</ele><time>2026-04-06T14:39:23Z</time></trkpt><trkpt lat="44.5240167246213" lon="10.583604226607395"><ele>424.0</ele><time>2026-04-06T14:39:24Z</time></trkpt><trkpt lat="44.52411115209387" lon="10.583695136994073"><ele>425.0</ele><time>2026-04-06T14:39:25Z</time></trkpt><trkpt lat="44.52419206008894" lon="10.583798132387367"><ele>425.99999999999994</ele><time>2026-04-06T14:39:26Z</time></trkpt><trkpt lat="44.52429764334406" lon="10.58386469427725"><ele>427.0</ele><time>2026-04-06T14:39:27Z</time></trkpt><trkpt lat="44.524387685196395" lon="10.583941429773516"><ele>428.0</ele><time>2026-04-06T14:39:28Z</time></trkpt><trkpt lat="44.524489410436864" lon="10.584006928597935"><ele>428.5</ele><time>2026-04-06T14:39:29Z</time></trkpt><trkpt lat="44.52458938498364" lon="10.584084564046199"><ele>429.0</ele><time>2026-04-06T14:39:30Z</time></trkpt><trkpt lat="44.52470018513534" lon="10.584182918451035"><ele>429.5</ele><time>2026-04-06T14:39:31Z</time></trkpt><trkpt lat="44.524812604039305" lon="10.584248700932168"><ele>430.0</ele><time>2026-04-06T14:39:32Z</time></trkpt><trkpt lat="44.52491301199876" lon="10.584328640287398"><ele>430.0</ele><time>2026-04-06T14:39:33Z</time></trkpt><trkpt lat="44.52500457523275" lon="10.584404155151134"><ele>430.0</ele><time>2026-04-06T14:39:34Z</time></trkpt><trkpt lat="44.52510193052736" lon="10.584486190018094"><ele>430.0</ele><time>2026-04-06T14:39:35Z</time></trkpt><trkpt lat="44.52521516881309" lon="10.584581607474009"><ele>430.0</ele><time>2026-04-06T14:39:36Z</time></trkpt><trkpt lat="44.525296959308804" lon="10.584650526224644"><ele>430.0</ele><time>2026-04-06T14:39:37Z</time></trkpt><trkpt lat="44.52537584330834" lon="10.584716995889348"><ele>429.6666666666667</ele><time>2026-04-06T14:39:38Z</time></trkpt><trkpt lat="44.525321546986085" lon="10.58510131768424"><ele>429.33333333333337</ele><time>2026-04-06T14:39:39Z</time></trkpt><trkpt lat="44.525418491950624" lon="10.585172748436525"><ele>429.0</ele><time>2026-04-06T14:39:40Z</time></trkpt><trkpt lat="44.52550755487118" lon="10.585229248669247"><ele>429.5</ele><time>2026-04-06T14:39:41Z</time></trkpt><trkpt lat="44.52558245405149" lon="10.585275962692583"><ele>430.0</ele><time>2026-04-06T14:39:42Z</time></trkpt><trkpt lat="44.525643696053265" lon="10.585307539101132"><ele>430.5</ele><time>2026-04-06T14:39:43Z</time></trkpt><trkpt lat="44.52570258600427" lon="10.585362826231858"><ele>431.0</ele><time>2026-04-06T14:39:44Z</time></trkpt><trkpt lat="44.52577719168335" lon="10.585434171029133"><ele>431.5</ele><time>2026-04-06T14:39:46Z</time></trkpt><trkpt lat="44.525821894397204" lon="10.585517380923239"><ele>432.0</ele><time>2026-04-06T14:39:47Z</time></trkpt><trkpt lat="44.52587463603087" lon="10.585603919934297"><ele>429.3333333333333</ele><time>2026-04-06T14:39:48Z</time></trkpt><trkpt lat="44.52591469455709" lon="10.585677496545458"><ele>426.66666666666663</ele><time>2026-04-06T14:39:49Z</time></trkpt><trkpt lat="44.52597721890852" lon="10.585750766432986"><ele>424.0</ele><time>2026-04-06T14:39:50Z</time></trkpt><trkpt lat="44.52605358657661" lon="10.58583404643441"><ele>421.3333333333333</ele><time>2026-04-06T14:39:51Z</time></trkpt><trkpt lat="44.52611808062606" lon="10.585884158157779"><ele>418.66666666666663</ele><time>2026-04-06T14:39:53Z</time></trkpt><trkpt lat="44.52620125138171" lon="10.585938849478014"><ele>416.0</ele><time>2026-04-06T14:39:56Z</time></trkpt><trkpt lat="44.52627275217459" lon="10.586011713228787"><ele>415.6</ele><time>2026-04-06T14:39:58Z</time></trkpt><trkpt lat="44.52638915552647" lon="10.586138954683815"><ele>415.20000000000005</ele><time>2026-04-06T14:40:00Z</time></trkpt><trkpt lat="44.52644217943918" lon="10.5862100959546"><ele>414.79999999999995</ele><time>2026-04-06T14:40:01Z</time></trkpt><trkpt lat="44.52647278365902" lon="10.586301255613847"><ele>414.4</ele><time>2026-04-06T14:40:02Z</time></trkpt><trkpt lat="44.52648400483772" lon="10.586395986796898"><ele>414.0</ele><time>2026-04-06T14:40:03Z</time></trkpt><trkpt lat="44.52650484407651" lon="10.586523102158628"><ele>411.75</ele><time>2026-04-06T14:40:05Z</time></trkpt><trkpt lat="44.52655573020455" lon="10.586604889064553"><ele>409.5</ele><time>2026-04-06T14:40:07Z</time></trkpt><trkpt lat="44.526536900480274" lon="10.586729221771662"><ele>407.25</ele><time>2026-04-06T14:40:09Z</time></trkpt><trkpt lat="44.526542191324125" lon="10.586848955001532"><ele>405.0</ele><time>2026-04-06T14:40:12Z</time></trkpt><trkpt lat="44.526543307695526" lon="10.587138380855968"><ele>403.75</ele><time>2026-04-06T14:40:14Z</time></trkpt><trkpt lat="44.52652141489223" lon="10.587290768565351"><ele>402.5</ele><time>2026-04-06T14:40:15Z</time></trkpt><trkpt lat="44.52655033490146" lon="10.587412767890251"><ele>401.25</ele><time>2026-04-06T14:40:16Z</time></trkpt><trkpt lat="44.52659575012632" lon="10.587612234416786"><ele>400.0</ele><time>2026-04-06T14:40:17Z</time></trkpt><trkpt lat="44.526580058460915" lon="10.587752943807965"><ele>400.00000000000006</ele><time>2026-04-06T14:40:18Z</time></trkpt><trkpt lat="44.52654380866888" lon="10.58784192261082"><ele>400.0</ele><time>2026-04-06T14:40:19Z</time></trkpt><trkpt lat="44.52650727721342" lon="10.587950224861329"><ele>400.0</ele><time>2026-04-06T14:40:20Z</time></trkpt><trkpt lat="44.52647404176095" lon="10.588028625082606"><ele>400.0</ele><time>2026-04-06T14:40:21Z</time></trkpt><trkpt lat="44.52639396453821" lon="10.588133337109321"><ele>400.00000000000006</ele><time>2026-04-06T14:40:23Z</time></trkpt><trkpt lat="44.52633743461534" lon="10.58821936148787"><ele>400.0</ele><time>2026-04-06T14:40:24Z</time></trkpt><trkpt lat="44.52628258779626" lon="10.58834095256283"><ele>398.0</ele><time>2026-04-06T14:40:25Z</time></trkpt><trkpt lat="44.52626727630322" lon="10.588509049027914"><ele>396.0</ele><time>2026-04-06T14:40:26Z</time></trkpt><trkpt lat="44.526215696331306" lon="10.588622045724819"><ele>394.0</ele><time>2026-04-06T14:40:28Z</time></trkpt><trkpt lat="44.52621996340422" lon="10.588805093181369"><ele>392.0</ele><time>2026-04-06T14:40:31Z</time></trkpt><trkpt lat="44.52619812933797" lon="10.588946528176795"><ele>390.40000000000003</ele><time>2026-04-06T14:40:32Z</time></trkpt><trkpt lat="44.526137064224386" lon="10.588996985380573"><ele>388.8</ele><time>2026-04-06T14:40:33Z</time></trkpt><trkpt lat="44.52604621914241" lon="10.589086046095007"><ele>387.2</ele><time>2026-04-06T14:40:35Z</time></trkpt><trkpt lat="44.52600357275841" lon="10.58924804140828"><ele>385.6</ele><time>2026-04-06T14:40:37Z</time></trkpt><trkpt lat="44.525998115117886" lon="10.589347573480156"><ele>384.0</ele><time>2026-04-06T14:40:38Z</time></trkpt><trkpt lat="44.52598007040902" lon="10.58948674791554"><ele>382.5</ele><time>2026-04-06T14:40:39Z</time></trkpt><trkpt lat="44.525969977837256" lon="10.589594407105135"><ele>381.0</ele><time>2026-04-06T14:40:40Z</time></trkpt><trkpt lat="44.52596823763414" lon="10.589713395678439"><ele>379.5</ele><time>2026-04-06T14:40:53Z</time></trkpt><trkpt lat="44.52596308889736" lon="10.589810300364809"><ele>378.0</ele><time>2026-04-06T14:40:54Z</time></trkpt><trkpt lat="44.52597240588032" lon="10.589922666569885"><ele>376.5</ele><time>2026-04-06T14:40:55Z</time></trkpt><trkpt lat="44.525947665487756" lon="10.590045765050103"><ele>375.0</ele><time>2026-04-06T14:40:57Z</time></trkpt><trkpt lat="44.52591396689487" lon="10.590266106613207"><ele>373.6</ele><time>2026-04-06T14:40:59Z</time></trkpt><trkpt lat="44.52590591835345" lon="10.590381579521623"><ele>372.2</ele><time>2026-04-06T14:41:00Z</time></trkpt><trkpt lat="44.5259232178529" lon="10.590490781598778"><ele>370.79999999999995</ele><time>2026-04-06T14:41:01Z</time></trkpt><trkpt lat="44.52593386837656" lon="10.590629434055304"><ele>369.4</ele><time>2026-04-06T14:41:02Z</time></trkpt><trkpt lat="44.525949163694676" lon="10.59079692172411"><ele>368.0</ele><time>2026-04-06T14:41:03Z</time></trkpt><trkpt lat="44.5259703948764" lon="10.590952859915937"><ele>368.0</ele><time>2026-04-06T14:41:04Z</time></trkpt><trkpt lat="44.525977669816186" lon="10.591079027769922"><ele>368.0</ele><time>2026-04-06T14:41:05Z</time></trkpt><trkpt lat="44.52596457580187" lon="10.59118541171237"><ele>368.0</ele><time>2026-04-06T14:41:06Z</time></trkpt><trkpt lat="44.525937767915416" lon="10.591323919934707"><ele>368.0</ele><time>2026-04-06T14:41:08Z</time></trkpt><trkpt lat="44.52599348604996" lon="10.591460588370404"><ele>368.0</ele><time>2026-04-06T14:41:10Z</time></trkpt><trkpt lat="44.52598183421582" lon="10.591600883635396"><ele>367.0</ele><time>2026-04-06T14:41:12Z</time></trkpt><trkpt lat="44.52597074228342" lon="10.59182455581591"><ele>366.0</ele><time>2026-04-06T14:41:14Z</time></trkpt><trkpt lat="44.52599216813088" lon="10.591946588762788"><ele>365.0</ele><time>2026-04-06T14:41:15Z</time></trkpt><trkpt lat="44.5259813121971" lon="10.592038309459266"><ele>364.0</ele><time>2026-04-06T14:41:16Z</time></trkpt><trkpt lat="44.525975470271035" lon="10.592159017493639"><ele>363.0</ele><time>2026-04-06T14:41:19Z</time></trkpt><trkpt lat="44.52597769931918" lon="10.592345506945204"><ele>361.4</ele><time>2026-04-06T14:41:21Z</time></trkpt><trkpt lat="44.52600453996686" lon="10.59250332565195"><ele>359.79999999999995</ele><time>2026-04-06T14:41:23Z</time></trkpt><trkpt lat="44.52599424289522" lon="10.592597008771293"><ele>358.2</ele><time>2026-04-06T14:41:25Z</time></trkpt><trkpt lat="44.525882557627035" lon="10.592646361776076"><ele>356.6</ele><time>2026-04-06T14:41:27Z</time></trkpt><trkpt lat="44.52585447569814" lon="10.592769869970065"><ele>355.0</ele><time>2026-04-06T14:41:29Z</time></trkpt><trkpt lat="44.52585368987983" lon="10.59288218487816"><ele>353.6</ele><time>2026-04-06T14:41:30Z</time></trkpt><trkpt lat="44.525830807262466" lon="10.59299752583543"><ele>352.2</ele><time>2026-04-06T14:41:31Z</time></trkpt><trkpt lat="44.52578083115323" lon="10.593140301498629"><ele>350.79999999999995</ele><time>2026-04-06T14:41:33Z</time></trkpt><trkpt lat="44.52577175809065" lon="10.593241034042952"><ele>349.4</ele><time>2026-04-06T14:41:34Z</time></trkpt><trkpt lat="44.52576861826424" lon="10.59334009075072"><ele>348.0</ele><time>2026-04-06T14:41:35Z</time></trkpt><trkpt lat="44.52579155590807" lon="10.593514897879182"><ele>348.0</ele><time>2026-04-06T14:41:37Z</time></trkpt><trkpt lat="44.525793329988964" lon="10.593603497000103"><ele>348.0</ele><time>2026-04-06T14:41:38Z</time></trkpt><trkpt lat="44.52579857136981" lon="10.593697442478097"><ele>348.0</ele><time>2026-04-06T14:41:39Z</time></trkpt><trkpt lat="44.5258185966113" lon="10.593810044516314"><ele>348.0</ele><time>2026-04-06T14:41:40Z</time></trkpt><trkpt lat="44.52581721132317" lon="10.593913450347253"><ele>348.0</ele><time>2026-04-06T14:41:41Z</time></trkpt><trkpt lat="44.52588341565194" lon="10.594083692234477"><ele>348.0</ele><time>2026-04-06T14:41:43Z</time></trkpt><trkpt lat="44.52594996492523" lon="10.594145687887037"><ele>345.5</ele><time>2026-04-06T14:41:44Z</time></trkpt><trkpt lat="44.52601705556091" lon="10.59418919627474"><ele>343.0</ele><time>2026-04-06T14:41:45Z</time></trkpt><trkpt lat="44.526076962461225" lon="10.594225851816015"><ele>340.5</ele><time>2026-04-06T14:41:46Z</time></trkpt><trkpt lat="44.52617190191615" lon="10.59430053474203"><ele>338.0</ele><time>2026-04-06T14:41:48Z</time></trkpt><trkpt lat="44.5262543794047" lon="10.594352128301942"><ele>335.5</ele><time>2026-04-06T14:41:50Z</time></trkpt><trkpt lat="44.52632753808907" lon="10.594430109786112"><ele>333.0</ele><time>2026-04-06T14:41:52Z</time></trkpt><trkpt lat="44.52640411899996" lon="10.59446880883827"><ele>325.5</ele><time>2026-04-06T14:41:54Z</time></trkpt><trkpt lat="44.526457739381605" lon="10.594543373230518"><ele>318.0</ele><time>2026-04-06T14:41:57Z</time></trkpt><trkpt lat="44.526579863331534" lon="10.594696335093822"><ele>310.5</ele><time>2026-04-06T14:41:59Z</time></trkpt><trkpt lat="44.526670076895535" lon="10.59485654896986"><ele>303.0</ele><time>2026-04-06T14:42:01Z</time></trkpt><trkpt lat="44.52672295947374" lon="10.594985005695362"><ele>303.0</ele><time>2026-04-06T14:42:02Z</time></trkpt><trkpt lat="44.52679365226631" lon="10.595118573662251"><ele>303.0</ele><time>2026-04-06T14:42:03Z</time></trkpt><trkpt lat="44.52689553573879" lon="10.595283386950651"><ele>303.0</ele><time>2026-04-06T14:42:04Z</time></trkpt><trkpt lat="44.52697643717858" lon="10.59540463131968"><ele>303.0</ele><time>2026-04-06T14:42:05Z</time></trkpt><trkpt lat="44.5270684790778" lon="10.595492911655333"><ele>300.5</ele><time>2026-04-06T14:42:06Z</time></trkpt><trkpt lat="44.52717003274317" lon="10.595539868591437"><ele>298.0</ele><time>2026-04-06T14:42:07Z</time></trkpt><trkpt lat="44.527217244290625" lon="10.595629493858342"><ele>295.5</ele><time>2026-04-06T14:42:08Z</time></trkpt><trkpt lat="44.527274517908005" lon="10.595686382378702"><ele>293.0</ele><time>2026-04-06T14:42:09Z</time></trkpt><trkpt lat="44.527330453755404" lon="10.595753956217225"><ele>290.5</ele><time>2026-04-06T14:42:10Z</time></trkpt><trkpt lat="44.527369964652806" lon="10.595846254965199"><ele>288.0</ele><time>2026-04-06T14:42:11Z</time></trkpt><trkpt lat="44.52741543623505" lon="10.59592486842187"><ele>288.0</ele><time>2026-04-06T14:42:12Z</time></trkpt><trkpt lat="44.52744814672146" lon="10.596015493120714"><ele>288.0</ele><time>2026-04-06T14:42:13Z</time></trkpt><trkpt lat="44.52748961231862" lon="10.596125210888854"><ele>288.0</ele><time>2026-04-06T14:42:14Z</time></trkpt><trkpt lat="44.52755255145712" lon="10.5962573201837"><ele>288.0</ele><time>2026-04-06T14:42:15Z</time></trkpt><trkpt lat="44.52760650788763" lon="10.596417630640605"><ele>288.0</ele><time>2026-04-06T14:42:17Z</time></trkpt><trkpt lat="44.52762601909689" lon="10.596516581054972"><ele>286.6666666666667</ele><time>2026-04-06T14:42:18Z</time></trkpt><trkpt lat="44.52763921935828" lon="10.596613221614067"><ele>285.3333333333333</ele><time>2026-04-06T14:42:19Z</time></trkpt><trkpt lat="44.52766279747837" lon="10.596712841101475"><ele>284.0</ele><time>2026-04-06T14:42:20Z</time></trkpt><trkpt lat="44.52769794035306" lon="10.596893278819087"><ele>282.66666666666663</ele><time>2026-04-06T14:42:22Z</time></trkpt><trkpt lat="44.52772601430589" lon="10.59698520285072"><ele>281.3333333333333</ele><time>2026-04-06T14:42:23Z</time></trkpt><trkpt lat="44.52777676902656" lon="10.597041494926998"><ele>280.0</ele><time>2026-04-06T14:42:24Z</time></trkpt><trkpt lat="44.52790588470832" lon="10.597092398356963"><ele>278.5</ele><time>2026-04-06T14:42:26Z</time></trkpt><trkpt lat="44.527974980688775" lon="10.59716002014701"><ele>277.0</ele><time>2026-04-06T14:42:27Z</time></trkpt><trkpt lat="44.52802125523251" lon="10.597234153842106"><ele>275.5</ele><time>2026-04-06T14:42:28Z</time></trkpt><trkpt lat="44.528087983851805" lon="10.597276635213472"><ele>274.0</ele><time>2026-04-06T14:42:29Z</time></trkpt><trkpt lat="44.52812942170724" lon="10.597345786116783"><ele>272.5</ele><time>2026-04-06T14:42:30Z</time></trkpt><trkpt lat="44.52819854675989" lon="10.597499326154386"><ele>271.0</ele><time>2026-04-06T14:42:32Z</time></trkpt><trkpt lat="44.5282380690145" lon="10.59766444476586"><ele>271.0</ele><time>2026-04-06T14:42:34Z</time></trkpt><trkpt lat="44.52828306790183" lon="10.597764588574117"><ele>271.0</ele><time>2026-04-06T14:42:36Z</time></trkpt><trkpt lat="44.52835803353134" lon="10.597939975362575"><ele>271.0</ele><time>2026-04-06T14:42:38Z</time></trkpt><trkpt lat="44.52846398832784" lon="10.598046435564891"><ele>271.0</ele><time>2026-04-06T14:42:40Z</time></trkpt><trkpt lat="44.52842576042732" lon="10.598354916857089"><ele>269.0</ele><time>2026-04-06T14:42:41Z</time></trkpt><trkpt lat="44.52851419075158" lon="10.598410109328434"><ele>267.0</ele><time>2026-04-06T14:42:42Z</time></trkpt><trkpt lat="44.52857321419473" lon="10.598445928355392"><ele>265.0</ele><time>2026-04-06T14:42:43Z</time></trkpt><trkpt lat="44.52863378536332" lon="10.598475121429665"><ele>263.0</ele><time>2026-04-06T14:42:44Z</time></trkpt><trkpt lat="44.52872781862958" lon="10.598515654660982"><ele>261.0</ele><time>2026-04-06T14:42:46Z</time></trkpt><trkpt lat="44.52882100159378" lon="10.598555703026667"><ele>259.0</ele><time>2026-04-06T14:42:48Z</time></trkpt><trkpt lat="44.52888505885501" lon="10.598580583800445"><ele>258.2</ele><time>2026-04-06T14:42:50Z</time></trkpt><trkpt lat="44.528963856537594" lon="10.598593860336326"><ele>257.4</ele><time>2026-04-06T14:42:51Z</time></trkpt><trkpt lat="44.52905542667793" lon="10.598648449543768"><ele>256.6</ele><time>2026-04-06T14:42:52Z</time></trkpt><trkpt lat="44.52916356031696" lon="10.598693376150202"><ele>255.8</ele><time>2026-04-06T14:42:53Z</time></trkpt><trkpt lat="44.529266096585175" lon="10.598738082252485"><ele>255.0</ele><time>2026-04-06T14:42:54Z</time></trkpt><trkpt lat="44.52935865324134" lon="10.598773164805518"><ele>254.8</ele><time>2026-04-06T14:42:55Z</time></trkpt><trkpt lat="44.52945645200879" lon="10.598817418153406"><ele>254.6</ele><time>2026-04-06T14:42:56Z</time></trkpt><trkpt lat="44.52955163795679" lon="10.59885583002068"><ele>254.39999999999998</ele><time>2026-04-06T14:42:57Z</time></trkpt><trkpt lat="44.52964093555272" lon="10.59889478317574"><ele>254.2</ele><time>2026-04-06T14:42:58Z</time></trkpt><trkpt lat="44.529720577909806" lon="10.598928541523872"><ele>254.0</ele><time>2026-04-06T14:42:59Z</time></trkpt><trkpt lat="44.52978944473256" lon="10.598958625051907"><ele>254.39999999999998</ele><time>2026-04-06T14:43:00Z</time></trkpt><trkpt lat="44.52987025147197" lon="10.598994166200958"><ele>254.79999999999998</ele><time>2026-04-06T14:43:01Z</time></trkpt><trkpt lat="44.52995316829267" lon="10.599034043747052"><ele>255.20000000000002</ele><time>2026-04-06T14:43:02Z</time></trkpt><trkpt lat="44.530041930394745" lon="10.599068512092423"><ele>255.60000000000002</ele><time>2026-04-06T14:43:03Z</time></trkpt><trkpt lat="44.53013611317588" lon="10.599097023020056"><ele>256.0</ele><time>2026-04-06T14:43:04Z</time></trkpt><trkpt lat="44.530235947366386" lon="10.599108289829704"><ele>256.0</ele><time>2026-04-06T14:43:05Z</time></trkpt><trkpt lat="44.530337373313834" lon="10.59911808788907"><ele>256.0</ele><time>2026-04-06T14:43:06Z</time></trkpt><trkpt lat="44.53044293171799" lon="10.5991317488221"><ele>256.0</ele><time>2026-04-06T14:43:07Z</time></trkpt><trkpt lat="44.53055699949234" lon="10.599147944691422"><ele>256.0</ele><time>2026-04-06T14:43:08Z</time></trkpt><trkpt lat="44.53067847028347" lon="10.59916107287227"><ele>256.0</ele><time>2026-04-06T14:43:09Z</time></trkpt><trkpt lat="44.53078675295903" lon="10.599177621839887"><ele>256.0</ele><time>2026-04-06T14:43:10Z</time></trkpt><trkpt lat="44.53089386465784" lon="10.599210560245663"><ele>256.0</ele><time>2026-04-06T14:43:11Z</time></trkpt><trkpt lat="44.53098722374745" lon="10.599273335079252"><ele>256.0</ele><time>2026-04-06T14:43:12Z</time></trkpt><trkpt lat="44.53106520725488" lon="10.599375154298983"><ele>256.0</ele><time>2026-04-06T14:43:13Z</time></trkpt><trkpt lat="44.53112495348112" lon="10.59951072962558"><ele>256.0</ele><time>2026-04-06T14:43:14Z</time></trkpt><trkpt lat="44.53115873750468" lon="10.599664020286616"><ele>255.5</ele><time>2026-04-06T14:43:15Z</time></trkpt><trkpt lat="44.531159910461845" lon="10.599833785936145"><ele>255.0</ele><time>2026-04-06T14:43:16Z</time></trkpt><trkpt lat="44.53114010956834" lon="10.600004956638772"><ele>254.5</ele><time>2026-04-06T14:43:17Z</time></trkpt><trkpt lat="44.531130283208135" lon="10.600173827622887"><ele>254.0</ele><time>2026-04-06T14:43:18Z</time></trkpt><trkpt lat="44.53113642523644" lon="10.600330396190882"><ele>253.75</ele><time>2026-04-06T14:43:19Z</time></trkpt><trkpt lat="44.53116553790303" lon="10.600526058619721"><ele>253.5</ele><time>2026-04-06T14:43:20Z</time></trkpt><trkpt lat="44.531200910551114" lon="10.600682296363914"><ele>253.25</ele><time>2026-04-06T14:43:21Z</time></trkpt><trkpt lat="44.531265687451715" lon="10.600835872386776"><ele>253.0</ele><time>2026-04-06T14:43:22Z</time></trkpt><trkpt lat="44.531322867952106" lon="10.600993977819668"><ele>253.0</ele><time>2026-04-06T14:43:23Z</time></trkpt><trkpt lat="44.53138488388107" lon="10.60115555911659"><ele>253.0</ele><time>2026-04-06T14:43:24Z</time></trkpt><trkpt lat="44.531441875215144" lon="10.601313777099165"><ele>253.0</ele><time>2026-04-06T14:43:25Z</time></trkpt><trkpt lat="44.53150339209706" lon="10.601489425305926"><ele>253.0</ele><time>2026-04-06T14:43:26Z</time></trkpt><trkpt lat="44.53156707929072" lon="10.601652066845167"><ele>254.5</ele><time>2026-04-06T14:43:27Z</time></trkpt><trkpt lat="44.531629530029385" lon="10.601808598989924"><ele>256.0</ele><time>2026-04-06T14:43:28Z</time></trkpt><trkpt lat="44.531687916707874" lon="10.601969934736706"><ele>257.5</ele><time>2026-04-06T14:43:29Z</time></trkpt><trkpt lat="44.531746257797565" lon="10.602137049614972"><ele>259.0</ele><time>2026-04-06T14:43:30Z</time></trkpt><trkpt lat="44.531807784670896" lon="10.60230551756981"><ele>256.75</ele><time>2026-04-06T14:43:31Z</time></trkpt><trkpt lat="44.53186990159375" lon="10.602472601604644"><ele>254.5</ele><time>2026-04-06T14:43:32Z</time></trkpt><trkpt lat="44.53193745470139" lon="10.602651793701964"><ele>252.25</ele><time>2026-04-06T14:43:33Z</time></trkpt><trkpt lat="44.53200203875239" lon="10.602825496602842"><ele>250.0</ele><time>2026-04-06T14:43:34Z</time></trkpt><trkpt lat="44.532068669473915" lon="10.602998403407646"><ele>250.0</ele><time>2026-04-06T14:43:35Z</time></trkpt><trkpt lat="44.53214765210826" lon="10.603149423186006"><ele>250.0</ele><time>2026-04-06T14:43:36Z</time></trkpt><trkpt lat="44.532237050634805" lon="10.603305369919019"><ele>250.0</ele><time>2026-04-06T14:43:37Z</time></trkpt><trkpt lat="44.53232609588853" lon="10.603466470358882"><ele>250.0</ele><time>2026-04-06T14:43:38Z</time></trkpt><trkpt lat="44.53243766143349" lon="10.60360502881906"><ele>252.25</ele><time>2026-04-06T14:43:39Z</time></trkpt><trkpt lat="44.53253876763327" lon="10.603749878110364"><ele>254.5</ele><time>2026-04-06T14:43:40Z</time></trkpt><trkpt lat="44.53263783497038" lon="10.603887313889581"><ele>256.75</ele><time>2026-04-06T14:43:41Z</time></trkpt><trkpt lat="44.532731350430424" lon="10.604037909955892"><ele>259.0</ele><time>2026-04-06T14:43:42Z</time></trkpt><trkpt lat="44.532831551577225" lon="10.604205180145486"><ele>255.75</ele><time>2026-04-06T14:43:43Z</time></trkpt><trkpt lat="44.532925946220814" lon="10.604347933242408"><ele>252.5</ele><time>2026-04-06T14:43:44Z</time></trkpt><trkpt lat="44.532983658669515" lon="10.604529797649343"><ele>249.25</ele><time>2026-04-06T14:43:45Z</time></trkpt><trkpt lat="44.53304827278699" lon="10.604713589595232"><ele>246.0</ele><time>2026-04-06T14:43:46Z</time></trkpt><trkpt lat="44.53311129345494" lon="10.604910327584049"><ele>246.0</ele><time>2026-04-06T14:43:47Z</time></trkpt><trkpt lat="44.533168855927784" lon="10.605100745390526"><ele>246.0</ele><time>2026-04-06T14:43:48Z</time></trkpt><trkpt lat="44.53323610705036" lon="10.60532405519882"><ele>246.0</ele><time>2026-04-06T14:43:49Z</time></trkpt><trkpt lat="44.53330911796244" lon="10.60555968531954"><ele>246.0</ele><time>2026-04-06T14:43:50Z</time></trkpt><trkpt lat="44.53338061917376" lon="10.605790443254866"><ele>246.0</ele><time>2026-04-06T14:43:51Z</time></trkpt><trkpt lat="44.533447947471025" lon="10.606009966741539"><ele>246.0</ele><time>2026-04-06T14:43:52Z</time></trkpt><trkpt lat="44.533513194612325" lon="10.606223251134935"><ele>246.0</ele><time>2026-04-06T14:43:53Z</time></trkpt><trkpt lat="44.53357212840955" lon="10.60640910172831"><ele>246.0</ele><time>2026-04-06T14:43:54Z</time></trkpt><trkpt lat="44.53363468042881" lon="10.606605914119498"><ele>246.0</ele><time>2026-04-06T14:43:55Z</time></trkpt><trkpt lat="44.53369398607984" lon="10.606804066880823"><ele>244.0</ele><time>2026-04-06T14:43:56Z</time></trkpt><trkpt lat="44.533748198192654" lon="10.606996732455872"><ele>242.0</ele><time>2026-04-06T14:43:57Z</time></trkpt><trkpt lat="44.53379743534373" lon="10.607195874328625"><ele>240.0</ele><time>2026-04-06T14:43:58Z</time></trkpt><trkpt lat="44.53383486213998" lon="10.607399462421906"><ele>238.0</ele><time>2026-04-06T14:43:59Z</time></trkpt><trkpt lat="44.53385844928985" lon="10.607605280248423"><ele>238.0</ele><time>2026-04-06T14:44:00Z</time></trkpt><trkpt lat="44.5338790368142" lon="10.60782009500417"><ele>238.0</ele><time>2026-04-06T14:44:01Z</time></trkpt><trkpt lat="44.53389685555137" lon="10.608022312559223"><ele>238.0</ele><time>2026-04-06T14:44:02Z</time></trkpt><trkpt lat="44.53391384158616" lon="10.608229400056292"><ele>238.0</ele><time>2026-04-06T14:44:03Z</time></trkpt><trkpt lat="44.53394257761178" lon="10.608430785375402"><ele>238.5</ele><time>2026-04-06T14:44:04Z</time></trkpt><trkpt lat="44.53395321617413" lon="10.608642056792828"><ele>239.0</ele><time>2026-04-06T14:44:05Z</time></trkpt><trkpt lat="44.53397531685933" lon="10.608835165975945"><ele>239.5</ele><time>2026-04-06T14:44:06Z</time></trkpt><trkpt lat="44.533971651288454" lon="10.609034450698507"><ele>240.0</ele><time>2026-04-06T14:44:07Z</time></trkpt><trkpt lat="44.533962382258345" lon="10.609237072681537"><ele>241.0</ele><time>2026-04-06T14:44:08Z</time></trkpt><trkpt lat="44.533951389317124" lon="10.609438483640398"><ele>242.0</ele><time>2026-04-06T14:44:09Z</time></trkpt><trkpt lat="44.53399553028671" lon="10.609599776304698"><ele>243.0</ele><time>2026-04-06T14:44:10Z</time></trkpt><trkpt lat="44.53401431613013" lon="10.60977566142128"><ele>244.0</ele><time>2026-04-06T14:44:11Z</time></trkpt><trkpt lat="44.53402599178342" lon="10.609987248156292"><ele>244.0</ele><time>2026-04-06T14:44:12Z</time></trkpt><trkpt lat="44.534035063286716" lon="10.610181235217095"><ele>244.0</ele><time>2026-04-06T14:44:13Z</time></trkpt><trkpt lat="44.534040312580956" lon="10.610377484682529"><ele>244.0</ele><time>2026-04-06T14:44:14Z</time></trkpt><trkpt lat="44.53405094581515" lon="10.610577040533476"><ele>244.0</ele><time>2026-04-06T14:44:15Z</time></trkpt><trkpt lat="44.534056755935325" lon="10.610778263775387"><ele>244.25</ele><time>2026-04-06T14:44:16Z</time></trkpt><trkpt lat="44.53407837144755" lon="10.610978924315527"><ele>244.5</ele><time>2026-04-06T14:44:17Z</time></trkpt><trkpt lat="44.53411450253905" lon="10.61116347321873"><ele>244.75</ele><time>2026-04-06T14:44:18Z</time></trkpt><trkpt lat="44.534159920238416" lon="10.611337239879273"><ele>245.0</ele><time>2026-04-06T14:44:19Z</time></trkpt><trkpt lat="44.53422200922124" lon="10.611515048064952"><ele>245.25</ele><time>2026-04-06T14:44:20Z</time></trkpt><trkpt lat="44.53430422686687" lon="10.611678350719727"><ele>245.5</ele><time>2026-04-06T14:44:21Z</time></trkpt><trkpt lat="44.53439994259361" lon="10.611817066900754"><ele>245.75</ele><time>2026-04-06T14:44:22Z</time></trkpt><trkpt lat="44.534504638184416" lon="10.611934072679794"><ele>246.0</ele><time>2026-04-06T14:44:23Z</time></trkpt><trkpt lat="44.53462260220987" lon="10.612041128530807"><ele>247.75</ele><time>2026-04-06T14:44:24Z</time></trkpt><trkpt lat="44.534743213073604" lon="10.612146044539235"><ele>249.5</ele><time>2026-04-06T14:44:25Z</time></trkpt><trkpt lat="44.534868267111094" lon="10.612241538923739"><ele>251.25</ele><time>2026-04-06T14:44:26Z</time></trkpt><trkpt lat="44.534980040597425" lon="10.612332199324992"><ele>253.0</ele><time>2026-04-06T14:44:27Z</time></trkpt><trkpt lat="44.53507733693335" lon="10.612427906347442"><ele>253.0</ele><time>2026-04-06T14:44:28Z</time></trkpt><trkpt lat="44.535158022700664" lon="10.612533939282573"><ele>253.0</ele><time>2026-04-06T14:44:29Z</time></trkpt><trkpt lat="44.53523332301386" lon="10.612644943002259"><ele>253.0</ele><time>2026-04-06T14:44:30Z</time></trkpt><trkpt lat="44.53530741533772" lon="10.612758547133785"><ele>253.0</ele><time>2026-04-06T14:44:31Z</time></trkpt><trkpt lat="44.53536754722708" lon="10.612902611378097"><ele>253.0</ele><time>2026-04-06T14:44:32Z</time></trkpt><trkpt lat="44.53544054388499" lon="10.612998106522618"><ele>252.4</ele><time>2026-04-06T14:44:33Z</time></trkpt><trkpt lat="44.535501993742116" lon="10.613131749177574"><ele>251.8</ele><time>2026-04-06T14:44:34Z</time></trkpt><trkpt lat="44.53554374310444" lon="10.61324054879848"><ele>251.2</ele><time>2026-04-06T14:44:35Z</time></trkpt><trkpt lat="44.53554270445501" lon="10.613344332296622"><ele>250.6</ele><time>2026-04-06T14:44:37Z</time></trkpt><trkpt lat="44.53557877017051" lon="10.613157353008502"><ele>250.0</ele><time>2026-04-06T14:44:42Z</time></trkpt><trkpt lat="44.535489558180046" lon="10.613092156823482"><ele>250.0</ele><time>2026-04-06T14:44:43Z</time></trkpt><trkpt lat="44.53543675543941" lon="10.61291461445002"><ele>250.0</ele><time>2026-04-06T14:44:44Z</time></trkpt><trkpt lat="44.535347473926684" lon="10.61275712007474"><ele>250.0</ele><time>2026-04-06T14:44:45Z</time></trkpt><trkpt lat="44.53524249363421" lon="10.612592996299997"><ele>250.0</ele><time>2026-04-06T14:44:46Z</time></trkpt><trkpt lat="44.535120815110595" lon="10.612424289472418"><ele>251.0</ele><time>2026-04-06T14:44:47Z</time></trkpt><trkpt lat="44.53498313652707" lon="10.612273381652065"><ele>252.0</ele><time>2026-04-06T14:44:48Z</time></trkpt><trkpt lat="44.53483600998105" lon="10.61214562541886"><ele>253.0</ele><time>2026-04-06T14:44:49Z</time></trkpt><trkpt lat="44.534695852005704" lon="10.612045308959305"><ele>251.25</ele><time>2026-04-06T14:44:50Z</time></trkpt><trkpt lat="44.53456526258423" lon="10.611933980144082"><ele>249.5</ele><time>2026-04-06T14:44:51Z</time></trkpt><trkpt lat="44.53445119107465" lon="10.61180950149848"><ele>247.75</ele><time>2026-04-06T14:44:52Z</time></trkpt><trkpt lat="44.5343475394945" lon="10.611671709317953"><ele>246.0</ele><time>2026-04-06T14:44:53Z</time></trkpt><trkpt lat="44.53425684972946" lon="10.611527189739515"><ele>246.0</ele><time>2026-04-06T14:44:54Z</time></trkpt><trkpt lat="44.53419011666615" lon="10.611357645786414"><ele>246.0</ele><time>2026-04-06T14:44:55Z</time></trkpt><trkpt lat="44.53414602991703" lon="10.61116731483005"><ele>246.0</ele><time>2026-04-06T14:44:56Z</time></trkpt><trkpt lat="44.534108146921874" lon="10.610952533327792"><ele>246.0</ele><time>2026-04-06T14:44:57Z</time></trkpt><trkpt lat="44.53408765533756" lon="10.610736836164799"><ele>245.75</ele><time>2026-04-06T14:44:58Z</time></trkpt><trkpt lat="44.53407541936993" lon="10.61052146060545"><ele>245.5</ele><time>2026-04-06T14:44:59Z</time></trkpt><trkpt lat="44.534070601406" lon="10.610305299874716"><ele>245.25</ele><time>2026-04-06T14:45:00Z</time></trkpt><trkpt lat="44.53406303758842" lon="10.610113444281152"><ele>245.0</ele><time>2026-04-06T14:45:01Z</time></trkpt><trkpt lat="44.53405332654143" lon="10.609937227382291"><ele>244.75</ele><time>2026-04-06T14:45:02Z</time></trkpt><trkpt lat="44.534046131836966" lon="10.60976783423384"><ele>244.5</ele><time>2026-04-06T14:45:03Z</time></trkpt><trkpt lat="44.53404319132643" lon="10.609607220524126"><ele>244.25</ele><time>2026-04-06T14:45:04Z</time></trkpt><trkpt lat="44.53404228025126" lon="10.60945893934468"><ele>244.0</ele><time>2026-04-06T14:45:05Z</time></trkpt><trkpt lat="44.534026598976716" lon="10.609288192279218"><ele>244.0</ele><time>2026-04-06T14:45:06Z</time></trkpt><trkpt lat="44.534020402297884" lon="10.609115040193915"><ele>244.0</ele><time>2026-04-06T14:45:07Z</time></trkpt><trkpt lat="44.53401706558025" lon="10.60894093859733"><ele>244.0</ele><time>2026-04-06T14:45:08Z</time></trkpt><trkpt lat="44.53400913469567" lon="10.608761822224093"><ele>244.0</ele><time>2026-04-06T14:45:09Z</time></trkpt><trkpt lat="44.53399251415071" lon="10.60858371746979"><ele>243.0</ele><time>2026-04-06T14:45:10Z</time></trkpt><trkpt lat="44.53397765279891" lon="10.608401025639807"><ele>242.0</ele><time>2026-04-06T14:45:11Z</time></trkpt><trkpt lat="44.533961101785295" lon="10.608224970042205"><ele>241.0</ele><time>2026-04-06T14:45:12Z</time></trkpt><trkpt lat="44.53394697421329" lon="10.60804193763869"><ele>240.0</ele><time>2026-04-06T14:45:13Z</time></trkpt><trkpt lat="44.53393305672958" lon="10.607856591119292"><ele>239.5</ele><time>2026-04-06T14:45:14Z</time></trkpt><trkpt lat="44.53391623042492" lon="10.60766946262176"><ele>239.0</ele><time>2026-04-06T14:45:15Z</time></trkpt><trkpt lat="44.53389727198317" lon="10.607485476348625"><ele>238.5</ele><time>2026-04-06T14:45:16Z</time></trkpt><trkpt lat="44.53387384021144" lon="10.607304193271213"><ele>238.0</ele><time>2026-04-06T14:45:17Z</time></trkpt><trkpt lat="44.53384421537578" lon="10.607127759517438"><ele>239.0</ele><time>2026-04-06T14:45:18Z</time></trkpt><trkpt lat="44.5337973444284" lon="10.606959001581142"><ele>240.0</ele><time>2026-04-06T14:45:19Z</time></trkpt><trkpt lat="44.533746335346144" lon="10.60679477977873"><ele>241.0</ele><time>2026-04-06T14:45:20Z</time></trkpt><trkpt lat="44.533692861461034" lon="10.606619950607888"><ele>242.0</ele><time>2026-04-06T14:45:21Z</time></trkpt><trkpt lat="44.533634694195534" lon="10.606437926276525"><ele>242.5</ele><time>2026-04-06T14:45:22Z</time></trkpt><trkpt lat="44.53356991860729" lon="10.606242455631746"><ele>243.0</ele><time>2026-04-06T14:45:23Z</time></trkpt><trkpt lat="44.533510851012615" lon="10.606050229680582"><ele>243.5</ele><time>2026-04-06T14:45:24Z</time></trkpt><trkpt lat="44.5334497320443" lon="10.605864457728906"><ele>244.0</ele><time>2026-04-06T14:45:25Z</time></trkpt><trkpt lat="44.53339408322624" lon="10.605677580550642"><ele>244.0</ele><time>2026-04-06T14:45:26Z</time></trkpt><trkpt lat="44.5333349567313" lon="10.605499139237615"><ele>244.0</ele><time>2026-04-06T14:45:27Z</time></trkpt><trkpt lat="44.53327743027845" lon="10.605316285255277"><ele>244.0</ele><time>2026-04-06T14:45:28Z</time></trkpt><trkpt lat="44.53322334725954" lon="10.605136009581381"><ele>244.0</ele><time>2026-04-06T14:45:29Z</time></trkpt><trkpt lat="44.53316916014195" lon="10.604951514665064"><ele>244.0</ele><time>2026-04-06T14:45:30Z</time></trkpt><trkpt lat="44.533110861397276" lon="10.60476435438595"><ele>244.0</ele><time>2026-04-06T14:45:31Z</time></trkpt><trkpt lat="44.533050250218636" lon="10.604585266112059"><ele>244.0</ele><time>2026-04-06T14:45:32Z</time></trkpt><trkpt lat="44.53298703158141" lon="10.604405216013"><ele>244.0</ele><time>2026-04-06T14:45:33Z</time></trkpt><trkpt lat="44.53291176668776" lon="10.604239719928705"><ele>249.0</ele><time>2026-04-06T14:45:34Z</time></trkpt><trkpt lat="44.5328182868735" lon="10.604085970434893"><ele>254.0</ele><time>2026-04-06T14:45:35Z</time></trkpt><trkpt lat="44.5327141619472" lon="10.60393941744657"><ele>259.0</ele><time>2026-04-06T14:45:36Z</time></trkpt><trkpt lat="44.53260011922761" lon="10.603778473493227"><ele>256.0</ele><time>2026-04-06T14:45:37Z</time></trkpt><trkpt lat="44.53248516965734" lon="10.603614890075331"><ele>253.0</ele><time>2026-04-06T14:45:38Z</time></trkpt><trkpt lat="44.532375791086096" lon="10.603463411219877"><ele>250.0</ele><time>2026-04-06T14:45:39Z</time></trkpt><trkpt lat="44.53227550284093" lon="10.603310900722281"><ele>250.0</ele><time>2026-04-06T14:45:40Z</time></trkpt><trkpt lat="44.53218441003187" lon="10.603152224738876"><ele>250.0</ele><time>2026-04-06T14:45:41Z</time></trkpt><trkpt lat="44.5320966453858" lon="10.602995752208487"><ele>250.0</ele><time>2026-04-06T14:45:42Z</time></trkpt><trkpt lat="44.53202419588517" lon="10.602812550565158"><ele>250.0</ele><time>2026-04-06T14:45:43Z</time></trkpt><trkpt lat="44.53196053107109" lon="10.602626976080336"><ele>256.66666666666663</ele><time>2026-04-06T14:45:44Z</time></trkpt><trkpt lat="44.531893936301174" lon="10.60243687699086"><ele>263.3333333333333</ele><time>2026-04-06T14:45:45Z</time></trkpt><trkpt lat="44.53183099456432" lon="10.60224522739918"><ele>270.0</ele><time>2026-04-06T14:45:46Z</time></trkpt><trkpt lat="44.53176047573287" lon="10.602045778508927"><ele>266.3333333333333</ele><time>2026-04-06T14:45:47Z</time></trkpt><trkpt lat="44.531689561816854" lon="10.601842270302152"><ele>262.66666666666663</ele><time>2026-04-06T14:45:48Z</time></trkpt><trkpt lat="44.53161113901173" lon="10.601638283067478"><ele>259.0</ele><time>2026-04-06T14:45:49Z</time></trkpt><trkpt lat="44.53153261833286" lon="10.601440412571137"><ele>259.0</ele><time>2026-04-06T14:45:50Z</time></trkpt><trkpt lat="44.53146783828377" lon="10.601246033274753"><ele>259.0</ele><time>2026-04-06T14:45:51Z</time></trkpt><trkpt lat="44.53139997928754" lon="10.60105558438768"><ele>259.0</ele><time>2026-04-06T14:45:52Z</time></trkpt><trkpt lat="44.53133158514107" lon="10.60086909730779"><ele>257.75</ele><time>2026-04-06T14:45:53Z</time></trkpt><trkpt lat="44.53127303288748" lon="10.600691565119096"><ele>256.5</ele><time>2026-04-06T14:45:54Z</time></trkpt><trkpt lat="44.531228876645116" lon="10.600520193114788"><ele>255.25</ele><time>2026-04-06T14:45:55Z</time></trkpt><trkpt lat="44.5311930154893" lon="10.600347024568945"><ele>254.0</ele><time>2026-04-06T14:45:56Z</time></trkpt><trkpt lat="44.53117393540199" lon="10.600166234826727"><ele>254.0</ele><time>2026-04-06T14:45:57Z</time></trkpt><trkpt lat="44.531178915555834" lon="10.599994332996177"><ele>254.0</ele><time>2026-04-06T14:45:58Z</time></trkpt><trkpt lat="44.53118646103941" lon="10.599823961780015"><ele>254.0</ele><time>2026-04-06T14:45:59Z</time></trkpt><trkpt lat="44.53118561627201" lon="10.59965829626371"><ele>254.0</ele><time>2026-04-06T14:46:00Z</time></trkpt><trkpt lat="44.53117186164419" lon="10.599511212899705"><ele>254.5</ele><time>2026-04-06T14:46:01Z</time></trkpt><trkpt lat="44.531124183685705" lon="10.599375192738442"><ele>255.0</ele><time>2026-04-06T14:46:02Z</time></trkpt><trkpt lat="44.531042420215634" lon="10.599253258829092"><ele>255.5</ele><time>2026-04-06T14:46:03Z</time></trkpt><trkpt lat="44.53093511917074" lon="10.599164053737603"><ele>256.0</ele><time>2026-04-06T14:46:04Z</time></trkpt><trkpt lat="44.530810419305205" lon="10.599116514063903"><ele>256.0</ele><time>2026-04-06T14:46:05Z</time></trkpt><trkpt lat="44.530684484258096" lon="10.599089133319813"><ele>256.0</ele><time>2026-04-06T14:46:06Z</time></trkpt><trkpt lat="44.530561548312875" lon="10.599085439647617"><ele>256.0</ele><time>2026-04-06T14:46:07Z</time></trkpt><trkpt lat="44.53044883643856" lon="10.599083367693689"><ele>256.0</ele><time>2026-04-06T14:46:08Z</time></trkpt><trkpt lat="44.53033642622792" lon="10.599079275818632"><ele>256.0</ele><time>2026-04-06T14:46:09Z</time></trkpt><trkpt lat="44.5302234522158" lon="10.59906197170295"><ele>256.0</ele><time>2026-04-06T14:46:10Z</time></trkpt><trkpt lat="44.53011735445886" lon="10.59904383347423"><ele>256.0</ele><time>2026-04-06T14:46:11Z</time></trkpt><trkpt lat="44.53001080001513" lon="10.59901972718632"><ele>256.0</ele><time>2026-04-06T14:46:12Z</time></trkpt><trkpt lat="44.52990829425288" lon="10.598982970420916"><ele>256.0</ele><time>2026-04-06T14:46:13Z</time></trkpt><trkpt lat="44.52980968060638" lon="10.598936434951597"><ele>256.0</ele><time>2026-04-06T14:46:14Z</time></trkpt><trkpt lat="44.529715530124534" lon="10.598885047424822"><ele>256.0</ele><time>2026-04-06T14:46:15Z</time></trkpt><trkpt lat="44.529611119059524" lon="10.59884122348686"><ele>256.0</ele><time>2026-04-06T14:46:16Z</time></trkpt><trkpt lat="44.52952302014362" lon="10.598797754802371"><ele>256.0</ele><time>2026-04-06T14:46:17Z</time></trkpt><trkpt lat="44.52941989766684" lon="10.598754960351052"><ele>256.0</ele><time>2026-04-06T14:46:18Z</time></trkpt><trkpt lat="44.52932642113297" lon="10.598711244264878"><ele>255.8</ele><time>2026-04-06T14:46:19Z</time></trkpt><trkpt lat="44.529226479979606" lon="10.598665481667238"><ele>255.60000000000002</ele><time>2026-04-06T14:46:20Z</time></trkpt><trkpt lat="44.52913536825773" lon="10.59862724172356"><ele>255.4</ele><time>2026-04-06T14:46:21Z</time></trkpt><trkpt lat="44.529053275957565" lon="10.598606425889695"><ele>255.2</ele><time>2026-04-06T14:46:22Z</time></trkpt><trkpt lat="44.52898100987659" lon="10.59857584898108"><ele>255.0</ele><time>2026-04-06T14:46:23Z</time></trkpt><trkpt lat="44.52889503956525" lon="10.598514673531971"><ele>255.0</ele><time>2026-04-06T14:46:25Z</time></trkpt><trkpt lat="44.528832895174965" lon="10.59846088065687"><ele>255.0</ele><time>2026-04-06T14:46:37Z</time></trkpt><trkpt lat="44.528726316808" lon="10.598381280046903"><ele>255.0</ele><time>2026-04-06T14:46:39Z</time></trkpt><trkpt lat="44.528665886618796" lon="10.598355248190696"><ele>255.0</ele><time>2026-04-06T14:46:40Z</time></trkpt><trkpt lat="44.528603054886126" lon="10.598324499704654"><ele>255.0</ele><time>2026-04-06T14:46:41Z</time></trkpt><trkpt lat="44.52853881220116" lon="10.598286857052711"><ele>255.0</ele><time>2026-04-06T14:46:42Z</time></trkpt><trkpt lat="44.52845928558028" lon="10.59823505561368"><ele>255.66666666666666</ele><time>2026-04-06T14:46:43Z</time></trkpt><trkpt lat="44.52837709347253" lon="10.598175398363923"><ele>256.3333333333333</ele><time>2026-04-06T14:46:44Z</time></trkpt><trkpt lat="44.52831883053549" lon="10.598132126437331"><ele>257.0</ele><time>2026-04-06T14:46:45Z</time></trkpt><trkpt lat="44.52825467917916" lon="10.598084481239116"><ele>257.66666666666663</ele><time>2026-04-06T14:46:47Z</time></trkpt><trkpt lat="44.52814638901579" lon="10.59800670695782"><ele>258.3333333333333</ele><time>2026-04-06T14:46:49Z</time></trkpt><trkpt lat="44.528073035254764" lon="10.597956091658078"><ele>259.0</ele><time>2026-04-06T14:46:51Z</time></trkpt><trkpt lat="44.528015165023426" lon="10.597900870451546"><ele>259.0</ele><time>2026-04-06T14:46:53Z</time></trkpt><trkpt lat="44.527932794357035" lon="10.597842755871168"><ele>259.0</ele><time>2026-04-06T14:46:55Z</time></trkpt><trkpt lat="44.528078128756334" lon="10.597258438874382"><ele>260.3333333333333</ele><time>2026-04-06T14:46:56Z</time></trkpt><trkpt lat="44.528015354651444" lon="10.597195407857923"><ele>261.66666666666663</ele><time>2026-04-06T14:46:57Z</time></trkpt><trkpt lat="44.5278982342018" lon="10.597089107400402"><ele>263.0</ele><time>2026-04-06T14:46:59Z</time></trkpt><trkpt lat="44.527834111447284" lon="10.597044375757392"><ele>264.3333333333333</ele><time>2026-04-06T14:47:00Z</time></trkpt><trkpt lat="44.527774384103296" lon="10.597009876999739"><ele>265.6666666666667</ele><time>2026-04-06T14:47:01Z</time></trkpt><trkpt lat="44.527736482288816" lon="10.596938663866354"><ele>267.0</ele><time>2026-04-06T14:47:02Z</time></trkpt><trkpt lat="44.52772092663724" lon="10.596769315251235"><ele>269.6</ele><time>2026-04-06T14:47:04Z</time></trkpt><trkpt lat="44.52767452057649" lon="10.596644158762599"><ele>272.2</ele><time>2026-04-06T14:47:05Z</time></trkpt><trkpt lat="44.527627250349795" lon="10.596514039826745"><ele>274.8</ele><time>2026-04-06T14:47:07Z</time></trkpt><trkpt lat="44.52759267357101" lon="10.596429916018582"><ele>277.4</ele><time>2026-04-06T14:47:09Z</time></trkpt><trkpt lat="44.52754971853835" lon="10.59623490655354"><ele>280.0</ele><time>2026-04-06T14:47:10Z</time></trkpt><trkpt lat="44.52749198545884" lon="10.596106330896209"><ele>281.3333333333333</ele><time>2026-04-06T14:47:12Z</time></trkpt><trkpt lat="44.52743510825789" lon="10.596004855452945"><ele>282.66666666666663</ele><time>2026-04-06T14:47:13Z</time></trkpt><trkpt lat="44.52739655621927" lon="10.595871929246231"><ele>284.0</ele><time>2026-04-06T14:47:15Z</time></trkpt><trkpt lat="44.527336942201586" lon="10.595763422959175"><ele>285.3333333333333</ele><time>2026-04-06T14:47:17Z</time></trkpt><trkpt lat="44.52729468121096" lon="10.595687366280456"><ele>286.6666666666667</ele><time>2026-04-06T14:47:18Z</time></trkpt><trkpt lat="44.52724928839205" lon="10.595616870406568"><ele>288.0</ele><time>2026-04-06T14:47:19Z</time></trkpt><trkpt lat="44.527147801862014" lon="10.595521848477178"><ele>288.0</ele><time>2026-04-06T14:47:21Z</time></trkpt><trkpt lat="44.52706559356641" lon="10.595432510116904"><ele>288.0</ele><time>2026-04-06T14:47:23Z</time></trkpt><trkpt lat="44.52699663334025" lon="10.595357167649354"><ele>288.0</ele><time>2026-04-06T14:47:25Z</time></trkpt><trkpt lat="44.52692838848041" lon="10.595280761080689"><ele>288.0</ele><time>2026-04-06T14:47:26Z</time></trkpt><trkpt lat="44.5268684401355" lon="10.595194383054324"><ele>288.0</ele><time>2026-04-06T14:47:27Z</time></trkpt><trkpt lat="44.52680656722915" lon="10.595088524676358"><ele>291.0</ele><time>2026-04-06T14:47:28Z</time></trkpt><trkpt lat="44.52673073036612" lon="10.594949631358029"><ele>294.0</ele><time>2026-04-06T14:47:29Z</time></trkpt><trkpt lat="44.52666549026483" lon="10.594826340191258"><ele>297.0</ele><time>2026-04-06T14:47:30Z</time></trkpt><trkpt lat="44.52662071407996" lon="10.594735379893367"><ele>300.0</ele><time>2026-04-06T14:47:31Z</time></trkpt><trkpt lat="44.526582530925204" lon="10.594641930103933"><ele>303.0</ele><time>2026-04-06T14:47:32Z</time></trkpt><trkpt lat="44.52651984243577" lon="10.594522634645028"><ele>310.5</ele><time>2026-04-06T14:47:34Z</time></trkpt><trkpt lat="44.52666648967708" lon="10.594285596825193"><ele>318.0</ele><time>2026-04-06T14:47:37Z</time></trkpt><trkpt lat="44.52670166369043" lon="10.594196739442687"><ele>325.5</ele><time>2026-04-06T14:47:38Z</time></trkpt><trkpt lat="44.526752094631355" lon="10.594087793402643"><ele>333.0</ele><time>2026-04-06T14:47:39Z</time></trkpt><trkpt lat="44.52683422034626" lon="10.594017129217612"><ele>333.0</ele><time>2026-04-06T14:47:40Z</time></trkpt><trkpt lat="44.52691539633297" lon="10.593974783722452"><ele>333.0</ele><time>2026-04-06T14:47:41Z</time></trkpt><trkpt lat="44.52697913730178" lon="10.593928814042437"><ele>333.0</ele><time>2026-04-06T14:47:42Z</time></trkpt><trkpt lat="44.527032082768876" lon="10.593864057703806"><ele>333.0</ele><time>2026-04-06T14:47:43Z</time></trkpt><trkpt lat="44.52706750894747" lon="10.593783799297995"><ele>333.0</ele><time>2026-04-06T14:47:44Z</time></trkpt><trkpt lat="44.52709302725732" lon="10.59368708253004"><ele>333.0</ele><time>2026-04-06T14:47:45Z</time></trkpt><trkpt lat="44.527083996543354" lon="10.5935919482209"><ele>333.0</ele><time>2026-04-06T14:47:46Z</time></trkpt><trkpt lat="44.52706302815609" lon="10.593466186760566"><ele>336.0</ele><time>2026-04-06T14:47:47Z</time></trkpt><trkpt lat="44.52704598523835" lon="10.593315192072515"><ele>339.0</ele><time>2026-04-06T14:47:48Z</time></trkpt><trkpt lat="44.527032465530034" lon="10.593154737602747"><ele>342.0</ele><time>2026-04-06T14:47:49Z</time></trkpt><trkpt lat="44.52700622394578" lon="10.59300599193385"><ele>345.0</ele><time>2026-04-06T14:47:50Z</time></trkpt><trkpt lat="44.526992424948816" lon="10.59285435295634"><ele>348.0</ele><time>2026-04-06T14:47:51Z</time></trkpt><trkpt lat="44.52701431573317" lon="10.592718467159836"><ele>348.0</ele><time>2026-04-06T14:47:52Z</time></trkpt><trkpt lat="44.52700199123136" lon="10.592561998408112"><ele>348.0</ele><time>2026-04-06T14:47:53Z</time></trkpt><trkpt lat="44.52699627186663" lon="10.592436742448049"><ele>348.0</ele><time>2026-04-06T14:47:54Z</time></trkpt><trkpt lat="44.52698932890312" lon="10.592282214047978"><ele>348.0</ele><time>2026-04-06T14:47:55Z</time></trkpt><trkpt lat="44.52697920053724" lon="10.592147733910943"><ele>348.0</ele><time>2026-04-06T14:47:56Z</time></trkpt><trkpt lat="44.52696368928396" lon="10.59202899108816"><ele>348.79999999999995</ele><time>2026-04-06T14:47:57Z</time></trkpt><trkpt lat="44.52695733089968" lon="10.591874169169369"><ele>349.6</ele><time>2026-04-06T14:47:58Z</time></trkpt><trkpt lat="44.52692501983323" lon="10.591702836062177"><ele>350.4</ele><time>2026-04-06T14:47:59Z</time></trkpt><trkpt lat="44.52690848457095" lon="10.591566843866184"><ele>351.20000000000005</ele><time>2026-04-06T14:48:00Z</time></trkpt><trkpt lat="44.52691819455008" lon="10.59143314346356"><ele>352.0</ele><time>2026-04-06T14:48:01Z</time></trkpt><trkpt lat="44.52693006153202" lon="10.591297871362036"><ele>352.0</ele><time>2026-04-06T14:48:02Z</time></trkpt><trkpt lat="44.5269379779091" lon="10.591185597396493"><ele>352.0</ele><time>2026-04-06T14:48:03Z</time></trkpt><trkpt lat="44.526951879703766" lon="10.591077961469823"><ele>352.0</ele><time>2026-04-06T14:48:04Z</time></trkpt><trkpt lat="44.52700127214827" lon="10.590967756447519"><ele>352.0</ele><time>2026-04-06T14:48:05Z</time></trkpt><trkpt lat="44.52701637925301" lon="10.590804602621128"><ele>352.0</ele><time>2026-04-06T14:48:06Z</time></trkpt><trkpt lat="44.52703002728526" lon="10.590665135672014"><ele>352.3333333333333</ele><time>2026-04-06T14:48:07Z</time></trkpt><trkpt lat="44.52705463180477" lon="10.590543252407016"><ele>352.66666666666663</ele><time>2026-04-06T14:48:08Z</time></trkpt><trkpt lat="44.527065217628945" lon="10.590454929836008"><ele>353.0</ele><time>2026-04-06T14:48:09Z</time></trkpt><trkpt lat="44.52706055100591" lon="10.590347107640717"><ele>353.3333333333333</ele><time>2026-04-06T14:48:10Z</time></trkpt><trkpt lat="44.527114415675" lon="10.59026047735256"><ele>353.6666666666667</ele><time>2026-04-06T14:48:11Z</time></trkpt><trkpt lat="44.52713802114381" lon="10.590085421080923"><ele>354.0</ele><time>2026-04-06T14:48:13Z</time></trkpt><trkpt lat="44.527152347002" lon="10.589983026357993"><ele>350.6</ele><time>2026-04-06T14:48:15Z</time></trkpt><trkpt lat="44.52721792389407" lon="10.589901869906964"><ele>347.2</ele><time>2026-04-06T14:48:17Z</time></trkpt><trkpt lat="44.527260059478635" lon="10.589808469408444"><ele>343.8</ele><time>2026-04-06T14:48:18Z</time></trkpt><trkpt lat="44.52731290724989" lon="10.589630014429826"><ele>340.40000000000003</ele><time>2026-04-06T14:48:20Z</time></trkpt><trkpt lat="44.527342817307066" lon="10.589523656647206"><ele>337.0</ele><time>2026-04-06T14:48:21Z</time></trkpt><trkpt lat="44.52736953157283" lon="10.58940911052789"><ele>337.0</ele><time>2026-04-06T14:48:22Z</time></trkpt><trkpt lat="44.5273977259722" lon="10.589293443255862"><ele>337.0</ele><time>2026-04-06T14:48:23Z</time></trkpt><trkpt lat="44.527399629199714" lon="10.589150259161023"><ele>337.0</ele><time>2026-04-06T14:48:24Z</time></trkpt><trkpt lat="44.52738896513543" lon="10.589002823965181"><ele>337.0</ele><time>2026-04-06T14:48:25Z</time></trkpt><trkpt lat="44.52739977033138" lon="10.588859814380092"><ele>337.0</ele><time>2026-04-06T14:48:26Z</time></trkpt><trkpt lat="44.52743311569714" lon="10.588736476693585"><ele>340.20000000000005</ele><time>2026-04-06T14:48:27Z</time></trkpt><trkpt lat="44.52747352578237" lon="10.588647603447626"><ele>343.4</ele><time>2026-04-06T14:48:28Z</time></trkpt><trkpt lat="44.52756853678369" lon="10.588553598647149"><ele>346.6</ele><time>2026-04-06T14:48:30Z</time></trkpt><trkpt lat="44.52765857746207" lon="10.588483063951953"><ele>349.79999999999995</ele><time>2026-04-06T14:48:31Z</time></trkpt><trkpt lat="44.527718677408586" lon="10.588378606845405"><ele>353.0</ele><time>2026-04-06T14:48:32Z</time></trkpt><trkpt lat="44.52776323369679" lon="10.588285487561024"><ele>353.0</ele><time>2026-04-06T14:48:33Z</time></trkpt><trkpt lat="44.52781661605162" lon="10.588171175672146"><ele>353.0</ele><time>2026-04-06T14:48:34Z</time></trkpt><trkpt lat="44.52785939653162" lon="10.588052294177357"><ele>353.0</ele><time>2026-04-06T14:48:35Z</time></trkpt><trkpt lat="44.52788401229503" lon="10.587944573127293"><ele>353.0</ele><time>2026-04-06T14:48:36Z</time></trkpt><trkpt lat="44.527893394483115" lon="10.587821159825708"><ele>353.0</ele><time>2026-04-06T14:48:37Z</time></trkpt><trkpt lat="44.52797438126469" lon="10.587733817358403"><ele>347.83333333333337</ele><time>2026-04-06T14:48:39Z</time></trkpt><trkpt lat="44.528045936736284" lon="10.5876648314528"><ele>342.6666666666667</ele><time>2026-04-06T14:48:40Z</time></trkpt><trkpt lat="44.528129790958374" lon="10.58758540820932"><ele>337.5</ele><time>2026-04-06T14:48:41Z</time></trkpt><trkpt lat="44.5281887069327" lon="10.58750304366"><ele>332.3333333333333</ele><time>2026-04-06T14:48:42Z</time></trkpt><trkpt lat="44.52822312141078" lon="10.587405983683478"><ele>327.16666666666663</ele><time>2026-04-06T14:48:43Z</time></trkpt><trkpt lat="44.528277819007045" lon="10.587328469133622"><ele>322.0</ele><time>2026-04-06T14:48:44Z</time></trkpt><trkpt lat="44.52837329642131" lon="10.587310425059643"><ele>322.0</ele><time>2026-04-06T14:48:46Z</time></trkpt><trkpt lat="44.52844300532541" lon="10.587421757967979"><ele>322.0</ele><time>2026-04-06T14:48:47Z</time></trkpt><trkpt lat="44.528507438956815" lon="10.587541458756052"><ele>322.0</ele><time>2026-04-06T14:48:48Z</time></trkpt><trkpt lat="44.52857279390915" lon="10.587616660828221"><ele>322.0</ele><time>2026-04-06T14:48:49Z</time></trkpt><trkpt lat="44.52865375528986" lon="10.587635196150616"><ele>322.0</ele><time>2026-04-06T14:48:50Z</time></trkpt><trkpt lat="44.52875040114707" lon="10.587632953999957"><ele>319.16666666666663</ele><time>2026-04-06T14:48:51Z</time></trkpt><trkpt lat="44.52884014931846" lon="10.58764649095859"><ele>316.3333333333333</ele><time>2026-04-06T14:48:52Z</time></trkpt><trkpt lat="44.528919143057294" lon="10.587672400887032"><ele>313.5</ele><time>2026-04-06T14:48:53Z</time></trkpt><trkpt lat="44.5289884002089" lon="10.587712385935937"><ele>310.6666666666667</ele><time>2026-04-06T14:48:54Z</time></trkpt><trkpt lat="44.52905049689788" lon="10.587765438784421"><ele>307.83333333333337</ele><time>2026-04-06T14:48:55Z</time></trkpt><trkpt lat="44.52909581354003" lon="10.58783268112075"><ele>305.0</ele><time>2026-04-06T14:48:56Z</time></trkpt><trkpt lat="44.52913266764158" lon="10.58792452097139"><ele>305.0</ele><time>2026-04-06T14:48:58Z</time></trkpt><trkpt lat="44.52915555444335" lon="10.587817893517345"><ele>305.0</ele><time>2026-04-06T14:49:01Z</time></trkpt><trkpt lat="44.52917397949993" lon="10.587716569193987"><ele>305.0</ele><time>2026-04-06T14:49:02Z</time></trkpt><trkpt lat="44.52921175811896" lon="10.587631508535168"><ele>305.0</ele><time>2026-04-06T14:49:05Z</time></trkpt><trkpt lat="44.52917023725446" lon="10.587544854023575"><ele>305.0</ele><time>2026-04-06T14:49:07Z</time></trkpt><trkpt lat="44.5292353978969" lon="10.587449417451335"><ele>305.0</ele><time>2026-04-06T14:49:09Z</time></trkpt><trkpt lat="44.52911210774861" lon="10.586920643637576"><ele>305.83333333333337</ele><time>2026-04-06T14:49:11Z</time></trkpt><trkpt lat="44.52910267618656" lon="10.58680461464493"><ele>306.6666666666667</ele><time>2026-04-06T14:49:12Z</time></trkpt><trkpt lat="44.529132378233754" lon="10.586681610982813"><ele>307.5</ele><time>2026-04-06T14:49:13Z</time></trkpt><trkpt lat="44.52916589305114" lon="10.586566293637567"><ele>308.3333333333333</ele><time>2026-04-06T14:49:14Z</time></trkpt><trkpt lat="44.529182752818166" lon="10.586462568326434"><ele>309.16666666666663</ele><time>2026-04-06T14:49:15Z</time></trkpt><trkpt lat="44.52915968672882" lon="10.58634244119875"><ele>310.0</ele><time>2026-04-06T14:49:16Z</time></trkpt><trkpt lat="44.52912920288965" lon="10.586167244083041"><ele>310.6</ele><time>2026-04-06T14:49:17Z</time></trkpt><trkpt lat="44.529144943272065" lon="10.586033733780683"><ele>311.2</ele><time>2026-04-06T14:49:18Z</time></trkpt><trkpt lat="44.529177197682" lon="10.585912716493358"><ele>311.8</ele><time>2026-04-06T14:49:19Z</time></trkpt><trkpt lat="44.52920492276582" lon="10.5857884871648"><ele>312.4</ele><time>2026-04-06T14:49:20Z</time></trkpt><trkpt lat="44.52931275458068" lon="10.585750327476159"><ele>313.0</ele><time>2026-04-06T14:49:22Z</time></trkpt><trkpt lat="44.5293948994093" lon="10.585815885915938"><ele>313.0</ele><time>2026-04-06T14:49:23Z</time></trkpt><trkpt lat="44.529458088735254" lon="10.585850529682546"><ele>313.0</ele><time>2026-04-06T14:49:24Z</time></trkpt><trkpt lat="44.5295533109109" lon="10.585895816403774"><ele>313.0</ele><time>2026-04-06T14:49:25Z</time></trkpt><trkpt lat="44.529671588092114" lon="10.585976003318697"><ele>313.0</ele><time>2026-04-06T14:49:26Z</time></trkpt><trkpt lat="44.52978420071848" lon="10.586016956161918"><ele>313.0</ele><time>2026-04-06T14:49:27Z</time></trkpt><trkpt lat="44.52987881804442" lon="10.585960777982471"><ele>318.2</ele><time>2026-04-06T14:49:28Z</time></trkpt><trkpt lat="44.52997660372146" lon="10.58594039270265"><ele>323.4</ele><time>2026-04-06T14:49:29Z</time></trkpt><trkpt lat="44.5300854026612" lon="10.585857963482221"><ele>328.59999999999997</ele><time>2026-04-06T14:49:31Z</time></trkpt><trkpt lat="44.53013959237557" lon="10.585718422075132"><ele>333.8</ele><time>2026-04-06T14:49:32Z</time></trkpt><trkpt lat="44.53020409153448" lon="10.585587966948518"><ele>339.0</ele><time>2026-04-06T14:49:33Z</time></trkpt><trkpt lat="44.53028363314463" lon="10.585468573674508"><ele>339.0</ele><time>2026-04-06T14:49:34Z</time></trkpt><trkpt lat="44.53035307582316" lon="10.585380517741573"><ele>339.0</ele><time>2026-04-06T14:49:35Z</time></trkpt><trkpt lat="44.53040411285558" lon="10.58544907431451"><ele>339.0</ele><time>2026-04-06T14:49:40Z</time></trkpt><trkpt lat="44.53037979653485" lon="10.585532375950432"><ele>339.0</ele><time>2026-04-06T14:49:42Z</time></trkpt><trkpt lat="44.53055632975187" lon="10.586048157398595"><ele>345.4</ele><time>2026-04-06T14:49:44Z</time></trkpt><trkpt lat="44.5305992035128" lon="10.586236059135937"><ele>351.79999999999995</ele><time>2026-04-06T14:49:45Z</time></trkpt><trkpt lat="44.53060080662192" lon="10.586340367554495"><ele>358.20000000000005</ele><time>2026-04-06T14:49:46Z</time></trkpt><trkpt lat="44.530713207104014" lon="10.586353167982269"><ele>364.6</ele><time>2026-04-06T14:49:48Z</time></trkpt><trkpt lat="44.530805023365" lon="10.586253842883973"><ele>371.0</ele><time>2026-04-06T14:49:50Z</time></trkpt><trkpt lat="44.530842738541615" lon="10.586175891693593"><ele>371.0</ele><time>2026-04-06T14:49:51Z</time></trkpt><trkpt lat="44.53087984658448" lon="10.586018767560365"><ele>371.0</ele><time>2026-04-06T14:49:52Z</time></trkpt><trkpt lat="44.53091484101188" lon="10.585924890229672"><ele>371.0</ele><time>2026-04-06T14:49:53Z</time></trkpt><trkpt lat="44.53097474676014" lon="10.585897229987847"><ele>371.0</ele><time>2026-04-06T14:49:54Z</time></trkpt><trkpt lat="44.53105803252587" lon="10.585938338784068"><ele>371.0</ele><time>2026-04-06T14:49:55Z</time></trkpt><trkpt lat="44.53114614170139" lon="10.585986773428896"><ele>371.0</ele><time>2026-04-06T14:49:56Z</time></trkpt><trkpt lat="44.53127680067014" lon="10.5860129559954"><ele>371.0</ele><time>2026-04-06T14:49:57Z</time></trkpt><trkpt lat="44.53136017407243" lon="10.58608793966515"><ele>371.0</ele><time>2026-04-06T14:49:58Z</time></trkpt><trkpt lat="44.53136158790468" lon="10.586223852613385"><ele>371.0</ele><time>2026-04-06T14:50:00Z</time></trkpt><trkpt lat="44.53125840060436" lon="10.586235215484683"><ele>371.0</ele><time>2026-04-06T14:50:02Z</time></trkpt><trkpt lat="44.53118107977404" lon="10.586175878396203"><ele>371.0</ele><time>2026-04-06T14:50:03Z</time></trkpt><trkpt lat="44.53112991347713" lon="10.586270655335372"><ele>374.5</ele><time>2026-04-06T14:50:05Z</time></trkpt><trkpt lat="44.53107488014255" lon="10.586317412484977"><ele>378.0</ele><time>2026-04-06T14:50:06Z</time></trkpt><trkpt lat="44.53107263157948" lon="10.586479652023252"><ele>381.5</ele><time>2026-04-06T14:50:08Z</time></trkpt><trkpt lat="44.53104318963932" lon="10.586666495928"><ele>385.0</ele><time>2026-04-06T14:50:09Z</time></trkpt><trkpt lat="44.530962143277016" lon="10.58687699029283"><ele>389.0</ele><time>2026-04-06T14:50:10Z</time></trkpt><trkpt lat="44.530901301572236" lon="10.587087501948233"><ele>393.0</ele><time>2026-04-06T14:50:11Z</time></trkpt><trkpt lat="44.53085744134482" lon="10.587299609100732"><ele>397.0</ele><time>2026-04-06T14:50:12Z</time></trkpt><trkpt lat="44.53082310002946" lon="10.58751517349301"><ele>397.0</ele><time>2026-04-06T14:50:13Z</time></trkpt><trkpt lat="44.53079352707248" lon="10.587699574861906"><ele>397.0</ele><time>2026-04-06T14:50:14Z</time></trkpt><trkpt lat="44.53077638990162" lon="10.587868996781197"><ele>397.0</ele><time>2026-04-06T14:50:15Z</time></trkpt><trkpt lat="44.53075646051211" lon="10.588037135248516"><ele>397.0</ele><time>2026-04-06T14:50:16Z</time></trkpt><trkpt lat="44.530748597984434" lon="10.58816281246371"><ele>398.0</ele><time>2026-04-06T14:50:17Z</time></trkpt><trkpt lat="44.53076090050651" lon="10.588278820340182"><ele>399.0</ele><time>2026-04-06T14:50:18Z</time></trkpt><trkpt lat="44.530792328460706" lon="10.588376946289548"><ele>400.0</ele><time>2026-04-06T14:50:19Z</time></trkpt><trkpt lat="44.530923866481665" lon="10.588458197280179"><ele>401.0</ele><time>2026-04-06T14:50:21Z</time></trkpt><trkpt lat="44.53099883707102" lon="10.588538806890158"><ele>402.0</ele><time>2026-04-06T14:50:22Z</time></trkpt><trkpt lat="44.531076550967306" lon="10.588653643924138"><ele>400.5</ele><time>2026-04-06T14:50:23Z</time></trkpt><trkpt lat="44.53116364630866" lon="10.588752314052906"><ele>399.0</ele><time>2026-04-06T14:50:24Z</time></trkpt><trkpt lat="44.531219551043186" lon="10.58890802026197"><ele>397.5</ele><time>2026-04-06T14:50:25Z</time></trkpt><trkpt lat="44.53132085982316" lon="10.589072168944762"><ele>396.0</ele><time>2026-04-06T14:50:26Z</time></trkpt><trkpt lat="44.53141254579888" lon="10.589245426031924"><ele>404.0</ele><time>2026-04-06T14:50:27Z</time></trkpt><trkpt lat="44.531486908602474" lon="10.589390330176398"><ele>412.0</ele><time>2026-04-06T14:50:28Z</time></trkpt><trkpt lat="44.53155820563381" lon="10.58950434560884"><ele>420.0</ele><time>2026-04-06T14:50:29Z</time></trkpt><trkpt lat="44.5316256166788" lon="10.589584864962786"><ele>428.0</ele><time>2026-04-06T14:50:30Z</time></trkpt><trkpt lat="44.53165795161125" lon="10.589718275647162"><ele>436.0</ele><time>2026-04-06T14:50:32Z</time></trkpt><trkpt lat="44.531622292802346" lon="10.589833519671052"><ele>437.25</ele><time>2026-04-06T14:50:33Z</time></trkpt><trkpt lat="44.531552123346806" lon="10.589955811883257"><ele>438.5</ele><time>2026-04-06T14:50:34Z</time></trkpt><trkpt lat="44.531468377478305" lon="10.590065162824262"><ele>439.75</ele><time>2026-04-06T14:50:35Z</time></trkpt><trkpt lat="44.53134768022385" lon="10.590163475833966"><ele>441.0</ele><time>2026-04-06T14:50:36Z</time></trkpt><trkpt lat="44.53124347343515" lon="10.590246222718633"><ele>439.20000000000005</ele><time>2026-04-06T14:50:37Z</time></trkpt><trkpt lat="44.53119062501862" lon="10.590377899357218"><ele>437.40000000000003</ele><time>2026-04-06T14:50:38Z</time></trkpt><trkpt lat="44.5311662888819" lon="10.590508516406173"><ele>435.6</ele><time>2026-04-06T14:50:39Z</time></trkpt><trkpt lat="44.53113178113093" lon="10.590628367672686"><ele>433.8</ele><time>2026-04-06T14:50:40Z</time></trkpt><trkpt lat="44.53107420814263" lon="10.590761760314647"><ele>432.0</ele><time>2026-04-06T14:50:41Z</time></trkpt><trkpt lat="44.530993794975686" lon="10.590928901684759"><ele>432.0</ele><time>2026-04-06T14:50:42Z</time></trkpt><trkpt lat="44.53094163926253" lon="10.591050558378026"><ele>432.00000000000006</ele><time>2026-04-06T14:50:43Z</time></trkpt><trkpt lat="44.530957353021044" lon="10.591226108177688"><ele>432.00000000000006</ele><time>2026-04-06T14:50:45Z</time></trkpt><trkpt lat="44.53100534896773" lon="10.591353402393791"><ele>432.0</ele><time>2026-04-06T14:50:46Z</time></trkpt><trkpt lat="44.53105329460692" lon="10.591502836117298"><ele>432.0</ele><time>2026-04-06T14:50:47Z</time></trkpt><trkpt lat="44.53109735220715" lon="10.591653763581492"><ele>431.20000000000005</ele><time>2026-04-06T14:50:48Z</time></trkpt><trkpt lat="44.53114121578676" lon="10.591741199512056"><ele>430.40000000000003</ele><time>2026-04-06T14:50:49Z</time></trkpt><trkpt lat="44.531203011581596" lon="10.59177836815298"><ele>429.59999999999997</ele><time>2026-04-06T14:50:50Z</time></trkpt><trkpt lat="44.53128233073159" lon="10.591755311811282"><ele>428.79999999999995</ele><time>2026-04-06T14:50:51Z</time></trkpt><trkpt lat="44.53138626823202" lon="10.591713175282083"><ele>428.0</ele><time>2026-04-06T14:50:52Z</time></trkpt><trkpt lat="44.53149962066092" lon="10.591609256541684"><ele>432.5</ele><time>2026-04-06T14:50:53Z</time></trkpt><trkpt lat="44.53163161675001" lon="10.591572221775747"><ele>437.0</ele><time>2026-04-06T14:50:54Z</time></trkpt><trkpt lat="44.531763829287925" lon="10.59156764650917"><ele>441.5</ele><time>2026-04-06T14:50:55Z</time></trkpt><trkpt lat="44.531879349734325" lon="10.591584490104417"><ele>446.0</ele><time>2026-04-06T14:50:56Z</time></trkpt><trkpt lat="44.53200593431893" lon="10.591609549239346"><ele>447.6</ele><time>2026-04-06T14:50:57Z</time></trkpt><trkpt lat="44.53214328611645" lon="10.591605959713995"><ele>449.20000000000005</ele><time>2026-04-06T14:50:58Z</time></trkpt><trkpt lat="44.53221991309791" lon="10.591544089660335"><ele>450.79999999999995</ele><time>2026-04-06T14:50:59Z</time></trkpt><trkpt lat="44.53232021816218" lon="10.591512153104269"><ele>452.4</ele><time>2026-04-06T14:51:00Z</time></trkpt><trkpt lat="44.53239216658323" lon="10.591540429474943"><ele>454.0</ele><time>2026-04-06T14:51:01Z</time></trkpt><trkpt lat="44.53245706449569" lon="10.591618613207896"><ele>454.0</ele><time>2026-04-06T14:51:02Z</time></trkpt><trkpt lat="44.53252801785614" lon="10.591744573616623"><ele>454.0</ele><time>2026-04-06T14:51:03Z</time></trkpt><trkpt lat="44.53261619711327" lon="10.591870447342473"><ele>454.0</ele><time>2026-04-06T14:51:04Z</time></trkpt><trkpt lat="44.532679197460574" lon="10.591913015224382"><ele>454.0</ele><time>2026-04-06T14:51:05Z</time></trkpt><trkpt lat="44.532742251201796" lon="10.59189669273484"><ele>454.0</ele><time>2026-04-06T14:51:06Z</time></trkpt><trkpt lat="44.53282507695154" lon="10.591840101403525"><ele>454.75</ele><time>2026-04-06T14:51:07Z</time></trkpt><trkpt lat="44.532938515392885" lon="10.591784522971656"><ele>455.5</ele><time>2026-04-06T14:51:08Z</time></trkpt><trkpt lat="44.533082298468834" lon="10.59170077938792"><ele>456.25</ele><time>2026-04-06T14:51:09Z</time></trkpt><trkpt lat="44.53323130210577" lon="10.59163954608842"><ele>457.0</ele><time>2026-04-06T14:51:10Z</time></trkpt><trkpt lat="44.53335632497573" lon="10.591601654746711"><ele>457.0</ele><time>2026-04-06T14:51:11Z</time></trkpt><trkpt lat="44.53343504886365" lon="10.591584091931757"><ele>457.00000000000006</ele><time>2026-04-06T14:51:12Z</time></trkpt><trkpt lat="44.53353666248508" lon="10.591673393531519"><ele>457.00000000000006</ele><time>2026-04-06T14:51:14Z</time></trkpt><trkpt lat="44.53359123935789" lon="10.591793722608992"><ele>457.0</ele><time>2026-04-06T14:51:15Z</time></trkpt><trkpt lat="44.5336604595275" lon="10.591835553353993"><ele>457.0</ele><time>2026-04-06T14:51:16Z</time></trkpt><trkpt lat="44.5338124657266" lon="10.59172196642675"><ele>458.33333333333337</ele><time>2026-04-06T14:51:18Z</time></trkpt><trkpt lat="44.53391492275144" lon="10.5916231224871"><ele>459.6666666666667</ele><time>2026-04-06T14:51:19Z</time></trkpt><trkpt lat="44.53400210754981" lon="10.591565009048196"><ele>461.0</ele><time>2026-04-06T14:51:20Z</time></trkpt><trkpt lat="44.53406715235492" lon="10.591593727554029"><ele>462.33333333333337</ele><time>2026-04-06T14:51:21Z</time></trkpt><trkpt lat="44.53412299410589" lon="10.591664555328025"><ele>463.6666666666667</ele><time>2026-04-06T14:51:22Z</time></trkpt><trkpt lat="44.534162095590574" lon="10.591757446111927"><ele>465.0</ele><time>2026-04-06T14:51:23Z</time></trkpt><trkpt lat="44.53421152394216" lon="10.59184564770374"><ele>465.0</ele><time>2026-04-06T14:51:24Z</time></trkpt><trkpt lat="44.53427544068598" lon="10.591885807860756"><ele>465.0</ele><time>2026-04-06T14:51:25Z</time></trkpt><trkpt lat="44.534361713937656" lon="10.591899239037783"><ele>465.0</ele><time>2026-04-06T14:51:26Z</time></trkpt><trkpt lat="44.53446693948541" lon="10.591957997986386"><ele>465.0</ele><time>2026-04-06T14:51:27Z</time></trkpt><trkpt lat="44.53457201988325" lon="10.592075895143164"><ele>465.0</ele><time>2026-04-06T14:51:28Z</time></trkpt><trkpt lat="44.53464073684379" lon="10.592131815138327"><ele>467.6</ele><time>2026-04-06T14:51:29Z</time></trkpt><trkpt lat="44.53465407307535" lon="10.592243787519187"><ele>470.2</ele><time>2026-04-06T14:51:30Z</time></trkpt><trkpt lat="44.53466870527546" lon="10.592380501288611"><ele>472.79999999999995</ele><time>2026-04-06T14:51:31Z</time></trkpt><trkpt lat="44.53466115319644" lon="10.592511837150305"><ele>475.4</ele><time>2026-04-06T14:51:32Z</time></trkpt><trkpt lat="44.53463224023313" lon="10.592676807258087"><ele>478.0</ele><time>2026-04-06T14:51:33Z</time></trkpt><trkpt lat="44.53461133524169" lon="10.592834505785888"><ele>476.4</ele><time>2026-04-06T14:51:34Z</time></trkpt><trkpt lat="44.53462473463091" lon="10.592971420576543"><ele>474.79999999999995</ele><time>2026-04-06T14:51:35Z</time></trkpt><trkpt lat="44.534640563551676" lon="10.593092992866547"><ele>473.2</ele><time>2026-04-06T14:51:36Z</time></trkpt><trkpt lat="44.534628233806664" lon="10.59320997609531"><ele>471.6</ele><time>2026-04-06T14:51:37Z</time></trkpt><trkpt lat="44.534621885865256" lon="10.593321929814975"><ele>470.0</ele><time>2026-04-06T14:51:38Z</time></trkpt><trkpt lat="44.534660562832485" lon="10.593463727573335"><ele>470.0</ele><time>2026-04-06T14:51:39Z</time></trkpt><trkpt lat="44.53471916019322" lon="10.593597652636076"><ele>470.0</ele><time>2026-04-06T14:51:40Z</time></trkpt><trkpt lat="44.53478986748224" lon="10.593679047867717"><ele>470.0</ele><time>2026-04-06T14:51:41Z</time></trkpt><trkpt lat="44.53487871853484" lon="10.593748524804198"><ele>470.0</ele><time>2026-04-06T14:51:42Z</time></trkpt><trkpt lat="44.53498800336483" lon="10.59384232588826"><ele>470.0</ele><time>2026-04-06T14:51:43Z</time></trkpt><trkpt lat="44.53511267574212" lon="10.593948677391772"><ele>468.8333333333333</ele><time>2026-04-06T14:51:44Z</time></trkpt><trkpt lat="44.53520278197112" lon="10.59404948089968"><ele>467.66666666666663</ele><time>2026-04-06T14:51:45Z</time></trkpt><trkpt lat="44.535259068146296" lon="10.594132803872018"><ele>466.5</ele><time>2026-04-06T14:51:46Z</time></trkpt><trkpt lat="44.53529092327508" lon="10.59421139133247"><ele>465.33333333333337</ele><time>2026-04-06T14:51:47Z</time></trkpt><trkpt lat="44.53537022212555" lon="10.594185488117727"><ele>464.1666666666667</ele><time>2026-04-06T14:51:52Z</time></trkpt><trkpt lat="44.535436175103" lon="10.594147062668453"><ele>463.0</ele><time>2026-04-06T14:51:55Z</time></trkpt><trkpt lat="44.535550651341" lon="10.594014905489836"><ele>463.0</ele><time>2026-04-06T14:51:57Z</time></trkpt><trkpt lat="44.53561259210179" lon="10.593898406463666"><ele>462.99999999999994</ele><time>2026-04-06T14:51:58Z</time></trkpt><trkpt lat="44.535679978710995" lon="10.593814021946176"><ele>462.99999999999994</ele><time>2026-04-06T14:51:59Z</time></trkpt><trkpt lat="44.53577024771968" lon="10.593741030004512"><ele>463.0</ele><time>2026-04-06T14:52:00Z</time></trkpt><trkpt lat="44.53589216028952" lon="10.593711936530829"><ele>463.0</ele><time>2026-04-06T14:52:01Z</time></trkpt><trkpt lat="44.53597283644514" lon="10.593666352910473"><ele>465.2</ele><time>2026-04-06T14:52:02Z</time></trkpt><trkpt lat="44.53605859541567" lon="10.593608557066903"><ele>467.4</ele><time>2026-04-06T14:52:03Z</time></trkpt><trkpt lat="44.5361358004237" lon="10.593509144354629"><ele>469.59999999999997</ele><time>2026-04-06T14:52:04Z</time></trkpt><trkpt lat="44.53622549682819" lon="10.593410144008002"><ele>471.79999999999995</ele><time>2026-04-06T14:52:05Z</time></trkpt><trkpt lat="44.53629426823891" lon="10.593309629389399"><ele>474.0</ele><time>2026-04-06T14:52:06Z</time></trkpt><trkpt lat="44.536370629100446" lon="10.593221430921822"><ele>474.0</ele><time>2026-04-06T14:52:07Z</time></trkpt><trkpt lat="44.53646776554475" lon="10.593106579342416"><ele>474.0</ele><time>2026-04-06T14:52:08Z</time></trkpt><trkpt lat="44.53660062300541" lon="10.593012524994592"><ele>474.0</ele><time>2026-04-06T14:52:09Z</time></trkpt><trkpt lat="44.53663346636333" lon="10.59292736488595"><ele>474.0</ele><time>2026-04-06T14:52:10Z</time></trkpt><trkpt lat="44.536716001040226" lon="10.592868584627162"><ele>474.0</ele><time>2026-04-06T14:52:11Z</time></trkpt><trkpt lat="44.536806392715555" lon="10.592852640857338"><ele>473.6</ele><time>2026-04-06T14:52:12Z</time></trkpt><trkpt lat="44.53689450889017" lon="10.592817849580017"><ele>473.2</ele><time>2026-04-06T14:52:13Z</time></trkpt><trkpt lat="44.53699840317962" lon="10.59281661036103"><ele>472.80000000000007</ele><time>2026-04-06T14:52:14Z</time></trkpt><trkpt lat="44.53712030300478" lon="10.592831201305554"><ele>472.40000000000003</ele><time>2026-04-06T14:52:15Z</time></trkpt><trkpt lat="44.537237905727046" lon="10.592841856050557"><ele>472.0</ele><time>2026-04-06T14:52:17Z</time></trkpt><trkpt lat="44.537306886739216" lon="10.592809630810402"><ele>472.0</ele><time>2026-04-06T14:52:18Z</time></trkpt><trkpt lat="44.53738237527792" lon="10.592586364539867"><ele>472.0</ele><time>2026-04-06T14:52:20Z</time></trkpt><trkpt lat="44.53744319821125" lon="10.592386570109284"><ele>472.0</ele><time>2026-04-06T14:52:21Z</time></trkpt><trkpt lat="44.53751973368661" lon="10.592161505940815"><ele>476.0</ele><time>2026-04-06T14:52:22Z</time></trkpt><trkpt lat="44.53759809834787" lon="10.591956971723901"><ele>480.0</ele><time>2026-04-06T14:52:23Z</time></trkpt><trkpt lat="44.537670889088865" lon="10.591779593795893"><ele>484.0</ele><time>2026-04-06T14:52:24Z</time></trkpt><trkpt lat="44.53776029794332" lon="10.591649582356666"><ele>488.0</ele><time>2026-04-06T14:52:25Z</time></trkpt><trkpt lat="44.537853897021286" lon="10.59159060667449"><ele>481.0</ele><time>2026-04-06T14:52:26Z</time></trkpt><trkpt lat="44.53795696198938" lon="10.59154512817411"><ele>474.0</ele><time>2026-04-06T14:52:27Z</time></trkpt><trkpt lat="44.53808858279188" lon="10.591498057941273"><ele>467.0</ele><time>2026-04-06T14:52:28Z</time></trkpt><trkpt lat="44.538216262614654" lon="10.591441256330834"><ele>460.0</ele><time>2026-04-06T14:52:29Z</time></trkpt><trkpt lat="44.53828266255094" lon="10.59134345993971"><ele>460.0</ele><time>2026-04-06T14:52:30Z</time></trkpt><trkpt lat="44.53834674669233" lon="10.591217700640305"><ele>460.0</ele><time>2026-04-06T14:52:31Z</time></trkpt><trkpt lat="44.538385257397216" lon="10.591052168012393"><ele>460.0</ele><time>2026-04-06T14:52:32Z</time></trkpt><trkpt lat="44.538447641454965" lon="10.59091945062598"><ele>460.0</ele><time>2026-04-06T14:52:33Z</time></trkpt><trkpt lat="44.53850375433089" lon="10.590806628880186"><ele>460.0</ele><time>2026-04-06T14:52:34Z</time></trkpt><trkpt lat="44.538606252494425" lon="10.590746854358501"><ele>459.6666666666667</ele><time>2026-04-06T14:52:35Z</time></trkpt><trkpt lat="44.53870297164872" lon="10.590725336226466"><ele>459.33333333333337</ele><time>2026-04-06T14:52:36Z</time></trkpt><trkpt lat="44.538772983401294" lon="10.590726836783789"><ele>459.0</ele><time>2026-04-06T14:52:37Z</time></trkpt><trkpt lat="44.538833294568306" lon="10.590798489000894"><ele>458.66666666666663</ele><time>2026-04-06T14:52:39Z</time></trkpt><trkpt lat="44.53881069328723" lon="10.590899464930239"><ele>458.3333333333333</ele><time>2026-04-06T14:52:41Z</time></trkpt><trkpt lat="44.53875334116051" lon="10.590972645169751"><ele>458.0</ele><time>2026-04-06T14:52:42Z</time></trkpt><trkpt lat="44.53863490726797" lon="10.591006718728602"><ele>458.5</ele><time>2026-04-06T14:52:43Z</time></trkpt><trkpt lat="44.53856518837947" lon="10.591129762461284"><ele>459.0</ele><time>2026-04-06T14:52:44Z</time></trkpt><trkpt lat="44.53854003565899" lon="10.591299442950149"><ele>459.5</ele><time>2026-04-06T14:52:45Z</time></trkpt><trkpt lat="44.538567820167785" lon="10.591475613906505"><ele>460.0</ele><time>2026-04-06T14:52:46Z</time></trkpt><trkpt lat="44.5385762476" lon="10.591662609903057"><ele>460.0</ele><time>2026-04-06T14:52:47Z</time></trkpt><trkpt lat="44.53859991933384" lon="10.591846488601188"><ele>460.0</ele><time>2026-04-06T14:52:48Z</time></trkpt><trkpt lat="44.53863413232194" lon="10.592044795593303"><ele>460.0</ele><time>2026-04-06T14:52:49Z</time></trkpt><trkpt lat="44.53867326810181" lon="10.592243784623182"><ele>460.0</ele><time>2026-04-06T14:52:50Z</time></trkpt><trkpt lat="44.5387251821804" lon="10.592433995574607"><ele>453.5</ele><time>2026-04-06T14:52:51Z</time></trkpt><trkpt lat="44.538735820700566" lon="10.592629612058998"><ele>447.0</ele><time>2026-04-06T14:52:52Z</time></trkpt><trkpt lat="44.53872738192089" lon="10.592815177098691"><ele>440.5</ele><time>2026-04-06T14:52:53Z</time></trkpt><trkpt lat="44.53872085010596" lon="10.593021028503843"><ele>434.0</ele><time>2026-04-06T14:52:54Z</time></trkpt><trkpt lat="44.53875148829856" lon="10.59322618247977"><ele>431.25</ele><time>2026-04-06T14:52:55Z</time></trkpt><trkpt lat="44.53880173266955" lon="10.593390634905699"><ele>428.5</ele><time>2026-04-06T14:52:56Z</time></trkpt><trkpt lat="44.53880816472029" lon="10.59356679315383"><ele>425.75</ele><time>2026-04-06T14:52:57Z</time></trkpt><trkpt lat="44.538812425331116" lon="10.593728197739445"><ele>423.0</ele><time>2026-04-06T14:52:58Z</time></trkpt><trkpt lat="44.538803840277694" lon="10.593887575988544"><ele>423.0</ele><time>2026-04-06T14:52:59Z</time></trkpt><trkpt lat="44.53878824922097" lon="10.594057021022703"><ele>423.0</ele><time>2026-04-06T14:53:00Z</time></trkpt><trkpt lat="44.538768441326" lon="10.594226413084"><ele>423.0</ele><time>2026-04-06T14:53:01Z</time></trkpt><trkpt lat="44.538749399832646" lon="10.59437269636713"><ele>423.0</ele><time>2026-04-06T14:53:02Z</time></trkpt><trkpt lat="44.538731997073754" lon="10.594498143053789"><ele>423.0</ele><time>2026-04-06T14:53:03Z</time></trkpt><trkpt lat="44.53870327402212" lon="10.594625630602874"><ele>422.3333333333333</ele><time>2026-04-06T14:53:04Z</time></trkpt><trkpt lat="44.538657583604156" lon="10.59472991008833"><ele>421.66666666666663</ele><time>2026-04-06T14:53:05Z</time></trkpt><trkpt lat="44.538591394394174" lon="10.594817942208438"><ele>421.0</ele><time>2026-04-06T14:53:06Z</time></trkpt><trkpt lat="44.53850867185821" lon="10.594890736837156"><ele>420.3333333333333</ele><time>2026-04-06T14:53:07Z</time></trkpt><trkpt lat="44.53843485273508" lon="10.594972645813941"><ele>419.66666666666663</ele><time>2026-04-06T14:53:08Z</time></trkpt><trkpt lat="44.5383658816589" lon="10.595025431640039"><ele>419.0</ele><time>2026-04-06T14:53:09Z</time></trkpt><trkpt lat="44.53831684431083" lon="10.595089263259728"><ele>419.0</ele><time>2026-04-06T14:53:10Z</time></trkpt><trkpt lat="44.53825770882276" lon="10.595208395265024"><ele>419.0</ele><time>2026-04-06T14:53:12Z</time></trkpt><trkpt lat="44.538247086359895" lon="10.595309900293572"><ele>419.0</ele><time>2026-04-06T14:53:14Z</time></trkpt><trkpt lat="44.53846284415446" lon="10.595432027308552"><ele>419.0</ele><time>2026-04-06T14:53:15Z</time></trkpt><trkpt lat="44.53859566841757" lon="10.595495985312526"><ele>413.75</ele><time>2026-04-06T14:53:16Z</time></trkpt><trkpt lat="44.538718563957445" lon="10.595564889439105"><ele>408.5</ele><time>2026-04-06T14:53:17Z</time></trkpt><trkpt lat="44.53882705674472" lon="10.595637905899396"><ele>403.25</ele><time>2026-04-06T14:53:18Z</time></trkpt><trkpt lat="44.53892558562601" lon="10.595744655270618"><ele>398.0</ele><time>2026-04-06T14:53:19Z</time></trkpt><trkpt lat="44.53905484439292" lon="10.595852842652494"><ele>398.0</ele><time>2026-04-06T14:53:20Z</time></trkpt><trkpt lat="44.53916702362994" lon="10.595941425218886"><ele>398.0</ele><time>2026-04-06T14:53:21Z</time></trkpt><trkpt lat="44.539309197890795" lon="10.59601816891328"><ele>398.0</ele><time>2026-04-06T14:53:22Z</time></trkpt><trkpt lat="44.53947896602613" lon="10.59609062650282"><ele>395.3333333333333</ele><time>2026-04-06T14:53:23Z</time></trkpt><trkpt lat="44.53962996573704" lon="10.59615250371025"><ele>392.66666666666663</ele><time>2026-04-06T14:53:24Z</time></trkpt><trkpt lat="44.53976996407678" lon="10.596223681486999"><ele>390.0</ele><time>2026-04-06T14:53:25Z</time></trkpt><trkpt lat="44.53991247046578" lon="10.596303217729869"><ele>387.5</ele><time>2026-04-06T14:53:26Z</time></trkpt><trkpt lat="44.54004143002702" lon="10.596377753799498"><ele>385.0</ele><time>2026-04-06T14:53:27Z</time></trkpt><trkpt lat="44.540162965527486" lon="10.59644346044655"><ele>382.5</ele><time>2026-04-06T14:53:28Z</time></trkpt><trkpt lat="44.54028633924283" lon="10.596530774499971"><ele>380.0</ele><time>2026-04-06T14:53:29Z</time></trkpt><trkpt lat="44.54040460256776" lon="10.596616771529412"><ele>375.5</ele><time>2026-04-06T14:53:30Z</time></trkpt><trkpt lat="44.540528830377525" lon="10.596673509228664"><ele>371.0</ele><time>2026-04-06T14:53:31Z</time></trkpt><trkpt lat="44.540659353596695" lon="10.596727388051354"><ele>366.5</ele><time>2026-04-06T14:53:32Z</time></trkpt><trkpt lat="44.54081218344216" lon="10.596771911207012"><ele>362.0</ele><time>2026-04-06T14:53:33Z</time></trkpt><trkpt lat="44.54093206282704" lon="10.59679282204811"><ele>362.0</ele><time>2026-04-06T14:53:34Z</time></trkpt><trkpt lat="44.54105054397114" lon="10.596792635537927"><ele>362.0</ele><time>2026-04-06T14:53:35Z</time></trkpt><trkpt lat="44.54117482773774" lon="10.596746404300962"><ele>362.0</ele><time>2026-04-06T14:53:36Z</time></trkpt><trkpt lat="44.541315707799356" lon="10.596695757445849"><ele>362.0</ele><time>2026-04-06T14:53:37Z</time></trkpt><trkpt lat="44.541402437095485" lon="10.59666137613043"><ele>359.8</ele><time>2026-04-06T14:53:38Z</time></trkpt><trkpt lat="44.54148069467794" lon="10.596666270764585"><ele>357.6</ele><time>2026-04-06T14:53:39Z</time></trkpt><trkpt lat="44.54159536804267" lon="10.596668012631234"><ele>355.40000000000003</ele><time>2026-04-06T14:53:40Z</time></trkpt><trkpt lat="44.54168888198694" lon="10.596683197840282"><ele>353.20000000000005</ele><time>2026-04-06T14:53:41Z</time></trkpt><trkpt lat="44.54176664796149" lon="10.596615918279253"><ele>351.0</ele><time>2026-04-06T14:53:43Z</time></trkpt><trkpt lat="44.541877731311054" lon="10.596481873453662"><ele>351.00000000000006</ele><time>2026-04-06T14:53:45Z</time></trkpt><trkpt lat="44.541942471318904" lon="10.59642340685128"><ele>351.0</ele><time>2026-04-06T14:53:46Z</time></trkpt><trkpt lat="44.542016851509125" lon="10.596353181254004"><ele>351.0</ele><time>2026-04-06T14:53:48Z</time></trkpt><trkpt lat="44.54206918246934" lon="10.596294540657258"><ele>351.0</ele><time>2026-04-06T14:53:50Z</time></trkpt><trkpt lat="44.54213108546768" lon="10.596252485353368"><ele>351.0</ele><time>2026-04-06T14:53:52Z</time></trkpt><trkpt lat="44.54218215396521" lon="10.596185147496618"><ele>351.00000000000006</ele><time>2026-04-06T14:53:53Z</time></trkpt><trkpt lat="44.54222761731831" lon="10.596100517647999"><ele>351.0</ele><time>2026-04-06T14:53:54Z</time></trkpt><trkpt lat="44.54228030299851" lon="10.596026031060319"><ele>352.6666666666667</ele><time>2026-04-06T14:53:55Z</time></trkpt><trkpt lat="44.54233912606039" lon="10.595947858338333"><ele>354.3333333333333</ele><time>2026-04-06T14:53:56Z</time></trkpt><trkpt lat="44.5424112130878" lon="10.595856790245382"><ele>356.0</ele><time>2026-04-06T14:53:57Z</time></trkpt><trkpt lat="44.54246561365808" lon="10.595778409784922"><ele>357.66666666666663</ele><time>2026-04-06T14:53:58Z</time></trkpt><trkpt lat="44.542507673342456" lon="10.595712033450821"><ele>359.3333333333333</ele><time>2026-04-06T14:53:59Z</time></trkpt><trkpt lat="44.54258850141366" lon="10.595576373959446"><ele>361.0</ele><time>2026-04-06T14:54:01Z</time></trkpt><trkpt lat="44.54263939575482" lon="10.59550898202233"><ele>361.0</ele><time>2026-04-06T14:54:02Z</time></trkpt><trkpt lat="44.54268712709955" lon="10.595446143870527"><ele>361.0</ele><time>2026-04-06T14:54:03Z</time></trkpt><trkpt lat="44.542755798263165" lon="10.595369629322331"><ele>361.0</ele><time>2026-04-06T14:54:04Z</time></trkpt><trkpt lat="44.54283629494171" lon="10.59529771476926"><ele>361.0</ele><time>2026-04-06T14:54:05Z</time></trkpt><trkpt lat="44.542924032378494" lon="10.59523629813826"><ele>361.0</ele><time>2026-04-06T14:54:06Z</time></trkpt><trkpt lat="44.54300878895343" lon="10.595163418528555"><ele>361.0</ele><time>2026-04-06T14:54:07Z</time></trkpt><trkpt lat="44.543082630525184" lon="10.5950975685729"><ele>365.8</ele><time>2026-04-06T14:54:08Z</time></trkpt><trkpt lat="44.54315582056533" lon="10.595053582102118"><ele>370.6</ele><time>2026-04-06T14:54:09Z</time></trkpt><trkpt lat="44.54324334744082" lon="10.595010455490794"><ele>375.4</ele><time>2026-04-06T14:54:10Z</time></trkpt><trkpt lat="44.5433440254611" lon="10.594967590692182"><ele>380.2</ele><time>2026-04-06T14:54:11Z</time></trkpt><trkpt lat="44.54343942901229" lon="10.594916381080445"><ele>385.0</ele><time>2026-04-06T14:54:12Z</time></trkpt><trkpt lat="44.543530374392056" lon="10.594852765481225"><ele>385.00000000000006</ele><time>2026-04-06T14:54:13Z</time></trkpt><trkpt lat="44.54363171775992" lon="10.5947511514489"><ele>385.0</ele><time>2026-04-06T14:54:14Z</time></trkpt><trkpt lat="44.54371178887133" lon="10.594730283613922"><ele>385.0</ele><time>2026-04-06T14:54:15Z</time></trkpt><trkpt lat="44.54377749043291" lon="10.594774593495176"><ele>385.0</ele><time>2026-04-06T14:54:16Z</time></trkpt><trkpt lat="44.54385340756426" lon="10.59484177363031"><ele>385.00000000000006</ele><time>2026-04-06T14:54:17Z</time></trkpt><trkpt lat="44.543904388666675" lon="10.594904791008465"><ele>385.0</ele><time>2026-04-06T14:54:18Z</time></trkpt><trkpt lat="44.543988684332746" lon="10.594959169919754"><ele>388.33333333333337</ele><time>2026-04-06T14:54:19Z</time></trkpt><trkpt lat="44.5440620898836" lon="10.594943508827456"><ele>391.6666666666667</ele><time>2026-04-06T14:54:20Z</time></trkpt><trkpt lat="44.54413382590479" lon="10.594948859127507"><ele>395.0</ele><time>2026-04-06T14:54:22Z</time></trkpt><trkpt lat="44.544207567637955" lon="10.594941718412759"><ele>398.33333333333337</ele><time>2026-04-06T14:54:27Z</time></trkpt><trkpt lat="44.54428604294075" lon="10.594930898495857"><ele>401.6666666666667</ele><time>2026-04-06T14:54:31Z</time></trkpt><trkpt lat="44.54434840321386" lon="10.594902987855091"><ele>405.0</ele><time>2026-04-06T14:54:33Z</time></trkpt><trkpt lat="44.544433994334824" lon="10.594880027996947"><ele>405.0</ele><time>2026-04-06T14:54:34Z</time></trkpt><trkpt lat="44.54451247151722" lon="10.594875168978955"><ele>405.0</ele><time>2026-04-06T14:54:35Z</time></trkpt><trkpt lat="44.54457942444493" lon="10.59483434424188"><ele>405.0</ele><time>2026-04-06T14:54:36Z</time></trkpt><trkpt lat="44.54466835023526" lon="10.59479397375594"><ele>405.0</ele><time>2026-04-06T14:54:38Z</time></trkpt><trkpt lat="44.544723846863135" lon="10.594939788820579"><ele>405.0</ele><time>2026-04-06T14:54:40Z</time></trkpt><trkpt lat="44.544709351264935" lon="10.595050424676778"><ele>405.0</ele><time>2026-04-06T14:54:41Z</time></trkpt><trkpt lat="44.54473412775448" lon="10.595156223825972"><ele>402.4</ele><time>2026-04-06T14:54:43Z</time></trkpt><trkpt lat="44.54481427305055" lon="10.59515294108086"><ele>399.8</ele><time>2026-04-06T14:54:44Z</time></trkpt><trkpt lat="44.544890265745174" lon="10.595107230382062"><ele>397.20000000000005</ele><time>2026-04-06T14:54:45Z</time></trkpt><trkpt lat="44.54495041687224" lon="10.595008034622541"><ele>394.6</ele><time>2026-04-06T14:54:46Z</time></trkpt><trkpt lat="44.545020501738954" lon="10.594932712776917"><ele>392.0</ele><time>2026-04-06T14:54:47Z</time></trkpt><trkpt lat="44.545121255481114" lon="10.594877405818561"><ele>392.0</ele><time>2026-04-06T14:54:48Z</time></trkpt><trkpt lat="44.54521554161449" lon="10.594824212597128"><ele>392.0</ele><time>2026-04-06T14:54:49Z</time></trkpt><trkpt lat="44.545305450103704" lon="10.594755848366324"><ele>392.0</ele><time>2026-04-06T14:54:50Z</time></trkpt><trkpt lat="44.545385159676" lon="10.594689142320734"><ele>392.0</ele><time>2026-04-06T14:54:51Z</time></trkpt><trkpt lat="44.54546557619922" lon="10.594681374518812"><ele>392.0</ele><time>2026-04-06T14:54:52Z</time></trkpt><trkpt lat="44.54558754920352" lon="10.594690382897154"><ele>385.6</ele><time>2026-04-06T14:54:53Z</time></trkpt><trkpt lat="44.545715591312494" lon="10.594716567780491"><ele>379.20000000000005</ele><time>2026-04-06T14:54:54Z</time></trkpt><trkpt lat="44.54580497104307" lon="10.594731954555936"><ele>372.8</ele><time>2026-04-06T14:54:55Z</time></trkpt><trkpt lat="44.54589423714004" lon="10.59474596682496"><ele>366.4</ele><time>2026-04-06T14:54:56Z</time></trkpt><trkpt lat="44.54597853457498" lon="10.594751557469097"><ele>360.0</ele><time>2026-04-06T14:54:57Z</time></trkpt><trkpt lat="44.54606515081005" lon="10.594722648239012"><ele>360.0</ele><time>2026-04-06T14:54:58Z</time></trkpt><trkpt lat="44.54615822349524" lon="10.594688826001452"><ele>360.0</ele><time>2026-04-06T14:54:59Z</time></trkpt><trkpt lat="44.546283087915135" lon="10.594635316918646"><ele>360.0</ele><time>2026-04-06T14:55:00Z</time></trkpt><trkpt lat="44.54641084285017" lon="10.594595361376669"><ele>360.0</ele><time>2026-04-06T14:55:01Z</time></trkpt><trkpt lat="44.54652652055931" lon="10.594574169182412"><ele>357.1666666666667</ele><time>2026-04-06T14:55:02Z</time></trkpt><trkpt lat="44.546638675785246" lon="10.594564354979784"><ele>354.3333333333333</ele><time>2026-04-06T14:55:03Z</time></trkpt><trkpt lat="44.546738317521026" lon="10.59455404055886"><ele>351.5</ele><time>2026-04-06T14:55:04Z</time></trkpt><trkpt lat="44.54682516727754" lon="10.594552269148071"><ele>348.66666666666663</ele><time>2026-04-06T14:55:05Z</time></trkpt><trkpt lat="44.546890132991145" lon="10.594581358142854"><ele>345.8333333333333</ele><time>2026-04-06T14:55:06Z</time></trkpt><trkpt lat="44.54693394626829" lon="10.594649813666472"><ele>343.0</ele><time>2026-04-06T14:55:07Z</time></trkpt><trkpt lat="44.54695707819113" lon="10.594733132630816"><ele>343.0</ele><time>2026-04-06T14:55:08Z</time></trkpt><trkpt lat="44.54701848761606" lon="10.59478977003715"><ele>343.0</ele><time>2026-04-06T14:55:11Z</time></trkpt><trkpt lat="44.547020942357776" lon="10.594674183281144"><ele>343.0</ele><time>2026-04-06T14:55:13Z</time></trkpt><trkpt lat="44.547002529358785" lon="10.59458554178415"><ele>343.0</ele><time>2026-04-06T14:55:14Z</time></trkpt><trkpt lat="44.54706005902592" lon="10.594402238045298"><ele>343.0</ele><time>2026-04-06T14:55:16Z</time></trkpt><trkpt lat="44.54724331668902" lon="10.594290145615963"><ele>339.79999999999995</ele><time>2026-04-06T14:55:18Z</time></trkpt><trkpt lat="44.54732357344643" lon="10.594231472190437"><ele>336.6</ele><time>2026-04-06T14:55:19Z</time></trkpt><trkpt lat="44.54740392500587" lon="10.594166378236169"><ele>333.4</ele><time>2026-04-06T14:55:20Z</time></trkpt><trkpt lat="44.54750263854669" lon="10.594099146671375"><ele>330.20000000000005</ele><time>2026-04-06T14:55:21Z</time></trkpt><trkpt lat="44.54760992183734" lon="10.594030987939917"><ele>327.0</ele><time>2026-04-06T14:55:22Z</time></trkpt><trkpt lat="44.54772622630069" lon="10.593973861721844"><ele>327.0</ele><time>2026-04-06T14:55:23Z</time></trkpt><trkpt lat="44.547833341683734" lon="10.593919402281006"><ele>327.0</ele><time>2026-04-06T14:55:24Z</time></trkpt><trkpt lat="44.54793818376669" lon="10.593865756452777"><ele>327.0</ele><time>2026-04-06T14:55:25Z</time></trkpt><trkpt lat="44.54804389842566" lon="10.593821335673981"><ele>327.0</ele><time>2026-04-06T14:55:26Z</time></trkpt><trkpt lat="44.54814649234141" lon="10.593760645151278"><ele>327.0</ele><time>2026-04-06T14:55:27Z</time></trkpt><trkpt lat="44.548235601794204" lon="10.59371655511191"><ele>323.6</ele><time>2026-04-06T14:55:28Z</time></trkpt><trkpt lat="44.548350350197424" lon="10.593667682194203"><ele>320.20000000000005</ele><time>2026-04-06T14:55:29Z</time></trkpt><trkpt lat="44.54843785403722" lon="10.59362583800435"><ele>316.8</ele><time>2026-04-06T14:55:30Z</time></trkpt><trkpt lat="44.54852075222705" lon="10.593589228187456"><ele>313.4</ele><time>2026-04-06T14:55:31Z</time></trkpt><trkpt lat="44.54858751019597" lon="10.593556388552912"><ele>310.0</ele><time>2026-04-06T14:55:32Z</time></trkpt><trkpt lat="44.548681997324685" lon="10.59353540609048"><ele>311.0</ele><time>2026-04-06T14:55:34Z</time></trkpt><trkpt lat="44.548702104205006" lon="10.59372008099946"><ele>312.0</ele><time>2026-04-06T14:55:36Z</time></trkpt><trkpt lat="44.54874574936368" lon="10.59383080965049"><ele>313.0</ele><time>2026-04-06T14:55:37Z</time></trkpt><trkpt lat="44.54878969197913" lon="10.593949959074838"><ele>314.0</ele><time>2026-04-06T14:55:38Z</time></trkpt><trkpt lat="44.5488523100372" lon="10.594112362572208"><ele>311.4</ele><time>2026-04-06T14:55:39Z</time></trkpt><trkpt lat="44.54889064682142" lon="10.594242837112127"><ele>308.79999999999995</ele><time>2026-04-06T14:55:40Z</time></trkpt><trkpt lat="44.54892145499163" lon="10.594385538794693"><ele>306.20000000000005</ele><time>2026-04-06T14:55:41Z</time></trkpt><trkpt lat="44.54894121923884" lon="10.594546802600876"><ele>303.6</ele><time>2026-04-06T14:55:42Z</time></trkpt><trkpt lat="44.54895348161775" lon="10.594708484513937"><ele>301.0</ele><time>2026-04-06T14:55:43Z</time></trkpt><trkpt lat="44.54898074681734" lon="10.594873884809147"><ele>301.0</ele><time>2026-04-06T14:55:44Z</time></trkpt><trkpt lat="44.548990305656886" lon="10.595037556960007"><ele>301.0</ele><time>2026-04-06T14:55:45Z</time></trkpt><trkpt lat="44.54904854163103" lon="10.595168797616044"><ele>301.0</ele><time>2026-04-06T14:55:46Z</time></trkpt><trkpt lat="44.54911040994362" lon="10.595292727801642"><ele>301.0</ele><time>2026-04-06T14:55:47Z</time></trkpt><trkpt lat="44.549191008916765" lon="10.59540061555721"><ele>301.0</ele><time>2026-04-06T14:55:48Z</time></trkpt><trkpt lat="44.54926783633136" lon="10.595504568399564"><ele>300.66666666666663</ele><time>2026-04-06T14:55:49Z</time></trkpt><trkpt lat="44.54931594029282" lon="10.59562664409178"><ele>300.3333333333333</ele><time>2026-04-06T14:55:50Z</time></trkpt><trkpt lat="44.54935315795503" lon="10.595727349501335"><ele>300.0</ele><time>2026-04-06T14:55:51Z</time></trkpt><trkpt lat="44.54938222227661" lon="10.59582207300079"><ele>299.6666666666667</ele><time>2026-04-06T14:55:52Z</time></trkpt><trkpt lat="44.54936048621792" lon="10.59593151062242"><ele>299.33333333333337</ele><time>2026-04-06T14:55:53Z</time></trkpt><trkpt lat="44.5493181907259" lon="10.596060514965256"><ele>299.0</ele><time>2026-04-06T14:55:54Z</time></trkpt><trkpt lat="44.549223769447906" lon="10.596216342436046"><ele>293.6666666666667</ele><time>2026-04-06T14:55:55Z</time></trkpt><trkpt lat="44.549127279872785" lon="10.596396192405464"><ele>288.3333333333333</ele><time>2026-04-06T14:55:56Z</time></trkpt><trkpt lat="44.54903675879603" lon="10.596583497154514"><ele>283.0</ele><time>2026-04-06T14:55:57Z</time></trkpt><trkpt lat="44.54895462800931" lon="10.59674508265379"><ele>283.0</ele><time>2026-04-06T14:55:58Z</time></trkpt><trkpt lat="44.54887804996201" lon="10.59690138727913"><ele>283.0</ele><time>2026-04-06T14:55:59Z</time></trkpt><trkpt lat="44.54879951026175" lon="10.597042900143931"><ele>283.0</ele><time>2026-04-06T14:56:00Z</time></trkpt><trkpt lat="44.54870804373474" lon="10.597152962271615"><ele>283.0</ele><time>2026-04-06T14:56:01Z</time></trkpt><trkpt lat="44.548621254520285" lon="10.597265849794532"><ele>283.25</ele><time>2026-04-06T14:56:02Z</time></trkpt><trkpt lat="44.54854768330946" lon="10.597383216042445"><ele>283.5</ele><time>2026-04-06T14:56:03Z</time></trkpt><trkpt lat="44.54847277076822" lon="10.597516611791715"><ele>283.75</ele><time>2026-04-06T14:56:04Z</time></trkpt><trkpt lat="44.548392780102" lon="10.597632137729349"><ele>284.0</ele><time>2026-04-06T14:56:05Z</time></trkpt><trkpt lat="44.54831378446471" lon="10.597745678916633"><ele>284.0</ele><time>2026-04-06T14:56:06Z</time></trkpt><trkpt lat="44.54822358422206" lon="10.597819711773536"><ele>284.0</ele><time>2026-04-06T14:56:07Z</time></trkpt><trkpt lat="44.548129019730816" lon="10.597894679700984"><ele>284.0</ele><time>2026-04-06T14:56:08Z</time></trkpt><trkpt lat="44.548029310534446" lon="10.597951990171696"><ele>284.0</ele><time>2026-04-06T14:56:09Z</time></trkpt><trkpt lat="44.54792978413477" lon="10.598045773610309"><ele>284.0</ele><time>2026-04-06T14:56:10Z</time></trkpt><trkpt lat="44.547848969211664" lon="10.598173802923926"><ele>284.1666666666667</ele><time>2026-04-06T14:56:11Z</time></trkpt><trkpt lat="44.54776878204207" lon="10.598280698555099"><ele>284.33333333333337</ele><time>2026-04-06T14:56:12Z</time></trkpt><trkpt lat="44.547700698964775" lon="10.598363722599277"><ele>284.5</ele><time>2026-04-06T14:56:13Z</time></trkpt><trkpt lat="44.54763046124735" lon="10.598440927826518"><ele>284.6666666666667</ele><time>2026-04-06T14:56:14Z</time></trkpt><trkpt lat="44.54755823776877" lon="10.598517816003582"><ele>284.8333333333333</ele><time>2026-04-06T14:56:15Z</time></trkpt><trkpt lat="44.547514033267156" lon="10.598588990786109"><ele>285.0</ele><time>2026-04-06T14:56:16Z</time></trkpt><trkpt lat="44.54749493659477" lon="10.5986830669232"><ele>285.0</ele><time>2026-04-06T14:56:17Z</time></trkpt><trkpt lat="44.54749919233325" lon="10.59877203773182"><ele>285.0</ele><time>2026-04-06T14:56:18Z</time></trkpt><trkpt lat="44.547574300320896" lon="10.598908055696628"><ele>285.0</ele><time>2026-04-06T14:56:19Z</time></trkpt><trkpt lat="44.54766826154224" lon="10.599008497724604"><ele>285.0</ele><time>2026-04-06T14:56:20Z</time></trkpt><trkpt lat="44.5477727009337" lon="10.599096717716423"><ele>285.0</ele><time>2026-04-06T14:56:21Z</time></trkpt><trkpt lat="44.54788170592992" lon="10.599141783421691"><ele>282.25</ele><time>2026-04-06T14:56:22Z</time></trkpt><trkpt lat="44.5479752554288" lon="10.59918612824667"><ele>279.5</ele><time>2026-04-06T14:56:23Z</time></trkpt><trkpt lat="44.548078216596565" lon="10.599269015897221"><ele>276.75</ele><time>2026-04-06T14:56:24Z</time></trkpt><trkpt lat="44.54819385334913" lon="10.599381326168485"><ele>274.0</ele><time>2026-04-06T14:56:25Z</time></trkpt><trkpt lat="44.54830503092649" lon="10.599465430896647"><ele>276.0</ele><time>2026-04-06T14:56:26Z</time></trkpt><trkpt lat="44.54842076554091" lon="10.599534942845619"><ele>278.0</ele><time>2026-04-06T14:56:27Z</time></trkpt><trkpt lat="44.54852884036456" lon="10.599596852104538"><ele>280.0</ele><time>2026-04-06T14:56:28Z</time></trkpt><trkpt lat="44.54864103187736" lon="10.599655046158743"><ele>282.0</ele><time>2026-04-06T14:56:29Z</time></trkpt><trkpt lat="44.548749294481205" lon="10.59970998058973"><ele>282.0</ele><time>2026-04-06T14:56:30Z</time></trkpt><trkpt lat="44.54885173581303" lon="10.599761056190921"><ele>282.0</ele><time>2026-04-06T14:56:31Z</time></trkpt><trkpt lat="44.54894388032614" lon="10.599784121947204"><ele>282.0</ele><time>2026-04-06T14:56:32Z</time></trkpt><trkpt lat="44.54902397450673" lon="10.599825259885481"><ele>282.0</ele><time>2026-04-06T14:56:33Z</time></trkpt><trkpt lat="44.54908952587274" lon="10.599880097531813"><ele>282.0</ele><time>2026-04-06T14:56:34Z</time></trkpt><trkpt lat="44.549150403429216" lon="10.59991910459615"><ele>282.0</ele><time>2026-04-06T14:56:35Z</time></trkpt><trkpt lat="44.549237135382796" lon="10.599820967433427"><ele>282.0</ele><time>2026-04-06T14:56:36Z</time></trkpt><trkpt lat="44.54930643848659" lon="10.599757177768408"><ele>282.0</ele><time>2026-04-06T14:56:37Z</time></trkpt><trkpt lat="44.54937582761725" lon="10.599684579048109"><ele>282.0</ele><time>2026-04-06T14:56:38Z</time></trkpt><trkpt lat="44.549463118084915" lon="10.599647228371639"><ele>282.0</ele><time>2026-04-06T14:56:39Z</time></trkpt><trkpt lat="44.54953839396522" lon="10.599588212491176"><ele>282.0</ele><time>2026-04-06T14:56:40Z</time></trkpt><trkpt lat="44.54960487746404" lon="10.5995097581618"><ele>282.0</ele><time>2026-04-06T14:56:41Z</time></trkpt><trkpt lat="44.54968011346219" lon="10.599446641766432"><ele>280.0</ele><time>2026-04-06T14:56:42Z</time></trkpt><trkpt lat="44.549752882454335" lon="10.59938435213541"><ele>278.0</ele><time>2026-04-06T14:56:43Z</time></trkpt><trkpt lat="44.549830946124345" lon="10.599322993190755"><ele>276.0</ele><time>2026-04-06T14:56:44Z</time></trkpt><trkpt lat="44.549911433351255" lon="10.59927421973388"><ele>274.0</ele><time>2026-04-06T14:56:45Z</time></trkpt><trkpt lat="44.54999298518912" lon="10.599229861029919"><ele>272.0</ele><time>2026-04-06T14:56:46Z</time></trkpt><trkpt lat="44.550077763453494" lon="10.599192207568558"><ele>270.0</ele><time>2026-04-06T14:56:47Z</time></trkpt><trkpt lat="44.550162225043174" lon="10.599168169559462"><ele>270.0</ele><time>2026-04-06T14:56:48Z</time></trkpt><trkpt lat="44.550247636804656" lon="10.599153106326499"><ele>270.0</ele><time>2026-04-06T14:56:49Z</time></trkpt><trkpt lat="44.55033623462861" lon="10.599144937704235"><ele>270.0</ele><time>2026-04-06T14:56:50Z</time></trkpt><trkpt lat="44.55042177453594" lon="10.599136844902077"><ele>270.0</ele><time>2026-04-06T14:56:51Z</time></trkpt><trkpt lat="44.55050765346282" lon="10.599132187122557"><ele>270.0</ele><time>2026-04-06T14:56:52Z</time></trkpt><trkpt lat="44.55059511655055" lon="10.599118414788528"><ele>270.0</ele><time>2026-04-06T14:56:53Z</time></trkpt><trkpt lat="44.55068121330942" lon="10.599090068741532"><ele>269.1666666666667</ele><time>2026-04-06T14:56:54Z</time></trkpt><trkpt lat="44.55077057198083" lon="10.599069787066787"><ele>268.3333333333333</ele><time>2026-04-06T14:56:55Z</time></trkpt><trkpt lat="44.55085725787794" lon="10.599051275151616"><ele>267.5</ele><time>2026-04-06T14:56:56Z</time></trkpt><trkpt lat="44.55094443146798" lon="10.599040486089217"><ele>266.66666666666663</ele><time>2026-04-06T14:56:57Z</time></trkpt><trkpt lat="44.55102881945805" lon="10.599032753117354"><ele>265.8333333333333</ele><time>2026-04-06T14:56:58Z</time></trkpt><trkpt lat="44.55111541843704" lon="10.599029934124042"><ele>265.0</ele><time>2026-04-06T14:56:59Z</time></trkpt><trkpt lat="44.551197178827515" lon="10.599025597526"><ele>264.66666666666663</ele><time>2026-04-06T14:57:00Z</time></trkpt><trkpt lat="44.55128176038264" lon="10.599031037031391"><ele>264.3333333333333</ele><time>2026-04-06T14:57:01Z</time></trkpt><trkpt lat="44.55136915116811" lon="10.599028131055233"><ele>264.0</ele><time>2026-04-06T14:57:02Z</time></trkpt><trkpt lat="44.551450457305755" lon="10.599046940069174"><ele>263.6666666666667</ele><time>2026-04-06T14:57:03Z</time></trkpt><trkpt lat="44.55153387495957" lon="10.599052957160081"><ele>263.33333333333337</ele><time>2026-04-06T14:57:04Z</time></trkpt><trkpt lat="44.551618160244765" lon="10.599055662870144"><ele>263.0</ele><time>2026-04-06T14:57:05Z</time></trkpt><trkpt lat="44.551702606743994" lon="10.599045271231512"><ele>263.0</ele><time>2026-04-06T14:57:06Z</time></trkpt><trkpt lat="44.551787198597964" lon="10.599022360606854"><ele>263.0</ele><time>2026-04-06T14:57:07Z</time></trkpt><trkpt lat="44.551875539036864" lon="10.599011183759831"><ele>263.0</ele><time>2026-04-06T14:57:08Z</time></trkpt><trkpt lat="44.55196216264984" lon="10.599000989960272"><ele>263.0</ele><time>2026-04-06T14:57:09Z</time></trkpt><trkpt lat="44.55205028510888" lon="10.599004677873092"><ele>263.0</ele><time>2026-04-06T14:57:10Z</time></trkpt><trkpt lat="44.55212852967204" lon="10.598999554261008"><ele>263.0</ele><time>2026-04-06T14:57:11Z</time></trkpt><trkpt lat="44.55220279711023" lon="10.598996445626183"><ele>262.2</ele><time>2026-04-06T14:57:12Z</time></trkpt><trkpt lat="44.5522743532743" lon="10.598972017809851"><ele>261.4</ele><time>2026-04-06T14:57:13Z</time></trkpt><trkpt lat="44.55235586087835" lon="10.59894247471975"><ele>260.59999999999997</ele><time>2026-04-06T14:57:14Z</time></trkpt><trkpt lat="44.5524427158933" lon="10.598910993530412"><ele>259.8</ele><time>2026-04-06T14:57:15Z</time></trkpt><trkpt lat="44.55253055023988" lon="10.59887915739004"><ele>259.0</ele><time>2026-04-06T14:57:16Z</time></trkpt><trkpt lat="44.55266018042981" lon="10.59901679512619"><ele>259.0</ele><time>2026-04-06T14:57:17Z</time></trkpt><trkpt lat="44.552771466444476" lon="10.599039770914118"><ele>259.0</ele><time>2026-04-06T14:57:18Z</time></trkpt><trkpt lat="44.5528840885351" lon="10.599059181274908"><ele>259.0</ele><time>2026-04-06T14:57:19Z</time></trkpt><trkpt lat="44.55300373882901" lon="10.599085096704574"><ele>259.0</ele><time>2026-04-06T14:57:20Z</time></trkpt><trkpt lat="44.5531285277372" lon="10.599112118182278"><ele>257.2</ele><time>2026-04-06T14:57:21Z</time></trkpt><trkpt lat="44.55324584636972" lon="10.599140104334376"><ele>255.39999999999998</ele><time>2026-04-06T14:57:22Z</time></trkpt><trkpt lat="44.55334636459149" lon="10.599180027010313"><ele>253.6</ele><time>2026-04-06T14:57:23Z</time></trkpt><trkpt lat="44.55344631393582" lon="10.599239983448818"><ele>251.8</ele><time>2026-04-06T14:57:24Z</time></trkpt><trkpt lat="44.553538403762715" lon="10.599310850509436"><ele>250.0</ele><time>2026-04-06T14:57:25Z</time></trkpt><trkpt lat="44.553637961025046" lon="10.599368917300437"><ele>247.6</ele><time>2026-04-06T14:57:26Z</time></trkpt><trkpt lat="44.55374668207364" lon="10.599400091451065"><ele>245.2</ele><time>2026-04-06T14:57:27Z</time></trkpt><trkpt lat="44.55385568432144" lon="10.599407729877827"><ele>242.8</ele><time>2026-04-06T14:57:28Z</time></trkpt><trkpt lat="44.55395344142218" lon="10.599391624432283"><ele>240.4</ele><time>2026-04-06T14:57:29Z</time></trkpt><trkpt lat="44.55405202096084" lon="10.599369797320335"><ele>238.0</ele><time>2026-04-06T14:57:30Z</time></trkpt><trkpt lat="44.55413682635421" lon="10.599315962788255"><ele>238.0</ele><time>2026-04-06T14:57:31Z</time></trkpt><trkpt lat="44.55421891669101" lon="10.599262436850525"><ele>238.0</ele><time>2026-04-06T14:57:32Z</time></trkpt><trkpt lat="44.55430429559923" lon="10.599214842386997"><ele>238.0</ele><time>2026-04-06T14:57:33Z</time></trkpt><trkpt lat="44.55439338316064" lon="10.59917227389961"><ele>238.0</ele><time>2026-04-06T14:57:34Z</time></trkpt><trkpt lat="44.55450002539711" lon="10.59913175267495"><ele>238.0</ele><time>2026-04-06T14:57:35Z</time></trkpt><trkpt lat="44.554606730740254" lon="10.59910198501926"><ele>235.0</ele><time>2026-04-06T14:57:36Z</time></trkpt><trkpt lat="44.55468892771649" lon="10.599069580546821"><ele>232.0</ele><time>2026-04-06T14:57:37Z</time></trkpt><trkpt lat="44.55475219567046" lon="10.599050720736587"><ele>229.0</ele><time>2026-04-06T14:57:38Z</time></trkpt><trkpt lat="44.554837644971855" lon="10.599227465729042"><ele>226.0</ele><time>2026-04-06T14:57:40Z</time></trkpt><trkpt lat="44.554847122411374" lon="10.599373540753481"><ele>223.0</ele><time>2026-04-06T14:57:41Z</time></trkpt><trkpt lat="44.55482037497774" lon="10.599474212048841"><ele>222.4</ele><time>2026-04-06T14:57:42Z</time></trkpt><trkpt lat="44.554793931003246" lon="10.59959716859183"><ele>221.8</ele><time>2026-04-06T14:57:44Z</time></trkpt><trkpt lat="44.554935607285394" lon="10.599641377778175"><ele>221.2</ele><time>2026-04-06T14:57:46Z</time></trkpt><trkpt lat="44.55502990775894" lon="10.599642379171822"><ele>220.6</ele><time>2026-04-06T14:57:47Z</time></trkpt><trkpt lat="44.55512870545739" lon="10.599642033824416"><ele>220.0</ele><time>2026-04-06T14:57:48Z</time></trkpt><trkpt lat="44.55520679058406" lon="10.599620987176511"><ele>220.0</ele><time>2026-04-06T14:57:49Z</time></trkpt><trkpt lat="44.55527906397796" lon="10.599601166800541"><ele>220.0</ele><time>2026-04-06T14:57:50Z</time></trkpt><trkpt lat="44.55536502799289" lon="10.599575232088746"><ele>220.0</ele><time>2026-04-06T14:57:52Z</time></trkpt><trkpt lat="44.55539289648176" lon="10.599453351292112"><ele>220.0</ele><time>2026-04-06T14:57:55Z</time></trkpt><trkpt lat="44.55536854239599" lon="10.599369185717476"><ele>220.0</ele><time>2026-04-06T14:57:57Z</time></trkpt><trkpt lat="44.555300855891005" lon="10.599061435054448"><ele>219.99999999999997</ele><time>2026-04-06T14:57:59Z</time></trkpt><trkpt lat="44.55531309663126" lon="10.598909352371958"><ele>220.0</ele><time>2026-04-06T14:58:01Z</time></trkpt><trkpt lat="44.555361870153675" lon="10.598853030175428"><ele>220.0</ele><time>2026-04-06T14:58:02Z</time></trkpt><trkpt lat="44.55542635133933" lon="10.598823469524534"><ele>220.0</ele><time>2026-04-06T14:58:03Z</time></trkpt><trkpt lat="44.55549556700615" lon="10.59884165495631"><ele>220.0</ele><time>2026-04-06T14:58:04Z</time></trkpt><trkpt lat="44.55555824282101" lon="10.598860425804341"><ele>219.99999999999997</ele><time>2026-04-06T14:58:05Z</time></trkpt><trkpt lat="44.55562936974014" lon="10.598858696429865"><ele>220.0</ele><time>2026-04-06T14:58:08Z</time></trkpt><trkpt lat="44.55571189150249" lon="10.598862007317258"><ele>220.0</ele><time>2026-04-06T14:58:11Z</time></trkpt><trkpt lat="44.55582962647027" lon="10.598884614493622"><ele>220.0</ele><time>2026-04-06T14:58:13Z</time></trkpt><trkpt lat="44.55589669963041" lon="10.598877917219754"><ele>220.0</ele><time>2026-04-06T14:58:14Z</time></trkpt><trkpt lat="44.555985147547915" lon="10.598878641588643"><ele>220.0</ele><time>2026-04-06T14:58:15Z</time></trkpt><trkpt lat="44.55607335874016" lon="10.598873361404102"><ele>220.0</ele><time>2026-04-06T14:58:16Z</time></trkpt><trkpt lat="44.556163450845176" lon="10.598871588266542"><ele>222.8</ele><time>2026-04-06T14:58:17Z</time></trkpt><trkpt lat="44.55625878766957" lon="10.598862501899529"><ele>225.6</ele><time>2026-04-06T14:58:18Z</time></trkpt><trkpt lat="44.55636959731452" lon="10.59883874033269"><ele>228.39999999999998</ele><time>2026-04-06T14:58:19Z</time></trkpt><trkpt lat="44.55647864438846" lon="10.598811358724618"><ele>231.2</ele><time>2026-04-06T14:58:20Z</time></trkpt><trkpt lat="44.55657957943211" lon="10.598785538193052"><ele>234.0</ele><time>2026-04-06T14:58:21Z</time></trkpt><trkpt lat="44.55667941038787" lon="10.59879280653484"><ele>234.0</ele><time>2026-04-06T14:58:22Z</time></trkpt><trkpt lat="44.556776998252055" lon="10.59880543872886"><ele>233.99999999999997</ele><time>2026-04-06T14:58:23Z</time></trkpt><trkpt lat="44.556865143307185" lon="10.598824051598362"><ele>233.99999999999997</ele><time>2026-04-06T14:58:24Z</time></trkpt><trkpt lat="44.55695989273115" lon="10.598858028718624"><ele>234.0</ele><time>2026-04-06T14:58:25Z</time></trkpt><trkpt lat="44.55705585988181" lon="10.59886827184982"><ele>234.0</ele><time>2026-04-06T14:58:26Z</time></trkpt><trkpt lat="44.55715585996165" lon="10.598837016157933"><ele>235.39999999999998</ele><time>2026-04-06T14:58:27Z</time></trkpt><trkpt lat="44.5572561890906" lon="10.59878305705136"><ele>236.79999999999998</ele><time>2026-04-06T14:58:28Z</time></trkpt><trkpt lat="44.55733998889905" lon="10.59873170124748"><ele>238.20000000000002</ele><time>2026-04-06T14:58:29Z</time></trkpt><trkpt lat="44.55742644265652" lon="10.598664346146087"><ele>239.60000000000002</ele><time>2026-04-06T14:58:30Z</time></trkpt><trkpt lat="44.55751713009993" lon="10.598603993074695"><ele>241.0</ele><time>2026-04-06T14:58:31Z</time></trkpt><trkpt lat="44.55761084980333" lon="10.598546712978898"><ele>241.0</ele><time>2026-04-06T14:58:32Z</time></trkpt><trkpt lat="44.557706041771006" lon="10.598494830492216"><ele>241.00000000000003</ele><time>2026-04-06T14:58:33Z</time></trkpt><trkpt lat="44.557804510943015" lon="10.598422128623474"><ele>241.00000000000003</ele><time>2026-04-06T14:58:34Z</time></trkpt><trkpt lat="44.55787763667304" lon="10.598352687125706"><ele>241.0</ele><time>2026-04-06T14:58:35Z</time></trkpt><trkpt lat="44.55793717845995" lon="10.598306484085676"><ele>241.0</ele><time>2026-04-06T14:58:36Z</time></trkpt><trkpt lat="44.558077811651586" lon="10.598282781447294"><ele>243.16666666666666</ele><time>2026-04-06T14:58:38Z</time></trkpt><trkpt lat="44.55814924305493" lon="10.598293500221695"><ele>245.33333333333331</ele><time>2026-04-06T14:58:39Z</time></trkpt><trkpt lat="44.55823228996568" lon="10.598329566340626"><ele>247.5</ele><time>2026-04-06T14:58:40Z</time></trkpt><trkpt lat="44.55830679672644" lon="10.598372776136387"><ele>249.66666666666669</ele><time>2026-04-06T14:58:41Z</time></trkpt><trkpt lat="44.558381628652356" lon="10.598416210933879"><ele>251.83333333333334</ele><time>2026-04-06T14:58:42Z</time></trkpt><trkpt lat="44.55846761004909" lon="10.59846525250591"><ele>254.0</ele><time>2026-04-06T14:58:43Z</time></trkpt><trkpt lat="44.558553344072436" lon="10.598508295986262"><ele>254.00000000000003</ele><time>2026-04-06T14:58:44Z</time></trkpt><trkpt lat="44.55863447320855" lon="10.59854619695242"><ele>254.0</ele><time>2026-04-06T14:58:45Z</time></trkpt><trkpt lat="44.55871585578066" lon="10.598585137130573"><ele>254.0</ele><time>2026-04-06T14:58:46Z</time></trkpt><trkpt lat="44.5588001693813" lon="10.598625986364098"><ele>254.0</ele><time>2026-04-06T14:58:47Z</time></trkpt><trkpt lat="44.55888521103066" lon="10.59866022663623"><ele>254.00000000000003</ele><time>2026-04-06T14:58:48Z</time></trkpt><trkpt lat="44.558970845665634" lon="10.598683620627973"><ele>254.0</ele><time>2026-04-06T14:58:49Z</time></trkpt><trkpt lat="44.559053103852065" lon="10.598690000103462"><ele>255.83333333333334</ele><time>2026-04-06T14:58:50Z</time></trkpt><trkpt lat="44.55914648729791" lon="10.598668008924925"><ele>257.6666666666667</ele><time>2026-04-06T14:58:51Z</time></trkpt><trkpt lat="44.55923457974456" lon="10.59864202475481"><ele>259.5</ele><time>2026-04-06T14:58:52Z</time></trkpt><trkpt lat="44.559298298195735" lon="10.598627514942983"><ele>261.3333333333333</ele><time>2026-04-06T14:58:53Z</time></trkpt><trkpt lat="44.55938721944784" lon="10.598609351914586"><ele>263.16666666666663</ele><time>2026-04-06T14:58:55Z</time></trkpt><trkpt lat="44.55948553953063" lon="10.598573228682117"><ele>265.0</ele><time>2026-04-06T14:58:57Z</time></trkpt><trkpt lat="44.55956987338132" lon="10.59855080217989"><ele>267.6</ele><time>2026-04-06T14:58:59Z</time></trkpt><trkpt lat="44.55966755697221" lon="10.598510195751492"><ele>270.2</ele><time>2026-04-06T14:59:01Z</time></trkpt><trkpt lat="44.559758981241146" lon="10.598393423513167"><ele>272.8</ele><time>2026-04-06T14:59:03Z</time></trkpt><trkpt lat="44.55980515103835" lon="10.598222201629497"><ele>275.4</ele><time>2026-04-06T14:59:05Z</time></trkpt><trkpt lat="44.55982366914114" lon="10.598137209250359"><ele>278.0</ele><time>2026-04-06T14:59:06Z</time></trkpt><trkpt lat="44.55985141484057" lon="10.598004735471186"><ele>278.0</ele><time>2026-04-06T14:59:08Z</time></trkpt><trkpt lat="44.55986784525192" lon="10.597853889531926"><ele>278.0</ele><time>2026-04-06T14:59:11Z</time></trkpt><trkpt lat="44.55985626081852" lon="10.59776534523458"><ele>278.0</ele><time>2026-04-06T14:59:12Z</time></trkpt><trkpt lat="44.559845609724555" lon="10.59766038470027"><ele>278.0</ele><time>2026-04-06T14:59:13Z</time></trkpt><trkpt lat="44.55983905914371" lon="10.597538218240288"><ele>278.0</ele><time>2026-04-06T14:59:14Z</time></trkpt><trkpt lat="44.55984443284569" lon="10.597433695698655"><ele>278.0</ele><time>2026-04-06T14:59:15Z</time></trkpt><trkpt lat="44.559887582169075" lon="10.597352137006522"><ele>277.4</ele><time>2026-04-06T14:59:16Z</time></trkpt><trkpt lat="44.55994445988778" lon="10.597307090740976"><ele>276.8</ele><time>2026-04-06T14:59:17Z</time></trkpt><trkpt lat="44.56002675577992" lon="10.597264317589786"><ele>276.2</ele><time>2026-04-06T14:59:18Z</time></trkpt><trkpt lat="44.56011102998464" lon="10.597219782332862"><ele>275.6</ele><time>2026-04-06T14:59:19Z</time></trkpt><trkpt lat="44.56021679068072" lon="10.59716417160359"><ele>275.0</ele><time>2026-04-06T14:59:20Z</time></trkpt><trkpt lat="44.56032635289872" lon="10.597096087226953"><ele>280.0</ele><time>2026-04-06T14:59:21Z</time></trkpt><trkpt lat="44.56047217041482" lon="10.597020205422618"><ele>285.0</ele><time>2026-04-06T14:59:22Z</time></trkpt><trkpt lat="44.560624330197044" lon="10.596931990547162"><ele>290.0</ele><time>2026-04-06T14:59:23Z</time></trkpt><trkpt lat="44.56079055707727" lon="10.596846515434482"><ele>290.0</ele><time>2026-04-06T14:59:24Z</time></trkpt><trkpt lat="44.56095150624712" lon="10.596771036871994"><ele>290.0</ele><time>2026-04-06T14:59:25Z</time></trkpt><trkpt lat="44.56106536585022" lon="10.596753986788022"><ele>290.0</ele><time>2026-04-06T14:59:26Z</time></trkpt><trkpt lat="44.561172701066184" lon="10.596783724138852"><ele>290.0</ele><time>2026-04-06T14:59:27Z</time></trkpt><trkpt lat="44.56129121071523" lon="10.596848737854542"><ele>292.6666666666667</ele><time>2026-04-06T14:59:28Z</time></trkpt><trkpt lat="44.561427404714834" lon="10.596907424070562"><ele>295.3333333333333</ele><time>2026-04-06T14:59:29Z</time></trkpt><trkpt lat="44.56157941797474" lon="10.596939980226226"><ele>298.0</ele><time>2026-04-06T14:59:30Z</time></trkpt><trkpt lat="44.56174155510838" lon="10.596944932136013"><ele>298.0</ele><time>2026-04-06T14:59:31Z</time></trkpt><trkpt lat="44.56192597508018" lon="10.5969741917383"><ele>298.0</ele><time>2026-04-06T14:59:31.999Z</time></trkpt><trkpt lat="44.56205516665071" lon="10.597006851905515"><ele>298.0</ele><time>2026-04-06T14:59:32.999Z</time></trkpt><trkpt lat="44.56213819353865" lon="10.597050979002931"><ele>298.0</ele><time>2026-04-06T14:59:33.999Z</time></trkpt><trkpt lat="44.562266032155314" lon="10.597043423577551"><ele>303.0</ele><time>2026-04-06T14:59:35.999Z</time></trkpt><trkpt lat="44.562344435252236" lon="10.597056825282866"><ele>308.0</ele><time>2026-04-06T14:59:36.999Z</time></trkpt><trkpt lat="44.56242787826126" lon="10.597088710706227"><ele>313.0</ele><time>2026-04-06T14:59:37.999Z</time></trkpt><trkpt lat="44.562530213500494" lon="10.597122711985437"><ele>318.0</ele><time>2026-04-06T14:59:38.999Z</time></trkpt><trkpt lat="44.56264021712119" lon="10.597183383193416"><ele>323.0</ele><time>2026-04-06T14:59:39.999Z</time></trkpt><trkpt lat="44.56274349059396" lon="10.597234483643563"><ele>323.0</ele><time>2026-04-06T14:59:40.999Z</time></trkpt><trkpt lat="44.56283313003338" lon="10.59727271333938"><ele>323.0</ele><time>2026-04-06T14:59:41.999Z</time></trkpt><trkpt lat="44.56293769970926" lon="10.597305580398853"><ele>323.0</ele><time>2026-04-06T14:59:42.999Z</time></trkpt><trkpt lat="44.56302712508217" lon="10.597314683923432"><ele>323.0</ele><time>2026-04-06T14:59:44Z</time></trkpt><trkpt lat="44.56311079261957" lon="10.597278422653496"><ele>323.0</ele><time>2026-04-06T14:59:45Z</time></trkpt><trkpt lat="44.56316596405609" lon="10.5971875322926"><ele>323.0</ele><time>2026-04-06T14:59:46Z</time></trkpt><trkpt lat="44.563200765906466" lon="10.5970642237032"><ele>323.0</ele><time>2026-04-06T14:59:47Z</time></trkpt><trkpt lat="44.563244758605954" lon="10.596983405591878"><ele>323.0</ele><time>2026-04-06T14:59:48Z</time></trkpt><trkpt lat="44.56334623452791" lon="10.597078505525085"><ele>323.0</ele><time>2026-04-06T14:59:50Z</time></trkpt><trkpt lat="44.56339414094793" lon="10.597178675884537"><ele>323.0</ele><time>2026-04-06T14:59:51Z</time></trkpt><trkpt lat="44.56344862264291" lon="10.597288351763025"><ele>326.79999999999995</ele><time>2026-04-06T14:59:52Z</time></trkpt><trkpt lat="44.56352801196719" lon="10.597375554091807"><ele>330.6</ele><time>2026-04-06T14:59:53Z</time></trkpt><trkpt lat="44.56363319664229" lon="10.597411063236299"><ele>334.4</ele><time>2026-04-06T14:59:54Z</time></trkpt><trkpt lat="44.56374922062108" lon="10.597410075035715"><ele>338.20000000000005</ele><time>2026-04-06T14:59:55Z</time></trkpt><trkpt lat="44.563841772661696" lon="10.597418635752378"><ele>342.0</ele><time>2026-04-06T14:59:56Z</time></trkpt><trkpt lat="44.563932019028194" lon="10.597461528045272"><ele>343.20000000000005</ele><time>2026-04-06T14:59:57Z</time></trkpt><trkpt lat="44.56403335701981" lon="10.59752596487551"><ele>344.4</ele><time>2026-04-06T14:59:58Z</time></trkpt><trkpt lat="44.564122821312175" lon="10.59761472156124"><ele>345.6</ele><time>2026-04-06T14:59:59Z</time></trkpt><trkpt lat="44.56422187790457" lon="10.597685007957573"><ele>346.79999999999995</ele><time>2026-04-06T15:00:00Z</time></trkpt><trkpt lat="44.56431875852471" lon="10.59773246468766"><ele>348.0</ele><time>2026-04-06T15:00:01Z</time></trkpt><trkpt lat="44.564436002767906" lon="10.597771953943576"><ele>348.79999999999995</ele><time>2026-04-06T15:00:02Z</time></trkpt><trkpt lat="44.564560430099846" lon="10.597802752066857"><ele>349.6</ele><time>2026-04-06T15:00:03Z</time></trkpt><trkpt lat="44.56466992020087" lon="10.597832524825181"><ele>350.4</ele><time>2026-04-06T15:00:04Z</time></trkpt><trkpt lat="44.56477605617717" lon="10.597863492703244"><ele>351.20000000000005</ele><time>2026-04-06T15:00:05Z</time></trkpt><trkpt lat="44.56487737096608" lon="10.597885365064297"><ele>352.0</ele><time>2026-04-06T15:00:06Z</time></trkpt><trkpt lat="44.56497651702609" lon="10.59792401455173"><ele>355.40000000000003</ele><time>2026-04-06T15:00:07Z</time></trkpt><trkpt lat="44.56508299828088" lon="10.597948769375904"><ele>358.8</ele><time>2026-04-06T15:00:08Z</time></trkpt><trkpt lat="44.56519772062978" lon="10.597950060993295"><ele>362.2</ele><time>2026-04-06T15:00:09Z</time></trkpt><trkpt lat="44.56529418366876" lon="10.597954268089088"><ele>365.6</ele><time>2026-04-06T15:00:10Z</time></trkpt><trkpt lat="44.565402056334314" lon="10.597964041578727"><ele>369.0</ele><time>2026-04-06T15:00:11Z</time></trkpt><trkpt lat="44.56549541216429" lon="10.597971832940857"><ele>369.2</ele><time>2026-04-06T15:00:12Z</time></trkpt><trkpt lat="44.56560253956814" lon="10.597975225292185"><ele>369.4</ele><time>2026-04-06T15:00:13Z</time></trkpt><trkpt lat="44.56569663914861" lon="10.597973435288855"><ele>369.6</ele><time>2026-04-06T15:00:14Z</time></trkpt><trkpt lat="44.565806854015975" lon="10.597982719116295"><ele>369.8</ele><time>2026-04-06T15:00:15Z</time></trkpt><trkpt lat="44.56591468731492" lon="10.597955757252171"><ele>370.0</ele><time>2026-04-06T15:00:16Z</time></trkpt><trkpt lat="44.56601830408143" lon="10.59789917478505"><ele>370.0</ele><time>2026-04-06T15:00:17Z</time></trkpt><trkpt lat="44.56612548223712" lon="10.59785133216499"><ele>370.0</ele><time>2026-04-06T15:00:18Z</time></trkpt><trkpt lat="44.56624275196578" lon="10.597812655904207"><ele>370.0</ele><time>2026-04-06T15:00:19Z</time></trkpt><trkpt lat="44.566358041309435" lon="10.59775527312964"><ele>370.0</ele><time>2026-04-06T15:00:20Z</time></trkpt><trkpt lat="44.5664778647149" lon="10.597738648346292"><ele>370.4</ele><time>2026-04-06T15:00:21Z</time></trkpt><trkpt lat="44.566597971490125" lon="10.597732386207795"><ele>370.8</ele><time>2026-04-06T15:00:22Z</time></trkpt><trkpt lat="44.566718161784465" lon="10.597734039871241"><ele>371.20000000000005</ele><time>2026-04-06T15:00:23Z</time></trkpt><trkpt lat="44.56682775684433" lon="10.597711803493356"><ele>371.6</ele><time>2026-04-06T15:00:24Z</time></trkpt><trkpt lat="44.566922381651985" lon="10.597728320814404"><ele>372.0</ele><time>2026-04-06T15:00:25Z</time></trkpt><trkpt lat="44.56702022013743" lon="10.597683371341718"><ele>372.20000000000005</ele><time>2026-04-06T15:00:26Z</time></trkpt><trkpt lat="44.56710979588192" lon="10.597610815750741"><ele>372.4</ele><time>2026-04-06T15:00:27Z</time></trkpt><trkpt lat="44.5671734161865" lon="10.597518261501644"><ele>372.6</ele><time>2026-04-06T15:00:28Z</time></trkpt><trkpt lat="44.56723014759679" lon="10.597427373076773"><ele>372.79999999999995</ele><time>2026-04-06T15:00:29Z</time></trkpt><trkpt lat="44.56725802632414" lon="10.597300876869493"><ele>373.0</ele><time>2026-04-06T15:00:30Z</time></trkpt><trkpt lat="44.56729517203338" lon="10.597166121168648"><ele>373.0</ele><time>2026-04-06T15:00:31Z</time></trkpt><trkpt lat="44.56735137032513" lon="10.597062492874661"><ele>373.0</ele><time>2026-04-06T15:00:32Z</time></trkpt><trkpt lat="44.5674523496204" lon="10.597020619262587"><ele>373.0</ele><time>2026-04-06T15:00:33Z</time></trkpt><trkpt lat="44.56757470108471" lon="10.597001003574151"><ele>373.0</ele><time>2026-04-06T15:00:34Z</time></trkpt><trkpt lat="44.56764794627934" lon="10.596903480485189"><ele>373.0</ele><time>2026-04-06T15:00:35Z</time></trkpt><trkpt lat="44.56770547089939" lon="10.596766357028843"><ele>372.59999999999997</ele><time>2026-04-06T15:00:36Z</time></trkpt><trkpt lat="44.5677785084716" lon="10.59664961573786"><ele>372.2</ele><time>2026-04-06T15:00:37Z</time></trkpt><trkpt lat="44.56782608948388" lon="10.596537796777188"><ele>371.8</ele><time>2026-04-06T15:00:38Z</time></trkpt><trkpt lat="44.567913909448926" lon="10.596524338167884"><ele>371.4</ele><time>2026-04-06T15:00:39Z</time></trkpt><trkpt lat="44.56800567487957" lon="10.596512558289207"><ele>371.0</ele><time>2026-04-06T15:00:40Z</time></trkpt><trkpt lat="44.56810292954052" lon="10.596540583936873"><ele>375.0</ele><time>2026-04-06T15:00:41Z</time></trkpt><trkpt lat="44.56818688028055" lon="10.596630925061383"><ele>379.0</ele><time>2026-04-06T15:00:42Z</time></trkpt><trkpt lat="44.56830780226687" lon="10.596682388898646"><ele>383.0</ele><time>2026-04-06T15:00:43Z</time></trkpt><trkpt lat="44.568417084151086" lon="10.596683078832227"><ele>387.0</ele><time>2026-04-06T15:00:44Z</time></trkpt><trkpt lat="44.568526053262836" lon="10.596657858351168"><ele>387.0</ele><time>2026-04-06T15:00:45Z</time></trkpt><trkpt lat="44.568668695232894" lon="10.596687900830895"><ele>387.0</ele><time>2026-04-06T15:00:46Z</time></trkpt><trkpt lat="44.568839348532" lon="10.596740409044157"><ele>387.0</ele><time>2026-04-06T15:00:47Z</time></trkpt><trkpt lat="44.569007207878855" lon="10.59674606644743"><ele>390.5</ele><time>2026-04-06T15:00:48Z</time></trkpt><trkpt lat="44.56915006212357" lon="10.596723187957899"><ele>394.0</ele><time>2026-04-06T15:00:49Z</time></trkpt><trkpt lat="44.56928435791515" lon="10.596747886129465"><ele>397.5</ele><time>2026-04-06T15:00:50Z</time></trkpt><trkpt lat="44.56941266559457" lon="10.596734702632094"><ele>401.0</ele><time>2026-04-06T15:00:51Z</time></trkpt><trkpt lat="44.569525375047704" lon="10.596700396892368"><ele>403.5</ele><time>2026-04-06T15:00:52Z</time></trkpt><trkpt lat="44.56963735330979" lon="10.59666484147126"><ele>406.0</ele><time>2026-04-06T15:00:53Z</time></trkpt><trkpt lat="44.56971294335478" lon="10.596594180691685"><ele>408.5</ele><time>2026-04-06T15:00:54Z</time></trkpt><trkpt lat="44.56979682597395" lon="10.596465980643126"><ele>411.0</ele><time>2026-04-06T15:00:55Z</time></trkpt><trkpt lat="44.569885812309884" lon="10.596298682491643"><ele>411.0</ele><time>2026-04-06T15:00:56Z</time></trkpt><trkpt lat="44.56995344639244" lon="10.596170849936765"><ele>411.0</ele><time>2026-04-06T15:00:57Z</time></trkpt><trkpt lat="44.56998818909712" lon="10.596057540623065"><ele>411.0</ele><time>2026-04-06T15:00:58Z</time></trkpt><trkpt lat="44.569998135055016" lon="10.595907819881711"><ele>411.0</ele><time>2026-04-06T15:00:59Z</time></trkpt><trkpt lat="44.57002469812661" lon="10.595757938127369"><ele>411.0</ele><time>2026-04-06T15:01:00Z</time></trkpt><trkpt lat="44.570085686727744" lon="10.595669815343507"><ele>412.20000000000005</ele><time>2026-04-06T15:01:01Z</time></trkpt><trkpt lat="44.57017290208431" lon="10.595604469718046"><ele>413.40000000000003</ele><time>2026-04-06T15:01:02Z</time></trkpt><trkpt lat="44.57027121735769" lon="10.595560116586583"><ele>414.6</ele><time>2026-04-06T15:01:03Z</time></trkpt><trkpt lat="44.57038736944653" lon="10.59554810834992"><ele>415.8</ele><time>2026-04-06T15:01:04Z</time></trkpt><trkpt lat="44.57051341648229" lon="10.595536089139346"><ele>417.0</ele><time>2026-04-06T15:01:05Z</time></trkpt><trkpt lat="44.570610089412845" lon="10.595497078918923"><ele>421.0</ele><time>2026-04-06T15:01:06Z</time></trkpt><trkpt lat="44.57067990066172" lon="10.595427447503244"><ele>425.0</ele><time>2026-04-06T15:01:07Z</time></trkpt><trkpt lat="44.570767933229504" lon="10.595315143424488"><ele>429.0</ele><time>2026-04-06T15:01:08Z</time></trkpt><trkpt lat="44.5708835357838" lon="10.595189963605728"><ele>433.0</ele><time>2026-04-06T15:01:09Z</time></trkpt><trkpt lat="44.571022722811726" lon="10.595041885447042"><ele>433.0</ele><time>2026-04-06T15:01:10Z</time></trkpt><trkpt lat="44.57114766477421" lon="10.59489853530811"><ele>433.0</ele><time>2026-04-06T15:01:11Z</time></trkpt><trkpt lat="44.57123354287823" lon="10.594784365500324"><ele>433.0</ele><time>2026-04-06T15:01:12Z</time></trkpt><trkpt lat="44.57129652096589" lon="10.594681346862231"><ele>433.0</ele><time>2026-04-06T15:01:13Z</time></trkpt><trkpt lat="44.571355063057766" lon="10.594587672364971"><ele>434.00000000000006</ele><time>2026-04-06T15:01:14Z</time></trkpt><trkpt lat="44.571410024637245" lon="10.594514863435936"><ele>435.0</ele><time>2026-04-06T15:01:15Z</time></trkpt><trkpt lat="44.57145984568558" lon="10.594446942584375"><ele>436.0</ele><time>2026-04-06T15:01:16Z</time></trkpt><trkpt lat="44.57149992492636" lon="10.594341948305173"><ele>437.0</ele><time>2026-04-06T15:01:17Z</time></trkpt><trkpt lat="44.57153769740713" lon="10.594219204413834"><ele>438.00000000000006</ele><time>2026-04-06T15:01:18Z</time></trkpt><trkpt lat="44.57157316208367" lon="10.59409649966208"><ele>439.0</ele><time>2026-04-06T15:01:19Z</time></trkpt><trkpt lat="44.57160164299057" lon="10.593981691458744"><ele>439.6</ele><time>2026-04-06T15:01:20Z</time></trkpt><trkpt lat="44.57162539540351" lon="10.593863410204746"><ele>440.2</ele><time>2026-04-06T15:01:21Z</time></trkpt><trkpt lat="44.571640797965735" lon="10.593734284677913"><ele>440.80000000000007</ele><time>2026-04-06T15:01:22Z</time></trkpt><trkpt lat="44.57165030710145" lon="10.593607041350344"><ele>441.40000000000003</ele><time>2026-04-06T15:01:23Z</time></trkpt><trkpt lat="44.5716634008099" lon="10.593484954830913"><ele>442.0</ele><time>2026-04-06T15:01:24Z</time></trkpt><trkpt lat="44.57170864820917" lon="10.59336922031302"><ele>442.0</ele><time>2026-04-06T15:01:25Z</time></trkpt><trkpt lat="44.57178519279461" lon="10.59327467483287"><ele>442.0</ele><time>2026-04-06T15:01:26Z</time></trkpt><trkpt lat="44.57188551051486" lon="10.593181393908527"><ele>442.0</ele><time>2026-04-06T15:01:27Z</time></trkpt><trkpt lat="44.57199658489775" lon="10.593087898772898"><ele>442.0</ele><time>2026-04-06T15:01:28Z</time></trkpt><trkpt lat="44.57210354190353" lon="10.592961158159358"><ele>445.5</ele><time>2026-04-06T15:01:29Z</time></trkpt><trkpt lat="44.57219983709915" lon="10.59283010769304"><ele>449.0</ele><time>2026-04-06T15:01:30Z</time></trkpt><trkpt lat="44.572288673136576" lon="10.592724587645902"><ele>452.5</ele><time>2026-04-06T15:01:31Z</time></trkpt><trkpt lat="44.57237825116302" lon="10.592622406882443"><ele>456.0</ele><time>2026-04-06T15:01:32Z</time></trkpt><trkpt lat="44.572469944980725" lon="10.592530074838196"><ele>456.0</ele><time>2026-04-06T15:01:33Z</time></trkpt><trkpt lat="44.572548899426344" lon="10.592455946522147"><ele>456.0</ele><time>2026-04-06T15:01:34Z</time></trkpt><trkpt lat="44.572606298693145" lon="10.592367910497167"><ele>456.0</ele><time>2026-04-06T15:01:35Z</time></trkpt><trkpt lat="44.57261299265362" lon="10.59227107092985"><ele>456.0</ele><time>2026-04-06T15:01:36Z</time></trkpt><trkpt lat="44.572608910247816" lon="10.592144147165023"><ele>456.0</ele><time>2026-04-06T15:01:37Z</time></trkpt><trkpt lat="44.572615924627385" lon="10.592007903420525"><ele>456.0</ele><time>2026-04-06T15:01:38Z</time></trkpt><trkpt lat="44.57263536662172" lon="10.59186608055452"><ele>456.25</ele><time>2026-04-06T15:01:39Z</time></trkpt><trkpt lat="44.572654339576694" lon="10.59170792272813"><ele>456.5</ele><time>2026-04-06T15:01:40Z</time></trkpt><trkpt lat="44.57266955907177" lon="10.591520535410332"><ele>456.75</ele><time>2026-04-06T15:01:41Z</time></trkpt><trkpt lat="44.57269499517385" lon="10.591342739082942"><ele>457.0</ele><time>2026-04-06T15:01:42Z</time></trkpt><trkpt lat="44.5727094990694" lon="10.5911775963168"><ele>456.8</ele><time>2026-04-06T15:01:43Z</time></trkpt><trkpt lat="44.572708841526186" lon="10.591006872212612"><ele>456.6</ele><time>2026-04-06T15:01:44Z</time></trkpt><trkpt lat="44.57272053131995" lon="10.590856732375801"><ele>456.40000000000003</ele><time>2026-04-06T15:01:45Z</time></trkpt><trkpt lat="44.57272019571847" lon="10.590708107615455"><ele>456.20000000000005</ele><time>2026-04-06T15:01:46Z</time></trkpt><trkpt lat="44.572725382085444" lon="10.590576085190982"><ele>456.0</ele><time>2026-04-06T15:01:47Z</time></trkpt><trkpt lat="44.57273666497363" lon="10.59044283202604"><ele>455.6666666666667</ele><time>2026-04-06T15:01:48Z</time></trkpt><trkpt lat="44.57275965632462" lon="10.590324907719818"><ele>455.33333333333337</ele><time>2026-04-06T15:01:49Z</time></trkpt><trkpt lat="44.572786601198615" lon="10.59023483237529"><ele>455.0</ele><time>2026-04-06T15:01:50Z</time></trkpt><trkpt lat="44.57282327000826" lon="10.590149422023865"><ele>454.6666666666667</ele><time>2026-04-06T15:01:51Z</time></trkpt><trkpt lat="44.57288185503361" lon="10.590046809328502"><ele>454.33333333333337</ele><time>2026-04-06T15:01:52Z</time></trkpt><trkpt lat="44.5729567701902" lon="10.589947106498927"><ele>454.0</ele><time>2026-04-06T15:01:53Z</time></trkpt><trkpt lat="44.57300541437269" lon="10.589831848573299"><ele>455.4</ele><time>2026-04-06T15:01:54Z</time></trkpt><trkpt lat="44.573035924657304" lon="10.589675394232682"><ele>456.79999999999995</ele><time>2026-04-06T15:01:55Z</time></trkpt><trkpt lat="44.57306778422836" lon="10.58952900173422"><ele>458.20000000000005</ele><time>2026-04-06T15:01:56Z</time></trkpt><trkpt lat="44.57310719891506" lon="10.5894248159593"><ele>459.6</ele><time>2026-04-06T15:01:57Z</time></trkpt><trkpt lat="44.57315464276513" lon="10.589356962664157"><ele>461.0</ele><time>2026-04-06T15:01:58Z</time></trkpt><trkpt lat="44.57321807216765" lon="10.58930208303471"><ele>460.99999999999994</ele><time>2026-04-06T15:01:59Z</time></trkpt><trkpt lat="44.57327438446065" lon="10.589190041599906"><ele>461.0</ele><time>2026-04-06T15:02:00Z</time></trkpt><trkpt lat="44.57331581368201" lon="10.589075379902742"><ele>461.0</ele><time>2026-04-06T15:02:01Z</time></trkpt><trkpt lat="44.57334147328171" lon="10.588994363451402"><ele>461.0</ele><time>2026-04-06T15:02:02Z</time></trkpt><trkpt lat="44.57334516734735" lon="10.588885386595999"><ele>460.99999999999994</ele><time>2026-04-06T15:02:03Z</time></trkpt><trkpt lat="44.5733363354572" lon="10.588757364108055"><ele>461.0</ele><time>2026-04-06T15:02:04Z</time></trkpt><trkpt lat="44.57330146624185" lon="10.588630771287276"><ele>460.20000000000005</ele><time>2026-04-06T15:02:05Z</time></trkpt><trkpt lat="44.573274712690896" lon="10.588539604483348"><ele>459.40000000000003</ele><time>2026-04-06T15:02:06Z</time></trkpt><trkpt lat="44.57325428339037" lon="10.5884551155397"><ele>458.6</ele><time>2026-04-06T15:02:07Z</time></trkpt><trkpt lat="44.57321387491488" lon="10.58830053048391"><ele>457.8</ele><time>2026-04-06T15:02:09Z</time></trkpt><trkpt lat="44.57318399614003" lon="10.588108063197863"><ele>457.0</ele><time>2026-04-06T15:02:11Z</time></trkpt><trkpt lat="44.573163530408074" lon="10.58801332382204"><ele>457.00000000000006</ele><time>2026-04-06T15:02:12Z</time></trkpt><trkpt lat="44.573148255770754" lon="10.587920621314266"><ele>457.0</ele><time>2026-04-06T15:02:13Z</time></trkpt><trkpt lat="44.573150064286764" lon="10.587825066588971"><ele>457.0</ele><time>2026-04-06T15:02:14Z</time></trkpt><trkpt lat="44.573167006086045" lon="10.587738521875076"><ele>457.0</ele><time>2026-04-06T15:02:15Z</time></trkpt><trkpt lat="44.573199696983025" lon="10.587660320950269"><ele>457.00000000000006</ele><time>2026-04-06T15:02:16Z</time></trkpt><trkpt lat="44.57324608108729" lon="10.58758771685069"><ele>457.0</ele><time>2026-04-06T15:02:17Z</time></trkpt><trkpt lat="44.573340690616625" lon="10.587493762864955"><ele>456.6</ele><time>2026-04-06T15:02:19Z</time></trkpt><trkpt lat="44.573401658607814" lon="10.587437143869343"><ele>456.20000000000005</ele><time>2026-04-06T15:02:20Z</time></trkpt><trkpt lat="44.57349954700766" lon="10.58736331715604"><ele>455.8</ele><time>2026-04-06T15:02:22Z</time></trkpt><trkpt lat="44.573597137051514" lon="10.587286033864917"><ele>455.4</ele><time>2026-04-06T15:02:24Z</time></trkpt><trkpt lat="44.57370351328174" lon="10.587229517469368"><ele>455.0</ele><time>2026-04-06T15:02:26Z</time></trkpt><trkpt lat="44.573802946673844" lon="10.587175573829999"><ele>455.8</ele><time>2026-04-06T15:02:28Z</time></trkpt><trkpt lat="44.57389079145819" lon="10.587131950646116"><ele>456.6</ele><time>2026-04-06T15:02:30Z</time></trkpt><trkpt lat="44.5739415548907" lon="10.587071161375306"><ele>457.4</ele><time>2026-04-06T15:02:37Z</time></trkpt><trkpt lat="44.574112101208556" lon="10.587050114269342"><ele>458.2</ele><time>2026-04-06T15:03:22Z</time></trkpt><trkpt lat="44.57419773537112" lon="10.58705589108261"><ele>459.0</ele><time>2026-04-06T15:03:23Z</time></trkpt><trkpt lat="44.57431078942649" lon="10.587063130439226"><ele>459.0</ele><time>2026-04-06T15:03:24Z</time></trkpt><trkpt lat="44.57443998494422" lon="10.587057906277204"><ele>459.0</ele><time>2026-04-06T15:03:25Z</time></trkpt><trkpt lat="44.57459922624492" lon="10.587056886293409"><ele>459.0</ele><time>2026-04-06T15:03:26Z</time></trkpt><trkpt lat="44.574795258585134" lon="10.587050242976192"><ele>458.33333333333337</ele><time>2026-04-06T15:03:27Z</time></trkpt><trkpt lat="44.57500520602997" lon="10.587044830379497"><ele>457.6666666666667</ele><time>2026-04-06T15:03:28Z</time></trkpt><trkpt lat="44.57519981725309" lon="10.587036164630831"><ele>457.0</ele><time>2026-04-06T15:03:29Z</time></trkpt><trkpt lat="44.5753714852159" lon="10.58703745130798"><ele>457.0</ele><time>2026-04-06T15:03:30Z</time></trkpt><trkpt lat="44.575528293480076" lon="10.587050664659582"><ele>457.0</ele><time>2026-04-06T15:03:31Z</time></trkpt><trkpt lat="44.575659524997" lon="10.58707539339171"><ele>457.0</ele><time>2026-04-06T15:03:32Z</time></trkpt><trkpt lat="44.575783499301714" lon="10.587116452363986"><ele>457.0</ele><time>2026-04-06T15:03:33Z</time></trkpt><trkpt lat="44.5758895833951" lon="10.587188564615465"><ele>457.0</ele><time>2026-04-06T15:03:34Z</time></trkpt><trkpt lat="44.575986005085014" lon="10.58726305156213"><ele>457.0</ele><time>2026-04-06T15:03:35Z</time></trkpt><trkpt lat="44.57608270893236" lon="10.587306161941461"><ele>457.0</ele><time>2026-04-06T15:03:36Z</time></trkpt><trkpt lat="44.57620316211176" lon="10.587299940706679"><ele>457.0</ele><time>2026-04-06T15:03:37Z</time></trkpt><trkpt lat="44.57633023368371" lon="10.58724171352467"><ele>457.0</ele><time>2026-04-06T15:03:38Z</time></trkpt><trkpt lat="44.57646235704822" lon="10.587163173077245"><ele>457.0</ele><time>2026-04-06T15:03:39Z</time></trkpt><trkpt lat="44.576592626736044" lon="10.58710272912978"><ele>457.0</ele><time>2026-04-06T15:03:40Z</time></trkpt><trkpt lat="44.57672723793025" lon="10.58708303072416"><ele>457.0</ele><time>2026-04-06T15:03:41Z</time></trkpt><trkpt lat="44.57686160691589" lon="10.587090465584033"><ele>457.0</ele><time>2026-04-06T15:03:42Z</time></trkpt><trkpt lat="44.57699306117415" lon="10.587121223078777"><ele>457.0</ele><time>2026-04-06T15:03:43Z</time></trkpt><trkpt lat="44.57712501462221" lon="10.58717129226898"><ele>457.0</ele><time>2026-04-06T15:03:44Z</time></trkpt><trkpt lat="44.57725850913624" lon="10.587231050247427"><ele>457.0</ele><time>2026-04-06T15:03:45Z</time></trkpt><trkpt lat="44.577388770444074" lon="10.587301529989604"><ele>455.75</ele><time>2026-04-06T15:03:46Z</time></trkpt><trkpt lat="44.577522573528654" lon="10.587354313571556"><ele>454.5</ele><time>2026-04-06T15:03:47Z</time></trkpt><trkpt lat="44.57766340479261" lon="10.58736608189551"><ele>453.25</ele><time>2026-04-06T15:03:48Z</time></trkpt><trkpt lat="44.577810766166834" lon="10.587357520364904"><ele>452.0</ele><time>2026-04-06T15:03:49Z</time></trkpt><trkpt lat="44.577952496496515" lon="10.587352778374507"><ele>451.75</ele><time>2026-04-06T15:03:50Z</time></trkpt><trkpt lat="44.57809226442733" lon="10.587356915571299"><ele>451.5</ele><time>2026-04-06T15:03:51Z</time></trkpt><trkpt lat="44.5782328539277" lon="10.587358096632872"><ele>451.25</ele><time>2026-04-06T15:03:52Z</time></trkpt><trkpt lat="44.57837685146113" lon="10.58734284399903"><ele>451.0</ele><time>2026-04-06T15:03:53Z</time></trkpt><trkpt lat="44.578519978834635" lon="10.587318301378707"><ele>451.0</ele><time>2026-04-06T15:03:54Z</time></trkpt><trkpt lat="44.578661530997856" lon="10.587315243447122"><ele>451.0</ele><time>2026-04-06T15:03:55Z</time></trkpt><trkpt lat="44.57880142430182" lon="10.587330393301443"><ele>451.0</ele><time>2026-04-06T15:03:56Z</time></trkpt><trkpt lat="44.578934357547276" lon="10.587383415035832"><ele>451.0</ele><time>2026-04-06T15:03:57Z</time></trkpt><trkpt lat="44.57907696586612" lon="10.587403972241335"><ele>450.25</ele><time>2026-04-06T15:03:58Z</time></trkpt><trkpt lat="44.57921419537303" lon="10.587443795375542"><ele>449.5</ele><time>2026-04-06T15:03:59Z</time></trkpt><trkpt lat="44.57934583161846" lon="10.587483103627626"><ele>448.75</ele><time>2026-04-06T15:04:00Z</time></trkpt><trkpt lat="44.57946793838638" lon="10.587509561821323"><ele>448.0</ele><time>2026-04-06T15:04:01Z</time></trkpt><trkpt lat="44.579594916659254" lon="10.58753909729606"><ele>446.75</ele><time>2026-04-06T15:04:02Z</time></trkpt><trkpt lat="44.579713903295136" lon="10.587537535432627"><ele>445.5</ele><time>2026-04-06T15:04:03Z</time></trkpt><trkpt lat="44.579830737841746" lon="10.587508972417643"><ele>444.25</ele><time>2026-04-06T15:04:04Z</time></trkpt><trkpt lat="44.579944263257275" lon="10.58747304085156"><ele>443.0</ele><time>2026-04-06T15:04:05Z</time></trkpt><trkpt lat="44.58006030375959" lon="10.58743768544456"><ele>443.0</ele><time>2026-04-06T15:04:06Z</time></trkpt><trkpt lat="44.580185540610586" lon="10.587399561258014"><ele>443.0</ele><time>2026-04-06T15:04:07Z</time></trkpt><trkpt lat="44.58030897717755" lon="10.587365837320238"><ele>443.0</ele><time>2026-04-06T15:04:08Z</time></trkpt><trkpt lat="44.58043606105218" lon="10.587336082858352"><ele>443.0</ele><time>2026-04-06T15:04:09Z</time></trkpt><trkpt lat="44.58056396578213" lon="10.587307822426574"><ele>441.0</ele><time>2026-04-06T15:04:10Z</time></trkpt><trkpt lat="44.58068159612544" lon="10.587347672585794"><ele>439.0</ele><time>2026-04-06T15:04:11Z</time></trkpt><trkpt lat="44.580795279926775" lon="10.587419327555175"><ele>437.0</ele><time>2026-04-06T15:04:12Z</time></trkpt><trkpt lat="44.58092276592296" lon="10.587468834856317"><ele>435.0</ele><time>2026-04-06T15:04:13Z</time></trkpt><trkpt lat="44.58104184109903" lon="10.587540063059835"><ele>435.0</ele><time>2026-04-06T15:04:14Z</time></trkpt><trkpt lat="44.58117019697" lon="10.587606680398176"><ele>435.0</ele><time>2026-04-06T15:04:15Z</time></trkpt><trkpt lat="44.581300279888936" lon="10.587677111579824"><ele>435.0</ele><time>2026-04-06T15:04:16Z</time></trkpt><trkpt lat="44.58142484967808" lon="10.587744333518355"><ele>435.0</ele><time>2026-04-06T15:04:17Z</time></trkpt><trkpt lat="44.58154438997148" lon="10.587808183486166"><ele>431.75</ele><time>2026-04-06T15:04:18Z</time></trkpt><trkpt lat="44.581665960076336" lon="10.587873991258137"><ele>428.5</ele><time>2026-04-06T15:04:19Z</time></trkpt><trkpt lat="44.58178613657788" lon="10.587937579921213"><ele>425.25</ele><time>2026-04-06T15:04:20Z</time></trkpt><trkpt lat="44.581909448400964" lon="10.587987807728942"><ele>422.0</ele><time>2026-04-06T15:04:21Z</time></trkpt><trkpt lat="44.582028722658734" lon="10.588016608000334"><ele>421.20000000000005</ele><time>2026-04-06T15:04:22Z</time></trkpt><trkpt lat="44.58214440000654" lon="10.588026555832426"><ele>420.4</ele><time>2026-04-06T15:04:23Z</time></trkpt><trkpt lat="44.582253125555255" lon="10.587999646340501"><ele>419.6</ele><time>2026-04-06T15:04:24Z</time></trkpt><trkpt lat="44.58236160254895" lon="10.587955264192628"><ele>418.79999999999995</ele><time>2026-04-06T15:04:25Z</time></trkpt><trkpt lat="44.58244091708978" lon="10.587870400116863"><ele>418.0</ele><time>2026-04-06T15:04:26Z</time></trkpt><trkpt lat="44.58251327533141" lon="10.587736437368457"><ele>418.0</ele><time>2026-04-06T15:04:27Z</time></trkpt><trkpt lat="44.58258473941352" lon="10.587567794367509"><ele>418.0</ele><time>2026-04-06T15:04:28Z</time></trkpt><trkpt lat="44.582669182464066" lon="10.58741968123471"><ele>418.0</ele><time>2026-04-06T15:04:29Z</time></trkpt><trkpt lat="44.58276545817517" lon="10.587293117651688"><ele>418.0</ele><time>2026-04-06T15:04:30Z</time></trkpt><trkpt lat="44.582886808731836" lon="10.587242773662144"><ele>414.0</ele><time>2026-04-06T15:04:31Z</time></trkpt><trkpt lat="44.58300684498905" lon="10.587193467192202"><ele>410.0</ele><time>2026-04-06T15:04:32Z</time></trkpt><trkpt lat="44.583128036129864" lon="10.58714123397609"><ele>406.0</ele><time>2026-04-06T15:04:33Z</time></trkpt><trkpt lat="44.583248379934545" lon="10.587102105063806"><ele>402.0</ele><time>2026-04-06T15:04:34Z</time></trkpt><trkpt lat="44.58337091720695" lon="10.587058510204564"><ele>402.0</ele><time>2026-04-06T15:04:35Z</time></trkpt><trkpt lat="44.58349167005112" lon="10.587019247574911"><ele>402.0</ele><time>2026-04-06T15:04:36Z</time></trkpt><trkpt lat="44.58361080926429" lon="10.586972210203019"><ele>402.0</ele><time>2026-04-06T15:04:37Z</time></trkpt><trkpt lat="44.58373309469557" lon="10.586917625896271"><ele>402.0</ele><time>2026-04-06T15:04:38Z</time></trkpt><trkpt lat="44.58385416894359" lon="10.586862322604528"><ele>402.0</ele><time>2026-04-06T15:04:39Z</time></trkpt><trkpt lat="44.5839785729424" lon="10.586812955480482"><ele>402.0</ele><time>2026-04-06T15:04:40Z</time></trkpt><trkpt lat="44.584087207810505" lon="10.586773319025005"><ele>402.0</ele><time>2026-04-06T15:04:41Z</time></trkpt><trkpt lat="44.58421375666367" lon="10.586713965162843"><ele>402.0</ele><time>2026-04-06T15:04:42Z</time></trkpt><trkpt lat="44.584342943788364" lon="10.586658376678571"><ele>402.0</ele><time>2026-04-06T15:04:43Z</time></trkpt><trkpt lat="44.5844709030863" lon="10.58659849405492"><ele>402.0</ele><time>2026-04-06T15:04:44Z</time></trkpt><trkpt lat="44.584597017142805" lon="10.586540918681136"><ele>402.0</ele><time>2026-04-06T15:04:45Z</time></trkpt><trkpt lat="44.58472685525449" lon="10.586473916372956"><ele>402.0</ele><time>2026-04-06T15:04:46Z</time></trkpt><trkpt lat="44.58485059276587" lon="10.586398077387102"><ele>399.25</ele><time>2026-04-06T15:04:47Z</time></trkpt><trkpt lat="44.584979041467854" lon="10.586328258096414"><ele>396.5</ele><time>2026-04-06T15:04:48Z</time></trkpt><trkpt lat="44.585086685199464" lon="10.586257175665395"><ele>393.75</ele><time>2026-04-06T15:04:49Z</time></trkpt><trkpt lat="44.585197637519954" lon="10.58620571154271"><ele>391.0</ele><time>2026-04-06T15:04:50Z</time></trkpt><trkpt lat="44.58534990933341" lon="10.586173254206068"><ele>389.5</ele><time>2026-04-06T15:04:51Z</time></trkpt><trkpt lat="44.58548465306047" lon="10.586163438658884"><ele>388.0</ele><time>2026-04-06T15:04:52Z</time></trkpt><trkpt lat="44.58561827166729" lon="10.58615202678012"><ele>386.5</ele><time>2026-04-06T15:04:53Z</time></trkpt><trkpt lat="44.585749773343046" lon="10.586133575058291"><ele>385.0</ele><time>2026-04-06T15:04:54Z</time></trkpt><trkpt lat="44.585880759685736" lon="10.58610691245841"><ele>385.0</ele><time>2026-04-06T15:04:55Z</time></trkpt><trkpt lat="44.58600778392239" lon="10.58607100006113"><ele>385.0</ele><time>2026-04-06T15:04:56Z</time></trkpt><trkpt lat="44.58613655382024" lon="10.586021515609838"><ele>385.0</ele><time>2026-04-06T15:04:57Z</time></trkpt><trkpt lat="44.58626256886754" lon="10.585960781950623"><ele>385.0</ele><time>2026-04-06T15:04:58Z</time></trkpt><trkpt lat="44.58638791505869" lon="10.58589880827533"><ele>385.0</ele><time>2026-04-06T15:04:59Z</time></trkpt><trkpt lat="44.586511853716" lon="10.585835503007065"><ele>385.0</ele><time>2026-04-06T15:05:00Z</time></trkpt><trkpt lat="44.586629711730986" lon="10.585769307444393"><ele>385.0</ele><time>2026-04-06T15:05:01Z</time></trkpt><trkpt lat="44.586750445602554" lon="10.585689028572958"><ele>385.0</ele><time>2026-04-06T15:05:02Z</time></trkpt><trkpt lat="44.58687012672553" lon="10.585630326498043"><ele>385.0</ele><time>2026-04-06T15:05:03Z</time></trkpt><trkpt lat="44.586987898067854" lon="10.585588677798999"><ele>385.0</ele><time>2026-04-06T15:05:04Z</time></trkpt><trkpt lat="44.58710924706886" lon="10.585606395312716"><ele>385.0</ele><time>2026-04-06T15:05:05Z</time></trkpt><trkpt lat="44.58722127399028" lon="10.585656081740977"><ele>385.0</ele><time>2026-04-06T15:05:06Z</time></trkpt><trkpt lat="44.587346536545624" lon="10.585678428206057"><ele>384.25</ele><time>2026-04-06T15:05:07Z</time></trkpt><trkpt lat="44.58747098544075" lon="10.585698479065687"><ele>383.5</ele><time>2026-04-06T15:05:08Z</time></trkpt><trkpt lat="44.587598312218304" lon="10.585713811588892"><ele>382.75</ele><time>2026-04-06T15:05:09Z</time></trkpt><trkpt lat="44.587730014076044" lon="10.585672954955879"><ele>382.0</ele><time>2026-04-06T15:05:10Z</time></trkpt><trkpt lat="44.58785619370949" lon="10.585603721502103"><ele>381.0</ele><time>2026-04-06T15:05:11Z</time></trkpt><trkpt lat="44.58797349660247" lon="10.585509895775646"><ele>380.0</ele><time>2026-04-06T15:05:12Z</time></trkpt><trkpt lat="44.588096747945315" lon="10.58540545487078"><ele>379.0</ele><time>2026-04-06T15:05:13Z</time></trkpt><trkpt lat="44.58820406772444" lon="10.585276436545898"><ele>378.0</ele><time>2026-04-06T15:05:14Z</time></trkpt><trkpt lat="44.5882981764319" lon="10.58514565531533"><ele>377.25</ele><time>2026-04-06T15:05:15Z</time></trkpt><trkpt lat="44.58838143914238" lon="10.585000993629084"><ele>376.5</ele><time>2026-04-06T15:05:16Z</time></trkpt><trkpt lat="44.588451164259425" lon="10.584849347555467"><ele>375.75</ele><time>2026-04-06T15:05:17Z</time></trkpt><trkpt lat="44.588523471512126" lon="10.584699888307124"><ele>375.0</ele><time>2026-04-06T15:05:18Z</time></trkpt><trkpt lat="44.58860411554232" lon="10.58456247561929"><ele>373.75</ele><time>2026-04-06T15:05:19Z</time></trkpt><trkpt lat="44.58869237056245" lon="10.584448611458463"><ele>372.5</ele><time>2026-04-06T15:05:20Z</time></trkpt><trkpt lat="44.588810146280544" lon="10.584380775441884"><ele>371.25</ele><time>2026-04-06T15:05:21Z</time></trkpt><trkpt lat="44.58892972355381" lon="10.584322756052954"><ele>370.0</ele><time>2026-04-06T15:05:22Z</time></trkpt><trkpt lat="44.5890333431163" lon="10.584239154165727"><ele>370.0</ele><time>2026-04-06T15:05:23Z</time></trkpt><trkpt lat="44.58910943928167" lon="10.58411727972041"><ele>370.0</ele><time>2026-04-06T15:05:24Z</time></trkpt><trkpt lat="44.58916692350089" lon="10.583989969276399"><ele>370.0</ele><time>2026-04-06T15:05:25Z</time></trkpt><trkpt lat="44.5892222126255" lon="10.58388018634913"><ele>370.0</ele><time>2026-04-06T15:05:26Z</time></trkpt><trkpt lat="44.589291764107784" lon="10.583813277762824"><ele>370.0</ele><time>2026-04-06T15:05:27Z</time></trkpt><trkpt lat="44.58938825570229" lon="10.58379884879159"><ele>370.0</ele><time>2026-04-06T15:05:28Z</time></trkpt><trkpt lat="44.58947715769145" lon="10.583882303669316"><ele>370.0</ele><time>2026-04-06T15:05:29Z</time></trkpt><trkpt lat="44.589550564954685" lon="10.584000780062896"><ele>370.0</ele><time>2026-04-06T15:05:30Z</time></trkpt><trkpt lat="44.589666334399965" lon="10.584092581564045"><ele>370.0</ele><time>2026-04-06T15:05:31Z</time></trkpt><trkpt lat="44.58977558458126" lon="10.584228759462114"><ele>368.75</ele><time>2026-04-06T15:05:32Z</time></trkpt><trkpt lat="44.58990307455021" lon="10.584326916303601"><ele>367.5</ele><time>2026-04-06T15:05:33Z</time></trkpt><trkpt lat="44.59000276973593" lon="10.584433661876112"><ele>366.25</ele><time>2026-04-06T15:05:34Z</time></trkpt><trkpt lat="44.5901211771748" lon="10.584514790573749"><ele>365.0</ele><time>2026-04-06T15:05:35Z</time></trkpt><trkpt lat="44.590224886409295" lon="10.584593827579962"><ele>364.75</ele><time>2026-04-06T15:05:36Z</time></trkpt><trkpt lat="44.590340842286444" lon="10.584673558607617"><ele>364.5</ele><time>2026-04-06T15:05:37Z</time></trkpt><trkpt lat="44.59043592515766" lon="10.584765899323651"><ele>364.25</ele><time>2026-04-06T15:05:38Z</time></trkpt><trkpt lat="44.590540678062915" lon="10.584838766485658"><ele>364.0</ele><time>2026-04-06T15:05:39Z</time></trkpt><trkpt lat="44.59063383047382" lon="10.584901880774586"><ele>362.5</ele><time>2026-04-06T15:05:40Z</time></trkpt><trkpt lat="44.59070342166775" lon="10.584959131777765"><ele>361.0</ele><time>2026-04-06T15:05:41Z</time></trkpt><trkpt lat="44.59075253502833" lon="10.585020801713043"><ele>359.5</ele><time>2026-04-06T15:05:42Z</time></trkpt><trkpt lat="44.59078471413118" lon="10.585172138780749"><ele>358.0</ele><time>2026-04-06T15:05:44Z</time></trkpt><trkpt lat="44.59072850020717" lon="10.585243255674063"><ele>356.5</ele><time>2026-04-06T15:05:45Z</time></trkpt><trkpt lat="44.59067089693132" lon="10.585287958124075"><ele>355.0</ele><time>2026-04-06T15:05:46Z</time></trkpt><trkpt lat="44.59057860729756" lon="10.58525892421045"><ele>355.0</ele><time>2026-04-06T15:05:47Z</time></trkpt><trkpt lat="44.59048941321989" lon="10.585215668110928"><ele>355.0</ele><time>2026-04-06T15:05:48Z</time></trkpt><trkpt lat="44.59041136658921" lon="10.585195331654452"><ele>355.0</ele><time>2026-04-06T15:05:49Z</time></trkpt><trkpt lat="44.59034645757943" lon="10.585190787905235"><ele>355.0</ele><time>2026-04-06T15:05:50Z</time></trkpt><trkpt lat="44.59026640313358" lon="10.585318260095036"><ele>355.0</ele><time>2026-04-06T15:05:52Z</time></trkpt><trkpt lat="44.59027095281596" lon="10.585443356066678"><ele>355.0</ele><time>2026-04-06T15:05:53Z</time></trkpt><trkpt lat="44.59034627922102" lon="10.585529139180927"><ele>352.5</ele><time>2026-04-06T15:05:54Z</time></trkpt><trkpt lat="44.59048225452101" lon="10.585523742264215"><ele>350.0</ele><time>2026-04-06T15:05:55Z</time></trkpt><trkpt lat="44.5905974141816" lon="10.585536329916852"><ele>347.5</ele><time>2026-04-06T15:05:56Z</time></trkpt><trkpt lat="44.590712514974385" lon="10.58553896153778"><ele>345.0</ele><time>2026-04-06T15:05:57Z</time></trkpt><trkpt lat="44.59083152581524" lon="10.585552664894493"><ele>345.0</ele><time>2026-04-06T15:05:58Z</time></trkpt><trkpt lat="44.59095831560827" lon="10.58554441646405"><ele>345.0</ele><time>2026-04-06T15:05:59Z</time></trkpt><trkpt lat="44.591094156313034" lon="10.58555319244438"><ele>345.0</ele><time>2026-04-06T15:06:00Z</time></trkpt><trkpt lat="44.59122730114459" lon="10.585547295303495"><ele>345.0</ele><time>2026-04-06T15:06:01Z</time></trkpt><trkpt lat="44.591355553726586" lon="10.585535179776741"><ele>343.5</ele><time>2026-04-06T15:06:02Z</time></trkpt><trkpt lat="44.59149147849581" lon="10.585555431296982"><ele>342.0</ele><time>2026-04-06T15:06:03Z</time></trkpt><trkpt lat="44.591600807526994" lon="10.585586593768747"><ele>340.5</ele><time>2026-04-06T15:06:04Z</time></trkpt><trkpt lat="44.591726716271616" lon="10.585644655063348"><ele>339.0</ele><time>2026-04-06T15:06:05Z</time></trkpt><trkpt lat="44.591852890520485" lon="10.5857299921398"><ele>339.0</ele><time>2026-04-06T15:06:06Z</time></trkpt><trkpt lat="44.591969620265154" lon="10.585821057168545"><ele>339.0</ele><time>2026-04-06T15:06:07Z</time></trkpt><trkpt lat="44.59208159409824" lon="10.585924030749123"><ele>339.0</ele><time>2026-04-06T15:06:08Z</time></trkpt><trkpt lat="44.59219524868055" lon="10.586026804755278"><ele>339.0</ele><time>2026-04-06T15:06:09Z</time></trkpt><trkpt lat="44.592298902817035" lon="10.58612383992435"><ele>336.25</ele><time>2026-04-06T15:06:10Z</time></trkpt><trkpt lat="44.592403201918934" lon="10.586221737858606"><ele>333.5</ele><time>2026-04-06T15:06:11Z</time></trkpt><trkpt lat="44.59250753066018" lon="10.58631561777659"><ele>330.75</ele><time>2026-04-06T15:06:12Z</time></trkpt><trkpt lat="44.59260661884302" lon="10.586403002648371"><ele>328.0</ele><time>2026-04-06T15:06:13Z</time></trkpt><trkpt lat="44.592699326846876" lon="10.586485931871835"><ele>328.0</ele><time>2026-04-06T15:06:14Z</time></trkpt><trkpt lat="44.592794721812474" lon="10.586572431998531"><ele>328.0</ele><time>2026-04-06T15:06:15Z</time></trkpt><trkpt lat="44.592874037862146" lon="10.586649983735512"><ele>328.0</ele><time>2026-04-06T15:06:16Z</time></trkpt><trkpt lat="44.59295410548001" lon="10.58674704260037"><ele>328.0</ele><time>2026-04-06T15:06:17Z</time></trkpt><trkpt lat="44.593002045450135" lon="10.586857901238387"><ele>328.0</ele><time>2026-04-06T15:06:18Z</time></trkpt><trkpt lat="44.593018089675624" lon="10.586990391459269"><ele>325.2</ele><time>2026-04-06T15:06:19Z</time></trkpt><trkpt lat="44.593020164462175" lon="10.587140457789216"><ele>322.4</ele><time>2026-04-06T15:06:20Z</time></trkpt><trkpt lat="44.593020033823706" lon="10.587288529421324"><ele>319.59999999999997</ele><time>2026-04-06T15:06:21Z</time></trkpt><trkpt lat="44.59305780008589" lon="10.587431701385539"><ele>316.79999999999995</ele><time>2026-04-06T15:06:22Z</time></trkpt><trkpt lat="44.59309191354387" lon="10.58756771302659"><ele>314.0</ele><time>2026-04-06T15:06:23Z</time></trkpt><trkpt lat="44.593175170806" lon="10.587673313139408"><ele>314.0</ele><time>2026-04-06T15:06:24Z</time></trkpt><trkpt lat="44.59328744304725" lon="10.587702679135793"><ele>314.0</ele><time>2026-04-06T15:06:25Z</time></trkpt><trkpt lat="44.59340780271277" lon="10.587707338865737"><ele>314.0</ele><time>2026-04-06T15:06:26Z</time></trkpt><trkpt lat="44.593535228855536" lon="10.587677753148961"><ele>314.0</ele><time>2026-04-06T15:06:27Z</time></trkpt><trkpt lat="44.59365219951353" lon="10.587621262869751"><ele>312.6666666666667</ele><time>2026-04-06T15:06:28Z</time></trkpt><trkpt lat="44.59375699547961" lon="10.587570435130582"><ele>311.33333333333337</ele><time>2026-04-06T15:06:29Z</time></trkpt><trkpt lat="44.593856069237134" lon="10.587537700213325"><ele>310.0</ele><time>2026-04-06T15:06:30Z</time></trkpt><trkpt lat="44.59393081317007" lon="10.587537630189937"><ele>308.6666666666667</ele><time>2026-04-06T15:06:31Z</time></trkpt><trkpt lat="44.59399164366096" lon="10.587589105828178"><ele>307.3333333333333</ele><time>2026-04-06T15:06:32Z</time></trkpt><trkpt lat="44.5940202710816" lon="10.587676809753281"><ele>306.0</ele><time>2026-04-06T15:06:33Z</time></trkpt><trkpt lat="44.59402568582994" lon="10.587792647373384"><ele>305.8</ele><time>2026-04-06T15:06:34Z</time></trkpt><trkpt lat="44.593974544786924" lon="10.587895464687396"><ele>305.6</ele><time>2026-04-06T15:06:35Z</time></trkpt><trkpt lat="44.593894677158914" lon="10.587947045689688"><ele>305.4</ele><time>2026-04-06T15:06:36Z</time></trkpt><trkpt lat="44.59380405082808" lon="10.58792475654926"><ele>305.2</ele><time>2026-04-06T15:06:37Z</time></trkpt><trkpt lat="44.59369278293323" lon="10.587926056076672"><ele>305.0</ele><time>2026-04-06T15:06:38Z</time></trkpt><trkpt lat="44.59360004663942" lon="10.587922572731625"><ele>305.0</ele><time>2026-04-06T15:06:39Z</time></trkpt><trkpt lat="44.59351440311803" lon="10.587939902775927"><ele>305.0</ele><time>2026-04-06T15:06:40Z</time></trkpt><trkpt lat="44.59344960864349" lon="10.588069721011907"><ele>305.0</ele><time>2026-04-06T15:06:42Z</time></trkpt><trkpt lat="44.59346344592471" lon="10.588164903751814"><ele>305.0</ele><time>2026-04-06T15:06:43Z</time></trkpt><trkpt lat="44.593571150507984" lon="10.58825375563532"><ele>305.0</ele><time>2026-04-06T15:06:44Z</time></trkpt><trkpt lat="44.593718254506875" lon="10.58822274463855"><ele>304.5</ele><time>2026-04-06T15:06:45Z</time></trkpt><trkpt lat="44.59383830953486" lon="10.588219428735925"><ele>304.0</ele><time>2026-04-06T15:06:46Z</time></trkpt><trkpt lat="44.593959907221524" lon="10.588225157215758"><ele>303.5</ele><time>2026-04-06T15:06:47Z</time></trkpt><trkpt lat="44.59408259539121" lon="10.588252653213013"><ele>303.0</ele><time>2026-04-06T15:06:48Z</time></trkpt><trkpt lat="44.59420417649398" lon="10.5882756233203"><ele>303.0</ele><time>2026-04-06T15:06:49Z</time></trkpt><trkpt lat="44.59432663762633" lon="10.588308326860995"><ele>303.0</ele><time>2026-04-06T15:06:50Z</time></trkpt><trkpt lat="44.59443054043276" lon="10.58837176947926"><ele>303.0</ele><time>2026-04-06T15:06:51Z</time></trkpt><trkpt lat="44.59453056798511" lon="10.588432867140495"><ele>303.0</ele><time>2026-04-06T15:06:52Z</time></trkpt><trkpt lat="44.59462962059646" lon="10.588446840703972"><ele>303.0</ele><time>2026-04-06T15:06:53Z</time></trkpt><trkpt lat="44.59472233544779" lon="10.58839289605116"><ele>300.0</ele><time>2026-04-06T15:06:54Z</time></trkpt><trkpt lat="44.594809779680034" lon="10.588285572304551"><ele>297.0</ele><time>2026-04-06T15:06:55Z</time></trkpt><trkpt lat="44.59490491875087" lon="10.588164357923008"><ele>294.0</ele><time>2026-04-06T15:06:56Z</time></trkpt><trkpt lat="44.59500039100319" lon="10.588051480490115"><ele>291.0</ele><time>2026-04-06T15:06:57Z</time></trkpt><trkpt lat="44.59509654546942" lon="10.587949752670175"><ele>291.0</ele><time>2026-04-06T15:06:58Z</time></trkpt><trkpt lat="44.59518599334311" lon="10.587849002511295"><ele>291.0</ele><time>2026-04-06T15:06:59Z</time></trkpt><trkpt lat="44.59528007719435" lon="10.587716642651232"><ele>291.0</ele><time>2026-04-06T15:07:00Z</time></trkpt><trkpt lat="44.59531111746698" lon="10.58757827564052"><ele>291.0</ele><time>2026-04-06T15:07:01Z</time></trkpt><trkpt lat="44.59535106320901" lon="10.587451423662763"><ele>288.6666666666667</ele><time>2026-04-06T15:07:02Z</time></trkpt><trkpt lat="44.59541309579523" lon="10.587369590951791"><ele>286.3333333333333</ele><time>2026-04-06T15:07:03Z</time></trkpt><trkpt lat="44.5954877851668" lon="10.58732944357866"><ele>284.0</ele><time>2026-04-06T15:07:04Z</time></trkpt><trkpt lat="44.59557544316595" lon="10.587334444232557"><ele>281.66666666666663</ele><time>2026-04-06T15:07:05Z</time></trkpt><trkpt lat="44.59565131157844" lon="10.587434384432893"><ele>279.3333333333333</ele><time>2026-04-06T15:07:06Z</time></trkpt><trkpt lat="44.595684420880666" lon="10.587531041578558"><ele>277.0</ele><time>2026-04-06T15:07:07Z</time></trkpt><trkpt lat="44.59568733436637" lon="10.587640835320869"><ele>277.0</ele><time>2026-04-06T15:07:08Z</time></trkpt><trkpt lat="44.59565285171515" lon="10.587770577337372"><ele>277.0</ele><time>2026-04-06T15:07:09Z</time></trkpt><trkpt lat="44.59557916659206" lon="10.587857111577128"><ele>277.0</ele><time>2026-04-06T15:07:10Z</time></trkpt><trkpt lat="44.595502910924274" lon="10.588004804571614"><ele>277.0</ele><time>2026-04-06T15:07:11Z</time></trkpt><trkpt lat="44.59542072606601" lon="10.588142256392786"><ele>275.25</ele><time>2026-04-06T15:07:12Z</time></trkpt><trkpt lat="44.59536316274587" lon="10.58829932387007"><ele>273.5</ele><time>2026-04-06T15:07:13Z</time></trkpt><trkpt lat="44.59533643282459" lon="10.588465141251476"><ele>271.75</ele><time>2026-04-06T15:07:14Z</time></trkpt><trkpt lat="44.59537711166556" lon="10.58863443644555"><ele>270.0</ele><time>2026-04-06T15:07:15Z</time></trkpt><trkpt lat="44.59541873442309" lon="10.588809871183404"><ele>269.25</ele><time>2026-04-06T15:07:16Z</time></trkpt><trkpt lat="44.595491057943846" lon="10.588977639981342"><ele>268.5</ele><time>2026-04-06T15:07:17Z</time></trkpt><trkpt lat="44.59556406045877" lon="10.589134492822506"><ele>267.75</ele><time>2026-04-06T15:07:18Z</time></trkpt><trkpt lat="44.595629233828014" lon="10.589273968858752"><ele>267.0</ele><time>2026-04-06T15:07:19Z</time></trkpt><trkpt lat="44.59569545307886" lon="10.589415886144938"><ele>267.0</ele><time>2026-04-06T15:07:20Z</time></trkpt><trkpt lat="44.595760315848786" lon="10.589558639713122"><ele>267.0</ele><time>2026-04-06T15:07:21Z</time></trkpt><trkpt lat="44.59582199581464" lon="10.589694388540742"><ele>267.0</ele><time>2026-04-06T15:07:22Z</time></trkpt><trkpt lat="44.59589783835765" lon="10.589820609960707"><ele>267.0</ele><time>2026-04-06T15:07:23Z</time></trkpt><trkpt lat="44.59595729986993" lon="10.589972743284807"><ele>267.0</ele><time>2026-04-06T15:07:24Z</time></trkpt><trkpt lat="44.5960298175957" lon="10.590100947012116"><ele>267.0</ele><time>2026-04-06T15:07:25Z</time></trkpt><trkpt lat="44.59611422360379" lon="10.590225292580714"><ele>267.0</ele><time>2026-04-06T15:07:26Z</time></trkpt><trkpt lat="44.596204052862426" lon="10.590339121317399"><ele>267.0</ele><time>2026-04-06T15:07:27Z</time></trkpt><trkpt lat="44.59630932188797" lon="10.590444283793953"><ele>267.5</ele><time>2026-04-06T15:07:28Z</time></trkpt><trkpt lat="44.59642334673758" lon="10.590505621691394"><ele>268.0</ele><time>2026-04-06T15:07:29Z</time></trkpt><trkpt lat="44.596523806191065" lon="10.590589337781182"><ele>268.5</ele><time>2026-04-06T15:07:30Z</time></trkpt><trkpt lat="44.596619287486774" lon="10.590641983328108"><ele>269.0</ele><time>2026-04-06T15:07:31Z</time></trkpt><trkpt lat="44.59673401172458" lon="10.590690646107644"><ele>269.0</ele><time>2026-04-06T15:07:32Z</time></trkpt><trkpt lat="44.596841885964615" lon="10.59075277900396"><ele>269.0</ele><time>2026-04-06T15:07:33Z</time></trkpt><trkpt lat="44.59693703237497" lon="10.590815580753569"><ele>269.0</ele><time>2026-04-06T15:07:34Z</time></trkpt><trkpt lat="44.59702516246679" lon="10.590861192213913"><ele>269.0</ele><time>2026-04-06T15:07:35Z</time></trkpt><trkpt lat="44.59712603097462" lon="10.590925503928432"><ele>269.0</ele><time>2026-04-06T15:07:36Z</time></trkpt><trkpt lat="44.597227792728674" lon="10.59098063311666"><ele>269.0</ele><time>2026-04-06T15:07:37Z</time></trkpt><trkpt lat="44.59731780018949" lon="10.59103295301841"><ele>269.0</ele><time>2026-04-06T15:07:38Z</time></trkpt><trkpt lat="44.59741209378585" lon="10.591106085827516"><ele>269.0</ele><time>2026-04-06T15:07:39Z</time></trkpt><trkpt lat="44.59751269302337" lon="10.591163615303671"><ele>269.0</ele><time>2026-04-06T15:07:40Z</time></trkpt><trkpt lat="44.59760311973468" lon="10.591214396807834"><ele>269.0</ele><time>2026-04-06T15:07:41Z</time></trkpt><trkpt lat="44.597710768146335" lon="10.591263140937365"><ele>269.0</ele><time>2026-04-06T15:07:42Z</time></trkpt><trkpt lat="44.59780011355971" lon="10.591311897682298"><ele>269.0</ele><time>2026-04-06T15:07:43Z</time></trkpt><trkpt lat="44.5978812012062" lon="10.591359228710573"><ele>269.0</ele><time>2026-04-06T15:07:44Z</time></trkpt><trkpt lat="44.59797018680171" lon="10.591412056765911"><ele>269.0</ele><time>2026-04-06T15:07:45Z</time></trkpt><trkpt lat="44.598052014432135" lon="10.591446499168956"><ele>269.0</ele><time>2026-04-06T15:07:46Z</time></trkpt><trkpt lat="44.59813676273924" lon="10.591465767219903"><ele>270.8</ele><time>2026-04-06T15:07:47Z</time></trkpt><trkpt lat="44.59822857686804" lon="10.591485652516825"><ele>272.59999999999997</ele><time>2026-04-06T15:07:48Z</time></trkpt><trkpt lat="44.59832417890871" lon="10.591495468447059"><ele>274.4</ele><time>2026-04-06T15:07:49Z</time></trkpt><trkpt lat="44.59841911937783" lon="10.59149231123872"><ele>276.2</ele><time>2026-04-06T15:07:50Z</time></trkpt><trkpt lat="44.59852009496031" lon="10.591500454182556"><ele>278.0</ele><time>2026-04-06T15:07:51Z</time></trkpt><trkpt lat="44.598620869059694" lon="10.59149535246895"><ele>278.8</ele><time>2026-04-06T15:07:52Z</time></trkpt><trkpt lat="44.59872416209218" lon="10.591501750938779"><ele>279.6</ele><time>2026-04-06T15:07:53Z</time></trkpt><trkpt lat="44.59883359058692" lon="10.591519871083877"><ele>280.4</ele><time>2026-04-06T15:07:54Z</time></trkpt><trkpt lat="44.5989459033878" lon="10.591545677213773"><ele>281.2</ele><time>2026-04-06T15:07:55Z</time></trkpt><trkpt lat="44.59905117655473" lon="10.591578313212548"><ele>282.0</ele><time>2026-04-06T15:07:56Z</time></trkpt><trkpt lat="44.59915997154132" lon="10.591599231705661"><ele>282.0</ele><time>2026-04-06T15:07:57Z</time></trkpt><trkpt lat="44.59928027245842" lon="10.591624308313492"><ele>282.0</ele><time>2026-04-06T15:07:58Z</time></trkpt><trkpt lat="44.59938788379221" lon="10.591635064316245"><ele>282.0</ele><time>2026-04-06T15:07:59Z</time></trkpt><trkpt lat="44.59949733888242" lon="10.591664766249231"><ele>282.0</ele><time>2026-04-06T15:08:00Z</time></trkpt><trkpt lat="44.59962038261935" lon="10.591657212135107"><ele>281.8</ele><time>2026-04-06T15:08:01Z</time></trkpt><trkpt lat="44.599727736118524" lon="10.591670014150765"><ele>281.6</ele><time>2026-04-06T15:08:02Z</time></trkpt><trkpt lat="44.59983409477557" lon="10.591680046422262"><ele>281.40000000000003</ele><time>2026-04-06T15:08:03Z</time></trkpt><trkpt lat="44.59992992153408" lon="10.591691747342848"><ele>281.2</ele><time>2026-04-06T15:08:04Z</time></trkpt><trkpt lat="44.600031950941606" lon="10.591694655407577"><ele>281.0</ele><time>2026-04-06T15:08:05Z</time></trkpt><trkpt lat="44.60014523633436" lon="10.591701537920262"><ele>281.0</ele><time>2026-04-06T15:08:06Z</time></trkpt><trkpt lat="44.600256506839884" lon="10.591697624686494"><ele>281.0</ele><time>2026-04-06T15:08:07Z</time></trkpt><trkpt lat="44.60037439253101" lon="10.591700644375235"><ele>281.0</ele><time>2026-04-06T15:08:08Z</time></trkpt><trkpt lat="44.60047596045372" lon="10.591706999987915"><ele>281.0</ele><time>2026-04-06T15:08:09Z</time></trkpt><trkpt lat="44.60057428464783" lon="10.591708332194106"><ele>281.0</ele><time>2026-04-06T15:08:10Z</time></trkpt><trkpt lat="44.6006509620977" lon="10.591735579691308"><ele>281.8</ele><time>2026-04-06T15:08:11Z</time></trkpt><trkpt lat="44.600744773605015" lon="10.59175479028134"><ele>282.6</ele><time>2026-04-06T15:08:12Z</time></trkpt><trkpt lat="44.600818696327806" lon="10.591760802949223"><ele>283.4</ele><time>2026-04-06T15:08:13Z</time></trkpt><trkpt lat="44.6008971545692" lon="10.591919642271783"><ele>284.2</ele><time>2026-04-06T15:08:15Z</time></trkpt><trkpt lat="44.60092525428788" lon="10.59203002096168"><ele>285.0</ele><time>2026-04-06T15:08:16Z</time></trkpt><trkpt lat="44.60093974508157" lon="10.592164278106269"><ele>285.0</ele><time>2026-04-06T15:08:17Z</time></trkpt><trkpt lat="44.60090729713447" lon="10.592303991290752"><ele>285.0</ele><time>2026-04-06T15:08:18Z</time></trkpt><trkpt lat="44.600869798964794" lon="10.592448011656485"><ele>285.0</ele><time>2026-04-06T15:08:19Z</time></trkpt><trkpt lat="44.60085025357044" lon="10.592555110514033"><ele>285.0</ele><time>2026-04-06T15:08:20Z</time></trkpt><trkpt lat="44.60084798691333" lon="10.592683041179589"><ele>285.0</ele><time>2026-04-06T15:08:21Z</time></trkpt><trkpt lat="44.60084877225093" lon="10.592820420516766"><ele>285.6</ele><time>2026-04-06T15:08:22Z</time></trkpt><trkpt lat="44.600883195499286" lon="10.59294618418125"><ele>286.2</ele><time>2026-04-06T15:08:23Z</time></trkpt><trkpt lat="44.600917196517514" lon="10.593049230854039"><ele>286.8</ele><time>2026-04-06T15:08:24Z</time></trkpt><trkpt lat="44.60095997595924" lon="10.5931734661898"><ele>287.4</ele><time>2026-04-06T15:08:25Z</time></trkpt><trkpt lat="44.601008550418335" lon="10.59329007681521"><ele>288.0</ele><time>2026-04-06T15:08:26Z</time></trkpt><trkpt lat="44.60106214006425" lon="10.593393128251737"><ele>288.0</ele><time>2026-04-06T15:08:27Z</time></trkpt><trkpt lat="44.6011234213587" lon="10.593489412993184"><ele>288.0</ele><time>2026-04-06T15:08:28Z</time></trkpt><trkpt lat="44.60120253612026" lon="10.593573662668327"><ele>288.0</ele><time>2026-04-06T15:08:29Z</time></trkpt><trkpt lat="44.60130075411902" lon="10.593645463103567"><ele>288.0</ele><time>2026-04-06T15:08:30Z</time></trkpt><trkpt lat="44.601387093334104" lon="10.593710661640664"><ele>288.0</ele><time>2026-04-06T15:08:31Z</time></trkpt><trkpt lat="44.60146793759162" lon="10.593795967201908"><ele>285.0</ele><time>2026-04-06T15:08:32Z</time></trkpt><trkpt lat="44.60154340746887" lon="10.593889905082865"><ele>282.0</ele><time>2026-04-06T15:08:33Z</time></trkpt><trkpt lat="44.601624261338436" lon="10.593982892110494"><ele>279.0</ele><time>2026-04-06T15:08:34Z</time></trkpt><trkpt lat="44.60170038626503" lon="10.594064278039177"><ele>276.0</ele><time>2026-04-06T15:08:35Z</time></trkpt><trkpt lat="44.60178131521139" lon="10.594138530523532"><ele>273.0</ele><time>2026-04-06T15:08:36Z</time></trkpt><trkpt lat="44.60187666158422" lon="10.594206939474011"><ele>273.0</ele><time>2026-04-06T15:08:37Z</time></trkpt><trkpt lat="44.60197273702662" lon="10.594259546437604"><ele>273.0</ele><time>2026-04-06T15:08:38Z</time></trkpt><trkpt lat="44.602077241329035" lon="10.59429715294684"><ele>273.0</ele><time>2026-04-06T15:08:39Z</time></trkpt><trkpt lat="44.60216489361295" lon="10.594325103414443"><ele>273.0</ele><time>2026-04-06T15:08:40Z</time></trkpt><trkpt lat="44.602253376519954" lon="10.59435424371236"><ele>273.0</ele><time>2026-04-06T15:08:41Z</time></trkpt><trkpt lat="44.602329994083064" lon="10.594383284360864"><ele>271.8333333333333</ele><time>2026-04-06T15:08:42Z</time></trkpt><trkpt lat="44.60240443783945" lon="10.594416687183738"><ele>270.6666666666667</ele><time>2026-04-06T15:08:43Z</time></trkpt><trkpt lat="44.602478349797785" lon="10.594455145854061"><ele>269.5</ele><time>2026-04-06T15:08:44Z</time></trkpt><trkpt lat="44.602561564154314" lon="10.594478685384034"><ele>268.33333333333337</ele><time>2026-04-06T15:08:45Z</time></trkpt><trkpt lat="44.60263144886387" lon="10.594545208501277"><ele>267.1666666666667</ele><time>2026-04-06T15:08:46Z</time></trkpt><trkpt lat="44.602704331548416" lon="10.59459819055987"><ele>266.0</ele><time>2026-04-06T15:08:47Z</time></trkpt><trkpt lat="44.60277078549965" lon="10.594663286723115"><ele>264.0</ele><time>2026-04-06T15:08:48Z</time></trkpt><trkpt lat="44.60284065359379" lon="10.594748690435228"><ele>262.0</ele><time>2026-04-06T15:08:49Z</time></trkpt><trkpt lat="44.602907711371955" lon="10.594835249716272"><ele>260.0</ele><time>2026-04-06T15:08:50Z</time></trkpt><trkpt lat="44.60297222513894" lon="10.59492339241351"><ele>258.0</ele><time>2026-04-06T15:08:51Z</time></trkpt><trkpt lat="44.60305627563901" lon="10.594995440603096"><ele>256.0</ele><time>2026-04-06T15:08:52Z</time></trkpt><trkpt lat="44.60313613347113" lon="10.595078696705572"><ele>256.0</ele><time>2026-04-06T15:08:53Z</time></trkpt><trkpt lat="44.60322484972218" lon="10.595142661094892"><ele>256.0</ele><time>2026-04-06T15:08:54Z</time></trkpt><trkpt lat="44.60332654314232" lon="10.595205714064068"><ele>256.0</ele><time>2026-04-06T15:08:55Z</time></trkpt><trkpt lat="44.60343353524829" lon="10.595261057736412"><ele>256.0</ele><time>2026-04-06T15:08:56Z</time></trkpt><trkpt lat="44.60354045213567" lon="10.59531532553606"><ele>256.0</ele><time>2026-04-06T15:08:57Z</time></trkpt><trkpt lat="44.60364838152015" lon="10.595368404963054"><ele>255.5</ele><time>2026-04-06T15:08:58Z</time></trkpt><trkpt lat="44.60377135209892" lon="10.59543394157204"><ele>255.0</ele><time>2026-04-06T15:08:59Z</time></trkpt><trkpt lat="44.603891371127915" lon="10.59550057788537"><ele>254.5</ele><time>2026-04-06T15:09:00Z</time></trkpt><trkpt lat="44.604020421777555" lon="10.595557351629726"><ele>254.0</ele><time>2026-04-06T15:09:01Z</time></trkpt><trkpt lat="44.60414576573087" lon="10.595624951077165"><ele>254.0</ele><time>2026-04-06T15:09:02Z</time></trkpt><trkpt lat="44.6042730876335" lon="10.59570135785691"><ele>253.99999999999997</ele><time>2026-04-06T15:09:03Z</time></trkpt><trkpt lat="44.604387979423336" lon="10.595763175209788"><ele>253.99999999999997</ele><time>2026-04-06T15:09:04Z</time></trkpt><trkpt lat="44.604480227083876" lon="10.595807285382449"><ele>254.0</ele><time>2026-04-06T15:09:05Z</time></trkpt><trkpt lat="44.604556101319154" lon="10.59587017148962"><ele>254.0</ele><time>2026-04-06T15:09:06Z</time></trkpt><trkpt lat="44.60462964739179" lon="10.595888404626157"><ele>252.0</ele><time>2026-04-06T15:09:07Z</time></trkpt><trkpt lat="44.604742147624314" lon="10.595960779456338"><ele>250.0</ele><time>2026-04-06T15:09:08Z</time></trkpt><trkpt lat="44.60488812554206" lon="10.596024558469146"><ele>248.0</ele><time>2026-04-06T15:09:09Z</time></trkpt><trkpt lat="44.6050562357407" lon="10.596091066010194"><ele>245.5</ele><time>2026-04-06T15:09:10Z</time></trkpt><trkpt lat="44.605263444933684" lon="10.59617014758042"><ele>243.0</ele><time>2026-04-06T15:09:11Z</time></trkpt><trkpt lat="44.60549427320808" lon="10.596263240111693"><ele>243.0</ele><time>2026-04-06T15:09:12Z</time></trkpt><trkpt lat="44.60576081348179" lon="10.596372610797864"><ele>243.0</ele><time>2026-04-06T15:09:13Z</time></trkpt><trkpt lat="44.60600788380895" lon="10.596476813903777"><ele>242.0</ele><time>2026-04-06T15:09:14Z</time></trkpt><trkpt lat="44.60622811221903" lon="10.596566696125317"><ele>241.0</ele><time>2026-04-06T15:09:15Z</time></trkpt><trkpt lat="44.60642338370848" lon="10.596644310205283"><ele>240.0</ele><time>2026-04-06T15:09:16Z</time></trkpt><trkpt lat="44.60660621705596" lon="10.596697501241792"><ele>240.0</ele><time>2026-04-06T15:09:17Z</time></trkpt><trkpt lat="44.60679611393504" lon="10.596714083576101"><ele>240.0</ele><time>2026-04-06T15:09:18Z</time></trkpt><trkpt lat="44.60698899966764" lon="10.596722956265749"><ele>240.0</ele><time>2026-04-06T15:09:19Z</time></trkpt><trkpt lat="44.60718349507789" lon="10.59671552616997"><ele>238.0</ele><time>2026-04-06T15:09:20Z</time></trkpt><trkpt lat="44.60736274962334" lon="10.596695895464112"><ele>236.0</ele><time>2026-04-06T15:09:21Z</time></trkpt><trkpt lat="44.607537636819664" lon="10.59668524185328"><ele>234.0</ele><time>2026-04-06T15:09:22Z</time></trkpt><trkpt lat="44.60770546653949" lon="10.596710608460215"><ele>230.0</ele><time>2026-04-06T15:09:23Z</time></trkpt><trkpt lat="44.607863359985814" lon="10.596771884046237"><ele>226.0</ele><time>2026-04-06T15:09:24Z</time></trkpt><trkpt lat="44.60802678663883" lon="10.59685274058041"><ele>222.0</ele><time>2026-04-06T15:09:25Z</time></trkpt><trkpt lat="44.60818827074737" lon="10.596949172881034"><ele>221.66666666666669</ele><time>2026-04-06T15:09:26Z</time></trkpt><trkpt lat="44.608362198266995" lon="10.597065298806701"><ele>221.33333333333334</ele><time>2026-04-06T15:09:27Z</time></trkpt><trkpt lat="44.608517735524195" lon="10.597178994271244"><ele>221.0</ele><time>2026-04-06T15:09:28Z</time></trkpt><trkpt lat="44.6086601107683" lon="10.59729965284836"><ele>221.0</ele><time>2026-04-06T15:09:29Z</time></trkpt><trkpt lat="44.60880275363734" lon="10.597453388222924"><ele>221.0</ele><time>2026-04-06T15:09:30Z</time></trkpt><trkpt lat="44.608943165952915" lon="10.59760664488298"><ele>221.0</ele><time>2026-04-06T15:09:31Z</time></trkpt><trkpt lat="44.60908812024487" lon="10.597728527217397"><ele>221.0</ele><time>2026-04-06T15:09:32Z</time></trkpt><trkpt lat="44.60922903651244" lon="10.597848693785133"><ele>221.0</ele><time>2026-04-06T15:09:33Z</time></trkpt><trkpt lat="44.609381165486994" lon="10.59795545502808"><ele>221.0</ele><time>2026-04-06T15:09:34Z</time></trkpt><trkpt lat="44.60953498608942" lon="10.598068236641808"><ele>219.33333333333334</ele><time>2026-04-06T15:09:35Z</time></trkpt><trkpt lat="44.609699614890765" lon="10.598159380671087"><ele>217.66666666666669</ele><time>2026-04-06T15:09:36Z</time></trkpt><trkpt lat="44.60986562753893" lon="10.598226471208005"><ele>216.0</ele><time>2026-04-06T15:09:37Z</time></trkpt><trkpt lat="44.61002880454498" lon="10.598339061929044"><ele>216.0</ele><time>2026-04-06T15:09:38Z</time></trkpt><trkpt lat="44.610192822596815" lon="10.598428944384462"><ele>216.0</ele><time>2026-04-06T15:09:39Z</time></trkpt><trkpt lat="44.61036468082274" lon="10.598523123372772"><ele>216.0</ele><time>2026-04-06T15:09:40Z</time></trkpt><trkpt lat="44.61053918897578" lon="10.598619245190498"><ele>215.33333333333331</ele><time>2026-04-06T15:09:41Z</time></trkpt><trkpt lat="44.6107155462153" lon="10.59871756672846"><ele>214.66666666666666</ele><time>2026-04-06T15:09:42Z</time></trkpt><trkpt lat="44.61089361568686" lon="10.598795348571755"><ele>214.0</ele><time>2026-04-06T15:09:43Z</time></trkpt><trkpt lat="44.61107387672991" lon="10.598921310986388"><ele>211.0</ele><time>2026-04-06T15:09:44Z</time></trkpt><trkpt lat="44.61124236279328" lon="10.599018414252093"><ele>208.0</ele><time>2026-04-06T15:09:45Z</time></trkpt><trkpt lat="44.611410855384676" lon="10.59911511553872"><ele>205.0</ele><time>2026-04-06T15:09:46Z</time></trkpt><trkpt lat="44.61158197929456" lon="10.599211908505781"><ele>205.0</ele><time>2026-04-06T15:09:47Z</time></trkpt><trkpt lat="44.61179427171849" lon="10.59933890727789"><ele>205.0</ele><time>2026-04-06T15:09:48Z</time></trkpt><trkpt lat="44.6119971610617" lon="10.599479401719439"><ele>204.66666666666666</ele><time>2026-04-06T15:09:49Z</time></trkpt><trkpt lat="44.61219403801615" lon="10.599595964739978"><ele>204.33333333333331</ele><time>2026-04-06T15:09:50Z</time></trkpt><trkpt lat="44.6123867338895" lon="10.59969084019296"><ele>204.0</ele><time>2026-04-06T15:09:51Z</time></trkpt><trkpt lat="44.61255166912134" lon="10.59978892390532"><ele>204.0</ele><time>2026-04-06T15:09:52Z</time></trkpt><trkpt lat="44.61272350774159" lon="10.599894066513045"><ele>204.0</ele><time>2026-04-06T15:09:53Z</time></trkpt><trkpt lat="44.612897191699275" lon="10.599991256221005"><ele>204.0</ele><time>2026-04-06T15:09:54Z</time></trkpt><trkpt lat="44.61306825423912" lon="10.600093393041869"><ele>203.33333333333331</ele><time>2026-04-06T15:09:55Z</time></trkpt><trkpt lat="44.613241420960755" lon="10.600191386020056"><ele>202.66666666666666</ele><time>2026-04-06T15:09:56Z</time></trkpt><trkpt lat="44.613412137255615" lon="10.600292970155891"><ele>202.0</ele><time>2026-04-06T15:09:57Z</time></trkpt><trkpt lat="44.613590168109845" lon="10.600343732879429"><ele>201.66666666666666</ele><time>2026-04-06T15:09:58Z</time></trkpt><trkpt lat="44.613762104935645" lon="10.600426510604647"><ele>201.33333333333331</ele><time>2026-04-06T15:09:59Z</time></trkpt><trkpt lat="44.61391705126436" lon="10.600533378901055"><ele>201.0</ele><time>2026-04-06T15:10:00Z</time></trkpt><trkpt lat="44.61408655544631" lon="10.600627727640749"><ele>201.0</ele><time>2026-04-06T15:10:01Z</time></trkpt><trkpt lat="44.614271866607396" lon="10.600716549358577"><ele>201.0</ele><time>2026-04-06T15:10:02Z</time></trkpt><trkpt lat="44.614452429603126" lon="10.60078621869826"><ele>201.0</ele><time>2026-04-06T15:10:02.999Z</time></trkpt><trkpt lat="44.61462485911532" lon="10.600843772011485"><ele>196.66666666666666</ele><time>2026-04-06T15:10:03.999Z</time></trkpt><trkpt lat="44.614787001085936" lon="10.600897997129467"><ele>192.33333333333331</ele><time>2026-04-06T15:10:04.999Z</time></trkpt><trkpt lat="44.61494743979476" lon="10.60095949175341"><ele>188.0</ele><time>2026-04-06T15:10:05.999Z</time></trkpt><trkpt lat="44.61510910494795" lon="10.601034522816013"><ele>188.0</ele><time>2026-04-06T15:10:06.999Z</time></trkpt><trkpt lat="44.61527051117493" lon="10.601126032299424"><ele>188.0</ele><time>2026-04-06T15:10:07.999Z</time></trkpt><trkpt lat="44.615442503205614" lon="10.601225567831138"><ele>188.0</ele><time>2026-04-06T15:10:08.999Z</time></trkpt><trkpt lat="44.61560537252036" lon="10.601296866771694"><ele>190.5</ele><time>2026-04-06T15:10:09.999Z</time></trkpt><trkpt lat="44.61574962673004" lon="10.601384400577912"><ele>193.0</ele><time>2026-04-06T15:10:10.999Z</time></trkpt><trkpt lat="44.61588084186326" lon="10.60143167692504"><ele>195.5</ele><time>2026-04-06T15:10:11.999Z</time></trkpt><trkpt lat="44.61600529937276" lon="10.601441699430897"><ele>198.0</ele><time>2026-04-06T15:10:12.999Z</time></trkpt><trkpt lat="44.61612511582097" lon="10.601427665248192"><ele>193.60000000000002</ele><time>2026-04-06T15:10:14Z</time></trkpt><trkpt lat="44.61624375680168" lon="10.601417858849546"><ele>189.20000000000002</ele><time>2026-04-06T15:10:15Z</time></trkpt><trkpt lat="44.61635209884722" lon="10.601426976128153"><ele>184.8</ele><time>2026-04-06T15:10:16Z</time></trkpt><trkpt lat="44.61642059887825" lon="10.601515780427686"><ele>180.4</ele><time>2026-04-06T15:10:17Z</time></trkpt><trkpt lat="44.616473066813356" lon="10.601616013194848"><ele>176.0</ele><time>2026-04-06T15:10:18Z</time></trkpt><trkpt lat="44.616506873803495" lon="10.601758286656809"><ele>176.0</ele><time>2026-04-06T15:10:19Z</time></trkpt><trkpt lat="44.61651769759556" lon="10.601921372690676"><ele>176.0</ele><time>2026-04-06T15:10:20Z</time></trkpt><trkpt lat="44.61656200148441" lon="10.602078222242326"><ele>176.0</ele><time>2026-04-06T15:10:21Z</time></trkpt><trkpt lat="44.616649025740536" lon="10.60218060352169"><ele>176.0</ele><time>2026-04-06T15:10:22Z</time></trkpt><trkpt lat="44.6167810252462" lon="10.602269060992322"><ele>175.0</ele><time>2026-04-06T15:10:23Z</time></trkpt><trkpt lat="44.61692309904073" lon="10.602300658093323"><ele>174.0</ele><time>2026-04-06T15:10:24Z</time></trkpt><trkpt lat="44.61706540292356" lon="10.602356672218045"><ele>173.0</ele><time>2026-04-06T15:10:25Z</time></trkpt><trkpt lat="44.61721686465894" lon="10.602411799967651"><ele>172.0</ele><time>2026-04-06T15:10:26Z</time></trkpt><trkpt lat="44.6173948153849" lon="10.602454286638434"><ele>172.0</ele><time>2026-04-06T15:10:27Z</time></trkpt><trkpt lat="44.61759112250291" lon="10.602550795719747"><ele>172.0</ele><time>2026-04-06T15:10:28Z</time></trkpt><trkpt lat="44.61776857317636" lon="10.602616699152241"><ele>172.0</ele><time>2026-04-06T15:10:29Z</time></trkpt><trkpt lat="44.617930461855956" lon="10.60267653588156"><ele>170.8</ele><time>2026-04-06T15:10:30Z</time></trkpt><trkpt lat="44.618065923275076" lon="10.602725563407127"><ele>169.6</ele><time>2026-04-06T15:10:31Z</time></trkpt><trkpt lat="44.618176236932015" lon="10.602746672073344"><ele>168.4</ele><time>2026-04-06T15:10:32Z</time></trkpt><trkpt lat="44.618271863039794" lon="10.602775754806414"><ele>167.20000000000002</ele><time>2026-04-06T15:10:33Z</time></trkpt><trkpt lat="44.61835736629594" lon="10.602777765101404"><ele>166.0</ele><time>2026-04-06T15:10:34Z</time></trkpt><trkpt lat="44.61845609402783" lon="10.602761934115447"><ele>166.0</ele><time>2026-04-06T15:10:35Z</time></trkpt><trkpt lat="44.61856437318531" lon="10.602738078665986"><ele>166.0</ele><time>2026-04-06T15:10:36Z</time></trkpt><trkpt lat="44.61867305762293" lon="10.602711138975117"><ele>166.0</ele><time>2026-04-06T15:10:37Z</time></trkpt><trkpt lat="44.61878475032018" lon="10.602687116319316"><ele>166.0</ele><time>2026-04-06T15:10:38Z</time></trkpt><trkpt lat="44.618889709074345" lon="10.602660062786796"><ele>166.0</ele><time>2026-04-06T15:10:39Z</time></trkpt><trkpt lat="44.619000930697226" lon="10.602643496519716"><ele>165.60000000000002</ele><time>2026-04-06T15:10:40Z</time></trkpt><trkpt lat="44.619101530991635" lon="10.6026340637545"><ele>165.2</ele><time>2026-04-06T15:10:41Z</time></trkpt><trkpt lat="44.619200581759" lon="10.602610385036744"><ele>164.8</ele><time>2026-04-06T15:10:42Z</time></trkpt><trkpt lat="44.61929103343366" lon="10.60258678647021"><ele>164.39999999999998</ele><time>2026-04-06T15:10:43Z</time></trkpt><trkpt lat="44.61939178394322" lon="10.602578401126518"><ele>164.0</ele><time>2026-04-06T15:10:44Z</time></trkpt><trkpt lat="44.61949105008923" lon="10.602589927607841"><ele>164.0</ele><time>2026-04-06T15:10:45Z</time></trkpt><trkpt lat="44.619562921167834" lon="10.60259121800069"><ele>164.0</ele><time>2026-04-06T15:10:46Z</time></trkpt><trkpt lat="44.61964406196283" lon="10.602612703421048"><ele>164.0</ele><time>2026-04-06T15:10:47Z</time></trkpt><trkpt lat="44.61971037482121" lon="10.602646396507419"><ele>164.0</ele><time>2026-04-06T15:10:48Z</time></trkpt><trkpt lat="44.619797131644546" lon="10.60275294728646"><ele>164.0</ele><time>2026-04-06T15:10:50Z</time></trkpt><trkpt lat="44.61984156251591" lon="10.602817632026298"><ele>164.0</ele><time>2026-04-06T15:10:51Z</time></trkpt><trkpt lat="44.61990492046444" lon="10.602862007144935"><ele>164.0</ele><time>2026-04-06T15:10:52Z</time></trkpt><trkpt lat="44.61997569017623" lon="10.602874208664938"><ele>164.0</ele><time>2026-04-06T15:10:53Z</time></trkpt><trkpt lat="44.62005844340558" lon="10.602857533947063"><ele>164.0</ele><time>2026-04-06T15:10:54Z</time></trkpt><trkpt lat="44.62014513778947" lon="10.602821206607404"><ele>164.0</ele><time>2026-04-06T15:10:55Z</time></trkpt><trkpt lat="44.62022821853612" lon="10.602774541895513"><ele>164.0</ele><time>2026-04-06T15:10:56Z</time></trkpt><trkpt lat="44.620340631950874" lon="10.602776479819417"><ele>164.0</ele><time>2026-04-06T15:10:58Z</time></trkpt><trkpt lat="44.62040513188152" lon="10.602823679520384"><ele>163.33333333333331</ele><time>2026-04-06T15:10:59Z</time></trkpt><trkpt lat="44.620467322505526" lon="10.602881399492636"><ele>162.66666666666666</ele><time>2026-04-06T15:11:00Z</time></trkpt><trkpt lat="44.62052777456377" lon="10.602928318531088"><ele>162.0</ele><time>2026-04-06T15:11:01Z</time></trkpt><trkpt lat="44.62063419220044" lon="10.603000511138424"><ele>161.33333333333334</ele><time>2026-04-06T15:11:03Z</time></trkpt><trkpt lat="44.62072287921859" lon="10.603056440654441"><ele>160.66666666666669</ele><time>2026-04-06T15:11:05Z</time></trkpt><trkpt lat="44.62069978491194" lon="10.602971252588745"><ele>160.0</ele><time>2026-04-06T15:11:09Z</time></trkpt><trkpt lat="44.6206124094451" lon="10.602994629113724"><ele>160.0</ele><time>2026-04-06T15:11:10Z</time></trkpt><trkpt lat="44.620537447476515" lon="10.602925556004264"><ele>160.0</ele><time>2026-04-06T15:11:11Z</time></trkpt><trkpt lat="44.620466754833245" lon="10.602854764442496"><ele>160.0</ele><time>2026-04-06T15:11:12Z</time></trkpt><trkpt lat="44.620401108061685" lon="10.602789629311358"><ele>160.0</ele><time>2026-04-06T15:11:13Z</time></trkpt><trkpt lat="44.62034030147884" lon="10.602749558714407"><ele>160.0</ele><time>2026-04-06T15:11:14Z</time></trkpt><trkpt lat="44.62029992836286" lon="10.602670628450376"><ele>160.0</ele><time>2026-04-06T15:11:16Z</time></trkpt><trkpt lat="44.620337763386686" lon="10.602563053054588"><ele>160.5</ele><time>2026-04-06T15:11:17Z</time></trkpt><trkpt lat="44.620394003158815" lon="10.602483840250745"><ele>161.0</ele><time>2026-04-06T15:11:18Z</time></trkpt><trkpt lat="44.620450036985616" lon="10.602410531503695"><ele>161.5</ele><time>2026-04-06T15:11:19Z</time></trkpt><trkpt lat="44.62049784087819" lon="10.602349005401972"><ele>162.0</ele><time>2026-04-06T15:11:20Z</time></trkpt><trkpt lat="44.62054384507292" lon="10.602285272571315"><ele>162.5</ele><time>2026-04-06T15:11:21Z</time></trkpt><trkpt lat="44.620601708444994" lon="10.602207472573351"><ele>163.0</ele><time>2026-04-06T15:11:23Z</time></trkpt><trkpt lat="44.620665620760484" lon="10.602111997632294"><ele>163.0</ele><time>2026-04-06T15:11:26Z</time></trkpt><trkpt lat="44.62071434015977" lon="10.602051474035498"><ele>163.0</ele><time>2026-04-06T15:11:29Z</time></trkpt><trkpt lat="44.62076996097887" lon="10.60195793159543"><ele>163.0</ele><time>2026-04-06T15:11:32Z</time></trkpt><trkpt lat="44.62069795081436" lon="10.601908279852411"><ele>163.0</ele><time>2026-04-06T15:12:15Z</time></trkpt><trkpt lat="44.620641149731405" lon="10.601965176532063"><ele>163.0</ele><time>2026-04-06T15:12:21Z</time></trkpt><trkpt lat="44.620564576397875" lon="10.602029100968089"><ele>163.0</ele><time>2026-04-06T15:12:26Z</time></trkpt><trkpt lat="44.62061842341964" lon="10.602261641906551"><ele>163.0</ele><time>2026-04-06T15:12:51Z</time></trkpt><trkpt lat="44.62069022382985" lon="10.602139005806379"><ele>163.0</ele><time>2026-04-06T15:12:56Z</time></trkpt><trkpt lat="44.620666405853655" lon="10.60197960841807"><ele>163.0</ele><time>2026-04-06T15:13:10Z</time></trkpt><trkpt lat="44.62068807355452" lon="10.602099602426877"><ele>163.0</ele><time>2026-04-06T15:13:13Z</time></trkpt><trkpt lat="44.62067486005864" lon="10.601987560188372"><ele>163.0</ele><time>2026-04-06T15:13:19Z</time></trkpt><trkpt lat="44.620722799307536" lon="10.6019119187667"><ele>163.0</ele><time>2026-04-06T15:13:23Z</time></trkpt><trkpt lat="44.62078955765124" lon="10.601883184636392"><ele>163.0</ele><time>2026-04-06T15:13:43Z</time></trkpt><trkpt lat="44.620851365224624" lon="10.60192808236794"><ele>163.0</ele><time>2026-04-06T15:14:08Z</time></trkpt><trkpt lat="44.62079037602156" lon="10.60199037808375"><ele>163.0</ele><time>2026-04-06T15:14:42Z</time></trkpt><trkpt lat="44.62072021057245" lon="10.60208367707793"><ele>163.0</ele><time>2026-04-06T15:14:44Z</time></trkpt><trkpt lat="44.620671136259624" lon="10.602153456470278"><ele>163.0</ele><time>2026-04-06T15:14:46Z</time></trkpt><trkpt lat="44.62062169111792" lon="10.602222356757867"><ele>163.0</ele><time>2026-04-06T15:14:48Z</time></trkpt><trkpt lat="44.6205548413537" lon="10.60230214493654"><ele>163.0</ele><time>2026-04-06T15:14:51Z</time></trkpt><trkpt lat="44.620498393697694" lon="10.60235419525756"><ele>163.0</ele><time>2026-04-06T15:14:53Z</time></trkpt><trkpt lat="44.620454368809966" lon="10.602426808964447"><ele>163.0</ele><time>2026-04-06T15:14:58Z</time></trkpt><trkpt lat="44.62040883139446" lon="10.602512910898856"><ele>163.0</ele><time>2026-04-06T15:15:01Z</time></trkpt><trkpt lat="44.62035467215718" lon="10.602585886043995"><ele>163.0</ele><time>2026-04-06T15:15:04Z</time></trkpt><trkpt lat="44.6203025081359" lon="10.6026649778465"><ele>163.0</ele><time>2026-04-06T15:15:10Z</time></trkpt><trkpt lat="44.62034183670345" lon="10.602771206560444"><ele>163.0</ele><time>2026-04-06T15:15:13Z</time></trkpt><trkpt lat="44.62047490638394" lon="10.602804630811509"><ele>163.0</ele><time>2026-04-06T15:15:15Z</time></trkpt><trkpt lat="44.62056158619375" lon="10.602862410281784"><ele>163.0</ele><time>2026-04-06T15:15:16Z</time></trkpt><trkpt lat="44.620637802105364" lon="10.603013026475942"><ele>163.0</ele><time>2026-04-06T15:15:17Z</time></trkpt><trkpt lat="44.620771384152064" lon="10.603046652119255"><ele>162.4</ele><time>2026-04-06T15:15:18Z</time></trkpt><trkpt lat="44.62088533232426" lon="10.60312877780978"><ele>161.8</ele><time>2026-04-06T15:15:19Z</time></trkpt><trkpt lat="44.62098388266473" lon="10.603194944410737"><ele>161.2</ele><time>2026-04-06T15:15:20Z</time></trkpt><trkpt lat="44.62106417185262" lon="10.603250099409111"><ele>160.6</ele><time>2026-04-06T15:15:21Z</time></trkpt><trkpt lat="44.62111989708434" lon="10.60329259907791"><ele>160.0</ele><time>2026-04-06T15:15:22Z</time></trkpt><trkpt lat="44.621166881759464" lon="10.603385415946537"><ele>159.2</ele><time>2026-04-06T15:15:24Z</time></trkpt><trkpt lat="44.621236579818515" lon="10.603532859884808"><ele>158.4</ele><time>2026-04-06T15:15:26Z</time></trkpt><trkpt lat="44.621324258611175" lon="10.60358973292538"><ele>157.6</ele><time>2026-04-06T15:15:27Z</time></trkpt><trkpt lat="44.621431726439276" lon="10.603547259075482"><ele>156.8</ele><time>2026-04-06T15:15:28Z</time></trkpt><trkpt lat="44.62152639189192" lon="10.603568681220315"><ele>156.0</ele><time>2026-04-06T15:15:29Z</time></trkpt><trkpt lat="44.62159355791064" lon="10.603641328341249"><ele>155.83333333333334</ele><time>2026-04-06T15:15:30Z</time></trkpt><trkpt lat="44.62165823787845" lon="10.603691189909057"><ele>155.66666666666666</ele><time>2026-04-06T15:15:31Z</time></trkpt><trkpt lat="44.62173195985113" lon="10.603746300705058"><ele>155.5</ele><time>2026-04-06T15:15:32Z</time></trkpt><trkpt lat="44.621813884567466" lon="10.603805765227799"><ele>155.33333333333331</ele><time>2026-04-06T15:15:33Z</time></trkpt><trkpt lat="44.621893394658166" lon="10.603862789071194"><ele>155.16666666666666</ele><time>2026-04-06T15:15:34Z</time></trkpt><trkpt lat="44.62197683092207" lon="10.603922573640439"><ele>155.0</ele><time>2026-04-06T15:15:35Z</time></trkpt><trkpt lat="44.622069561757534" lon="10.603987790932766"><ele>154.8</ele><time>2026-04-06T15:15:36Z</time></trkpt><trkpt lat="44.62216943861006" lon="10.604054819256092"><ele>154.6</ele><time>2026-04-06T15:15:37Z</time></trkpt><trkpt lat="44.62227068701937" lon="10.604121855866126"><ele>154.4</ele><time>2026-04-06T15:15:38Z</time></trkpt><trkpt lat="44.62235681588071" lon="10.604178881960157"><ele>154.2</ele><time>2026-04-06T15:15:39Z</time></trkpt><trkpt lat="44.622446993191474" lon="10.604238587894892"><ele>154.0</ele><time>2026-04-06T15:15:40Z</time></trkpt><trkpt lat="44.62253008914508" lon="10.604292871211676"><ele>154.0</ele><time>2026-04-06T15:15:41Z</time></trkpt><trkpt lat="44.62261327838165" lon="10.604347256585243"><ele>154.0</ele><time>2026-04-06T15:15:42Z</time></trkpt><trkpt lat="44.62269935338177" lon="10.604403530299168"><ele>154.0</ele><time>2026-04-06T15:15:43Z</time></trkpt><trkpt lat="44.622782577686586" lon="10.604457938590505"><ele>154.0</ele><time>2026-04-06T15:15:44Z</time></trkpt><trkpt lat="44.622861243211496" lon="10.60450936655098"><ele>154.0</ele><time>2026-04-06T15:15:45Z</time></trkpt><trkpt lat="44.62295186290739" lon="10.604568609758978"><ele>153.2</ele><time>2026-04-06T15:15:46Z</time></trkpt><trkpt lat="44.623035305974625" lon="10.604623494915115"><ele>152.4</ele><time>2026-04-06T15:15:47Z</time></trkpt><trkpt lat="44.62311211900099" lon="10.604674302962074"><ele>151.6</ele><time>2026-04-06T15:15:48Z</time></trkpt><trkpt lat="44.62320953796533" lon="10.604738741054032"><ele>150.8</ele><time>2026-04-06T15:15:49Z</time></trkpt><trkpt lat="44.623302141453465" lon="10.60480144513952"><ele>150.0</ele><time>2026-04-06T15:15:50Z</time></trkpt><trkpt lat="44.623406566224276" lon="10.604872041735202"><ele>150.0</ele><time>2026-04-06T15:15:51Z</time></trkpt><trkpt lat="44.62351316222751" lon="10.604944106228615"><ele>150.0</ele><time>2026-04-06T15:15:52Z</time></trkpt><trkpt lat="44.623626979947346" lon="10.60500276930687"><ele>150.0</ele><time>2026-04-06T15:15:53Z</time></trkpt><trkpt lat="44.623721126571645" lon="10.60508470086061"><ele>150.0</ele><time>2026-04-06T15:15:54Z</time></trkpt><trkpt lat="44.623831667086904" lon="10.605159432100805"><ele>149.25</ele><time>2026-04-06T15:15:55Z</time></trkpt><trkpt lat="44.62394494559131" lon="10.605235420947391"><ele>148.5</ele><time>2026-04-06T15:15:56Z</time></trkpt><trkpt lat="44.62404747476215" lon="10.605303991404044"><ele>147.75</ele><time>2026-04-06T15:15:57Z</time></trkpt><trkpt lat="44.62416120270185" lon="10.605354600702189"><ele>147.0</ele><time>2026-04-06T15:15:58Z</time></trkpt><trkpt lat="44.62426095542509" lon="10.605446645571131"><ele>147.0</ele><time>2026-04-06T15:15:59Z</time></trkpt><trkpt lat="44.6243721349778" lon="10.605495332664537"><ele>147.0</ele><time>2026-04-06T15:16:00Z</time></trkpt><trkpt lat="44.62447535704094" lon="10.605567459651937"><ele>147.0</ele><time>2026-04-06T15:16:01Z</time></trkpt><trkpt lat="44.624574460237724" lon="10.605632289276956"><ele>147.0</ele><time>2026-04-06T15:16:02Z</time></trkpt><trkpt lat="44.62467286702408" lon="10.605697417982581"><ele>146.6</ele><time>2026-04-06T15:16:03Z</time></trkpt><trkpt lat="44.62476034707086" lon="10.605753777005354"><ele>146.2</ele><time>2026-04-06T15:16:04Z</time></trkpt><trkpt lat="44.6248497742808" lon="10.60581137365555"><ele>145.8</ele><time>2026-04-06T15:16:05Z</time></trkpt><trkpt lat="44.62493390255271" lon="10.605864657068697"><ele>145.4</ele><time>2026-04-06T15:16:06Z</time></trkpt><trkpt lat="44.625033294700046" lon="10.605926431634543"><ele>145.0</ele><time>2026-04-06T15:16:07Z</time></trkpt><trkpt lat="44.62515659990615" lon="10.605978901750106"><ele>145.0</ele><time>2026-04-06T15:16:08Z</time></trkpt><trkpt lat="44.62529864976927" lon="10.606017694714405"><ele>145.0</ele><time>2026-04-06T15:16:09Z</time></trkpt><trkpt lat="44.62545072164271" lon="10.606041017846609"><ele>145.0</ele><time>2026-04-06T15:16:10Z</time></trkpt><trkpt lat="44.62560714537564" lon="10.606058770156901"><ele>144.0</ele><time>2026-04-06T15:16:11Z</time></trkpt><trkpt lat="44.6257605202876" lon="10.606073969283813"><ele>143.0</ele><time>2026-04-06T15:16:12Z</time></trkpt><trkpt lat="44.62591753152956" lon="10.606093961242966"><ele>142.0</ele><time>2026-04-06T15:16:13Z</time></trkpt><trkpt lat="44.6260666707281" lon="10.606113638333861"><ele>141.5</ele><time>2026-04-06T15:16:14Z</time></trkpt><trkpt lat="44.62621220016009" lon="10.606119821190845"><ele>141.0</ele><time>2026-04-06T15:16:15Z</time></trkpt><trkpt lat="44.62635586836955" lon="10.60614191113538"><ele>140.5</ele><time>2026-04-06T15:16:16Z</time></trkpt><trkpt lat="44.626484063277395" lon="10.606156252752594"><ele>140.0</ele><time>2026-04-06T15:16:17Z</time></trkpt><trkpt lat="44.626608842716564" lon="10.606159004455591"><ele>140.0</ele><time>2026-04-06T15:16:18Z</time></trkpt><trkpt lat="44.6267361364261" lon="10.606155970743481"><ele>140.0</ele><time>2026-04-06T15:16:19Z</time></trkpt><trkpt lat="44.6268489618608" lon="10.606148188366934"><ele>140.0</ele><time>2026-04-06T15:16:20Z</time></trkpt><trkpt lat="44.62695512652735" lon="10.60614599738675"><ele>140.0</ele><time>2026-04-06T15:16:21Z</time></trkpt><trkpt lat="44.627044248080296" lon="10.606152025267045"><ele>140.0</ele><time>2026-04-06T15:16:22Z</time></trkpt><trkpt lat="44.62712858412558" lon="10.606180762214402"><ele>140.0</ele><time>2026-04-06T15:16:23Z</time></trkpt><trkpt lat="44.6272091765956" lon="10.606191799375534"><ele>140.0</ele><time>2026-04-06T15:16:24Z</time></trkpt><trkpt lat="44.62729388615781" lon="10.606202429119145"><ele>140.0</ele><time>2026-04-06T15:16:25Z</time></trkpt><trkpt lat="44.627393880609695" lon="10.606146881849678"><ele>140.0</ele><time>2026-04-06T15:16:26Z</time></trkpt><trkpt lat="44.62751079259805" lon="10.60609472903928"><ele>140.0</ele><time>2026-04-06T15:16:27Z</time></trkpt><trkpt lat="44.62764618167214" lon="10.606069814696998"><ele>140.0</ele><time>2026-04-06T15:16:28Z</time></trkpt><trkpt lat="44.627796490978234" lon="10.606065247135708"><ele>140.0</ele><time>2026-04-06T15:16:29Z</time></trkpt><trkpt lat="44.627951716172056" lon="10.606050939488613"><ele>140.0</ele><time>2026-04-06T15:16:29.999Z</time></trkpt><trkpt lat="44.62811062779645" lon="10.606044649566396"><ele>139.75</ele><time>2026-04-06T15:16:30.999Z</time></trkpt><trkpt lat="44.62825783833516" lon="10.606025021840656"><ele>139.5</ele><time>2026-04-06T15:16:32Z</time></trkpt><trkpt lat="44.62840112132317" lon="10.606006676806665"><ele>139.25</ele><time>2026-04-06T15:16:33Z</time></trkpt><trkpt lat="44.62854715392496" lon="10.605987189071586"><ele>139.0</ele><time>2026-04-06T15:16:34Z</time></trkpt><trkpt lat="44.628690717327004" lon="10.605979680875462"><ele>138.0</ele><time>2026-04-06T15:16:35Z</time></trkpt><trkpt lat="44.628838622471136" lon="10.605986724634818"><ele>137.0</ele><time>2026-04-06T15:16:36Z</time></trkpt><trkpt lat="44.62897950071125" lon="10.605985414369918"><ele>136.0</ele><time>2026-04-06T15:16:37Z</time></trkpt><trkpt lat="44.629125072413295" lon="10.605980387361283"><ele>135.0</ele><time>2026-04-06T15:16:38Z</time></trkpt><trkpt lat="44.629265559892374" lon="10.605975765216197"><ele>135.0</ele><time>2026-04-06T15:16:39Z</time></trkpt><trkpt lat="44.629409373835394" lon="10.605969043847827"><ele>135.0</ele><time>2026-04-06T15:16:40Z</time></trkpt><trkpt lat="44.6295536358248" lon="10.605962795685405"><ele>135.0</ele><time>2026-04-06T15:16:41Z</time></trkpt><trkpt lat="44.62969795277687" lon="10.605958204060894"><ele>135.0</ele><time>2026-04-06T15:16:42Z</time></trkpt><trkpt lat="44.6298448352032" lon="10.605948651345743"><ele>134.75</ele><time>2026-04-06T15:16:43Z</time></trkpt><trkpt lat="44.6299987156913" lon="10.605945544485987"><ele>134.5</ele><time>2026-04-06T15:16:44Z</time></trkpt><trkpt lat="44.63013959978241" lon="10.605935532828271"><ele>134.25</ele><time>2026-04-06T15:16:45Z</time></trkpt><trkpt lat="44.63029029543701" lon="10.605920566513396"><ele>134.0</ele><time>2026-04-06T15:16:46Z</time></trkpt><trkpt lat="44.63043493377012" lon="10.60589851071111"><ele>133.25</ele><time>2026-04-06T15:16:47Z</time></trkpt><trkpt lat="44.630573087808145" lon="10.605870307830665"><ele>132.5</ele><time>2026-04-06T15:16:48Z</time></trkpt><trkpt lat="44.630709145937836" lon="10.605836825757011"><ele>131.75</ele><time>2026-04-06T15:16:49Z</time></trkpt><trkpt lat="44.630852301451476" lon="10.605807252296316"><ele>131.0</ele><time>2026-04-06T15:16:50Z</time></trkpt><trkpt lat="44.630985295069976" lon="10.605770077742083"><ele>131.0</ele><time>2026-04-06T15:16:51Z</time></trkpt><trkpt lat="44.631128690524946" lon="10.605747194815539"><ele>131.0</ele><time>2026-04-06T15:16:52Z</time></trkpt><trkpt lat="44.631266408029944" lon="10.605711991379806"><ele>131.0</ele><time>2026-04-06T15:16:53Z</time></trkpt><trkpt lat="44.63140075606305" lon="10.605671205039611"><ele>131.0</ele><time>2026-04-06T15:16:54Z</time></trkpt><trkpt lat="44.631547224023564" lon="10.60564502351961"><ele>130.5</ele><time>2026-04-06T15:16:55Z</time></trkpt><trkpt lat="44.63167480704642" lon="10.605613975084411"><ele>130.0</ele><time>2026-04-06T15:16:56Z</time></trkpt><trkpt lat="44.631806535411634" lon="10.605584729371294"><ele>129.5</ele><time>2026-04-06T15:16:57Z</time></trkpt><trkpt lat="44.63193851363237" lon="10.60556092940654"><ele>129.0</ele><time>2026-04-06T15:16:58Z</time></trkpt><trkpt lat="44.63207509734202" lon="10.605536710493094"><ele>128.75</ele><time>2026-04-06T15:16:59Z</time></trkpt><trkpt lat="44.632210101355355" lon="10.605510012702572"><ele>128.5</ele><time>2026-04-06T15:17:00Z</time></trkpt><trkpt lat="44.6323478064893" lon="10.605477809372845"><ele>128.25</ele><time>2026-04-06T15:17:01Z</time></trkpt><trkpt lat="44.63248810906146" lon="10.605454586093183"><ele>128.0</ele><time>2026-04-06T15:17:02Z</time></trkpt><trkpt lat="44.632625553533856" lon="10.605424750016775"><ele>128.0</ele><time>2026-04-06T15:17:03Z</time></trkpt><trkpt lat="44.63276150856843" lon="10.605401936920519"><ele>128.0</ele><time>2026-04-06T15:17:04Z</time></trkpt><trkpt lat="44.63290428812841" lon="10.605366360966721"><ele>128.0</ele><time>2026-04-06T15:17:05Z</time></trkpt><trkpt lat="44.63303124216965" lon="10.605343458239183"><ele>128.0</ele><time>2026-04-06T15:17:06Z</time></trkpt><trkpt lat="44.63316378486824" lon="10.605307935840774"><ele>127.0</ele><time>2026-04-06T15:17:07Z</time></trkpt><trkpt lat="44.6332842155634" lon="10.605273082081439"><ele>126.0</ele><time>2026-04-06T15:17:08Z</time></trkpt><trkpt lat="44.63340760836061" lon="10.60525101076601"><ele>125.0</ele><time>2026-04-06T15:17:09Z</time></trkpt><trkpt lat="44.63352662504223" lon="10.60522739422608"><ele>124.0</ele><time>2026-04-06T15:17:10Z</time></trkpt><trkpt lat="44.63364761130954" lon="10.605229398655402"><ele>123.6</ele><time>2026-04-06T15:17:11Z</time></trkpt><trkpt lat="44.6337599834303" lon="10.605248328663778"><ele>123.2</ele><time>2026-04-06T15:17:12Z</time></trkpt><trkpt lat="44.63384724513477" lon="10.605275800363914"><ele>122.79999999999998</ele><time>2026-04-06T15:17:13Z</time></trkpt><trkpt lat="44.6339330815555" lon="10.6053126782422"><ele>122.39999999999999</ele><time>2026-04-06T15:17:14Z</time></trkpt><trkpt lat="44.634008708189114" lon="10.605338802936433"><ele>122.0</ele><time>2026-04-06T15:17:15Z</time></trkpt><trkpt lat="44.63408527551632" lon="10.605305578288675"><ele>121.83333333333333</ele><time>2026-04-06T15:17:17Z</time></trkpt><trkpt lat="44.63408337712726" lon="10.60520546532545"><ele>121.66666666666666</ele><time>2026-04-06T15:17:19Z</time></trkpt><trkpt lat="44.63408414293629" lon="10.60508178061363"><ele>121.5</ele><time>2026-04-06T15:17:56Z</time></trkpt><trkpt lat="44.63411154986061" lon="10.60499474296346"><ele>121.33333333333334</ele><time>2026-04-06T15:17:59Z</time></trkpt><trkpt lat="44.6341798026118" lon="10.604949252175807"><ele>121.16666666666667</ele><time>2026-04-06T15:18:41Z</time></trkpt><trkpt lat="44.63418973680857" lon="10.605095194785227"><ele>121.0</ele><time>2026-04-06T15:18:56Z</time></trkpt><trkpt lat="44.63414943090346" lon="10.605168098738838"><ele>121.0</ele><time>2026-04-06T15:19:01Z</time></trkpt><trkpt lat="44.63421558739671" lon="10.605159810941503"><ele>121.0</ele><time>2026-04-06T15:19:20.207Z</time></trkpt></trkseg></trk></gpx>